<?xml version="1.0" encoding="UTF-8" standalone="no" ?>
<gpx xmlns="http://www.topografix.com/GPX/1/1" xmlns:xsi="http://www.w3.org/2001/XMLSchema-instance" xsi:schemaLocation="http://www.topografix.com/GPX/1/1 http://www.topografix.com/GPX/1/1/gpx.xsd" version="1.1" creator="VisuGPX - https://www.visugpx.com">
  <metadata>
    <name>E 1301</name>
  </metadata>
  <trk>
    <name><![CDATA[Sortie vélo dans l'après-midi]]></name>
    <trkseg>
      <trkpt lat="49.28642" lon="-0.11881">
        <ele>-0.2</ele>
        <time>2024-03-20T13:01:40Z</time>
      </trkpt>
      <trkpt lat="49.28641" lon="-0.11877">
        <ele>7</ele>
        <time>2024-03-20T13:01:41Z</time>
      </trkpt>
      <trkpt lat="49.28639" lon="-0.11873">
        <ele>7.2</ele>
        <time>2024-03-20T13:01:42Z</time>
      </trkpt>
      <trkpt lat="49.28638" lon="-0.11869">
        <ele>7.2</ele>
        <time>2024-03-20T13:01:43Z</time>
      </trkpt>
      <trkpt lat="49.28636" lon="-0.11865">
        <ele>7.2</ele>
        <time>2024-03-20T13:01:44Z</time>
      </trkpt>
      <trkpt lat="49.28633" lon="-0.11862">
        <ele>7.4</ele>
        <time>2024-03-20T13:01:45Z</time>
      </trkpt>
      <trkpt lat="49.28631" lon="-0.11857">
        <ele>7.4</ele>
        <time>2024-03-20T13:01:46Z</time>
      </trkpt>
      <trkpt lat="49.2863" lon="-0.11853">
        <ele>7.4</ele>
        <time>2024-03-20T13:01:47Z</time>
      </trkpt>
      <trkpt lat="49.28628" lon="-0.11848">
        <ele>7.4</ele>
        <time>2024-03-20T13:01:48Z</time>
      </trkpt>
      <trkpt lat="49.28627" lon="-0.11843">
        <ele>7.4</ele>
        <time>2024-03-20T13:01:49Z</time>
      </trkpt>
      <trkpt lat="49.28627" lon="-0.11838">
        <ele>7.4</ele>
        <time>2024-03-20T13:01:50Z</time>
      </trkpt>
      <trkpt lat="49.28627" lon="-0.11833">
        <ele>7.4</ele>
        <time>2024-03-20T13:01:51Z</time>
      </trkpt>
      <trkpt lat="49.28628" lon="-0.11827">
        <ele>7.6</ele>
        <time>2024-03-20T13:01:52Z</time>
      </trkpt>
      <trkpt lat="49.28629" lon="-0.11822">
        <ele>7.6</ele>
        <time>2024-03-20T13:01:53Z</time>
      </trkpt>
      <trkpt lat="49.2863" lon="-0.11816">
        <ele>7.4</ele>
        <time>2024-03-20T13:01:54Z</time>
      </trkpt>
      <trkpt lat="49.28631" lon="-0.11811">
        <ele>7.6</ele>
        <time>2024-03-20T13:01:55Z</time>
      </trkpt>
      <trkpt lat="49.28632" lon="-0.11806">
        <ele>7.8</ele>
        <time>2024-03-20T13:01:56Z</time>
      </trkpt>
      <trkpt lat="49.28632" lon="-0.11801">
        <ele>8</ele>
        <time>2024-03-20T13:01:57Z</time>
      </trkpt>
      <trkpt lat="49.28633" lon="-0.11797">
        <ele>8</ele>
        <time>2024-03-20T13:01:58Z</time>
      </trkpt>
      <trkpt lat="49.28633" lon="-0.11792">
        <ele>7.8</ele>
        <time>2024-03-20T13:01:59Z</time>
      </trkpt>
      <trkpt lat="49.28634" lon="-0.11787">
        <ele>7.6</ele>
        <time>2024-03-20T13:02:00Z</time>
      </trkpt>
      <trkpt lat="49.28636" lon="-0.11782">
        <ele>7.6</ele>
        <time>2024-03-20T13:02:01Z</time>
      </trkpt>
      <trkpt lat="49.28637" lon="-0.11776">
        <ele>7.4</ele>
        <time>2024-03-20T13:02:02Z</time>
      </trkpt>
      <trkpt lat="49.28639" lon="-0.1177">
        <ele>7.4</ele>
        <time>2024-03-20T13:02:03Z</time>
      </trkpt>
      <trkpt lat="49.28639" lon="-0.11765">
        <ele>7.4</ele>
        <time>2024-03-20T13:02:04Z</time>
      </trkpt>
      <trkpt lat="49.28641" lon="-0.1176">
        <ele>7.4</ele>
        <time>2024-03-20T13:02:05Z</time>
      </trkpt>
      <trkpt lat="49.28642" lon="-0.11755">
        <ele>7.4</ele>
        <time>2024-03-20T13:02:06Z</time>
      </trkpt>
      <trkpt lat="49.28643" lon="-0.1175">
        <ele>7.4</ele>
        <time>2024-03-20T13:02:07Z</time>
      </trkpt>
      <trkpt lat="49.28645" lon="-0.11745">
        <ele>7.4</ele>
        <time>2024-03-20T13:02:08Z</time>
      </trkpt>
      <trkpt lat="49.28646" lon="-0.1174">
        <ele>7.4</ele>
        <time>2024-03-20T13:02:09Z</time>
      </trkpt>
      <trkpt lat="49.28648" lon="-0.11734">
        <ele>7.4</ele>
        <time>2024-03-20T13:02:10Z</time>
      </trkpt>
      <trkpt lat="49.28649" lon="-0.11729">
        <ele>7.4</ele>
        <time>2024-03-20T13:02:11Z</time>
      </trkpt>
      <trkpt lat="49.2865" lon="-0.11724">
        <ele>7.4</ele>
        <time>2024-03-20T13:02:12Z</time>
      </trkpt>
      <trkpt lat="49.28651" lon="-0.11718">
        <ele>7.4</ele>
        <time>2024-03-20T13:02:13Z</time>
      </trkpt>
      <trkpt lat="49.28653" lon="-0.11713">
        <ele>7.4</ele>
        <time>2024-03-20T13:02:14Z</time>
      </trkpt>
      <trkpt lat="49.28654" lon="-0.11708">
        <ele>7.6</ele>
        <time>2024-03-20T13:02:15Z</time>
      </trkpt>
      <trkpt lat="49.28655" lon="-0.11703">
        <ele>7.6</ele>
        <time>2024-03-20T13:02:16Z</time>
      </trkpt>
      <trkpt lat="49.28656" lon="-0.11698">
        <ele>7.6</ele>
        <time>2024-03-20T13:02:17Z</time>
      </trkpt>
      <trkpt lat="49.28656" lon="-0.11694">
        <ele>7.6</ele>
        <time>2024-03-20T13:02:18Z</time>
      </trkpt>
      <trkpt lat="49.28656" lon="-0.1169">
        <ele>7.6</ele>
        <time>2024-03-20T13:02:19Z</time>
      </trkpt>
      <trkpt lat="49.28656" lon="-0.11686">
        <ele>7.6</ele>
        <time>2024-03-20T13:02:20Z</time>
      </trkpt>
      <trkpt lat="49.28655" lon="-0.11682">
        <ele>7.6</ele>
        <time>2024-03-20T13:02:21Z</time>
      </trkpt>
      <trkpt lat="49.28653" lon="-0.11679">
        <ele>7.8</ele>
        <time>2024-03-20T13:02:22Z</time>
      </trkpt>
      <trkpt lat="49.28651" lon="-0.11676">
        <ele>7.8</ele>
        <time>2024-03-20T13:02:23Z</time>
      </trkpt>
      <trkpt lat="49.28649" lon="-0.11675">
        <ele>8</ele>
        <time>2024-03-20T13:02:24Z</time>
      </trkpt>
      <trkpt lat="49.28646" lon="-0.11675">
        <ele>8.2</ele>
        <time>2024-03-20T13:02:25Z</time>
      </trkpt>
      <trkpt lat="49.28643" lon="-0.11676">
        <ele>8.2</ele>
        <time>2024-03-20T13:02:26Z</time>
      </trkpt>
      <trkpt lat="49.28639" lon="-0.11678">
        <ele>8.2</ele>
        <time>2024-03-20T13:02:27Z</time>
      </trkpt>
      <trkpt lat="49.28635" lon="-0.11679">
        <ele>8.2</ele>
        <time>2024-03-20T13:02:28Z</time>
      </trkpt>
      <trkpt lat="49.28631" lon="-0.1168">
        <ele>8.4</ele>
        <time>2024-03-20T13:02:29Z</time>
      </trkpt>
      <trkpt lat="49.28626" lon="-0.11682">
        <ele>8.4</ele>
        <time>2024-03-20T13:02:30Z</time>
      </trkpt>
      <trkpt lat="49.28621" lon="-0.11683">
        <ele>8.4</ele>
        <time>2024-03-20T13:02:31Z</time>
      </trkpt>
      <trkpt lat="49.28616" lon="-0.11686">
        <ele>8.4</ele>
        <time>2024-03-20T13:02:32Z</time>
      </trkpt>
      <trkpt lat="49.28611" lon="-0.11689">
        <ele>8.4</ele>
        <time>2024-03-20T13:02:33Z</time>
      </trkpt>
      <trkpt lat="49.28605" lon="-0.11691">
        <ele>8.4</ele>
        <time>2024-03-20T13:02:34Z</time>
      </trkpt>
      <trkpt lat="49.28601" lon="-0.11692">
        <ele>8.4</ele>
        <time>2024-03-20T13:02:35Z</time>
      </trkpt>
      <trkpt lat="49.28596" lon="-0.11694">
        <ele>8.4</ele>
        <time>2024-03-20T13:02:36Z</time>
      </trkpt>
      <trkpt lat="49.2859" lon="-0.11696">
        <ele>8.6</ele>
        <time>2024-03-20T13:02:37Z</time>
      </trkpt>
      <trkpt lat="49.28585" lon="-0.11697">
        <ele>8.6</ele>
        <time>2024-03-20T13:02:38Z</time>
      </trkpt>
      <trkpt lat="49.28579" lon="-0.11698">
        <ele>8.6</ele>
        <time>2024-03-20T13:02:39Z</time>
      </trkpt>
      <trkpt lat="49.28574" lon="-0.117">
        <ele>8.6</ele>
        <time>2024-03-20T13:02:40Z</time>
      </trkpt>
      <trkpt lat="49.28568" lon="-0.11701">
        <ele>8.6</ele>
        <time>2024-03-20T13:02:41Z</time>
      </trkpt>
      <trkpt lat="49.28562" lon="-0.11702">
        <ele>8.6</ele>
        <time>2024-03-20T13:02:42Z</time>
      </trkpt>
      <trkpt lat="49.28557" lon="-0.11703">
        <ele>8.8</ele>
        <time>2024-03-20T13:02:43Z</time>
      </trkpt>
      <trkpt lat="49.28551" lon="-0.11704">
        <ele>8.8</ele>
        <time>2024-03-20T13:02:44Z</time>
      </trkpt>
      <trkpt lat="49.28545" lon="-0.11704">
        <ele>9</ele>
        <time>2024-03-20T13:02:45Z</time>
      </trkpt>
      <trkpt lat="49.28539" lon="-0.11704">
        <ele>9</ele>
        <time>2024-03-20T13:02:46Z</time>
      </trkpt>
      <trkpt lat="49.28533" lon="-0.11704">
        <ele>9</ele>
        <time>2024-03-20T13:02:47Z</time>
      </trkpt>
      <trkpt lat="49.28527" lon="-0.11704">
        <ele>9</ele>
        <time>2024-03-20T13:02:48Z</time>
      </trkpt>
      <trkpt lat="49.28521" lon="-0.11703">
        <ele>9</ele>
        <time>2024-03-20T13:02:49Z</time>
      </trkpt>
      <trkpt lat="49.28515" lon="-0.11702">
        <ele>9</ele>
        <time>2024-03-20T13:02:50Z</time>
      </trkpt>
      <trkpt lat="49.2851" lon="-0.11702">
        <ele>9</ele>
        <time>2024-03-20T13:02:51Z</time>
      </trkpt>
      <trkpt lat="49.28502" lon="-0.117">
        <ele>9</ele>
        <time>2024-03-20T13:02:52Z</time>
      </trkpt>
      <trkpt lat="49.28496" lon="-0.11698">
        <ele>9</ele>
        <time>2024-03-20T13:02:53Z</time>
      </trkpt>
      <trkpt lat="49.2849" lon="-0.11697">
        <ele>9</ele>
        <time>2024-03-20T13:02:54Z</time>
      </trkpt>
      <trkpt lat="49.28484" lon="-0.11695">
        <ele>9</ele>
        <time>2024-03-20T13:02:55Z</time>
      </trkpt>
      <trkpt lat="49.28478" lon="-0.11694">
        <ele>9</ele>
        <time>2024-03-20T13:02:56Z</time>
      </trkpt>
      <trkpt lat="49.28473" lon="-0.11693">
        <ele>9</ele>
        <time>2024-03-20T13:02:57Z</time>
      </trkpt>
      <trkpt lat="49.28467" lon="-0.11691">
        <ele>9</ele>
        <time>2024-03-20T13:02:58Z</time>
      </trkpt>
      <trkpt lat="49.28461" lon="-0.11691">
        <ele>9</ele>
        <time>2024-03-20T13:02:59Z</time>
      </trkpt>
      <trkpt lat="49.28455" lon="-0.11689">
        <ele>9</ele>
        <time>2024-03-20T13:03:00Z</time>
      </trkpt>
      <trkpt lat="49.28449" lon="-0.11688">
        <ele>9</ele>
        <time>2024-03-20T13:03:01Z</time>
      </trkpt>
      <trkpt lat="49.28443" lon="-0.11687">
        <ele>9</ele>
        <time>2024-03-20T13:03:02Z</time>
      </trkpt>
      <trkpt lat="49.28437" lon="-0.11685">
        <ele>9</ele>
        <time>2024-03-20T13:03:03Z</time>
      </trkpt>
      <trkpt lat="49.28431" lon="-0.11684">
        <ele>9</ele>
        <time>2024-03-20T13:03:04Z</time>
      </trkpt>
      <trkpt lat="49.28425" lon="-0.11682">
        <ele>9</ele>
        <time>2024-03-20T13:03:05Z</time>
      </trkpt>
      <trkpt lat="49.28419" lon="-0.11681">
        <ele>9</ele>
        <time>2024-03-20T13:03:06Z</time>
      </trkpt>
      <trkpt lat="49.28413" lon="-0.1168">
        <ele>9</ele>
        <time>2024-03-20T13:03:07Z</time>
      </trkpt>
      <trkpt lat="49.28407" lon="-0.11678">
        <ele>9</ele>
        <time>2024-03-20T13:03:08Z</time>
      </trkpt>
      <trkpt lat="49.28401" lon="-0.11677">
        <ele>9</ele>
        <time>2024-03-20T13:03:09Z</time>
      </trkpt>
      <trkpt lat="49.28394" lon="-0.11676">
        <ele>9</ele>
        <time>2024-03-20T13:03:10Z</time>
      </trkpt>
      <trkpt lat="49.28388" lon="-0.11674">
        <ele>9</ele>
        <time>2024-03-20T13:03:11Z</time>
      </trkpt>
      <trkpt lat="49.28382" lon="-0.11673">
        <ele>9</ele>
        <time>2024-03-20T13:03:12Z</time>
      </trkpt>
      <trkpt lat="49.28375" lon="-0.11671">
        <ele>9</ele>
        <time>2024-03-20T13:03:13Z</time>
      </trkpt>
      <trkpt lat="49.28369" lon="-0.11669">
        <ele>9</ele>
        <time>2024-03-20T13:03:14Z</time>
      </trkpt>
      <trkpt lat="49.28363" lon="-0.11668">
        <ele>8.8</ele>
        <time>2024-03-20T13:03:15Z</time>
      </trkpt>
      <trkpt lat="49.28356" lon="-0.11666">
        <ele>8.8</ele>
        <time>2024-03-20T13:03:16Z</time>
      </trkpt>
      <trkpt lat="49.2835" lon="-0.11665">
        <ele>8.8</ele>
        <time>2024-03-20T13:03:17Z</time>
      </trkpt>
      <trkpt lat="49.28343" lon="-0.11664">
        <ele>8.8</ele>
        <time>2024-03-20T13:03:18Z</time>
      </trkpt>
      <trkpt lat="49.28337" lon="-0.11662">
        <ele>8.8</ele>
        <time>2024-03-20T13:03:19Z</time>
      </trkpt>
      <trkpt lat="49.2833" lon="-0.11661">
        <ele>8.8</ele>
        <time>2024-03-20T13:03:20Z</time>
      </trkpt>
      <trkpt lat="49.28323" lon="-0.11659">
        <ele>8.8</ele>
        <time>2024-03-20T13:03:21Z</time>
      </trkpt>
      <trkpt lat="49.28317" lon="-0.11658">
        <ele>8.6</ele>
        <time>2024-03-20T13:03:22Z</time>
      </trkpt>
      <trkpt lat="49.2831" lon="-0.11658">
        <ele>8.6</ele>
        <time>2024-03-20T13:03:23Z</time>
      </trkpt>
      <trkpt lat="49.28303" lon="-0.11659">
        <ele>8.6</ele>
        <time>2024-03-20T13:03:24Z</time>
      </trkpt>
      <trkpt lat="49.28297" lon="-0.11662">
        <ele>8.6</ele>
        <time>2024-03-20T13:03:25Z</time>
      </trkpt>
      <trkpt lat="49.28291" lon="-0.11665">
        <ele>8.6</ele>
        <time>2024-03-20T13:03:26Z</time>
      </trkpt>
      <trkpt lat="49.28284" lon="-0.11668">
        <ele>8.6</ele>
        <time>2024-03-20T13:03:27Z</time>
      </trkpt>
      <trkpt lat="49.28277" lon="-0.11669">
        <ele>8.6</ele>
        <time>2024-03-20T13:03:28Z</time>
      </trkpt>
      <trkpt lat="49.2827" lon="-0.11667">
        <ele>8.6</ele>
        <time>2024-03-20T13:03:29Z</time>
      </trkpt>
      <trkpt lat="49.28263" lon="-0.11664">
        <ele>8.6</ele>
        <time>2024-03-20T13:03:30Z</time>
      </trkpt>
      <trkpt lat="49.28256" lon="-0.1166">
        <ele>8.6</ele>
        <time>2024-03-20T13:03:31Z</time>
      </trkpt>
      <trkpt lat="49.28249" lon="-0.11655">
        <ele>8.6</ele>
        <time>2024-03-20T13:03:32Z</time>
      </trkpt>
      <trkpt lat="49.28242" lon="-0.11651">
        <ele>8.6</ele>
        <time>2024-03-20T13:03:33Z</time>
      </trkpt>
      <trkpt lat="49.28236" lon="-0.11647">
        <ele>8.6</ele>
        <time>2024-03-20T13:03:34Z</time>
      </trkpt>
      <trkpt lat="49.28229" lon="-0.11646">
        <ele>8.6</ele>
        <time>2024-03-20T13:03:35Z</time>
      </trkpt>
      <trkpt lat="49.28223" lon="-0.11645">
        <ele>8.4</ele>
        <time>2024-03-20T13:03:36Z</time>
      </trkpt>
      <trkpt lat="49.28216" lon="-0.11645">
        <ele>8.4</ele>
        <time>2024-03-20T13:03:37Z</time>
      </trkpt>
      <trkpt lat="49.2821" lon="-0.11646">
        <ele>8.2</ele>
        <time>2024-03-20T13:03:38Z</time>
      </trkpt>
      <trkpt lat="49.28203" lon="-0.11645">
        <ele>8.2</ele>
        <time>2024-03-20T13:03:39Z</time>
      </trkpt>
      <trkpt lat="49.28196" lon="-0.11645">
        <ele>8.4</ele>
        <time>2024-03-20T13:03:40Z</time>
      </trkpt>
      <trkpt lat="49.28189" lon="-0.11645">
        <ele>8.4</ele>
        <time>2024-03-20T13:03:41Z</time>
      </trkpt>
      <trkpt lat="49.28183" lon="-0.11645">
        <ele>8.4</ele>
        <time>2024-03-20T13:03:42Z</time>
      </trkpt>
      <trkpt lat="49.28176" lon="-0.11646">
        <ele>8.4</ele>
        <time>2024-03-20T13:03:43Z</time>
      </trkpt>
      <trkpt lat="49.28169" lon="-0.11646">
        <ele>8.4</ele>
        <time>2024-03-20T13:03:44Z</time>
      </trkpt>
      <trkpt lat="49.28162" lon="-0.11645">
        <ele>8.4</ele>
        <time>2024-03-20T13:03:45Z</time>
      </trkpt>
      <trkpt lat="49.28155" lon="-0.11645">
        <ele>8.2</ele>
        <time>2024-03-20T13:03:46Z</time>
      </trkpt>
      <trkpt lat="49.28148" lon="-0.11644">
        <ele>8.2</ele>
        <time>2024-03-20T13:03:47Z</time>
      </trkpt>
      <trkpt lat="49.28141" lon="-0.11644">
        <ele>8</ele>
        <time>2024-03-20T13:03:48Z</time>
      </trkpt>
      <trkpt lat="49.28134" lon="-0.11644">
        <ele>8.2</ele>
        <time>2024-03-20T13:03:49Z</time>
      </trkpt>
      <trkpt lat="49.28127" lon="-0.11644">
        <ele>8.2</ele>
        <time>2024-03-20T13:03:50Z</time>
      </trkpt>
      <trkpt lat="49.28119" lon="-0.11644">
        <ele>8.2</ele>
        <time>2024-03-20T13:03:51Z</time>
      </trkpt>
      <trkpt lat="49.28112" lon="-0.11643">
        <ele>8.2</ele>
        <time>2024-03-20T13:03:52Z</time>
      </trkpt>
      <trkpt lat="49.28105" lon="-0.11643">
        <ele>8.2</ele>
        <time>2024-03-20T13:03:53Z</time>
      </trkpt>
      <trkpt lat="49.28098" lon="-0.11644">
        <ele>8.2</ele>
        <time>2024-03-20T13:03:54Z</time>
      </trkpt>
      <trkpt lat="49.28091" lon="-0.11643">
        <ele>8.2</ele>
        <time>2024-03-20T13:03:55Z</time>
      </trkpt>
      <trkpt lat="49.28084" lon="-0.11643">
        <ele>8.2</ele>
        <time>2024-03-20T13:03:56Z</time>
      </trkpt>
      <trkpt lat="49.28076" lon="-0.11643">
        <ele>8.2</ele>
        <time>2024-03-20T13:03:57Z</time>
      </trkpt>
      <trkpt lat="49.28069" lon="-0.11643">
        <ele>8.2</ele>
        <time>2024-03-20T13:03:58Z</time>
      </trkpt>
      <trkpt lat="49.28062" lon="-0.11643">
        <ele>8.2</ele>
        <time>2024-03-20T13:03:59Z</time>
      </trkpt>
      <trkpt lat="49.28055" lon="-0.11643">
        <ele>8.2</ele>
        <time>2024-03-20T13:04:00Z</time>
      </trkpt>
      <trkpt lat="49.28048" lon="-0.11644">
        <ele>8.2</ele>
        <time>2024-03-20T13:04:01Z</time>
      </trkpt>
      <trkpt lat="49.2804" lon="-0.11644">
        <ele>8.2</ele>
        <time>2024-03-20T13:04:02Z</time>
      </trkpt>
      <trkpt lat="49.28033" lon="-0.11644">
        <ele>8.2</ele>
        <time>2024-03-20T13:04:03Z</time>
      </trkpt>
      <trkpt lat="49.28026" lon="-0.11645">
        <ele>8</ele>
        <time>2024-03-20T13:04:04Z</time>
      </trkpt>
      <trkpt lat="49.28019" lon="-0.11645">
        <ele>8</ele>
        <time>2024-03-20T13:04:05Z</time>
      </trkpt>
      <trkpt lat="49.28011" lon="-0.11645">
        <ele>8</ele>
        <time>2024-03-20T13:04:06Z</time>
      </trkpt>
      <trkpt lat="49.28004" lon="-0.11645">
        <ele>8</ele>
        <time>2024-03-20T13:04:07Z</time>
      </trkpt>
      <trkpt lat="49.27997" lon="-0.11646">
        <ele>8</ele>
        <time>2024-03-20T13:04:08Z</time>
      </trkpt>
      <trkpt lat="49.2799" lon="-0.11646">
        <ele>8</ele>
        <time>2024-03-20T13:04:09Z</time>
      </trkpt>
      <trkpt lat="49.27983" lon="-0.11646">
        <ele>8</ele>
        <time>2024-03-20T13:04:10Z</time>
      </trkpt>
      <trkpt lat="49.27976" lon="-0.11647">
        <ele>8</ele>
        <time>2024-03-20T13:04:11Z</time>
      </trkpt>
      <trkpt lat="49.27969" lon="-0.11647">
        <ele>8</ele>
        <time>2024-03-20T13:04:12Z</time>
      </trkpt>
      <trkpt lat="49.27962" lon="-0.11647">
        <ele>8</ele>
        <time>2024-03-20T13:04:13Z</time>
      </trkpt>
      <trkpt lat="49.27955" lon="-0.11647">
        <ele>8.2</ele>
        <time>2024-03-20T13:04:14Z</time>
      </trkpt>
      <trkpt lat="49.27948" lon="-0.11648">
        <ele>8.2</ele>
        <time>2024-03-20T13:04:15Z</time>
      </trkpt>
      <trkpt lat="49.27941" lon="-0.11647">
        <ele>8.2</ele>
        <time>2024-03-20T13:04:16Z</time>
      </trkpt>
      <trkpt lat="49.27934" lon="-0.11648">
        <ele>8.2</ele>
        <time>2024-03-20T13:04:17Z</time>
      </trkpt>
      <trkpt lat="49.27927" lon="-0.11648">
        <ele>8.4</ele>
        <time>2024-03-20T13:04:18Z</time>
      </trkpt>
      <trkpt lat="49.2792" lon="-0.11647">
        <ele>8.4</ele>
        <time>2024-03-20T13:04:19Z</time>
      </trkpt>
      <trkpt lat="49.27913" lon="-0.11647">
        <ele>8.4</ele>
        <time>2024-03-20T13:04:20Z</time>
      </trkpt>
      <trkpt lat="49.27906" lon="-0.11647">
        <ele>8.4</ele>
        <time>2024-03-20T13:04:21Z</time>
      </trkpt>
      <trkpt lat="49.27899" lon="-0.11648">
        <ele>8.4</ele>
        <time>2024-03-20T13:04:22Z</time>
      </trkpt>
      <trkpt lat="49.27891" lon="-0.11648">
        <ele>8.4</ele>
        <time>2024-03-20T13:04:23Z</time>
      </trkpt>
      <trkpt lat="49.27884" lon="-0.11648">
        <ele>8.4</ele>
        <time>2024-03-20T13:04:24Z</time>
      </trkpt>
      <trkpt lat="49.27877" lon="-0.11649">
        <ele>8.4</ele>
        <time>2024-03-20T13:04:25Z</time>
      </trkpt>
      <trkpt lat="49.2787" lon="-0.11649">
        <ele>8.4</ele>
        <time>2024-03-20T13:04:26Z</time>
      </trkpt>
      <trkpt lat="49.27863" lon="-0.1165">
        <ele>8.4</ele>
        <time>2024-03-20T13:04:27Z</time>
      </trkpt>
      <trkpt lat="49.27856" lon="-0.11652">
        <ele>8.4</ele>
        <time>2024-03-20T13:04:28Z</time>
      </trkpt>
      <trkpt lat="49.27849" lon="-0.11654">
        <ele>8.4</ele>
        <time>2024-03-20T13:04:29Z</time>
      </trkpt>
      <trkpt lat="49.27842" lon="-0.11657">
        <ele>8.4</ele>
        <time>2024-03-20T13:04:30Z</time>
      </trkpt>
      <trkpt lat="49.27835" lon="-0.1166">
        <ele>8.4</ele>
        <time>2024-03-20T13:04:31Z</time>
      </trkpt>
      <trkpt lat="49.27828" lon="-0.11663">
        <ele>8.4</ele>
        <time>2024-03-20T13:04:32Z</time>
      </trkpt>
      <trkpt lat="49.27821" lon="-0.11667">
        <ele>8.4</ele>
        <time>2024-03-20T13:04:33Z</time>
      </trkpt>
      <trkpt lat="49.27814" lon="-0.11671">
        <ele>8.4</ele>
        <time>2024-03-20T13:04:34Z</time>
      </trkpt>
      <trkpt lat="49.27807" lon="-0.11675">
        <ele>8.2</ele>
        <time>2024-03-20T13:04:35Z</time>
      </trkpt>
      <trkpt lat="49.278" lon="-0.11679">
        <ele>8.2</ele>
        <time>2024-03-20T13:04:36Z</time>
      </trkpt>
      <trkpt lat="49.27793" lon="-0.11683">
        <ele>8.2</ele>
        <time>2024-03-20T13:04:37Z</time>
      </trkpt>
      <trkpt lat="49.27786" lon="-0.11688">
        <ele>8.2</ele>
        <time>2024-03-20T13:04:38Z</time>
      </trkpt>
      <trkpt lat="49.27779" lon="-0.11692">
        <ele>8.2</ele>
        <time>2024-03-20T13:04:39Z</time>
      </trkpt>
      <trkpt lat="49.27773" lon="-0.11696">
        <ele>8.2</ele>
        <time>2024-03-20T13:04:40Z</time>
      </trkpt>
      <trkpt lat="49.27766" lon="-0.117">
        <ele>8.2</ele>
        <time>2024-03-20T13:04:41Z</time>
      </trkpt>
      <trkpt lat="49.27759" lon="-0.11704">
        <ele>8</ele>
        <time>2024-03-20T13:04:42Z</time>
      </trkpt>
      <trkpt lat="49.27752" lon="-0.11708">
        <ele>8</ele>
        <time>2024-03-20T13:04:43Z</time>
      </trkpt>
      <trkpt lat="49.27745" lon="-0.11711">
        <ele>8</ele>
        <time>2024-03-20T13:04:44Z</time>
      </trkpt>
      <trkpt lat="49.27738" lon="-0.11714">
        <ele>8</ele>
        <time>2024-03-20T13:04:45Z</time>
      </trkpt>
      <trkpt lat="49.27731" lon="-0.11716">
        <ele>7.8</ele>
        <time>2024-03-20T13:04:46Z</time>
      </trkpt>
      <trkpt lat="49.27724" lon="-0.11717">
        <ele>7.8</ele>
        <time>2024-03-20T13:04:47Z</time>
      </trkpt>
      <trkpt lat="49.27717" lon="-0.11718">
        <ele>7.8</ele>
        <time>2024-03-20T13:04:48Z</time>
      </trkpt>
      <trkpt lat="49.27711" lon="-0.11718">
        <ele>7.8</ele>
        <time>2024-03-20T13:04:49Z</time>
      </trkpt>
      <trkpt lat="49.27704" lon="-0.11719">
        <ele>7.8</ele>
        <time>2024-03-20T13:04:50Z</time>
      </trkpt>
      <trkpt lat="49.27696" lon="-0.11719">
        <ele>7.8</ele>
        <time>2024-03-20T13:04:51Z</time>
      </trkpt>
      <trkpt lat="49.27689" lon="-0.11717">
        <ele>7.8</ele>
        <time>2024-03-20T13:04:52Z</time>
      </trkpt>
      <trkpt lat="49.27682" lon="-0.11715">
        <ele>7.8</ele>
        <time>2024-03-20T13:04:53Z</time>
      </trkpt>
      <trkpt lat="49.27675" lon="-0.11713">
        <ele>7.8</ele>
        <time>2024-03-20T13:04:54Z</time>
      </trkpt>
      <trkpt lat="49.27668" lon="-0.11709">
        <ele>7.8</ele>
        <time>2024-03-20T13:04:55Z</time>
      </trkpt>
      <trkpt lat="49.27661" lon="-0.11706">
        <ele>7.8</ele>
        <time>2024-03-20T13:04:56Z</time>
      </trkpt>
      <trkpt lat="49.27654" lon="-0.11702">
        <ele>7.8</ele>
        <time>2024-03-20T13:04:57Z</time>
      </trkpt>
      <trkpt lat="49.27647" lon="-0.11698">
        <ele>7.8</ele>
        <time>2024-03-20T13:04:58Z</time>
      </trkpt>
      <trkpt lat="49.27641" lon="-0.11695">
        <ele>7.8</ele>
        <time>2024-03-20T13:04:59Z</time>
      </trkpt>
      <trkpt lat="49.27634" lon="-0.11691">
        <ele>7.8</ele>
        <time>2024-03-20T13:05:00Z</time>
      </trkpt>
      <trkpt lat="49.27627" lon="-0.11687">
        <ele>7.8</ele>
        <time>2024-03-20T13:05:01Z</time>
      </trkpt>
      <trkpt lat="49.2762" lon="-0.11683">
        <ele>7.8</ele>
        <time>2024-03-20T13:05:02Z</time>
      </trkpt>
      <trkpt lat="49.27613" lon="-0.1168">
        <ele>7.8</ele>
        <time>2024-03-20T13:05:03Z</time>
      </trkpt>
      <trkpt lat="49.27606" lon="-0.11676">
        <ele>7.8</ele>
        <time>2024-03-20T13:05:04Z</time>
      </trkpt>
      <trkpt lat="49.27599" lon="-0.11673">
        <ele>7.8</ele>
        <time>2024-03-20T13:05:05Z</time>
      </trkpt>
      <trkpt lat="49.27592" lon="-0.1167">
        <ele>7.8</ele>
        <time>2024-03-20T13:05:06Z</time>
      </trkpt>
      <trkpt lat="49.27585" lon="-0.11667">
        <ele>7.8</ele>
        <time>2024-03-20T13:05:07Z</time>
      </trkpt>
      <trkpt lat="49.27578" lon="-0.11665">
        <ele>7.8</ele>
        <time>2024-03-20T13:05:08Z</time>
      </trkpt>
      <trkpt lat="49.27572" lon="-0.11664">
        <ele>7.8</ele>
        <time>2024-03-20T13:05:09Z</time>
      </trkpt>
      <trkpt lat="49.27565" lon="-0.11664">
        <ele>7.8</ele>
        <time>2024-03-20T13:05:10Z</time>
      </trkpt>
      <trkpt lat="49.27558" lon="-0.11664">
        <ele>7.8</ele>
        <time>2024-03-20T13:05:11Z</time>
      </trkpt>
      <trkpt lat="49.27551" lon="-0.11664">
        <ele>7.8</ele>
        <time>2024-03-20T13:05:12Z</time>
      </trkpt>
      <trkpt lat="49.27544" lon="-0.11664">
        <ele>7.8</ele>
        <time>2024-03-20T13:05:13Z</time>
      </trkpt>
      <trkpt lat="49.27537" lon="-0.11664">
        <ele>7.8</ele>
        <time>2024-03-20T13:05:14Z</time>
      </trkpt>
      <trkpt lat="49.2753" lon="-0.11664">
        <ele>7.6</ele>
        <time>2024-03-20T13:05:15Z</time>
      </trkpt>
      <trkpt lat="49.27523" lon="-0.11664">
        <ele>7.6</ele>
        <time>2024-03-20T13:05:16Z</time>
      </trkpt>
      <trkpt lat="49.27516" lon="-0.11664">
        <ele>7.6</ele>
        <time>2024-03-20T13:05:17Z</time>
      </trkpt>
      <trkpt lat="49.27509" lon="-0.11665">
        <ele>7.4</ele>
        <time>2024-03-20T13:05:18Z</time>
      </trkpt>
      <trkpt lat="49.27502" lon="-0.11665">
        <ele>7.4</ele>
        <time>2024-03-20T13:05:19Z</time>
      </trkpt>
      <trkpt lat="49.27495" lon="-0.11666">
        <ele>7.4</ele>
        <time>2024-03-20T13:05:20Z</time>
      </trkpt>
      <trkpt lat="49.27488" lon="-0.11666">
        <ele>7.4</ele>
        <time>2024-03-20T13:05:21Z</time>
      </trkpt>
      <trkpt lat="49.27481" lon="-0.11667">
        <ele>7.2</ele>
        <time>2024-03-20T13:05:22Z</time>
      </trkpt>
      <trkpt lat="49.27475" lon="-0.11667">
        <ele>7.2</ele>
        <time>2024-03-20T13:05:23Z</time>
      </trkpt>
      <trkpt lat="49.27468" lon="-0.11667">
        <ele>7.2</ele>
        <time>2024-03-20T13:05:24Z</time>
      </trkpt>
      <trkpt lat="49.27462" lon="-0.11667">
        <ele>7.2</ele>
        <time>2024-03-20T13:05:25Z</time>
      </trkpt>
      <trkpt lat="49.27456" lon="-0.11668">
        <ele>7.2</ele>
        <time>2024-03-20T13:05:26Z</time>
      </trkpt>
      <trkpt lat="49.27451" lon="-0.11668">
        <ele>7.2</ele>
        <time>2024-03-20T13:05:27Z</time>
      </trkpt>
      <trkpt lat="49.27445" lon="-0.11668">
        <ele>7.2</ele>
        <time>2024-03-20T13:05:28Z</time>
      </trkpt>
      <trkpt lat="49.27439" lon="-0.11669">
        <ele>7.2</ele>
        <time>2024-03-20T13:05:29Z</time>
      </trkpt>
      <trkpt lat="49.27433" lon="-0.11669">
        <ele>7.6</ele>
        <time>2024-03-20T13:05:30Z</time>
      </trkpt>
      <trkpt lat="49.27429" lon="-0.11669">
        <ele>7.4</ele>
        <time>2024-03-20T13:05:31Z</time>
      </trkpt>
      <trkpt lat="49.27426" lon="-0.11669">
        <ele>7.6</ele>
        <time>2024-03-20T13:05:32Z</time>
      </trkpt>
      <trkpt lat="49.27423" lon="-0.11669">
        <ele>7.6</ele>
        <time>2024-03-20T13:05:33Z</time>
      </trkpt>
      <trkpt lat="49.27421" lon="-0.11669">
        <ele>7.6</ele>
        <time>2024-03-20T13:05:34Z</time>
      </trkpt>
      <trkpt lat="49.2742" lon="-0.11669">
        <ele>7.4</ele>
        <time>2024-03-20T13:05:35Z</time>
      </trkpt>
      <trkpt lat="49.27419" lon="-0.11669">
        <ele>7.4</ele>
        <time>2024-03-20T13:05:36Z</time>
      </trkpt>
      <trkpt lat="49.27419" lon="-0.11669">
        <ele>7.8</ele>
        <time>2024-03-20T13:05:37Z</time>
      </trkpt>
      <trkpt lat="49.27415" lon="-0.11664">
        <ele>8.6</ele>
        <time>2024-03-20T13:05:51Z</time>
      </trkpt>
      <trkpt lat="49.27414" lon="-0.1166">
        <ele>8.6</ele>
        <time>2024-03-20T13:05:52Z</time>
      </trkpt>
      <trkpt lat="49.27414" lon="-0.11656">
        <ele>8.6</ele>
        <time>2024-03-20T13:05:53Z</time>
      </trkpt>
      <trkpt lat="49.27413" lon="-0.11651">
        <ele>8.6</ele>
        <time>2024-03-20T13:05:54Z</time>
      </trkpt>
      <trkpt lat="49.27413" lon="-0.11646">
        <ele>8.6</ele>
        <time>2024-03-20T13:05:55Z</time>
      </trkpt>
      <trkpt lat="49.27413" lon="-0.11642">
        <ele>8.6</ele>
        <time>2024-03-20T13:05:56Z</time>
      </trkpt>
      <trkpt lat="49.27414" lon="-0.11636">
        <ele>8.6</ele>
        <time>2024-03-20T13:05:57Z</time>
      </trkpt>
      <trkpt lat="49.27414" lon="-0.11628">
        <ele>8.4</ele>
        <time>2024-03-20T13:05:58Z</time>
      </trkpt>
      <trkpt lat="49.27414" lon="-0.11621">
        <ele>8.4</ele>
        <time>2024-03-20T13:05:59Z</time>
      </trkpt>
      <trkpt lat="49.27414" lon="-0.11615">
        <ele>8.2</ele>
        <time>2024-03-20T13:06:00Z</time>
      </trkpt>
      <trkpt lat="49.27415" lon="-0.11606">
        <ele>8.2</ele>
        <time>2024-03-20T13:06:01Z</time>
      </trkpt>
      <trkpt lat="49.27415" lon="-0.11597">
        <ele>8.2</ele>
        <time>2024-03-20T13:06:02Z</time>
      </trkpt>
      <trkpt lat="49.27415" lon="-0.11588">
        <ele>8</ele>
        <time>2024-03-20T13:06:03Z</time>
      </trkpt>
      <trkpt lat="49.27416" lon="-0.11579">
        <ele>8</ele>
        <time>2024-03-20T13:06:04Z</time>
      </trkpt>
      <trkpt lat="49.27416" lon="-0.11569">
        <ele>8</ele>
        <time>2024-03-20T13:06:05Z</time>
      </trkpt>
      <trkpt lat="49.27416" lon="-0.11559">
        <ele>8</ele>
        <time>2024-03-20T13:06:06Z</time>
      </trkpt>
      <trkpt lat="49.27417" lon="-0.11549">
        <ele>7.8</ele>
        <time>2024-03-20T13:06:07Z</time>
      </trkpt>
      <trkpt lat="49.27417" lon="-0.11538">
        <ele>7.8</ele>
        <time>2024-03-20T13:06:08Z</time>
      </trkpt>
      <trkpt lat="49.27417" lon="-0.11531">
        <ele>7.8</ele>
        <time>2024-03-20T13:06:09Z</time>
      </trkpt>
      <trkpt lat="49.27417" lon="-0.11523">
        <ele>7.8</ele>
        <time>2024-03-20T13:06:10Z</time>
      </trkpt>
      <trkpt lat="49.27417" lon="-0.11508">
        <ele>7.8</ele>
        <time>2024-03-20T13:06:11Z</time>
      </trkpt>
      <trkpt lat="49.27417" lon="-0.11498">
        <ele>7.6</ele>
        <time>2024-03-20T13:06:12Z</time>
      </trkpt>
      <trkpt lat="49.27417" lon="-0.11487">
        <ele>7.6</ele>
        <time>2024-03-20T13:06:13Z</time>
      </trkpt>
      <trkpt lat="49.27418" lon="-0.11477">
        <ele>7.6</ele>
        <time>2024-03-20T13:06:14Z</time>
      </trkpt>
      <trkpt lat="49.27418" lon="-0.11467">
        <ele>7.6</ele>
        <time>2024-03-20T13:06:15Z</time>
      </trkpt>
      <trkpt lat="49.27419" lon="-0.11457">
        <ele>7.6</ele>
        <time>2024-03-20T13:06:16Z</time>
      </trkpt>
      <trkpt lat="49.27419" lon="-0.11447">
        <ele>7.6</ele>
        <time>2024-03-20T13:06:17Z</time>
      </trkpt>
      <trkpt lat="49.27419" lon="-0.11437">
        <ele>7.6</ele>
        <time>2024-03-20T13:06:18Z</time>
      </trkpt>
      <trkpt lat="49.27419" lon="-0.11427">
        <ele>7.4</ele>
        <time>2024-03-20T13:06:19Z</time>
      </trkpt>
      <trkpt lat="49.27419" lon="-0.11417">
        <ele>7.4</ele>
        <time>2024-03-20T13:06:20Z</time>
      </trkpt>
      <trkpt lat="49.2742" lon="-0.11406">
        <ele>7.4</ele>
        <time>2024-03-20T13:06:21Z</time>
      </trkpt>
      <trkpt lat="49.2742" lon="-0.11396">
        <ele>7.4</ele>
        <time>2024-03-20T13:06:22Z</time>
      </trkpt>
      <trkpt lat="49.2742" lon="-0.11385">
        <ele>7.6</ele>
        <time>2024-03-20T13:06:23Z</time>
      </trkpt>
      <trkpt lat="49.2742" lon="-0.11375">
        <ele>7.6</ele>
        <time>2024-03-20T13:06:24Z</time>
      </trkpt>
      <trkpt lat="49.27421" lon="-0.11365">
        <ele>7.6</ele>
        <time>2024-03-20T13:06:25Z</time>
      </trkpt>
      <trkpt lat="49.27421" lon="-0.11354">
        <ele>7.6</ele>
        <time>2024-03-20T13:06:26Z</time>
      </trkpt>
      <trkpt lat="49.27421" lon="-0.11344">
        <ele>7.6</ele>
        <time>2024-03-20T13:06:27Z</time>
      </trkpt>
      <trkpt lat="49.27422" lon="-0.11334">
        <ele>7.6</ele>
        <time>2024-03-20T13:06:28Z</time>
      </trkpt>
      <trkpt lat="49.27422" lon="-0.11323">
        <ele>7.6</ele>
        <time>2024-03-20T13:06:29Z</time>
      </trkpt>
      <trkpt lat="49.27422" lon="-0.11313">
        <ele>7.6</ele>
        <time>2024-03-20T13:06:30Z</time>
      </trkpt>
      <trkpt lat="49.27422" lon="-0.11303">
        <ele>7.8</ele>
        <time>2024-03-20T13:06:31Z</time>
      </trkpt>
      <trkpt lat="49.27422" lon="-0.11292">
        <ele>7.8</ele>
        <time>2024-03-20T13:06:32Z</time>
      </trkpt>
      <trkpt lat="49.27422" lon="-0.11282">
        <ele>8</ele>
        <time>2024-03-20T13:06:33Z</time>
      </trkpt>
      <trkpt lat="49.27423" lon="-0.11271">
        <ele>8</ele>
        <time>2024-03-20T13:06:34Z</time>
      </trkpt>
      <trkpt lat="49.27423" lon="-0.11261">
        <ele>8</ele>
        <time>2024-03-20T13:06:35Z</time>
      </trkpt>
      <trkpt lat="49.27423" lon="-0.1125">
        <ele>8</ele>
        <time>2024-03-20T13:06:36Z</time>
      </trkpt>
      <trkpt lat="49.27424" lon="-0.1124">
        <ele>8.2</ele>
        <time>2024-03-20T13:06:37Z</time>
      </trkpt>
      <trkpt lat="49.27424" lon="-0.1123">
        <ele>8.2</ele>
        <time>2024-03-20T13:06:38Z</time>
      </trkpt>
      <trkpt lat="49.27425" lon="-0.11219">
        <ele>8.2</ele>
        <time>2024-03-20T13:06:39Z</time>
      </trkpt>
      <trkpt lat="49.27425" lon="-0.11208">
        <ele>8.2</ele>
        <time>2024-03-20T13:06:40Z</time>
      </trkpt>
      <trkpt lat="49.27425" lon="-0.11198">
        <ele>8.2</ele>
        <time>2024-03-20T13:06:41Z</time>
      </trkpt>
      <trkpt lat="49.27425" lon="-0.11187">
        <ele>8.4</ele>
        <time>2024-03-20T13:06:42Z</time>
      </trkpt>
      <trkpt lat="49.27425" lon="-0.11177">
        <ele>8.4</ele>
        <time>2024-03-20T13:06:43Z</time>
      </trkpt>
      <trkpt lat="49.27425" lon="-0.11166">
        <ele>8.6</ele>
        <time>2024-03-20T13:06:44Z</time>
      </trkpt>
      <trkpt lat="49.27426" lon="-0.11156">
        <ele>8.6</ele>
        <time>2024-03-20T13:06:45Z</time>
      </trkpt>
      <trkpt lat="49.27426" lon="-0.11145">
        <ele>8.6</ele>
        <time>2024-03-20T13:06:46Z</time>
      </trkpt>
      <trkpt lat="49.27427" lon="-0.11135">
        <ele>8.8</ele>
        <time>2024-03-20T13:06:47Z</time>
      </trkpt>
      <trkpt lat="49.27427" lon="-0.11125">
        <ele>8.8</ele>
        <time>2024-03-20T13:06:48Z</time>
      </trkpt>
      <trkpt lat="49.27427" lon="-0.11114">
        <ele>9</ele>
        <time>2024-03-20T13:06:49Z</time>
      </trkpt>
      <trkpt lat="49.27427" lon="-0.11104">
        <ele>9</ele>
        <time>2024-03-20T13:06:50Z</time>
      </trkpt>
      <trkpt lat="49.27427" lon="-0.11094">
        <ele>9</ele>
        <time>2024-03-20T13:06:51Z</time>
      </trkpt>
      <trkpt lat="49.27427" lon="-0.11084">
        <ele>9</ele>
        <time>2024-03-20T13:06:52Z</time>
      </trkpt>
      <trkpt lat="49.27427" lon="-0.11073">
        <ele>9</ele>
        <time>2024-03-20T13:06:53Z</time>
      </trkpt>
      <trkpt lat="49.27427" lon="-0.11065">
        <ele>9.2</ele>
        <time>2024-03-20T13:06:54Z</time>
      </trkpt>
      <trkpt lat="49.27428" lon="-0.11053">
        <ele>9.2</ele>
        <time>2024-03-20T13:06:55Z</time>
      </trkpt>
      <trkpt lat="49.27428" lon="-0.11043">
        <ele>9.2</ele>
        <time>2024-03-20T13:06:56Z</time>
      </trkpt>
      <trkpt lat="49.27428" lon="-0.11032">
        <ele>9.2</ele>
        <time>2024-03-20T13:06:57Z</time>
      </trkpt>
      <trkpt lat="49.27429" lon="-0.11022">
        <ele>9.2</ele>
        <time>2024-03-20T13:06:58Z</time>
      </trkpt>
      <trkpt lat="49.27429" lon="-0.11012">
        <ele>9.2</ele>
        <time>2024-03-20T13:06:59Z</time>
      </trkpt>
      <trkpt lat="49.27429" lon="-0.11001">
        <ele>9.2</ele>
        <time>2024-03-20T13:07:00Z</time>
      </trkpt>
      <trkpt lat="49.2743" lon="-0.10991">
        <ele>9.2</ele>
        <time>2024-03-20T13:07:01Z</time>
      </trkpt>
      <trkpt lat="49.2743" lon="-0.1098">
        <ele>9.2</ele>
        <time>2024-03-20T13:07:02Z</time>
      </trkpt>
      <trkpt lat="49.2743" lon="-0.10969">
        <ele>9.2</ele>
        <time>2024-03-20T13:07:03Z</time>
      </trkpt>
      <trkpt lat="49.2743" lon="-0.10959">
        <ele>9.2</ele>
        <time>2024-03-20T13:07:04Z</time>
      </trkpt>
      <trkpt lat="49.2743" lon="-0.10948">
        <ele>9.2</ele>
        <time>2024-03-20T13:07:05Z</time>
      </trkpt>
      <trkpt lat="49.27429" lon="-0.10938">
        <ele>9</ele>
        <time>2024-03-20T13:07:06Z</time>
      </trkpt>
      <trkpt lat="49.27429" lon="-0.10927">
        <ele>9</ele>
        <time>2024-03-20T13:07:07Z</time>
      </trkpt>
      <trkpt lat="49.27429" lon="-0.10916">
        <ele>9</ele>
        <time>2024-03-20T13:07:08Z</time>
      </trkpt>
      <trkpt lat="49.27429" lon="-0.10906">
        <ele>9</ele>
        <time>2024-03-20T13:07:09Z</time>
      </trkpt>
      <trkpt lat="49.27429" lon="-0.10895">
        <ele>9</ele>
        <time>2024-03-20T13:07:10Z</time>
      </trkpt>
      <trkpt lat="49.27429" lon="-0.10887">
        <ele>8.8</ele>
        <time>2024-03-20T13:07:11Z</time>
      </trkpt>
      <trkpt lat="49.27428" lon="-0.10879">
        <ele>8.8</ele>
        <time>2024-03-20T13:07:12Z</time>
      </trkpt>
      <trkpt lat="49.27427" lon="-0.10863">
        <ele>8.6</ele>
        <time>2024-03-20T13:07:13Z</time>
      </trkpt>
      <trkpt lat="49.27426" lon="-0.10853">
        <ele>8.6</ele>
        <time>2024-03-20T13:07:14Z</time>
      </trkpt>
      <trkpt lat="49.27425" lon="-0.10842">
        <ele>8.4</ele>
        <time>2024-03-20T13:07:15Z</time>
      </trkpt>
      <trkpt lat="49.27424" lon="-0.10832">
        <ele>8.4</ele>
        <time>2024-03-20T13:07:16Z</time>
      </trkpt>
      <trkpt lat="49.27423" lon="-0.10821">
        <ele>8.4</ele>
        <time>2024-03-20T13:07:17Z</time>
      </trkpt>
      <trkpt lat="49.27421" lon="-0.10811">
        <ele>8.6</ele>
        <time>2024-03-20T13:07:18Z</time>
      </trkpt>
      <trkpt lat="49.2742" lon="-0.108">
        <ele>8.6</ele>
        <time>2024-03-20T13:07:19Z</time>
      </trkpt>
      <trkpt lat="49.27418" lon="-0.1079">
        <ele>8.4</ele>
        <time>2024-03-20T13:07:20Z</time>
      </trkpt>
      <trkpt lat="49.27417" lon="-0.10779">
        <ele>8.4</ele>
        <time>2024-03-20T13:07:21Z</time>
      </trkpt>
      <trkpt lat="49.27415" lon="-0.10769">
        <ele>8.4</ele>
        <time>2024-03-20T13:07:22Z</time>
      </trkpt>
      <trkpt lat="49.27413" lon="-0.10758">
        <ele>8.4</ele>
        <time>2024-03-20T13:07:23Z</time>
      </trkpt>
      <trkpt lat="49.27411" lon="-0.10748">
        <ele>8.4</ele>
        <time>2024-03-20T13:07:24Z</time>
      </trkpt>
      <trkpt lat="49.27408" lon="-0.10737">
        <ele>8</ele>
        <time>2024-03-20T13:07:25Z</time>
      </trkpt>
      <trkpt lat="49.27406" lon="-0.10726">
        <ele>8</ele>
        <time>2024-03-20T13:07:26Z</time>
      </trkpt>
      <trkpt lat="49.27403" lon="-0.10716">
        <ele>8</ele>
        <time>2024-03-20T13:07:27Z</time>
      </trkpt>
      <trkpt lat="49.27401" lon="-0.10705">
        <ele>8</ele>
        <time>2024-03-20T13:07:28Z</time>
      </trkpt>
      <trkpt lat="49.27398" lon="-0.10695">
        <ele>8</ele>
        <time>2024-03-20T13:07:29Z</time>
      </trkpt>
      <trkpt lat="49.27395" lon="-0.10685">
        <ele>8</ele>
        <time>2024-03-20T13:07:30Z</time>
      </trkpt>
      <trkpt lat="49.27392" lon="-0.10675">
        <ele>8</ele>
        <time>2024-03-20T13:07:31Z</time>
      </trkpt>
      <trkpt lat="49.27389" lon="-0.10665">
        <ele>8</ele>
        <time>2024-03-20T13:07:32Z</time>
      </trkpt>
      <trkpt lat="49.27386" lon="-0.10655">
        <ele>8</ele>
        <time>2024-03-20T13:07:33Z</time>
      </trkpt>
      <trkpt lat="49.27382" lon="-0.10646">
        <ele>7.8</ele>
        <time>2024-03-20T13:07:34Z</time>
      </trkpt>
      <trkpt lat="49.27379" lon="-0.10636">
        <ele>7.8</ele>
        <time>2024-03-20T13:07:35Z</time>
      </trkpt>
      <trkpt lat="49.27376" lon="-0.10627">
        <ele>7.8</ele>
        <time>2024-03-20T13:07:36Z</time>
      </trkpt>
      <trkpt lat="49.27372" lon="-0.10617">
        <ele>7.8</ele>
        <time>2024-03-20T13:07:37Z</time>
      </trkpt>
      <trkpt lat="49.27368" lon="-0.10608">
        <ele>7.6</ele>
        <time>2024-03-20T13:07:38Z</time>
      </trkpt>
      <trkpt lat="49.27364" lon="-0.10599">
        <ele>7.6</ele>
        <time>2024-03-20T13:07:39Z</time>
      </trkpt>
      <trkpt lat="49.2736" lon="-0.1059">
        <ele>7.6</ele>
        <time>2024-03-20T13:07:40Z</time>
      </trkpt>
      <trkpt lat="49.27356" lon="-0.10581">
        <ele>7.6</ele>
        <time>2024-03-20T13:07:41Z</time>
      </trkpt>
      <trkpt lat="49.27352" lon="-0.10572">
        <ele>7.6</ele>
        <time>2024-03-20T13:07:42Z</time>
      </trkpt>
      <trkpt lat="49.27348" lon="-0.10564">
        <ele>7.6</ele>
        <time>2024-03-20T13:07:43Z</time>
      </trkpt>
      <trkpt lat="49.27344" lon="-0.10555">
        <ele>7.6</ele>
        <time>2024-03-20T13:07:44Z</time>
      </trkpt>
      <trkpt lat="49.27339" lon="-0.10547">
        <ele>7.6</ele>
        <time>2024-03-20T13:07:45Z</time>
      </trkpt>
      <trkpt lat="49.27335" lon="-0.10539">
        <ele>7.6</ele>
        <time>2024-03-20T13:07:46Z</time>
      </trkpt>
      <trkpt lat="49.2733" lon="-0.1053">
        <ele>7.6</ele>
        <time>2024-03-20T13:07:47Z</time>
      </trkpt>
      <trkpt lat="49.27325" lon="-0.10522">
        <ele>7.6</ele>
        <time>2024-03-20T13:07:48Z</time>
      </trkpt>
      <trkpt lat="49.2732" lon="-0.10514">
        <ele>7.6</ele>
        <time>2024-03-20T13:07:49Z</time>
      </trkpt>
      <trkpt lat="49.27316" lon="-0.10506">
        <ele>7.6</ele>
        <time>2024-03-20T13:07:50Z</time>
      </trkpt>
      <trkpt lat="49.2731" lon="-0.10499">
        <ele>7.6</ele>
        <time>2024-03-20T13:07:51Z</time>
      </trkpt>
      <trkpt lat="49.27305" lon="-0.10491">
        <ele>7.6</ele>
        <time>2024-03-20T13:07:52Z</time>
      </trkpt>
      <trkpt lat="49.27299" lon="-0.10484">
        <ele>7.6</ele>
        <time>2024-03-20T13:07:53Z</time>
      </trkpt>
      <trkpt lat="49.27294" lon="-0.10476">
        <ele>7.6</ele>
        <time>2024-03-20T13:07:54Z</time>
      </trkpt>
      <trkpt lat="49.27288" lon="-0.10469">
        <ele>7.6</ele>
        <time>2024-03-20T13:07:55Z</time>
      </trkpt>
      <trkpt lat="49.27282" lon="-0.10462">
        <ele>7.6</ele>
        <time>2024-03-20T13:07:56Z</time>
      </trkpt>
      <trkpt lat="49.27277" lon="-0.10455">
        <ele>7.6</ele>
        <time>2024-03-20T13:07:57Z</time>
      </trkpt>
      <trkpt lat="49.27271" lon="-0.10448">
        <ele>7.6</ele>
        <time>2024-03-20T13:07:58Z</time>
      </trkpt>
      <trkpt lat="49.27265" lon="-0.10442">
        <ele>7.6</ele>
        <time>2024-03-20T13:07:59Z</time>
      </trkpt>
      <trkpt lat="49.27259" lon="-0.10436">
        <ele>7.6</ele>
        <time>2024-03-20T13:08:00Z</time>
      </trkpt>
      <trkpt lat="49.27253" lon="-0.1043">
        <ele>7.6</ele>
        <time>2024-03-20T13:08:01Z</time>
      </trkpt>
      <trkpt lat="49.27247" lon="-0.10424">
        <ele>7.6</ele>
        <time>2024-03-20T13:08:02Z</time>
      </trkpt>
      <trkpt lat="49.27241" lon="-0.10419">
        <ele>7.4</ele>
        <time>2024-03-20T13:08:03Z</time>
      </trkpt>
      <trkpt lat="49.27234" lon="-0.10413">
        <ele>7.4</ele>
        <time>2024-03-20T13:08:04Z</time>
      </trkpt>
      <trkpt lat="49.27228" lon="-0.10408">
        <ele>7.4</ele>
        <time>2024-03-20T13:08:05Z</time>
      </trkpt>
      <trkpt lat="49.27221" lon="-0.10402">
        <ele>7.4</ele>
        <time>2024-03-20T13:08:06Z</time>
      </trkpt>
      <trkpt lat="49.27215" lon="-0.10397">
        <ele>7.4</ele>
        <time>2024-03-20T13:08:07Z</time>
      </trkpt>
      <trkpt lat="49.27208" lon="-0.10393">
        <ele>7.4</ele>
        <time>2024-03-20T13:08:08Z</time>
      </trkpt>
      <trkpt lat="49.27201" lon="-0.10389">
        <ele>7.4</ele>
        <time>2024-03-20T13:08:09Z</time>
      </trkpt>
      <trkpt lat="49.27195" lon="-0.10385">
        <ele>7.4</ele>
        <time>2024-03-20T13:08:10Z</time>
      </trkpt>
      <trkpt lat="49.27188" lon="-0.10381">
        <ele>7.4</ele>
        <time>2024-03-20T13:08:11Z</time>
      </trkpt>
      <trkpt lat="49.27181" lon="-0.10377">
        <ele>7.4</ele>
        <time>2024-03-20T13:08:12Z</time>
      </trkpt>
      <trkpt lat="49.27174" lon="-0.10372">
        <ele>7.4</ele>
        <time>2024-03-20T13:08:13Z</time>
      </trkpt>
      <trkpt lat="49.27167" lon="-0.10368">
        <ele>7.4</ele>
        <time>2024-03-20T13:08:14Z</time>
      </trkpt>
      <trkpt lat="49.2716" lon="-0.10365">
        <ele>7.4</ele>
        <time>2024-03-20T13:08:15Z</time>
      </trkpt>
      <trkpt lat="49.27153" lon="-0.10361">
        <ele>7.4</ele>
        <time>2024-03-20T13:08:16Z</time>
      </trkpt>
      <trkpt lat="49.27146" lon="-0.10358">
        <ele>7.4</ele>
        <time>2024-03-20T13:08:17Z</time>
      </trkpt>
      <trkpt lat="49.27139" lon="-0.10355">
        <ele>7.4</ele>
        <time>2024-03-20T13:08:18Z</time>
      </trkpt>
      <trkpt lat="49.27132" lon="-0.10353">
        <ele>7.4</ele>
        <time>2024-03-20T13:08:19Z</time>
      </trkpt>
      <trkpt lat="49.27125" lon="-0.10351">
        <ele>7.4</ele>
        <time>2024-03-20T13:08:20Z</time>
      </trkpt>
      <trkpt lat="49.27118" lon="-0.10348">
        <ele>7.4</ele>
        <time>2024-03-20T13:08:21Z</time>
      </trkpt>
      <trkpt lat="49.27111" lon="-0.10346">
        <ele>7.6</ele>
        <time>2024-03-20T13:08:22Z</time>
      </trkpt>
      <trkpt lat="49.27104" lon="-0.10344">
        <ele>7.6</ele>
        <time>2024-03-20T13:08:23Z</time>
      </trkpt>
      <trkpt lat="49.27096" lon="-0.10342">
        <ele>7.8</ele>
        <time>2024-03-20T13:08:24Z</time>
      </trkpt>
      <trkpt lat="49.27089" lon="-0.1034">
        <ele>7.8</ele>
        <time>2024-03-20T13:08:25Z</time>
      </trkpt>
      <trkpt lat="49.27082" lon="-0.10338">
        <ele>7.8</ele>
        <time>2024-03-20T13:08:26Z</time>
      </trkpt>
      <trkpt lat="49.27075" lon="-0.10337">
        <ele>7.8</ele>
        <time>2024-03-20T13:08:27Z</time>
      </trkpt>
      <trkpt lat="49.27067" lon="-0.10335">
        <ele>8</ele>
        <time>2024-03-20T13:08:28Z</time>
      </trkpt>
      <trkpt lat="49.2706" lon="-0.10334">
        <ele>8</ele>
        <time>2024-03-20T13:08:29Z</time>
      </trkpt>
      <trkpt lat="49.27052" lon="-0.10334">
        <ele>8</ele>
        <time>2024-03-20T13:08:30Z</time>
      </trkpt>
      <trkpt lat="49.27044" lon="-0.10333">
        <ele>8.2</ele>
        <time>2024-03-20T13:08:31Z</time>
      </trkpt>
      <trkpt lat="49.27036" lon="-0.10333">
        <ele>8.2</ele>
        <time>2024-03-20T13:08:32Z</time>
      </trkpt>
      <trkpt lat="49.27028" lon="-0.10333">
        <ele>8.2</ele>
        <time>2024-03-20T13:08:33Z</time>
      </trkpt>
      <trkpt lat="49.27021" lon="-0.10333">
        <ele>8.4</ele>
        <time>2024-03-20T13:08:34Z</time>
      </trkpt>
      <trkpt lat="49.27013" lon="-0.10333">
        <ele>8.4</ele>
        <time>2024-03-20T13:08:35Z</time>
      </trkpt>
      <trkpt lat="49.27006" lon="-0.10334">
        <ele>8.6</ele>
        <time>2024-03-20T13:08:36Z</time>
      </trkpt>
      <trkpt lat="49.26998" lon="-0.10334">
        <ele>8.6</ele>
        <time>2024-03-20T13:08:37Z</time>
      </trkpt>
      <trkpt lat="49.26991" lon="-0.10335">
        <ele>8.6</ele>
        <time>2024-03-20T13:08:38Z</time>
      </trkpt>
      <trkpt lat="49.26983" lon="-0.10336">
        <ele>8.8</ele>
        <time>2024-03-20T13:08:39Z</time>
      </trkpt>
      <trkpt lat="49.26976" lon="-0.10337">
        <ele>9</ele>
        <time>2024-03-20T13:08:40Z</time>
      </trkpt>
      <trkpt lat="49.26969" lon="-0.10338">
        <ele>9</ele>
        <time>2024-03-20T13:08:41Z</time>
      </trkpt>
      <trkpt lat="49.26961" lon="-0.1034">
        <ele>9.2</ele>
        <time>2024-03-20T13:08:42Z</time>
      </trkpt>
      <trkpt lat="49.26954" lon="-0.10341">
        <ele>9.2</ele>
        <time>2024-03-20T13:08:43Z</time>
      </trkpt>
      <trkpt lat="49.26947" lon="-0.10342">
        <ele>9.2</ele>
        <time>2024-03-20T13:08:44Z</time>
      </trkpt>
      <trkpt lat="49.2694" lon="-0.10344">
        <ele>9.2</ele>
        <time>2024-03-20T13:08:45Z</time>
      </trkpt>
      <trkpt lat="49.26932" lon="-0.10346">
        <ele>9.2</ele>
        <time>2024-03-20T13:08:46Z</time>
      </trkpt>
      <trkpt lat="49.26925" lon="-0.10348">
        <ele>9.2</ele>
        <time>2024-03-20T13:08:47Z</time>
      </trkpt>
      <trkpt lat="49.26918" lon="-0.1035">
        <ele>9.2</ele>
        <time>2024-03-20T13:08:48Z</time>
      </trkpt>
      <trkpt lat="49.2691" lon="-0.10351">
        <ele>9.2</ele>
        <time>2024-03-20T13:08:49Z</time>
      </trkpt>
      <trkpt lat="49.26903" lon="-0.10353">
        <ele>9.2</ele>
        <time>2024-03-20T13:08:50Z</time>
      </trkpt>
      <trkpt lat="49.26896" lon="-0.10355">
        <ele>9.4</ele>
        <time>2024-03-20T13:08:51Z</time>
      </trkpt>
      <trkpt lat="49.26888" lon="-0.10358">
        <ele>9.4</ele>
        <time>2024-03-20T13:08:52Z</time>
      </trkpt>
      <trkpt lat="49.26881" lon="-0.1036">
        <ele>9.4</ele>
        <time>2024-03-20T13:08:53Z</time>
      </trkpt>
      <trkpt lat="49.26874" lon="-0.10362">
        <ele>9.4</ele>
        <time>2024-03-20T13:08:54Z</time>
      </trkpt>
      <trkpt lat="49.26866" lon="-0.10365">
        <ele>9.4</ele>
        <time>2024-03-20T13:08:55Z</time>
      </trkpt>
      <trkpt lat="49.26859" lon="-0.10368">
        <ele>9.6</ele>
        <time>2024-03-20T13:08:56Z</time>
      </trkpt>
      <trkpt lat="49.26851" lon="-0.1037">
        <ele>9.4</ele>
        <time>2024-03-20T13:08:57Z</time>
      </trkpt>
      <trkpt lat="49.26844" lon="-0.10373">
        <ele>9.6</ele>
        <time>2024-03-20T13:08:58Z</time>
      </trkpt>
      <trkpt lat="49.26837" lon="-0.10376">
        <ele>9.6</ele>
        <time>2024-03-20T13:08:59Z</time>
      </trkpt>
      <trkpt lat="49.26829" lon="-0.10378">
        <ele>9.6</ele>
        <time>2024-03-20T13:09:00Z</time>
      </trkpt>
      <trkpt lat="49.26822" lon="-0.10381">
        <ele>9.8</ele>
        <time>2024-03-20T13:09:01Z</time>
      </trkpt>
      <trkpt lat="49.26815" lon="-0.10383">
        <ele>9.8</ele>
        <time>2024-03-20T13:09:02Z</time>
      </trkpt>
      <trkpt lat="49.26807" lon="-0.10386">
        <ele>9.8</ele>
        <time>2024-03-20T13:09:03Z</time>
      </trkpt>
      <trkpt lat="49.26799" lon="-0.10389">
        <ele>9.8</ele>
        <time>2024-03-20T13:09:04Z</time>
      </trkpt>
      <trkpt lat="49.26792" lon="-0.10391">
        <ele>10</ele>
        <time>2024-03-20T13:09:05Z</time>
      </trkpt>
      <trkpt lat="49.26784" lon="-0.10394">
        <ele>10</ele>
        <time>2024-03-20T13:09:06Z</time>
      </trkpt>
      <trkpt lat="49.26777" lon="-0.10397">
        <ele>10</ele>
        <time>2024-03-20T13:09:07Z</time>
      </trkpt>
      <trkpt lat="49.26769" lon="-0.10399">
        <ele>10</ele>
        <time>2024-03-20T13:09:08Z</time>
      </trkpt>
      <trkpt lat="49.26761" lon="-0.10402">
        <ele>10</ele>
        <time>2024-03-20T13:09:09Z</time>
      </trkpt>
      <trkpt lat="49.26753" lon="-0.10404">
        <ele>10</ele>
        <time>2024-03-20T13:09:10Z</time>
      </trkpt>
      <trkpt lat="49.26746" lon="-0.10407">
        <ele>10</ele>
        <time>2024-03-20T13:09:11Z</time>
      </trkpt>
      <trkpt lat="49.26738" lon="-0.10409">
        <ele>10</ele>
        <time>2024-03-20T13:09:12Z</time>
      </trkpt>
      <trkpt lat="49.2673" lon="-0.10412">
        <ele>10</ele>
        <time>2024-03-20T13:09:13Z</time>
      </trkpt>
      <trkpt lat="49.26723" lon="-0.10415">
        <ele>10</ele>
        <time>2024-03-20T13:09:14Z</time>
      </trkpt>
      <trkpt lat="49.26715" lon="-0.10417">
        <ele>10</ele>
        <time>2024-03-20T13:09:15Z</time>
      </trkpt>
      <trkpt lat="49.26707" lon="-0.1042">
        <ele>10</ele>
        <time>2024-03-20T13:09:16Z</time>
      </trkpt>
      <trkpt lat="49.267" lon="-0.10423">
        <ele>10</ele>
        <time>2024-03-20T13:09:17Z</time>
      </trkpt>
      <trkpt lat="49.26692" lon="-0.10425">
        <ele>10</ele>
        <time>2024-03-20T13:09:18Z</time>
      </trkpt>
      <trkpt lat="49.26685" lon="-0.10428">
        <ele>10</ele>
        <time>2024-03-20T13:09:19Z</time>
      </trkpt>
      <trkpt lat="49.26677" lon="-0.10431">
        <ele>10</ele>
        <time>2024-03-20T13:09:20Z</time>
      </trkpt>
      <trkpt lat="49.26669" lon="-0.10433">
        <ele>10</ele>
        <time>2024-03-20T13:09:21Z</time>
      </trkpt>
      <trkpt lat="49.26661" lon="-0.10436">
        <ele>10</ele>
        <time>2024-03-20T13:09:22Z</time>
      </trkpt>
      <trkpt lat="49.26654" lon="-0.10439">
        <ele>10</ele>
        <time>2024-03-20T13:09:23Z</time>
      </trkpt>
      <trkpt lat="49.26646" lon="-0.10442">
        <ele>10</ele>
        <time>2024-03-20T13:09:24Z</time>
      </trkpt>
      <trkpt lat="49.26638" lon="-0.10444">
        <ele>10</ele>
        <time>2024-03-20T13:09:25Z</time>
      </trkpt>
      <trkpt lat="49.2663" lon="-0.10445">
        <ele>9.8</ele>
        <time>2024-03-20T13:09:26Z</time>
      </trkpt>
      <trkpt lat="49.26622" lon="-0.10447">
        <ele>9.6</ele>
        <time>2024-03-20T13:09:27Z</time>
      </trkpt>
      <trkpt lat="49.26614" lon="-0.10449">
        <ele>9.4</ele>
        <time>2024-03-20T13:09:28Z</time>
      </trkpt>
      <trkpt lat="49.26606" lon="-0.10451">
        <ele>9.4</ele>
        <time>2024-03-20T13:09:29Z</time>
      </trkpt>
      <trkpt lat="49.26598" lon="-0.10453">
        <ele>9.4</ele>
        <time>2024-03-20T13:09:30Z</time>
      </trkpt>
      <trkpt lat="49.2659" lon="-0.10455">
        <ele>9.2</ele>
        <time>2024-03-20T13:09:31Z</time>
      </trkpt>
      <trkpt lat="49.26581" lon="-0.10456">
        <ele>9.2</ele>
        <time>2024-03-20T13:09:32Z</time>
      </trkpt>
      <trkpt lat="49.26573" lon="-0.10457">
        <ele>9.2</ele>
        <time>2024-03-20T13:09:33Z</time>
      </trkpt>
      <trkpt lat="49.26565" lon="-0.10458">
        <ele>9.2</ele>
        <time>2024-03-20T13:09:34Z</time>
      </trkpt>
      <trkpt lat="49.26557" lon="-0.10459">
        <ele>9.2</ele>
        <time>2024-03-20T13:09:35Z</time>
      </trkpt>
      <trkpt lat="49.26548" lon="-0.1046">
        <ele>9.2</ele>
        <time>2024-03-20T13:09:36Z</time>
      </trkpt>
      <trkpt lat="49.2654" lon="-0.10461">
        <ele>9.2</ele>
        <time>2024-03-20T13:09:37Z</time>
      </trkpt>
      <trkpt lat="49.26532" lon="-0.10462">
        <ele>9</ele>
        <time>2024-03-20T13:09:38Z</time>
      </trkpt>
      <trkpt lat="49.26523" lon="-0.10463">
        <ele>9</ele>
        <time>2024-03-20T13:09:39Z</time>
      </trkpt>
      <trkpt lat="49.26515" lon="-0.10464">
        <ele>9</ele>
        <time>2024-03-20T13:09:40Z</time>
      </trkpt>
      <trkpt lat="49.26507" lon="-0.10464">
        <ele>8.8</ele>
        <time>2024-03-20T13:09:41Z</time>
      </trkpt>
      <trkpt lat="49.26499" lon="-0.10465">
        <ele>8.8</ele>
        <time>2024-03-20T13:09:42Z</time>
      </trkpt>
      <trkpt lat="49.26491" lon="-0.10465">
        <ele>8.8</ele>
        <time>2024-03-20T13:09:43Z</time>
      </trkpt>
      <trkpt lat="49.26483" lon="-0.10465">
        <ele>8.8</ele>
        <time>2024-03-20T13:09:44Z</time>
      </trkpt>
      <trkpt lat="49.26475" lon="-0.10465">
        <ele>8.8</ele>
        <time>2024-03-20T13:09:45Z</time>
      </trkpt>
      <trkpt lat="49.26467" lon="-0.10464">
        <ele>8.8</ele>
        <time>2024-03-20T13:09:46Z</time>
      </trkpt>
      <trkpt lat="49.2646" lon="-0.10464">
        <ele>8.8</ele>
        <time>2024-03-20T13:09:47Z</time>
      </trkpt>
      <trkpt lat="49.26452" lon="-0.10464">
        <ele>8.8</ele>
        <time>2024-03-20T13:09:48Z</time>
      </trkpt>
      <trkpt lat="49.26444" lon="-0.10463">
        <ele>8.8</ele>
        <time>2024-03-20T13:09:49Z</time>
      </trkpt>
      <trkpt lat="49.26437" lon="-0.10463">
        <ele>8.8</ele>
        <time>2024-03-20T13:09:50Z</time>
      </trkpt>
      <trkpt lat="49.26429" lon="-0.10463">
        <ele>8.8</ele>
        <time>2024-03-20T13:09:51Z</time>
      </trkpt>
      <trkpt lat="49.26421" lon="-0.10462">
        <ele>8.8</ele>
        <time>2024-03-20T13:09:52Z</time>
      </trkpt>
      <trkpt lat="49.26414" lon="-0.10461">
        <ele>8.8</ele>
        <time>2024-03-20T13:09:53Z</time>
      </trkpt>
      <trkpt lat="49.26406" lon="-0.1046">
        <ele>8.8</ele>
        <time>2024-03-20T13:09:54Z</time>
      </trkpt>
      <trkpt lat="49.26398" lon="-0.1046">
        <ele>8.8</ele>
        <time>2024-03-20T13:09:55Z</time>
      </trkpt>
      <trkpt lat="49.26391" lon="-0.10459">
        <ele>8.8</ele>
        <time>2024-03-20T13:09:56Z</time>
      </trkpt>
      <trkpt lat="49.26383" lon="-0.10458">
        <ele>8.8</ele>
        <time>2024-03-20T13:09:57Z</time>
      </trkpt>
      <trkpt lat="49.26375" lon="-0.10457">
        <ele>8.8</ele>
        <time>2024-03-20T13:09:58Z</time>
      </trkpt>
      <trkpt lat="49.26367" lon="-0.10456">
        <ele>8.8</ele>
        <time>2024-03-20T13:09:59Z</time>
      </trkpt>
      <trkpt lat="49.2636" lon="-0.10456">
        <ele>8.8</ele>
        <time>2024-03-20T13:10:00Z</time>
      </trkpt>
      <trkpt lat="49.26352" lon="-0.10455">
        <ele>8.8</ele>
        <time>2024-03-20T13:10:01Z</time>
      </trkpt>
      <trkpt lat="49.26344" lon="-0.10454">
        <ele>8.8</ele>
        <time>2024-03-20T13:10:02Z</time>
      </trkpt>
      <trkpt lat="49.26336" lon="-0.10453">
        <ele>8.8</ele>
        <time>2024-03-20T13:10:03Z</time>
      </trkpt>
      <trkpt lat="49.26328" lon="-0.10452">
        <ele>8.8</ele>
        <time>2024-03-20T13:10:04Z</time>
      </trkpt>
      <trkpt lat="49.2632" lon="-0.10451">
        <ele>8.8</ele>
        <time>2024-03-20T13:10:05Z</time>
      </trkpt>
      <trkpt lat="49.26312" lon="-0.1045">
        <ele>8.8</ele>
        <time>2024-03-20T13:10:06Z</time>
      </trkpt>
      <trkpt lat="49.26304" lon="-0.10449">
        <ele>8.8</ele>
        <time>2024-03-20T13:10:07Z</time>
      </trkpt>
      <trkpt lat="49.26296" lon="-0.10448">
        <ele>9</ele>
        <time>2024-03-20T13:10:08Z</time>
      </trkpt>
      <trkpt lat="49.26288" lon="-0.10447">
        <ele>9</ele>
        <time>2024-03-20T13:10:09Z</time>
      </trkpt>
      <trkpt lat="49.2628" lon="-0.10446">
        <ele>9</ele>
        <time>2024-03-20T13:10:10Z</time>
      </trkpt>
      <trkpt lat="49.26272" lon="-0.10445">
        <ele>9.2</ele>
        <time>2024-03-20T13:10:11Z</time>
      </trkpt>
      <trkpt lat="49.26264" lon="-0.10444">
        <ele>9.2</ele>
        <time>2024-03-20T13:10:12Z</time>
      </trkpt>
      <trkpt lat="49.26256" lon="-0.10443">
        <ele>9.4</ele>
        <time>2024-03-20T13:10:13Z</time>
      </trkpt>
      <trkpt lat="49.26248" lon="-0.10443">
        <ele>9.4</ele>
        <time>2024-03-20T13:10:14Z</time>
      </trkpt>
      <trkpt lat="49.2624" lon="-0.10442">
        <ele>9.4</ele>
        <time>2024-03-20T13:10:15Z</time>
      </trkpt>
      <trkpt lat="49.26232" lon="-0.10441">
        <ele>9.6</ele>
        <time>2024-03-20T13:10:16Z</time>
      </trkpt>
      <trkpt lat="49.26224" lon="-0.10441">
        <ele>9.6</ele>
        <time>2024-03-20T13:10:17Z</time>
      </trkpt>
      <trkpt lat="49.26216" lon="-0.1044">
        <ele>9.6</ele>
        <time>2024-03-20T13:10:18Z</time>
      </trkpt>
      <trkpt lat="49.26208" lon="-0.10439">
        <ele>9.6</ele>
        <time>2024-03-20T13:10:19Z</time>
      </trkpt>
      <trkpt lat="49.262" lon="-0.10438">
        <ele>9.6</ele>
        <time>2024-03-20T13:10:20Z</time>
      </trkpt>
      <trkpt lat="49.26191" lon="-0.10437">
        <ele>9.8</ele>
        <time>2024-03-20T13:10:21Z</time>
      </trkpt>
      <trkpt lat="49.26183" lon="-0.10437">
        <ele>9.8</ele>
        <time>2024-03-20T13:10:22Z</time>
      </trkpt>
      <trkpt lat="49.26175" lon="-0.10436">
        <ele>9.8</ele>
        <time>2024-03-20T13:10:23Z</time>
      </trkpt>
      <trkpt lat="49.26167" lon="-0.10435">
        <ele>9.8</ele>
        <time>2024-03-20T13:10:24Z</time>
      </trkpt>
      <trkpt lat="49.26159" lon="-0.10434">
        <ele>9.8</ele>
        <time>2024-03-20T13:10:25Z</time>
      </trkpt>
      <trkpt lat="49.26152" lon="-0.10433">
        <ele>9.8</ele>
        <time>2024-03-20T13:10:26Z</time>
      </trkpt>
      <trkpt lat="49.26144" lon="-0.10432">
        <ele>9.8</ele>
        <time>2024-03-20T13:10:27Z</time>
      </trkpt>
      <trkpt lat="49.26136" lon="-0.10431">
        <ele>9.8</ele>
        <time>2024-03-20T13:10:28Z</time>
      </trkpt>
      <trkpt lat="49.26128" lon="-0.10431">
        <ele>9.8</ele>
        <time>2024-03-20T13:10:29Z</time>
      </trkpt>
      <trkpt lat="49.2612" lon="-0.10431">
        <ele>9.8</ele>
        <time>2024-03-20T13:10:30Z</time>
      </trkpt>
      <trkpt lat="49.26112" lon="-0.1043">
        <ele>9.8</ele>
        <time>2024-03-20T13:10:31Z</time>
      </trkpt>
      <trkpt lat="49.26104" lon="-0.10429">
        <ele>9.8</ele>
        <time>2024-03-20T13:10:32Z</time>
      </trkpt>
      <trkpt lat="49.26096" lon="-0.10428">
        <ele>9.8</ele>
        <time>2024-03-20T13:10:33Z</time>
      </trkpt>
      <trkpt lat="49.26088" lon="-0.10428">
        <ele>9.8</ele>
        <time>2024-03-20T13:10:34Z</time>
      </trkpt>
      <trkpt lat="49.26081" lon="-0.10427">
        <ele>10</ele>
        <time>2024-03-20T13:10:35Z</time>
      </trkpt>
      <trkpt lat="49.26072" lon="-0.10427">
        <ele>10</ele>
        <time>2024-03-20T13:10:36Z</time>
      </trkpt>
      <trkpt lat="49.26064" lon="-0.10426">
        <ele>10</ele>
        <time>2024-03-20T13:10:37Z</time>
      </trkpt>
      <trkpt lat="49.26056" lon="-0.10426">
        <ele>10</ele>
        <time>2024-03-20T13:10:38Z</time>
      </trkpt>
      <trkpt lat="49.26048" lon="-0.10425">
        <ele>9.8</ele>
        <time>2024-03-20T13:10:39Z</time>
      </trkpt>
      <trkpt lat="49.2604" lon="-0.10425">
        <ele>9.8</ele>
        <time>2024-03-20T13:10:40Z</time>
      </trkpt>
      <trkpt lat="49.26032" lon="-0.10425">
        <ele>9.8</ele>
        <time>2024-03-20T13:10:41Z</time>
      </trkpt>
      <trkpt lat="49.26024" lon="-0.10424">
        <ele>9.8</ele>
        <time>2024-03-20T13:10:42Z</time>
      </trkpt>
      <trkpt lat="49.26016" lon="-0.10424">
        <ele>9.8</ele>
        <time>2024-03-20T13:10:43Z</time>
      </trkpt>
      <trkpt lat="49.26008" lon="-0.10423">
        <ele>9.8</ele>
        <time>2024-03-20T13:10:44Z</time>
      </trkpt>
      <trkpt lat="49.26" lon="-0.10423">
        <ele>10</ele>
        <time>2024-03-20T13:10:45Z</time>
      </trkpt>
      <trkpt lat="49.25992" lon="-0.10422">
        <ele>10</ele>
        <time>2024-03-20T13:10:46Z</time>
      </trkpt>
      <trkpt lat="49.25984" lon="-0.10422">
        <ele>10</ele>
        <time>2024-03-20T13:10:47Z</time>
      </trkpt>
      <trkpt lat="49.25976" lon="-0.10421">
        <ele>9.8</ele>
        <time>2024-03-20T13:10:48Z</time>
      </trkpt>
      <trkpt lat="49.25968" lon="-0.10421">
        <ele>9.8</ele>
        <time>2024-03-20T13:10:49Z</time>
      </trkpt>
      <trkpt lat="49.2596" lon="-0.1042">
        <ele>9.8</ele>
        <time>2024-03-20T13:10:50Z</time>
      </trkpt>
      <trkpt lat="49.25952" lon="-0.1042">
        <ele>9.8</ele>
        <time>2024-03-20T13:10:51Z</time>
      </trkpt>
      <trkpt lat="49.25944" lon="-0.10419">
        <ele>9.8</ele>
        <time>2024-03-20T13:10:52Z</time>
      </trkpt>
      <trkpt lat="49.25936" lon="-0.10419">
        <ele>9.8</ele>
        <time>2024-03-20T13:10:53Z</time>
      </trkpt>
      <trkpt lat="49.25928" lon="-0.10418">
        <ele>9.8</ele>
        <time>2024-03-20T13:10:54Z</time>
      </trkpt>
      <trkpt lat="49.2592" lon="-0.10416">
        <ele>9.8</ele>
        <time>2024-03-20T13:10:55Z</time>
      </trkpt>
      <trkpt lat="49.25912" lon="-0.10415">
        <ele>9.6</ele>
        <time>2024-03-20T13:10:56Z</time>
      </trkpt>
      <trkpt lat="49.25904" lon="-0.10413">
        <ele>9.8</ele>
        <time>2024-03-20T13:10:57Z</time>
      </trkpt>
      <trkpt lat="49.25896" lon="-0.10412">
        <ele>9.8</ele>
        <time>2024-03-20T13:10:58Z</time>
      </trkpt>
      <trkpt lat="49.25888" lon="-0.1041">
        <ele>9.8</ele>
        <time>2024-03-20T13:10:59Z</time>
      </trkpt>
      <trkpt lat="49.2588" lon="-0.10409">
        <ele>9.6</ele>
        <time>2024-03-20T13:11:00Z</time>
      </trkpt>
      <trkpt lat="49.25871" lon="-0.10408">
        <ele>9.6</ele>
        <time>2024-03-20T13:11:01Z</time>
      </trkpt>
      <trkpt lat="49.25863" lon="-0.10407">
        <ele>9.6</ele>
        <time>2024-03-20T13:11:02Z</time>
      </trkpt>
      <trkpt lat="49.25855" lon="-0.10406">
        <ele>9.4</ele>
        <time>2024-03-20T13:11:03Z</time>
      </trkpt>
      <trkpt lat="49.25847" lon="-0.10405">
        <ele>9.4</ele>
        <time>2024-03-20T13:11:04Z</time>
      </trkpt>
      <trkpt lat="49.2584" lon="-0.10404">
        <ele>9.4</ele>
        <time>2024-03-20T13:11:05Z</time>
      </trkpt>
      <trkpt lat="49.25832" lon="-0.10403">
        <ele>9.2</ele>
        <time>2024-03-20T13:11:06Z</time>
      </trkpt>
      <trkpt lat="49.25825" lon="-0.10402">
        <ele>9.2</ele>
        <time>2024-03-20T13:11:07Z</time>
      </trkpt>
      <trkpt lat="49.25817" lon="-0.10402">
        <ele>9.2</ele>
        <time>2024-03-20T13:11:08Z</time>
      </trkpt>
      <trkpt lat="49.2581" lon="-0.10403">
        <ele>9.2</ele>
        <time>2024-03-20T13:11:09Z</time>
      </trkpt>
      <trkpt lat="49.25802" lon="-0.10405">
        <ele>9.2</ele>
        <time>2024-03-20T13:11:10Z</time>
      </trkpt>
      <trkpt lat="49.25795" lon="-0.10408">
        <ele>9</ele>
        <time>2024-03-20T13:11:11Z</time>
      </trkpt>
      <trkpt lat="49.25789" lon="-0.10413">
        <ele>9</ele>
        <time>2024-03-20T13:11:12Z</time>
      </trkpt>
      <trkpt lat="49.25782" lon="-0.10417">
        <ele>8.8</ele>
        <time>2024-03-20T13:11:13Z</time>
      </trkpt>
      <trkpt lat="49.25776" lon="-0.1042">
        <ele>8.6</ele>
        <time>2024-03-20T13:11:14Z</time>
      </trkpt>
      <trkpt lat="49.25769" lon="-0.1042">
        <ele>8.6</ele>
        <time>2024-03-20T13:11:15Z</time>
      </trkpt>
      <trkpt lat="49.25763" lon="-0.10416">
        <ele>8.6</ele>
        <time>2024-03-20T13:11:16Z</time>
      </trkpt>
      <trkpt lat="49.25758" lon="-0.10409">
        <ele>8.6</ele>
        <time>2024-03-20T13:11:17Z</time>
      </trkpt>
      <trkpt lat="49.25755" lon="-0.104">
        <ele>8.6</ele>
        <time>2024-03-20T13:11:18Z</time>
      </trkpt>
      <trkpt lat="49.25754" lon="-0.10391">
        <ele>8.6</ele>
        <time>2024-03-20T13:11:19Z</time>
      </trkpt>
      <trkpt lat="49.25754" lon="-0.10381">
        <ele>8.6</ele>
        <time>2024-03-20T13:11:20Z</time>
      </trkpt>
      <trkpt lat="49.25758" lon="-0.10372">
        <ele>8.6</ele>
        <time>2024-03-20T13:11:21Z</time>
      </trkpt>
      <trkpt lat="49.25762" lon="-0.10363">
        <ele>8.6</ele>
        <time>2024-03-20T13:11:22Z</time>
      </trkpt>
      <trkpt lat="49.25768" lon="-0.10355">
        <ele>8.6</ele>
        <time>2024-03-20T13:11:23Z</time>
      </trkpt>
      <trkpt lat="49.25772" lon="-0.10346">
        <ele>8.6</ele>
        <time>2024-03-20T13:11:24Z</time>
      </trkpt>
      <trkpt lat="49.25777" lon="-0.10336">
        <ele>8.6</ele>
        <time>2024-03-20T13:11:25Z</time>
      </trkpt>
      <trkpt lat="49.2578" lon="-0.10326">
        <ele>8.6</ele>
        <time>2024-03-20T13:11:26Z</time>
      </trkpt>
      <trkpt lat="49.25782" lon="-0.10315">
        <ele>8.6</ele>
        <time>2024-03-20T13:11:27Z</time>
      </trkpt>
      <trkpt lat="49.25784" lon="-0.10303">
        <ele>8.6</ele>
        <time>2024-03-20T13:11:28Z</time>
      </trkpt>
      <trkpt lat="49.25786" lon="-0.10292">
        <ele>8.6</ele>
        <time>2024-03-20T13:11:29Z</time>
      </trkpt>
      <trkpt lat="49.25788" lon="-0.10279">
        <ele>8.6</ele>
        <time>2024-03-20T13:11:30Z</time>
      </trkpt>
      <trkpt lat="49.2579" lon="-0.10268">
        <ele>8.6</ele>
        <time>2024-03-20T13:11:31Z</time>
      </trkpt>
      <trkpt lat="49.25791" lon="-0.10256">
        <ele>8.6</ele>
        <time>2024-03-20T13:11:32Z</time>
      </trkpt>
      <trkpt lat="49.25792" lon="-0.10244">
        <ele>8.6</ele>
        <time>2024-03-20T13:11:33Z</time>
      </trkpt>
      <trkpt lat="49.25793" lon="-0.10233">
        <ele>8.6</ele>
        <time>2024-03-20T13:11:34Z</time>
      </trkpt>
      <trkpt lat="49.25794" lon="-0.10222">
        <ele>8.6</ele>
        <time>2024-03-20T13:11:35Z</time>
      </trkpt>
      <trkpt lat="49.25795" lon="-0.10212">
        <ele>8.6</ele>
        <time>2024-03-20T13:11:36Z</time>
      </trkpt>
      <trkpt lat="49.25796" lon="-0.10201">
        <ele>8.6</ele>
        <time>2024-03-20T13:11:37Z</time>
      </trkpt>
      <trkpt lat="49.25797" lon="-0.1019">
        <ele>8.6</ele>
        <time>2024-03-20T13:11:38Z</time>
      </trkpt>
      <trkpt lat="49.25797" lon="-0.10179">
        <ele>8.6</ele>
        <time>2024-03-20T13:11:39Z</time>
      </trkpt>
      <trkpt lat="49.25798" lon="-0.10168">
        <ele>8.6</ele>
        <time>2024-03-20T13:11:40Z</time>
      </trkpt>
      <trkpt lat="49.25799" lon="-0.10157">
        <ele>8.8</ele>
        <time>2024-03-20T13:11:41Z</time>
      </trkpt>
      <trkpt lat="49.258" lon="-0.10146">
        <ele>8.8</ele>
        <time>2024-03-20T13:11:42Z</time>
      </trkpt>
      <trkpt lat="49.25801" lon="-0.10134">
        <ele>8.8</ele>
        <time>2024-03-20T13:11:43Z</time>
      </trkpt>
      <trkpt lat="49.25802" lon="-0.10123">
        <ele>8.8</ele>
        <time>2024-03-20T13:11:44Z</time>
      </trkpt>
      <trkpt lat="49.25802" lon="-0.10112">
        <ele>8.8</ele>
        <time>2024-03-20T13:11:45Z</time>
      </trkpt>
      <trkpt lat="49.25803" lon="-0.10101">
        <ele>8.8</ele>
        <time>2024-03-20T13:11:46Z</time>
      </trkpt>
      <trkpt lat="49.25804" lon="-0.1009">
        <ele>8.8</ele>
        <time>2024-03-20T13:11:47Z</time>
      </trkpt>
      <trkpt lat="49.25805" lon="-0.10079">
        <ele>8.8</ele>
        <time>2024-03-20T13:11:48Z</time>
      </trkpt>
      <trkpt lat="49.25807" lon="-0.10068">
        <ele>8.8</ele>
        <time>2024-03-20T13:11:49Z</time>
      </trkpt>
      <trkpt lat="49.25807" lon="-0.10057">
        <ele>8.8</ele>
        <time>2024-03-20T13:11:50Z</time>
      </trkpt>
      <trkpt lat="49.25809" lon="-0.10046">
        <ele>8.6</ele>
        <time>2024-03-20T13:11:51Z</time>
      </trkpt>
      <trkpt lat="49.2581" lon="-0.10036">
        <ele>8.6</ele>
        <time>2024-03-20T13:11:52Z</time>
      </trkpt>
      <trkpt lat="49.25811" lon="-0.10025">
        <ele>8.6</ele>
        <time>2024-03-20T13:11:53Z</time>
      </trkpt>
      <trkpt lat="49.25812" lon="-0.10014">
        <ele>8.6</ele>
        <time>2024-03-20T13:11:54Z</time>
      </trkpt>
      <trkpt lat="49.25813" lon="-0.10003">
        <ele>8.6</ele>
        <time>2024-03-20T13:11:55Z</time>
      </trkpt>
      <trkpt lat="49.25814" lon="-0.09992">
        <ele>8.6</ele>
        <time>2024-03-20T13:11:56Z</time>
      </trkpt>
      <trkpt lat="49.25815" lon="-0.09982">
        <ele>8.6</ele>
        <time>2024-03-20T13:11:57Z</time>
      </trkpt>
      <trkpt lat="49.25817" lon="-0.09971">
        <ele>8.4</ele>
        <time>2024-03-20T13:11:58Z</time>
      </trkpt>
      <trkpt lat="49.25818" lon="-0.09959">
        <ele>8.4</ele>
        <time>2024-03-20T13:11:59Z</time>
      </trkpt>
      <trkpt lat="49.25818" lon="-0.09948">
        <ele>8.4</ele>
        <time>2024-03-20T13:12:00Z</time>
      </trkpt>
      <trkpt lat="49.25819" lon="-0.09937">
        <ele>8.4</ele>
        <time>2024-03-20T13:12:01Z</time>
      </trkpt>
      <trkpt lat="49.2582" lon="-0.09925">
        <ele>8.4</ele>
        <time>2024-03-20T13:12:02Z</time>
      </trkpt>
      <trkpt lat="49.2582" lon="-0.09914">
        <ele>8.4</ele>
        <time>2024-03-20T13:12:03Z</time>
      </trkpt>
      <trkpt lat="49.25821" lon="-0.09903">
        <ele>8.4</ele>
        <time>2024-03-20T13:12:04Z</time>
      </trkpt>
      <trkpt lat="49.25822" lon="-0.09892">
        <ele>8.4</ele>
        <time>2024-03-20T13:12:05Z</time>
      </trkpt>
      <trkpt lat="49.25823" lon="-0.09881">
        <ele>8.4</ele>
        <time>2024-03-20T13:12:06Z</time>
      </trkpt>
      <trkpt lat="49.25823" lon="-0.0987">
        <ele>8.4</ele>
        <time>2024-03-20T13:12:07Z</time>
      </trkpt>
      <trkpt lat="49.25824" lon="-0.09858">
        <ele>8.2</ele>
        <time>2024-03-20T13:12:08Z</time>
      </trkpt>
      <trkpt lat="49.25825" lon="-0.09847">
        <ele>8.2</ele>
        <time>2024-03-20T13:12:09Z</time>
      </trkpt>
      <trkpt lat="49.25826" lon="-0.09836">
        <ele>8.2</ele>
        <time>2024-03-20T13:12:10Z</time>
      </trkpt>
      <trkpt lat="49.25826" lon="-0.09825">
        <ele>8.2</ele>
        <time>2024-03-20T13:12:11Z</time>
      </trkpt>
      <trkpt lat="49.25827" lon="-0.09814">
        <ele>8</ele>
        <time>2024-03-20T13:12:12Z</time>
      </trkpt>
      <trkpt lat="49.25828" lon="-0.09803">
        <ele>8</ele>
        <time>2024-03-20T13:12:13Z</time>
      </trkpt>
      <trkpt lat="49.25828" lon="-0.09792">
        <ele>8</ele>
        <time>2024-03-20T13:12:14Z</time>
      </trkpt>
      <trkpt lat="49.25829" lon="-0.09781">
        <ele>8</ele>
        <time>2024-03-20T13:12:15Z</time>
      </trkpt>
      <trkpt lat="49.2583" lon="-0.0977">
        <ele>8</ele>
        <time>2024-03-20T13:12:16Z</time>
      </trkpt>
      <trkpt lat="49.25831" lon="-0.09759">
        <ele>8</ele>
        <time>2024-03-20T13:12:17Z</time>
      </trkpt>
      <trkpt lat="49.25832" lon="-0.09748">
        <ele>8.2</ele>
        <time>2024-03-20T13:12:18Z</time>
      </trkpt>
      <trkpt lat="49.25832" lon="-0.09737">
        <ele>8.2</ele>
        <time>2024-03-20T13:12:19Z</time>
      </trkpt>
      <trkpt lat="49.25833" lon="-0.09726">
        <ele>8.2</ele>
        <time>2024-03-20T13:12:20Z</time>
      </trkpt>
      <trkpt lat="49.25834" lon="-0.09715">
        <ele>8.2</ele>
        <time>2024-03-20T13:12:21Z</time>
      </trkpt>
      <trkpt lat="49.25835" lon="-0.09705">
        <ele>8.2</ele>
        <time>2024-03-20T13:12:22Z</time>
      </trkpt>
      <trkpt lat="49.25835" lon="-0.09694">
        <ele>8.2</ele>
        <time>2024-03-20T13:12:23Z</time>
      </trkpt>
      <trkpt lat="49.25835" lon="-0.09683">
        <ele>8.2</ele>
        <time>2024-03-20T13:12:24Z</time>
      </trkpt>
      <trkpt lat="49.25835" lon="-0.09672">
        <ele>8.2</ele>
        <time>2024-03-20T13:12:25Z</time>
      </trkpt>
      <trkpt lat="49.25835" lon="-0.09662">
        <ele>8.2</ele>
        <time>2024-03-20T13:12:26Z</time>
      </trkpt>
      <trkpt lat="49.25835" lon="-0.09652">
        <ele>8.2</ele>
        <time>2024-03-20T13:12:27Z</time>
      </trkpt>
      <trkpt lat="49.25834" lon="-0.09642">
        <ele>8.2</ele>
        <time>2024-03-20T13:12:28Z</time>
      </trkpt>
      <trkpt lat="49.25833" lon="-0.09631">
        <ele>8.2</ele>
        <time>2024-03-20T13:12:29Z</time>
      </trkpt>
      <trkpt lat="49.25833" lon="-0.09621">
        <ele>8.4</ele>
        <time>2024-03-20T13:12:30Z</time>
      </trkpt>
      <trkpt lat="49.25833" lon="-0.09611">
        <ele>8.4</ele>
        <time>2024-03-20T13:12:31Z</time>
      </trkpt>
      <trkpt lat="49.25832" lon="-0.09601">
        <ele>8.6</ele>
        <time>2024-03-20T13:12:32Z</time>
      </trkpt>
      <trkpt lat="49.25832" lon="-0.09591">
        <ele>8.6</ele>
        <time>2024-03-20T13:12:33Z</time>
      </trkpt>
      <trkpt lat="49.25832" lon="-0.09582">
        <ele>8.8</ele>
        <time>2024-03-20T13:12:34Z</time>
      </trkpt>
      <trkpt lat="49.25832" lon="-0.09572">
        <ele>8.8</ele>
        <time>2024-03-20T13:12:35Z</time>
      </trkpt>
      <trkpt lat="49.25833" lon="-0.09562">
        <ele>9</ele>
        <time>2024-03-20T13:12:36Z</time>
      </trkpt>
      <trkpt lat="49.25833" lon="-0.09552">
        <ele>9.2</ele>
        <time>2024-03-20T13:12:37Z</time>
      </trkpt>
      <trkpt lat="49.25833" lon="-0.09543">
        <ele>9.4</ele>
        <time>2024-03-20T13:12:38Z</time>
      </trkpt>
      <trkpt lat="49.25834" lon="-0.09533">
        <ele>9.4</ele>
        <time>2024-03-20T13:12:39Z</time>
      </trkpt>
      <trkpt lat="49.25834" lon="-0.09523">
        <ele>9.4</ele>
        <time>2024-03-20T13:12:40Z</time>
      </trkpt>
      <trkpt lat="49.25834" lon="-0.09515">
        <ele>9.6</ele>
        <time>2024-03-20T13:12:41Z</time>
      </trkpt>
      <trkpt lat="49.25834" lon="-0.09505">
        <ele>9.8</ele>
        <time>2024-03-20T13:12:42Z</time>
      </trkpt>
      <trkpt lat="49.25833" lon="-0.09497">
        <ele>10</ele>
        <time>2024-03-20T13:12:43Z</time>
      </trkpt>
      <trkpt lat="49.2583" lon="-0.09489">
        <ele>10.2</ele>
        <time>2024-03-20T13:12:44Z</time>
      </trkpt>
      <trkpt lat="49.25826" lon="-0.09482">
        <ele>10.2</ele>
        <time>2024-03-20T13:12:45Z</time>
      </trkpt>
      <trkpt lat="49.25821" lon="-0.09477">
        <ele>10.4</ele>
        <time>2024-03-20T13:12:46Z</time>
      </trkpt>
      <trkpt lat="49.25816" lon="-0.09475">
        <ele>10.6</ele>
        <time>2024-03-20T13:12:47Z</time>
      </trkpt>
      <trkpt lat="49.25809" lon="-0.09476">
        <ele>11</ele>
        <time>2024-03-20T13:12:48Z</time>
      </trkpt>
      <trkpt lat="49.25803" lon="-0.09477">
        <ele>11.2</ele>
        <time>2024-03-20T13:12:49Z</time>
      </trkpt>
      <trkpt lat="49.25796" lon="-0.0948">
        <ele>11.4</ele>
        <time>2024-03-20T13:12:50Z</time>
      </trkpt>
      <trkpt lat="49.2579" lon="-0.09482">
        <ele>11.6</ele>
        <time>2024-03-20T13:12:51Z</time>
      </trkpt>
      <trkpt lat="49.25783" lon="-0.09485">
        <ele>11.8</ele>
        <time>2024-03-20T13:12:52Z</time>
      </trkpt>
      <trkpt lat="49.25777" lon="-0.09489">
        <ele>12</ele>
        <time>2024-03-20T13:12:53Z</time>
      </trkpt>
      <trkpt lat="49.2577" lon="-0.09494">
        <ele>12.2</ele>
        <time>2024-03-20T13:12:54Z</time>
      </trkpt>
      <trkpt lat="49.25764" lon="-0.09499">
        <ele>12.2</ele>
        <time>2024-03-20T13:12:55Z</time>
      </trkpt>
      <trkpt lat="49.25757" lon="-0.09504">
        <ele>12.4</ele>
        <time>2024-03-20T13:12:56Z</time>
      </trkpt>
      <trkpt lat="49.25751" lon="-0.09509">
        <ele>12.4</ele>
        <time>2024-03-20T13:12:57Z</time>
      </trkpt>
      <trkpt lat="49.25744" lon="-0.09514">
        <ele>12.4</ele>
        <time>2024-03-20T13:12:58Z</time>
      </trkpt>
      <trkpt lat="49.25737" lon="-0.09518">
        <ele>12.4</ele>
        <time>2024-03-20T13:12:59Z</time>
      </trkpt>
      <trkpt lat="49.25731" lon="-0.09524">
        <ele>12.4</ele>
        <time>2024-03-20T13:13:00Z</time>
      </trkpt>
      <trkpt lat="49.25724" lon="-0.09529">
        <ele>12.4</ele>
        <time>2024-03-20T13:13:01Z</time>
      </trkpt>
      <trkpt lat="49.25718" lon="-0.09534">
        <ele>12.4</ele>
        <time>2024-03-20T13:13:02Z</time>
      </trkpt>
      <trkpt lat="49.25712" lon="-0.09539">
        <ele>12.4</ele>
        <time>2024-03-20T13:13:03Z</time>
      </trkpt>
      <trkpt lat="49.25705" lon="-0.09545">
        <ele>12.4</ele>
        <time>2024-03-20T13:13:04Z</time>
      </trkpt>
      <trkpt lat="49.25699" lon="-0.09549">
        <ele>12.4</ele>
        <time>2024-03-20T13:13:05Z</time>
      </trkpt>
      <trkpt lat="49.25693" lon="-0.09554">
        <ele>12.4</ele>
        <time>2024-03-20T13:13:06Z</time>
      </trkpt>
      <trkpt lat="49.25687" lon="-0.09559">
        <ele>12.4</ele>
        <time>2024-03-20T13:13:07Z</time>
      </trkpt>
      <trkpt lat="49.2568" lon="-0.09563">
        <ele>12.2</ele>
        <time>2024-03-20T13:13:08Z</time>
      </trkpt>
      <trkpt lat="49.25673" lon="-0.09568">
        <ele>12.2</ele>
        <time>2024-03-20T13:13:09Z</time>
      </trkpt>
      <trkpt lat="49.25667" lon="-0.09572">
        <ele>12.2</ele>
        <time>2024-03-20T13:13:10Z</time>
      </trkpt>
      <trkpt lat="49.2566" lon="-0.09577">
        <ele>12.2</ele>
        <time>2024-03-20T13:13:11Z</time>
      </trkpt>
      <trkpt lat="49.25654" lon="-0.09581">
        <ele>12</ele>
        <time>2024-03-20T13:13:12Z</time>
      </trkpt>
      <trkpt lat="49.25648" lon="-0.09586">
        <ele>11.8</ele>
        <time>2024-03-20T13:13:13Z</time>
      </trkpt>
      <trkpt lat="49.25641" lon="-0.09589">
        <ele>11.8</ele>
        <time>2024-03-20T13:13:14Z</time>
      </trkpt>
      <trkpt lat="49.25634" lon="-0.09592">
        <ele>11.6</ele>
        <time>2024-03-20T13:13:15Z</time>
      </trkpt>
      <trkpt lat="49.25628" lon="-0.09595">
        <ele>11.6</ele>
        <time>2024-03-20T13:13:16Z</time>
      </trkpt>
      <trkpt lat="49.25621" lon="-0.09597">
        <ele>11.6</ele>
        <time>2024-03-20T13:13:17Z</time>
      </trkpt>
      <trkpt lat="49.25613" lon="-0.09598">
        <ele>11.6</ele>
        <time>2024-03-20T13:13:18Z</time>
      </trkpt>
      <trkpt lat="49.25606" lon="-0.09599">
        <ele>11.4</ele>
        <time>2024-03-20T13:13:19Z</time>
      </trkpt>
      <trkpt lat="49.25599" lon="-0.09599">
        <ele>11.4</ele>
        <time>2024-03-20T13:13:20Z</time>
      </trkpt>
      <trkpt lat="49.25592" lon="-0.09599">
        <ele>11.4</ele>
        <time>2024-03-20T13:13:21Z</time>
      </trkpt>
      <trkpt lat="49.25584" lon="-0.09599">
        <ele>11.4</ele>
        <time>2024-03-20T13:13:22Z</time>
      </trkpt>
      <trkpt lat="49.25577" lon="-0.09599">
        <ele>11.4</ele>
        <time>2024-03-20T13:13:23Z</time>
      </trkpt>
      <trkpt lat="49.25569" lon="-0.09599">
        <ele>11.4</ele>
        <time>2024-03-20T13:13:24Z</time>
      </trkpt>
      <trkpt lat="49.25561" lon="-0.09598">
        <ele>11.4</ele>
        <time>2024-03-20T13:13:25Z</time>
      </trkpt>
      <trkpt lat="49.25553" lon="-0.09598">
        <ele>11.4</ele>
        <time>2024-03-20T13:13:26Z</time>
      </trkpt>
      <trkpt lat="49.25546" lon="-0.09597">
        <ele>11.4</ele>
        <time>2024-03-20T13:13:27Z</time>
      </trkpt>
      <trkpt lat="49.25538" lon="-0.09597">
        <ele>11.4</ele>
        <time>2024-03-20T13:13:28Z</time>
      </trkpt>
      <trkpt lat="49.2553" lon="-0.09597">
        <ele>11.4</ele>
        <time>2024-03-20T13:13:29Z</time>
      </trkpt>
      <trkpt lat="49.25522" lon="-0.09598">
        <ele>11.4</ele>
        <time>2024-03-20T13:13:30Z</time>
      </trkpt>
      <trkpt lat="49.25514" lon="-0.09598">
        <ele>11.2</ele>
        <time>2024-03-20T13:13:31Z</time>
      </trkpt>
      <trkpt lat="49.25506" lon="-0.09598">
        <ele>11.2</ele>
        <time>2024-03-20T13:13:32Z</time>
      </trkpt>
      <trkpt lat="49.25498" lon="-0.09599">
        <ele>11.2</ele>
        <time>2024-03-20T13:13:33Z</time>
      </trkpt>
      <trkpt lat="49.25491" lon="-0.096">
        <ele>11</ele>
        <time>2024-03-20T13:13:34Z</time>
      </trkpt>
      <trkpt lat="49.25483" lon="-0.09601">
        <ele>11</ele>
        <time>2024-03-20T13:13:35Z</time>
      </trkpt>
      <trkpt lat="49.25474" lon="-0.09602">
        <ele>11</ele>
        <time>2024-03-20T13:13:36Z</time>
      </trkpt>
      <trkpt lat="49.25466" lon="-0.09604">
        <ele>11</ele>
        <time>2024-03-20T13:13:37Z</time>
      </trkpt>
      <trkpt lat="49.25458" lon="-0.09605">
        <ele>11</ele>
        <time>2024-03-20T13:13:38Z</time>
      </trkpt>
      <trkpt lat="49.2545" lon="-0.09606">
        <ele>10.8</ele>
        <time>2024-03-20T13:13:39Z</time>
      </trkpt>
      <trkpt lat="49.25441" lon="-0.09608">
        <ele>10.6</ele>
        <time>2024-03-20T13:13:40Z</time>
      </trkpt>
      <trkpt lat="49.25433" lon="-0.09609">
        <ele>10.4</ele>
        <time>2024-03-20T13:13:41Z</time>
      </trkpt>
      <trkpt lat="49.25425" lon="-0.09611">
        <ele>10.2</ele>
        <time>2024-03-20T13:13:42Z</time>
      </trkpt>
      <trkpt lat="49.25417" lon="-0.09613">
        <ele>10</ele>
        <time>2024-03-20T13:13:43Z</time>
      </trkpt>
      <trkpt lat="49.25409" lon="-0.09614">
        <ele>9.8</ele>
        <time>2024-03-20T13:13:44Z</time>
      </trkpt>
      <trkpt lat="49.25401" lon="-0.09616">
        <ele>9.8</ele>
        <time>2024-03-20T13:13:45Z</time>
      </trkpt>
      <trkpt lat="49.25393" lon="-0.09618">
        <ele>9.6</ele>
        <time>2024-03-20T13:13:46Z</time>
      </trkpt>
      <trkpt lat="49.25385" lon="-0.09619">
        <ele>9.6</ele>
        <time>2024-03-20T13:13:47Z</time>
      </trkpt>
      <trkpt lat="49.25377" lon="-0.09621">
        <ele>9.6</ele>
        <time>2024-03-20T13:13:48Z</time>
      </trkpt>
      <trkpt lat="49.2537" lon="-0.09622">
        <ele>9.4</ele>
        <time>2024-03-20T13:13:49Z</time>
      </trkpt>
      <trkpt lat="49.25362" lon="-0.09624">
        <ele>9.4</ele>
        <time>2024-03-20T13:13:50Z</time>
      </trkpt>
      <trkpt lat="49.25354" lon="-0.09625">
        <ele>9.2</ele>
        <time>2024-03-20T13:13:51Z</time>
      </trkpt>
      <trkpt lat="49.25346" lon="-0.09626">
        <ele>9.2</ele>
        <time>2024-03-20T13:13:52Z</time>
      </trkpt>
      <trkpt lat="49.25339" lon="-0.09628">
        <ele>9.2</ele>
        <time>2024-03-20T13:13:53Z</time>
      </trkpt>
      <trkpt lat="49.25331" lon="-0.0963">
        <ele>9</ele>
        <time>2024-03-20T13:13:54Z</time>
      </trkpt>
      <trkpt lat="49.25324" lon="-0.09633">
        <ele>9</ele>
        <time>2024-03-20T13:13:55Z</time>
      </trkpt>
      <trkpt lat="49.25316" lon="-0.09636">
        <ele>8.8</ele>
        <time>2024-03-20T13:13:56Z</time>
      </trkpt>
      <trkpt lat="49.25309" lon="-0.0964">
        <ele>8.8</ele>
        <time>2024-03-20T13:13:57Z</time>
      </trkpt>
      <trkpt lat="49.25302" lon="-0.09645">
        <ele>8.8</ele>
        <time>2024-03-20T13:13:58Z</time>
      </trkpt>
      <trkpt lat="49.25295" lon="-0.0965">
        <ele>8.8</ele>
        <time>2024-03-20T13:13:59Z</time>
      </trkpt>
      <trkpt lat="49.25289" lon="-0.09656">
        <ele>8.8</ele>
        <time>2024-03-20T13:14:00Z</time>
      </trkpt>
      <trkpt lat="49.25282" lon="-0.09663">
        <ele>8.8</ele>
        <time>2024-03-20T13:14:01Z</time>
      </trkpt>
      <trkpt lat="49.25276" lon="-0.09669">
        <ele>8.8</ele>
        <time>2024-03-20T13:14:02Z</time>
      </trkpt>
      <trkpt lat="49.2527" lon="-0.09675">
        <ele>8.8</ele>
        <time>2024-03-20T13:14:03Z</time>
      </trkpt>
      <trkpt lat="49.25264" lon="-0.09681">
        <ele>8.8</ele>
        <time>2024-03-20T13:14:04Z</time>
      </trkpt>
      <trkpt lat="49.25258" lon="-0.09687">
        <ele>8.8</ele>
        <time>2024-03-20T13:14:05Z</time>
      </trkpt>
      <trkpt lat="49.25251" lon="-0.09692">
        <ele>8.8</ele>
        <time>2024-03-20T13:14:06Z</time>
      </trkpt>
      <trkpt lat="49.25244" lon="-0.09696">
        <ele>8.8</ele>
        <time>2024-03-20T13:14:07Z</time>
      </trkpt>
      <trkpt lat="49.25237" lon="-0.097">
        <ele>9</ele>
        <time>2024-03-20T13:14:08Z</time>
      </trkpt>
      <trkpt lat="49.25229" lon="-0.09703">
        <ele>9</ele>
        <time>2024-03-20T13:14:09Z</time>
      </trkpt>
      <trkpt lat="49.25222" lon="-0.09706">
        <ele>9</ele>
        <time>2024-03-20T13:14:10Z</time>
      </trkpt>
      <trkpt lat="49.25215" lon="-0.0971">
        <ele>9</ele>
        <time>2024-03-20T13:14:11Z</time>
      </trkpt>
      <trkpt lat="49.25207" lon="-0.09713">
        <ele>9.2</ele>
        <time>2024-03-20T13:14:12Z</time>
      </trkpt>
      <trkpt lat="49.252" lon="-0.09716">
        <ele>9.2</ele>
        <time>2024-03-20T13:14:13Z</time>
      </trkpt>
      <trkpt lat="49.25192" lon="-0.09719">
        <ele>9.6</ele>
        <time>2024-03-20T13:14:14Z</time>
      </trkpt>
      <trkpt lat="49.25184" lon="-0.09722">
        <ele>9.6</ele>
        <time>2024-03-20T13:14:15Z</time>
      </trkpt>
      <trkpt lat="49.25176" lon="-0.09725">
        <ele>9.6</ele>
        <time>2024-03-20T13:14:16Z</time>
      </trkpt>
      <trkpt lat="49.25168" lon="-0.09728">
        <ele>9.6</ele>
        <time>2024-03-20T13:14:17Z</time>
      </trkpt>
      <trkpt lat="49.25161" lon="-0.09731">
        <ele>9.6</ele>
        <time>2024-03-20T13:14:18Z</time>
      </trkpt>
      <trkpt lat="49.25153" lon="-0.09735">
        <ele>9.6</ele>
        <time>2024-03-20T13:14:19Z</time>
      </trkpt>
      <trkpt lat="49.25146" lon="-0.0974">
        <ele>9.6</ele>
        <time>2024-03-20T13:14:20Z</time>
      </trkpt>
      <trkpt lat="49.25139" lon="-0.09745">
        <ele>9.6</ele>
        <time>2024-03-20T13:14:21Z</time>
      </trkpt>
      <trkpt lat="49.25133" lon="-0.09752">
        <ele>9.6</ele>
        <time>2024-03-20T13:14:22Z</time>
      </trkpt>
      <trkpt lat="49.25127" lon="-0.09761">
        <ele>9.6</ele>
        <time>2024-03-20T13:14:23Z</time>
      </trkpt>
      <trkpt lat="49.25122" lon="-0.0977">
        <ele>9.6</ele>
        <time>2024-03-20T13:14:24Z</time>
      </trkpt>
      <trkpt lat="49.25117" lon="-0.0978">
        <ele>9.6</ele>
        <time>2024-03-20T13:14:25Z</time>
      </trkpt>
      <trkpt lat="49.25113" lon="-0.0979">
        <ele>9.4</ele>
        <time>2024-03-20T13:14:26Z</time>
      </trkpt>
      <trkpt lat="49.25109" lon="-0.09801">
        <ele>9.2</ele>
        <time>2024-03-20T13:14:27Z</time>
      </trkpt>
      <trkpt lat="49.25106" lon="-0.09812">
        <ele>9</ele>
        <time>2024-03-20T13:14:28Z</time>
      </trkpt>
      <trkpt lat="49.25102" lon="-0.09822">
        <ele>8.4</ele>
        <time>2024-03-20T13:14:29Z</time>
      </trkpt>
      <trkpt lat="49.25097" lon="-0.09833">
        <ele>8</ele>
        <time>2024-03-20T13:14:30Z</time>
      </trkpt>
      <trkpt lat="49.25093" lon="-0.09843">
        <ele>7.8</ele>
        <time>2024-03-20T13:14:31Z</time>
      </trkpt>
      <trkpt lat="49.25089" lon="-0.09854">
        <ele>7.8</ele>
        <time>2024-03-20T13:14:32Z</time>
      </trkpt>
      <trkpt lat="49.25085" lon="-0.09865">
        <ele>7.6</ele>
        <time>2024-03-20T13:14:33Z</time>
      </trkpt>
      <trkpt lat="49.25081" lon="-0.09876">
        <ele>7.6</ele>
        <time>2024-03-20T13:14:34Z</time>
      </trkpt>
      <trkpt lat="49.25077" lon="-0.09888">
        <ele>7.6</ele>
        <time>2024-03-20T13:14:35Z</time>
      </trkpt>
      <trkpt lat="49.25074" lon="-0.09897">
        <ele>7.6</ele>
        <time>2024-03-20T13:14:36Z</time>
      </trkpt>
      <trkpt lat="49.2507" lon="-0.09907">
        <ele>7.6</ele>
        <time>2024-03-20T13:14:37Z</time>
      </trkpt>
      <trkpt lat="49.25065" lon="-0.09919">
        <ele>7.6</ele>
        <time>2024-03-20T13:14:38Z</time>
      </trkpt>
      <trkpt lat="49.25061" lon="-0.0993">
        <ele>7.6</ele>
        <time>2024-03-20T13:14:39Z</time>
      </trkpt>
      <trkpt lat="49.25059" lon="-0.09938">
        <ele>7.6</ele>
        <time>2024-03-20T13:14:40Z</time>
      </trkpt>
      <trkpt lat="49.25054" lon="-0.09951">
        <ele>7.6</ele>
        <time>2024-03-20T13:14:41Z</time>
      </trkpt>
      <trkpt lat="49.25051" lon="-0.09959">
        <ele>7.8</ele>
        <time>2024-03-20T13:14:42Z</time>
      </trkpt>
      <trkpt lat="49.25047" lon="-0.09969">
        <ele>7.8</ele>
        <time>2024-03-20T13:14:43Z</time>
      </trkpt>
      <trkpt lat="49.25043" lon="-0.09979">
        <ele>7.8</ele>
        <time>2024-03-20T13:14:44Z</time>
      </trkpt>
      <trkpt lat="49.25039" lon="-0.09989">
        <ele>8</ele>
        <time>2024-03-20T13:14:45Z</time>
      </trkpt>
      <trkpt lat="49.25035" lon="-0.09999">
        <ele>8</ele>
        <time>2024-03-20T13:14:46Z</time>
      </trkpt>
      <trkpt lat="49.2503" lon="-0.10011">
        <ele>8.2</ele>
        <time>2024-03-20T13:14:47Z</time>
      </trkpt>
      <trkpt lat="49.25026" lon="-0.10021">
        <ele>8.2</ele>
        <time>2024-03-20T13:14:48Z</time>
      </trkpt>
      <trkpt lat="49.25023" lon="-0.10029">
        <ele>8.2</ele>
        <time>2024-03-20T13:14:49Z</time>
      </trkpt>
      <trkpt lat="49.25019" lon="-0.10041">
        <ele>8.2</ele>
        <time>2024-03-20T13:14:50Z</time>
      </trkpt>
      <trkpt lat="49.25016" lon="-0.10049">
        <ele>8.2</ele>
        <time>2024-03-20T13:14:51Z</time>
      </trkpt>
      <trkpt lat="49.25012" lon="-0.10059">
        <ele>8.4</ele>
        <time>2024-03-20T13:14:52Z</time>
      </trkpt>
      <trkpt lat="49.25007" lon="-0.10071">
        <ele>8.4</ele>
        <time>2024-03-20T13:14:53Z</time>
      </trkpt>
      <trkpt lat="49.25003" lon="-0.10081">
        <ele>8.4</ele>
        <time>2024-03-20T13:14:54Z</time>
      </trkpt>
      <trkpt lat="49.24999" lon="-0.1009">
        <ele>8.4</ele>
        <time>2024-03-20T13:14:55Z</time>
      </trkpt>
      <trkpt lat="49.24996" lon="-0.101">
        <ele>8.4</ele>
        <time>2024-03-20T13:14:56Z</time>
      </trkpt>
      <trkpt lat="49.24992" lon="-0.1011">
        <ele>8.4</ele>
        <time>2024-03-20T13:14:57Z</time>
      </trkpt>
      <trkpt lat="49.24989" lon="-0.1012">
        <ele>8.4</ele>
        <time>2024-03-20T13:14:58Z</time>
      </trkpt>
      <trkpt lat="49.24986" lon="-0.10129">
        <ele>8.6</ele>
        <time>2024-03-20T13:14:59Z</time>
      </trkpt>
      <trkpt lat="49.24982" lon="-0.10141">
        <ele>8.6</ele>
        <time>2024-03-20T13:15:00Z</time>
      </trkpt>
      <trkpt lat="49.24978" lon="-0.1015">
        <ele>8.6</ele>
        <time>2024-03-20T13:15:01Z</time>
      </trkpt>
      <trkpt lat="49.24976" lon="-0.10158">
        <ele>8.6</ele>
        <time>2024-03-20T13:15:02Z</time>
      </trkpt>
      <trkpt lat="49.24972" lon="-0.10169">
        <ele>8.6</ele>
        <time>2024-03-20T13:15:03Z</time>
      </trkpt>
      <trkpt lat="49.24969" lon="-0.10179">
        <ele>8.6</ele>
        <time>2024-03-20T13:15:04Z</time>
      </trkpt>
      <trkpt lat="49.24965" lon="-0.10189">
        <ele>8.6</ele>
        <time>2024-03-20T13:15:05Z</time>
      </trkpt>
      <trkpt lat="49.24962" lon="-0.10196">
        <ele>8.6</ele>
        <time>2024-03-20T13:15:06Z</time>
      </trkpt>
      <trkpt lat="49.24959" lon="-0.10206">
        <ele>8.6</ele>
        <time>2024-03-20T13:15:07Z</time>
      </trkpt>
      <trkpt lat="49.24954" lon="-0.10218">
        <ele>8.6</ele>
        <time>2024-03-20T13:15:08Z</time>
      </trkpt>
      <trkpt lat="49.24949" lon="-0.10227">
        <ele>8.8</ele>
        <time>2024-03-20T13:15:09Z</time>
      </trkpt>
      <trkpt lat="49.24945" lon="-0.10237">
        <ele>8.8</ele>
        <time>2024-03-20T13:15:10Z</time>
      </trkpt>
      <trkpt lat="49.24941" lon="-0.10244">
        <ele>8.8</ele>
        <time>2024-03-20T13:15:11Z</time>
      </trkpt>
      <trkpt lat="49.24934" lon="-0.10255">
        <ele>8.8</ele>
        <time>2024-03-20T13:15:12Z</time>
      </trkpt>
      <trkpt lat="49.24928" lon="-0.10263">
        <ele>8.8</ele>
        <time>2024-03-20T13:15:13Z</time>
      </trkpt>
      <trkpt lat="49.24922" lon="-0.10269">
        <ele>8.8</ele>
        <time>2024-03-20T13:15:14Z</time>
      </trkpt>
      <trkpt lat="49.24917" lon="-0.10275">
        <ele>9</ele>
        <time>2024-03-20T13:15:15Z</time>
      </trkpt>
      <trkpt lat="49.24909" lon="-0.10281">
        <ele>9</ele>
        <time>2024-03-20T13:15:16Z</time>
      </trkpt>
      <trkpt lat="49.24902" lon="-0.10286">
        <ele>9</ele>
        <time>2024-03-20T13:15:17Z</time>
      </trkpt>
      <trkpt lat="49.24894" lon="-0.1029">
        <ele>9.2</ele>
        <time>2024-03-20T13:15:18Z</time>
      </trkpt>
      <trkpt lat="49.24888" lon="-0.10292">
        <ele>9.2</ele>
        <time>2024-03-20T13:15:19Z</time>
      </trkpt>
      <trkpt lat="49.2488" lon="-0.10294">
        <ele>9.4</ele>
        <time>2024-03-20T13:15:20Z</time>
      </trkpt>
      <trkpt lat="49.24872" lon="-0.10296">
        <ele>9.4</ele>
        <time>2024-03-20T13:15:21Z</time>
      </trkpt>
      <trkpt lat="49.24862" lon="-0.10296">
        <ele>9.4</ele>
        <time>2024-03-20T13:15:22Z</time>
      </trkpt>
      <trkpt lat="49.24856" lon="-0.10296">
        <ele>9.6</ele>
        <time>2024-03-20T13:15:23Z</time>
      </trkpt>
      <trkpt lat="49.24846" lon="-0.10294">
        <ele>9.6</ele>
        <time>2024-03-20T13:15:24Z</time>
      </trkpt>
      <trkpt lat="49.24839" lon="-0.10292">
        <ele>9.6</ele>
        <time>2024-03-20T13:15:25Z</time>
      </trkpt>
      <trkpt lat="49.24832" lon="-0.10289">
        <ele>9.6</ele>
        <time>2024-03-20T13:15:26Z</time>
      </trkpt>
      <trkpt lat="49.24822" lon="-0.10284">
        <ele>9.6</ele>
        <time>2024-03-20T13:15:27Z</time>
      </trkpt>
      <trkpt lat="49.24816" lon="-0.10281">
        <ele>9.6</ele>
        <time>2024-03-20T13:15:28Z</time>
      </trkpt>
      <trkpt lat="49.24808" lon="-0.10276">
        <ele>9.6</ele>
        <time>2024-03-20T13:15:29Z</time>
      </trkpt>
      <trkpt lat="49.248" lon="-0.1027">
        <ele>9.6</ele>
        <time>2024-03-20T13:15:30Z</time>
      </trkpt>
      <trkpt lat="49.24794" lon="-0.10265">
        <ele>9.6</ele>
        <time>2024-03-20T13:15:31Z</time>
      </trkpt>
      <trkpt lat="49.24786" lon="-0.1026">
        <ele>9.6</ele>
        <time>2024-03-20T13:15:32Z</time>
      </trkpt>
      <trkpt lat="49.24778" lon="-0.10253">
        <ele>9.6</ele>
        <time>2024-03-20T13:15:33Z</time>
      </trkpt>
      <trkpt lat="49.24771" lon="-0.10248">
        <ele>9.4</ele>
        <time>2024-03-20T13:15:34Z</time>
      </trkpt>
      <trkpt lat="49.24765" lon="-0.10243">
        <ele>9.2</ele>
        <time>2024-03-20T13:15:35Z</time>
      </trkpt>
      <trkpt lat="49.24757" lon="-0.10235">
        <ele>9</ele>
        <time>2024-03-20T13:15:36Z</time>
      </trkpt>
      <trkpt lat="49.2475" lon="-0.1023">
        <ele>9</ele>
        <time>2024-03-20T13:15:37Z</time>
      </trkpt>
      <trkpt lat="49.24744" lon="-0.10226">
        <ele>9</ele>
        <time>2024-03-20T13:15:38Z</time>
      </trkpt>
      <trkpt lat="49.24736" lon="-0.10219">
        <ele>9</ele>
        <time>2024-03-20T13:15:39Z</time>
      </trkpt>
      <trkpt lat="49.24729" lon="-0.10213">
        <ele>8.8</ele>
        <time>2024-03-20T13:15:40Z</time>
      </trkpt>
      <trkpt lat="49.24723" lon="-0.10208">
        <ele>8.6</ele>
        <time>2024-03-20T13:15:41Z</time>
      </trkpt>
      <trkpt lat="49.24716" lon="-0.10202">
        <ele>8.6</ele>
        <time>2024-03-20T13:15:42Z</time>
      </trkpt>
      <trkpt lat="49.24709" lon="-0.10197">
        <ele>8.4</ele>
        <time>2024-03-20T13:15:43Z</time>
      </trkpt>
      <trkpt lat="49.24702" lon="-0.10191">
        <ele>8.4</ele>
        <time>2024-03-20T13:15:44Z</time>
      </trkpt>
      <trkpt lat="49.24693" lon="-0.10185">
        <ele>8.2</ele>
        <time>2024-03-20T13:15:45Z</time>
      </trkpt>
      <trkpt lat="49.24686" lon="-0.10179">
        <ele>8</ele>
        <time>2024-03-20T13:15:46Z</time>
      </trkpt>
      <trkpt lat="49.2468" lon="-0.10175">
        <ele>8</ele>
        <time>2024-03-20T13:15:47Z</time>
      </trkpt>
      <trkpt lat="49.24672" lon="-0.10169">
        <ele>7.8</ele>
        <time>2024-03-20T13:15:48Z</time>
      </trkpt>
      <trkpt lat="49.24666" lon="-0.10165">
        <ele>7.6</ele>
        <time>2024-03-20T13:15:49Z</time>
      </trkpt>
      <trkpt lat="49.24659" lon="-0.1016">
        <ele>7.6</ele>
        <time>2024-03-20T13:15:50Z</time>
      </trkpt>
      <trkpt lat="49.24652" lon="-0.10154">
        <ele>7.6</ele>
        <time>2024-03-20T13:15:51Z</time>
      </trkpt>
      <trkpt lat="49.24644" lon="-0.10148">
        <ele>7.4</ele>
        <time>2024-03-20T13:15:52Z</time>
      </trkpt>
      <trkpt lat="49.24639" lon="-0.10144">
        <ele>7.4</ele>
        <time>2024-03-20T13:15:53Z</time>
      </trkpt>
      <trkpt lat="49.2463" lon="-0.10137">
        <ele>7.4</ele>
        <time>2024-03-20T13:15:54Z</time>
      </trkpt>
      <trkpt lat="49.24625" lon="-0.10133">
        <ele>7.4</ele>
        <time>2024-03-20T13:15:55Z</time>
      </trkpt>
      <trkpt lat="49.24618" lon="-0.10127">
        <ele>7.4</ele>
        <time>2024-03-20T13:15:56Z</time>
      </trkpt>
      <trkpt lat="49.2461" lon="-0.10121">
        <ele>7.4</ele>
        <time>2024-03-20T13:15:57Z</time>
      </trkpt>
      <trkpt lat="49.24604" lon="-0.10117">
        <ele>7.4</ele>
        <time>2024-03-20T13:15:58Z</time>
      </trkpt>
      <trkpt lat="49.24597" lon="-0.10111">
        <ele>7.4</ele>
        <time>2024-03-20T13:15:59Z</time>
      </trkpt>
      <trkpt lat="49.24589" lon="-0.10104">
        <ele>7.4</ele>
        <time>2024-03-20T13:16:00Z</time>
      </trkpt>
      <trkpt lat="49.24582" lon="-0.101">
        <ele>7.4</ele>
        <time>2024-03-20T13:16:01Z</time>
      </trkpt>
      <trkpt lat="49.24577" lon="-0.10096">
        <ele>7.4</ele>
        <time>2024-03-20T13:16:02Z</time>
      </trkpt>
      <trkpt lat="49.2457" lon="-0.10091">
        <ele>7.4</ele>
        <time>2024-03-20T13:16:03Z</time>
      </trkpt>
      <trkpt lat="49.24563" lon="-0.10085">
        <ele>7.4</ele>
        <time>2024-03-20T13:16:04Z</time>
      </trkpt>
      <trkpt lat="49.24558" lon="-0.10082">
        <ele>7.4</ele>
        <time>2024-03-20T13:16:05Z</time>
      </trkpt>
      <trkpt lat="49.2455" lon="-0.10076">
        <ele>7.4</ele>
        <time>2024-03-20T13:16:06Z</time>
      </trkpt>
      <trkpt lat="49.24546" lon="-0.10073">
        <ele>7.6</ele>
        <time>2024-03-20T13:16:07Z</time>
      </trkpt>
      <trkpt lat="49.2454" lon="-0.10067">
        <ele>7.6</ele>
        <time>2024-03-20T13:16:08Z</time>
      </trkpt>
      <trkpt lat="49.24533" lon="-0.10061">
        <ele>7.6</ele>
        <time>2024-03-20T13:16:09Z</time>
      </trkpt>
      <trkpt lat="49.24528" lon="-0.10058">
        <ele>8</ele>
        <time>2024-03-20T13:16:10Z</time>
      </trkpt>
      <trkpt lat="49.24523" lon="-0.10053">
        <ele>8.2</ele>
        <time>2024-03-20T13:16:11Z</time>
      </trkpt>
      <trkpt lat="49.24516" lon="-0.10047">
        <ele>8.4</ele>
        <time>2024-03-20T13:16:12Z</time>
      </trkpt>
      <trkpt lat="49.24511" lon="-0.10043">
        <ele>8.6</ele>
        <time>2024-03-20T13:16:13Z</time>
      </trkpt>
      <trkpt lat="49.24505" lon="-0.10039">
        <ele>9</ele>
        <time>2024-03-20T13:16:14Z</time>
      </trkpt>
      <trkpt lat="49.245" lon="-0.10035">
        <ele>9.2</ele>
        <time>2024-03-20T13:16:15Z</time>
      </trkpt>
      <trkpt lat="49.24493" lon="-0.10029">
        <ele>9.6</ele>
        <time>2024-03-20T13:16:16Z</time>
      </trkpt>
      <trkpt lat="49.24489" lon="-0.10026">
        <ele>10.2</ele>
        <time>2024-03-20T13:16:17Z</time>
      </trkpt>
      <trkpt lat="49.24482" lon="-0.1002">
        <ele>10.8</ele>
        <time>2024-03-20T13:16:18Z</time>
      </trkpt>
      <trkpt lat="49.24477" lon="-0.10016">
        <ele>11.2</ele>
        <time>2024-03-20T13:16:19Z</time>
      </trkpt>
      <trkpt lat="49.24473" lon="-0.10012">
        <ele>11.8</ele>
        <time>2024-03-20T13:16:20Z</time>
      </trkpt>
      <trkpt lat="49.24467" lon="-0.10008">
        <ele>12.2</ele>
        <time>2024-03-20T13:16:21Z</time>
      </trkpt>
      <trkpt lat="49.24461" lon="-0.10002">
        <ele>12.4</ele>
        <time>2024-03-20T13:16:22Z</time>
      </trkpt>
      <trkpt lat="49.24457" lon="-0.09998">
        <ele>12.8</ele>
        <time>2024-03-20T13:16:23Z</time>
      </trkpt>
      <trkpt lat="49.24451" lon="-0.09991">
        <ele>13</ele>
        <time>2024-03-20T13:16:24Z</time>
      </trkpt>
      <trkpt lat="49.24447" lon="-0.09986">
        <ele>13.4</ele>
        <time>2024-03-20T13:16:25Z</time>
      </trkpt>
      <trkpt lat="49.24443" lon="-0.09979">
        <ele>13.6</ele>
        <time>2024-03-20T13:16:26Z</time>
      </trkpt>
      <trkpt lat="49.24438" lon="-0.0997">
        <ele>13.8</ele>
        <time>2024-03-20T13:16:27Z</time>
      </trkpt>
      <trkpt lat="49.24434" lon="-0.09961">
        <ele>13.8</ele>
        <time>2024-03-20T13:16:28Z</time>
      </trkpt>
      <trkpt lat="49.24431" lon="-0.09955">
        <ele>14</ele>
        <time>2024-03-20T13:16:29Z</time>
      </trkpt>
      <trkpt lat="49.24427" lon="-0.09944">
        <ele>14.2</ele>
        <time>2024-03-20T13:16:30Z</time>
      </trkpt>
      <trkpt lat="49.24425" lon="-0.09937">
        <ele>14.6</ele>
        <time>2024-03-20T13:16:31Z</time>
      </trkpt>
      <trkpt lat="49.24422" lon="-0.09927">
        <ele>15.2</ele>
        <time>2024-03-20T13:16:32Z</time>
      </trkpt>
      <trkpt lat="49.2442" lon="-0.09916">
        <ele>15.6</ele>
        <time>2024-03-20T13:16:33Z</time>
      </trkpt>
      <trkpt lat="49.24417" lon="-0.09906">
        <ele>15.8</ele>
        <time>2024-03-20T13:16:34Z</time>
      </trkpt>
      <trkpt lat="49.24415" lon="-0.09895">
        <ele>16.2</ele>
        <time>2024-03-20T13:16:35Z</time>
      </trkpt>
      <trkpt lat="49.24412" lon="-0.09882">
        <ele>16.4</ele>
        <time>2024-03-20T13:16:36Z</time>
      </trkpt>
      <trkpt lat="49.2441" lon="-0.09871">
        <ele>16.4</ele>
        <time>2024-03-20T13:16:37Z</time>
      </trkpt>
      <trkpt lat="49.24407" lon="-0.09862">
        <ele>16.4</ele>
        <time>2024-03-20T13:16:38Z</time>
      </trkpt>
      <trkpt lat="49.24404" lon="-0.09849">
        <ele>16.6</ele>
        <time>2024-03-20T13:16:39Z</time>
      </trkpt>
      <trkpt lat="49.24401" lon="-0.09838">
        <ele>16.6</ele>
        <time>2024-03-20T13:16:40Z</time>
      </trkpt>
      <trkpt lat="49.24399" lon="-0.0983">
        <ele>16.6</ele>
        <time>2024-03-20T13:16:41Z</time>
      </trkpt>
      <trkpt lat="49.24395" lon="-0.09816">
        <ele>16.6</ele>
        <time>2024-03-20T13:16:42Z</time>
      </trkpt>
      <trkpt lat="49.24392" lon="-0.09805">
        <ele>16.6</ele>
        <time>2024-03-20T13:16:43Z</time>
      </trkpt>
      <trkpt lat="49.24389" lon="-0.09796">
        <ele>16.6</ele>
        <time>2024-03-20T13:16:44Z</time>
      </trkpt>
      <trkpt lat="49.24384" lon="-0.09783">
        <ele>16.6</ele>
        <time>2024-03-20T13:16:45Z</time>
      </trkpt>
      <trkpt lat="49.2438" lon="-0.09773">
        <ele>16.6</ele>
        <time>2024-03-20T13:16:46Z</time>
      </trkpt>
      <trkpt lat="49.24375" lon="-0.09765">
        <ele>16.6</ele>
        <time>2024-03-20T13:16:47Z</time>
      </trkpt>
      <trkpt lat="49.24369" lon="-0.09753">
        <ele>16.4</ele>
        <time>2024-03-20T13:16:48Z</time>
      </trkpt>
      <trkpt lat="49.24363" lon="-0.09744">
        <ele>16.4</ele>
        <time>2024-03-20T13:16:49Z</time>
      </trkpt>
      <trkpt lat="49.24356" lon="-0.09736">
        <ele>16.4</ele>
        <time>2024-03-20T13:16:50Z</time>
      </trkpt>
      <trkpt lat="49.24349" lon="-0.09727">
        <ele>16.4</ele>
        <time>2024-03-20T13:16:51Z</time>
      </trkpt>
      <trkpt lat="49.24343" lon="-0.09721">
        <ele>16</ele>
        <time>2024-03-20T13:16:52Z</time>
      </trkpt>
      <trkpt lat="49.24336" lon="-0.09713">
        <ele>15.6</ele>
        <time>2024-03-20T13:16:53Z</time>
      </trkpt>
      <trkpt lat="49.24328" lon="-0.09705">
        <ele>15.2</ele>
        <time>2024-03-20T13:16:54Z</time>
      </trkpt>
      <trkpt lat="49.2432" lon="-0.09696">
        <ele>15</ele>
        <time>2024-03-20T13:16:55Z</time>
      </trkpt>
      <trkpt lat="49.24314" lon="-0.09689">
        <ele>14.6</ele>
        <time>2024-03-20T13:16:56Z</time>
      </trkpt>
      <trkpt lat="49.24305" lon="-0.0968">
        <ele>14.4</ele>
        <time>2024-03-20T13:16:57Z</time>
      </trkpt>
      <trkpt lat="49.24297" lon="-0.09673">
        <ele>14</ele>
        <time>2024-03-20T13:16:58Z</time>
      </trkpt>
      <trkpt lat="49.24291" lon="-0.09667">
        <ele>13.6</ele>
        <time>2024-03-20T13:16:59Z</time>
      </trkpt>
      <trkpt lat="49.24284" lon="-0.0966">
        <ele>13.2</ele>
        <time>2024-03-20T13:17:00Z</time>
      </trkpt>
      <trkpt lat="49.24276" lon="-0.09651">
        <ele>12.8</ele>
        <time>2024-03-20T13:17:01Z</time>
      </trkpt>
      <trkpt lat="49.2427" lon="-0.09645">
        <ele>12.4</ele>
        <time>2024-03-20T13:17:02Z</time>
      </trkpt>
      <trkpt lat="49.24263" lon="-0.09638">
        <ele>12</ele>
        <time>2024-03-20T13:17:03Z</time>
      </trkpt>
      <trkpt lat="49.24255" lon="-0.09629">
        <ele>11.8</ele>
        <time>2024-03-20T13:17:04Z</time>
      </trkpt>
      <trkpt lat="49.2425" lon="-0.09623">
        <ele>11.8</ele>
        <time>2024-03-20T13:17:05Z</time>
      </trkpt>
      <trkpt lat="49.24242" lon="-0.09615">
        <ele>11.6</ele>
        <time>2024-03-20T13:17:06Z</time>
      </trkpt>
      <trkpt lat="49.24236" lon="-0.0961">
        <ele>11.6</ele>
        <time>2024-03-20T13:17:07Z</time>
      </trkpt>
      <trkpt lat="49.2423" lon="-0.09603">
        <ele>11.6</ele>
        <time>2024-03-20T13:17:08Z</time>
      </trkpt>
      <trkpt lat="49.24222" lon="-0.09594">
        <ele>11.6</ele>
        <time>2024-03-20T13:17:09Z</time>
      </trkpt>
      <trkpt lat="49.24216" lon="-0.09587">
        <ele>11.6</ele>
        <time>2024-03-20T13:17:10Z</time>
      </trkpt>
      <trkpt lat="49.24211" lon="-0.0958">
        <ele>11.6</ele>
        <time>2024-03-20T13:17:11Z</time>
      </trkpt>
      <trkpt lat="49.24204" lon="-0.09571">
        <ele>11.6</ele>
        <time>2024-03-20T13:17:12Z</time>
      </trkpt>
      <trkpt lat="49.24199" lon="-0.09564">
        <ele>11.6</ele>
        <time>2024-03-20T13:17:13Z</time>
      </trkpt>
      <trkpt lat="49.24194" lon="-0.09556">
        <ele>11.6</ele>
        <time>2024-03-20T13:17:14Z</time>
      </trkpt>
      <trkpt lat="49.24189" lon="-0.09547">
        <ele>11.6</ele>
        <time>2024-03-20T13:17:15Z</time>
      </trkpt>
      <trkpt lat="49.24184" lon="-0.09537">
        <ele>11.8</ele>
        <time>2024-03-20T13:17:16Z</time>
      </trkpt>
      <trkpt lat="49.24179" lon="-0.09528">
        <ele>11.8</ele>
        <time>2024-03-20T13:17:17Z</time>
      </trkpt>
      <trkpt lat="49.24175" lon="-0.09518">
        <ele>11.8</ele>
        <time>2024-03-20T13:17:18Z</time>
      </trkpt>
      <trkpt lat="49.24171" lon="-0.09505">
        <ele>11.8</ele>
        <time>2024-03-20T13:17:19Z</time>
      </trkpt>
      <trkpt lat="49.24168" lon="-0.09497">
        <ele>11.8</ele>
        <time>2024-03-20T13:17:20Z</time>
      </trkpt>
      <trkpt lat="49.24164" lon="-0.09483">
        <ele>11.8</ele>
        <time>2024-03-20T13:17:21Z</time>
      </trkpt>
      <trkpt lat="49.24161" lon="-0.09472">
        <ele>11.8</ele>
        <time>2024-03-20T13:17:22Z</time>
      </trkpt>
      <trkpt lat="49.24159" lon="-0.09462">
        <ele>12</ele>
        <time>2024-03-20T13:17:23Z</time>
      </trkpt>
      <trkpt lat="49.24157" lon="-0.0945">
        <ele>12</ele>
        <time>2024-03-20T13:17:24Z</time>
      </trkpt>
      <trkpt lat="49.24155" lon="-0.09437">
        <ele>12</ele>
        <time>2024-03-20T13:17:25Z</time>
      </trkpt>
      <trkpt lat="49.24153" lon="-0.09425">
        <ele>12</ele>
        <time>2024-03-20T13:17:26Z</time>
      </trkpt>
      <trkpt lat="49.24152" lon="-0.0941">
        <ele>12</ele>
        <time>2024-03-20T13:17:27Z</time>
      </trkpt>
      <trkpt lat="49.2415" lon="-0.09397">
        <ele>12</ele>
        <time>2024-03-20T13:17:28Z</time>
      </trkpt>
      <trkpt lat="49.24149" lon="-0.09387">
        <ele>12</ele>
        <time>2024-03-20T13:17:29Z</time>
      </trkpt>
      <trkpt lat="49.24147" lon="-0.09373">
        <ele>12</ele>
        <time>2024-03-20T13:17:30Z</time>
      </trkpt>
      <trkpt lat="49.24146" lon="-0.09363">
        <ele>12</ele>
        <time>2024-03-20T13:17:31Z</time>
      </trkpt>
      <trkpt lat="49.24144" lon="-0.09351">
        <ele>11.8</ele>
        <time>2024-03-20T13:17:32Z</time>
      </trkpt>
      <trkpt lat="49.24143" lon="-0.09339">
        <ele>11.8</ele>
        <time>2024-03-20T13:17:33Z</time>
      </trkpt>
      <trkpt lat="49.24142" lon="-0.09326">
        <ele>11.6</ele>
        <time>2024-03-20T13:17:34Z</time>
      </trkpt>
      <trkpt lat="49.24141" lon="-0.09314">
        <ele>11.4</ele>
        <time>2024-03-20T13:17:35Z</time>
      </trkpt>
      <trkpt lat="49.24139" lon="-0.09302">
        <ele>11.2</ele>
        <time>2024-03-20T13:17:36Z</time>
      </trkpt>
      <trkpt lat="49.24137" lon="-0.09289">
        <ele>11.2</ele>
        <time>2024-03-20T13:17:37Z</time>
      </trkpt>
      <trkpt lat="49.24136" lon="-0.09277">
        <ele>11</ele>
        <time>2024-03-20T13:17:38Z</time>
      </trkpt>
      <trkpt lat="49.24134" lon="-0.09262">
        <ele>11</ele>
        <time>2024-03-20T13:17:39Z</time>
      </trkpt>
      <trkpt lat="49.24133" lon="-0.0925">
        <ele>11</ele>
        <time>2024-03-20T13:17:40Z</time>
      </trkpt>
      <trkpt lat="49.24132" lon="-0.0924">
        <ele>10.8</ele>
        <time>2024-03-20T13:17:41Z</time>
      </trkpt>
      <trkpt lat="49.2413" lon="-0.09225">
        <ele>10.8</ele>
        <time>2024-03-20T13:17:42Z</time>
      </trkpt>
      <trkpt lat="49.24129" lon="-0.09215">
        <ele>10.8</ele>
        <time>2024-03-20T13:17:43Z</time>
      </trkpt>
      <trkpt lat="49.24126" lon="-0.09203">
        <ele>10.8</ele>
        <time>2024-03-20T13:17:44Z</time>
      </trkpt>
      <trkpt lat="49.24124" lon="-0.09189">
        <ele>10.8</ele>
        <time>2024-03-20T13:17:45Z</time>
      </trkpt>
      <trkpt lat="49.24121" lon="-0.09177">
        <ele>10.8</ele>
        <time>2024-03-20T13:17:46Z</time>
      </trkpt>
      <trkpt lat="49.24119" lon="-0.09165">
        <ele>10.8</ele>
        <time>2024-03-20T13:17:47Z</time>
      </trkpt>
      <trkpt lat="49.24116" lon="-0.09157">
        <ele>10.8</ele>
        <time>2024-03-20T13:17:48Z</time>
      </trkpt>
      <trkpt lat="49.24113" lon="-0.09143">
        <ele>10.8</ele>
        <time>2024-03-20T13:17:49Z</time>
      </trkpt>
      <trkpt lat="49.2411" lon="-0.09135">
        <ele>10.6</ele>
        <time>2024-03-20T13:17:50Z</time>
      </trkpt>
      <trkpt lat="49.24107" lon="-0.09124">
        <ele>10.6</ele>
        <time>2024-03-20T13:17:51Z</time>
      </trkpt>
      <trkpt lat="49.24103" lon="-0.09113">
        <ele>10.6</ele>
        <time>2024-03-20T13:17:52Z</time>
      </trkpt>
      <trkpt lat="49.241" lon="-0.091">
        <ele>10.6</ele>
        <time>2024-03-20T13:17:53Z</time>
      </trkpt>
      <trkpt lat="49.24097" lon="-0.09091">
        <ele>10.6</ele>
        <time>2024-03-20T13:17:54Z</time>
      </trkpt>
      <trkpt lat="49.24093" lon="-0.09079">
        <ele>10.6</ele>
        <time>2024-03-20T13:17:55Z</time>
      </trkpt>
      <trkpt lat="49.24088" lon="-0.09069">
        <ele>10.6</ele>
        <time>2024-03-20T13:17:56Z</time>
      </trkpt>
      <trkpt lat="49.24084" lon="-0.09061">
        <ele>10.6</ele>
        <time>2024-03-20T13:17:57Z</time>
      </trkpt>
      <trkpt lat="49.24079" lon="-0.09053">
        <ele>10.6</ele>
        <time>2024-03-20T13:17:58Z</time>
      </trkpt>
      <trkpt lat="49.24072" lon="-0.09046">
        <ele>10.6</ele>
        <time>2024-03-20T13:17:59Z</time>
      </trkpt>
      <trkpt lat="49.24065" lon="-0.0904">
        <ele>10.6</ele>
        <time>2024-03-20T13:18:00Z</time>
      </trkpt>
      <trkpt lat="49.24056" lon="-0.09034">
        <ele>10.6</ele>
        <time>2024-03-20T13:18:01Z</time>
      </trkpt>
      <trkpt lat="49.24048" lon="-0.09029">
        <ele>10.6</ele>
        <time>2024-03-20T13:18:02Z</time>
      </trkpt>
      <trkpt lat="49.24042" lon="-0.09025">
        <ele>10.6</ele>
        <time>2024-03-20T13:18:03Z</time>
      </trkpt>
      <trkpt lat="49.24032" lon="-0.09019">
        <ele>10.6</ele>
        <time>2024-03-20T13:18:04Z</time>
      </trkpt>
      <trkpt lat="49.24026" lon="-0.09014">
        <ele>10.6</ele>
        <time>2024-03-20T13:18:05Z</time>
      </trkpt>
      <trkpt lat="49.24018" lon="-0.09008">
        <ele>10.6</ele>
        <time>2024-03-20T13:18:06Z</time>
      </trkpt>
      <trkpt lat="49.2401" lon="-0.09">
        <ele>10.6</ele>
        <time>2024-03-20T13:18:07Z</time>
      </trkpt>
      <trkpt lat="49.24005" lon="-0.08994">
        <ele>10.6</ele>
        <time>2024-03-20T13:18:08Z</time>
      </trkpt>
      <trkpt lat="49.23999" lon="-0.08986">
        <ele>10.8</ele>
        <time>2024-03-20T13:18:09Z</time>
      </trkpt>
      <trkpt lat="49.23993" lon="-0.08976">
        <ele>11</ele>
        <time>2024-03-20T13:18:10Z</time>
      </trkpt>
      <trkpt lat="49.23988" lon="-0.08969">
        <ele>11</ele>
        <time>2024-03-20T13:18:11Z</time>
      </trkpt>
      <trkpt lat="49.23982" lon="-0.0896">
        <ele>11</ele>
        <time>2024-03-20T13:18:12Z</time>
      </trkpt>
      <trkpt lat="49.23977" lon="-0.08948">
        <ele>11</ele>
        <time>2024-03-20T13:18:13Z</time>
      </trkpt>
      <trkpt lat="49.23972" lon="-0.08938">
        <ele>11</ele>
        <time>2024-03-20T13:18:14Z</time>
      </trkpt>
      <trkpt lat="49.23969" lon="-0.0893">
        <ele>11</ele>
        <time>2024-03-20T13:18:15Z</time>
      </trkpt>
      <trkpt lat="49.23966" lon="-0.08918">
        <ele>11</ele>
        <time>2024-03-20T13:18:16Z</time>
      </trkpt>
      <trkpt lat="49.23964" lon="-0.08907">
        <ele>11</ele>
        <time>2024-03-20T13:18:17Z</time>
      </trkpt>
      <trkpt lat="49.23962" lon="-0.08892">
        <ele>11</ele>
        <time>2024-03-20T13:18:18Z</time>
      </trkpt>
      <trkpt lat="49.23961" lon="-0.08882">
        <ele>11</ele>
        <time>2024-03-20T13:18:19Z</time>
      </trkpt>
      <trkpt lat="49.2396" lon="-0.0887">
        <ele>10.8</ele>
        <time>2024-03-20T13:18:20Z</time>
      </trkpt>
      <trkpt lat="49.23959" lon="-0.08856">
        <ele>10.8</ele>
        <time>2024-03-20T13:18:21Z</time>
      </trkpt>
      <trkpt lat="49.23958" lon="-0.08846">
        <ele>10.8</ele>
        <time>2024-03-20T13:18:22Z</time>
      </trkpt>
      <trkpt lat="49.23956" lon="-0.08832">
        <ele>11</ele>
        <time>2024-03-20T13:18:23Z</time>
      </trkpt>
      <trkpt lat="49.23954" lon="-0.0882">
        <ele>11</ele>
        <time>2024-03-20T13:18:24Z</time>
      </trkpt>
      <trkpt lat="49.23953" lon="-0.08811">
        <ele>11</ele>
        <time>2024-03-20T13:18:25Z</time>
      </trkpt>
      <trkpt lat="49.2395" lon="-0.08797">
        <ele>11</ele>
        <time>2024-03-20T13:18:26Z</time>
      </trkpt>
      <trkpt lat="49.23948" lon="-0.08786">
        <ele>11</ele>
        <time>2024-03-20T13:18:27Z</time>
      </trkpt>
      <trkpt lat="49.23946" lon="-0.08776">
        <ele>11</ele>
        <time>2024-03-20T13:18:28Z</time>
      </trkpt>
      <trkpt lat="49.23943" lon="-0.08763">
        <ele>11</ele>
        <time>2024-03-20T13:18:29Z</time>
      </trkpt>
      <trkpt lat="49.2394" lon="-0.08751">
        <ele>11</ele>
        <time>2024-03-20T13:18:30Z</time>
      </trkpt>
      <trkpt lat="49.23938" lon="-0.08742">
        <ele>11.2</ele>
        <time>2024-03-20T13:18:31Z</time>
      </trkpt>
      <trkpt lat="49.23935" lon="-0.08729">
        <ele>11.2</ele>
        <time>2024-03-20T13:18:32Z</time>
      </trkpt>
      <trkpt lat="49.23933" lon="-0.08719">
        <ele>11.2</ele>
        <time>2024-03-20T13:18:33Z</time>
      </trkpt>
      <trkpt lat="49.23931" lon="-0.08708">
        <ele>11.2</ele>
        <time>2024-03-20T13:18:34Z</time>
      </trkpt>
      <trkpt lat="49.23928" lon="-0.08694">
        <ele>11.2</ele>
        <time>2024-03-20T13:18:35Z</time>
      </trkpt>
      <trkpt lat="49.23926" lon="-0.08682">
        <ele>11.4</ele>
        <time>2024-03-20T13:18:36Z</time>
      </trkpt>
      <trkpt lat="49.23925" lon="-0.08672">
        <ele>11.4</ele>
        <time>2024-03-20T13:18:37Z</time>
      </trkpt>
      <trkpt lat="49.23923" lon="-0.08658">
        <ele>11.4</ele>
        <time>2024-03-20T13:18:38Z</time>
      </trkpt>
      <trkpt lat="49.23922" lon="-0.08646">
        <ele>11.4</ele>
        <time>2024-03-20T13:18:39Z</time>
      </trkpt>
      <trkpt lat="49.23921" lon="-0.08637">
        <ele>11.4</ele>
        <time>2024-03-20T13:18:40Z</time>
      </trkpt>
      <trkpt lat="49.2392" lon="-0.08625">
        <ele>11.4</ele>
        <time>2024-03-20T13:18:41Z</time>
      </trkpt>
      <trkpt lat="49.23919" lon="-0.08613">
        <ele>11.4</ele>
        <time>2024-03-20T13:18:42Z</time>
      </trkpt>
      <trkpt lat="49.23918" lon="-0.08601">
        <ele>11.4</ele>
        <time>2024-03-20T13:18:43Z</time>
      </trkpt>
      <trkpt lat="49.23916" lon="-0.08587">
        <ele>11.4</ele>
        <time>2024-03-20T13:18:44Z</time>
      </trkpt>
      <trkpt lat="49.23914" lon="-0.08575">
        <ele>11.4</ele>
        <time>2024-03-20T13:18:45Z</time>
      </trkpt>
      <trkpt lat="49.23912" lon="-0.08566">
        <ele>11.4</ele>
        <time>2024-03-20T13:18:46Z</time>
      </trkpt>
      <trkpt lat="49.23909" lon="-0.08552">
        <ele>11.4</ele>
        <time>2024-03-20T13:18:47Z</time>
      </trkpt>
      <trkpt lat="49.23906" lon="-0.08541">
        <ele>11.4</ele>
        <time>2024-03-20T13:18:48Z</time>
      </trkpt>
      <trkpt lat="49.23903" lon="-0.08533">
        <ele>11.4</ele>
        <time>2024-03-20T13:18:49Z</time>
      </trkpt>
      <trkpt lat="49.23899" lon="-0.08519">
        <ele>11.4</ele>
        <time>2024-03-20T13:18:50Z</time>
      </trkpt>
      <trkpt lat="49.23896" lon="-0.08508">
        <ele>11.4</ele>
        <time>2024-03-20T13:18:51Z</time>
      </trkpt>
      <trkpt lat="49.23893" lon="-0.08499">
        <ele>11.6</ele>
        <time>2024-03-20T13:18:52Z</time>
      </trkpt>
      <trkpt lat="49.2389" lon="-0.08486">
        <ele>11.6</ele>
        <time>2024-03-20T13:18:53Z</time>
      </trkpt>
      <trkpt lat="49.23887" lon="-0.08478">
        <ele>11.6</ele>
        <time>2024-03-20T13:18:54Z</time>
      </trkpt>
      <trkpt lat="49.23885" lon="-0.08466">
        <ele>11.6</ele>
        <time>2024-03-20T13:18:55Z</time>
      </trkpt>
      <trkpt lat="49.23882" lon="-0.08452">
        <ele>11.6</ele>
        <time>2024-03-20T13:18:56Z</time>
      </trkpt>
      <trkpt lat="49.2388" lon="-0.0844">
        <ele>11.6</ele>
        <time>2024-03-20T13:18:57Z</time>
      </trkpt>
      <trkpt lat="49.23879" lon="-0.08431">
        <ele>11.6</ele>
        <time>2024-03-20T13:18:58Z</time>
      </trkpt>
      <trkpt lat="49.23878" lon="-0.08416">
        <ele>11.6</ele>
        <time>2024-03-20T13:18:59Z</time>
      </trkpt>
      <trkpt lat="49.23877" lon="-0.08407">
        <ele>11.6</ele>
        <time>2024-03-20T13:19:00Z</time>
      </trkpt>
      <trkpt lat="49.23877" lon="-0.08396">
        <ele>11.8</ele>
        <time>2024-03-20T13:19:01Z</time>
      </trkpt>
      <trkpt lat="49.23878" lon="-0.08384">
        <ele>11.8</ele>
        <time>2024-03-20T13:19:02Z</time>
      </trkpt>
      <trkpt lat="49.23878" lon="-0.08372">
        <ele>11.8</ele>
        <time>2024-03-20T13:19:03Z</time>
      </trkpt>
      <trkpt lat="49.23879" lon="-0.0836">
        <ele>11.8</ele>
        <time>2024-03-20T13:19:04Z</time>
      </trkpt>
      <trkpt lat="49.23879" lon="-0.08346">
        <ele>11.8</ele>
        <time>2024-03-20T13:19:05Z</time>
      </trkpt>
      <trkpt lat="49.2388" lon="-0.08334">
        <ele>12</ele>
        <time>2024-03-20T13:19:06Z</time>
      </trkpt>
      <trkpt lat="49.2388" lon="-0.08322">
        <ele>12</ele>
        <time>2024-03-20T13:19:07Z</time>
      </trkpt>
      <trkpt lat="49.2388" lon="-0.08313">
        <ele>12</ele>
        <time>2024-03-20T13:19:08Z</time>
      </trkpt>
      <trkpt lat="49.23879" lon="-0.08301">
        <ele>12</ele>
        <time>2024-03-20T13:19:09Z</time>
      </trkpt>
      <trkpt lat="49.23877" lon="-0.08287">
        <ele>12</ele>
        <time>2024-03-20T13:19:10Z</time>
      </trkpt>
      <trkpt lat="49.23876" lon="-0.08277">
        <ele>12</ele>
        <time>2024-03-20T13:19:11Z</time>
      </trkpt>
      <trkpt lat="49.23872" lon="-0.08264">
        <ele>12</ele>
        <time>2024-03-20T13:19:12Z</time>
      </trkpt>
      <trkpt lat="49.23869" lon="-0.08256">
        <ele>12</ele>
        <time>2024-03-20T13:19:13Z</time>
      </trkpt>
      <trkpt lat="49.23863" lon="-0.08246">
        <ele>12.2</ele>
        <time>2024-03-20T13:19:14Z</time>
      </trkpt>
      <trkpt lat="49.23856" lon="-0.08236">
        <ele>12.4</ele>
        <time>2024-03-20T13:19:15Z</time>
      </trkpt>
      <trkpt lat="49.23852" lon="-0.08229">
        <ele>12.4</ele>
        <time>2024-03-20T13:19:16Z</time>
      </trkpt>
      <trkpt lat="49.23846" lon="-0.08221">
        <ele>12.6</ele>
        <time>2024-03-20T13:19:17Z</time>
      </trkpt>
      <trkpt lat="49.23838" lon="-0.0821">
        <ele>12.8</ele>
        <time>2024-03-20T13:19:18Z</time>
      </trkpt>
      <trkpt lat="49.23832" lon="-0.08202">
        <ele>12.8</ele>
        <time>2024-03-20T13:19:19Z</time>
      </trkpt>
      <trkpt lat="49.23827" lon="-0.08194">
        <ele>12.8</ele>
        <time>2024-03-20T13:19:20Z</time>
      </trkpt>
      <trkpt lat="49.23819" lon="-0.08184">
        <ele>12.8</ele>
        <time>2024-03-20T13:19:21Z</time>
      </trkpt>
      <trkpt lat="49.23813" lon="-0.08177">
        <ele>12.8</ele>
        <time>2024-03-20T13:19:22Z</time>
      </trkpt>
      <trkpt lat="49.23805" lon="-0.08167">
        <ele>12.8</ele>
        <time>2024-03-20T13:19:23Z</time>
      </trkpt>
      <trkpt lat="49.23799" lon="-0.08161">
        <ele>12.8</ele>
        <time>2024-03-20T13:19:24Z</time>
      </trkpt>
      <trkpt lat="49.23792" lon="-0.08152">
        <ele>12.8</ele>
        <time>2024-03-20T13:19:25Z</time>
      </trkpt>
      <trkpt lat="49.23784" lon="-0.08143">
        <ele>12.8</ele>
        <time>2024-03-20T13:19:26Z</time>
      </trkpt>
      <trkpt lat="49.23777" lon="-0.08135">
        <ele>12.8</ele>
        <time>2024-03-20T13:19:27Z</time>
      </trkpt>
      <trkpt lat="49.23769" lon="-0.08127">
        <ele>12.6</ele>
        <time>2024-03-20T13:19:28Z</time>
      </trkpt>
      <trkpt lat="49.23762" lon="-0.0812">
        <ele>12.6</ele>
        <time>2024-03-20T13:19:29Z</time>
      </trkpt>
      <trkpt lat="49.23755" lon="-0.08112">
        <ele>12.6</ele>
        <time>2024-03-20T13:19:30Z</time>
      </trkpt>
      <trkpt lat="49.23748" lon="-0.08105">
        <ele>12.6</ele>
        <time>2024-03-20T13:19:31Z</time>
      </trkpt>
      <trkpt lat="49.23741" lon="-0.08097">
        <ele>12.4</ele>
        <time>2024-03-20T13:19:32Z</time>
      </trkpt>
      <trkpt lat="49.23735" lon="-0.0809">
        <ele>12</ele>
        <time>2024-03-20T13:19:33Z</time>
      </trkpt>
      <trkpt lat="49.23728" lon="-0.08082">
        <ele>12</ele>
        <time>2024-03-20T13:19:34Z</time>
      </trkpt>
      <trkpt lat="49.23722" lon="-0.08073">
        <ele>12</ele>
        <time>2024-03-20T13:19:35Z</time>
      </trkpt>
      <trkpt lat="49.23717" lon="-0.08063">
        <ele>11.6</ele>
        <time>2024-03-20T13:19:36Z</time>
      </trkpt>
      <trkpt lat="49.23713" lon="-0.08051">
        <ele>11.6</ele>
        <time>2024-03-20T13:19:37Z</time>
      </trkpt>
      <trkpt lat="49.23711" lon="-0.08039">
        <ele>11.4</ele>
        <time>2024-03-20T13:19:38Z</time>
      </trkpt>
      <trkpt lat="49.23711" lon="-0.08027">
        <ele>11.2</ele>
        <time>2024-03-20T13:19:39Z</time>
      </trkpt>
      <trkpt lat="49.23711" lon="-0.08014">
        <ele>11.2</ele>
        <time>2024-03-20T13:19:40Z</time>
      </trkpt>
      <trkpt lat="49.23712" lon="-0.08002">
        <ele>11</ele>
        <time>2024-03-20T13:19:41Z</time>
      </trkpt>
      <trkpt lat="49.23714" lon="-0.0799">
        <ele>11</ele>
        <time>2024-03-20T13:19:42Z</time>
      </trkpt>
      <trkpt lat="49.23716" lon="-0.07978">
        <ele>11</ele>
        <time>2024-03-20T13:19:43Z</time>
      </trkpt>
      <trkpt lat="49.23717" lon="-0.07965">
        <ele>11</ele>
        <time>2024-03-20T13:19:44Z</time>
      </trkpt>
      <trkpt lat="49.23719" lon="-0.07953">
        <ele>10.8</ele>
        <time>2024-03-20T13:19:45Z</time>
      </trkpt>
      <trkpt lat="49.23721" lon="-0.07941">
        <ele>10.8</ele>
        <time>2024-03-20T13:19:46Z</time>
      </trkpt>
      <trkpt lat="49.23723" lon="-0.07929">
        <ele>10.8</ele>
        <time>2024-03-20T13:19:47Z</time>
      </trkpt>
      <trkpt lat="49.23724" lon="-0.07918">
        <ele>10.8</ele>
        <time>2024-03-20T13:19:48Z</time>
      </trkpt>
      <trkpt lat="49.23726" lon="-0.07906">
        <ele>10.8</ele>
        <time>2024-03-20T13:19:49Z</time>
      </trkpt>
      <trkpt lat="49.23728" lon="-0.07894">
        <ele>10.6</ele>
        <time>2024-03-20T13:19:50Z</time>
      </trkpt>
      <trkpt lat="49.2373" lon="-0.07882">
        <ele>10.6</ele>
        <time>2024-03-20T13:19:51Z</time>
      </trkpt>
      <trkpt lat="49.23731" lon="-0.0787">
        <ele>10.6</ele>
        <time>2024-03-20T13:19:52Z</time>
      </trkpt>
      <trkpt lat="49.23733" lon="-0.07859">
        <ele>10.6</ele>
        <time>2024-03-20T13:19:53Z</time>
      </trkpt>
      <trkpt lat="49.23734" lon="-0.07848">
        <ele>10.6</ele>
        <time>2024-03-20T13:19:54Z</time>
      </trkpt>
      <trkpt lat="49.23735" lon="-0.07836">
        <ele>10.6</ele>
        <time>2024-03-20T13:19:55Z</time>
      </trkpt>
      <trkpt lat="49.23735" lon="-0.07824">
        <ele>10.6</ele>
        <time>2024-03-20T13:19:56Z</time>
      </trkpt>
      <trkpt lat="49.23734" lon="-0.07812">
        <ele>10.6</ele>
        <time>2024-03-20T13:19:57Z</time>
      </trkpt>
      <trkpt lat="49.23731" lon="-0.07801">
        <ele>10.6</ele>
        <time>2024-03-20T13:19:58Z</time>
      </trkpt>
      <trkpt lat="49.23728" lon="-0.07789">
        <ele>10.6</ele>
        <time>2024-03-20T13:19:59Z</time>
      </trkpt>
      <trkpt lat="49.23725" lon="-0.07778">
        <ele>10.8</ele>
        <time>2024-03-20T13:20:00Z</time>
      </trkpt>
      <trkpt lat="49.23722" lon="-0.07767">
        <ele>10.8</ele>
        <time>2024-03-20T13:20:01Z</time>
      </trkpt>
      <trkpt lat="49.23718" lon="-0.07756">
        <ele>10.8</ele>
        <time>2024-03-20T13:20:02Z</time>
      </trkpt>
      <trkpt lat="49.23715" lon="-0.07745">
        <ele>10.8</ele>
        <time>2024-03-20T13:20:03Z</time>
      </trkpt>
      <trkpt lat="49.23713" lon="-0.07734">
        <ele>10.8</ele>
        <time>2024-03-20T13:20:04Z</time>
      </trkpt>
      <trkpt lat="49.23711" lon="-0.07722">
        <ele>11</ele>
        <time>2024-03-20T13:20:05Z</time>
      </trkpt>
      <trkpt lat="49.2371" lon="-0.0771">
        <ele>11</ele>
        <time>2024-03-20T13:20:06Z</time>
      </trkpt>
      <trkpt lat="49.23709" lon="-0.077">
        <ele>11</ele>
        <time>2024-03-20T13:20:07Z</time>
      </trkpt>
      <trkpt lat="49.2371" lon="-0.07687">
        <ele>11</ele>
        <time>2024-03-20T13:20:08Z</time>
      </trkpt>
      <trkpt lat="49.2371" lon="-0.07673">
        <ele>11</ele>
        <time>2024-03-20T13:20:09Z</time>
      </trkpt>
      <trkpt lat="49.23711" lon="-0.0766">
        <ele>11.2</ele>
        <time>2024-03-20T13:20:10Z</time>
      </trkpt>
      <trkpt lat="49.23712" lon="-0.07649">
        <ele>11.2</ele>
        <time>2024-03-20T13:20:11Z</time>
      </trkpt>
      <trkpt lat="49.23713" lon="-0.07637">
        <ele>11.4</ele>
        <time>2024-03-20T13:20:12Z</time>
      </trkpt>
      <trkpt lat="49.23714" lon="-0.07624">
        <ele>11.4</ele>
        <time>2024-03-20T13:20:13Z</time>
      </trkpt>
      <trkpt lat="49.23714" lon="-0.07615">
        <ele>11.6</ele>
        <time>2024-03-20T13:20:14Z</time>
      </trkpt>
      <trkpt lat="49.23715" lon="-0.076">
        <ele>11.6</ele>
        <time>2024-03-20T13:20:15Z</time>
      </trkpt>
      <trkpt lat="49.23714" lon="-0.07588">
        <ele>11.6</ele>
        <time>2024-03-20T13:20:16Z</time>
      </trkpt>
      <trkpt lat="49.23714" lon="-0.07576">
        <ele>11.6</ele>
        <time>2024-03-20T13:20:17Z</time>
      </trkpt>
      <trkpt lat="49.23713" lon="-0.07563">
        <ele>11.8</ele>
        <time>2024-03-20T13:20:18Z</time>
      </trkpt>
      <trkpt lat="49.23713" lon="-0.07551">
        <ele>11.8</ele>
        <time>2024-03-20T13:20:19Z</time>
      </trkpt>
      <trkpt lat="49.23713" lon="-0.07539">
        <ele>11.8</ele>
        <time>2024-03-20T13:20:20Z</time>
      </trkpt>
      <trkpt lat="49.23713" lon="-0.07527">
        <ele>11.8</ele>
        <time>2024-03-20T13:20:21Z</time>
      </trkpt>
      <trkpt lat="49.23714" lon="-0.07515">
        <ele>11.8</ele>
        <time>2024-03-20T13:20:22Z</time>
      </trkpt>
      <trkpt lat="49.23716" lon="-0.07503">
        <ele>12</ele>
        <time>2024-03-20T13:20:23Z</time>
      </trkpt>
      <trkpt lat="49.23717" lon="-0.0749">
        <ele>12</ele>
        <time>2024-03-20T13:20:24Z</time>
      </trkpt>
      <trkpt lat="49.23718" lon="-0.0748">
        <ele>12</ele>
        <time>2024-03-20T13:20:25Z</time>
      </trkpt>
      <trkpt lat="49.23719" lon="-0.07466">
        <ele>12.2</ele>
        <time>2024-03-20T13:20:26Z</time>
      </trkpt>
      <trkpt lat="49.2372" lon="-0.07453">
        <ele>12.2</ele>
        <time>2024-03-20T13:20:27Z</time>
      </trkpt>
      <trkpt lat="49.23721" lon="-0.07441">
        <ele>12.2</ele>
        <time>2024-03-20T13:20:28Z</time>
      </trkpt>
      <trkpt lat="49.23721" lon="-0.07431">
        <ele>12.2</ele>
        <time>2024-03-20T13:20:29Z</time>
      </trkpt>
      <trkpt lat="49.2372" lon="-0.07416">
        <ele>12.2</ele>
        <time>2024-03-20T13:20:30Z</time>
      </trkpt>
      <trkpt lat="49.23719" lon="-0.07403">
        <ele>12.2</ele>
        <time>2024-03-20T13:20:31Z</time>
      </trkpt>
      <trkpt lat="49.23718" lon="-0.07391">
        <ele>12.2</ele>
        <time>2024-03-20T13:20:32Z</time>
      </trkpt>
      <trkpt lat="49.23718" lon="-0.07381">
        <ele>12.4</ele>
        <time>2024-03-20T13:20:33Z</time>
      </trkpt>
      <trkpt lat="49.23716" lon="-0.07366">
        <ele>12.4</ele>
        <time>2024-03-20T13:20:34Z</time>
      </trkpt>
      <trkpt lat="49.23715" lon="-0.07354">
        <ele>12.4</ele>
        <time>2024-03-20T13:20:35Z</time>
      </trkpt>
      <trkpt lat="49.23713" lon="-0.07342">
        <ele>12.6</ele>
        <time>2024-03-20T13:20:36Z</time>
      </trkpt>
      <trkpt lat="49.2371" lon="-0.07331">
        <ele>12.6</ele>
        <time>2024-03-20T13:20:37Z</time>
      </trkpt>
      <trkpt lat="49.23708" lon="-0.07319">
        <ele>12.8</ele>
        <time>2024-03-20T13:20:38Z</time>
      </trkpt>
      <trkpt lat="49.23705" lon="-0.07307">
        <ele>12.8</ele>
        <time>2024-03-20T13:20:39Z</time>
      </trkpt>
      <trkpt lat="49.23703" lon="-0.07295">
        <ele>12.8</ele>
        <time>2024-03-20T13:20:40Z</time>
      </trkpt>
      <trkpt lat="49.23702" lon="-0.07283">
        <ele>12.8</ele>
        <time>2024-03-20T13:20:41Z</time>
      </trkpt>
      <trkpt lat="49.237" lon="-0.07271">
        <ele>12.8</ele>
        <time>2024-03-20T13:20:42Z</time>
      </trkpt>
      <trkpt lat="49.23699" lon="-0.07259">
        <ele>12.8</ele>
        <time>2024-03-20T13:20:43Z</time>
      </trkpt>
      <trkpt lat="49.23698" lon="-0.07249">
        <ele>12.8</ele>
        <time>2024-03-20T13:20:44Z</time>
      </trkpt>
      <trkpt lat="49.23696" lon="-0.07234">
        <ele>12.6</ele>
        <time>2024-03-20T13:20:45Z</time>
      </trkpt>
      <trkpt lat="49.23695" lon="-0.07222">
        <ele>12.6</ele>
        <time>2024-03-20T13:20:46Z</time>
      </trkpt>
      <trkpt lat="49.23693" lon="-0.07209">
        <ele>12.6</ele>
        <time>2024-03-20T13:20:47Z</time>
      </trkpt>
      <trkpt lat="49.23691" lon="-0.07197">
        <ele>12.6</ele>
        <time>2024-03-20T13:20:48Z</time>
      </trkpt>
      <trkpt lat="49.23689" lon="-0.07185">
        <ele>12.6</ele>
        <time>2024-03-20T13:20:49Z</time>
      </trkpt>
      <trkpt lat="49.23687" lon="-0.07176">
        <ele>12.6</ele>
        <time>2024-03-20T13:20:50Z</time>
      </trkpt>
      <trkpt lat="49.23684" lon="-0.07164">
        <ele>12.6</ele>
        <time>2024-03-20T13:20:51Z</time>
      </trkpt>
      <trkpt lat="49.23679" lon="-0.07151">
        <ele>12.4</ele>
        <time>2024-03-20T13:20:52Z</time>
      </trkpt>
      <trkpt lat="49.23676" lon="-0.07143">
        <ele>12.4</ele>
        <time>2024-03-20T13:20:53Z</time>
      </trkpt>
      <trkpt lat="49.2367" lon="-0.07132">
        <ele>12.4</ele>
        <time>2024-03-20T13:20:54Z</time>
      </trkpt>
      <trkpt lat="49.23664" lon="-0.07123">
        <ele>12.4</ele>
        <time>2024-03-20T13:20:55Z</time>
      </trkpt>
      <trkpt lat="49.23659" lon="-0.07115">
        <ele>12.4</ele>
        <time>2024-03-20T13:20:56Z</time>
      </trkpt>
      <trkpt lat="49.23653" lon="-0.07107">
        <ele>12.4</ele>
        <time>2024-03-20T13:20:57Z</time>
      </trkpt>
      <trkpt lat="49.23647" lon="-0.07099">
        <ele>12.4</ele>
        <time>2024-03-20T13:20:58Z</time>
      </trkpt>
      <trkpt lat="49.2364" lon="-0.07092">
        <ele>12.4</ele>
        <time>2024-03-20T13:20:59Z</time>
      </trkpt>
      <trkpt lat="49.23634" lon="-0.07084">
        <ele>12.4</ele>
        <time>2024-03-20T13:21:00Z</time>
      </trkpt>
      <trkpt lat="49.23629" lon="-0.07079">
        <ele>12.4</ele>
        <time>2024-03-20T13:21:01Z</time>
      </trkpt>
      <trkpt lat="49.2362" lon="-0.07072">
        <ele>12.4</ele>
        <time>2024-03-20T13:21:02Z</time>
      </trkpt>
      <trkpt lat="49.23613" lon="-0.07067">
        <ele>12.4</ele>
        <time>2024-03-20T13:21:03Z</time>
      </trkpt>
      <trkpt lat="49.23606" lon="-0.07062">
        <ele>12.2</ele>
        <time>2024-03-20T13:21:04Z</time>
      </trkpt>
      <trkpt lat="49.23599" lon="-0.07058">
        <ele>12.2</ele>
        <time>2024-03-20T13:21:05Z</time>
      </trkpt>
      <trkpt lat="49.23592" lon="-0.07053">
        <ele>12.2</ele>
        <time>2024-03-20T13:21:06Z</time>
      </trkpt>
      <trkpt lat="49.23585" lon="-0.07049">
        <ele>12.2</ele>
        <time>2024-03-20T13:21:07Z</time>
      </trkpt>
      <trkpt lat="49.23577" lon="-0.07044">
        <ele>12.2</ele>
        <time>2024-03-20T13:21:08Z</time>
      </trkpt>
      <trkpt lat="49.2357" lon="-0.0704">
        <ele>12.2</ele>
        <time>2024-03-20T13:21:09Z</time>
      </trkpt>
      <trkpt lat="49.23563" lon="-0.07035">
        <ele>12.2</ele>
        <time>2024-03-20T13:21:10Z</time>
      </trkpt>
      <trkpt lat="49.23556" lon="-0.07031">
        <ele>12.2</ele>
        <time>2024-03-20T13:21:11Z</time>
      </trkpt>
      <trkpt lat="49.23549" lon="-0.07026">
        <ele>12.2</ele>
        <time>2024-03-20T13:21:12Z</time>
      </trkpt>
      <trkpt lat="49.23542" lon="-0.07022">
        <ele>12.2</ele>
        <time>2024-03-20T13:21:13Z</time>
      </trkpt>
      <trkpt lat="49.23535" lon="-0.07018">
        <ele>12.2</ele>
        <time>2024-03-20T13:21:14Z</time>
      </trkpt>
      <trkpt lat="49.23527" lon="-0.07013">
        <ele>12.2</ele>
        <time>2024-03-20T13:21:15Z</time>
      </trkpt>
      <trkpt lat="49.23519" lon="-0.07009">
        <ele>12.2</ele>
        <time>2024-03-20T13:21:16Z</time>
      </trkpt>
      <trkpt lat="49.23513" lon="-0.07005">
        <ele>12.2</ele>
        <time>2024-03-20T13:21:17Z</time>
      </trkpt>
      <trkpt lat="49.23504" lon="-0.07">
        <ele>12.2</ele>
        <time>2024-03-20T13:21:18Z</time>
      </trkpt>
      <trkpt lat="49.23497" lon="-0.06995">
        <ele>12</ele>
        <time>2024-03-20T13:21:19Z</time>
      </trkpt>
      <trkpt lat="49.2349" lon="-0.06991">
        <ele>12</ele>
        <time>2024-03-20T13:21:20Z</time>
      </trkpt>
      <trkpt lat="49.23483" lon="-0.06986">
        <ele>12</ele>
        <time>2024-03-20T13:21:21Z</time>
      </trkpt>
      <trkpt lat="49.23476" lon="-0.06981">
        <ele>12</ele>
        <time>2024-03-20T13:21:22Z</time>
      </trkpt>
      <trkpt lat="49.23468" lon="-0.06976">
        <ele>12.2</ele>
        <time>2024-03-20T13:21:23Z</time>
      </trkpt>
      <trkpt lat="49.23461" lon="-0.06972">
        <ele>12.2</ele>
        <time>2024-03-20T13:21:24Z</time>
      </trkpt>
      <trkpt lat="49.23454" lon="-0.06967">
        <ele>12.2</ele>
        <time>2024-03-20T13:21:25Z</time>
      </trkpt>
      <trkpt lat="49.23447" lon="-0.06963">
        <ele>12.2</ele>
        <time>2024-03-20T13:21:26Z</time>
      </trkpt>
      <trkpt lat="49.23439" lon="-0.06958">
        <ele>12.2</ele>
        <time>2024-03-20T13:21:27Z</time>
      </trkpt>
      <trkpt lat="49.23432" lon="-0.06954">
        <ele>12.2</ele>
        <time>2024-03-20T13:21:28Z</time>
      </trkpt>
      <trkpt lat="49.23425" lon="-0.0695">
        <ele>12.2</ele>
        <time>2024-03-20T13:21:29Z</time>
      </trkpt>
      <trkpt lat="49.23418" lon="-0.06947">
        <ele>12.2</ele>
        <time>2024-03-20T13:21:30Z</time>
      </trkpt>
      <trkpt lat="49.23411" lon="-0.06943">
        <ele>12.2</ele>
        <time>2024-03-20T13:21:31Z</time>
      </trkpt>
      <trkpt lat="49.23404" lon="-0.0694">
        <ele>12.4</ele>
        <time>2024-03-20T13:21:32Z</time>
      </trkpt>
      <trkpt lat="49.23398" lon="-0.06937">
        <ele>12.4</ele>
        <time>2024-03-20T13:21:33Z</time>
      </trkpt>
      <trkpt lat="49.23391" lon="-0.06933">
        <ele>12.4</ele>
        <time>2024-03-20T13:21:34Z</time>
      </trkpt>
      <trkpt lat="49.23383" lon="-0.06929">
        <ele>12.4</ele>
        <time>2024-03-20T13:21:35Z</time>
      </trkpt>
      <trkpt lat="49.23375" lon="-0.06925">
        <ele>12.6</ele>
        <time>2024-03-20T13:21:36Z</time>
      </trkpt>
      <trkpt lat="49.23368" lon="-0.06922">
        <ele>12.6</ele>
        <time>2024-03-20T13:21:37Z</time>
      </trkpt>
      <trkpt lat="49.23361" lon="-0.06918">
        <ele>12.6</ele>
        <time>2024-03-20T13:21:38Z</time>
      </trkpt>
      <trkpt lat="49.23354" lon="-0.06913">
        <ele>12.8</ele>
        <time>2024-03-20T13:21:39Z</time>
      </trkpt>
      <trkpt lat="49.23347" lon="-0.06909">
        <ele>13</ele>
        <time>2024-03-20T13:21:40Z</time>
      </trkpt>
      <trkpt lat="49.23339" lon="-0.06905">
        <ele>13.2</ele>
        <time>2024-03-20T13:21:41Z</time>
      </trkpt>
      <trkpt lat="49.23332" lon="-0.06901">
        <ele>13.2</ele>
        <time>2024-03-20T13:21:42Z</time>
      </trkpt>
      <trkpt lat="49.23325" lon="-0.06898">
        <ele>13.4</ele>
        <time>2024-03-20T13:21:43Z</time>
      </trkpt>
      <trkpt lat="49.23318" lon="-0.06894">
        <ele>13.6</ele>
        <time>2024-03-20T13:21:44Z</time>
      </trkpt>
      <trkpt lat="49.23311" lon="-0.0689">
        <ele>13.6</ele>
        <time>2024-03-20T13:21:45Z</time>
      </trkpt>
      <trkpt lat="49.23304" lon="-0.06886">
        <ele>13.8</ele>
        <time>2024-03-20T13:21:46Z</time>
      </trkpt>
      <trkpt lat="49.23297" lon="-0.06883">
        <ele>14</ele>
        <time>2024-03-20T13:21:47Z</time>
      </trkpt>
      <trkpt lat="49.2329" lon="-0.06879">
        <ele>14</ele>
        <time>2024-03-20T13:21:48Z</time>
      </trkpt>
      <trkpt lat="49.23283" lon="-0.06876">
        <ele>14</ele>
        <time>2024-03-20T13:21:49Z</time>
      </trkpt>
      <trkpt lat="49.23275" lon="-0.06872">
        <ele>14.2</ele>
        <time>2024-03-20T13:21:50Z</time>
      </trkpt>
      <trkpt lat="49.23268" lon="-0.06868">
        <ele>14.4</ele>
        <time>2024-03-20T13:21:51Z</time>
      </trkpt>
      <trkpt lat="49.2326" lon="-0.06864">
        <ele>14.4</ele>
        <time>2024-03-20T13:21:52Z</time>
      </trkpt>
      <trkpt lat="49.23254" lon="-0.06861">
        <ele>14.6</ele>
        <time>2024-03-20T13:21:53Z</time>
      </trkpt>
      <trkpt lat="49.23245" lon="-0.06856">
        <ele>14.8</ele>
        <time>2024-03-20T13:21:54Z</time>
      </trkpt>
      <trkpt lat="49.23239" lon="-0.06853">
        <ele>15</ele>
        <time>2024-03-20T13:21:55Z</time>
      </trkpt>
      <trkpt lat="49.2323" lon="-0.06849">
        <ele>15.2</ele>
        <time>2024-03-20T13:21:56Z</time>
      </trkpt>
      <trkpt lat="49.23222" lon="-0.06845">
        <ele>15.4</ele>
        <time>2024-03-20T13:21:57Z</time>
      </trkpt>
      <trkpt lat="49.23214" lon="-0.06841">
        <ele>15.4</ele>
        <time>2024-03-20T13:21:58Z</time>
      </trkpt>
      <trkpt lat="49.23206" lon="-0.06838">
        <ele>15.6</ele>
        <time>2024-03-20T13:21:59Z</time>
      </trkpt>
      <trkpt lat="49.23198" lon="-0.06834">
        <ele>15.6</ele>
        <time>2024-03-20T13:22:00Z</time>
      </trkpt>
      <trkpt lat="49.23192" lon="-0.06831">
        <ele>15.6</ele>
        <time>2024-03-20T13:22:01Z</time>
      </trkpt>
      <trkpt lat="49.23182" lon="-0.06827">
        <ele>15.8</ele>
        <time>2024-03-20T13:22:02Z</time>
      </trkpt>
      <trkpt lat="49.23175" lon="-0.06823">
        <ele>15.8</ele>
        <time>2024-03-20T13:22:03Z</time>
      </trkpt>
      <trkpt lat="49.23167" lon="-0.06819">
        <ele>15.8</ele>
        <time>2024-03-20T13:22:04Z</time>
      </trkpt>
      <trkpt lat="49.23159" lon="-0.06815">
        <ele>15.8</ele>
        <time>2024-03-20T13:22:05Z</time>
      </trkpt>
      <trkpt lat="49.23152" lon="-0.06812">
        <ele>15.8</ele>
        <time>2024-03-20T13:22:06Z</time>
      </trkpt>
      <trkpt lat="49.23144" lon="-0.06809">
        <ele>15.8</ele>
        <time>2024-03-20T13:22:07Z</time>
      </trkpt>
      <trkpt lat="49.23137" lon="-0.06806">
        <ele>15.8</ele>
        <time>2024-03-20T13:22:08Z</time>
      </trkpt>
      <trkpt lat="49.23133" lon="-0.06805">
        <ele>15.8</ele>
        <time>2024-03-20T13:22:09Z</time>
      </trkpt>
      <trkpt lat="49.23129" lon="-0.06802">
        <ele>16</ele>
        <time>2024-03-20T13:22:10Z</time>
      </trkpt>
      <trkpt lat="49.23121" lon="-0.06799">
        <ele>16</ele>
        <time>2024-03-20T13:22:11Z</time>
      </trkpt>
      <trkpt lat="49.23106" lon="-0.06789">
        <ele>16</ele>
        <time>2024-03-20T13:22:12Z</time>
      </trkpt>
      <trkpt lat="49.23097" lon="-0.06785">
        <ele>16</ele>
        <time>2024-03-20T13:22:13Z</time>
      </trkpt>
      <trkpt lat="49.2309" lon="-0.06782">
        <ele>16</ele>
        <time>2024-03-20T13:22:14Z</time>
      </trkpt>
      <trkpt lat="49.23083" lon="-0.06778">
        <ele>16</ele>
        <time>2024-03-20T13:22:15Z</time>
      </trkpt>
      <trkpt lat="49.23076" lon="-0.06775">
        <ele>16</ele>
        <time>2024-03-20T13:22:16Z</time>
      </trkpt>
      <trkpt lat="49.23069" lon="-0.06771">
        <ele>16</ele>
        <time>2024-03-20T13:22:17Z</time>
      </trkpt>
      <trkpt lat="49.23061" lon="-0.06767">
        <ele>16</ele>
        <time>2024-03-20T13:22:18Z</time>
      </trkpt>
      <trkpt lat="49.23054" lon="-0.06764">
        <ele>16</ele>
        <time>2024-03-20T13:22:19Z</time>
      </trkpt>
      <trkpt lat="49.23047" lon="-0.06761">
        <ele>16.2</ele>
        <time>2024-03-20T13:22:20Z</time>
      </trkpt>
      <trkpt lat="49.23041" lon="-0.06759">
        <ele>16.4</ele>
        <time>2024-03-20T13:22:21Z</time>
      </trkpt>
      <trkpt lat="49.23034" lon="-0.06757">
        <ele>16.4</ele>
        <time>2024-03-20T13:22:22Z</time>
      </trkpt>
      <trkpt lat="49.23027" lon="-0.06755">
        <ele>16.8</ele>
        <time>2024-03-20T13:22:23Z</time>
      </trkpt>
      <trkpt lat="49.2302" lon="-0.06754">
        <ele>17</ele>
        <time>2024-03-20T13:22:24Z</time>
      </trkpt>
      <trkpt lat="49.23014" lon="-0.06754">
        <ele>17.2</ele>
        <time>2024-03-20T13:22:25Z</time>
      </trkpt>
      <trkpt lat="49.23006" lon="-0.06755">
        <ele>17.4</ele>
        <time>2024-03-20T13:22:26Z</time>
      </trkpt>
      <trkpt lat="49.22999" lon="-0.06757">
        <ele>17.6</ele>
        <time>2024-03-20T13:22:27Z</time>
      </trkpt>
      <trkpt lat="49.22992" lon="-0.0676">
        <ele>17.8</ele>
        <time>2024-03-20T13:22:28Z</time>
      </trkpt>
      <trkpt lat="49.22987" lon="-0.06763">
        <ele>17.8</ele>
        <time>2024-03-20T13:22:29Z</time>
      </trkpt>
      <trkpt lat="49.22979" lon="-0.06769">
        <ele>18</ele>
        <time>2024-03-20T13:22:30Z</time>
      </trkpt>
      <trkpt lat="49.22973" lon="-0.06775">
        <ele>18.2</ele>
        <time>2024-03-20T13:22:31Z</time>
      </trkpt>
      <trkpt lat="49.22967" lon="-0.06781">
        <ele>18.6</ele>
        <time>2024-03-20T13:22:32Z</time>
      </trkpt>
      <trkpt lat="49.22961" lon="-0.06788">
        <ele>18.8</ele>
        <time>2024-03-20T13:22:33Z</time>
      </trkpt>
      <trkpt lat="49.22957" lon="-0.06794">
        <ele>19.2</ele>
        <time>2024-03-20T13:22:34Z</time>
      </trkpt>
      <trkpt lat="49.22951" lon="-0.06803">
        <ele>19.2</ele>
        <time>2024-03-20T13:22:35Z</time>
      </trkpt>
      <trkpt lat="49.22947" lon="-0.06811">
        <ele>19.6</ele>
        <time>2024-03-20T13:22:36Z</time>
      </trkpt>
      <trkpt lat="49.22944" lon="-0.06817">
        <ele>19.8</ele>
        <time>2024-03-20T13:22:37Z</time>
      </trkpt>
      <trkpt lat="49.2294" lon="-0.06828">
        <ele>20</ele>
        <time>2024-03-20T13:22:38Z</time>
      </trkpt>
      <trkpt lat="49.22937" lon="-0.06838">
        <ele>20.2</ele>
        <time>2024-03-20T13:22:39Z</time>
      </trkpt>
      <trkpt lat="49.22934" lon="-0.06847">
        <ele>20.4</ele>
        <time>2024-03-20T13:22:40Z</time>
      </trkpt>
      <trkpt lat="49.22932" lon="-0.06856">
        <ele>20.4</ele>
        <time>2024-03-20T13:22:41Z</time>
      </trkpt>
      <trkpt lat="49.22929" lon="-0.06866">
        <ele>20.6</ele>
        <time>2024-03-20T13:22:42Z</time>
      </trkpt>
      <trkpt lat="49.22926" lon="-0.06875">
        <ele>20.8</ele>
        <time>2024-03-20T13:22:43Z</time>
      </trkpt>
      <trkpt lat="49.22923" lon="-0.06884">
        <ele>21</ele>
        <time>2024-03-20T13:22:44Z</time>
      </trkpt>
      <trkpt lat="49.2292" lon="-0.06892">
        <ele>21</ele>
        <time>2024-03-20T13:22:45Z</time>
      </trkpt>
      <trkpt lat="49.22916" lon="-0.06902">
        <ele>21.4</ele>
        <time>2024-03-20T13:22:46Z</time>
      </trkpt>
      <trkpt lat="49.22912" lon="-0.06911">
        <ele>21.8</ele>
        <time>2024-03-20T13:22:47Z</time>
      </trkpt>
      <trkpt lat="49.22908" lon="-0.06919">
        <ele>22</ele>
        <time>2024-03-20T13:22:48Z</time>
      </trkpt>
      <trkpt lat="49.22903" lon="-0.06926">
        <ele>22</ele>
        <time>2024-03-20T13:22:49Z</time>
      </trkpt>
      <trkpt lat="49.22898" lon="-0.06933">
        <ele>22.2</ele>
        <time>2024-03-20T13:22:50Z</time>
      </trkpt>
      <trkpt lat="49.22892" lon="-0.06938">
        <ele>22.2</ele>
        <time>2024-03-20T13:22:51Z</time>
      </trkpt>
      <trkpt lat="49.22886" lon="-0.06942">
        <ele>22.4</ele>
        <time>2024-03-20T13:22:52Z</time>
      </trkpt>
      <trkpt lat="49.2288" lon="-0.06945">
        <ele>22.4</ele>
        <time>2024-03-20T13:22:53Z</time>
      </trkpt>
      <trkpt lat="49.22875" lon="-0.06947">
        <ele>22.4</ele>
        <time>2024-03-20T13:22:54Z</time>
      </trkpt>
      <trkpt lat="49.22867" lon="-0.06949">
        <ele>22.6</ele>
        <time>2024-03-20T13:22:55Z</time>
      </trkpt>
      <trkpt lat="49.22861" lon="-0.06949">
        <ele>22.6</ele>
        <time>2024-03-20T13:22:56Z</time>
      </trkpt>
      <trkpt lat="49.22854" lon="-0.06948">
        <ele>22.6</ele>
        <time>2024-03-20T13:22:57Z</time>
      </trkpt>
      <trkpt lat="49.22848" lon="-0.06947">
        <ele>22.6</ele>
        <time>2024-03-20T13:22:58Z</time>
      </trkpt>
      <trkpt lat="49.22843" lon="-0.06946">
        <ele>22.8</ele>
        <time>2024-03-20T13:22:59Z</time>
      </trkpt>
      <trkpt lat="49.22837" lon="-0.06944">
        <ele>23</ele>
        <time>2024-03-20T13:23:00Z</time>
      </trkpt>
      <trkpt lat="49.2283" lon="-0.06943">
        <ele>23.4</ele>
        <time>2024-03-20T13:23:01Z</time>
      </trkpt>
      <trkpt lat="49.22824" lon="-0.06941">
        <ele>24</ele>
        <time>2024-03-20T13:23:02Z</time>
      </trkpt>
      <trkpt lat="49.22818" lon="-0.06939">
        <ele>24.6</ele>
        <time>2024-03-20T13:23:03Z</time>
      </trkpt>
      <trkpt lat="49.22811" lon="-0.06937">
        <ele>25</ele>
        <time>2024-03-20T13:23:04Z</time>
      </trkpt>
      <trkpt lat="49.22805" lon="-0.06937">
        <ele>25.4</ele>
        <time>2024-03-20T13:23:05Z</time>
      </trkpt>
      <trkpt lat="49.22799" lon="-0.06935">
        <ele>25.6</ele>
        <time>2024-03-20T13:23:06Z</time>
      </trkpt>
      <trkpt lat="49.22793" lon="-0.06934">
        <ele>26</ele>
        <time>2024-03-20T13:23:07Z</time>
      </trkpt>
      <trkpt lat="49.22787" lon="-0.06932">
        <ele>26.2</ele>
        <time>2024-03-20T13:23:08Z</time>
      </trkpt>
      <trkpt lat="49.22782" lon="-0.06931">
        <ele>26.4</ele>
        <time>2024-03-20T13:23:09Z</time>
      </trkpt>
      <trkpt lat="49.22776" lon="-0.06929">
        <ele>26.4</ele>
        <time>2024-03-20T13:23:10Z</time>
      </trkpt>
      <trkpt lat="49.22769" lon="-0.06928">
        <ele>26.6</ele>
        <time>2024-03-20T13:23:11Z</time>
      </trkpt>
      <trkpt lat="49.22763" lon="-0.06926">
        <ele>26.6</ele>
        <time>2024-03-20T13:23:12Z</time>
      </trkpt>
      <trkpt lat="49.22758" lon="-0.06924">
        <ele>26.8</ele>
        <time>2024-03-20T13:23:13Z</time>
      </trkpt>
      <trkpt lat="49.22752" lon="-0.06923">
        <ele>27.2</ele>
        <time>2024-03-20T13:23:14Z</time>
      </trkpt>
      <trkpt lat="49.22746" lon="-0.06922">
        <ele>27.4</ele>
        <time>2024-03-20T13:23:15Z</time>
      </trkpt>
      <trkpt lat="49.2274" lon="-0.06921">
        <ele>28</ele>
        <time>2024-03-20T13:23:16Z</time>
      </trkpt>
      <trkpt lat="49.22735" lon="-0.0692">
        <ele>28.2</ele>
        <time>2024-03-20T13:23:17Z</time>
      </trkpt>
      <trkpt lat="49.22729" lon="-0.06918">
        <ele>28.4</ele>
        <time>2024-03-20T13:23:18Z</time>
      </trkpt>
      <trkpt lat="49.22724" lon="-0.06917">
        <ele>28.6</ele>
        <time>2024-03-20T13:23:19Z</time>
      </trkpt>
      <trkpt lat="49.22718" lon="-0.06916">
        <ele>28.8</ele>
        <time>2024-03-20T13:23:20Z</time>
      </trkpt>
      <trkpt lat="49.22711" lon="-0.06914">
        <ele>28.8</ele>
        <time>2024-03-20T13:23:21Z</time>
      </trkpt>
      <trkpt lat="49.22704" lon="-0.06912">
        <ele>29</ele>
        <time>2024-03-20T13:23:22Z</time>
      </trkpt>
      <trkpt lat="49.22697" lon="-0.0691">
        <ele>29</ele>
        <time>2024-03-20T13:23:23Z</time>
      </trkpt>
      <trkpt lat="49.2269" lon="-0.06909">
        <ele>29</ele>
        <time>2024-03-20T13:23:24Z</time>
      </trkpt>
      <trkpt lat="49.22684" lon="-0.06907">
        <ele>28.8</ele>
        <time>2024-03-20T13:23:25Z</time>
      </trkpt>
      <trkpt lat="49.22675" lon="-0.06906">
        <ele>29</ele>
        <time>2024-03-20T13:23:26Z</time>
      </trkpt>
      <trkpt lat="49.22669" lon="-0.06904">
        <ele>29</ele>
        <time>2024-03-20T13:23:27Z</time>
      </trkpt>
      <trkpt lat="49.22662" lon="-0.06902">
        <ele>29</ele>
        <time>2024-03-20T13:23:28Z</time>
      </trkpt>
      <trkpt lat="49.22653" lon="-0.069">
        <ele>29</ele>
        <time>2024-03-20T13:23:29Z</time>
      </trkpt>
      <trkpt lat="49.22646" lon="-0.06898">
        <ele>29</ele>
        <time>2024-03-20T13:23:30Z</time>
      </trkpt>
      <trkpt lat="49.2264" lon="-0.06897">
        <ele>28.8</ele>
        <time>2024-03-20T13:23:31Z</time>
      </trkpt>
      <trkpt lat="49.22632" lon="-0.06895">
        <ele>28.6</ele>
        <time>2024-03-20T13:23:32Z</time>
      </trkpt>
      <trkpt lat="49.22625" lon="-0.06893">
        <ele>28.6</ele>
        <time>2024-03-20T13:23:33Z</time>
      </trkpt>
      <trkpt lat="49.22619" lon="-0.06892">
        <ele>28.4</ele>
        <time>2024-03-20T13:23:34Z</time>
      </trkpt>
      <trkpt lat="49.22611" lon="-0.0689">
        <ele>28</ele>
        <time>2024-03-20T13:23:35Z</time>
      </trkpt>
      <trkpt lat="49.22604" lon="-0.06888">
        <ele>27.8</ele>
        <time>2024-03-20T13:23:36Z</time>
      </trkpt>
      <trkpt lat="49.22597" lon="-0.06887">
        <ele>27.8</ele>
        <time>2024-03-20T13:23:37Z</time>
      </trkpt>
      <trkpt lat="49.22588" lon="-0.06885">
        <ele>27.2</ele>
        <time>2024-03-20T13:23:38Z</time>
      </trkpt>
      <trkpt lat="49.2258" lon="-0.06883">
        <ele>26.8</ele>
        <time>2024-03-20T13:23:39Z</time>
      </trkpt>
      <trkpt lat="49.22574" lon="-0.06881">
        <ele>26.8</ele>
        <time>2024-03-20T13:23:40Z</time>
      </trkpt>
      <trkpt lat="49.22565" lon="-0.06879">
        <ele>26.2</ele>
        <time>2024-03-20T13:23:41Z</time>
      </trkpt>
      <trkpt lat="49.22558" lon="-0.06877">
        <ele>26</ele>
        <time>2024-03-20T13:23:42Z</time>
      </trkpt>
      <trkpt lat="49.22551" lon="-0.06875">
        <ele>25.6</ele>
        <time>2024-03-20T13:23:43Z</time>
      </trkpt>
      <trkpt lat="49.22541" lon="-0.06873">
        <ele>25.6</ele>
        <time>2024-03-20T13:23:44Z</time>
      </trkpt>
      <trkpt lat="49.22535" lon="-0.06871">
        <ele>25.2</ele>
        <time>2024-03-20T13:23:45Z</time>
      </trkpt>
      <trkpt lat="49.22527" lon="-0.0687">
        <ele>25</ele>
        <time>2024-03-20T13:23:46Z</time>
      </trkpt>
      <trkpt lat="49.22518" lon="-0.06868">
        <ele>25</ele>
        <time>2024-03-20T13:23:47Z</time>
      </trkpt>
      <trkpt lat="49.2251" lon="-0.06866">
        <ele>24.8</ele>
        <time>2024-03-20T13:23:48Z</time>
      </trkpt>
      <trkpt lat="49.22504" lon="-0.06865">
        <ele>24.8</ele>
        <time>2024-03-20T13:23:49Z</time>
      </trkpt>
      <trkpt lat="49.22496" lon="-0.06864">
        <ele>24.6</ele>
        <time>2024-03-20T13:23:50Z</time>
      </trkpt>
      <trkpt lat="49.22487" lon="-0.06862">
        <ele>24.2</ele>
        <time>2024-03-20T13:23:51Z</time>
      </trkpt>
      <trkpt lat="49.22481" lon="-0.06861">
        <ele>23.6</ele>
        <time>2024-03-20T13:23:52Z</time>
      </trkpt>
      <trkpt lat="49.22472" lon="-0.0686">
        <ele>23</ele>
        <time>2024-03-20T13:23:53Z</time>
      </trkpt>
      <trkpt lat="49.22466" lon="-0.0686">
        <ele>22.4</ele>
        <time>2024-03-20T13:23:54Z</time>
      </trkpt>
      <trkpt lat="49.2246" lon="-0.0686">
        <ele>22</ele>
        <time>2024-03-20T13:23:55Z</time>
      </trkpt>
      <trkpt lat="49.22454" lon="-0.06861">
        <ele>21.8</ele>
        <time>2024-03-20T13:23:56Z</time>
      </trkpt>
      <trkpt lat="49.22451" lon="-0.06862">
        <ele>21.6</ele>
        <time>2024-03-20T13:23:57Z</time>
      </trkpt>
      <trkpt lat="49.22449" lon="-0.06863">
        <ele>21.4</ele>
        <time>2024-03-20T13:23:58Z</time>
      </trkpt>
      <trkpt lat="49.22448" lon="-0.06864">
        <ele>21.4</ele>
        <time>2024-03-20T13:23:59Z</time>
      </trkpt>
      <trkpt lat="49.22448" lon="-0.06864">
        <ele>21.4</ele>
        <time>2024-03-20T13:24:00Z</time>
      </trkpt>
      <trkpt lat="49.22448" lon="-0.06864">
        <ele>21.4</ele>
        <time>2024-03-20T13:24:01Z</time>
      </trkpt>
      <trkpt lat="49.22443" lon="-0.06864">
        <ele>21.6</ele>
        <time>2024-03-20T13:24:24Z</time>
      </trkpt>
      <trkpt lat="49.22441" lon="-0.06865">
        <ele>21.6</ele>
        <time>2024-03-20T13:24:25Z</time>
      </trkpt>
      <trkpt lat="49.22438" lon="-0.06865">
        <ele>21.6</ele>
        <time>2024-03-20T13:24:26Z</time>
      </trkpt>
      <trkpt lat="49.22436" lon="-0.06865">
        <ele>21.6</ele>
        <time>2024-03-20T13:24:27Z</time>
      </trkpt>
      <trkpt lat="49.22432" lon="-0.06863">
        <ele>21.4</ele>
        <time>2024-03-20T13:24:28Z</time>
      </trkpt>
      <trkpt lat="49.22427" lon="-0.06861">
        <ele>21.4</ele>
        <time>2024-03-20T13:24:29Z</time>
      </trkpt>
      <trkpt lat="49.22422" lon="-0.06859">
        <ele>21.4</ele>
        <time>2024-03-20T13:24:30Z</time>
      </trkpt>
      <trkpt lat="49.22418" lon="-0.06858">
        <ele>21.4</ele>
        <time>2024-03-20T13:24:31Z</time>
      </trkpt>
      <trkpt lat="49.22413" lon="-0.06855">
        <ele>21.4</ele>
        <time>2024-03-20T13:24:32Z</time>
      </trkpt>
      <trkpt lat="49.22408" lon="-0.06854">
        <ele>21.4</ele>
        <time>2024-03-20T13:24:33Z</time>
      </trkpt>
      <trkpt lat="49.22403" lon="-0.06853">
        <ele>21.4</ele>
        <time>2024-03-20T13:24:34Z</time>
      </trkpt>
      <trkpt lat="49.22397" lon="-0.06853">
        <ele>21.2</ele>
        <time>2024-03-20T13:24:35Z</time>
      </trkpt>
      <trkpt lat="49.22392" lon="-0.06853">
        <ele>21.2</ele>
        <time>2024-03-20T13:24:36Z</time>
      </trkpt>
      <trkpt lat="49.22386" lon="-0.06852">
        <ele>21</ele>
        <time>2024-03-20T13:24:37Z</time>
      </trkpt>
      <trkpt lat="49.2238" lon="-0.06852">
        <ele>21</ele>
        <time>2024-03-20T13:24:38Z</time>
      </trkpt>
      <trkpt lat="49.22374" lon="-0.06852">
        <ele>20.8</ele>
        <time>2024-03-20T13:24:39Z</time>
      </trkpt>
      <trkpt lat="49.22368" lon="-0.06852">
        <ele>20.6</ele>
        <time>2024-03-20T13:24:40Z</time>
      </trkpt>
      <trkpt lat="49.22361" lon="-0.06852">
        <ele>20.6</ele>
        <time>2024-03-20T13:24:41Z</time>
      </trkpt>
      <trkpt lat="49.22355" lon="-0.06852">
        <ele>20.4</ele>
        <time>2024-03-20T13:24:42Z</time>
      </trkpt>
      <trkpt lat="49.2235" lon="-0.06852">
        <ele>20.2</ele>
        <time>2024-03-20T13:24:43Z</time>
      </trkpt>
      <trkpt lat="49.22342" lon="-0.06852">
        <ele>20</ele>
        <time>2024-03-20T13:24:44Z</time>
      </trkpt>
      <trkpt lat="49.22337" lon="-0.06852">
        <ele>19.8</ele>
        <time>2024-03-20T13:24:45Z</time>
      </trkpt>
      <trkpt lat="49.2233" lon="-0.06852">
        <ele>19.6</ele>
        <time>2024-03-20T13:24:46Z</time>
      </trkpt>
      <trkpt lat="49.22324" lon="-0.06853">
        <ele>19.6</ele>
        <time>2024-03-20T13:24:47Z</time>
      </trkpt>
      <trkpt lat="49.22316" lon="-0.06853">
        <ele>19.2</ele>
        <time>2024-03-20T13:24:48Z</time>
      </trkpt>
      <trkpt lat="49.22309" lon="-0.06853">
        <ele>19.2</ele>
        <time>2024-03-20T13:24:49Z</time>
      </trkpt>
      <trkpt lat="49.22302" lon="-0.06853">
        <ele>19</ele>
        <time>2024-03-20T13:24:50Z</time>
      </trkpt>
      <trkpt lat="49.22294" lon="-0.06853">
        <ele>19</ele>
        <time>2024-03-20T13:24:51Z</time>
      </trkpt>
      <trkpt lat="49.22289" lon="-0.06853">
        <ele>19</ele>
        <time>2024-03-20T13:24:52Z</time>
      </trkpt>
      <trkpt lat="49.2228" lon="-0.06853">
        <ele>19</ele>
        <time>2024-03-20T13:24:53Z</time>
      </trkpt>
      <trkpt lat="49.22275" lon="-0.06853">
        <ele>18.8</ele>
        <time>2024-03-20T13:24:54Z</time>
      </trkpt>
      <trkpt lat="49.22268" lon="-0.06853">
        <ele>18.6</ele>
        <time>2024-03-20T13:24:55Z</time>
      </trkpt>
      <trkpt lat="49.2226" lon="-0.06852">
        <ele>18.4</ele>
        <time>2024-03-20T13:24:56Z</time>
      </trkpt>
      <trkpt lat="49.22253" lon="-0.06852">
        <ele>18.4</ele>
        <time>2024-03-20T13:24:57Z</time>
      </trkpt>
      <trkpt lat="49.22247" lon="-0.06852">
        <ele>18.2</ele>
        <time>2024-03-20T13:24:58Z</time>
      </trkpt>
      <trkpt lat="49.22239" lon="-0.06852">
        <ele>18.2</ele>
        <time>2024-03-20T13:24:59Z</time>
      </trkpt>
      <trkpt lat="49.22232" lon="-0.06852">
        <ele>18</ele>
        <time>2024-03-20T13:25:00Z</time>
      </trkpt>
      <trkpt lat="49.22224" lon="-0.06853">
        <ele>18</ele>
        <time>2024-03-20T13:25:01Z</time>
      </trkpt>
      <trkpt lat="49.22219" lon="-0.06853">
        <ele>18</ele>
        <time>2024-03-20T13:25:02Z</time>
      </trkpt>
      <trkpt lat="49.2221" lon="-0.06853">
        <ele>17.8</ele>
        <time>2024-03-20T13:25:03Z</time>
      </trkpt>
      <trkpt lat="49.22203" lon="-0.06853">
        <ele>17.8</ele>
        <time>2024-03-20T13:25:04Z</time>
      </trkpt>
      <trkpt lat="49.22196" lon="-0.06854">
        <ele>17.8</ele>
        <time>2024-03-20T13:25:05Z</time>
      </trkpt>
      <trkpt lat="49.22188" lon="-0.06854">
        <ele>17.8</ele>
        <time>2024-03-20T13:25:06Z</time>
      </trkpt>
      <trkpt lat="49.22182" lon="-0.06855">
        <ele>17.8</ele>
        <time>2024-03-20T13:25:07Z</time>
      </trkpt>
      <trkpt lat="49.22175" lon="-0.06855">
        <ele>17.8</ele>
        <time>2024-03-20T13:25:08Z</time>
      </trkpt>
      <trkpt lat="49.22167" lon="-0.06855">
        <ele>17.8</ele>
        <time>2024-03-20T13:25:09Z</time>
      </trkpt>
      <trkpt lat="49.22161" lon="-0.06855">
        <ele>17.8</ele>
        <time>2024-03-20T13:25:10Z</time>
      </trkpt>
      <trkpt lat="49.22154" lon="-0.06856">
        <ele>17.8</ele>
        <time>2024-03-20T13:25:11Z</time>
      </trkpt>
      <trkpt lat="49.22146" lon="-0.06858">
        <ele>17.8</ele>
        <time>2024-03-20T13:25:12Z</time>
      </trkpt>
      <trkpt lat="49.22139" lon="-0.06859">
        <ele>17.8</ele>
        <time>2024-03-20T13:25:13Z</time>
      </trkpt>
      <trkpt lat="49.22133" lon="-0.0686">
        <ele>17.8</ele>
        <time>2024-03-20T13:25:14Z</time>
      </trkpt>
      <trkpt lat="49.22127" lon="-0.06861">
        <ele>17.8</ele>
        <time>2024-03-20T13:25:15Z</time>
      </trkpt>
      <trkpt lat="49.22122" lon="-0.06862">
        <ele>17.8</ele>
        <time>2024-03-20T13:25:16Z</time>
      </trkpt>
      <trkpt lat="49.22114" lon="-0.06864">
        <ele>17.8</ele>
        <time>2024-03-20T13:25:17Z</time>
      </trkpt>
      <trkpt lat="49.22108" lon="-0.06865">
        <ele>17.8</ele>
        <time>2024-03-20T13:25:18Z</time>
      </trkpt>
      <trkpt lat="49.22103" lon="-0.06865">
        <ele>17.8</ele>
        <time>2024-03-20T13:25:19Z</time>
      </trkpt>
      <trkpt lat="49.22096" lon="-0.06867">
        <ele>17.8</ele>
        <time>2024-03-20T13:25:20Z</time>
      </trkpt>
      <trkpt lat="49.2209" lon="-0.06868">
        <ele>18</ele>
        <time>2024-03-20T13:25:21Z</time>
      </trkpt>
      <trkpt lat="49.22085" lon="-0.06869">
        <ele>18.2</ele>
        <time>2024-03-20T13:25:22Z</time>
      </trkpt>
      <trkpt lat="49.22079" lon="-0.0687">
        <ele>18.4</ele>
        <time>2024-03-20T13:25:23Z</time>
      </trkpt>
      <trkpt lat="49.22073" lon="-0.06872">
        <ele>18.6</ele>
        <time>2024-03-20T13:25:24Z</time>
      </trkpt>
      <trkpt lat="49.22068" lon="-0.06873">
        <ele>18.6</ele>
        <time>2024-03-20T13:25:25Z</time>
      </trkpt>
      <trkpt lat="49.22062" lon="-0.06874">
        <ele>18.8</ele>
        <time>2024-03-20T13:25:26Z</time>
      </trkpt>
      <trkpt lat="49.22057" lon="-0.06874">
        <ele>19.2</ele>
        <time>2024-03-20T13:25:27Z</time>
      </trkpt>
      <trkpt lat="49.22052" lon="-0.06875">
        <ele>19.4</ele>
        <time>2024-03-20T13:25:28Z</time>
      </trkpt>
      <trkpt lat="49.22046" lon="-0.06877">
        <ele>19.6</ele>
        <time>2024-03-20T13:25:29Z</time>
      </trkpt>
      <trkpt lat="49.22039" lon="-0.06878">
        <ele>20</ele>
        <time>2024-03-20T13:25:30Z</time>
      </trkpt>
      <trkpt lat="49.22034" lon="-0.06879">
        <ele>20.2</ele>
        <time>2024-03-20T13:25:31Z</time>
      </trkpt>
      <trkpt lat="49.22028" lon="-0.0688">
        <ele>20.4</ele>
        <time>2024-03-20T13:25:32Z</time>
      </trkpt>
      <trkpt lat="49.22023" lon="-0.06882">
        <ele>20.8</ele>
        <time>2024-03-20T13:25:33Z</time>
      </trkpt>
      <trkpt lat="49.22018" lon="-0.06882">
        <ele>20.8</ele>
        <time>2024-03-20T13:25:34Z</time>
      </trkpt>
      <trkpt lat="49.22013" lon="-0.06883">
        <ele>21</ele>
        <time>2024-03-20T13:25:35Z</time>
      </trkpt>
      <trkpt lat="49.22006" lon="-0.06884">
        <ele>21.2</ele>
        <time>2024-03-20T13:25:36Z</time>
      </trkpt>
      <trkpt lat="49.22001" lon="-0.06885">
        <ele>21.4</ele>
        <time>2024-03-20T13:25:37Z</time>
      </trkpt>
      <trkpt lat="49.21995" lon="-0.06887">
        <ele>21.8</ele>
        <time>2024-03-20T13:25:38Z</time>
      </trkpt>
      <trkpt lat="49.21989" lon="-0.06888">
        <ele>21.8</ele>
        <time>2024-03-20T13:25:39Z</time>
      </trkpt>
      <trkpt lat="49.21985" lon="-0.06889">
        <ele>22</ele>
        <time>2024-03-20T13:25:40Z</time>
      </trkpt>
      <trkpt lat="49.21978" lon="-0.0689">
        <ele>22.2</ele>
        <time>2024-03-20T13:25:41Z</time>
      </trkpt>
      <trkpt lat="49.21973" lon="-0.06891">
        <ele>22.4</ele>
        <time>2024-03-20T13:25:42Z</time>
      </trkpt>
      <trkpt lat="49.21968" lon="-0.06891">
        <ele>22.6</ele>
        <time>2024-03-20T13:25:43Z</time>
      </trkpt>
      <trkpt lat="49.21962" lon="-0.06893">
        <ele>23</ele>
        <time>2024-03-20T13:25:44Z</time>
      </trkpt>
      <trkpt lat="49.21957" lon="-0.06894">
        <ele>23.2</ele>
        <time>2024-03-20T13:25:45Z</time>
      </trkpt>
      <trkpt lat="49.21952" lon="-0.06895">
        <ele>23.6</ele>
        <time>2024-03-20T13:25:46Z</time>
      </trkpt>
      <trkpt lat="49.21946" lon="-0.06895">
        <ele>24</ele>
        <time>2024-03-20T13:25:47Z</time>
      </trkpt>
      <trkpt lat="49.2194" lon="-0.06895">
        <ele>24.4</ele>
        <time>2024-03-20T13:25:48Z</time>
      </trkpt>
      <trkpt lat="49.21935" lon="-0.06896">
        <ele>24.6</ele>
        <time>2024-03-20T13:25:49Z</time>
      </trkpt>
      <trkpt lat="49.21931" lon="-0.06896">
        <ele>25</ele>
        <time>2024-03-20T13:25:50Z</time>
      </trkpt>
      <trkpt lat="49.21926" lon="-0.06895">
        <ele>25.2</ele>
        <time>2024-03-20T13:25:51Z</time>
      </trkpt>
      <trkpt lat="49.21921" lon="-0.06894">
        <ele>25.6</ele>
        <time>2024-03-20T13:25:52Z</time>
      </trkpt>
      <trkpt lat="49.21914" lon="-0.06893">
        <ele>25.8</ele>
        <time>2024-03-20T13:25:53Z</time>
      </trkpt>
      <trkpt lat="49.2191" lon="-0.06891">
        <ele>26.2</ele>
        <time>2024-03-20T13:25:54Z</time>
      </trkpt>
      <trkpt lat="49.21905" lon="-0.06888">
        <ele>26.6</ele>
        <time>2024-03-20T13:25:55Z</time>
      </trkpt>
      <trkpt lat="49.21899" lon="-0.06885">
        <ele>26.8</ele>
        <time>2024-03-20T13:25:56Z</time>
      </trkpt>
      <trkpt lat="49.21895" lon="-0.06881">
        <ele>27.2</ele>
        <time>2024-03-20T13:25:57Z</time>
      </trkpt>
      <trkpt lat="49.2189" lon="-0.06877">
        <ele>27.6</ele>
        <time>2024-03-20T13:25:58Z</time>
      </trkpt>
      <trkpt lat="49.21886" lon="-0.06872">
        <ele>27.8</ele>
        <time>2024-03-20T13:25:59Z</time>
      </trkpt>
      <trkpt lat="49.21882" lon="-0.06867">
        <ele>28</ele>
        <time>2024-03-20T13:26:00Z</time>
      </trkpt>
      <trkpt lat="49.21879" lon="-0.06862">
        <ele>28.2</ele>
        <time>2024-03-20T13:26:01Z</time>
      </trkpt>
      <trkpt lat="49.21875" lon="-0.06856">
        <ele>28.2</ele>
        <time>2024-03-20T13:26:02Z</time>
      </trkpt>
      <trkpt lat="49.2187" lon="-0.06849">
        <ele>28.4</ele>
        <time>2024-03-20T13:26:03Z</time>
      </trkpt>
      <trkpt lat="49.21867" lon="-0.06844">
        <ele>28.6</ele>
        <time>2024-03-20T13:26:04Z</time>
      </trkpt>
      <trkpt lat="49.21863" lon="-0.06837">
        <ele>28.8</ele>
        <time>2024-03-20T13:26:05Z</time>
      </trkpt>
      <trkpt lat="49.21859" lon="-0.06831">
        <ele>29</ele>
        <time>2024-03-20T13:26:06Z</time>
      </trkpt>
      <trkpt lat="49.21857" lon="-0.06826">
        <ele>29.2</ele>
        <time>2024-03-20T13:26:07Z</time>
      </trkpt>
      <trkpt lat="49.21853" lon="-0.06819">
        <ele>29.4</ele>
        <time>2024-03-20T13:26:08Z</time>
      </trkpt>
      <trkpt lat="49.21849" lon="-0.06814">
        <ele>29.8</ele>
        <time>2024-03-20T13:26:09Z</time>
      </trkpt>
      <trkpt lat="49.21846" lon="-0.06809">
        <ele>30.2</ele>
        <time>2024-03-20T13:26:10Z</time>
      </trkpt>
      <trkpt lat="49.21842" lon="-0.06803">
        <ele>30.4</ele>
        <time>2024-03-20T13:26:11Z</time>
      </trkpt>
      <trkpt lat="49.21839" lon="-0.06798">
        <ele>30.6</ele>
        <time>2024-03-20T13:26:12Z</time>
      </trkpt>
      <trkpt lat="49.21834" lon="-0.06794">
        <ele>31</ele>
        <time>2024-03-20T13:26:13Z</time>
      </trkpt>
      <trkpt lat="49.21829" lon="-0.06789">
        <ele>31.2</ele>
        <time>2024-03-20T13:26:14Z</time>
      </trkpt>
      <trkpt lat="49.21823" lon="-0.06786">
        <ele>31.4</ele>
        <time>2024-03-20T13:26:15Z</time>
      </trkpt>
      <trkpt lat="49.21818" lon="-0.06784">
        <ele>31.6</ele>
        <time>2024-03-20T13:26:16Z</time>
      </trkpt>
      <trkpt lat="49.21813" lon="-0.06783">
        <ele>31.8</ele>
        <time>2024-03-20T13:26:17Z</time>
      </trkpt>
      <trkpt lat="49.21808" lon="-0.06782">
        <ele>32</ele>
        <time>2024-03-20T13:26:18Z</time>
      </trkpt>
      <trkpt lat="49.21802" lon="-0.06781">
        <ele>32</ele>
        <time>2024-03-20T13:26:19Z</time>
      </trkpt>
      <trkpt lat="49.21795" lon="-0.0678">
        <ele>32.4</ele>
        <time>2024-03-20T13:26:20Z</time>
      </trkpt>
      <trkpt lat="49.2179" lon="-0.06779">
        <ele>32.4</ele>
        <time>2024-03-20T13:26:21Z</time>
      </trkpt>
      <trkpt lat="49.21784" lon="-0.06779">
        <ele>32.6</ele>
        <time>2024-03-20T13:26:22Z</time>
      </trkpt>
      <trkpt lat="49.21776" lon="-0.06778">
        <ele>33</ele>
        <time>2024-03-20T13:26:23Z</time>
      </trkpt>
      <trkpt lat="49.2177" lon="-0.06778">
        <ele>33.2</ele>
        <time>2024-03-20T13:26:24Z</time>
      </trkpt>
      <trkpt lat="49.21765" lon="-0.06777">
        <ele>33.2</ele>
        <time>2024-03-20T13:26:25Z</time>
      </trkpt>
      <trkpt lat="49.21759" lon="-0.06777">
        <ele>33.6</ele>
        <time>2024-03-20T13:26:26Z</time>
      </trkpt>
      <trkpt lat="49.21751" lon="-0.06777">
        <ele>33.8</ele>
        <time>2024-03-20T13:26:27Z</time>
      </trkpt>
      <trkpt lat="49.21745" lon="-0.06776">
        <ele>33.8</ele>
        <time>2024-03-20T13:26:28Z</time>
      </trkpt>
      <trkpt lat="49.21739" lon="-0.06776">
        <ele>33.8</ele>
        <time>2024-03-20T13:26:29Z</time>
      </trkpt>
      <trkpt lat="49.21732" lon="-0.06775">
        <ele>33.8</ele>
        <time>2024-03-20T13:26:30Z</time>
      </trkpt>
      <trkpt lat="49.21727" lon="-0.06775">
        <ele>34</ele>
        <time>2024-03-20T13:26:31Z</time>
      </trkpt>
      <trkpt lat="49.2172" lon="-0.06775">
        <ele>34.2</ele>
        <time>2024-03-20T13:26:32Z</time>
      </trkpt>
      <trkpt lat="49.21714" lon="-0.06774">
        <ele>34.4</ele>
        <time>2024-03-20T13:26:33Z</time>
      </trkpt>
      <trkpt lat="49.21708" lon="-0.06773">
        <ele>34.6</ele>
        <time>2024-03-20T13:26:34Z</time>
      </trkpt>
      <trkpt lat="49.21701" lon="-0.06773">
        <ele>34.6</ele>
        <time>2024-03-20T13:26:35Z</time>
      </trkpt>
      <trkpt lat="49.21692" lon="-0.06774">
        <ele>34.8</ele>
        <time>2024-03-20T13:26:36Z</time>
      </trkpt>
      <trkpt lat="49.21685" lon="-0.06776">
        <ele>34.8</ele>
        <time>2024-03-20T13:26:37Z</time>
      </trkpt>
      <trkpt lat="49.21678" lon="-0.06782">
        <ele>34.8</ele>
        <time>2024-03-20T13:26:38Z</time>
      </trkpt>
      <trkpt lat="49.21672" lon="-0.0679">
        <ele>34.8</ele>
        <time>2024-03-20T13:26:39Z</time>
      </trkpt>
      <trkpt lat="49.21669" lon="-0.06799">
        <ele>34.8</ele>
        <time>2024-03-20T13:26:40Z</time>
      </trkpt>
      <trkpt lat="49.21664" lon="-0.06813">
        <ele>34.8</ele>
        <time>2024-03-20T13:26:41Z</time>
      </trkpt>
      <trkpt lat="49.21659" lon="-0.06825">
        <ele>34.8</ele>
        <time>2024-03-20T13:26:42Z</time>
      </trkpt>
      <trkpt lat="49.21655" lon="-0.06835">
        <ele>34.8</ele>
        <time>2024-03-20T13:26:43Z</time>
      </trkpt>
      <trkpt lat="49.21647" lon="-0.06848">
        <ele>34.8</ele>
        <time>2024-03-20T13:26:44Z</time>
      </trkpt>
      <trkpt lat="49.21641" lon="-0.06855">
        <ele>34.6</ele>
        <time>2024-03-20T13:26:45Z</time>
      </trkpt>
      <trkpt lat="49.21632" lon="-0.06863">
        <ele>34.2</ele>
        <time>2024-03-20T13:26:46Z</time>
      </trkpt>
      <trkpt lat="49.21621" lon="-0.06871">
        <ele>33.6</ele>
        <time>2024-03-20T13:26:47Z</time>
      </trkpt>
      <trkpt lat="49.2161" lon="-0.06874">
        <ele>33.6</ele>
        <time>2024-03-20T13:26:48Z</time>
      </trkpt>
      <trkpt lat="49.21601" lon="-0.06877">
        <ele>32.8</ele>
        <time>2024-03-20T13:26:49Z</time>
      </trkpt>
      <trkpt lat="49.21587" lon="-0.06879">
        <ele>31.8</ele>
        <time>2024-03-20T13:26:50Z</time>
      </trkpt>
      <trkpt lat="49.21576" lon="-0.06882">
        <ele>31</ele>
        <time>2024-03-20T13:26:51Z</time>
      </trkpt>
      <trkpt lat="49.21566" lon="-0.06883">
        <ele>30.2</ele>
        <time>2024-03-20T13:26:52Z</time>
      </trkpt>
      <trkpt lat="49.21553" lon="-0.06885">
        <ele>29.2</ele>
        <time>2024-03-20T13:26:53Z</time>
      </trkpt>
      <trkpt lat="49.21544" lon="-0.06886">
        <ele>28.4</ele>
        <time>2024-03-20T13:26:54Z</time>
      </trkpt>
      <trkpt lat="49.21532" lon="-0.06887">
        <ele>27.6</ele>
        <time>2024-03-20T13:26:55Z</time>
      </trkpt>
      <trkpt lat="49.21519" lon="-0.06888">
        <ele>26.4</ele>
        <time>2024-03-20T13:26:56Z</time>
      </trkpt>
      <trkpt lat="49.21508" lon="-0.0689">
        <ele>25.6</ele>
        <time>2024-03-20T13:26:57Z</time>
      </trkpt>
      <trkpt lat="49.21499" lon="-0.06891">
        <ele>24.4</ele>
        <time>2024-03-20T13:26:58Z</time>
      </trkpt>
      <trkpt lat="49.21487" lon="-0.06892">
        <ele>23.4</ele>
        <time>2024-03-20T13:26:59Z</time>
      </trkpt>
      <trkpt lat="49.21476" lon="-0.06893">
        <ele>22.2</ele>
        <time>2024-03-20T13:27:00Z</time>
      </trkpt>
      <trkpt lat="49.21468" lon="-0.06894">
        <ele>20.6</ele>
        <time>2024-03-20T13:27:01Z</time>
      </trkpt>
      <trkpt lat="49.21458" lon="-0.06895">
        <ele>19</ele>
        <time>2024-03-20T13:27:02Z</time>
      </trkpt>
      <trkpt lat="49.21446" lon="-0.06897">
        <ele>18.2</ele>
        <time>2024-03-20T13:27:03Z</time>
      </trkpt>
      <trkpt lat="49.21439" lon="-0.06898">
        <ele>17.6</ele>
        <time>2024-03-20T13:27:04Z</time>
      </trkpt>
      <trkpt lat="49.21428" lon="-0.06901">
        <ele>17.4</ele>
        <time>2024-03-20T13:27:05Z</time>
      </trkpt>
      <trkpt lat="49.21419" lon="-0.06903">
        <ele>17.4</ele>
        <time>2024-03-20T13:27:06Z</time>
      </trkpt>
      <trkpt lat="49.21412" lon="-0.06904">
        <ele>17.2</ele>
        <time>2024-03-20T13:27:07Z</time>
      </trkpt>
      <trkpt lat="49.21402" lon="-0.06905">
        <ele>17.2</ele>
        <time>2024-03-20T13:27:08Z</time>
      </trkpt>
      <trkpt lat="49.21394" lon="-0.06906">
        <ele>17.2</ele>
        <time>2024-03-20T13:27:09Z</time>
      </trkpt>
      <trkpt lat="49.21387" lon="-0.06906">
        <ele>17.2</ele>
        <time>2024-03-20T13:27:10Z</time>
      </trkpt>
      <trkpt lat="49.21377" lon="-0.06906">
        <ele>17.2</ele>
        <time>2024-03-20T13:27:11Z</time>
      </trkpt>
      <trkpt lat="49.21369" lon="-0.06905">
        <ele>17.2</ele>
        <time>2024-03-20T13:27:12Z</time>
      </trkpt>
      <trkpt lat="49.21363" lon="-0.06904">
        <ele>17.2</ele>
        <time>2024-03-20T13:27:13Z</time>
      </trkpt>
      <trkpt lat="49.21355" lon="-0.06902">
        <ele>17.2</ele>
        <time>2024-03-20T13:27:14Z</time>
      </trkpt>
      <trkpt lat="49.21345" lon="-0.069">
        <ele>17.2</ele>
        <time>2024-03-20T13:27:15Z</time>
      </trkpt>
      <trkpt lat="49.21338" lon="-0.06899">
        <ele>17.2</ele>
        <time>2024-03-20T13:27:16Z</time>
      </trkpt>
      <trkpt lat="49.21329" lon="-0.06897">
        <ele>17.4</ele>
        <time>2024-03-20T13:27:17Z</time>
      </trkpt>
      <trkpt lat="49.21321" lon="-0.06896">
        <ele>17.8</ele>
        <time>2024-03-20T13:27:18Z</time>
      </trkpt>
      <trkpt lat="49.21312" lon="-0.06894">
        <ele>17.8</ele>
        <time>2024-03-20T13:27:19Z</time>
      </trkpt>
      <trkpt lat="49.21301" lon="-0.06893">
        <ele>18</ele>
        <time>2024-03-20T13:27:20Z</time>
      </trkpt>
      <trkpt lat="49.21293" lon="-0.06893">
        <ele>18</ele>
        <time>2024-03-20T13:27:21Z</time>
      </trkpt>
      <trkpt lat="49.21284" lon="-0.06891">
        <ele>18</ele>
        <time>2024-03-20T13:27:22Z</time>
      </trkpt>
      <trkpt lat="49.21273" lon="-0.0689">
        <ele>18</ele>
        <time>2024-03-20T13:27:23Z</time>
      </trkpt>
      <trkpt lat="49.21264" lon="-0.06889">
        <ele>18</ele>
        <time>2024-03-20T13:27:24Z</time>
      </trkpt>
      <trkpt lat="49.21256" lon="-0.06888">
        <ele>18</ele>
        <time>2024-03-20T13:27:25Z</time>
      </trkpt>
      <trkpt lat="49.21245" lon="-0.06886">
        <ele>18</ele>
        <time>2024-03-20T13:27:26Z</time>
      </trkpt>
      <trkpt lat="49.21237" lon="-0.06885">
        <ele>18</ele>
        <time>2024-03-20T13:27:27Z</time>
      </trkpt>
      <trkpt lat="49.21227" lon="-0.06883">
        <ele>17.8</ele>
        <time>2024-03-20T13:27:28Z</time>
      </trkpt>
      <trkpt lat="49.21215" lon="-0.06881">
        <ele>17.4</ele>
        <time>2024-03-20T13:27:29Z</time>
      </trkpt>
      <trkpt lat="49.21206" lon="-0.0688">
        <ele>16.8</ele>
        <time>2024-03-20T13:27:30Z</time>
      </trkpt>
      <trkpt lat="49.21198" lon="-0.06878">
        <ele>16.4</ele>
        <time>2024-03-20T13:27:31Z</time>
      </trkpt>
      <trkpt lat="49.21186" lon="-0.06877">
        <ele>16</ele>
        <time>2024-03-20T13:27:32Z</time>
      </trkpt>
      <trkpt lat="49.21177" lon="-0.06876">
        <ele>15.8</ele>
        <time>2024-03-20T13:27:33Z</time>
      </trkpt>
      <trkpt lat="49.21169" lon="-0.06875">
        <ele>15.8</ele>
        <time>2024-03-20T13:27:34Z</time>
      </trkpt>
      <trkpt lat="49.21159" lon="-0.06874">
        <ele>15.6</ele>
        <time>2024-03-20T13:27:35Z</time>
      </trkpt>
      <trkpt lat="49.21148" lon="-0.06872">
        <ele>15.4</ele>
        <time>2024-03-20T13:27:36Z</time>
      </trkpt>
      <trkpt lat="49.21141" lon="-0.06871">
        <ele>15.4</ele>
        <time>2024-03-20T13:27:37Z</time>
      </trkpt>
      <trkpt lat="49.21131" lon="-0.0687">
        <ele>15.2</ele>
        <time>2024-03-20T13:27:38Z</time>
      </trkpt>
      <trkpt lat="49.21122" lon="-0.06868">
        <ele>15</ele>
        <time>2024-03-20T13:27:39Z</time>
      </trkpt>
      <trkpt lat="49.21111" lon="-0.06867">
        <ele>14.8</ele>
        <time>2024-03-20T13:27:40Z</time>
      </trkpt>
      <trkpt lat="49.21102" lon="-0.06865">
        <ele>14.8</ele>
        <time>2024-03-20T13:27:41Z</time>
      </trkpt>
      <trkpt lat="49.21093" lon="-0.06862">
        <ele>14.6</ele>
        <time>2024-03-20T13:27:42Z</time>
      </trkpt>
      <trkpt lat="49.21086" lon="-0.06861">
        <ele>14.4</ele>
        <time>2024-03-20T13:27:43Z</time>
      </trkpt>
      <trkpt lat="49.21075" lon="-0.06858">
        <ele>14.4</ele>
        <time>2024-03-20T13:27:44Z</time>
      </trkpt>
      <trkpt lat="49.21066" lon="-0.06857">
        <ele>14</ele>
        <time>2024-03-20T13:27:45Z</time>
      </trkpt>
      <trkpt lat="49.21059" lon="-0.06858">
        <ele>13.8</ele>
        <time>2024-03-20T13:27:46Z</time>
      </trkpt>
      <trkpt lat="49.21048" lon="-0.06858">
        <ele>13.6</ele>
        <time>2024-03-20T13:27:47Z</time>
      </trkpt>
      <trkpt lat="49.2104" lon="-0.06859">
        <ele>13.6</ele>
        <time>2024-03-20T13:27:48Z</time>
      </trkpt>
      <trkpt lat="49.21033" lon="-0.0686">
        <ele>13.6</ele>
        <time>2024-03-20T13:27:49Z</time>
      </trkpt>
      <trkpt lat="49.21022" lon="-0.06861">
        <ele>13.6</ele>
        <time>2024-03-20T13:27:50Z</time>
      </trkpt>
      <trkpt lat="49.21013" lon="-0.06862">
        <ele>13.6</ele>
        <time>2024-03-20T13:27:51Z</time>
      </trkpt>
      <trkpt lat="49.21006" lon="-0.06862">
        <ele>13.6</ele>
        <time>2024-03-20T13:27:52Z</time>
      </trkpt>
      <trkpt lat="49.20996" lon="-0.06863">
        <ele>13.6</ele>
        <time>2024-03-20T13:27:53Z</time>
      </trkpt>
      <trkpt lat="49.20987" lon="-0.06864">
        <ele>13.6</ele>
        <time>2024-03-20T13:27:54Z</time>
      </trkpt>
      <trkpt lat="49.2098" lon="-0.06865">
        <ele>13.6</ele>
        <time>2024-03-20T13:27:55Z</time>
      </trkpt>
      <trkpt lat="49.2097" lon="-0.06867">
        <ele>13.6</ele>
        <time>2024-03-20T13:27:56Z</time>
      </trkpt>
      <trkpt lat="49.20962" lon="-0.06868">
        <ele>13.6</ele>
        <time>2024-03-20T13:27:57Z</time>
      </trkpt>
      <trkpt lat="49.20955" lon="-0.06868">
        <ele>13.6</ele>
        <time>2024-03-20T13:27:58Z</time>
      </trkpt>
      <trkpt lat="49.20947" lon="-0.06868">
        <ele>13.6</ele>
        <time>2024-03-20T13:27:59Z</time>
      </trkpt>
      <trkpt lat="49.20939" lon="-0.06869">
        <ele>13.6</ele>
        <time>2024-03-20T13:28:00Z</time>
      </trkpt>
      <trkpt lat="49.20931" lon="-0.0687">
        <ele>13.6</ele>
        <time>2024-03-20T13:28:01Z</time>
      </trkpt>
      <trkpt lat="49.20922" lon="-0.06869">
        <ele>13.6</ele>
        <time>2024-03-20T13:28:02Z</time>
      </trkpt>
      <trkpt lat="49.20916" lon="-0.06868">
        <ele>13.4</ele>
        <time>2024-03-20T13:28:03Z</time>
      </trkpt>
      <trkpt lat="49.20908" lon="-0.06866">
        <ele>13.4</ele>
        <time>2024-03-20T13:28:04Z</time>
      </trkpt>
      <trkpt lat="49.209" lon="-0.06863">
        <ele>13.4</ele>
        <time>2024-03-20T13:28:05Z</time>
      </trkpt>
      <trkpt lat="49.20893" lon="-0.06859">
        <ele>13.4</ele>
        <time>2024-03-20T13:28:06Z</time>
      </trkpt>
      <trkpt lat="49.20887" lon="-0.06855">
        <ele>13.4</ele>
        <time>2024-03-20T13:28:07Z</time>
      </trkpt>
      <trkpt lat="49.20878" lon="-0.06851">
        <ele>13.4</ele>
        <time>2024-03-20T13:28:08Z</time>
      </trkpt>
      <trkpt lat="49.20872" lon="-0.06849">
        <ele>13.4</ele>
        <time>2024-03-20T13:28:09Z</time>
      </trkpt>
      <trkpt lat="49.20865" lon="-0.06846">
        <ele>13.4</ele>
        <time>2024-03-20T13:28:10Z</time>
      </trkpt>
      <trkpt lat="49.20856" lon="-0.06844">
        <ele>13.4</ele>
        <time>2024-03-20T13:28:11Z</time>
      </trkpt>
      <trkpt lat="49.2085" lon="-0.06843">
        <ele>13.4</ele>
        <time>2024-03-20T13:28:12Z</time>
      </trkpt>
      <trkpt lat="49.20842" lon="-0.06841">
        <ele>13.4</ele>
        <time>2024-03-20T13:28:13Z</time>
      </trkpt>
      <trkpt lat="49.20833" lon="-0.0684">
        <ele>13.4</ele>
        <time>2024-03-20T13:28:14Z</time>
      </trkpt>
      <trkpt lat="49.20825" lon="-0.06838">
        <ele>13.4</ele>
        <time>2024-03-20T13:28:15Z</time>
      </trkpt>
      <trkpt lat="49.20819" lon="-0.06837">
        <ele>13.2</ele>
        <time>2024-03-20T13:28:16Z</time>
      </trkpt>
      <trkpt lat="49.2081" lon="-0.06834">
        <ele>13.2</ele>
        <time>2024-03-20T13:28:17Z</time>
      </trkpt>
      <trkpt lat="49.20802" lon="-0.06831">
        <ele>13.2</ele>
        <time>2024-03-20T13:28:18Z</time>
      </trkpt>
      <trkpt lat="49.20796" lon="-0.06828">
        <ele>13.2</ele>
        <time>2024-03-20T13:28:19Z</time>
      </trkpt>
      <trkpt lat="49.20789" lon="-0.06823">
        <ele>13.2</ele>
        <time>2024-03-20T13:28:20Z</time>
      </trkpt>
      <trkpt lat="49.20782" lon="-0.06818">
        <ele>13.2</ele>
        <time>2024-03-20T13:28:21Z</time>
      </trkpt>
      <trkpt lat="49.20774" lon="-0.06811">
        <ele>13.2</ele>
        <time>2024-03-20T13:28:22Z</time>
      </trkpt>
      <trkpt lat="49.20767" lon="-0.06804">
        <ele>13</ele>
        <time>2024-03-20T13:28:23Z</time>
      </trkpt>
      <trkpt lat="49.2076" lon="-0.06798">
        <ele>13</ele>
        <time>2024-03-20T13:28:24Z</time>
      </trkpt>
      <trkpt lat="49.20755" lon="-0.06792">
        <ele>13</ele>
        <time>2024-03-20T13:28:25Z</time>
      </trkpt>
      <trkpt lat="49.20749" lon="-0.06785">
        <ele>13</ele>
        <time>2024-03-20T13:28:26Z</time>
      </trkpt>
      <trkpt lat="49.20741" lon="-0.06777">
        <ele>13</ele>
        <time>2024-03-20T13:28:27Z</time>
      </trkpt>
      <trkpt lat="49.20736" lon="-0.06772">
        <ele>13</ele>
        <time>2024-03-20T13:28:28Z</time>
      </trkpt>
      <trkpt lat="49.20729" lon="-0.06763">
        <ele>13</ele>
        <time>2024-03-20T13:28:29Z</time>
      </trkpt>
      <trkpt lat="49.20723" lon="-0.06756">
        <ele>13</ele>
        <time>2024-03-20T13:28:30Z</time>
      </trkpt>
      <trkpt lat="49.20717" lon="-0.06751">
        <ele>13</ele>
        <time>2024-03-20T13:28:31Z</time>
      </trkpt>
      <trkpt lat="49.2071" lon="-0.06742">
        <ele>13</ele>
        <time>2024-03-20T13:28:32Z</time>
      </trkpt>
      <trkpt lat="49.20704" lon="-0.06736">
        <ele>13.2</ele>
        <time>2024-03-20T13:28:33Z</time>
      </trkpt>
      <trkpt lat="49.20698" lon="-0.06729">
        <ele>13.2</ele>
        <time>2024-03-20T13:28:34Z</time>
      </trkpt>
      <trkpt lat="49.2069" lon="-0.0672">
        <ele>13.4</ele>
        <time>2024-03-20T13:28:35Z</time>
      </trkpt>
      <trkpt lat="49.20685" lon="-0.06715">
        <ele>13.4</ele>
        <time>2024-03-20T13:28:36Z</time>
      </trkpt>
      <trkpt lat="49.20678" lon="-0.06707">
        <ele>13.6</ele>
        <time>2024-03-20T13:28:37Z</time>
      </trkpt>
      <trkpt lat="49.2067" lon="-0.06698">
        <ele>13.8</ele>
        <time>2024-03-20T13:28:38Z</time>
      </trkpt>
      <trkpt lat="49.20663" lon="-0.06691">
        <ele>13.8</ele>
        <time>2024-03-20T13:28:39Z</time>
      </trkpt>
      <trkpt lat="49.20658" lon="-0.06685">
        <ele>14</ele>
        <time>2024-03-20T13:28:40Z</time>
      </trkpt>
      <trkpt lat="49.20651" lon="-0.06676">
        <ele>14</ele>
        <time>2024-03-20T13:28:41Z</time>
      </trkpt>
      <trkpt lat="49.20646" lon="-0.06669">
        <ele>14</ele>
        <time>2024-03-20T13:28:42Z</time>
      </trkpt>
      <trkpt lat="49.2064" lon="-0.06661">
        <ele>14</ele>
        <time>2024-03-20T13:28:43Z</time>
      </trkpt>
      <trkpt lat="49.20633" lon="-0.06651">
        <ele>14</ele>
        <time>2024-03-20T13:28:44Z</time>
      </trkpt>
      <trkpt lat="49.20627" lon="-0.06643">
        <ele>14</ele>
        <time>2024-03-20T13:28:45Z</time>
      </trkpt>
      <trkpt lat="49.20622" lon="-0.06636">
        <ele>14</ele>
        <time>2024-03-20T13:28:46Z</time>
      </trkpt>
      <trkpt lat="49.20615" lon="-0.06626">
        <ele>14</ele>
        <time>2024-03-20T13:28:47Z</time>
      </trkpt>
      <trkpt lat="49.20609" lon="-0.06617">
        <ele>14</ele>
        <time>2024-03-20T13:28:48Z</time>
      </trkpt>
      <trkpt lat="49.20605" lon="-0.0661">
        <ele>14</ele>
        <time>2024-03-20T13:28:49Z</time>
      </trkpt>
      <trkpt lat="49.20598" lon="-0.06599">
        <ele>14</ele>
        <time>2024-03-20T13:28:50Z</time>
      </trkpt>
      <trkpt lat="49.20593" lon="-0.0659">
        <ele>14</ele>
        <time>2024-03-20T13:28:51Z</time>
      </trkpt>
      <trkpt lat="49.20588" lon="-0.06583">
        <ele>14</ele>
        <time>2024-03-20T13:28:52Z</time>
      </trkpt>
      <trkpt lat="49.20582" lon="-0.06572">
        <ele>14</ele>
        <time>2024-03-20T13:28:53Z</time>
      </trkpt>
      <trkpt lat="49.20577" lon="-0.06565">
        <ele>14.2</ele>
        <time>2024-03-20T13:28:54Z</time>
      </trkpt>
      <trkpt lat="49.20572" lon="-0.06557">
        <ele>14.2</ele>
        <time>2024-03-20T13:28:55Z</time>
      </trkpt>
      <trkpt lat="49.20565" lon="-0.06548">
        <ele>14.2</ele>
        <time>2024-03-20T13:28:56Z</time>
      </trkpt>
      <trkpt lat="49.20558" lon="-0.06541">
        <ele>14.2</ele>
        <time>2024-03-20T13:28:57Z</time>
      </trkpt>
      <trkpt lat="49.20553" lon="-0.06536">
        <ele>14.2</ele>
        <time>2024-03-20T13:28:58Z</time>
      </trkpt>
      <trkpt lat="49.20545" lon="-0.06529">
        <ele>14.2</ele>
        <time>2024-03-20T13:28:59Z</time>
      </trkpt>
      <trkpt lat="49.20537" lon="-0.06523">
        <ele>14.2</ele>
        <time>2024-03-20T13:29:00Z</time>
      </trkpt>
      <trkpt lat="49.2053" lon="-0.06517">
        <ele>14.2</ele>
        <time>2024-03-20T13:29:01Z</time>
      </trkpt>
      <trkpt lat="49.20523" lon="-0.06511">
        <ele>14.2</ele>
        <time>2024-03-20T13:29:02Z</time>
      </trkpt>
      <trkpt lat="49.20517" lon="-0.06506">
        <ele>14</ele>
        <time>2024-03-20T13:29:03Z</time>
      </trkpt>
      <trkpt lat="49.2051" lon="-0.06499">
        <ele>14</ele>
        <time>2024-03-20T13:29:04Z</time>
      </trkpt>
      <trkpt lat="49.20502" lon="-0.06489">
        <ele>14</ele>
        <time>2024-03-20T13:29:05Z</time>
      </trkpt>
      <trkpt lat="49.20496" lon="-0.06481">
        <ele>14</ele>
        <time>2024-03-20T13:29:06Z</time>
      </trkpt>
      <trkpt lat="49.20491" lon="-0.06475">
        <ele>14</ele>
        <time>2024-03-20T13:29:07Z</time>
      </trkpt>
      <trkpt lat="49.20484" lon="-0.06464">
        <ele>14</ele>
        <time>2024-03-20T13:29:08Z</time>
      </trkpt>
      <trkpt lat="49.20478" lon="-0.06456">
        <ele>13.8</ele>
        <time>2024-03-20T13:29:09Z</time>
      </trkpt>
      <trkpt lat="49.20472" lon="-0.06449">
        <ele>13.8</ele>
        <time>2024-03-20T13:29:10Z</time>
      </trkpt>
      <trkpt lat="49.20466" lon="-0.06443">
        <ele>13.8</ele>
        <time>2024-03-20T13:29:11Z</time>
      </trkpt>
      <trkpt lat="49.20458" lon="-0.06435">
        <ele>13.8</ele>
        <time>2024-03-20T13:29:12Z</time>
      </trkpt>
      <trkpt lat="49.20452" lon="-0.06431">
        <ele>13.8</ele>
        <time>2024-03-20T13:29:13Z</time>
      </trkpt>
      <trkpt lat="49.20442" lon="-0.06425">
        <ele>13.8</ele>
        <time>2024-03-20T13:29:14Z</time>
      </trkpt>
      <trkpt lat="49.20435" lon="-0.06421">
        <ele>13.6</ele>
        <time>2024-03-20T13:29:15Z</time>
      </trkpt>
      <trkpt lat="49.20427" lon="-0.06417">
        <ele>13.6</ele>
        <time>2024-03-20T13:29:16Z</time>
      </trkpt>
      <trkpt lat="49.20419" lon="-0.06414">
        <ele>13.6</ele>
        <time>2024-03-20T13:29:17Z</time>
      </trkpt>
      <trkpt lat="49.20411" lon="-0.0641">
        <ele>13.6</ele>
        <time>2024-03-20T13:29:18Z</time>
      </trkpt>
      <trkpt lat="49.20405" lon="-0.06406">
        <ele>13.6</ele>
        <time>2024-03-20T13:29:19Z</time>
      </trkpt>
      <trkpt lat="49.20396" lon="-0.06402">
        <ele>13.6</ele>
        <time>2024-03-20T13:29:20Z</time>
      </trkpt>
      <trkpt lat="49.20388" lon="-0.06398">
        <ele>13.4</ele>
        <time>2024-03-20T13:29:21Z</time>
      </trkpt>
      <trkpt lat="49.20382" lon="-0.06394">
        <ele>13.4</ele>
        <time>2024-03-20T13:29:22Z</time>
      </trkpt>
      <trkpt lat="49.20373" lon="-0.06389">
        <ele>13.4</ele>
        <time>2024-03-20T13:29:23Z</time>
      </trkpt>
      <trkpt lat="49.20367" lon="-0.06386">
        <ele>13.4</ele>
        <time>2024-03-20T13:29:24Z</time>
      </trkpt>
      <trkpt lat="49.2036" lon="-0.06381">
        <ele>13.4</ele>
        <time>2024-03-20T13:29:25Z</time>
      </trkpt>
      <trkpt lat="49.20352" lon="-0.06377">
        <ele>13.4</ele>
        <time>2024-03-20T13:29:26Z</time>
      </trkpt>
      <trkpt lat="49.20345" lon="-0.06373">
        <ele>13.4</ele>
        <time>2024-03-20T13:29:27Z</time>
      </trkpt>
      <trkpt lat="49.20337" lon="-0.06369">
        <ele>13.4</ele>
        <time>2024-03-20T13:29:28Z</time>
      </trkpt>
      <trkpt lat="49.20328" lon="-0.06364">
        <ele>13.4</ele>
        <time>2024-03-20T13:29:29Z</time>
      </trkpt>
      <trkpt lat="49.2032" lon="-0.0636">
        <ele>13.4</ele>
        <time>2024-03-20T13:29:30Z</time>
      </trkpt>
      <trkpt lat="49.20314" lon="-0.06357">
        <ele>13.4</ele>
        <time>2024-03-20T13:29:31Z</time>
      </trkpt>
      <trkpt lat="49.20306" lon="-0.06354">
        <ele>13.4</ele>
        <time>2024-03-20T13:29:32Z</time>
      </trkpt>
      <trkpt lat="49.20297" lon="-0.06349">
        <ele>13.4</ele>
        <time>2024-03-20T13:29:33Z</time>
      </trkpt>
      <trkpt lat="49.20291" lon="-0.06346">
        <ele>13.4</ele>
        <time>2024-03-20T13:29:34Z</time>
      </trkpt>
      <trkpt lat="49.20283" lon="-0.06343">
        <ele>13.4</ele>
        <time>2024-03-20T13:29:35Z</time>
      </trkpt>
      <trkpt lat="49.20274" lon="-0.0634">
        <ele>13.4</ele>
        <time>2024-03-20T13:29:36Z</time>
      </trkpt>
      <trkpt lat="49.20267" lon="-0.06337">
        <ele>13.4</ele>
        <time>2024-03-20T13:29:37Z</time>
      </trkpt>
      <trkpt lat="49.20259" lon="-0.06334">
        <ele>13.4</ele>
        <time>2024-03-20T13:29:38Z</time>
      </trkpt>
      <trkpt lat="49.20251" lon="-0.0633">
        <ele>13.4</ele>
        <time>2024-03-20T13:29:39Z</time>
      </trkpt>
      <trkpt lat="49.20245" lon="-0.06327">
        <ele>13.4</ele>
        <time>2024-03-20T13:29:40Z</time>
      </trkpt>
      <trkpt lat="49.20236" lon="-0.06322">
        <ele>13.4</ele>
        <time>2024-03-20T13:29:41Z</time>
      </trkpt>
      <trkpt lat="49.20228" lon="-0.06319">
        <ele>13.2</ele>
        <time>2024-03-20T13:29:42Z</time>
      </trkpt>
      <trkpt lat="49.20222" lon="-0.06316">
        <ele>13.2</ele>
        <time>2024-03-20T13:29:43Z</time>
      </trkpt>
      <trkpt lat="49.20213" lon="-0.06312">
        <ele>13.2</ele>
        <time>2024-03-20T13:29:44Z</time>
      </trkpt>
      <trkpt lat="49.20205" lon="-0.0631">
        <ele>13</ele>
        <time>2024-03-20T13:29:45Z</time>
      </trkpt>
      <trkpt lat="49.20198" lon="-0.0631">
        <ele>13</ele>
        <time>2024-03-20T13:29:46Z</time>
      </trkpt>
      <trkpt lat="49.2019" lon="-0.06312">
        <ele>13</ele>
        <time>2024-03-20T13:29:47Z</time>
      </trkpt>
      <trkpt lat="49.2018" lon="-0.06318">
        <ele>13</ele>
        <time>2024-03-20T13:29:48Z</time>
      </trkpt>
      <trkpt lat="49.20175" lon="-0.06324">
        <ele>13.2</ele>
        <time>2024-03-20T13:29:49Z</time>
      </trkpt>
      <trkpt lat="49.20167" lon="-0.06333">
        <ele>13</ele>
        <time>2024-03-20T13:29:50Z</time>
      </trkpt>
      <trkpt lat="49.20161" lon="-0.06341">
        <ele>13</ele>
        <time>2024-03-20T13:29:51Z</time>
      </trkpt>
      <trkpt lat="49.20156" lon="-0.06348">
        <ele>13</ele>
        <time>2024-03-20T13:29:52Z</time>
      </trkpt>
      <trkpt lat="49.20149" lon="-0.06359">
        <ele>13</ele>
        <time>2024-03-20T13:29:53Z</time>
      </trkpt>
      <trkpt lat="49.20144" lon="-0.06367">
        <ele>13</ele>
        <time>2024-03-20T13:29:54Z</time>
      </trkpt>
      <trkpt lat="49.2014" lon="-0.06374">
        <ele>13</ele>
        <time>2024-03-20T13:29:55Z</time>
      </trkpt>
      <trkpt lat="49.20133" lon="-0.06385">
        <ele>12.8</ele>
        <time>2024-03-20T13:29:56Z</time>
      </trkpt>
      <trkpt lat="49.20129" lon="-0.06394">
        <ele>12.8</ele>
        <time>2024-03-20T13:29:57Z</time>
      </trkpt>
      <trkpt lat="49.20125" lon="-0.06402">
        <ele>12.8</ele>
        <time>2024-03-20T13:29:58Z</time>
      </trkpt>
      <trkpt lat="49.20121" lon="-0.06413">
        <ele>12.8</ele>
        <time>2024-03-20T13:29:59Z</time>
      </trkpt>
      <trkpt lat="49.20116" lon="-0.06425">
        <ele>12.8</ele>
        <time>2024-03-20T13:30:00Z</time>
      </trkpt>
      <trkpt lat="49.20113" lon="-0.06434">
        <ele>12.8</ele>
        <time>2024-03-20T13:30:01Z</time>
      </trkpt>
      <trkpt lat="49.20108" lon="-0.06446">
        <ele>12.8</ele>
        <time>2024-03-20T13:30:02Z</time>
      </trkpt>
      <trkpt lat="49.20103" lon="-0.06453">
        <ele>12.8</ele>
        <time>2024-03-20T13:30:03Z</time>
      </trkpt>
      <trkpt lat="49.20097" lon="-0.06461">
        <ele>12.6</ele>
        <time>2024-03-20T13:30:04Z</time>
      </trkpt>
      <trkpt lat="49.20089" lon="-0.0647">
        <ele>12.6</ele>
        <time>2024-03-20T13:30:05Z</time>
      </trkpt>
      <trkpt lat="49.20083" lon="-0.06476">
        <ele>12.6</ele>
        <time>2024-03-20T13:30:06Z</time>
      </trkpt>
      <trkpt lat="49.20077" lon="-0.06481">
        <ele>12.6</ele>
        <time>2024-03-20T13:30:07Z</time>
      </trkpt>
      <trkpt lat="49.2007" lon="-0.06487">
        <ele>12.6</ele>
        <time>2024-03-20T13:30:08Z</time>
      </trkpt>
      <trkpt lat="49.20063" lon="-0.06494">
        <ele>12.6</ele>
        <time>2024-03-20T13:30:09Z</time>
      </trkpt>
      <trkpt lat="49.20055" lon="-0.06502">
        <ele>12.6</ele>
        <time>2024-03-20T13:30:10Z</time>
      </trkpt>
      <trkpt lat="49.20049" lon="-0.06508">
        <ele>12.6</ele>
        <time>2024-03-20T13:30:11Z</time>
      </trkpt>
      <trkpt lat="49.20041" lon="-0.06517">
        <ele>12.6</ele>
        <time>2024-03-20T13:30:12Z</time>
      </trkpt>
      <trkpt lat="49.20036" lon="-0.06522">
        <ele>12.6</ele>
        <time>2024-03-20T13:30:13Z</time>
      </trkpt>
      <trkpt lat="49.20028" lon="-0.06531">
        <ele>12.6</ele>
        <time>2024-03-20T13:30:14Z</time>
      </trkpt>
      <trkpt lat="49.20022" lon="-0.06537">
        <ele>12.6</ele>
        <time>2024-03-20T13:30:15Z</time>
      </trkpt>
      <trkpt lat="49.20016" lon="-0.06542">
        <ele>12.4</ele>
        <time>2024-03-20T13:30:16Z</time>
      </trkpt>
      <trkpt lat="49.20007" lon="-0.06548">
        <ele>12.4</ele>
        <time>2024-03-20T13:30:17Z</time>
      </trkpt>
      <trkpt lat="49.2" lon="-0.06552">
        <ele>12.4</ele>
        <time>2024-03-20T13:30:18Z</time>
      </trkpt>
      <trkpt lat="49.19994" lon="-0.06555">
        <ele>12.4</ele>
        <time>2024-03-20T13:30:19Z</time>
      </trkpt>
      <trkpt lat="49.19986" lon="-0.06557">
        <ele>12.2</ele>
        <time>2024-03-20T13:30:20Z</time>
      </trkpt>
      <trkpt lat="49.19976" lon="-0.06559">
        <ele>12.2</ele>
        <time>2024-03-20T13:30:21Z</time>
      </trkpt>
      <trkpt lat="49.1997" lon="-0.06559">
        <ele>12.2</ele>
        <time>2024-03-20T13:30:22Z</time>
      </trkpt>
      <trkpt lat="49.19961" lon="-0.0656">
        <ele>12.2</ele>
        <time>2024-03-20T13:30:23Z</time>
      </trkpt>
      <trkpt lat="49.19953" lon="-0.0656">
        <ele>12.2</ele>
        <time>2024-03-20T13:30:24Z</time>
      </trkpt>
      <trkpt lat="49.19946" lon="-0.0656">
        <ele>12.2</ele>
        <time>2024-03-20T13:30:25Z</time>
      </trkpt>
      <trkpt lat="49.19937" lon="-0.06561">
        <ele>12.2</ele>
        <time>2024-03-20T13:30:26Z</time>
      </trkpt>
      <trkpt lat="49.19929" lon="-0.06562">
        <ele>12.2</ele>
        <time>2024-03-20T13:30:27Z</time>
      </trkpt>
      <trkpt lat="49.19922" lon="-0.06562">
        <ele>12.2</ele>
        <time>2024-03-20T13:30:28Z</time>
      </trkpt>
      <trkpt lat="49.19914" lon="-0.06562">
        <ele>12.2</ele>
        <time>2024-03-20T13:30:29Z</time>
      </trkpt>
      <trkpt lat="49.19906" lon="-0.06562">
        <ele>12.2</ele>
        <time>2024-03-20T13:30:30Z</time>
      </trkpt>
      <trkpt lat="49.19898" lon="-0.06562">
        <ele>12.2</ele>
        <time>2024-03-20T13:30:31Z</time>
      </trkpt>
      <trkpt lat="49.19889" lon="-0.06561">
        <ele>12.2</ele>
        <time>2024-03-20T13:30:32Z</time>
      </trkpt>
      <trkpt lat="49.19881" lon="-0.0656">
        <ele>12.4</ele>
        <time>2024-03-20T13:30:33Z</time>
      </trkpt>
      <trkpt lat="49.19875" lon="-0.06559">
        <ele>12.4</ele>
        <time>2024-03-20T13:30:34Z</time>
      </trkpt>
      <trkpt lat="49.19867" lon="-0.06556">
        <ele>12.4</ele>
        <time>2024-03-20T13:30:35Z</time>
      </trkpt>
      <trkpt lat="49.19862" lon="-0.06554">
        <ele>12.4</ele>
        <time>2024-03-20T13:30:36Z</time>
      </trkpt>
      <trkpt lat="49.19855" lon="-0.06551">
        <ele>12.4</ele>
        <time>2024-03-20T13:30:37Z</time>
      </trkpt>
      <trkpt lat="49.19848" lon="-0.06547">
        <ele>12.4</ele>
        <time>2024-03-20T13:30:38Z</time>
      </trkpt>
      <trkpt lat="49.19843" lon="-0.06545">
        <ele>12.4</ele>
        <time>2024-03-20T13:30:39Z</time>
      </trkpt>
      <trkpt lat="49.19838" lon="-0.06544">
        <ele>12.4</ele>
        <time>2024-03-20T13:30:40Z</time>
      </trkpt>
      <trkpt lat="49.19832" lon="-0.06546">
        <ele>12.4</ele>
        <time>2024-03-20T13:30:41Z</time>
      </trkpt>
      <trkpt lat="49.19828" lon="-0.06552">
        <ele>12.4</ele>
        <time>2024-03-20T13:30:42Z</time>
      </trkpt>
      <trkpt lat="49.19827" lon="-0.06558">
        <ele>12.4</ele>
        <time>2024-03-20T13:30:43Z</time>
      </trkpt>
      <trkpt lat="49.19824" lon="-0.06569">
        <ele>12.4</ele>
        <time>2024-03-20T13:30:44Z</time>
      </trkpt>
      <trkpt lat="49.19823" lon="-0.06579">
        <ele>12.4</ele>
        <time>2024-03-20T13:30:45Z</time>
      </trkpt>
      <trkpt lat="49.19822" lon="-0.06588">
        <ele>12.4</ele>
        <time>2024-03-20T13:30:46Z</time>
      </trkpt>
      <trkpt lat="49.19821" lon="-0.06601">
        <ele>12.4</ele>
        <time>2024-03-20T13:30:47Z</time>
      </trkpt>
      <trkpt lat="49.19819" lon="-0.0661">
        <ele>12.4</ele>
        <time>2024-03-20T13:30:48Z</time>
      </trkpt>
      <trkpt lat="49.19817" lon="-0.06622">
        <ele>12.4</ele>
        <time>2024-03-20T13:30:49Z</time>
      </trkpt>
      <trkpt lat="49.19814" lon="-0.0663">
        <ele>12.4</ele>
        <time>2024-03-20T13:30:50Z</time>
      </trkpt>
      <trkpt lat="49.1981" lon="-0.0664">
        <ele>12.4</ele>
        <time>2024-03-20T13:30:51Z</time>
      </trkpt>
      <trkpt lat="49.19806" lon="-0.0665">
        <ele>12.2</ele>
        <time>2024-03-20T13:30:52Z</time>
      </trkpt>
      <trkpt lat="49.19802" lon="-0.06659">
        <ele>12.2</ele>
        <time>2024-03-20T13:30:53Z</time>
      </trkpt>
      <trkpt lat="49.19796" lon="-0.0667">
        <ele>12.2</ele>
        <time>2024-03-20T13:30:54Z</time>
      </trkpt>
      <trkpt lat="49.19792" lon="-0.06678">
        <ele>12.2</ele>
        <time>2024-03-20T13:30:55Z</time>
      </trkpt>
      <trkpt lat="49.19788" lon="-0.06684">
        <ele>12</ele>
        <time>2024-03-20T13:30:56Z</time>
      </trkpt>
      <trkpt lat="49.19781" lon="-0.06693">
        <ele>11.6</ele>
        <time>2024-03-20T13:30:57Z</time>
      </trkpt>
      <trkpt lat="49.19775" lon="-0.06699">
        <ele>11.6</ele>
        <time>2024-03-20T13:30:58Z</time>
      </trkpt>
      <trkpt lat="49.1977" lon="-0.06703">
        <ele>11.6</ele>
        <time>2024-03-20T13:30:59Z</time>
      </trkpt>
      <trkpt lat="49.19763" lon="-0.0671">
        <ele>11.4</ele>
        <time>2024-03-20T13:31:00Z</time>
      </trkpt>
      <trkpt lat="49.19756" lon="-0.06716">
        <ele>11.4</ele>
        <time>2024-03-20T13:31:01Z</time>
      </trkpt>
      <trkpt lat="49.19752" lon="-0.06721">
        <ele>11.4</ele>
        <time>2024-03-20T13:31:02Z</time>
      </trkpt>
      <trkpt lat="49.19744" lon="-0.06726">
        <ele>11.4</ele>
        <time>2024-03-20T13:31:03Z</time>
      </trkpt>
      <trkpt lat="49.19737" lon="-0.0673">
        <ele>11.2</ele>
        <time>2024-03-20T13:31:04Z</time>
      </trkpt>
      <trkpt lat="49.19731" lon="-0.06733">
        <ele>11.2</ele>
        <time>2024-03-20T13:31:05Z</time>
      </trkpt>
      <trkpt lat="49.19723" lon="-0.06738">
        <ele>11.2</ele>
        <time>2024-03-20T13:31:06Z</time>
      </trkpt>
      <trkpt lat="49.19716" lon="-0.06742">
        <ele>11.2</ele>
        <time>2024-03-20T13:31:07Z</time>
      </trkpt>
      <trkpt lat="49.1971" lon="-0.06745">
        <ele>11.2</ele>
        <time>2024-03-20T13:31:08Z</time>
      </trkpt>
      <trkpt lat="49.19702" lon="-0.0675">
        <ele>11.2</ele>
        <time>2024-03-20T13:31:09Z</time>
      </trkpt>
      <trkpt lat="49.19695" lon="-0.06754">
        <ele>11.2</ele>
        <time>2024-03-20T13:31:10Z</time>
      </trkpt>
      <trkpt lat="49.1969" lon="-0.06758">
        <ele>11.2</ele>
        <time>2024-03-20T13:31:11Z</time>
      </trkpt>
      <trkpt lat="49.19683" lon="-0.06762">
        <ele>11.2</ele>
        <time>2024-03-20T13:31:12Z</time>
      </trkpt>
      <trkpt lat="49.19676" lon="-0.06767">
        <ele>11.2</ele>
        <time>2024-03-20T13:31:13Z</time>
      </trkpt>
      <trkpt lat="49.19669" lon="-0.06772">
        <ele>11.2</ele>
        <time>2024-03-20T13:31:14Z</time>
      </trkpt>
      <trkpt lat="49.1966" lon="-0.06778">
        <ele>11.2</ele>
        <time>2024-03-20T13:31:15Z</time>
      </trkpt>
      <trkpt lat="49.19653" lon="-0.06783">
        <ele>11.4</ele>
        <time>2024-03-20T13:31:16Z</time>
      </trkpt>
      <trkpt lat="49.19647" lon="-0.06787">
        <ele>11.4</ele>
        <time>2024-03-20T13:31:17Z</time>
      </trkpt>
      <trkpt lat="49.19639" lon="-0.06794">
        <ele>11.4</ele>
        <time>2024-03-20T13:31:18Z</time>
      </trkpt>
      <trkpt lat="49.19633" lon="-0.06798">
        <ele>11.4</ele>
        <time>2024-03-20T13:31:19Z</time>
      </trkpt>
      <trkpt lat="49.19626" lon="-0.06804">
        <ele>11.4</ele>
        <time>2024-03-20T13:31:20Z</time>
      </trkpt>
      <trkpt lat="49.19618" lon="-0.06811">
        <ele>11.4</ele>
        <time>2024-03-20T13:31:21Z</time>
      </trkpt>
      <trkpt lat="49.19611" lon="-0.06818">
        <ele>11.4</ele>
        <time>2024-03-20T13:31:22Z</time>
      </trkpt>
      <trkpt lat="49.19604" lon="-0.06825">
        <ele>11.4</ele>
        <time>2024-03-20T13:31:23Z</time>
      </trkpt>
      <trkpt lat="49.19597" lon="-0.06831">
        <ele>11.4</ele>
        <time>2024-03-20T13:31:24Z</time>
      </trkpt>
      <trkpt lat="49.1959" lon="-0.06838">
        <ele>11.4</ele>
        <time>2024-03-20T13:31:25Z</time>
      </trkpt>
      <trkpt lat="49.19584" lon="-0.06843">
        <ele>11.4</ele>
        <time>2024-03-20T13:31:26Z</time>
      </trkpt>
      <trkpt lat="49.19576" lon="-0.06852">
        <ele>11.4</ele>
        <time>2024-03-20T13:31:27Z</time>
      </trkpt>
      <trkpt lat="49.1957" lon="-0.06857">
        <ele>11.4</ele>
        <time>2024-03-20T13:31:28Z</time>
      </trkpt>
      <trkpt lat="49.19564" lon="-0.06864">
        <ele>11.4</ele>
        <time>2024-03-20T13:31:29Z</time>
      </trkpt>
      <trkpt lat="49.19555" lon="-0.06872">
        <ele>11.4</ele>
        <time>2024-03-20T13:31:30Z</time>
      </trkpt>
      <trkpt lat="49.19549" lon="-0.06878">
        <ele>11.4</ele>
        <time>2024-03-20T13:31:31Z</time>
      </trkpt>
      <trkpt lat="49.19543" lon="-0.06884">
        <ele>11.4</ele>
        <time>2024-03-20T13:31:32Z</time>
      </trkpt>
      <trkpt lat="49.19536" lon="-0.0689">
        <ele>11.2</ele>
        <time>2024-03-20T13:31:33Z</time>
      </trkpt>
      <trkpt lat="49.19529" lon="-0.06896">
        <ele>11.2</ele>
        <time>2024-03-20T13:31:34Z</time>
      </trkpt>
      <trkpt lat="49.19522" lon="-0.06902">
        <ele>11.2</ele>
        <time>2024-03-20T13:31:35Z</time>
      </trkpt>
      <trkpt lat="49.19515" lon="-0.06909">
        <ele>11.2</ele>
        <time>2024-03-20T13:31:36Z</time>
      </trkpt>
      <trkpt lat="49.19509" lon="-0.06915">
        <ele>11.2</ele>
        <time>2024-03-20T13:31:37Z</time>
      </trkpt>
      <trkpt lat="49.195" lon="-0.06923">
        <ele>11.2</ele>
        <time>2024-03-20T13:31:38Z</time>
      </trkpt>
      <trkpt lat="49.19495" lon="-0.06927">
        <ele>11.2</ele>
        <time>2024-03-20T13:31:39Z</time>
      </trkpt>
      <trkpt lat="49.19487" lon="-0.06933">
        <ele>11.2</ele>
        <time>2024-03-20T13:31:40Z</time>
      </trkpt>
      <trkpt lat="49.1948" lon="-0.06938">
        <ele>11.2</ele>
        <time>2024-03-20T13:31:41Z</time>
      </trkpt>
      <trkpt lat="49.19474" lon="-0.06941">
        <ele>11.2</ele>
        <time>2024-03-20T13:31:42Z</time>
      </trkpt>
      <trkpt lat="49.19466" lon="-0.06947">
        <ele>11.2</ele>
        <time>2024-03-20T13:31:43Z</time>
      </trkpt>
      <trkpt lat="49.1946" lon="-0.06952">
        <ele>11.4</ele>
        <time>2024-03-20T13:31:44Z</time>
      </trkpt>
      <trkpt lat="49.19453" lon="-0.06956">
        <ele>11.4</ele>
        <time>2024-03-20T13:31:45Z</time>
      </trkpt>
      <trkpt lat="49.19447" lon="-0.0696">
        <ele>11.6</ele>
        <time>2024-03-20T13:31:46Z</time>
      </trkpt>
      <trkpt lat="49.1944" lon="-0.06964">
        <ele>11.8</ele>
        <time>2024-03-20T13:31:47Z</time>
      </trkpt>
      <trkpt lat="49.19435" lon="-0.06967">
        <ele>12</ele>
        <time>2024-03-20T13:31:48Z</time>
      </trkpt>
      <trkpt lat="49.19428" lon="-0.06971">
        <ele>12</ele>
        <time>2024-03-20T13:31:49Z</time>
      </trkpt>
      <trkpt lat="49.1942" lon="-0.06976">
        <ele>12.2</ele>
        <time>2024-03-20T13:31:50Z</time>
      </trkpt>
      <trkpt lat="49.19414" lon="-0.0698">
        <ele>12.4</ele>
        <time>2024-03-20T13:31:51Z</time>
      </trkpt>
      <trkpt lat="49.19406" lon="-0.06985">
        <ele>12.8</ele>
        <time>2024-03-20T13:31:52Z</time>
      </trkpt>
      <trkpt lat="49.19397" lon="-0.0699">
        <ele>13.2</ele>
        <time>2024-03-20T13:31:53Z</time>
      </trkpt>
      <trkpt lat="49.19391" lon="-0.06994">
        <ele>13.4</ele>
        <time>2024-03-20T13:31:54Z</time>
      </trkpt>
      <trkpt lat="49.19383" lon="-0.07">
        <ele>13.4</ele>
        <time>2024-03-20T13:31:55Z</time>
      </trkpt>
      <trkpt lat="49.19375" lon="-0.07005">
        <ele>13.6</ele>
        <time>2024-03-20T13:31:56Z</time>
      </trkpt>
      <trkpt lat="49.19367" lon="-0.0701">
        <ele>13.6</ele>
        <time>2024-03-20T13:31:57Z</time>
      </trkpt>
      <trkpt lat="49.19358" lon="-0.07017">
        <ele>13.6</ele>
        <time>2024-03-20T13:31:58Z</time>
      </trkpt>
      <trkpt lat="49.1935" lon="-0.07023">
        <ele>13.6</ele>
        <time>2024-03-20T13:31:59Z</time>
      </trkpt>
      <trkpt lat="49.19343" lon="-0.07028">
        <ele>13.6</ele>
        <time>2024-03-20T13:32:00Z</time>
      </trkpt>
      <trkpt lat="49.19334" lon="-0.07035">
        <ele>13.6</ele>
        <time>2024-03-20T13:32:01Z</time>
      </trkpt>
      <trkpt lat="49.19326" lon="-0.07042">
        <ele>13.6</ele>
        <time>2024-03-20T13:32:02Z</time>
      </trkpt>
      <trkpt lat="49.19319" lon="-0.07047">
        <ele>13.6</ele>
        <time>2024-03-20T13:32:03Z</time>
      </trkpt>
      <trkpt lat="49.19311" lon="-0.07055">
        <ele>13.6</ele>
        <time>2024-03-20T13:32:04Z</time>
      </trkpt>
      <trkpt lat="49.19301" lon="-0.07064">
        <ele>13.2</ele>
        <time>2024-03-20T13:32:05Z</time>
      </trkpt>
      <trkpt lat="49.19294" lon="-0.07069">
        <ele>13</ele>
        <time>2024-03-20T13:32:06Z</time>
      </trkpt>
      <trkpt lat="49.19286" lon="-0.07077">
        <ele>12.4</ele>
        <time>2024-03-20T13:32:07Z</time>
      </trkpt>
      <trkpt lat="49.19278" lon="-0.07086">
        <ele>12.4</ele>
        <time>2024-03-20T13:32:08Z</time>
      </trkpt>
      <trkpt lat="49.19272" lon="-0.07092">
        <ele>12</ele>
        <time>2024-03-20T13:32:09Z</time>
      </trkpt>
      <trkpt lat="49.19263" lon="-0.07101">
        <ele>11.6</ele>
        <time>2024-03-20T13:32:10Z</time>
      </trkpt>
      <trkpt lat="49.19256" lon="-0.07109">
        <ele>11</ele>
        <time>2024-03-20T13:32:11Z</time>
      </trkpt>
      <trkpt lat="49.19251" lon="-0.07115">
        <ele>10.6</ele>
        <time>2024-03-20T13:32:12Z</time>
      </trkpt>
      <trkpt lat="49.19243" lon="-0.07124">
        <ele>10.6</ele>
        <time>2024-03-20T13:32:13Z</time>
      </trkpt>
      <trkpt lat="49.19236" lon="-0.07131">
        <ele>10.4</ele>
        <time>2024-03-20T13:32:14Z</time>
      </trkpt>
      <trkpt lat="49.19231" lon="-0.07136">
        <ele>10.2</ele>
        <time>2024-03-20T13:32:15Z</time>
      </trkpt>
      <trkpt lat="49.19224" lon="-0.07143">
        <ele>10.2</ele>
        <time>2024-03-20T13:32:16Z</time>
      </trkpt>
      <trkpt lat="49.19218" lon="-0.0715">
        <ele>10.2</ele>
        <time>2024-03-20T13:32:17Z</time>
      </trkpt>
      <trkpt lat="49.19212" lon="-0.07157">
        <ele>10.2</ele>
        <time>2024-03-20T13:32:18Z</time>
      </trkpt>
      <trkpt lat="49.19204" lon="-0.07165">
        <ele>10.2</ele>
        <time>2024-03-20T13:32:19Z</time>
      </trkpt>
      <trkpt lat="49.19199" lon="-0.07171">
        <ele>10.2</ele>
        <time>2024-03-20T13:32:20Z</time>
      </trkpt>
      <trkpt lat="49.19193" lon="-0.07177">
        <ele>10.2</ele>
        <time>2024-03-20T13:32:21Z</time>
      </trkpt>
      <trkpt lat="49.19186" lon="-0.07185">
        <ele>10.2</ele>
        <time>2024-03-20T13:32:22Z</time>
      </trkpt>
      <trkpt lat="49.19179" lon="-0.07191">
        <ele>10.2</ele>
        <time>2024-03-20T13:32:23Z</time>
      </trkpt>
      <trkpt lat="49.19174" lon="-0.07197">
        <ele>10.2</ele>
        <time>2024-03-20T13:32:24Z</time>
      </trkpt>
      <trkpt lat="49.19167" lon="-0.07205">
        <ele>10.6</ele>
        <time>2024-03-20T13:32:25Z</time>
      </trkpt>
      <trkpt lat="49.1916" lon="-0.07212">
        <ele>10.6</ele>
        <time>2024-03-20T13:32:26Z</time>
      </trkpt>
      <trkpt lat="49.19155" lon="-0.07217">
        <ele>10.8</ele>
        <time>2024-03-20T13:32:27Z</time>
      </trkpt>
      <trkpt lat="49.19148" lon="-0.07225">
        <ele>10.8</ele>
        <time>2024-03-20T13:32:28Z</time>
      </trkpt>
      <trkpt lat="49.19143" lon="-0.07231">
        <ele>10.8</ele>
        <time>2024-03-20T13:32:29Z</time>
      </trkpt>
      <trkpt lat="49.19137" lon="-0.07238">
        <ele>11</ele>
        <time>2024-03-20T13:32:30Z</time>
      </trkpt>
      <trkpt lat="49.1913" lon="-0.07246">
        <ele>11</ele>
        <time>2024-03-20T13:32:31Z</time>
      </trkpt>
      <trkpt lat="49.19124" lon="-0.07253">
        <ele>11</ele>
        <time>2024-03-20T13:32:32Z</time>
      </trkpt>
      <trkpt lat="49.19118" lon="-0.07258">
        <ele>11.2</ele>
        <time>2024-03-20T13:32:33Z</time>
      </trkpt>
      <trkpt lat="49.19111" lon="-0.07265">
        <ele>11.4</ele>
        <time>2024-03-20T13:32:34Z</time>
      </trkpt>
      <trkpt lat="49.19104" lon="-0.07272">
        <ele>11.4</ele>
        <time>2024-03-20T13:32:35Z</time>
      </trkpt>
      <trkpt lat="49.19099" lon="-0.07277">
        <ele>11.6</ele>
        <time>2024-03-20T13:32:36Z</time>
      </trkpt>
      <trkpt lat="49.19093" lon="-0.07283">
        <ele>11.6</ele>
        <time>2024-03-20T13:32:37Z</time>
      </trkpt>
      <trkpt lat="49.19087" lon="-0.0729">
        <ele>11.6</ele>
        <time>2024-03-20T13:32:38Z</time>
      </trkpt>
      <trkpt lat="49.19081" lon="-0.07296">
        <ele>11.8</ele>
        <time>2024-03-20T13:32:39Z</time>
      </trkpt>
      <trkpt lat="49.19075" lon="-0.07303">
        <ele>11.8</ele>
        <time>2024-03-20T13:32:40Z</time>
      </trkpt>
      <trkpt lat="49.19069" lon="-0.07308">
        <ele>12</ele>
        <time>2024-03-20T13:32:41Z</time>
      </trkpt>
      <trkpt lat="49.19065" lon="-0.07313">
        <ele>12.2</ele>
        <time>2024-03-20T13:32:42Z</time>
      </trkpt>
      <trkpt lat="49.19058" lon="-0.07319">
        <ele>12.4</ele>
        <time>2024-03-20T13:32:43Z</time>
      </trkpt>
      <trkpt lat="49.19053" lon="-0.07325">
        <ele>12.6</ele>
        <time>2024-03-20T13:32:44Z</time>
      </trkpt>
      <trkpt lat="49.19049" lon="-0.07329">
        <ele>13</ele>
        <time>2024-03-20T13:32:45Z</time>
      </trkpt>
      <trkpt lat="49.19043" lon="-0.07336">
        <ele>13.2</ele>
        <time>2024-03-20T13:32:46Z</time>
      </trkpt>
      <trkpt lat="49.19038" lon="-0.07341">
        <ele>13.2</ele>
        <time>2024-03-20T13:32:47Z</time>
      </trkpt>
      <trkpt lat="49.19034" lon="-0.07345">
        <ele>13.4</ele>
        <time>2024-03-20T13:32:48Z</time>
      </trkpt>
      <trkpt lat="49.19028" lon="-0.07352">
        <ele>13.8</ele>
        <time>2024-03-20T13:32:49Z</time>
      </trkpt>
      <trkpt lat="49.19023" lon="-0.07356">
        <ele>14</ele>
        <time>2024-03-20T13:32:50Z</time>
      </trkpt>
      <trkpt lat="49.1902" lon="-0.0736">
        <ele>14.2</ele>
        <time>2024-03-20T13:32:51Z</time>
      </trkpt>
      <trkpt lat="49.19016" lon="-0.07364">
        <ele>14.4</ele>
        <time>2024-03-20T13:32:52Z</time>
      </trkpt>
      <trkpt lat="49.19011" lon="-0.0737">
        <ele>14.6</ele>
        <time>2024-03-20T13:32:53Z</time>
      </trkpt>
      <trkpt lat="49.19008" lon="-0.07372">
        <ele>14.6</ele>
        <time>2024-03-20T13:32:54Z</time>
      </trkpt>
      <trkpt lat="49.19003" lon="-0.07376">
        <ele>14.6</ele>
        <time>2024-03-20T13:32:55Z</time>
      </trkpt>
      <trkpt lat="49.19" lon="-0.07376">
        <ele>14.8</ele>
        <time>2024-03-20T13:32:56Z</time>
      </trkpt>
      <trkpt lat="49.18996" lon="-0.07375">
        <ele>15.2</ele>
        <time>2024-03-20T13:32:57Z</time>
      </trkpt>
      <trkpt lat="49.18993" lon="-0.0737">
        <ele>15.4</ele>
        <time>2024-03-20T13:32:58Z</time>
      </trkpt>
      <trkpt lat="49.18992" lon="-0.07364">
        <ele>15.6</ele>
        <time>2024-03-20T13:32:59Z</time>
      </trkpt>
      <trkpt lat="49.1899" lon="-0.07355">
        <ele>15.8</ele>
        <time>2024-03-20T13:33:00Z</time>
      </trkpt>
      <trkpt lat="49.18988" lon="-0.07347">
        <ele>15.8</ele>
        <time>2024-03-20T13:33:01Z</time>
      </trkpt>
      <trkpt lat="49.18985" lon="-0.07338">
        <ele>15.8</ele>
        <time>2024-03-20T13:33:02Z</time>
      </trkpt>
      <trkpt lat="49.18982" lon="-0.07331">
        <ele>15.8</ele>
        <time>2024-03-20T13:33:03Z</time>
      </trkpt>
      <trkpt lat="49.18977" lon="-0.07326">
        <ele>15.8</ele>
        <time>2024-03-20T13:33:04Z</time>
      </trkpt>
      <trkpt lat="49.18971" lon="-0.07325">
        <ele>15.8</ele>
        <time>2024-03-20T13:33:05Z</time>
      </trkpt>
      <trkpt lat="49.18966" lon="-0.07328">
        <ele>15.8</ele>
        <time>2024-03-20T13:33:06Z</time>
      </trkpt>
      <trkpt lat="49.18962" lon="-0.07334">
        <ele>16</ele>
        <time>2024-03-20T13:33:07Z</time>
      </trkpt>
      <trkpt lat="49.18957" lon="-0.07342">
        <ele>16</ele>
        <time>2024-03-20T13:33:08Z</time>
      </trkpt>
      <trkpt lat="49.18954" lon="-0.07347">
        <ele>16</ele>
        <time>2024-03-20T13:33:09Z</time>
      </trkpt>
      <trkpt lat="49.18949" lon="-0.07356">
        <ele>16.2</ele>
        <time>2024-03-20T13:33:10Z</time>
      </trkpt>
      <trkpt lat="49.18945" lon="-0.07363">
        <ele>16.2</ele>
        <time>2024-03-20T13:33:11Z</time>
      </trkpt>
      <trkpt lat="49.1894" lon="-0.07368">
        <ele>16.2</ele>
        <time>2024-03-20T13:33:12Z</time>
      </trkpt>
      <trkpt lat="49.18935" lon="-0.07374">
        <ele>16.2</ele>
        <time>2024-03-20T13:33:13Z</time>
      </trkpt>
      <trkpt lat="49.18927" lon="-0.07381">
        <ele>16.2</ele>
        <time>2024-03-20T13:33:14Z</time>
      </trkpt>
      <trkpt lat="49.18922" lon="-0.07384">
        <ele>16.2</ele>
        <time>2024-03-20T13:33:15Z</time>
      </trkpt>
      <trkpt lat="49.18914" lon="-0.07389">
        <ele>16</ele>
        <time>2024-03-20T13:33:16Z</time>
      </trkpt>
      <trkpt lat="49.18907" lon="-0.07392">
        <ele>16</ele>
        <time>2024-03-20T13:33:17Z</time>
      </trkpt>
      <trkpt lat="49.18902" lon="-0.07395">
        <ele>16</ele>
        <time>2024-03-20T13:33:18Z</time>
      </trkpt>
      <trkpt lat="49.18893" lon="-0.074">
        <ele>15.8</ele>
        <time>2024-03-20T13:33:19Z</time>
      </trkpt>
      <trkpt lat="49.18888" lon="-0.07403">
        <ele>15.8</ele>
        <time>2024-03-20T13:33:20Z</time>
      </trkpt>
      <trkpt lat="49.18881" lon="-0.07407">
        <ele>15.8</ele>
        <time>2024-03-20T13:33:21Z</time>
      </trkpt>
      <trkpt lat="49.18873" lon="-0.07412">
        <ele>15.8</ele>
        <time>2024-03-20T13:33:22Z</time>
      </trkpt>
      <trkpt lat="49.18865" lon="-0.07415">
        <ele>15.8</ele>
        <time>2024-03-20T13:33:23Z</time>
      </trkpt>
      <trkpt lat="49.1886" lon="-0.07418">
        <ele>16</ele>
        <time>2024-03-20T13:33:24Z</time>
      </trkpt>
      <trkpt lat="49.18851" lon="-0.07423">
        <ele>16</ele>
        <time>2024-03-20T13:33:25Z</time>
      </trkpt>
      <trkpt lat="49.18844" lon="-0.07427">
        <ele>16</ele>
        <time>2024-03-20T13:33:26Z</time>
      </trkpt>
      <trkpt lat="49.18837" lon="-0.07431">
        <ele>16</ele>
        <time>2024-03-20T13:33:27Z</time>
      </trkpt>
      <trkpt lat="49.1883" lon="-0.07434">
        <ele>16.2</ele>
        <time>2024-03-20T13:33:28Z</time>
      </trkpt>
      <trkpt lat="49.18824" lon="-0.07437">
        <ele>16.2</ele>
        <time>2024-03-20T13:33:29Z</time>
      </trkpt>
      <trkpt lat="49.18817" lon="-0.0744">
        <ele>16.2</ele>
        <time>2024-03-20T13:33:30Z</time>
      </trkpt>
      <trkpt lat="49.18811" lon="-0.07443">
        <ele>16.2</ele>
        <time>2024-03-20T13:33:31Z</time>
      </trkpt>
      <trkpt lat="49.18802" lon="-0.07445">
        <ele>16.4</ele>
        <time>2024-03-20T13:33:32Z</time>
      </trkpt>
      <trkpt lat="49.18796" lon="-0.07445">
        <ele>16.4</ele>
        <time>2024-03-20T13:33:33Z</time>
      </trkpt>
      <trkpt lat="49.18788" lon="-0.07445">
        <ele>16.6</ele>
        <time>2024-03-20T13:33:34Z</time>
      </trkpt>
      <trkpt lat="49.1878" lon="-0.07443">
        <ele>16.8</ele>
        <time>2024-03-20T13:33:35Z</time>
      </trkpt>
      <trkpt lat="49.18775" lon="-0.07442">
        <ele>17.2</ele>
        <time>2024-03-20T13:33:36Z</time>
      </trkpt>
      <trkpt lat="49.18768" lon="-0.0744">
        <ele>17.2</ele>
        <time>2024-03-20T13:33:37Z</time>
      </trkpt>
      <trkpt lat="49.1876" lon="-0.07436">
        <ele>17.6</ele>
        <time>2024-03-20T13:33:38Z</time>
      </trkpt>
      <trkpt lat="49.18755" lon="-0.07434">
        <ele>17.8</ele>
        <time>2024-03-20T13:33:39Z</time>
      </trkpt>
      <trkpt lat="49.18748" lon="-0.07431">
        <ele>17.8</ele>
        <time>2024-03-20T13:33:40Z</time>
      </trkpt>
      <trkpt lat="49.18743" lon="-0.07429">
        <ele>18.2</ele>
        <time>2024-03-20T13:33:41Z</time>
      </trkpt>
      <trkpt lat="49.18736" lon="-0.07429">
        <ele>18.4</ele>
        <time>2024-03-20T13:33:42Z</time>
      </trkpt>
      <trkpt lat="49.18729" lon="-0.07431">
        <ele>18.6</ele>
        <time>2024-03-20T13:33:43Z</time>
      </trkpt>
      <trkpt lat="49.18723" lon="-0.07435">
        <ele>18.6</ele>
        <time>2024-03-20T13:33:44Z</time>
      </trkpt>
      <trkpt lat="49.18718" lon="-0.07438">
        <ele>18.6</ele>
        <time>2024-03-20T13:33:45Z</time>
      </trkpt>
      <trkpt lat="49.1871" lon="-0.07443">
        <ele>18.8</ele>
        <time>2024-03-20T13:33:46Z</time>
      </trkpt>
      <trkpt lat="49.18704" lon="-0.07447">
        <ele>18.8</ele>
        <time>2024-03-20T13:33:47Z</time>
      </trkpt>
      <trkpt lat="49.18698" lon="-0.0745">
        <ele>19</ele>
        <time>2024-03-20T13:33:48Z</time>
      </trkpt>
      <trkpt lat="49.18691" lon="-0.07454">
        <ele>19</ele>
        <time>2024-03-20T13:33:49Z</time>
      </trkpt>
      <trkpt lat="49.18684" lon="-0.07458">
        <ele>19</ele>
        <time>2024-03-20T13:33:50Z</time>
      </trkpt>
      <trkpt lat="49.18678" lon="-0.0746">
        <ele>19.2</ele>
        <time>2024-03-20T13:33:51Z</time>
      </trkpt>
      <trkpt lat="49.18672" lon="-0.07462">
        <ele>19.2</ele>
        <time>2024-03-20T13:33:52Z</time>
      </trkpt>
      <trkpt lat="49.18664" lon="-0.07465">
        <ele>19.2</ele>
        <time>2024-03-20T13:33:53Z</time>
      </trkpt>
      <trkpt lat="49.18658" lon="-0.07468">
        <ele>19.4</ele>
        <time>2024-03-20T13:33:54Z</time>
      </trkpt>
      <trkpt lat="49.1865" lon="-0.07472">
        <ele>19.4</ele>
        <time>2024-03-20T13:33:55Z</time>
      </trkpt>
      <trkpt lat="49.18644" lon="-0.07474">
        <ele>19.6</ele>
        <time>2024-03-20T13:33:56Z</time>
      </trkpt>
      <trkpt lat="49.18637" lon="-0.07478">
        <ele>19.8</ele>
        <time>2024-03-20T13:33:57Z</time>
      </trkpt>
      <trkpt lat="49.18628" lon="-0.07482">
        <ele>20</ele>
        <time>2024-03-20T13:33:58Z</time>
      </trkpt>
      <trkpt lat="49.1862" lon="-0.07486">
        <ele>20</ele>
        <time>2024-03-20T13:33:59Z</time>
      </trkpt>
      <trkpt lat="49.18614" lon="-0.07489">
        <ele>20.2</ele>
        <time>2024-03-20T13:34:00Z</time>
      </trkpt>
      <trkpt lat="49.18605" lon="-0.07495">
        <ele>20.2</ele>
        <time>2024-03-20T13:34:01Z</time>
      </trkpt>
      <trkpt lat="49.18598" lon="-0.075">
        <ele>20.2</ele>
        <time>2024-03-20T13:34:02Z</time>
      </trkpt>
      <trkpt lat="49.18593" lon="-0.07504">
        <ele>20.4</ele>
        <time>2024-03-20T13:34:03Z</time>
      </trkpt>
      <trkpt lat="49.18586" lon="-0.0751">
        <ele>20.4</ele>
        <time>2024-03-20T13:34:04Z</time>
      </trkpt>
      <trkpt lat="49.18579" lon="-0.07515">
        <ele>20.4</ele>
        <time>2024-03-20T13:34:05Z</time>
      </trkpt>
      <trkpt lat="49.18572" lon="-0.07522">
        <ele>20.4</ele>
        <time>2024-03-20T13:34:06Z</time>
      </trkpt>
      <trkpt lat="49.18563" lon="-0.07529">
        <ele>20.4</ele>
        <time>2024-03-20T13:34:07Z</time>
      </trkpt>
      <trkpt lat="49.18556" lon="-0.07535">
        <ele>20.4</ele>
        <time>2024-03-20T13:34:08Z</time>
      </trkpt>
      <trkpt lat="49.18551" lon="-0.0754">
        <ele>20.6</ele>
        <time>2024-03-20T13:34:09Z</time>
      </trkpt>
      <trkpt lat="49.18544" lon="-0.07547">
        <ele>20.6</ele>
        <time>2024-03-20T13:34:10Z</time>
      </trkpt>
      <trkpt lat="49.18538" lon="-0.07552">
        <ele>20.8</ele>
        <time>2024-03-20T13:34:11Z</time>
      </trkpt>
      <trkpt lat="49.18533" lon="-0.07556">
        <ele>20.8</ele>
        <time>2024-03-20T13:34:12Z</time>
      </trkpt>
      <trkpt lat="49.18525" lon="-0.07562">
        <ele>21</ele>
        <time>2024-03-20T13:34:13Z</time>
      </trkpt>
      <trkpt lat="49.18521" lon="-0.07566">
        <ele>21</ele>
        <time>2024-03-20T13:34:14Z</time>
      </trkpt>
      <trkpt lat="49.18514" lon="-0.07573">
        <ele>21</ele>
        <time>2024-03-20T13:34:15Z</time>
      </trkpt>
      <trkpt lat="49.18507" lon="-0.07579">
        <ele>21</ele>
        <time>2024-03-20T13:34:16Z</time>
      </trkpt>
      <trkpt lat="49.18502" lon="-0.07583">
        <ele>21</ele>
        <time>2024-03-20T13:34:17Z</time>
      </trkpt>
      <trkpt lat="49.18494" lon="-0.0759">
        <ele>21</ele>
        <time>2024-03-20T13:34:18Z</time>
      </trkpt>
      <trkpt lat="49.18489" lon="-0.07595">
        <ele>21</ele>
        <time>2024-03-20T13:34:19Z</time>
      </trkpt>
      <trkpt lat="49.18482" lon="-0.07601">
        <ele>21</ele>
        <time>2024-03-20T13:34:20Z</time>
      </trkpt>
      <trkpt lat="49.18475" lon="-0.07609">
        <ele>21</ele>
        <time>2024-03-20T13:34:21Z</time>
      </trkpt>
      <trkpt lat="49.1847" lon="-0.07614">
        <ele>21</ele>
        <time>2024-03-20T13:34:22Z</time>
      </trkpt>
      <trkpt lat="49.18464" lon="-0.07619">
        <ele>21</ele>
        <time>2024-03-20T13:34:23Z</time>
      </trkpt>
      <trkpt lat="49.18458" lon="-0.07625">
        <ele>20.6</ele>
        <time>2024-03-20T13:34:24Z</time>
      </trkpt>
      <trkpt lat="49.18452" lon="-0.07632">
        <ele>20.4</ele>
        <time>2024-03-20T13:34:25Z</time>
      </trkpt>
      <trkpt lat="49.18445" lon="-0.0764">
        <ele>20</ele>
        <time>2024-03-20T13:34:26Z</time>
      </trkpt>
      <trkpt lat="49.18441" lon="-0.07646">
        <ele>20</ele>
        <time>2024-03-20T13:34:27Z</time>
      </trkpt>
      <trkpt lat="49.18434" lon="-0.07651">
        <ele>20</ele>
        <time>2024-03-20T13:34:28Z</time>
      </trkpt>
      <trkpt lat="49.18427" lon="-0.07658">
        <ele>19.8</ele>
        <time>2024-03-20T13:34:29Z</time>
      </trkpt>
      <trkpt lat="49.18423" lon="-0.07663">
        <ele>19.8</ele>
        <time>2024-03-20T13:34:30Z</time>
      </trkpt>
      <trkpt lat="49.18416" lon="-0.07669">
        <ele>19.8</ele>
        <time>2024-03-20T13:34:31Z</time>
      </trkpt>
      <trkpt lat="49.1841" lon="-0.07675">
        <ele>19.8</ele>
        <time>2024-03-20T13:34:32Z</time>
      </trkpt>
      <trkpt lat="49.18404" lon="-0.07679">
        <ele>19.8</ele>
        <time>2024-03-20T13:34:33Z</time>
      </trkpt>
      <trkpt lat="49.18397" lon="-0.07684">
        <ele>19.8</ele>
        <time>2024-03-20T13:34:34Z</time>
      </trkpt>
      <trkpt lat="49.18391" lon="-0.0769">
        <ele>19.8</ele>
        <time>2024-03-20T13:34:35Z</time>
      </trkpt>
      <trkpt lat="49.18386" lon="-0.07694">
        <ele>19.8</ele>
        <time>2024-03-20T13:34:36Z</time>
      </trkpt>
      <trkpt lat="49.18381" lon="-0.07699">
        <ele>19.8</ele>
        <time>2024-03-20T13:34:37Z</time>
      </trkpt>
      <trkpt lat="49.18374" lon="-0.07706">
        <ele>19.8</ele>
        <time>2024-03-20T13:34:38Z</time>
      </trkpt>
      <trkpt lat="49.1837" lon="-0.07711">
        <ele>19.8</ele>
        <time>2024-03-20T13:34:39Z</time>
      </trkpt>
      <trkpt lat="49.18363" lon="-0.07717">
        <ele>20</ele>
        <time>2024-03-20T13:34:40Z</time>
      </trkpt>
      <trkpt lat="49.18357" lon="-0.07722">
        <ele>20</ele>
        <time>2024-03-20T13:34:41Z</time>
      </trkpt>
      <trkpt lat="49.18352" lon="-0.07726">
        <ele>20.2</ele>
        <time>2024-03-20T13:34:42Z</time>
      </trkpt>
      <trkpt lat="49.18345" lon="-0.07732">
        <ele>20.4</ele>
        <time>2024-03-20T13:34:43Z</time>
      </trkpt>
      <trkpt lat="49.18339" lon="-0.07737">
        <ele>20.8</ele>
        <time>2024-03-20T13:34:44Z</time>
      </trkpt>
      <trkpt lat="49.18335" lon="-0.07741">
        <ele>20.8</ele>
        <time>2024-03-20T13:34:45Z</time>
      </trkpt>
      <trkpt lat="49.1833" lon="-0.07747">
        <ele>21</ele>
        <time>2024-03-20T13:34:46Z</time>
      </trkpt>
      <trkpt lat="49.18324" lon="-0.07754">
        <ele>21</ele>
        <time>2024-03-20T13:34:47Z</time>
      </trkpt>
      <trkpt lat="49.1832" lon="-0.07759">
        <ele>21.2</ele>
        <time>2024-03-20T13:34:48Z</time>
      </trkpt>
      <trkpt lat="49.18313" lon="-0.07766">
        <ele>21.2</ele>
        <time>2024-03-20T13:34:49Z</time>
      </trkpt>
      <trkpt lat="49.18307" lon="-0.07773">
        <ele>21.2</ele>
        <time>2024-03-20T13:34:50Z</time>
      </trkpt>
      <trkpt lat="49.18303" lon="-0.07777">
        <ele>21.4</ele>
        <time>2024-03-20T13:34:51Z</time>
      </trkpt>
      <trkpt lat="49.18298" lon="-0.07784">
        <ele>21.6</ele>
        <time>2024-03-20T13:34:52Z</time>
      </trkpt>
      <trkpt lat="49.18294" lon="-0.07789">
        <ele>22</ele>
        <time>2024-03-20T13:34:53Z</time>
      </trkpt>
      <trkpt lat="49.18291" lon="-0.07793">
        <ele>22.2</ele>
        <time>2024-03-20T13:34:54Z</time>
      </trkpt>
      <trkpt lat="49.18286" lon="-0.07799">
        <ele>22.4</ele>
        <time>2024-03-20T13:34:55Z</time>
      </trkpt>
      <trkpt lat="49.18283" lon="-0.07803">
        <ele>22.6</ele>
        <time>2024-03-20T13:34:56Z</time>
      </trkpt>
      <trkpt lat="49.18279" lon="-0.07807">
        <ele>22.8</ele>
        <time>2024-03-20T13:34:57Z</time>
      </trkpt>
      <trkpt lat="49.18274" lon="-0.07814">
        <ele>23</ele>
        <time>2024-03-20T13:34:58Z</time>
      </trkpt>
      <trkpt lat="49.18269" lon="-0.0782">
        <ele>23.2</ele>
        <time>2024-03-20T13:34:59Z</time>
      </trkpt>
      <trkpt lat="49.18264" lon="-0.07824">
        <ele>23.4</ele>
        <time>2024-03-20T13:35:00Z</time>
      </trkpt>
      <trkpt lat="49.18259" lon="-0.07832">
        <ele>23.6</ele>
        <time>2024-03-20T13:35:01Z</time>
      </trkpt>
      <trkpt lat="49.18254" lon="-0.07838">
        <ele>23.6</ele>
        <time>2024-03-20T13:35:02Z</time>
      </trkpt>
      <trkpt lat="49.1825" lon="-0.07843">
        <ele>23.8</ele>
        <time>2024-03-20T13:35:03Z</time>
      </trkpt>
      <trkpt lat="49.18245" lon="-0.0785">
        <ele>23.8</ele>
        <time>2024-03-20T13:35:04Z</time>
      </trkpt>
      <trkpt lat="49.18241" lon="-0.07854">
        <ele>23.8</ele>
        <time>2024-03-20T13:35:05Z</time>
      </trkpt>
      <trkpt lat="49.18237" lon="-0.0786">
        <ele>23.8</ele>
        <time>2024-03-20T13:35:06Z</time>
      </trkpt>
      <trkpt lat="49.18233" lon="-0.07865">
        <ele>24</ele>
        <time>2024-03-20T13:35:07Z</time>
      </trkpt>
      <trkpt lat="49.18228" lon="-0.0787">
        <ele>24</ele>
        <time>2024-03-20T13:35:08Z</time>
      </trkpt>
      <trkpt lat="49.18223" lon="-0.07876">
        <ele>24</ele>
        <time>2024-03-20T13:35:09Z</time>
      </trkpt>
      <trkpt lat="49.18218" lon="-0.07881">
        <ele>24</ele>
        <time>2024-03-20T13:35:10Z</time>
      </trkpt>
      <trkpt lat="49.18214" lon="-0.07886">
        <ele>24</ele>
        <time>2024-03-20T13:35:11Z</time>
      </trkpt>
      <trkpt lat="49.1821" lon="-0.0789">
        <ele>24.2</ele>
        <time>2024-03-20T13:35:12Z</time>
      </trkpt>
      <trkpt lat="49.18206" lon="-0.07894">
        <ele>24.2</ele>
        <time>2024-03-20T13:35:13Z</time>
      </trkpt>
      <trkpt lat="49.18201" lon="-0.07898">
        <ele>24.2</ele>
        <time>2024-03-20T13:35:14Z</time>
      </trkpt>
      <trkpt lat="49.18198" lon="-0.07901">
        <ele>24.4</ele>
        <time>2024-03-20T13:35:15Z</time>
      </trkpt>
      <trkpt lat="49.18193" lon="-0.07904">
        <ele>24.6</ele>
        <time>2024-03-20T13:35:16Z</time>
      </trkpt>
      <trkpt lat="49.18189" lon="-0.07906">
        <ele>24.8</ele>
        <time>2024-03-20T13:35:17Z</time>
      </trkpt>
      <trkpt lat="49.18186" lon="-0.07906">
        <ele>24.8</ele>
        <time>2024-03-20T13:35:18Z</time>
      </trkpt>
      <trkpt lat="49.18182" lon="-0.07903">
        <ele>25</ele>
        <time>2024-03-20T13:35:19Z</time>
      </trkpt>
      <trkpt lat="49.1818" lon="-0.07897">
        <ele>25</ele>
        <time>2024-03-20T13:35:20Z</time>
      </trkpt>
      <trkpt lat="49.18179" lon="-0.0789">
        <ele>25</ele>
        <time>2024-03-20T13:35:21Z</time>
      </trkpt>
      <trkpt lat="49.18177" lon="-0.07882">
        <ele>25.4</ele>
        <time>2024-03-20T13:35:22Z</time>
      </trkpt>
      <trkpt lat="49.18175" lon="-0.07871">
        <ele>25.8</ele>
        <time>2024-03-20T13:35:23Z</time>
      </trkpt>
      <trkpt lat="49.18174" lon="-0.07864">
        <ele>26</ele>
        <time>2024-03-20T13:35:24Z</time>
      </trkpt>
      <trkpt lat="49.18172" lon="-0.07852">
        <ele>26</ele>
        <time>2024-03-20T13:35:25Z</time>
      </trkpt>
      <trkpt lat="49.18171" lon="-0.07842">
        <ele>26</ele>
        <time>2024-03-20T13:35:26Z</time>
      </trkpt>
      <trkpt lat="49.18169" lon="-0.07834">
        <ele>26</ele>
        <time>2024-03-20T13:35:27Z</time>
      </trkpt>
      <trkpt lat="49.18167" lon="-0.07821">
        <ele>26</ele>
        <time>2024-03-20T13:35:28Z</time>
      </trkpt>
      <trkpt lat="49.18166" lon="-0.07813">
        <ele>26.2</ele>
        <time>2024-03-20T13:35:29Z</time>
      </trkpt>
      <trkpt lat="49.18164" lon="-0.07802">
        <ele>26.2</ele>
        <time>2024-03-20T13:35:30Z</time>
      </trkpt>
      <trkpt lat="49.18162" lon="-0.07788">
        <ele>26.2</ele>
        <time>2024-03-20T13:35:31Z</time>
      </trkpt>
      <trkpt lat="49.18161" lon="-0.07777">
        <ele>26.2</ele>
        <time>2024-03-20T13:35:32Z</time>
      </trkpt>
      <trkpt lat="49.1816" lon="-0.07767">
        <ele>26.2</ele>
        <time>2024-03-20T13:35:33Z</time>
      </trkpt>
      <trkpt lat="49.18158" lon="-0.07753">
        <ele>26.2</ele>
        <time>2024-03-20T13:35:34Z</time>
      </trkpt>
      <trkpt lat="49.18156" lon="-0.07741">
        <ele>26</ele>
        <time>2024-03-20T13:35:35Z</time>
      </trkpt>
      <trkpt lat="49.18154" lon="-0.07732">
        <ele>26</ele>
        <time>2024-03-20T13:35:36Z</time>
      </trkpt>
      <trkpt lat="49.18151" lon="-0.07717">
        <ele>26</ele>
        <time>2024-03-20T13:35:37Z</time>
      </trkpt>
      <trkpt lat="49.18149" lon="-0.07707">
        <ele>25.8</ele>
        <time>2024-03-20T13:35:38Z</time>
      </trkpt>
      <trkpt lat="49.18146" lon="-0.07695">
        <ele>25.8</ele>
        <time>2024-03-20T13:35:39Z</time>
      </trkpt>
      <trkpt lat="49.18143" lon="-0.07681">
        <ele>25.8</ele>
        <time>2024-03-20T13:35:40Z</time>
      </trkpt>
      <trkpt lat="49.1814" lon="-0.0767">
        <ele>25.6</ele>
        <time>2024-03-20T13:35:41Z</time>
      </trkpt>
      <trkpt lat="49.18136" lon="-0.07661">
        <ele>25.6</ele>
        <time>2024-03-20T13:35:42Z</time>
      </trkpt>
      <trkpt lat="49.18132" lon="-0.07648">
        <ele>25.4</ele>
        <time>2024-03-20T13:35:43Z</time>
      </trkpt>
      <trkpt lat="49.18129" lon="-0.07637">
        <ele>25.4</ele>
        <time>2024-03-20T13:35:44Z</time>
      </trkpt>
      <trkpt lat="49.18126" lon="-0.07628">
        <ele>25.2</ele>
        <time>2024-03-20T13:35:45Z</time>
      </trkpt>
      <trkpt lat="49.18121" lon="-0.07615">
        <ele>25.2</ele>
        <time>2024-03-20T13:35:46Z</time>
      </trkpt>
      <trkpt lat="49.18119" lon="-0.07606">
        <ele>25.2</ele>
        <time>2024-03-20T13:35:47Z</time>
      </trkpt>
      <trkpt lat="49.18115" lon="-0.07596">
        <ele>25</ele>
        <time>2024-03-20T13:35:48Z</time>
      </trkpt>
      <trkpt lat="49.18111" lon="-0.07583">
        <ele>25</ele>
        <time>2024-03-20T13:35:49Z</time>
      </trkpt>
      <trkpt lat="49.18108" lon="-0.07574">
        <ele>25</ele>
        <time>2024-03-20T13:35:50Z</time>
      </trkpt>
      <trkpt lat="49.18104" lon="-0.07563">
        <ele>25</ele>
        <time>2024-03-20T13:35:51Z</time>
      </trkpt>
      <trkpt lat="49.181" lon="-0.0755">
        <ele>25</ele>
        <time>2024-03-20T13:35:52Z</time>
      </trkpt>
      <trkpt lat="49.18097" lon="-0.07539">
        <ele>25</ele>
        <time>2024-03-20T13:35:53Z</time>
      </trkpt>
      <trkpt lat="49.18094" lon="-0.0753">
        <ele>24.8</ele>
        <time>2024-03-20T13:35:54Z</time>
      </trkpt>
      <trkpt lat="49.18089" lon="-0.07517">
        <ele>24.6</ele>
        <time>2024-03-20T13:35:55Z</time>
      </trkpt>
      <trkpt lat="49.18086" lon="-0.07507">
        <ele>24.6</ele>
        <time>2024-03-20T13:35:56Z</time>
      </trkpt>
      <trkpt lat="49.18083" lon="-0.07499">
        <ele>24.4</ele>
        <time>2024-03-20T13:35:57Z</time>
      </trkpt>
      <trkpt lat="49.18079" lon="-0.07488">
        <ele>24.4</ele>
        <time>2024-03-20T13:35:58Z</time>
      </trkpt>
      <trkpt lat="49.18076" lon="-0.07478">
        <ele>24.4</ele>
        <time>2024-03-20T13:35:59Z</time>
      </trkpt>
      <trkpt lat="49.18072" lon="-0.07468">
        <ele>24.4</ele>
        <time>2024-03-20T13:36:00Z</time>
      </trkpt>
      <trkpt lat="49.18068" lon="-0.07456">
        <ele>24.4</ele>
        <time>2024-03-20T13:36:01Z</time>
      </trkpt>
      <trkpt lat="49.18065" lon="-0.07448">
        <ele>24.4</ele>
        <time>2024-03-20T13:36:02Z</time>
      </trkpt>
      <trkpt lat="49.18061" lon="-0.07438">
        <ele>24.4</ele>
        <time>2024-03-20T13:36:03Z</time>
      </trkpt>
      <trkpt lat="49.18056" lon="-0.07426">
        <ele>24.4</ele>
        <time>2024-03-20T13:36:04Z</time>
      </trkpt>
      <trkpt lat="49.18052" lon="-0.07418">
        <ele>24.4</ele>
        <time>2024-03-20T13:36:05Z</time>
      </trkpt>
      <trkpt lat="49.18048" lon="-0.07408">
        <ele>24.4</ele>
        <time>2024-03-20T13:36:06Z</time>
      </trkpt>
      <trkpt lat="49.18043" lon="-0.07397">
        <ele>24.4</ele>
        <time>2024-03-20T13:36:07Z</time>
      </trkpt>
      <trkpt lat="49.18038" lon="-0.07387">
        <ele>24.4</ele>
        <time>2024-03-20T13:36:08Z</time>
      </trkpt>
      <trkpt lat="49.18034" lon="-0.07379">
        <ele>24.4</ele>
        <time>2024-03-20T13:36:09Z</time>
      </trkpt>
      <trkpt lat="49.18029" lon="-0.07368">
        <ele>24.4</ele>
        <time>2024-03-20T13:36:10Z</time>
      </trkpt>
      <trkpt lat="49.18024" lon="-0.07358">
        <ele>24.4</ele>
        <time>2024-03-20T13:36:11Z</time>
      </trkpt>
      <trkpt lat="49.1802" lon="-0.0735">
        <ele>24.6</ele>
        <time>2024-03-20T13:36:12Z</time>
      </trkpt>
      <trkpt lat="49.18016" lon="-0.07341">
        <ele>24.6</ele>
        <time>2024-03-20T13:36:13Z</time>
      </trkpt>
      <trkpt lat="49.18011" lon="-0.07332">
        <ele>24.6</ele>
        <time>2024-03-20T13:36:14Z</time>
      </trkpt>
      <trkpt lat="49.18007" lon="-0.07322">
        <ele>24.6</ele>
        <time>2024-03-20T13:36:15Z</time>
      </trkpt>
      <trkpt lat="49.18001" lon="-0.07311">
        <ele>24.8</ele>
        <time>2024-03-20T13:36:16Z</time>
      </trkpt>
      <trkpt lat="49.17997" lon="-0.07302">
        <ele>24.8</ele>
        <time>2024-03-20T13:36:17Z</time>
      </trkpt>
      <trkpt lat="49.17994" lon="-0.07295">
        <ele>24.8</ele>
        <time>2024-03-20T13:36:18Z</time>
      </trkpt>
      <trkpt lat="49.17988" lon="-0.07283">
        <ele>24.8</ele>
        <time>2024-03-20T13:36:19Z</time>
      </trkpt>
      <trkpt lat="49.17984" lon="-0.07274">
        <ele>24.8</ele>
        <time>2024-03-20T13:36:20Z</time>
      </trkpt>
      <trkpt lat="49.1798" lon="-0.07266">
        <ele>24.8</ele>
        <time>2024-03-20T13:36:21Z</time>
      </trkpt>
      <trkpt lat="49.17975" lon="-0.07257">
        <ele>24.8</ele>
        <time>2024-03-20T13:36:22Z</time>
      </trkpt>
      <trkpt lat="49.1797" lon="-0.07246">
        <ele>25</ele>
        <time>2024-03-20T13:36:23Z</time>
      </trkpt>
      <trkpt lat="49.17966" lon="-0.07238">
        <ele>25</ele>
        <time>2024-03-20T13:36:24Z</time>
      </trkpt>
      <trkpt lat="49.17961" lon="-0.07227">
        <ele>25.2</ele>
        <time>2024-03-20T13:36:25Z</time>
      </trkpt>
      <trkpt lat="49.17956" lon="-0.07217">
        <ele>25.4</ele>
        <time>2024-03-20T13:36:26Z</time>
      </trkpt>
      <trkpt lat="49.17953" lon="-0.0721">
        <ele>25.4</ele>
        <time>2024-03-20T13:36:27Z</time>
      </trkpt>
      <trkpt lat="49.17949" lon="-0.072">
        <ele>25.6</ele>
        <time>2024-03-20T13:36:28Z</time>
      </trkpt>
      <trkpt lat="49.17944" lon="-0.07188">
        <ele>25.8</ele>
        <time>2024-03-20T13:36:29Z</time>
      </trkpt>
      <trkpt lat="49.1794" lon="-0.07181">
        <ele>26</ele>
        <time>2024-03-20T13:36:30Z</time>
      </trkpt>
      <trkpt lat="49.17936" lon="-0.07171">
        <ele>26</ele>
        <time>2024-03-20T13:36:31Z</time>
      </trkpt>
      <trkpt lat="49.17931" lon="-0.07159">
        <ele>26</ele>
        <time>2024-03-20T13:36:32Z</time>
      </trkpt>
      <trkpt lat="49.17927" lon="-0.07152">
        <ele>26.2</ele>
        <time>2024-03-20T13:36:33Z</time>
      </trkpt>
      <trkpt lat="49.17922" lon="-0.07142">
        <ele>26.2</ele>
        <time>2024-03-20T13:36:34Z</time>
      </trkpt>
      <trkpt lat="49.17917" lon="-0.0713">
        <ele>26.2</ele>
        <time>2024-03-20T13:36:35Z</time>
      </trkpt>
      <trkpt lat="49.17912" lon="-0.07121">
        <ele>26.2</ele>
        <time>2024-03-20T13:36:36Z</time>
      </trkpt>
      <trkpt lat="49.17908" lon="-0.07113">
        <ele>26.2</ele>
        <time>2024-03-20T13:36:37Z</time>
      </trkpt>
      <trkpt lat="49.17904" lon="-0.07103">
        <ele>26.2</ele>
        <time>2024-03-20T13:36:38Z</time>
      </trkpt>
      <trkpt lat="49.17898" lon="-0.07091">
        <ele>26.2</ele>
        <time>2024-03-20T13:36:39Z</time>
      </trkpt>
      <trkpt lat="49.17894" lon="-0.07083">
        <ele>26.2</ele>
        <time>2024-03-20T13:36:40Z</time>
      </trkpt>
      <trkpt lat="49.1789" lon="-0.07073">
        <ele>26.2</ele>
        <time>2024-03-20T13:36:41Z</time>
      </trkpt>
      <trkpt lat="49.17885" lon="-0.07063">
        <ele>26.2</ele>
        <time>2024-03-20T13:36:42Z</time>
      </trkpt>
      <trkpt lat="49.1788" lon="-0.07053">
        <ele>26.2</ele>
        <time>2024-03-20T13:36:43Z</time>
      </trkpt>
      <trkpt lat="49.17875" lon="-0.07041">
        <ele>26.2</ele>
        <time>2024-03-20T13:36:44Z</time>
      </trkpt>
      <trkpt lat="49.1787" lon="-0.07031">
        <ele>26.2</ele>
        <time>2024-03-20T13:36:45Z</time>
      </trkpt>
      <trkpt lat="49.17866" lon="-0.07024">
        <ele>26.2</ele>
        <time>2024-03-20T13:36:46Z</time>
      </trkpt>
      <trkpt lat="49.17861" lon="-0.07012">
        <ele>26.2</ele>
        <time>2024-03-20T13:36:47Z</time>
      </trkpt>
      <trkpt lat="49.17856" lon="-0.07002">
        <ele>26.2</ele>
        <time>2024-03-20T13:36:48Z</time>
      </trkpt>
      <trkpt lat="49.17852" lon="-0.06995">
        <ele>26.2</ele>
        <time>2024-03-20T13:36:49Z</time>
      </trkpt>
      <trkpt lat="49.17847" lon="-0.06983">
        <ele>26.2</ele>
        <time>2024-03-20T13:36:50Z</time>
      </trkpt>
      <trkpt lat="49.17844" lon="-0.06976">
        <ele>26.2</ele>
        <time>2024-03-20T13:36:51Z</time>
      </trkpt>
      <trkpt lat="49.1784" lon="-0.06966">
        <ele>26.2</ele>
        <time>2024-03-20T13:36:52Z</time>
      </trkpt>
      <trkpt lat="49.17834" lon="-0.06955">
        <ele>26.2</ele>
        <time>2024-03-20T13:36:53Z</time>
      </trkpt>
      <trkpt lat="49.1783" lon="-0.06948">
        <ele>26.2</ele>
        <time>2024-03-20T13:36:54Z</time>
      </trkpt>
      <trkpt lat="49.17825" lon="-0.0694">
        <ele>26.2</ele>
        <time>2024-03-20T13:36:55Z</time>
      </trkpt>
      <trkpt lat="49.1782" lon="-0.06932">
        <ele>26.2</ele>
        <time>2024-03-20T13:36:56Z</time>
      </trkpt>
      <trkpt lat="49.17814" lon="-0.06924">
        <ele>26.2</ele>
        <time>2024-03-20T13:36:57Z</time>
      </trkpt>
      <trkpt lat="49.17808" lon="-0.06916">
        <ele>26.2</ele>
        <time>2024-03-20T13:36:58Z</time>
      </trkpt>
      <trkpt lat="49.17801" lon="-0.06907">
        <ele>26.2</ele>
        <time>2024-03-20T13:36:59Z</time>
      </trkpt>
      <trkpt lat="49.17794" lon="-0.06898">
        <ele>26.2</ele>
        <time>2024-03-20T13:37:00Z</time>
      </trkpt>
      <trkpt lat="49.17789" lon="-0.06892">
        <ele>26.2</ele>
        <time>2024-03-20T13:37:01Z</time>
      </trkpt>
      <trkpt lat="49.17781" lon="-0.06882">
        <ele>26.2</ele>
        <time>2024-03-20T13:37:02Z</time>
      </trkpt>
      <trkpt lat="49.17775" lon="-0.06875">
        <ele>26.2</ele>
        <time>2024-03-20T13:37:03Z</time>
      </trkpt>
      <trkpt lat="49.1777" lon="-0.06869">
        <ele>26.2</ele>
        <time>2024-03-20T13:37:04Z</time>
      </trkpt>
      <trkpt lat="49.17763" lon="-0.06859">
        <ele>26.2</ele>
        <time>2024-03-20T13:37:05Z</time>
      </trkpt>
      <trkpt lat="49.17758" lon="-0.06853">
        <ele>26.2</ele>
        <time>2024-03-20T13:37:06Z</time>
      </trkpt>
      <trkpt lat="49.17752" lon="-0.06845">
        <ele>26.2</ele>
        <time>2024-03-20T13:37:07Z</time>
      </trkpt>
      <trkpt lat="49.17745" lon="-0.06836">
        <ele>26.2</ele>
        <time>2024-03-20T13:37:08Z</time>
      </trkpt>
      <trkpt lat="49.17738" lon="-0.06828">
        <ele>26.2</ele>
        <time>2024-03-20T13:37:09Z</time>
      </trkpt>
      <trkpt lat="49.17733" lon="-0.06822">
        <ele>26</ele>
        <time>2024-03-20T13:37:10Z</time>
      </trkpt>
      <trkpt lat="49.17726" lon="-0.06813">
        <ele>26</ele>
        <time>2024-03-20T13:37:11Z</time>
      </trkpt>
      <trkpt lat="49.1772" lon="-0.06806">
        <ele>26</ele>
        <time>2024-03-20T13:37:12Z</time>
      </trkpt>
      <trkpt lat="49.17715" lon="-0.068">
        <ele>26</ele>
        <time>2024-03-20T13:37:13Z</time>
      </trkpt>
      <trkpt lat="49.17708" lon="-0.0679">
        <ele>26</ele>
        <time>2024-03-20T13:37:14Z</time>
      </trkpt>
      <trkpt lat="49.17703" lon="-0.06784">
        <ele>26</ele>
        <time>2024-03-20T13:37:15Z</time>
      </trkpt>
      <trkpt lat="49.17696" lon="-0.06777">
        <ele>25.8</ele>
        <time>2024-03-20T13:37:16Z</time>
      </trkpt>
      <trkpt lat="49.1769" lon="-0.06769">
        <ele>25.8</ele>
        <time>2024-03-20T13:37:17Z</time>
      </trkpt>
      <trkpt lat="49.17684" lon="-0.06761">
        <ele>25.8</ele>
        <time>2024-03-20T13:37:18Z</time>
      </trkpt>
      <trkpt lat="49.17678" lon="-0.06754">
        <ele>25.8</ele>
        <time>2024-03-20T13:37:19Z</time>
      </trkpt>
      <trkpt lat="49.1767" lon="-0.06745">
        <ele>25.8</ele>
        <time>2024-03-20T13:37:20Z</time>
      </trkpt>
      <trkpt lat="49.17664" lon="-0.06738">
        <ele>25.8</ele>
        <time>2024-03-20T13:37:21Z</time>
      </trkpt>
      <trkpt lat="49.17659" lon="-0.06731">
        <ele>25.8</ele>
        <time>2024-03-20T13:37:22Z</time>
      </trkpt>
      <trkpt lat="49.17653" lon="-0.06724">
        <ele>25.8</ele>
        <time>2024-03-20T13:37:23Z</time>
      </trkpt>
      <trkpt lat="49.17647" lon="-0.06717">
        <ele>25.8</ele>
        <time>2024-03-20T13:37:24Z</time>
      </trkpt>
      <trkpt lat="49.1764" lon="-0.0671">
        <ele>25.8</ele>
        <time>2024-03-20T13:37:25Z</time>
      </trkpt>
      <trkpt lat="49.17632" lon="-0.06702">
        <ele>25.8</ele>
        <time>2024-03-20T13:37:26Z</time>
      </trkpt>
      <trkpt lat="49.17626" lon="-0.06695">
        <ele>25.8</ele>
        <time>2024-03-20T13:37:27Z</time>
      </trkpt>
      <trkpt lat="49.1762" lon="-0.06689">
        <ele>25.8</ele>
        <time>2024-03-20T13:37:28Z</time>
      </trkpt>
      <trkpt lat="49.17612" lon="-0.06681">
        <ele>25.8</ele>
        <time>2024-03-20T13:37:29Z</time>
      </trkpt>
      <trkpt lat="49.17606" lon="-0.06674">
        <ele>25.8</ele>
        <time>2024-03-20T13:37:30Z</time>
      </trkpt>
      <trkpt lat="49.17601" lon="-0.06669">
        <ele>26</ele>
        <time>2024-03-20T13:37:31Z</time>
      </trkpt>
      <trkpt lat="49.17594" lon="-0.06662">
        <ele>26</ele>
        <time>2024-03-20T13:37:32Z</time>
      </trkpt>
      <trkpt lat="49.17586" lon="-0.06654">
        <ele>26</ele>
        <time>2024-03-20T13:37:33Z</time>
      </trkpt>
      <trkpt lat="49.17579" lon="-0.06648">
        <ele>26</ele>
        <time>2024-03-20T13:37:34Z</time>
      </trkpt>
      <trkpt lat="49.17572" lon="-0.06642">
        <ele>26</ele>
        <time>2024-03-20T13:37:35Z</time>
      </trkpt>
      <trkpt lat="49.17566" lon="-0.06635">
        <ele>26</ele>
        <time>2024-03-20T13:37:36Z</time>
      </trkpt>
      <trkpt lat="49.1756" lon="-0.0663">
        <ele>26.2</ele>
        <time>2024-03-20T13:37:37Z</time>
      </trkpt>
      <trkpt lat="49.17554" lon="-0.06624">
        <ele>26.2</ele>
        <time>2024-03-20T13:37:38Z</time>
      </trkpt>
      <trkpt lat="49.17546" lon="-0.06617">
        <ele>26.2</ele>
        <time>2024-03-20T13:37:39Z</time>
      </trkpt>
      <trkpt lat="49.17541" lon="-0.06612">
        <ele>26.2</ele>
        <time>2024-03-20T13:37:40Z</time>
      </trkpt>
      <trkpt lat="49.17533" lon="-0.06605">
        <ele>26.2</ele>
        <time>2024-03-20T13:37:41Z</time>
      </trkpt>
      <trkpt lat="49.17526" lon="-0.066">
        <ele>26.2</ele>
        <time>2024-03-20T13:37:42Z</time>
      </trkpt>
      <trkpt lat="49.17519" lon="-0.06594">
        <ele>26.4</ele>
        <time>2024-03-20T13:37:43Z</time>
      </trkpt>
      <trkpt lat="49.17512" lon="-0.06588">
        <ele>26.4</ele>
        <time>2024-03-20T13:37:44Z</time>
      </trkpt>
      <trkpt lat="49.17507" lon="-0.06583">
        <ele>26.6</ele>
        <time>2024-03-20T13:37:45Z</time>
      </trkpt>
      <trkpt lat="49.17501" lon="-0.06578">
        <ele>26.4</ele>
        <time>2024-03-20T13:37:46Z</time>
      </trkpt>
      <trkpt lat="49.17493" lon="-0.06571">
        <ele>26.6</ele>
        <time>2024-03-20T13:37:47Z</time>
      </trkpt>
      <trkpt lat="49.17487" lon="-0.06565">
        <ele>26.8</ele>
        <time>2024-03-20T13:37:48Z</time>
      </trkpt>
      <trkpt lat="49.17482" lon="-0.06561">
        <ele>26.8</ele>
        <time>2024-03-20T13:37:49Z</time>
      </trkpt>
      <trkpt lat="49.17476" lon="-0.06556">
        <ele>26.8</ele>
        <time>2024-03-20T13:37:50Z</time>
      </trkpt>
      <trkpt lat="49.17468" lon="-0.0655">
        <ele>26.8</ele>
        <time>2024-03-20T13:37:51Z</time>
      </trkpt>
      <trkpt lat="49.17462" lon="-0.06544">
        <ele>26.8</ele>
        <time>2024-03-20T13:37:52Z</time>
      </trkpt>
      <trkpt lat="49.17457" lon="-0.06539">
        <ele>26.8</ele>
        <time>2024-03-20T13:37:53Z</time>
      </trkpt>
      <trkpt lat="49.17449" lon="-0.06532">
        <ele>26.8</ele>
        <time>2024-03-20T13:37:54Z</time>
      </trkpt>
      <trkpt lat="49.17442" lon="-0.06527">
        <ele>27</ele>
        <time>2024-03-20T13:37:55Z</time>
      </trkpt>
      <trkpt lat="49.17436" lon="-0.06521">
        <ele>27.2</ele>
        <time>2024-03-20T13:37:56Z</time>
      </trkpt>
      <trkpt lat="49.17429" lon="-0.06516">
        <ele>27.4</ele>
        <time>2024-03-20T13:37:57Z</time>
      </trkpt>
      <trkpt lat="49.17424" lon="-0.06511">
        <ele>27.6</ele>
        <time>2024-03-20T13:37:58Z</time>
      </trkpt>
      <trkpt lat="49.17418" lon="-0.06504">
        <ele>27.8</ele>
        <time>2024-03-20T13:37:59Z</time>
      </trkpt>
      <trkpt lat="49.17413" lon="-0.06497">
        <ele>27.8</ele>
        <time>2024-03-20T13:38:00Z</time>
      </trkpt>
      <trkpt lat="49.17407" lon="-0.06489">
        <ele>28</ele>
        <time>2024-03-20T13:38:01Z</time>
      </trkpt>
      <trkpt lat="49.17402" lon="-0.06481">
        <ele>28.2</ele>
        <time>2024-03-20T13:38:02Z</time>
      </trkpt>
      <trkpt lat="49.17397" lon="-0.06473">
        <ele>28.6</ele>
        <time>2024-03-20T13:38:03Z</time>
      </trkpt>
      <trkpt lat="49.17393" lon="-0.06465">
        <ele>28.8</ele>
        <time>2024-03-20T13:38:04Z</time>
      </trkpt>
      <trkpt lat="49.17388" lon="-0.06453">
        <ele>29</ele>
        <time>2024-03-20T13:38:05Z</time>
      </trkpt>
      <trkpt lat="49.17385" lon="-0.06445">
        <ele>29</ele>
        <time>2024-03-20T13:38:06Z</time>
      </trkpt>
      <trkpt lat="49.1738" lon="-0.06433">
        <ele>29.4</ele>
        <time>2024-03-20T13:38:07Z</time>
      </trkpt>
      <trkpt lat="49.17376" lon="-0.06424">
        <ele>29.4</ele>
        <time>2024-03-20T13:38:08Z</time>
      </trkpt>
      <trkpt lat="49.17374" lon="-0.06415">
        <ele>29.8</ele>
        <time>2024-03-20T13:38:09Z</time>
      </trkpt>
      <trkpt lat="49.1737" lon="-0.06403">
        <ele>29.8</ele>
        <time>2024-03-20T13:38:10Z</time>
      </trkpt>
      <trkpt lat="49.17367" lon="-0.06395">
        <ele>30</ele>
        <time>2024-03-20T13:38:11Z</time>
      </trkpt>
      <trkpt lat="49.17364" lon="-0.06385">
        <ele>30.2</ele>
        <time>2024-03-20T13:38:12Z</time>
      </trkpt>
      <trkpt lat="49.1736" lon="-0.06373">
        <ele>30.2</ele>
        <time>2024-03-20T13:38:13Z</time>
      </trkpt>
      <trkpt lat="49.17357" lon="-0.06366">
        <ele>30.4</ele>
        <time>2024-03-20T13:38:14Z</time>
      </trkpt>
      <trkpt lat="49.17354" lon="-0.06356">
        <ele>30.4</ele>
        <time>2024-03-20T13:38:15Z</time>
      </trkpt>
      <trkpt lat="49.17351" lon="-0.06344">
        <ele>30.4</ele>
        <time>2024-03-20T13:38:16Z</time>
      </trkpt>
      <trkpt lat="49.17348" lon="-0.06334">
        <ele>30.4</ele>
        <time>2024-03-20T13:38:17Z</time>
      </trkpt>
      <trkpt lat="49.17345" lon="-0.06324">
        <ele>30.6</ele>
        <time>2024-03-20T13:38:18Z</time>
      </trkpt>
      <trkpt lat="49.17341" lon="-0.06314">
        <ele>30.8</ele>
        <time>2024-03-20T13:38:19Z</time>
      </trkpt>
      <trkpt lat="49.17338" lon="-0.06304">
        <ele>30.8</ele>
        <time>2024-03-20T13:38:20Z</time>
      </trkpt>
      <trkpt lat="49.17335" lon="-0.06296">
        <ele>31</ele>
        <time>2024-03-20T13:38:21Z</time>
      </trkpt>
      <trkpt lat="49.17332" lon="-0.06285">
        <ele>31</ele>
        <time>2024-03-20T13:38:22Z</time>
      </trkpt>
      <trkpt lat="49.17329" lon="-0.06273">
        <ele>31</ele>
        <time>2024-03-20T13:38:23Z</time>
      </trkpt>
      <trkpt lat="49.17326" lon="-0.06264">
        <ele>31.2</ele>
        <time>2024-03-20T13:38:24Z</time>
      </trkpt>
      <trkpt lat="49.17322" lon="-0.06252">
        <ele>31.4</ele>
        <time>2024-03-20T13:38:25Z</time>
      </trkpt>
      <trkpt lat="49.17319" lon="-0.06241">
        <ele>31.4</ele>
        <time>2024-03-20T13:38:26Z</time>
      </trkpt>
      <trkpt lat="49.17315" lon="-0.06231">
        <ele>31.4</ele>
        <time>2024-03-20T13:38:27Z</time>
      </trkpt>
      <trkpt lat="49.17312" lon="-0.06223">
        <ele>31.4</ele>
        <time>2024-03-20T13:38:28Z</time>
      </trkpt>
      <trkpt lat="49.17308" lon="-0.06211">
        <ele>31.4</ele>
        <time>2024-03-20T13:38:29Z</time>
      </trkpt>
      <trkpt lat="49.17305" lon="-0.06201">
        <ele>31.6</ele>
        <time>2024-03-20T13:38:30Z</time>
      </trkpt>
      <trkpt lat="49.17302" lon="-0.06193">
        <ele>31.6</ele>
        <time>2024-03-20T13:38:31Z</time>
      </trkpt>
      <trkpt lat="49.17298" lon="-0.06181">
        <ele>31.6</ele>
        <time>2024-03-20T13:38:32Z</time>
      </trkpt>
      <trkpt lat="49.17294" lon="-0.0617">
        <ele>31.6</ele>
        <time>2024-03-20T13:38:33Z</time>
      </trkpt>
      <trkpt lat="49.1729" lon="-0.0616">
        <ele>31.6</ele>
        <time>2024-03-20T13:38:34Z</time>
      </trkpt>
      <trkpt lat="49.17286" lon="-0.06149">
        <ele>31.6</ele>
        <time>2024-03-20T13:38:35Z</time>
      </trkpt>
      <trkpt lat="49.17282" lon="-0.06139">
        <ele>31.6</ele>
        <time>2024-03-20T13:38:36Z</time>
      </trkpt>
      <trkpt lat="49.17279" lon="-0.06131">
        <ele>31.6</ele>
        <time>2024-03-20T13:38:37Z</time>
      </trkpt>
      <trkpt lat="49.17274" lon="-0.0612">
        <ele>31.6</ele>
        <time>2024-03-20T13:38:38Z</time>
      </trkpt>
      <trkpt lat="49.17271" lon="-0.06112">
        <ele>31.6</ele>
        <time>2024-03-20T13:38:39Z</time>
      </trkpt>
      <trkpt lat="49.17266" lon="-0.06102">
        <ele>31.6</ele>
        <time>2024-03-20T13:38:40Z</time>
      </trkpt>
      <trkpt lat="49.17262" lon="-0.06093">
        <ele>31.6</ele>
        <time>2024-03-20T13:38:41Z</time>
      </trkpt>
      <trkpt lat="49.17257" lon="-0.06083">
        <ele>31.8</ele>
        <time>2024-03-20T13:38:42Z</time>
      </trkpt>
      <trkpt lat="49.17253" lon="-0.06074">
        <ele>31.8</ele>
        <time>2024-03-20T13:38:43Z</time>
      </trkpt>
      <trkpt lat="49.17248" lon="-0.06064">
        <ele>31.8</ele>
        <time>2024-03-20T13:38:44Z</time>
      </trkpt>
      <trkpt lat="49.17244" lon="-0.06054">
        <ele>31.8</ele>
        <time>2024-03-20T13:38:45Z</time>
      </trkpt>
      <trkpt lat="49.17239" lon="-0.06044">
        <ele>31.8</ele>
        <time>2024-03-20T13:38:46Z</time>
      </trkpt>
      <trkpt lat="49.17233" lon="-0.06032">
        <ele>31.8</ele>
        <time>2024-03-20T13:38:47Z</time>
      </trkpt>
      <trkpt lat="49.17228" lon="-0.06022">
        <ele>31.8</ele>
        <time>2024-03-20T13:38:48Z</time>
      </trkpt>
      <trkpt lat="49.17224" lon="-0.06013">
        <ele>31.8</ele>
        <time>2024-03-20T13:38:49Z</time>
      </trkpt>
      <trkpt lat="49.17218" lon="-0.06001">
        <ele>31.8</ele>
        <time>2024-03-20T13:38:50Z</time>
      </trkpt>
      <trkpt lat="49.17214" lon="-0.0599">
        <ele>31.8</ele>
        <time>2024-03-20T13:38:51Z</time>
      </trkpt>
      <trkpt lat="49.1721" lon="-0.05982">
        <ele>31.8</ele>
        <time>2024-03-20T13:38:52Z</time>
      </trkpt>
      <trkpt lat="49.17205" lon="-0.05971">
        <ele>31.8</ele>
        <time>2024-03-20T13:38:53Z</time>
      </trkpt>
      <trkpt lat="49.17199" lon="-0.05959">
        <ele>31.6</ele>
        <time>2024-03-20T13:38:54Z</time>
      </trkpt>
      <trkpt lat="49.17195" lon="-0.05948">
        <ele>31.6</ele>
        <time>2024-03-20T13:38:55Z</time>
      </trkpt>
      <trkpt lat="49.17191" lon="-0.0594">
        <ele>31.6</ele>
        <time>2024-03-20T13:38:56Z</time>
      </trkpt>
      <trkpt lat="49.17185" lon="-0.05927">
        <ele>31.4</ele>
        <time>2024-03-20T13:38:57Z</time>
      </trkpt>
      <trkpt lat="49.17181" lon="-0.05919">
        <ele>31.4</ele>
        <time>2024-03-20T13:38:58Z</time>
      </trkpt>
      <trkpt lat="49.17175" lon="-0.05909">
        <ele>31.2</ele>
        <time>2024-03-20T13:38:59Z</time>
      </trkpt>
      <trkpt lat="49.17169" lon="-0.05897">
        <ele>31</ele>
        <time>2024-03-20T13:39:00Z</time>
      </trkpt>
      <trkpt lat="49.17163" lon="-0.05886">
        <ele>31</ele>
        <time>2024-03-20T13:39:01Z</time>
      </trkpt>
      <trkpt lat="49.17157" lon="-0.05877">
        <ele>31</ele>
        <time>2024-03-20T13:39:02Z</time>
      </trkpt>
      <trkpt lat="49.17152" lon="-0.0587">
        <ele>30.8</ele>
        <time>2024-03-20T13:39:03Z</time>
      </trkpt>
      <trkpt lat="49.17146" lon="-0.05861">
        <ele>30.8</ele>
        <time>2024-03-20T13:39:04Z</time>
      </trkpt>
      <trkpt lat="49.17139" lon="-0.05853">
        <ele>30.6</ele>
        <time>2024-03-20T13:39:05Z</time>
      </trkpt>
      <trkpt lat="49.1713" lon="-0.05844">
        <ele>30.4</ele>
        <time>2024-03-20T13:39:06Z</time>
      </trkpt>
      <trkpt lat="49.17125" lon="-0.05838">
        <ele>30.4</ele>
        <time>2024-03-20T13:39:07Z</time>
      </trkpt>
      <trkpt lat="49.17118" lon="-0.05831">
        <ele>30.2</ele>
        <time>2024-03-20T13:39:08Z</time>
      </trkpt>
      <trkpt lat="49.17109" lon="-0.05823">
        <ele>30.2</ele>
        <time>2024-03-20T13:39:09Z</time>
      </trkpt>
      <trkpt lat="49.17103" lon="-0.05817">
        <ele>30</ele>
        <time>2024-03-20T13:39:10Z</time>
      </trkpt>
      <trkpt lat="49.17097" lon="-0.05811">
        <ele>29.8</ele>
        <time>2024-03-20T13:39:11Z</time>
      </trkpt>
      <trkpt lat="49.17089" lon="-0.05804">
        <ele>29.6</ele>
        <time>2024-03-20T13:39:12Z</time>
      </trkpt>
      <trkpt lat="49.17082" lon="-0.05797">
        <ele>29.6</ele>
        <time>2024-03-20T13:39:13Z</time>
      </trkpt>
      <trkpt lat="49.17077" lon="-0.05792">
        <ele>29.6</ele>
        <time>2024-03-20T13:39:14Z</time>
      </trkpt>
      <trkpt lat="49.1707" lon="-0.05786">
        <ele>29.6</ele>
        <time>2024-03-20T13:39:15Z</time>
      </trkpt>
      <trkpt lat="49.17062" lon="-0.05778">
        <ele>29.6</ele>
        <time>2024-03-20T13:39:16Z</time>
      </trkpt>
      <trkpt lat="49.17057" lon="-0.05774">
        <ele>29.6</ele>
        <time>2024-03-20T13:39:17Z</time>
      </trkpt>
      <trkpt lat="49.17049" lon="-0.05766">
        <ele>29.6</ele>
        <time>2024-03-20T13:39:18Z</time>
      </trkpt>
      <trkpt lat="49.17043" lon="-0.05761">
        <ele>29.6</ele>
        <time>2024-03-20T13:39:19Z</time>
      </trkpt>
      <trkpt lat="49.17037" lon="-0.05755">
        <ele>29.6</ele>
        <time>2024-03-20T13:39:20Z</time>
      </trkpt>
      <trkpt lat="49.17032" lon="-0.0575">
        <ele>29.6</ele>
        <time>2024-03-20T13:39:21Z</time>
      </trkpt>
      <trkpt lat="49.17025" lon="-0.05744">
        <ele>29.6</ele>
        <time>2024-03-20T13:39:22Z</time>
      </trkpt>
      <trkpt lat="49.1702" lon="-0.05739">
        <ele>30</ele>
        <time>2024-03-20T13:39:23Z</time>
      </trkpt>
      <trkpt lat="49.17014" lon="-0.05733">
        <ele>30</ele>
        <time>2024-03-20T13:39:24Z</time>
      </trkpt>
      <trkpt lat="49.17009" lon="-0.05728">
        <ele>30</ele>
        <time>2024-03-20T13:39:25Z</time>
      </trkpt>
      <trkpt lat="49.17003" lon="-0.05722">
        <ele>30.2</ele>
        <time>2024-03-20T13:39:26Z</time>
      </trkpt>
      <trkpt lat="49.16997" lon="-0.05716">
        <ele>30.4</ele>
        <time>2024-03-20T13:39:27Z</time>
      </trkpt>
      <trkpt lat="49.16991" lon="-0.05711">
        <ele>30.6</ele>
        <time>2024-03-20T13:39:28Z</time>
      </trkpt>
      <trkpt lat="49.16984" lon="-0.05704">
        <ele>30.6</ele>
        <time>2024-03-20T13:39:29Z</time>
      </trkpt>
      <trkpt lat="49.16978" lon="-0.05699">
        <ele>30.8</ele>
        <time>2024-03-20T13:39:30Z</time>
      </trkpt>
      <trkpt lat="49.16974" lon="-0.05695">
        <ele>31</ele>
        <time>2024-03-20T13:39:31Z</time>
      </trkpt>
      <trkpt lat="49.16967" lon="-0.05688">
        <ele>31.2</ele>
        <time>2024-03-20T13:39:32Z</time>
      </trkpt>
      <trkpt lat="49.16961" lon="-0.05682">
        <ele>31.4</ele>
        <time>2024-03-20T13:39:33Z</time>
      </trkpt>
      <trkpt lat="49.16957" lon="-0.05678">
        <ele>31.6</ele>
        <time>2024-03-20T13:39:34Z</time>
      </trkpt>
      <trkpt lat="49.1695" lon="-0.05672">
        <ele>31.8</ele>
        <time>2024-03-20T13:39:35Z</time>
      </trkpt>
      <trkpt lat="49.16945" lon="-0.05666">
        <ele>32</ele>
        <time>2024-03-20T13:39:36Z</time>
      </trkpt>
      <trkpt lat="49.16941" lon="-0.05662">
        <ele>32.4</ele>
        <time>2024-03-20T13:39:37Z</time>
      </trkpt>
      <trkpt lat="49.16935" lon="-0.05654">
        <ele>32.6</ele>
        <time>2024-03-20T13:39:38Z</time>
      </trkpt>
      <trkpt lat="49.16932" lon="-0.05649">
        <ele>33</ele>
        <time>2024-03-20T13:39:39Z</time>
      </trkpt>
      <trkpt lat="49.16928" lon="-0.05642">
        <ele>33.2</ele>
        <time>2024-03-20T13:39:40Z</time>
      </trkpt>
      <trkpt lat="49.16924" lon="-0.05633">
        <ele>33.6</ele>
        <time>2024-03-20T13:39:41Z</time>
      </trkpt>
      <trkpt lat="49.16922" lon="-0.05624">
        <ele>33.8</ele>
        <time>2024-03-20T13:39:42Z</time>
      </trkpt>
      <trkpt lat="49.1692" lon="-0.05616">
        <ele>34.2</ele>
        <time>2024-03-20T13:39:43Z</time>
      </trkpt>
      <trkpt lat="49.16918" lon="-0.05607">
        <ele>34.6</ele>
        <time>2024-03-20T13:39:44Z</time>
      </trkpt>
      <trkpt lat="49.16918" lon="-0.05598">
        <ele>34.6</ele>
        <time>2024-03-20T13:39:45Z</time>
      </trkpt>
      <trkpt lat="49.16917" lon="-0.05592">
        <ele>34.8</ele>
        <time>2024-03-20T13:39:46Z</time>
      </trkpt>
      <trkpt lat="49.16916" lon="-0.05585">
        <ele>34.8</ele>
        <time>2024-03-20T13:39:47Z</time>
      </trkpt>
      <trkpt lat="49.16912" lon="-0.0558">
        <ele>34.8</ele>
        <time>2024-03-20T13:39:48Z</time>
      </trkpt>
      <trkpt lat="49.16907" lon="-0.05579">
        <ele>34.8</ele>
        <time>2024-03-20T13:39:49Z</time>
      </trkpt>
      <trkpt lat="49.16902" lon="-0.0558">
        <ele>35</ele>
        <time>2024-03-20T13:39:50Z</time>
      </trkpt>
      <trkpt lat="49.16897" lon="-0.05582">
        <ele>35</ele>
        <time>2024-03-20T13:39:51Z</time>
      </trkpt>
      <trkpt lat="49.16892" lon="-0.05585">
        <ele>35</ele>
        <time>2024-03-20T13:39:52Z</time>
      </trkpt>
      <trkpt lat="49.16886" lon="-0.05588">
        <ele>35</ele>
        <time>2024-03-20T13:39:53Z</time>
      </trkpt>
      <trkpt lat="49.16881" lon="-0.05592">
        <ele>35.2</ele>
        <time>2024-03-20T13:39:54Z</time>
      </trkpt>
      <trkpt lat="49.16876" lon="-0.05595">
        <ele>35.2</ele>
        <time>2024-03-20T13:39:55Z</time>
      </trkpt>
      <trkpt lat="49.16871" lon="-0.05598">
        <ele>35.4</ele>
        <time>2024-03-20T13:39:56Z</time>
      </trkpt>
      <trkpt lat="49.16864" lon="-0.05601">
        <ele>35.4</ele>
        <time>2024-03-20T13:39:57Z</time>
      </trkpt>
      <trkpt lat="49.1686" lon="-0.05604">
        <ele>35.6</ele>
        <time>2024-03-20T13:39:58Z</time>
      </trkpt>
      <trkpt lat="49.16853" lon="-0.05607">
        <ele>35.6</ele>
        <time>2024-03-20T13:39:59Z</time>
      </trkpt>
      <trkpt lat="49.16846" lon="-0.0561">
        <ele>35.6</ele>
        <time>2024-03-20T13:40:00Z</time>
      </trkpt>
      <trkpt lat="49.16839" lon="-0.05613">
        <ele>35.6</ele>
        <time>2024-03-20T13:40:01Z</time>
      </trkpt>
      <trkpt lat="49.16834" lon="-0.05615">
        <ele>35.8</ele>
        <time>2024-03-20T13:40:02Z</time>
      </trkpt>
      <trkpt lat="49.16826" lon="-0.05618">
        <ele>35.8</ele>
        <time>2024-03-20T13:40:03Z</time>
      </trkpt>
      <trkpt lat="49.16821" lon="-0.05621">
        <ele>35.8</ele>
        <time>2024-03-20T13:40:04Z</time>
      </trkpt>
      <trkpt lat="49.16814" lon="-0.05623">
        <ele>35.8</ele>
        <time>2024-03-20T13:40:05Z</time>
      </trkpt>
      <trkpt lat="49.16808" lon="-0.05626">
        <ele>36</ele>
        <time>2024-03-20T13:40:06Z</time>
      </trkpt>
      <trkpt lat="49.16802" lon="-0.05629">
        <ele>36</ele>
        <time>2024-03-20T13:40:07Z</time>
      </trkpt>
      <trkpt lat="49.16795" lon="-0.05631">
        <ele>36</ele>
        <time>2024-03-20T13:40:08Z</time>
      </trkpt>
      <trkpt lat="49.16787" lon="-0.05635">
        <ele>36</ele>
        <time>2024-03-20T13:40:09Z</time>
      </trkpt>
      <trkpt lat="49.1678" lon="-0.05638">
        <ele>36</ele>
        <time>2024-03-20T13:40:10Z</time>
      </trkpt>
      <trkpt lat="49.16775" lon="-0.0564">
        <ele>36</ele>
        <time>2024-03-20T13:40:11Z</time>
      </trkpt>
      <trkpt lat="49.16767" lon="-0.05644">
        <ele>36</ele>
        <time>2024-03-20T13:40:12Z</time>
      </trkpt>
      <trkpt lat="49.1676" lon="-0.05647">
        <ele>36</ele>
        <time>2024-03-20T13:40:13Z</time>
      </trkpt>
      <trkpt lat="49.16754" lon="-0.0565">
        <ele>36.2</ele>
        <time>2024-03-20T13:40:14Z</time>
      </trkpt>
      <trkpt lat="49.16746" lon="-0.05653">
        <ele>36.2</ele>
        <time>2024-03-20T13:40:15Z</time>
      </trkpt>
      <trkpt lat="49.16739" lon="-0.05656">
        <ele>36.2</ele>
        <time>2024-03-20T13:40:16Z</time>
      </trkpt>
      <trkpt lat="49.16733" lon="-0.05659">
        <ele>36.2</ele>
        <time>2024-03-20T13:40:17Z</time>
      </trkpt>
      <trkpt lat="49.16724" lon="-0.05663">
        <ele>36.2</ele>
        <time>2024-03-20T13:40:18Z</time>
      </trkpt>
      <trkpt lat="49.16717" lon="-0.05666">
        <ele>36.2</ele>
        <time>2024-03-20T13:40:19Z</time>
      </trkpt>
      <trkpt lat="49.16711" lon="-0.05669">
        <ele>36.2</ele>
        <time>2024-03-20T13:40:20Z</time>
      </trkpt>
      <trkpt lat="49.16702" lon="-0.05673">
        <ele>36</ele>
        <time>2024-03-20T13:40:21Z</time>
      </trkpt>
      <trkpt lat="49.16694" lon="-0.05677">
        <ele>36</ele>
        <time>2024-03-20T13:40:22Z</time>
      </trkpt>
      <trkpt lat="49.16688" lon="-0.0568">
        <ele>36</ele>
        <time>2024-03-20T13:40:23Z</time>
      </trkpt>
      <trkpt lat="49.16678" lon="-0.05684">
        <ele>36</ele>
        <time>2024-03-20T13:40:24Z</time>
      </trkpt>
      <trkpt lat="49.1667" lon="-0.05688">
        <ele>36</ele>
        <time>2024-03-20T13:40:25Z</time>
      </trkpt>
      <trkpt lat="49.16663" lon="-0.05691">
        <ele>36</ele>
        <time>2024-03-20T13:40:26Z</time>
      </trkpt>
      <trkpt lat="49.16653" lon="-0.05695">
        <ele>35.6</ele>
        <time>2024-03-20T13:40:27Z</time>
      </trkpt>
      <trkpt lat="49.16644" lon="-0.05699">
        <ele>35.2</ele>
        <time>2024-03-20T13:40:28Z</time>
      </trkpt>
      <trkpt lat="49.16637" lon="-0.05702">
        <ele>35</ele>
        <time>2024-03-20T13:40:29Z</time>
      </trkpt>
      <trkpt lat="49.16629" lon="-0.05706">
        <ele>34.8</ele>
        <time>2024-03-20T13:40:30Z</time>
      </trkpt>
      <trkpt lat="49.1662" lon="-0.05709">
        <ele>34.4</ele>
        <time>2024-03-20T13:40:31Z</time>
      </trkpt>
      <trkpt lat="49.16609" lon="-0.05714">
        <ele>33.8</ele>
        <time>2024-03-20T13:40:32Z</time>
      </trkpt>
      <trkpt lat="49.166" lon="-0.05718">
        <ele>33.4</ele>
        <time>2024-03-20T13:40:33Z</time>
      </trkpt>
      <trkpt lat="49.16591" lon="-0.05721">
        <ele>33.4</ele>
        <time>2024-03-20T13:40:34Z</time>
      </trkpt>
      <trkpt lat="49.16581" lon="-0.05725">
        <ele>33.2</ele>
        <time>2024-03-20T13:40:35Z</time>
      </trkpt>
      <trkpt lat="49.16571" lon="-0.05729">
        <ele>33</ele>
        <time>2024-03-20T13:40:36Z</time>
      </trkpt>
      <trkpt lat="49.16561" lon="-0.05733">
        <ele>32.8</ele>
        <time>2024-03-20T13:40:37Z</time>
      </trkpt>
      <trkpt lat="49.16551" lon="-0.05738">
        <ele>32.6</ele>
        <time>2024-03-20T13:40:38Z</time>
      </trkpt>
      <trkpt lat="49.16542" lon="-0.05741">
        <ele>32.6</ele>
        <time>2024-03-20T13:40:39Z</time>
      </trkpt>
      <trkpt lat="49.1653" lon="-0.05746">
        <ele>32.2</ele>
        <time>2024-03-20T13:40:40Z</time>
      </trkpt>
      <trkpt lat="49.1652" lon="-0.0575">
        <ele>31.8</ele>
        <time>2024-03-20T13:40:41Z</time>
      </trkpt>
      <trkpt lat="49.16511" lon="-0.05754">
        <ele>31.4</ele>
        <time>2024-03-20T13:40:42Z</time>
      </trkpt>
      <trkpt lat="49.16501" lon="-0.05757">
        <ele>31</ele>
        <time>2024-03-20T13:40:43Z</time>
      </trkpt>
      <trkpt lat="49.16491" lon="-0.05761">
        <ele>30.2</ele>
        <time>2024-03-20T13:40:44Z</time>
      </trkpt>
      <trkpt lat="49.16482" lon="-0.05765">
        <ele>29.6</ele>
        <time>2024-03-20T13:40:45Z</time>
      </trkpt>
      <trkpt lat="49.16473" lon="-0.05769">
        <ele>29</ele>
        <time>2024-03-20T13:40:46Z</time>
      </trkpt>
      <trkpt lat="49.16465" lon="-0.05772">
        <ele>28.2</ele>
        <time>2024-03-20T13:40:47Z</time>
      </trkpt>
      <trkpt lat="49.16454" lon="-0.05777">
        <ele>27.4</ele>
        <time>2024-03-20T13:40:48Z</time>
      </trkpt>
      <trkpt lat="49.16447" lon="-0.0578">
        <ele>27</ele>
        <time>2024-03-20T13:40:49Z</time>
      </trkpt>
      <trkpt lat="49.16438" lon="-0.05784">
        <ele>26.8</ele>
        <time>2024-03-20T13:40:50Z</time>
      </trkpt>
      <trkpt lat="49.16429" lon="-0.05788">
        <ele>26.6</ele>
        <time>2024-03-20T13:40:51Z</time>
      </trkpt>
      <trkpt lat="49.16419" lon="-0.05792">
        <ele>26.6</ele>
        <time>2024-03-20T13:40:52Z</time>
      </trkpt>
      <trkpt lat="49.1641" lon="-0.05796">
        <ele>26.6</ele>
        <time>2024-03-20T13:40:53Z</time>
      </trkpt>
      <trkpt lat="49.16401" lon="-0.058">
        <ele>26.6</ele>
        <time>2024-03-20T13:40:54Z</time>
      </trkpt>
      <trkpt lat="49.16392" lon="-0.05804">
        <ele>26.6</ele>
        <time>2024-03-20T13:40:55Z</time>
      </trkpt>
      <trkpt lat="49.16383" lon="-0.05808">
        <ele>26.6</ele>
        <time>2024-03-20T13:40:56Z</time>
      </trkpt>
      <trkpt lat="49.16374" lon="-0.05811">
        <ele>26.6</ele>
        <time>2024-03-20T13:40:57Z</time>
      </trkpt>
      <trkpt lat="49.16365" lon="-0.05815">
        <ele>26.4</ele>
        <time>2024-03-20T13:40:58Z</time>
      </trkpt>
      <trkpt lat="49.16357" lon="-0.05819">
        <ele>26.4</ele>
        <time>2024-03-20T13:40:59Z</time>
      </trkpt>
      <trkpt lat="49.16346" lon="-0.05823">
        <ele>26.2</ele>
        <time>2024-03-20T13:41:00Z</time>
      </trkpt>
      <trkpt lat="49.16337" lon="-0.05826">
        <ele>26</ele>
        <time>2024-03-20T13:41:01Z</time>
      </trkpt>
      <trkpt lat="49.1633" lon="-0.05829">
        <ele>26</ele>
        <time>2024-03-20T13:41:02Z</time>
      </trkpt>
      <trkpt lat="49.1632" lon="-0.05833">
        <ele>26</ele>
        <time>2024-03-20T13:41:03Z</time>
      </trkpt>
      <trkpt lat="49.16312" lon="-0.05837">
        <ele>25.8</ele>
        <time>2024-03-20T13:41:04Z</time>
      </trkpt>
      <trkpt lat="49.16305" lon="-0.0584">
        <ele>25.8</ele>
        <time>2024-03-20T13:41:05Z</time>
      </trkpt>
      <trkpt lat="49.16296" lon="-0.05843">
        <ele>25.8</ele>
        <time>2024-03-20T13:41:06Z</time>
      </trkpt>
      <trkpt lat="49.16286" lon="-0.05847">
        <ele>25.8</ele>
        <time>2024-03-20T13:41:07Z</time>
      </trkpt>
      <trkpt lat="49.16279" lon="-0.0585">
        <ele>25.8</ele>
        <time>2024-03-20T13:41:08Z</time>
      </trkpt>
      <trkpt lat="49.16269" lon="-0.05854">
        <ele>25.8</ele>
        <time>2024-03-20T13:41:09Z</time>
      </trkpt>
      <trkpt lat="49.1626" lon="-0.05858">
        <ele>25.6</ele>
        <time>2024-03-20T13:41:10Z</time>
      </trkpt>
      <trkpt lat="49.16252" lon="-0.05861">
        <ele>25.6</ele>
        <time>2024-03-20T13:41:11Z</time>
      </trkpt>
      <trkpt lat="49.16245" lon="-0.05864">
        <ele>25.4</ele>
        <time>2024-03-20T13:41:12Z</time>
      </trkpt>
      <trkpt lat="49.16237" lon="-0.05868">
        <ele>25.2</ele>
        <time>2024-03-20T13:41:13Z</time>
      </trkpt>
      <trkpt lat="49.16227" lon="-0.05872">
        <ele>25.2</ele>
        <time>2024-03-20T13:41:14Z</time>
      </trkpt>
      <trkpt lat="49.1622" lon="-0.05875">
        <ele>25</ele>
        <time>2024-03-20T13:41:15Z</time>
      </trkpt>
      <trkpt lat="49.16212" lon="-0.05878">
        <ele>24.8</ele>
        <time>2024-03-20T13:41:16Z</time>
      </trkpt>
      <trkpt lat="49.16203" lon="-0.05881">
        <ele>24.8</ele>
        <time>2024-03-20T13:41:17Z</time>
      </trkpt>
      <trkpt lat="49.16193" lon="-0.05886">
        <ele>24.6</ele>
        <time>2024-03-20T13:41:18Z</time>
      </trkpt>
      <trkpt lat="49.16185" lon="-0.0589">
        <ele>24.4</ele>
        <time>2024-03-20T13:41:19Z</time>
      </trkpt>
      <trkpt lat="49.16176" lon="-0.05893">
        <ele>24.2</ele>
        <time>2024-03-20T13:41:20Z</time>
      </trkpt>
      <trkpt lat="49.16169" lon="-0.05896">
        <ele>24.2</ele>
        <time>2024-03-20T13:41:21Z</time>
      </trkpt>
      <trkpt lat="49.1616" lon="-0.05899">
        <ele>24</ele>
        <time>2024-03-20T13:41:22Z</time>
      </trkpt>
      <trkpt lat="49.16152" lon="-0.05903">
        <ele>23.6</ele>
        <time>2024-03-20T13:41:23Z</time>
      </trkpt>
      <trkpt lat="49.16143" lon="-0.05907">
        <ele>23.4</ele>
        <time>2024-03-20T13:41:24Z</time>
      </trkpt>
      <trkpt lat="49.16132" lon="-0.05911">
        <ele>23.2</ele>
        <time>2024-03-20T13:41:25Z</time>
      </trkpt>
      <trkpt lat="49.16123" lon="-0.05915">
        <ele>22.8</ele>
        <time>2024-03-20T13:41:26Z</time>
      </trkpt>
      <trkpt lat="49.16116" lon="-0.05918">
        <ele>22.6</ele>
        <time>2024-03-20T13:41:27Z</time>
      </trkpt>
      <trkpt lat="49.16104" lon="-0.05923">
        <ele>22.4</ele>
        <time>2024-03-20T13:41:28Z</time>
      </trkpt>
      <trkpt lat="49.16095" lon="-0.05927">
        <ele>22.2</ele>
        <time>2024-03-20T13:41:29Z</time>
      </trkpt>
      <trkpt lat="49.16087" lon="-0.0593">
        <ele>21.8</ele>
        <time>2024-03-20T13:41:30Z</time>
      </trkpt>
      <trkpt lat="49.16077" lon="-0.05934">
        <ele>21.6</ele>
        <time>2024-03-20T13:41:31Z</time>
      </trkpt>
      <trkpt lat="49.16066" lon="-0.05939">
        <ele>21.2</ele>
        <time>2024-03-20T13:41:32Z</time>
      </trkpt>
      <trkpt lat="49.16058" lon="-0.05942">
        <ele>21.2</ele>
        <time>2024-03-20T13:41:33Z</time>
      </trkpt>
      <trkpt lat="49.16048" lon="-0.05946">
        <ele>21</ele>
        <time>2024-03-20T13:41:34Z</time>
      </trkpt>
      <trkpt lat="49.16039" lon="-0.0595">
        <ele>20.8</ele>
        <time>2024-03-20T13:41:35Z</time>
      </trkpt>
      <trkpt lat="49.16029" lon="-0.05953">
        <ele>20.6</ele>
        <time>2024-03-20T13:41:36Z</time>
      </trkpt>
      <trkpt lat="49.1602" lon="-0.05957">
        <ele>20</ele>
        <time>2024-03-20T13:41:37Z</time>
      </trkpt>
      <trkpt lat="49.16008" lon="-0.05962">
        <ele>19.4</ele>
        <time>2024-03-20T13:41:38Z</time>
      </trkpt>
      <trkpt lat="49.16001" lon="-0.05965">
        <ele>19</ele>
        <time>2024-03-20T13:41:39Z</time>
      </trkpt>
      <trkpt lat="49.15991" lon="-0.05969">
        <ele>18.6</ele>
        <time>2024-03-20T13:41:40Z</time>
      </trkpt>
      <trkpt lat="49.15979" lon="-0.05974">
        <ele>18.2</ele>
        <time>2024-03-20T13:41:41Z</time>
      </trkpt>
      <trkpt lat="49.15972" lon="-0.05977">
        <ele>17.6</ele>
        <time>2024-03-20T13:41:42Z</time>
      </trkpt>
      <trkpt lat="49.1596" lon="-0.05982">
        <ele>17</ele>
        <time>2024-03-20T13:41:43Z</time>
      </trkpt>
      <trkpt lat="49.1595" lon="-0.05986">
        <ele>17</ele>
        <time>2024-03-20T13:41:44Z</time>
      </trkpt>
      <trkpt lat="49.15941" lon="-0.05991">
        <ele>16.8</ele>
        <time>2024-03-20T13:41:45Z</time>
      </trkpt>
      <trkpt lat="49.15931" lon="-0.05995">
        <ele>16.2</ele>
        <time>2024-03-20T13:41:46Z</time>
      </trkpt>
      <trkpt lat="49.15922" lon="-0.05999">
        <ele>15.8</ele>
        <time>2024-03-20T13:41:47Z</time>
      </trkpt>
      <trkpt lat="49.15913" lon="-0.06004">
        <ele>15.4</ele>
        <time>2024-03-20T13:41:48Z</time>
      </trkpt>
      <trkpt lat="49.15903" lon="-0.06008">
        <ele>15</ele>
        <time>2024-03-20T13:41:49Z</time>
      </trkpt>
      <trkpt lat="49.15896" lon="-0.06011">
        <ele>14.6</ele>
        <time>2024-03-20T13:41:50Z</time>
      </trkpt>
      <trkpt lat="49.15887" lon="-0.06014">
        <ele>14.6</ele>
        <time>2024-03-20T13:41:51Z</time>
      </trkpt>
      <trkpt lat="49.15876" lon="-0.06019">
        <ele>14.2</ele>
        <time>2024-03-20T13:41:52Z</time>
      </trkpt>
      <trkpt lat="49.15867" lon="-0.06023">
        <ele>14</ele>
        <time>2024-03-20T13:41:53Z</time>
      </trkpt>
      <trkpt lat="49.1586" lon="-0.06026">
        <ele>13.8</ele>
        <time>2024-03-20T13:41:54Z</time>
      </trkpt>
      <trkpt lat="49.15851" lon="-0.0603">
        <ele>13.6</ele>
        <time>2024-03-20T13:41:55Z</time>
      </trkpt>
      <trkpt lat="49.1584" lon="-0.06034">
        <ele>13.6</ele>
        <time>2024-03-20T13:41:56Z</time>
      </trkpt>
      <trkpt lat="49.15833" lon="-0.06036">
        <ele>13.6</ele>
        <time>2024-03-20T13:41:57Z</time>
      </trkpt>
      <trkpt lat="49.15823" lon="-0.06041">
        <ele>13.4</ele>
        <time>2024-03-20T13:41:58Z</time>
      </trkpt>
      <trkpt lat="49.15816" lon="-0.06043">
        <ele>13.2</ele>
        <time>2024-03-20T13:41:59Z</time>
      </trkpt>
      <trkpt lat="49.15807" lon="-0.06047">
        <ele>13.2</ele>
        <time>2024-03-20T13:42:00Z</time>
      </trkpt>
      <trkpt lat="49.15797" lon="-0.06052">
        <ele>13.2</ele>
        <time>2024-03-20T13:42:01Z</time>
      </trkpt>
      <trkpt lat="49.15788" lon="-0.06055">
        <ele>13</ele>
        <time>2024-03-20T13:42:02Z</time>
      </trkpt>
      <trkpt lat="49.15781" lon="-0.06058">
        <ele>13</ele>
        <time>2024-03-20T13:42:03Z</time>
      </trkpt>
      <trkpt lat="49.1577" lon="-0.06063">
        <ele>13</ele>
        <time>2024-03-20T13:42:04Z</time>
      </trkpt>
      <trkpt lat="49.15761" lon="-0.06066">
        <ele>13</ele>
        <time>2024-03-20T13:42:05Z</time>
      </trkpt>
      <trkpt lat="49.15755" lon="-0.0607">
        <ele>13</ele>
        <time>2024-03-20T13:42:06Z</time>
      </trkpt>
      <trkpt lat="49.15746" lon="-0.06074">
        <ele>13</ele>
        <time>2024-03-20T13:42:07Z</time>
      </trkpt>
      <trkpt lat="49.15737" lon="-0.06078">
        <ele>12.8</ele>
        <time>2024-03-20T13:42:08Z</time>
      </trkpt>
      <trkpt lat="49.15728" lon="-0.06082">
        <ele>12.8</ele>
        <time>2024-03-20T13:42:09Z</time>
      </trkpt>
      <trkpt lat="49.15719" lon="-0.06085">
        <ele>12.8</ele>
        <time>2024-03-20T13:42:10Z</time>
      </trkpt>
      <trkpt lat="49.15708" lon="-0.0609">
        <ele>12.6</ele>
        <time>2024-03-20T13:42:11Z</time>
      </trkpt>
      <trkpt lat="49.15701" lon="-0.06093">
        <ele>12.4</ele>
        <time>2024-03-20T13:42:12Z</time>
      </trkpt>
      <trkpt lat="49.15691" lon="-0.06097">
        <ele>12.4</ele>
        <time>2024-03-20T13:42:13Z</time>
      </trkpt>
      <trkpt lat="49.15682" lon="-0.061">
        <ele>12.2</ele>
        <time>2024-03-20T13:42:14Z</time>
      </trkpt>
      <trkpt lat="49.15676" lon="-0.06103">
        <ele>12.2</ele>
        <time>2024-03-20T13:42:15Z</time>
      </trkpt>
      <trkpt lat="49.15668" lon="-0.06106">
        <ele>12.2</ele>
        <time>2024-03-20T13:42:16Z</time>
      </trkpt>
      <trkpt lat="49.15659" lon="-0.06109">
        <ele>12</ele>
        <time>2024-03-20T13:42:17Z</time>
      </trkpt>
      <trkpt lat="49.15651" lon="-0.06113">
        <ele>12</ele>
        <time>2024-03-20T13:42:18Z</time>
      </trkpt>
      <trkpt lat="49.15644" lon="-0.06116">
        <ele>12</ele>
        <time>2024-03-20T13:42:19Z</time>
      </trkpt>
      <trkpt lat="49.15634" lon="-0.0612">
        <ele>12</ele>
        <time>2024-03-20T13:42:20Z</time>
      </trkpt>
      <trkpt lat="49.15627" lon="-0.06123">
        <ele>11.8</ele>
        <time>2024-03-20T13:42:21Z</time>
      </trkpt>
      <trkpt lat="49.15619" lon="-0.06127">
        <ele>11.8</ele>
        <time>2024-03-20T13:42:22Z</time>
      </trkpt>
      <trkpt lat="49.1561" lon="-0.06131">
        <ele>11.8</ele>
        <time>2024-03-20T13:42:23Z</time>
      </trkpt>
      <trkpt lat="49.15602" lon="-0.06134">
        <ele>11.8</ele>
        <time>2024-03-20T13:42:24Z</time>
      </trkpt>
      <trkpt lat="49.15593" lon="-0.06138">
        <ele>11.8</ele>
        <time>2024-03-20T13:42:25Z</time>
      </trkpt>
      <trkpt lat="49.15585" lon="-0.06141">
        <ele>11.8</ele>
        <time>2024-03-20T13:42:26Z</time>
      </trkpt>
      <trkpt lat="49.15577" lon="-0.06145">
        <ele>11.8</ele>
        <time>2024-03-20T13:42:27Z</time>
      </trkpt>
      <trkpt lat="49.15568" lon="-0.06148">
        <ele>11.8</ele>
        <time>2024-03-20T13:42:28Z</time>
      </trkpt>
      <trkpt lat="49.1556" lon="-0.06151">
        <ele>11.8</ele>
        <time>2024-03-20T13:42:29Z</time>
      </trkpt>
      <trkpt lat="49.15552" lon="-0.06155">
        <ele>11.8</ele>
        <time>2024-03-20T13:42:30Z</time>
      </trkpt>
      <trkpt lat="49.15545" lon="-0.06158">
        <ele>11.8</ele>
        <time>2024-03-20T13:42:31Z</time>
      </trkpt>
      <trkpt lat="49.15537" lon="-0.06161">
        <ele>11.8</ele>
        <time>2024-03-20T13:42:32Z</time>
      </trkpt>
      <trkpt lat="49.15529" lon="-0.06164">
        <ele>11.8</ele>
        <time>2024-03-20T13:42:33Z</time>
      </trkpt>
      <trkpt lat="49.15521" lon="-0.06167">
        <ele>11.8</ele>
        <time>2024-03-20T13:42:34Z</time>
      </trkpt>
      <trkpt lat="49.15512" lon="-0.0617">
        <ele>11.8</ele>
        <time>2024-03-20T13:42:35Z</time>
      </trkpt>
      <trkpt lat="49.15506" lon="-0.06173">
        <ele>11.8</ele>
        <time>2024-03-20T13:42:36Z</time>
      </trkpt>
      <trkpt lat="49.15498" lon="-0.06176">
        <ele>11.8</ele>
        <time>2024-03-20T13:42:37Z</time>
      </trkpt>
      <trkpt lat="49.1549" lon="-0.0618">
        <ele>11.8</ele>
        <time>2024-03-20T13:42:38Z</time>
      </trkpt>
      <trkpt lat="49.15483" lon="-0.06183">
        <ele>11.8</ele>
        <time>2024-03-20T13:42:39Z</time>
      </trkpt>
      <trkpt lat="49.15475" lon="-0.06186">
        <ele>11.8</ele>
        <time>2024-03-20T13:42:40Z</time>
      </trkpt>
      <trkpt lat="49.15467" lon="-0.06189">
        <ele>11.8</ele>
        <time>2024-03-20T13:42:41Z</time>
      </trkpt>
      <trkpt lat="49.15459" lon="-0.06193">
        <ele>11.8</ele>
        <time>2024-03-20T13:42:42Z</time>
      </trkpt>
      <trkpt lat="49.15451" lon="-0.06196">
        <ele>11.8</ele>
        <time>2024-03-20T13:42:43Z</time>
      </trkpt>
      <trkpt lat="49.15441" lon="-0.062">
        <ele>11.8</ele>
        <time>2024-03-20T13:42:44Z</time>
      </trkpt>
      <trkpt lat="49.15435" lon="-0.06203">
        <ele>11.8</ele>
        <time>2024-03-20T13:42:45Z</time>
      </trkpt>
      <trkpt lat="49.15426" lon="-0.06207">
        <ele>11.8</ele>
        <time>2024-03-20T13:42:46Z</time>
      </trkpt>
      <trkpt lat="49.15418" lon="-0.0621">
        <ele>11.8</ele>
        <time>2024-03-20T13:42:47Z</time>
      </trkpt>
      <trkpt lat="49.15412" lon="-0.06213">
        <ele>11.8</ele>
        <time>2024-03-20T13:42:48Z</time>
      </trkpt>
      <trkpt lat="49.15403" lon="-0.06216">
        <ele>11.8</ele>
        <time>2024-03-20T13:42:49Z</time>
      </trkpt>
      <trkpt lat="49.15395" lon="-0.06219">
        <ele>11.8</ele>
        <time>2024-03-20T13:42:50Z</time>
      </trkpt>
      <trkpt lat="49.15389" lon="-0.06222">
        <ele>11.8</ele>
        <time>2024-03-20T13:42:51Z</time>
      </trkpt>
      <trkpt lat="49.1538" lon="-0.06226">
        <ele>11.8</ele>
        <time>2024-03-20T13:42:52Z</time>
      </trkpt>
      <trkpt lat="49.15373" lon="-0.06229">
        <ele>11.8</ele>
        <time>2024-03-20T13:42:53Z</time>
      </trkpt>
      <trkpt lat="49.15366" lon="-0.06232">
        <ele>11.8</ele>
        <time>2024-03-20T13:42:54Z</time>
      </trkpt>
      <trkpt lat="49.15356" lon="-0.06236">
        <ele>11.8</ele>
        <time>2024-03-20T13:42:55Z</time>
      </trkpt>
      <trkpt lat="49.1535" lon="-0.06238">
        <ele>12</ele>
        <time>2024-03-20T13:42:56Z</time>
      </trkpt>
      <trkpt lat="49.15342" lon="-0.06242">
        <ele>12</ele>
        <time>2024-03-20T13:42:57Z</time>
      </trkpt>
      <trkpt lat="49.15333" lon="-0.06246">
        <ele>12</ele>
        <time>2024-03-20T13:42:58Z</time>
      </trkpt>
      <trkpt lat="49.15326" lon="-0.06249">
        <ele>12</ele>
        <time>2024-03-20T13:42:59Z</time>
      </trkpt>
      <trkpt lat="49.15318" lon="-0.06252">
        <ele>12</ele>
        <time>2024-03-20T13:43:00Z</time>
      </trkpt>
      <trkpt lat="49.1531" lon="-0.06256">
        <ele>12</ele>
        <time>2024-03-20T13:43:01Z</time>
      </trkpt>
      <trkpt lat="49.153" lon="-0.0626">
        <ele>12</ele>
        <time>2024-03-20T13:43:02Z</time>
      </trkpt>
      <trkpt lat="49.15293" lon="-0.06263">
        <ele>12</ele>
        <time>2024-03-20T13:43:03Z</time>
      </trkpt>
      <trkpt lat="49.15285" lon="-0.06267">
        <ele>11.8</ele>
        <time>2024-03-20T13:43:04Z</time>
      </trkpt>
      <trkpt lat="49.15276" lon="-0.06271">
        <ele>11.8</ele>
        <time>2024-03-20T13:43:05Z</time>
      </trkpt>
      <trkpt lat="49.15269" lon="-0.06274">
        <ele>11.8</ele>
        <time>2024-03-20T13:43:06Z</time>
      </trkpt>
      <trkpt lat="49.15261" lon="-0.06277">
        <ele>11.8</ele>
        <time>2024-03-20T13:43:07Z</time>
      </trkpt>
      <trkpt lat="49.15253" lon="-0.0628">
        <ele>11.8</ele>
        <time>2024-03-20T13:43:08Z</time>
      </trkpt>
      <trkpt lat="49.15245" lon="-0.06283">
        <ele>11.8</ele>
        <time>2024-03-20T13:43:09Z</time>
      </trkpt>
      <trkpt lat="49.15237" lon="-0.06287">
        <ele>11.8</ele>
        <time>2024-03-20T13:43:10Z</time>
      </trkpt>
      <trkpt lat="49.15227" lon="-0.06291">
        <ele>11.8</ele>
        <time>2024-03-20T13:43:11Z</time>
      </trkpt>
      <trkpt lat="49.15221" lon="-0.06293">
        <ele>11.8</ele>
        <time>2024-03-20T13:43:12Z</time>
      </trkpt>
      <trkpt lat="49.15213" lon="-0.06296">
        <ele>11.8</ele>
        <time>2024-03-20T13:43:13Z</time>
      </trkpt>
      <trkpt lat="49.15204" lon="-0.063">
        <ele>11.8</ele>
        <time>2024-03-20T13:43:14Z</time>
      </trkpt>
      <trkpt lat="49.15198" lon="-0.06302">
        <ele>11.8</ele>
        <time>2024-03-20T13:43:15Z</time>
      </trkpt>
      <trkpt lat="49.1519" lon="-0.06305">
        <ele>11.8</ele>
        <time>2024-03-20T13:43:16Z</time>
      </trkpt>
      <trkpt lat="49.15183" lon="-0.06308">
        <ele>11.8</ele>
        <time>2024-03-20T13:43:17Z</time>
      </trkpt>
      <trkpt lat="49.15175" lon="-0.06312">
        <ele>11.8</ele>
        <time>2024-03-20T13:43:18Z</time>
      </trkpt>
      <trkpt lat="49.15166" lon="-0.06316">
        <ele>11.8</ele>
        <time>2024-03-20T13:43:19Z</time>
      </trkpt>
      <trkpt lat="49.1516" lon="-0.06318">
        <ele>11.8</ele>
        <time>2024-03-20T13:43:20Z</time>
      </trkpt>
      <trkpt lat="49.15153" lon="-0.06321">
        <ele>11.8</ele>
        <time>2024-03-20T13:43:21Z</time>
      </trkpt>
      <trkpt lat="49.15145" lon="-0.06325">
        <ele>11.8</ele>
        <time>2024-03-20T13:43:22Z</time>
      </trkpt>
      <trkpt lat="49.15137" lon="-0.06328">
        <ele>11.8</ele>
        <time>2024-03-20T13:43:23Z</time>
      </trkpt>
      <trkpt lat="49.1513" lon="-0.06331">
        <ele>11.8</ele>
        <time>2024-03-20T13:43:24Z</time>
      </trkpt>
      <trkpt lat="49.15122" lon="-0.06334">
        <ele>11.8</ele>
        <time>2024-03-20T13:43:25Z</time>
      </trkpt>
      <trkpt lat="49.15114" lon="-0.06338">
        <ele>11.8</ele>
        <time>2024-03-20T13:43:26Z</time>
      </trkpt>
      <trkpt lat="49.15107" lon="-0.06341">
        <ele>12</ele>
        <time>2024-03-20T13:43:27Z</time>
      </trkpt>
      <trkpt lat="49.15099" lon="-0.06343">
        <ele>12</ele>
        <time>2024-03-20T13:43:28Z</time>
      </trkpt>
      <trkpt lat="49.15091" lon="-0.06347">
        <ele>12</ele>
        <time>2024-03-20T13:43:29Z</time>
      </trkpt>
      <trkpt lat="49.15083" lon="-0.0635">
        <ele>12.2</ele>
        <time>2024-03-20T13:43:30Z</time>
      </trkpt>
      <trkpt lat="49.15075" lon="-0.06353">
        <ele>12.2</ele>
        <time>2024-03-20T13:43:31Z</time>
      </trkpt>
      <trkpt lat="49.15068" lon="-0.06356">
        <ele>12.2</ele>
        <time>2024-03-20T13:43:32Z</time>
      </trkpt>
      <trkpt lat="49.1506" lon="-0.06359">
        <ele>12.4</ele>
        <time>2024-03-20T13:43:33Z</time>
      </trkpt>
      <trkpt lat="49.15052" lon="-0.06362">
        <ele>12.4</ele>
        <time>2024-03-20T13:43:34Z</time>
      </trkpt>
      <trkpt lat="49.15044" lon="-0.06365">
        <ele>12.4</ele>
        <time>2024-03-20T13:43:35Z</time>
      </trkpt>
      <trkpt lat="49.15036" lon="-0.06368">
        <ele>12.4</ele>
        <time>2024-03-20T13:43:36Z</time>
      </trkpt>
      <trkpt lat="49.15028" lon="-0.06372">
        <ele>12.6</ele>
        <time>2024-03-20T13:43:37Z</time>
      </trkpt>
      <trkpt lat="49.15019" lon="-0.06376">
        <ele>12.8</ele>
        <time>2024-03-20T13:43:38Z</time>
      </trkpt>
      <trkpt lat="49.15012" lon="-0.06379">
        <ele>12.8</ele>
        <time>2024-03-20T13:43:39Z</time>
      </trkpt>
      <trkpt lat="49.15004" lon="-0.06383">
        <ele>12.8</ele>
        <time>2024-03-20T13:43:40Z</time>
      </trkpt>
      <trkpt lat="49.14996" lon="-0.06387">
        <ele>12.8</ele>
        <time>2024-03-20T13:43:41Z</time>
      </trkpt>
      <trkpt lat="49.14989" lon="-0.06393">
        <ele>12.8</ele>
        <time>2024-03-20T13:43:42Z</time>
      </trkpt>
      <trkpt lat="49.14981" lon="-0.06399">
        <ele>13</ele>
        <time>2024-03-20T13:43:43Z</time>
      </trkpt>
      <trkpt lat="49.14974" lon="-0.06404">
        <ele>13</ele>
        <time>2024-03-20T13:43:44Z</time>
      </trkpt>
      <trkpt lat="49.14967" lon="-0.0641">
        <ele>13</ele>
        <time>2024-03-20T13:43:45Z</time>
      </trkpt>
      <trkpt lat="49.1496" lon="-0.06417">
        <ele>13</ele>
        <time>2024-03-20T13:43:46Z</time>
      </trkpt>
      <trkpt lat="49.14954" lon="-0.06423">
        <ele>13</ele>
        <time>2024-03-20T13:43:47Z</time>
      </trkpt>
      <trkpt lat="49.14948" lon="-0.06429">
        <ele>13</ele>
        <time>2024-03-20T13:43:48Z</time>
      </trkpt>
      <trkpt lat="49.14942" lon="-0.06436">
        <ele>13</ele>
        <time>2024-03-20T13:43:49Z</time>
      </trkpt>
      <trkpt lat="49.14936" lon="-0.06443">
        <ele>13</ele>
        <time>2024-03-20T13:43:50Z</time>
      </trkpt>
      <trkpt lat="49.1493" lon="-0.0645">
        <ele>13.2</ele>
        <time>2024-03-20T13:43:51Z</time>
      </trkpt>
      <trkpt lat="49.14925" lon="-0.06457">
        <ele>13.4</ele>
        <time>2024-03-20T13:43:52Z</time>
      </trkpt>
      <trkpt lat="49.1492" lon="-0.06465">
        <ele>13.4</ele>
        <time>2024-03-20T13:43:53Z</time>
      </trkpt>
      <trkpt lat="49.14915" lon="-0.06472">
        <ele>13.8</ele>
        <time>2024-03-20T13:43:54Z</time>
      </trkpt>
      <trkpt lat="49.1491" lon="-0.06479">
        <ele>14.2</ele>
        <time>2024-03-20T13:43:55Z</time>
      </trkpt>
      <trkpt lat="49.14905" lon="-0.06488">
        <ele>14.4</ele>
        <time>2024-03-20T13:43:56Z</time>
      </trkpt>
      <trkpt lat="49.14901" lon="-0.06494">
        <ele>15</ele>
        <time>2024-03-20T13:43:57Z</time>
      </trkpt>
      <trkpt lat="49.14896" lon="-0.06501">
        <ele>15.2</ele>
        <time>2024-03-20T13:43:58Z</time>
      </trkpt>
      <trkpt lat="49.14891" lon="-0.06509">
        <ele>15.6</ele>
        <time>2024-03-20T13:43:59Z</time>
      </trkpt>
      <trkpt lat="49.14885" lon="-0.06516">
        <ele>15.8</ele>
        <time>2024-03-20T13:44:00Z</time>
      </trkpt>
      <trkpt lat="49.14879" lon="-0.06523">
        <ele>15.8</ele>
        <time>2024-03-20T13:44:01Z</time>
      </trkpt>
      <trkpt lat="49.14872" lon="-0.06529">
        <ele>16</ele>
        <time>2024-03-20T13:44:02Z</time>
      </trkpt>
      <trkpt lat="49.14865" lon="-0.06534">
        <ele>16</ele>
        <time>2024-03-20T13:44:03Z</time>
      </trkpt>
      <trkpt lat="49.14858" lon="-0.06539">
        <ele>16</ele>
        <time>2024-03-20T13:44:04Z</time>
      </trkpt>
      <trkpt lat="49.1485" lon="-0.06543">
        <ele>16</ele>
        <time>2024-03-20T13:44:05Z</time>
      </trkpt>
      <trkpt lat="49.14842" lon="-0.06546">
        <ele>16</ele>
        <time>2024-03-20T13:44:06Z</time>
      </trkpt>
      <trkpt lat="49.14834" lon="-0.06548">
        <ele>16</ele>
        <time>2024-03-20T13:44:07Z</time>
      </trkpt>
      <trkpt lat="49.14826" lon="-0.0655">
        <ele>16</ele>
        <time>2024-03-20T13:44:08Z</time>
      </trkpt>
      <trkpt lat="49.14818" lon="-0.06552">
        <ele>16</ele>
        <time>2024-03-20T13:44:09Z</time>
      </trkpt>
      <trkpt lat="49.1481" lon="-0.06553">
        <ele>15.8</ele>
        <time>2024-03-20T13:44:10Z</time>
      </trkpt>
      <trkpt lat="49.14802" lon="-0.06555">
        <ele>15.6</ele>
        <time>2024-03-20T13:44:11Z</time>
      </trkpt>
      <trkpt lat="49.14794" lon="-0.06556">
        <ele>15.2</ele>
        <time>2024-03-20T13:44:12Z</time>
      </trkpt>
      <trkpt lat="49.14786" lon="-0.06557">
        <ele>14.8</ele>
        <time>2024-03-20T13:44:13Z</time>
      </trkpt>
      <trkpt lat="49.14777" lon="-0.06559">
        <ele>14.4</ele>
        <time>2024-03-20T13:44:14Z</time>
      </trkpt>
      <trkpt lat="49.1477" lon="-0.0656">
        <ele>14.2</ele>
        <time>2024-03-20T13:44:15Z</time>
      </trkpt>
      <trkpt lat="49.14762" lon="-0.06561">
        <ele>14</ele>
        <time>2024-03-20T13:44:16Z</time>
      </trkpt>
      <trkpt lat="49.14755" lon="-0.06564">
        <ele>14</ele>
        <time>2024-03-20T13:44:17Z</time>
      </trkpt>
      <trkpt lat="49.14747" lon="-0.06567">
        <ele>14</ele>
        <time>2024-03-20T13:44:18Z</time>
      </trkpt>
      <trkpt lat="49.1474" lon="-0.06571">
        <ele>14</ele>
        <time>2024-03-20T13:44:19Z</time>
      </trkpt>
      <trkpt lat="49.14733" lon="-0.06577">
        <ele>14</ele>
        <time>2024-03-20T13:44:20Z</time>
      </trkpt>
      <trkpt lat="49.14726" lon="-0.06584">
        <ele>14</ele>
        <time>2024-03-20T13:44:21Z</time>
      </trkpt>
      <trkpt lat="49.1472" lon="-0.06592">
        <ele>14</ele>
        <time>2024-03-20T13:44:22Z</time>
      </trkpt>
      <trkpt lat="49.14714" lon="-0.06603">
        <ele>14</ele>
        <time>2024-03-20T13:44:23Z</time>
      </trkpt>
      <trkpt lat="49.14711" lon="-0.06612">
        <ele>14</ele>
        <time>2024-03-20T13:44:24Z</time>
      </trkpt>
      <trkpt lat="49.14707" lon="-0.06622">
        <ele>14.2</ele>
        <time>2024-03-20T13:44:25Z</time>
      </trkpt>
      <trkpt lat="49.14704" lon="-0.06633">
        <ele>14.4</ele>
        <time>2024-03-20T13:44:26Z</time>
      </trkpt>
      <trkpt lat="49.147" lon="-0.06644">
        <ele>14.4</ele>
        <time>2024-03-20T13:44:27Z</time>
      </trkpt>
      <trkpt lat="49.14697" lon="-0.06654">
        <ele>14.6</ele>
        <time>2024-03-20T13:44:28Z</time>
      </trkpt>
      <trkpt lat="49.14695" lon="-0.06665">
        <ele>14.8</ele>
        <time>2024-03-20T13:44:29Z</time>
      </trkpt>
      <trkpt lat="49.14691" lon="-0.06678">
        <ele>15</ele>
        <time>2024-03-20T13:44:30Z</time>
      </trkpt>
      <trkpt lat="49.14689" lon="-0.06687">
        <ele>15</ele>
        <time>2024-03-20T13:44:31Z</time>
      </trkpt>
      <trkpt lat="49.14686" lon="-0.06697">
        <ele>15.4</ele>
        <time>2024-03-20T13:44:32Z</time>
      </trkpt>
      <trkpt lat="49.14683" lon="-0.06707">
        <ele>15.4</ele>
        <time>2024-03-20T13:44:33Z</time>
      </trkpt>
      <trkpt lat="49.1468" lon="-0.06718">
        <ele>15.6</ele>
        <time>2024-03-20T13:44:34Z</time>
      </trkpt>
      <trkpt lat="49.14677" lon="-0.06728">
        <ele>15.8</ele>
        <time>2024-03-20T13:44:35Z</time>
      </trkpt>
      <trkpt lat="49.14674" lon="-0.06737">
        <ele>16.2</ele>
        <time>2024-03-20T13:44:36Z</time>
      </trkpt>
      <trkpt lat="49.1467" lon="-0.06746">
        <ele>16.4</ele>
        <time>2024-03-20T13:44:37Z</time>
      </trkpt>
      <trkpt lat="49.14666" lon="-0.06755">
        <ele>16.6</ele>
        <time>2024-03-20T13:44:38Z</time>
      </trkpt>
      <trkpt lat="49.14662" lon="-0.06763">
        <ele>16.8</ele>
        <time>2024-03-20T13:44:39Z</time>
      </trkpt>
      <trkpt lat="49.14658" lon="-0.06772">
        <ele>17</ele>
        <time>2024-03-20T13:44:40Z</time>
      </trkpt>
      <trkpt lat="49.14654" lon="-0.06781">
        <ele>17.2</ele>
        <time>2024-03-20T13:44:41Z</time>
      </trkpt>
      <trkpt lat="49.1465" lon="-0.0679">
        <ele>17.8</ele>
        <time>2024-03-20T13:44:42Z</time>
      </trkpt>
      <trkpt lat="49.14645" lon="-0.06799">
        <ele>18</ele>
        <time>2024-03-20T13:44:43Z</time>
      </trkpt>
      <trkpt lat="49.14641" lon="-0.06807">
        <ele>18.2</ele>
        <time>2024-03-20T13:44:44Z</time>
      </trkpt>
      <trkpt lat="49.14636" lon="-0.06816">
        <ele>18.4</ele>
        <time>2024-03-20T13:44:45Z</time>
      </trkpt>
      <trkpt lat="49.14631" lon="-0.06825">
        <ele>18.6</ele>
        <time>2024-03-20T13:44:46Z</time>
      </trkpt>
      <trkpt lat="49.14626" lon="-0.06833">
        <ele>18.8</ele>
        <time>2024-03-20T13:44:47Z</time>
      </trkpt>
      <trkpt lat="49.14619" lon="-0.06844">
        <ele>18.8</ele>
        <time>2024-03-20T13:44:48Z</time>
      </trkpt>
      <trkpt lat="49.14615" lon="-0.06851">
        <ele>19</ele>
        <time>2024-03-20T13:44:49Z</time>
      </trkpt>
      <trkpt lat="49.14609" lon="-0.06862">
        <ele>19</ele>
        <time>2024-03-20T13:44:50Z</time>
      </trkpt>
      <trkpt lat="49.14605" lon="-0.06868">
        <ele>19</ele>
        <time>2024-03-20T13:44:51Z</time>
      </trkpt>
      <trkpt lat="49.14599" lon="-0.06877">
        <ele>19</ele>
        <time>2024-03-20T13:44:52Z</time>
      </trkpt>
      <trkpt lat="49.14594" lon="-0.06885">
        <ele>19</ele>
        <time>2024-03-20T13:44:53Z</time>
      </trkpt>
      <trkpt lat="49.14588" lon="-0.06895">
        <ele>19</ele>
        <time>2024-03-20T13:44:54Z</time>
      </trkpt>
      <trkpt lat="49.14584" lon="-0.06902">
        <ele>19.2</ele>
        <time>2024-03-20T13:44:55Z</time>
      </trkpt>
      <trkpt lat="49.14577" lon="-0.06912">
        <ele>19.2</ele>
        <time>2024-03-20T13:44:56Z</time>
      </trkpt>
      <trkpt lat="49.14573" lon="-0.06919">
        <ele>19.2</ele>
        <time>2024-03-20T13:44:57Z</time>
      </trkpt>
      <trkpt lat="49.14568" lon="-0.06928">
        <ele>19.2</ele>
        <time>2024-03-20T13:44:58Z</time>
      </trkpt>
      <trkpt lat="49.14562" lon="-0.06937">
        <ele>19.2</ele>
        <time>2024-03-20T13:44:59Z</time>
      </trkpt>
      <trkpt lat="49.14557" lon="-0.06946">
        <ele>19.4</ele>
        <time>2024-03-20T13:45:00Z</time>
      </trkpt>
      <trkpt lat="49.14551" lon="-0.06955">
        <ele>19.4</ele>
        <time>2024-03-20T13:45:01Z</time>
      </trkpt>
      <trkpt lat="49.14544" lon="-0.06967">
        <ele>19.4</ele>
        <time>2024-03-20T13:45:02Z</time>
      </trkpt>
      <trkpt lat="49.14539" lon="-0.06974">
        <ele>19.4</ele>
        <time>2024-03-20T13:45:03Z</time>
      </trkpt>
      <trkpt lat="49.14534" lon="-0.06984">
        <ele>19.4</ele>
        <time>2024-03-20T13:45:04Z</time>
      </trkpt>
      <trkpt lat="49.14527" lon="-0.06996">
        <ele>19.4</ele>
        <time>2024-03-20T13:45:05Z</time>
      </trkpt>
      <trkpt lat="49.14523" lon="-0.07004">
        <ele>19.6</ele>
        <time>2024-03-20T13:45:06Z</time>
      </trkpt>
      <trkpt lat="49.14517" lon="-0.07014">
        <ele>19.6</ele>
        <time>2024-03-20T13:45:07Z</time>
      </trkpt>
      <trkpt lat="49.14512" lon="-0.07022">
        <ele>19.4</ele>
        <time>2024-03-20T13:45:08Z</time>
      </trkpt>
      <trkpt lat="49.14506" lon="-0.07031">
        <ele>19.4</ele>
        <time>2024-03-20T13:45:09Z</time>
      </trkpt>
      <trkpt lat="49.145" lon="-0.0704">
        <ele>19.4</ele>
        <time>2024-03-20T13:45:10Z</time>
      </trkpt>
      <trkpt lat="49.14494" lon="-0.07048">
        <ele>19.4</ele>
        <time>2024-03-20T13:45:11Z</time>
      </trkpt>
      <trkpt lat="49.14488" lon="-0.07056">
        <ele>19.4</ele>
        <time>2024-03-20T13:45:12Z</time>
      </trkpt>
      <trkpt lat="49.14482" lon="-0.07064">
        <ele>19.2</ele>
        <time>2024-03-20T13:45:13Z</time>
      </trkpt>
      <trkpt lat="49.14475" lon="-0.07073">
        <ele>19.2</ele>
        <time>2024-03-20T13:45:14Z</time>
      </trkpt>
      <trkpt lat="49.14469" lon="-0.07079">
        <ele>19.2</ele>
        <time>2024-03-20T13:45:15Z</time>
      </trkpt>
      <trkpt lat="49.14463" lon="-0.07087">
        <ele>19.2</ele>
        <time>2024-03-20T13:45:16Z</time>
      </trkpt>
      <trkpt lat="49.14456" lon="-0.07095">
        <ele>19.2</ele>
        <time>2024-03-20T13:45:17Z</time>
      </trkpt>
      <trkpt lat="49.14449" lon="-0.07103">
        <ele>19</ele>
        <time>2024-03-20T13:45:18Z</time>
      </trkpt>
      <trkpt lat="49.14443" lon="-0.0711">
        <ele>18.8</ele>
        <time>2024-03-20T13:45:19Z</time>
      </trkpt>
      <trkpt lat="49.14436" lon="-0.07118">
        <ele>18.8</ele>
        <time>2024-03-20T13:45:20Z</time>
      </trkpt>
      <trkpt lat="49.14428" lon="-0.07127">
        <ele>18.8</ele>
        <time>2024-03-20T13:45:21Z</time>
      </trkpt>
      <trkpt lat="49.14423" lon="-0.07133">
        <ele>18.6</ele>
        <time>2024-03-20T13:45:22Z</time>
      </trkpt>
      <trkpt lat="49.14416" lon="-0.07141">
        <ele>18.6</ele>
        <time>2024-03-20T13:45:23Z</time>
      </trkpt>
      <trkpt lat="49.14409" lon="-0.07148">
        <ele>18.6</ele>
        <time>2024-03-20T13:45:24Z</time>
      </trkpt>
      <trkpt lat="49.14403" lon="-0.07156">
        <ele>18.4</ele>
        <time>2024-03-20T13:45:25Z</time>
      </trkpt>
      <trkpt lat="49.14394" lon="-0.07165">
        <ele>18.4</ele>
        <time>2024-03-20T13:45:26Z</time>
      </trkpt>
      <trkpt lat="49.14389" lon="-0.07171">
        <ele>18.4</ele>
        <time>2024-03-20T13:45:27Z</time>
      </trkpt>
      <trkpt lat="49.14381" lon="-0.07179">
        <ele>18.4</ele>
        <time>2024-03-20T13:45:28Z</time>
      </trkpt>
      <trkpt lat="49.14374" lon="-0.07187">
        <ele>18.4</ele>
        <time>2024-03-20T13:45:29Z</time>
      </trkpt>
      <trkpt lat="49.14367" lon="-0.07195">
        <ele>18.4</ele>
        <time>2024-03-20T13:45:30Z</time>
      </trkpt>
      <trkpt lat="49.1436" lon="-0.07203">
        <ele>18.2</ele>
        <time>2024-03-20T13:45:31Z</time>
      </trkpt>
      <trkpt lat="49.14352" lon="-0.07211">
        <ele>18</ele>
        <time>2024-03-20T13:45:32Z</time>
      </trkpt>
      <trkpt lat="49.14345" lon="-0.0722">
        <ele>17.8</ele>
        <time>2024-03-20T13:45:33Z</time>
      </trkpt>
      <trkpt lat="49.14338" lon="-0.07228">
        <ele>17.6</ele>
        <time>2024-03-20T13:45:34Z</time>
      </trkpt>
      <trkpt lat="49.14331" lon="-0.07237">
        <ele>17.2</ele>
        <time>2024-03-20T13:45:35Z</time>
      </trkpt>
      <trkpt lat="49.14324" lon="-0.07246">
        <ele>17.2</ele>
        <time>2024-03-20T13:45:36Z</time>
      </trkpt>
      <trkpt lat="49.14318" lon="-0.07255">
        <ele>17.2</ele>
        <time>2024-03-20T13:45:37Z</time>
      </trkpt>
      <trkpt lat="49.14312" lon="-0.07265">
        <ele>16.8</ele>
        <time>2024-03-20T13:45:38Z</time>
      </trkpt>
      <trkpt lat="49.14306" lon="-0.07276">
        <ele>16.4</ele>
        <time>2024-03-20T13:45:39Z</time>
      </trkpt>
      <trkpt lat="49.143" lon="-0.07286">
        <ele>16</ele>
        <time>2024-03-20T13:45:40Z</time>
      </trkpt>
      <trkpt lat="49.14294" lon="-0.07296">
        <ele>15.4</ele>
        <time>2024-03-20T13:45:41Z</time>
      </trkpt>
      <trkpt lat="49.14287" lon="-0.07308">
        <ele>15</ele>
        <time>2024-03-20T13:45:42Z</time>
      </trkpt>
      <trkpt lat="49.14282" lon="-0.07316">
        <ele>14.6</ele>
        <time>2024-03-20T13:45:43Z</time>
      </trkpt>
      <trkpt lat="49.14275" lon="-0.07328">
        <ele>14.2</ele>
        <time>2024-03-20T13:45:44Z</time>
      </trkpt>
      <trkpt lat="49.1427" lon="-0.07335">
        <ele>14.2</ele>
        <time>2024-03-20T13:45:45Z</time>
      </trkpt>
      <trkpt lat="49.14263" lon="-0.07344">
        <ele>14</ele>
        <time>2024-03-20T13:45:46Z</time>
      </trkpt>
      <trkpt lat="49.14256" lon="-0.07354">
        <ele>14</ele>
        <time>2024-03-20T13:45:47Z</time>
      </trkpt>
      <trkpt lat="49.14249" lon="-0.07362">
        <ele>14</ele>
        <time>2024-03-20T13:45:48Z</time>
      </trkpt>
      <trkpt lat="49.14244" lon="-0.07368">
        <ele>13.8</ele>
        <time>2024-03-20T13:45:49Z</time>
      </trkpt>
      <trkpt lat="49.14237" lon="-0.07376">
        <ele>13.8</ele>
        <time>2024-03-20T13:45:50Z</time>
      </trkpt>
      <trkpt lat="49.14231" lon="-0.07384">
        <ele>13.8</ele>
        <time>2024-03-20T13:45:51Z</time>
      </trkpt>
      <trkpt lat="49.14225" lon="-0.07392">
        <ele>13.8</ele>
        <time>2024-03-20T13:45:52Z</time>
      </trkpt>
      <trkpt lat="49.14217" lon="-0.07402">
        <ele>13.8</ele>
        <time>2024-03-20T13:45:53Z</time>
      </trkpt>
      <trkpt lat="49.1421" lon="-0.0741">
        <ele>13.8</ele>
        <time>2024-03-20T13:45:54Z</time>
      </trkpt>
      <trkpt lat="49.14205" lon="-0.07417">
        <ele>13.8</ele>
        <time>2024-03-20T13:45:55Z</time>
      </trkpt>
      <trkpt lat="49.14197" lon="-0.07426">
        <ele>13.8</ele>
        <time>2024-03-20T13:45:56Z</time>
      </trkpt>
      <trkpt lat="49.14192" lon="-0.07432">
        <ele>13.8</ele>
        <time>2024-03-20T13:45:57Z</time>
      </trkpt>
      <trkpt lat="49.14185" lon="-0.07439">
        <ele>13.8</ele>
        <time>2024-03-20T13:45:58Z</time>
      </trkpt>
      <trkpt lat="49.14177" lon="-0.07448">
        <ele>13.8</ele>
        <time>2024-03-20T13:45:59Z</time>
      </trkpt>
      <trkpt lat="49.14171" lon="-0.07453">
        <ele>13.8</ele>
        <time>2024-03-20T13:46:00Z</time>
      </trkpt>
      <trkpt lat="49.14164" lon="-0.07459">
        <ele>13.8</ele>
        <time>2024-03-20T13:46:01Z</time>
      </trkpt>
      <trkpt lat="49.14155" lon="-0.07465">
        <ele>13.8</ele>
        <time>2024-03-20T13:46:02Z</time>
      </trkpt>
      <trkpt lat="49.14149" lon="-0.0747">
        <ele>13.6</ele>
        <time>2024-03-20T13:46:03Z</time>
      </trkpt>
      <trkpt lat="49.14141" lon="-0.07475">
        <ele>13.6</ele>
        <time>2024-03-20T13:46:04Z</time>
      </trkpt>
      <trkpt lat="49.14132" lon="-0.07481">
        <ele>13.6</ele>
        <time>2024-03-20T13:46:05Z</time>
      </trkpt>
      <trkpt lat="49.14124" lon="-0.07486">
        <ele>13.6</ele>
        <time>2024-03-20T13:46:06Z</time>
      </trkpt>
      <trkpt lat="49.14117" lon="-0.0749">
        <ele>13.6</ele>
        <time>2024-03-20T13:46:07Z</time>
      </trkpt>
      <trkpt lat="49.14111" lon="-0.07494">
        <ele>13.8</ele>
        <time>2024-03-20T13:46:08Z</time>
      </trkpt>
      <trkpt lat="49.14103" lon="-0.07498">
        <ele>13.8</ele>
        <time>2024-03-20T13:46:09Z</time>
      </trkpt>
      <trkpt lat="49.14096" lon="-0.07503">
        <ele>13.8</ele>
        <time>2024-03-20T13:46:10Z</time>
      </trkpt>
      <trkpt lat="49.14087" lon="-0.07508">
        <ele>13.8</ele>
        <time>2024-03-20T13:46:11Z</time>
      </trkpt>
      <trkpt lat="49.14082" lon="-0.07512">
        <ele>13.8</ele>
        <time>2024-03-20T13:46:12Z</time>
      </trkpt>
      <trkpt lat="49.14075" lon="-0.07516">
        <ele>13.8</ele>
        <time>2024-03-20T13:46:13Z</time>
      </trkpt>
      <trkpt lat="49.14067" lon="-0.07523">
        <ele>13.8</ele>
        <time>2024-03-20T13:46:14Z</time>
      </trkpt>
      <trkpt lat="49.1406" lon="-0.07528">
        <ele>13.8</ele>
        <time>2024-03-20T13:46:15Z</time>
      </trkpt>
      <trkpt lat="49.14055" lon="-0.07534">
        <ele>13.8</ele>
        <time>2024-03-20T13:46:16Z</time>
      </trkpt>
      <trkpt lat="49.1405" lon="-0.0754">
        <ele>13.8</ele>
        <time>2024-03-20T13:46:17Z</time>
      </trkpt>
      <trkpt lat="49.14043" lon="-0.07549">
        <ele>13.6</ele>
        <time>2024-03-20T13:46:18Z</time>
      </trkpt>
      <trkpt lat="49.14039" lon="-0.07555">
        <ele>13.6</ele>
        <time>2024-03-20T13:46:19Z</time>
      </trkpt>
      <trkpt lat="49.14033" lon="-0.07565">
        <ele>13.6</ele>
        <time>2024-03-20T13:46:20Z</time>
      </trkpt>
      <trkpt lat="49.14027" lon="-0.07573">
        <ele>13.4</ele>
        <time>2024-03-20T13:46:21Z</time>
      </trkpt>
      <trkpt lat="49.14023" lon="-0.0758">
        <ele>13.4</ele>
        <time>2024-03-20T13:46:22Z</time>
      </trkpt>
      <trkpt lat="49.14017" lon="-0.07589">
        <ele>13.4</ele>
        <time>2024-03-20T13:46:23Z</time>
      </trkpt>
      <trkpt lat="49.14013" lon="-0.07596">
        <ele>13.4</ele>
        <time>2024-03-20T13:46:24Z</time>
      </trkpt>
      <trkpt lat="49.14008" lon="-0.07603">
        <ele>13.2</ele>
        <time>2024-03-20T13:46:25Z</time>
      </trkpt>
      <trkpt lat="49.14002" lon="-0.07612">
        <ele>13</ele>
        <time>2024-03-20T13:46:26Z</time>
      </trkpt>
      <trkpt lat="49.13997" lon="-0.0762">
        <ele>13</ele>
        <time>2024-03-20T13:46:27Z</time>
      </trkpt>
      <trkpt lat="49.13993" lon="-0.07625">
        <ele>13</ele>
        <time>2024-03-20T13:46:28Z</time>
      </trkpt>
      <trkpt lat="49.13987" lon="-0.07633">
        <ele>13</ele>
        <time>2024-03-20T13:46:29Z</time>
      </trkpt>
      <trkpt lat="49.13981" lon="-0.07639">
        <ele>13</ele>
        <time>2024-03-20T13:46:30Z</time>
      </trkpt>
      <trkpt lat="49.13976" lon="-0.07644">
        <ele>13</ele>
        <time>2024-03-20T13:46:31Z</time>
      </trkpt>
      <trkpt lat="49.13969" lon="-0.07651">
        <ele>13</ele>
        <time>2024-03-20T13:46:32Z</time>
      </trkpt>
      <trkpt lat="49.13963" lon="-0.07655">
        <ele>13</ele>
        <time>2024-03-20T13:46:33Z</time>
      </trkpt>
      <trkpt lat="49.13957" lon="-0.07659">
        <ele>13</ele>
        <time>2024-03-20T13:46:34Z</time>
      </trkpt>
      <trkpt lat="49.13949" lon="-0.07662">
        <ele>13</ele>
        <time>2024-03-20T13:46:35Z</time>
      </trkpt>
      <trkpt lat="49.13943" lon="-0.07663">
        <ele>13</ele>
        <time>2024-03-20T13:46:36Z</time>
      </trkpt>
      <trkpt lat="49.13937" lon="-0.07664">
        <ele>13</ele>
        <time>2024-03-20T13:46:37Z</time>
      </trkpt>
      <trkpt lat="49.1393" lon="-0.07664">
        <ele>13.2</ele>
        <time>2024-03-20T13:46:38Z</time>
      </trkpt>
      <trkpt lat="49.13922" lon="-0.07664">
        <ele>13.4</ele>
        <time>2024-03-20T13:46:39Z</time>
      </trkpt>
      <trkpt lat="49.13917" lon="-0.07663">
        <ele>13.6</ele>
        <time>2024-03-20T13:46:40Z</time>
      </trkpt>
      <trkpt lat="49.13911" lon="-0.07662">
        <ele>13.6</ele>
        <time>2024-03-20T13:46:41Z</time>
      </trkpt>
      <trkpt lat="49.13904" lon="-0.07661">
        <ele>13.8</ele>
        <time>2024-03-20T13:46:42Z</time>
      </trkpt>
      <trkpt lat="49.139" lon="-0.07661">
        <ele>14.2</ele>
        <time>2024-03-20T13:46:43Z</time>
      </trkpt>
      <trkpt lat="49.13893" lon="-0.07661">
        <ele>14.2</ele>
        <time>2024-03-20T13:46:44Z</time>
      </trkpt>
      <trkpt lat="49.13887" lon="-0.0766">
        <ele>14.4</ele>
        <time>2024-03-20T13:46:45Z</time>
      </trkpt>
      <trkpt lat="49.13882" lon="-0.07658">
        <ele>14.6</ele>
        <time>2024-03-20T13:46:46Z</time>
      </trkpt>
      <trkpt lat="49.13875" lon="-0.07654">
        <ele>14.6</ele>
        <time>2024-03-20T13:46:47Z</time>
      </trkpt>
      <trkpt lat="49.13869" lon="-0.0765">
        <ele>14.6</ele>
        <time>2024-03-20T13:46:48Z</time>
      </trkpt>
      <trkpt lat="49.13863" lon="-0.07647">
        <ele>14.6</ele>
        <time>2024-03-20T13:46:49Z</time>
      </trkpt>
      <trkpt lat="49.13856" lon="-0.07643">
        <ele>14.8</ele>
        <time>2024-03-20T13:46:50Z</time>
      </trkpt>
      <trkpt lat="49.13849" lon="-0.0764">
        <ele>14.8</ele>
        <time>2024-03-20T13:46:51Z</time>
      </trkpt>
      <trkpt lat="49.13844" lon="-0.07637">
        <ele>15</ele>
        <time>2024-03-20T13:46:52Z</time>
      </trkpt>
      <trkpt lat="49.13836" lon="-0.07632">
        <ele>15</ele>
        <time>2024-03-20T13:46:53Z</time>
      </trkpt>
      <trkpt lat="49.1383" lon="-0.07629">
        <ele>15</ele>
        <time>2024-03-20T13:46:54Z</time>
      </trkpt>
      <trkpt lat="49.13823" lon="-0.07625">
        <ele>15</ele>
        <time>2024-03-20T13:46:55Z</time>
      </trkpt>
      <trkpt lat="49.13814" lon="-0.07621">
        <ele>15</ele>
        <time>2024-03-20T13:46:56Z</time>
      </trkpt>
      <trkpt lat="49.13809" lon="-0.07617">
        <ele>15</ele>
        <time>2024-03-20T13:46:57Z</time>
      </trkpt>
      <trkpt lat="49.13802" lon="-0.07613">
        <ele>15</ele>
        <time>2024-03-20T13:46:58Z</time>
      </trkpt>
      <trkpt lat="49.13795" lon="-0.07609">
        <ele>15</ele>
        <time>2024-03-20T13:46:59Z</time>
      </trkpt>
      <trkpt lat="49.13786" lon="-0.07604">
        <ele>15</ele>
        <time>2024-03-20T13:47:00Z</time>
      </trkpt>
      <trkpt lat="49.1378" lon="-0.07601">
        <ele>15</ele>
        <time>2024-03-20T13:47:01Z</time>
      </trkpt>
      <trkpt lat="49.13772" lon="-0.07596">
        <ele>15</ele>
        <time>2024-03-20T13:47:02Z</time>
      </trkpt>
      <trkpt lat="49.13764" lon="-0.07592">
        <ele>15</ele>
        <time>2024-03-20T13:47:03Z</time>
      </trkpt>
      <trkpt lat="49.13758" lon="-0.07589">
        <ele>15</ele>
        <time>2024-03-20T13:47:04Z</time>
      </trkpt>
      <trkpt lat="49.1375" lon="-0.07586">
        <ele>15</ele>
        <time>2024-03-20T13:47:05Z</time>
      </trkpt>
      <trkpt lat="49.13741" lon="-0.07581">
        <ele>15</ele>
        <time>2024-03-20T13:47:06Z</time>
      </trkpt>
      <trkpt lat="49.13734" lon="-0.07577">
        <ele>15</ele>
        <time>2024-03-20T13:47:07Z</time>
      </trkpt>
      <trkpt lat="49.13728" lon="-0.07574">
        <ele>15</ele>
        <time>2024-03-20T13:47:08Z</time>
      </trkpt>
      <trkpt lat="49.1372" lon="-0.07571">
        <ele>15</ele>
        <time>2024-03-20T13:47:09Z</time>
      </trkpt>
      <trkpt lat="49.13711" lon="-0.07567">
        <ele>15.2</ele>
        <time>2024-03-20T13:47:10Z</time>
      </trkpt>
      <trkpt lat="49.13705" lon="-0.07564">
        <ele>15.2</ele>
        <time>2024-03-20T13:47:11Z</time>
      </trkpt>
      <trkpt lat="49.13695" lon="-0.07562">
        <ele>15.2</ele>
        <time>2024-03-20T13:47:12Z</time>
      </trkpt>
      <trkpt lat="49.13689" lon="-0.0756">
        <ele>15.4</ele>
        <time>2024-03-20T13:47:13Z</time>
      </trkpt>
      <trkpt lat="49.13681" lon="-0.0756">
        <ele>15.4</ele>
        <time>2024-03-20T13:47:14Z</time>
      </trkpt>
      <trkpt lat="49.13672" lon="-0.07561">
        <ele>15.6</ele>
        <time>2024-03-20T13:47:15Z</time>
      </trkpt>
      <trkpt lat="49.13665" lon="-0.07561">
        <ele>15.6</ele>
        <time>2024-03-20T13:47:16Z</time>
      </trkpt>
      <trkpt lat="49.13658" lon="-0.07563">
        <ele>15.6</ele>
        <time>2024-03-20T13:47:17Z</time>
      </trkpt>
      <trkpt lat="49.1365" lon="-0.07565">
        <ele>15.6</ele>
        <time>2024-03-20T13:47:18Z</time>
      </trkpt>
      <trkpt lat="49.13643" lon="-0.07567">
        <ele>15.8</ele>
        <time>2024-03-20T13:47:19Z</time>
      </trkpt>
      <trkpt lat="49.13635" lon="-0.0757">
        <ele>15.8</ele>
        <time>2024-03-20T13:47:20Z</time>
      </trkpt>
      <trkpt lat="49.13627" lon="-0.07572">
        <ele>15.8</ele>
        <time>2024-03-20T13:47:21Z</time>
      </trkpt>
      <trkpt lat="49.13618" lon="-0.07575">
        <ele>15.8</ele>
        <time>2024-03-20T13:47:22Z</time>
      </trkpt>
      <trkpt lat="49.1361" lon="-0.07578">
        <ele>15.8</ele>
        <time>2024-03-20T13:47:23Z</time>
      </trkpt>
      <trkpt lat="49.13604" lon="-0.07579">
        <ele>15.8</ele>
        <time>2024-03-20T13:47:24Z</time>
      </trkpt>
      <trkpt lat="49.13596" lon="-0.07581">
        <ele>15.8</ele>
        <time>2024-03-20T13:47:25Z</time>
      </trkpt>
      <trkpt lat="49.13588" lon="-0.07581">
        <ele>15.8</ele>
        <time>2024-03-20T13:47:26Z</time>
      </trkpt>
      <trkpt lat="49.1358" lon="-0.0758">
        <ele>15.8</ele>
        <time>2024-03-20T13:47:27Z</time>
      </trkpt>
      <trkpt lat="49.13571" lon="-0.07579">
        <ele>15.8</ele>
        <time>2024-03-20T13:47:28Z</time>
      </trkpt>
      <trkpt lat="49.13564" lon="-0.07577">
        <ele>15.8</ele>
        <time>2024-03-20T13:47:29Z</time>
      </trkpt>
      <trkpt lat="49.13558" lon="-0.07575">
        <ele>15.8</ele>
        <time>2024-03-20T13:47:30Z</time>
      </trkpt>
      <trkpt lat="49.13548" lon="-0.07573">
        <ele>15.8</ele>
        <time>2024-03-20T13:47:31Z</time>
      </trkpt>
      <trkpt lat="49.1354" lon="-0.0757">
        <ele>15.8</ele>
        <time>2024-03-20T13:47:32Z</time>
      </trkpt>
      <trkpt lat="49.13534" lon="-0.07568">
        <ele>15.8</ele>
        <time>2024-03-20T13:47:33Z</time>
      </trkpt>
      <trkpt lat="49.13526" lon="-0.07566">
        <ele>15.8</ele>
        <time>2024-03-20T13:47:34Z</time>
      </trkpt>
      <trkpt lat="49.13517" lon="-0.07564">
        <ele>15.8</ele>
        <time>2024-03-20T13:47:35Z</time>
      </trkpt>
      <trkpt lat="49.13511" lon="-0.07564">
        <ele>15.8</ele>
        <time>2024-03-20T13:47:36Z</time>
      </trkpt>
      <trkpt lat="49.13504" lon="-0.07563">
        <ele>15.6</ele>
        <time>2024-03-20T13:47:37Z</time>
      </trkpt>
      <trkpt lat="49.13497" lon="-0.07562">
        <ele>15.4</ele>
        <time>2024-03-20T13:47:38Z</time>
      </trkpt>
      <trkpt lat="49.1349" lon="-0.07561">
        <ele>15.4</ele>
        <time>2024-03-20T13:47:39Z</time>
      </trkpt>
      <trkpt lat="49.13482" lon="-0.0756">
        <ele>15.4</ele>
        <time>2024-03-20T13:47:40Z</time>
      </trkpt>
      <trkpt lat="49.13475" lon="-0.07559">
        <ele>15.4</ele>
        <time>2024-03-20T13:47:41Z</time>
      </trkpt>
      <trkpt lat="49.1347" lon="-0.07558">
        <ele>15.4</ele>
        <time>2024-03-20T13:47:42Z</time>
      </trkpt>
      <trkpt lat="49.13464" lon="-0.07557">
        <ele>15.4</ele>
        <time>2024-03-20T13:47:43Z</time>
      </trkpt>
      <trkpt lat="49.13456" lon="-0.07557">
        <ele>15.4</ele>
        <time>2024-03-20T13:47:44Z</time>
      </trkpt>
      <trkpt lat="49.13451" lon="-0.07556">
        <ele>15.4</ele>
        <time>2024-03-20T13:47:45Z</time>
      </trkpt>
      <trkpt lat="49.13443" lon="-0.07555">
        <ele>15.4</ele>
        <time>2024-03-20T13:47:46Z</time>
      </trkpt>
      <trkpt lat="49.13438" lon="-0.07554">
        <ele>15.4</ele>
        <time>2024-03-20T13:47:47Z</time>
      </trkpt>
      <trkpt lat="49.13431" lon="-0.07553">
        <ele>15.4</ele>
        <time>2024-03-20T13:47:48Z</time>
      </trkpt>
      <trkpt lat="49.13425" lon="-0.07552">
        <ele>15.4</ele>
        <time>2024-03-20T13:47:49Z</time>
      </trkpt>
      <trkpt lat="49.1342" lon="-0.07552">
        <ele>15.4</ele>
        <time>2024-03-20T13:47:50Z</time>
      </trkpt>
      <trkpt lat="49.13417" lon="-0.07551">
        <ele>15.4</ele>
        <time>2024-03-20T13:47:51Z</time>
      </trkpt>
      <trkpt lat="49.13412" lon="-0.0755">
        <ele>15.4</ele>
        <time>2024-03-20T13:47:52Z</time>
      </trkpt>
      <trkpt lat="49.1341" lon="-0.07548">
        <ele>15.6</ele>
        <time>2024-03-20T13:47:53Z</time>
      </trkpt>
      <trkpt lat="49.13408" lon="-0.07543">
        <ele>15.6</ele>
        <time>2024-03-20T13:47:54Z</time>
      </trkpt>
      <trkpt lat="49.13407" lon="-0.07536">
        <ele>15.6</ele>
        <time>2024-03-20T13:47:55Z</time>
      </trkpt>
      <trkpt lat="49.13407" lon="-0.07529">
        <ele>15.6</ele>
        <time>2024-03-20T13:47:56Z</time>
      </trkpt>
      <trkpt lat="49.13407" lon="-0.07523">
        <ele>15.6</ele>
        <time>2024-03-20T13:47:57Z</time>
      </trkpt>
      <trkpt lat="49.13408" lon="-0.07514">
        <ele>15.6</ele>
        <time>2024-03-20T13:47:58Z</time>
      </trkpt>
      <trkpt lat="49.13408" lon="-0.07508">
        <ele>15.6</ele>
        <time>2024-03-20T13:47:59Z</time>
      </trkpt>
      <trkpt lat="49.13409" lon="-0.075">
        <ele>15.6</ele>
        <time>2024-03-20T13:48:00Z</time>
      </trkpt>
      <trkpt lat="49.13409" lon="-0.07491">
        <ele>15.8</ele>
        <time>2024-03-20T13:48:01Z</time>
      </trkpt>
      <trkpt lat="49.13409" lon="-0.07483">
        <ele>15.8</ele>
        <time>2024-03-20T13:48:02Z</time>
      </trkpt>
      <trkpt lat="49.13409" lon="-0.07474">
        <ele>15.8</ele>
        <time>2024-03-20T13:48:03Z</time>
      </trkpt>
      <trkpt lat="49.13409" lon="-0.07463">
        <ele>15.8</ele>
        <time>2024-03-20T13:48:04Z</time>
      </trkpt>
      <trkpt lat="49.1341" lon="-0.07455">
        <ele>15.8</ele>
        <time>2024-03-20T13:48:05Z</time>
      </trkpt>
      <trkpt lat="49.1341" lon="-0.07445">
        <ele>16</ele>
        <time>2024-03-20T13:48:06Z</time>
      </trkpt>
      <trkpt lat="49.13411" lon="-0.07432">
        <ele>16</ele>
        <time>2024-03-20T13:48:07Z</time>
      </trkpt>
      <trkpt lat="49.13412" lon="-0.07421">
        <ele>16</ele>
        <time>2024-03-20T13:48:08Z</time>
      </trkpt>
      <trkpt lat="49.13412" lon="-0.07411">
        <ele>16</ele>
        <time>2024-03-20T13:48:09Z</time>
      </trkpt>
      <trkpt lat="49.13413" lon="-0.07397">
        <ele>16</ele>
        <time>2024-03-20T13:48:10Z</time>
      </trkpt>
      <trkpt lat="49.13413" lon="-0.07385">
        <ele>16</ele>
        <time>2024-03-20T13:48:11Z</time>
      </trkpt>
      <trkpt lat="49.13414" lon="-0.07375">
        <ele>16</ele>
        <time>2024-03-20T13:48:12Z</time>
      </trkpt>
      <trkpt lat="49.13414" lon="-0.0736">
        <ele>16</ele>
        <time>2024-03-20T13:48:13Z</time>
      </trkpt>
      <trkpt lat="49.13415" lon="-0.07348">
        <ele>16</ele>
        <time>2024-03-20T13:48:14Z</time>
      </trkpt>
      <trkpt lat="49.13416" lon="-0.07338">
        <ele>16</ele>
        <time>2024-03-20T13:48:15Z</time>
      </trkpt>
      <trkpt lat="49.13416" lon="-0.07323">
        <ele>16</ele>
        <time>2024-03-20T13:48:16Z</time>
      </trkpt>
      <trkpt lat="49.13417" lon="-0.07313">
        <ele>16</ele>
        <time>2024-03-20T13:48:17Z</time>
      </trkpt>
      <trkpt lat="49.13417" lon="-0.07301">
        <ele>16.2</ele>
        <time>2024-03-20T13:48:18Z</time>
      </trkpt>
      <trkpt lat="49.13418" lon="-0.07286">
        <ele>16.2</ele>
        <time>2024-03-20T13:48:19Z</time>
      </trkpt>
      <trkpt lat="49.13419" lon="-0.07276">
        <ele>16.2</ele>
        <time>2024-03-20T13:48:20Z</time>
      </trkpt>
      <trkpt lat="49.13419" lon="-0.07264">
        <ele>16.2</ele>
        <time>2024-03-20T13:48:21Z</time>
      </trkpt>
      <trkpt lat="49.1342" lon="-0.07249">
        <ele>16.2</ele>
        <time>2024-03-20T13:48:22Z</time>
      </trkpt>
      <trkpt lat="49.13421" lon="-0.07237">
        <ele>16.2</ele>
        <time>2024-03-20T13:48:23Z</time>
      </trkpt>
      <trkpt lat="49.13421" lon="-0.07227">
        <ele>16.2</ele>
        <time>2024-03-20T13:48:24Z</time>
      </trkpt>
      <trkpt lat="49.13422" lon="-0.07215">
        <ele>16.2</ele>
        <time>2024-03-20T13:48:25Z</time>
      </trkpt>
      <trkpt lat="49.13422" lon="-0.07203">
        <ele>16.2</ele>
        <time>2024-03-20T13:48:26Z</time>
      </trkpt>
      <trkpt lat="49.13423" lon="-0.07191">
        <ele>16.4</ele>
        <time>2024-03-20T13:48:27Z</time>
      </trkpt>
      <trkpt lat="49.13423" lon="-0.07177">
        <ele>16.4</ele>
        <time>2024-03-20T13:48:28Z</time>
      </trkpt>
      <trkpt lat="49.13424" lon="-0.07165">
        <ele>16.4</ele>
        <time>2024-03-20T13:48:29Z</time>
      </trkpt>
      <trkpt lat="49.13424" lon="-0.07156">
        <ele>16.4</ele>
        <time>2024-03-20T13:48:30Z</time>
      </trkpt>
      <trkpt lat="49.13425" lon="-0.07142">
        <ele>16.6</ele>
        <time>2024-03-20T13:48:31Z</time>
      </trkpt>
      <trkpt lat="49.13426" lon="-0.07133">
        <ele>16.8</ele>
        <time>2024-03-20T13:48:32Z</time>
      </trkpt>
      <trkpt lat="49.13426" lon="-0.07121">
        <ele>16.8</ele>
        <time>2024-03-20T13:48:33Z</time>
      </trkpt>
      <trkpt lat="49.13427" lon="-0.0711">
        <ele>16.8</ele>
        <time>2024-03-20T13:48:34Z</time>
      </trkpt>
      <trkpt lat="49.13427" lon="-0.07097">
        <ele>16.8</ele>
        <time>2024-03-20T13:48:35Z</time>
      </trkpt>
      <trkpt lat="49.13428" lon="-0.07088">
        <ele>16.8</ele>
        <time>2024-03-20T13:48:36Z</time>
      </trkpt>
      <trkpt lat="49.13428" lon="-0.07074">
        <ele>16.8</ele>
        <time>2024-03-20T13:48:37Z</time>
      </trkpt>
      <trkpt lat="49.13429" lon="-0.07063">
        <ele>17</ele>
        <time>2024-03-20T13:48:38Z</time>
      </trkpt>
      <trkpt lat="49.13429" lon="-0.07054">
        <ele>17</ele>
        <time>2024-03-20T13:48:39Z</time>
      </trkpt>
      <trkpt lat="49.13429" lon="-0.07041">
        <ele>17</ele>
        <time>2024-03-20T13:48:40Z</time>
      </trkpt>
      <trkpt lat="49.1343" lon="-0.07032">
        <ele>17</ele>
        <time>2024-03-20T13:48:41Z</time>
      </trkpt>
      <trkpt lat="49.1343" lon="-0.07021">
        <ele>17</ele>
        <time>2024-03-20T13:48:42Z</time>
      </trkpt>
      <trkpt lat="49.13431" lon="-0.0701">
        <ele>17</ele>
        <time>2024-03-20T13:48:43Z</time>
      </trkpt>
      <trkpt lat="49.13431" lon="-0.06999">
        <ele>17</ele>
        <time>2024-03-20T13:48:44Z</time>
      </trkpt>
      <trkpt lat="49.13431" lon="-0.06988">
        <ele>17</ele>
        <time>2024-03-20T13:48:45Z</time>
      </trkpt>
      <trkpt lat="49.13432" lon="-0.06978">
        <ele>17</ele>
        <time>2024-03-20T13:48:46Z</time>
      </trkpt>
      <trkpt lat="49.13432" lon="-0.06966">
        <ele>17.2</ele>
        <time>2024-03-20T13:48:47Z</time>
      </trkpt>
      <trkpt lat="49.13433" lon="-0.06956">
        <ele>17.2</ele>
        <time>2024-03-20T13:48:48Z</time>
      </trkpt>
      <trkpt lat="49.13433" lon="-0.06947">
        <ele>17.2</ele>
        <time>2024-03-20T13:48:49Z</time>
      </trkpt>
      <trkpt lat="49.13433" lon="-0.06935">
        <ele>17.2</ele>
        <time>2024-03-20T13:48:50Z</time>
      </trkpt>
      <trkpt lat="49.13434" lon="-0.06924">
        <ele>17.2</ele>
        <time>2024-03-20T13:48:51Z</time>
      </trkpt>
      <trkpt lat="49.13434" lon="-0.06914">
        <ele>17.4</ele>
        <time>2024-03-20T13:48:52Z</time>
      </trkpt>
      <trkpt lat="49.13435" lon="-0.06903">
        <ele>17.4</ele>
        <time>2024-03-20T13:48:53Z</time>
      </trkpt>
      <trkpt lat="49.13435" lon="-0.06892">
        <ele>17.4</ele>
        <time>2024-03-20T13:48:54Z</time>
      </trkpt>
      <trkpt lat="49.13436" lon="-0.0688">
        <ele>17.4</ele>
        <time>2024-03-20T13:48:55Z</time>
      </trkpt>
      <trkpt lat="49.13436" lon="-0.06867">
        <ele>17.4</ele>
        <time>2024-03-20T13:48:56Z</time>
      </trkpt>
      <trkpt lat="49.13437" lon="-0.06858">
        <ele>17.2</ele>
        <time>2024-03-20T13:48:57Z</time>
      </trkpt>
      <trkpt lat="49.13437" lon="-0.06848">
        <ele>17.2</ele>
        <time>2024-03-20T13:48:58Z</time>
      </trkpt>
      <trkpt lat="49.13438" lon="-0.06837">
        <ele>17.4</ele>
        <time>2024-03-20T13:48:59Z</time>
      </trkpt>
      <trkpt lat="49.13438" lon="-0.06826">
        <ele>17.4</ele>
        <time>2024-03-20T13:49:00Z</time>
      </trkpt>
      <trkpt lat="49.13438" lon="-0.06816">
        <ele>17.4</ele>
        <time>2024-03-20T13:49:01Z</time>
      </trkpt>
      <trkpt lat="49.13437" lon="-0.06804">
        <ele>17.2</ele>
        <time>2024-03-20T13:49:02Z</time>
      </trkpt>
      <trkpt lat="49.13435" lon="-0.06797">
        <ele>17.2</ele>
        <time>2024-03-20T13:49:03Z</time>
      </trkpt>
      <trkpt lat="49.13433" lon="-0.06787">
        <ele>17.2</ele>
        <time>2024-03-20T13:49:04Z</time>
      </trkpt>
      <trkpt lat="49.13428" lon="-0.06776">
        <ele>17.2</ele>
        <time>2024-03-20T13:49:05Z</time>
      </trkpt>
      <trkpt lat="49.13422" lon="-0.06769">
        <ele>17.2</ele>
        <time>2024-03-20T13:49:06Z</time>
      </trkpt>
      <trkpt lat="49.13417" lon="-0.06765">
        <ele>17.2</ele>
        <time>2024-03-20T13:49:07Z</time>
      </trkpt>
      <trkpt lat="49.13408" lon="-0.0676">
        <ele>17.2</ele>
        <time>2024-03-20T13:49:08Z</time>
      </trkpt>
      <trkpt lat="49.13402" lon="-0.06758">
        <ele>17.2</ele>
        <time>2024-03-20T13:49:09Z</time>
      </trkpt>
      <trkpt lat="49.13394" lon="-0.06757">
        <ele>17</ele>
        <time>2024-03-20T13:49:10Z</time>
      </trkpt>
      <trkpt lat="49.13384" lon="-0.06756">
        <ele>17</ele>
        <time>2024-03-20T13:49:11Z</time>
      </trkpt>
      <trkpt lat="49.13377" lon="-0.06756">
        <ele>17</ele>
        <time>2024-03-20T13:49:12Z</time>
      </trkpt>
      <trkpt lat="49.13368" lon="-0.06756">
        <ele>17</ele>
        <time>2024-03-20T13:49:13Z</time>
      </trkpt>
      <trkpt lat="49.13358" lon="-0.06756">
        <ele>16.8</ele>
        <time>2024-03-20T13:49:14Z</time>
      </trkpt>
      <trkpt lat="49.13349" lon="-0.06755">
        <ele>16.8</ele>
        <time>2024-03-20T13:49:15Z</time>
      </trkpt>
      <trkpt lat="49.13342" lon="-0.06755">
        <ele>16.8</ele>
        <time>2024-03-20T13:49:16Z</time>
      </trkpt>
      <trkpt lat="49.13334" lon="-0.06755">
        <ele>16.8</ele>
        <time>2024-03-20T13:49:17Z</time>
      </trkpt>
      <trkpt lat="49.13326" lon="-0.06755">
        <ele>16.8</ele>
        <time>2024-03-20T13:49:18Z</time>
      </trkpt>
      <trkpt lat="49.13318" lon="-0.06755">
        <ele>16.8</ele>
        <time>2024-03-20T13:49:19Z</time>
      </trkpt>
      <trkpt lat="49.1331" lon="-0.06755">
        <ele>16.6</ele>
        <time>2024-03-20T13:49:20Z</time>
      </trkpt>
      <trkpt lat="49.13301" lon="-0.06756">
        <ele>16.6</ele>
        <time>2024-03-20T13:49:21Z</time>
      </trkpt>
      <trkpt lat="49.13293" lon="-0.06756">
        <ele>16.6</ele>
        <time>2024-03-20T13:49:22Z</time>
      </trkpt>
      <trkpt lat="49.13287" lon="-0.06756">
        <ele>16.6</ele>
        <time>2024-03-20T13:49:23Z</time>
      </trkpt>
      <trkpt lat="49.13279" lon="-0.06756">
        <ele>16.6</ele>
        <time>2024-03-20T13:49:24Z</time>
      </trkpt>
      <trkpt lat="49.13271" lon="-0.06756">
        <ele>16.6</ele>
        <time>2024-03-20T13:49:25Z</time>
      </trkpt>
      <trkpt lat="49.13263" lon="-0.06756">
        <ele>16.6</ele>
        <time>2024-03-20T13:49:26Z</time>
      </trkpt>
      <trkpt lat="49.13255" lon="-0.06757">
        <ele>16.6</ele>
        <time>2024-03-20T13:49:27Z</time>
      </trkpt>
      <trkpt lat="49.13246" lon="-0.06757">
        <ele>16.6</ele>
        <time>2024-03-20T13:49:28Z</time>
      </trkpt>
      <trkpt lat="49.1324" lon="-0.06757">
        <ele>16.6</ele>
        <time>2024-03-20T13:49:29Z</time>
      </trkpt>
      <trkpt lat="49.1323" lon="-0.06758">
        <ele>16.6</ele>
        <time>2024-03-20T13:49:30Z</time>
      </trkpt>
      <trkpt lat="49.13223" lon="-0.06758">
        <ele>16.6</ele>
        <time>2024-03-20T13:49:31Z</time>
      </trkpt>
      <trkpt lat="49.13217" lon="-0.06759">
        <ele>16.6</ele>
        <time>2024-03-20T13:49:32Z</time>
      </trkpt>
      <trkpt lat="49.13209" lon="-0.0676">
        <ele>16.8</ele>
        <time>2024-03-20T13:49:33Z</time>
      </trkpt>
      <trkpt lat="49.13202" lon="-0.06761">
        <ele>16.8</ele>
        <time>2024-03-20T13:49:34Z</time>
      </trkpt>
      <trkpt lat="49.13194" lon="-0.06762">
        <ele>17</ele>
        <time>2024-03-20T13:49:35Z</time>
      </trkpt>
      <trkpt lat="49.13185" lon="-0.06764">
        <ele>17</ele>
        <time>2024-03-20T13:49:36Z</time>
      </trkpt>
      <trkpt lat="49.13178" lon="-0.06765">
        <ele>17</ele>
        <time>2024-03-20T13:49:37Z</time>
      </trkpt>
      <trkpt lat="49.13172" lon="-0.06766">
        <ele>17</ele>
        <time>2024-03-20T13:49:38Z</time>
      </trkpt>
      <trkpt lat="49.13163" lon="-0.06768">
        <ele>17</ele>
        <time>2024-03-20T13:49:39Z</time>
      </trkpt>
      <trkpt lat="49.13156" lon="-0.06769">
        <ele>17</ele>
        <time>2024-03-20T13:49:40Z</time>
      </trkpt>
      <trkpt lat="49.1315" lon="-0.06771">
        <ele>17</ele>
        <time>2024-03-20T13:49:41Z</time>
      </trkpt>
      <trkpt lat="49.13143" lon="-0.06772">
        <ele>17</ele>
        <time>2024-03-20T13:49:42Z</time>
      </trkpt>
      <trkpt lat="49.13134" lon="-0.06774">
        <ele>17</ele>
        <time>2024-03-20T13:49:43Z</time>
      </trkpt>
      <trkpt lat="49.13128" lon="-0.06776">
        <ele>17</ele>
        <time>2024-03-20T13:49:44Z</time>
      </trkpt>
      <trkpt lat="49.1312" lon="-0.06777">
        <ele>17.2</ele>
        <time>2024-03-20T13:49:45Z</time>
      </trkpt>
      <trkpt lat="49.13112" lon="-0.06779">
        <ele>17.2</ele>
        <time>2024-03-20T13:49:46Z</time>
      </trkpt>
      <trkpt lat="49.13105" lon="-0.06781">
        <ele>17.2</ele>
        <time>2024-03-20T13:49:47Z</time>
      </trkpt>
      <trkpt lat="49.13097" lon="-0.06782">
        <ele>17.2</ele>
        <time>2024-03-20T13:49:48Z</time>
      </trkpt>
      <trkpt lat="49.13087" lon="-0.06784">
        <ele>17.2</ele>
        <time>2024-03-20T13:49:49Z</time>
      </trkpt>
      <trkpt lat="49.13081" lon="-0.06786">
        <ele>17.2</ele>
        <time>2024-03-20T13:49:50Z</time>
      </trkpt>
      <trkpt lat="49.13072" lon="-0.06788">
        <ele>17.2</ele>
        <time>2024-03-20T13:49:51Z</time>
      </trkpt>
      <trkpt lat="49.13066" lon="-0.0679">
        <ele>17.2</ele>
        <time>2024-03-20T13:49:52Z</time>
      </trkpt>
      <trkpt lat="49.13059" lon="-0.06791">
        <ele>17.2</ele>
        <time>2024-03-20T13:49:53Z</time>
      </trkpt>
      <trkpt lat="49.13051" lon="-0.06793">
        <ele>17.2</ele>
        <time>2024-03-20T13:49:54Z</time>
      </trkpt>
      <trkpt lat="49.13045" lon="-0.06794">
        <ele>17.2</ele>
        <time>2024-03-20T13:49:55Z</time>
      </trkpt>
      <trkpt lat="49.13036" lon="-0.06796">
        <ele>17.2</ele>
        <time>2024-03-20T13:49:56Z</time>
      </trkpt>
      <trkpt lat="49.13029" lon="-0.06797">
        <ele>17.2</ele>
        <time>2024-03-20T13:49:57Z</time>
      </trkpt>
      <trkpt lat="49.13019" lon="-0.06799">
        <ele>17.2</ele>
        <time>2024-03-20T13:49:58Z</time>
      </trkpt>
      <trkpt lat="49.13012" lon="-0.06799">
        <ele>17.2</ele>
        <time>2024-03-20T13:49:59Z</time>
      </trkpt>
      <trkpt lat="49.13006" lon="-0.068">
        <ele>17.2</ele>
        <time>2024-03-20T13:50:00Z</time>
      </trkpt>
      <trkpt lat="49.12998" lon="-0.068">
        <ele>17.4</ele>
        <time>2024-03-20T13:50:01Z</time>
      </trkpt>
      <trkpt lat="49.1299" lon="-0.06798">
        <ele>17.4</ele>
        <time>2024-03-20T13:50:02Z</time>
      </trkpt>
      <trkpt lat="49.12981" lon="-0.06796">
        <ele>17.4</ele>
        <time>2024-03-20T13:50:03Z</time>
      </trkpt>
      <trkpt lat="49.12975" lon="-0.06793">
        <ele>17.4</ele>
        <time>2024-03-20T13:50:04Z</time>
      </trkpt>
      <trkpt lat="49.12966" lon="-0.06788">
        <ele>17.4</ele>
        <time>2024-03-20T13:50:05Z</time>
      </trkpt>
      <trkpt lat="49.12959" lon="-0.06784">
        <ele>17.4</ele>
        <time>2024-03-20T13:50:06Z</time>
      </trkpt>
      <trkpt lat="49.12953" lon="-0.0678">
        <ele>17.4</ele>
        <time>2024-03-20T13:50:07Z</time>
      </trkpt>
      <trkpt lat="49.12947" lon="-0.06775">
        <ele>17.6</ele>
        <time>2024-03-20T13:50:08Z</time>
      </trkpt>
      <trkpt lat="49.1294" lon="-0.0677">
        <ele>17.6</ele>
        <time>2024-03-20T13:50:09Z</time>
      </trkpt>
      <trkpt lat="49.12933" lon="-0.06765">
        <ele>17.6</ele>
        <time>2024-03-20T13:50:10Z</time>
      </trkpt>
      <trkpt lat="49.12926" lon="-0.0676">
        <ele>17.8</ele>
        <time>2024-03-20T13:50:11Z</time>
      </trkpt>
      <trkpt lat="49.12919" lon="-0.06755">
        <ele>17.8</ele>
        <time>2024-03-20T13:50:12Z</time>
      </trkpt>
      <trkpt lat="49.12912" lon="-0.0675">
        <ele>17.8</ele>
        <time>2024-03-20T13:50:13Z</time>
      </trkpt>
      <trkpt lat="49.12903" lon="-0.06744">
        <ele>18</ele>
        <time>2024-03-20T13:50:14Z</time>
      </trkpt>
      <trkpt lat="49.12896" lon="-0.06739">
        <ele>18</ele>
        <time>2024-03-20T13:50:15Z</time>
      </trkpt>
      <trkpt lat="49.1289" lon="-0.06736">
        <ele>18</ele>
        <time>2024-03-20T13:50:16Z</time>
      </trkpt>
      <trkpt lat="49.12881" lon="-0.0673">
        <ele>18</ele>
        <time>2024-03-20T13:50:17Z</time>
      </trkpt>
      <trkpt lat="49.12875" lon="-0.06727">
        <ele>18</ele>
        <time>2024-03-20T13:50:18Z</time>
      </trkpt>
      <trkpt lat="49.12869" lon="-0.06722">
        <ele>18</ele>
        <time>2024-03-20T13:50:19Z</time>
      </trkpt>
      <trkpt lat="49.12861" lon="-0.06717">
        <ele>18</ele>
        <time>2024-03-20T13:50:20Z</time>
      </trkpt>
      <trkpt lat="49.12854" lon="-0.06713">
        <ele>18</ele>
        <time>2024-03-20T13:50:21Z</time>
      </trkpt>
      <trkpt lat="49.12849" lon="-0.0671">
        <ele>18</ele>
        <time>2024-03-20T13:50:22Z</time>
      </trkpt>
      <trkpt lat="49.1284" lon="-0.06707">
        <ele>18</ele>
        <time>2024-03-20T13:50:23Z</time>
      </trkpt>
      <trkpt lat="49.12833" lon="-0.06704">
        <ele>18</ele>
        <time>2024-03-20T13:50:24Z</time>
      </trkpt>
      <trkpt lat="49.12826" lon="-0.06702">
        <ele>18.2</ele>
        <time>2024-03-20T13:50:25Z</time>
      </trkpt>
      <trkpt lat="49.12819" lon="-0.06699">
        <ele>18.2</ele>
        <time>2024-03-20T13:50:26Z</time>
      </trkpt>
      <trkpt lat="49.12812" lon="-0.06696">
        <ele>18.2</ele>
        <time>2024-03-20T13:50:27Z</time>
      </trkpt>
      <trkpt lat="49.12804" lon="-0.06694">
        <ele>18.2</ele>
        <time>2024-03-20T13:50:28Z</time>
      </trkpt>
      <trkpt lat="49.12797" lon="-0.06692">
        <ele>18.2</ele>
        <time>2024-03-20T13:50:29Z</time>
      </trkpt>
      <trkpt lat="49.12788" lon="-0.0669">
        <ele>18.4</ele>
        <time>2024-03-20T13:50:30Z</time>
      </trkpt>
      <trkpt lat="49.12781" lon="-0.06689">
        <ele>18.4</ele>
        <time>2024-03-20T13:50:31Z</time>
      </trkpt>
      <trkpt lat="49.12772" lon="-0.06688">
        <ele>18.4</ele>
        <time>2024-03-20T13:50:32Z</time>
      </trkpt>
      <trkpt lat="49.12764" lon="-0.06688">
        <ele>18.4</ele>
        <time>2024-03-20T13:50:33Z</time>
      </trkpt>
      <trkpt lat="49.12757" lon="-0.06688">
        <ele>18.6</ele>
        <time>2024-03-20T13:50:34Z</time>
      </trkpt>
      <trkpt lat="49.12749" lon="-0.06688">
        <ele>18.6</ele>
        <time>2024-03-20T13:50:35Z</time>
      </trkpt>
      <trkpt lat="49.1274" lon="-0.06688">
        <ele>18.8</ele>
        <time>2024-03-20T13:50:36Z</time>
      </trkpt>
      <trkpt lat="49.12733" lon="-0.06688">
        <ele>18.8</ele>
        <time>2024-03-20T13:50:37Z</time>
      </trkpt>
      <trkpt lat="49.12724" lon="-0.06688">
        <ele>18.8</ele>
        <time>2024-03-20T13:50:38Z</time>
      </trkpt>
      <trkpt lat="49.12716" lon="-0.06688">
        <ele>19</ele>
        <time>2024-03-20T13:50:39Z</time>
      </trkpt>
      <trkpt lat="49.1271" lon="-0.06689">
        <ele>19</ele>
        <time>2024-03-20T13:50:40Z</time>
      </trkpt>
      <trkpt lat="49.127" lon="-0.06689">
        <ele>19</ele>
        <time>2024-03-20T13:50:41Z</time>
      </trkpt>
      <trkpt lat="49.12692" lon="-0.0669">
        <ele>19</ele>
        <time>2024-03-20T13:50:42Z</time>
      </trkpt>
      <trkpt lat="49.12686" lon="-0.06689">
        <ele>19.2</ele>
        <time>2024-03-20T13:50:43Z</time>
      </trkpt>
      <trkpt lat="49.12677" lon="-0.0669">
        <ele>19.2</ele>
        <time>2024-03-20T13:50:44Z</time>
      </trkpt>
      <trkpt lat="49.12668" lon="-0.0669">
        <ele>19.2</ele>
        <time>2024-03-20T13:50:45Z</time>
      </trkpt>
      <trkpt lat="49.12662" lon="-0.0669">
        <ele>19.2</ele>
        <time>2024-03-20T13:50:46Z</time>
      </trkpt>
      <trkpt lat="49.12652" lon="-0.0669">
        <ele>19.2</ele>
        <time>2024-03-20T13:50:47Z</time>
      </trkpt>
      <trkpt lat="49.12643" lon="-0.0669">
        <ele>19.2</ele>
        <time>2024-03-20T13:50:48Z</time>
      </trkpt>
      <trkpt lat="49.12636" lon="-0.0669">
        <ele>19.2</ele>
        <time>2024-03-20T13:50:49Z</time>
      </trkpt>
      <trkpt lat="49.12628" lon="-0.0669">
        <ele>19.2</ele>
        <time>2024-03-20T13:50:50Z</time>
      </trkpt>
      <trkpt lat="49.12619" lon="-0.0669">
        <ele>19.2</ele>
        <time>2024-03-20T13:50:51Z</time>
      </trkpt>
      <trkpt lat="49.12611" lon="-0.0669">
        <ele>19.2</ele>
        <time>2024-03-20T13:50:52Z</time>
      </trkpt>
      <trkpt lat="49.12601" lon="-0.0669">
        <ele>19.2</ele>
        <time>2024-03-20T13:50:53Z</time>
      </trkpt>
      <trkpt lat="49.12593" lon="-0.0669">
        <ele>19.2</ele>
        <time>2024-03-20T13:50:54Z</time>
      </trkpt>
      <trkpt lat="49.12586" lon="-0.0669">
        <ele>19</ele>
        <time>2024-03-20T13:50:55Z</time>
      </trkpt>
      <trkpt lat="49.12576" lon="-0.0669">
        <ele>19</ele>
        <time>2024-03-20T13:50:56Z</time>
      </trkpt>
      <trkpt lat="49.12568" lon="-0.0669">
        <ele>19</ele>
        <time>2024-03-20T13:50:57Z</time>
      </trkpt>
      <trkpt lat="49.12562" lon="-0.0669">
        <ele>19</ele>
        <time>2024-03-20T13:50:58Z</time>
      </trkpt>
      <trkpt lat="49.12552" lon="-0.0669">
        <ele>19</ele>
        <time>2024-03-20T13:50:59Z</time>
      </trkpt>
      <trkpt lat="49.12544" lon="-0.0669">
        <ele>19</ele>
        <time>2024-03-20T13:51:00Z</time>
      </trkpt>
      <trkpt lat="49.12538" lon="-0.0669">
        <ele>19</ele>
        <time>2024-03-20T13:51:01Z</time>
      </trkpt>
      <trkpt lat="49.1253" lon="-0.06691">
        <ele>19</ele>
        <time>2024-03-20T13:51:02Z</time>
      </trkpt>
      <trkpt lat="49.12522" lon="-0.06691">
        <ele>19</ele>
        <time>2024-03-20T13:51:03Z</time>
      </trkpt>
      <trkpt lat="49.12514" lon="-0.06691">
        <ele>19</ele>
        <time>2024-03-20T13:51:04Z</time>
      </trkpt>
      <trkpt lat="49.12505" lon="-0.06692">
        <ele>19</ele>
        <time>2024-03-20T13:51:05Z</time>
      </trkpt>
      <trkpt lat="49.12497" lon="-0.06692">
        <ele>19</ele>
        <time>2024-03-20T13:51:06Z</time>
      </trkpt>
      <trkpt lat="49.12491" lon="-0.06692">
        <ele>19</ele>
        <time>2024-03-20T13:51:07Z</time>
      </trkpt>
      <trkpt lat="49.12482" lon="-0.06692">
        <ele>19</ele>
        <time>2024-03-20T13:51:08Z</time>
      </trkpt>
      <trkpt lat="49.12475" lon="-0.06692">
        <ele>19</ele>
        <time>2024-03-20T13:51:09Z</time>
      </trkpt>
      <trkpt lat="49.12469" lon="-0.06692">
        <ele>19</ele>
        <time>2024-03-20T13:51:10Z</time>
      </trkpt>
      <trkpt lat="49.12461" lon="-0.06692">
        <ele>19</ele>
        <time>2024-03-20T13:51:11Z</time>
      </trkpt>
      <trkpt lat="49.12454" lon="-0.06692">
        <ele>19.2</ele>
        <time>2024-03-20T13:51:12Z</time>
      </trkpt>
      <trkpt lat="49.12446" lon="-0.06692">
        <ele>19.2</ele>
        <time>2024-03-20T13:51:13Z</time>
      </trkpt>
      <trkpt lat="49.12437" lon="-0.06693">
        <ele>19.2</ele>
        <time>2024-03-20T13:51:14Z</time>
      </trkpt>
      <trkpt lat="49.12429" lon="-0.06693">
        <ele>19.2</ele>
        <time>2024-03-20T13:51:15Z</time>
      </trkpt>
      <trkpt lat="49.12422" lon="-0.06693">
        <ele>19.2</ele>
        <time>2024-03-20T13:51:16Z</time>
      </trkpt>
      <trkpt lat="49.12412" lon="-0.06693">
        <ele>19.2</ele>
        <time>2024-03-20T13:51:17Z</time>
      </trkpt>
      <trkpt lat="49.12404" lon="-0.06692">
        <ele>19.2</ele>
        <time>2024-03-20T13:51:18Z</time>
      </trkpt>
      <trkpt lat="49.12398" lon="-0.06692">
        <ele>19.2</ele>
        <time>2024-03-20T13:51:19Z</time>
      </trkpt>
      <trkpt lat="49.12389" lon="-0.06693">
        <ele>19.2</ele>
        <time>2024-03-20T13:51:20Z</time>
      </trkpt>
      <trkpt lat="49.12382" lon="-0.06693">
        <ele>19.2</ele>
        <time>2024-03-20T13:51:21Z</time>
      </trkpt>
      <trkpt lat="49.12375" lon="-0.06693">
        <ele>19.2</ele>
        <time>2024-03-20T13:51:22Z</time>
      </trkpt>
      <trkpt lat="49.12365" lon="-0.06693">
        <ele>19.2</ele>
        <time>2024-03-20T13:51:23Z</time>
      </trkpt>
      <trkpt lat="49.12359" lon="-0.06694">
        <ele>19.2</ele>
        <time>2024-03-20T13:51:24Z</time>
      </trkpt>
      <trkpt lat="49.12351" lon="-0.06694">
        <ele>19.2</ele>
        <time>2024-03-20T13:51:25Z</time>
      </trkpt>
      <trkpt lat="49.12342" lon="-0.06694">
        <ele>19.2</ele>
        <time>2024-03-20T13:51:26Z</time>
      </trkpt>
      <trkpt lat="49.12336" lon="-0.06693">
        <ele>19.2</ele>
        <time>2024-03-20T13:51:27Z</time>
      </trkpt>
      <trkpt lat="49.12327" lon="-0.06693">
        <ele>19.2</ele>
        <time>2024-03-20T13:51:28Z</time>
      </trkpt>
      <trkpt lat="49.12321" lon="-0.06694">
        <ele>19.2</ele>
        <time>2024-03-20T13:51:29Z</time>
      </trkpt>
      <trkpt lat="49.12313" lon="-0.06694">
        <ele>19.4</ele>
        <time>2024-03-20T13:51:30Z</time>
      </trkpt>
      <trkpt lat="49.12304" lon="-0.06694">
        <ele>19.4</ele>
        <time>2024-03-20T13:51:31Z</time>
      </trkpt>
      <trkpt lat="49.12297" lon="-0.06694">
        <ele>19.4</ele>
        <time>2024-03-20T13:51:32Z</time>
      </trkpt>
      <trkpt lat="49.1229" lon="-0.06694">
        <ele>19.4</ele>
        <time>2024-03-20T13:51:33Z</time>
      </trkpt>
      <trkpt lat="49.12282" lon="-0.06694">
        <ele>19.4</ele>
        <time>2024-03-20T13:51:34Z</time>
      </trkpt>
      <trkpt lat="49.12274" lon="-0.06694">
        <ele>19.4</ele>
        <time>2024-03-20T13:51:35Z</time>
      </trkpt>
      <trkpt lat="49.12267" lon="-0.06694">
        <ele>19.4</ele>
        <time>2024-03-20T13:51:36Z</time>
      </trkpt>
      <trkpt lat="49.12259" lon="-0.06694">
        <ele>19.4</ele>
        <time>2024-03-20T13:51:37Z</time>
      </trkpt>
      <trkpt lat="49.12253" lon="-0.06694">
        <ele>19.4</ele>
        <time>2024-03-20T13:51:38Z</time>
      </trkpt>
      <trkpt lat="49.12244" lon="-0.06694">
        <ele>19.4</ele>
        <time>2024-03-20T13:51:39Z</time>
      </trkpt>
      <trkpt lat="49.12237" lon="-0.06694">
        <ele>19.4</ele>
        <time>2024-03-20T13:51:40Z</time>
      </trkpt>
      <trkpt lat="49.12229" lon="-0.06693">
        <ele>19.4</ele>
        <time>2024-03-20T13:51:41Z</time>
      </trkpt>
      <trkpt lat="49.1222" lon="-0.06694">
        <ele>19.6</ele>
        <time>2024-03-20T13:51:42Z</time>
      </trkpt>
      <trkpt lat="49.12215" lon="-0.06693">
        <ele>19.8</ele>
        <time>2024-03-20T13:51:43Z</time>
      </trkpt>
      <trkpt lat="49.12207" lon="-0.06693">
        <ele>19.8</ele>
        <time>2024-03-20T13:51:44Z</time>
      </trkpt>
      <trkpt lat="49.12198" lon="-0.06694">
        <ele>19.8</ele>
        <time>2024-03-20T13:51:45Z</time>
      </trkpt>
      <trkpt lat="49.12191" lon="-0.06694">
        <ele>19.8</ele>
        <time>2024-03-20T13:51:46Z</time>
      </trkpt>
      <trkpt lat="49.12185" lon="-0.06695">
        <ele>19.8</ele>
        <time>2024-03-20T13:51:47Z</time>
      </trkpt>
      <trkpt lat="49.12176" lon="-0.06695">
        <ele>19.8</ele>
        <time>2024-03-20T13:51:48Z</time>
      </trkpt>
      <trkpt lat="49.1217" lon="-0.06696">
        <ele>19.8</ele>
        <time>2024-03-20T13:51:49Z</time>
      </trkpt>
      <trkpt lat="49.12163" lon="-0.06696">
        <ele>19.8</ele>
        <time>2024-03-20T13:51:50Z</time>
      </trkpt>
      <trkpt lat="49.12154" lon="-0.06698">
        <ele>19.8</ele>
        <time>2024-03-20T13:51:51Z</time>
      </trkpt>
      <trkpt lat="49.12148" lon="-0.06699">
        <ele>19.8</ele>
        <time>2024-03-20T13:51:52Z</time>
      </trkpt>
      <trkpt lat="49.12138" lon="-0.067">
        <ele>19.8</ele>
        <time>2024-03-20T13:51:53Z</time>
      </trkpt>
      <trkpt lat="49.12132" lon="-0.06702">
        <ele>19.8</ele>
        <time>2024-03-20T13:51:54Z</time>
      </trkpt>
      <trkpt lat="49.12125" lon="-0.06704">
        <ele>19.8</ele>
        <time>2024-03-20T13:51:55Z</time>
      </trkpt>
      <trkpt lat="49.12118" lon="-0.06707">
        <ele>20</ele>
        <time>2024-03-20T13:51:56Z</time>
      </trkpt>
      <trkpt lat="49.12109" lon="-0.0671">
        <ele>20</ele>
        <time>2024-03-20T13:51:57Z</time>
      </trkpt>
      <trkpt lat="49.12103" lon="-0.06712">
        <ele>20</ele>
        <time>2024-03-20T13:51:58Z</time>
      </trkpt>
      <trkpt lat="49.12095" lon="-0.06715">
        <ele>20</ele>
        <time>2024-03-20T13:51:59Z</time>
      </trkpt>
      <trkpt lat="49.12088" lon="-0.06718">
        <ele>20</ele>
        <time>2024-03-20T13:52:00Z</time>
      </trkpt>
      <trkpt lat="49.12082" lon="-0.0672">
        <ele>20</ele>
        <time>2024-03-20T13:52:01Z</time>
      </trkpt>
      <trkpt lat="49.12075" lon="-0.06723">
        <ele>20</ele>
        <time>2024-03-20T13:52:02Z</time>
      </trkpt>
      <trkpt lat="49.12068" lon="-0.06725">
        <ele>20</ele>
        <time>2024-03-20T13:52:03Z</time>
      </trkpt>
      <trkpt lat="49.12061" lon="-0.06728">
        <ele>20.2</ele>
        <time>2024-03-20T13:52:04Z</time>
      </trkpt>
      <trkpt lat="49.12055" lon="-0.06731">
        <ele>20.2</ele>
        <time>2024-03-20T13:52:05Z</time>
      </trkpt>
      <trkpt lat="49.12047" lon="-0.06734">
        <ele>20.2</ele>
        <time>2024-03-20T13:52:06Z</time>
      </trkpt>
      <trkpt lat="49.12043" lon="-0.06735">
        <ele>20.2</ele>
        <time>2024-03-20T13:52:07Z</time>
      </trkpt>
      <trkpt lat="49.12037" lon="-0.06737">
        <ele>20.2</ele>
        <time>2024-03-20T13:52:08Z</time>
      </trkpt>
      <trkpt lat="49.1203" lon="-0.06739">
        <ele>20.2</ele>
        <time>2024-03-20T13:52:09Z</time>
      </trkpt>
      <trkpt lat="49.12026" lon="-0.06741">
        <ele>20.2</ele>
        <time>2024-03-20T13:52:10Z</time>
      </trkpt>
      <trkpt lat="49.12022" lon="-0.06743">
        <ele>20.4</ele>
        <time>2024-03-20T13:52:11Z</time>
      </trkpt>
      <trkpt lat="49.12018" lon="-0.06745">
        <ele>20.4</ele>
        <time>2024-03-20T13:52:12Z</time>
      </trkpt>
      <trkpt lat="49.12014" lon="-0.06747">
        <ele>20.6</ele>
        <time>2024-03-20T13:52:13Z</time>
      </trkpt>
      <trkpt lat="49.1201" lon="-0.06748">
        <ele>20.6</ele>
        <time>2024-03-20T13:52:14Z</time>
      </trkpt>
      <trkpt lat="49.12007" lon="-0.06749">
        <ele>21</ele>
        <time>2024-03-20T13:52:15Z</time>
      </trkpt>
      <trkpt lat="49.12004" lon="-0.0675">
        <ele>21.2</ele>
        <time>2024-03-20T13:52:16Z</time>
      </trkpt>
      <trkpt lat="49.12001" lon="-0.06751">
        <ele>21.4</ele>
        <time>2024-03-20T13:52:17Z</time>
      </trkpt>
      <trkpt lat="49.11998" lon="-0.06752">
        <ele>21.4</ele>
        <time>2024-03-20T13:52:18Z</time>
      </trkpt>
      <trkpt lat="49.11995" lon="-0.06752">
        <ele>21.4</ele>
        <time>2024-03-20T13:52:19Z</time>
      </trkpt>
      <trkpt lat="49.11992" lon="-0.06752">
        <ele>21.4</ele>
        <time>2024-03-20T13:52:20Z</time>
      </trkpt>
      <trkpt lat="49.11989" lon="-0.06751">
        <ele>21.6</ele>
        <time>2024-03-20T13:52:21Z</time>
      </trkpt>
      <trkpt lat="49.11986" lon="-0.06747">
        <ele>21.6</ele>
        <time>2024-03-20T13:52:22Z</time>
      </trkpt>
      <trkpt lat="49.11983" lon="-0.06743">
        <ele>21.6</ele>
        <time>2024-03-20T13:52:23Z</time>
      </trkpt>
      <trkpt lat="49.11981" lon="-0.06736">
        <ele>21.6</ele>
        <time>2024-03-20T13:52:24Z</time>
      </trkpt>
      <trkpt lat="49.1198" lon="-0.0673">
        <ele>21.6</ele>
        <time>2024-03-20T13:52:25Z</time>
      </trkpt>
      <trkpt lat="49.11978" lon="-0.06722">
        <ele>21.8</ele>
        <time>2024-03-20T13:52:26Z</time>
      </trkpt>
      <trkpt lat="49.11977" lon="-0.06714">
        <ele>21.8</ele>
        <time>2024-03-20T13:52:27Z</time>
      </trkpt>
      <trkpt lat="49.11977" lon="-0.06705">
        <ele>21.8</ele>
        <time>2024-03-20T13:52:28Z</time>
      </trkpt>
      <trkpt lat="49.11977" lon="-0.06696">
        <ele>21.8</ele>
        <time>2024-03-20T13:52:29Z</time>
      </trkpt>
      <trkpt lat="49.11976" lon="-0.06686">
        <ele>21.8</ele>
        <time>2024-03-20T13:52:30Z</time>
      </trkpt>
      <trkpt lat="49.11976" lon="-0.06676">
        <ele>21.8</ele>
        <time>2024-03-20T13:52:31Z</time>
      </trkpt>
      <trkpt lat="49.11976" lon="-0.06666">
        <ele>21.8</ele>
        <time>2024-03-20T13:52:32Z</time>
      </trkpt>
      <trkpt lat="49.11975" lon="-0.06655">
        <ele>21.8</ele>
        <time>2024-03-20T13:52:33Z</time>
      </trkpt>
      <trkpt lat="49.11975" lon="-0.06643">
        <ele>21.8</ele>
        <time>2024-03-20T13:52:34Z</time>
      </trkpt>
      <trkpt lat="49.11975" lon="-0.06631">
        <ele>21.8</ele>
        <time>2024-03-20T13:52:35Z</time>
      </trkpt>
      <trkpt lat="49.11975" lon="-0.06619">
        <ele>21.8</ele>
        <time>2024-03-20T13:52:36Z</time>
      </trkpt>
      <trkpt lat="49.11975" lon="-0.06606">
        <ele>21.8</ele>
        <time>2024-03-20T13:52:37Z</time>
      </trkpt>
      <trkpt lat="49.11975" lon="-0.06593">
        <ele>21.8</ele>
        <time>2024-03-20T13:52:38Z</time>
      </trkpt>
      <trkpt lat="49.11976" lon="-0.06581">
        <ele>21.8</ele>
        <time>2024-03-20T13:52:39Z</time>
      </trkpt>
      <trkpt lat="49.11976" lon="-0.06567">
        <ele>21.8</ele>
        <time>2024-03-20T13:52:40Z</time>
      </trkpt>
      <trkpt lat="49.11977" lon="-0.06554">
        <ele>21.8</ele>
        <time>2024-03-20T13:52:41Z</time>
      </trkpt>
      <trkpt lat="49.11978" lon="-0.06542">
        <ele>21.8</ele>
        <time>2024-03-20T13:52:42Z</time>
      </trkpt>
      <trkpt lat="49.11978" lon="-0.06529">
        <ele>21.8</ele>
        <time>2024-03-20T13:52:43Z</time>
      </trkpt>
      <trkpt lat="49.1198" lon="-0.06517">
        <ele>21.8</ele>
        <time>2024-03-20T13:52:44Z</time>
      </trkpt>
      <trkpt lat="49.11981" lon="-0.06502">
        <ele>21.6</ele>
        <time>2024-03-20T13:52:45Z</time>
      </trkpt>
      <trkpt lat="49.11982" lon="-0.06492">
        <ele>21.2</ele>
        <time>2024-03-20T13:52:46Z</time>
      </trkpt>
      <trkpt lat="49.11984" lon="-0.0648">
        <ele>21</ele>
        <time>2024-03-20T13:52:47Z</time>
      </trkpt>
      <trkpt lat="49.11986" lon="-0.06464">
        <ele>21</ele>
        <time>2024-03-20T13:52:48Z</time>
      </trkpt>
      <trkpt lat="49.11988" lon="-0.06453">
        <ele>20.8</ele>
        <time>2024-03-20T13:52:49Z</time>
      </trkpt>
      <trkpt lat="49.1199" lon="-0.0644">
        <ele>20.8</ele>
        <time>2024-03-20T13:52:50Z</time>
      </trkpt>
      <trkpt lat="49.11992" lon="-0.06427">
        <ele>20.6</ele>
        <time>2024-03-20T13:52:51Z</time>
      </trkpt>
      <trkpt lat="49.11995" lon="-0.06414">
        <ele>20.6</ele>
        <time>2024-03-20T13:52:52Z</time>
      </trkpt>
      <trkpt lat="49.11998" lon="-0.06401">
        <ele>20.6</ele>
        <time>2024-03-20T13:52:53Z</time>
      </trkpt>
      <trkpt lat="49.12" lon="-0.06388">
        <ele>20.4</ele>
        <time>2024-03-20T13:52:54Z</time>
      </trkpt>
      <trkpt lat="49.12003" lon="-0.06376">
        <ele>20.2</ele>
        <time>2024-03-20T13:52:55Z</time>
      </trkpt>
      <trkpt lat="49.12006" lon="-0.06364">
        <ele>19.8</ele>
        <time>2024-03-20T13:52:56Z</time>
      </trkpt>
      <trkpt lat="49.12008" lon="-0.06352">
        <ele>19.6</ele>
        <time>2024-03-20T13:52:57Z</time>
      </trkpt>
      <trkpt lat="49.12011" lon="-0.0634">
        <ele>19.6</ele>
        <time>2024-03-20T13:52:58Z</time>
      </trkpt>
      <trkpt lat="49.12014" lon="-0.06328">
        <ele>19.4</ele>
        <time>2024-03-20T13:52:59Z</time>
      </trkpt>
      <trkpt lat="49.12017" lon="-0.06317">
        <ele>19.4</ele>
        <time>2024-03-20T13:53:00Z</time>
      </trkpt>
      <trkpt lat="49.1202" lon="-0.06305">
        <ele>19.2</ele>
        <time>2024-03-20T13:53:01Z</time>
      </trkpt>
      <trkpt lat="49.12022" lon="-0.06294">
        <ele>19</ele>
        <time>2024-03-20T13:53:02Z</time>
      </trkpt>
      <trkpt lat="49.12025" lon="-0.06283">
        <ele>18.8</ele>
        <time>2024-03-20T13:53:03Z</time>
      </trkpt>
      <trkpt lat="49.12027" lon="-0.06271">
        <ele>18.8</ele>
        <time>2024-03-20T13:53:04Z</time>
      </trkpt>
      <trkpt lat="49.1203" lon="-0.0626">
        <ele>18.6</ele>
        <time>2024-03-20T13:53:05Z</time>
      </trkpt>
      <trkpt lat="49.12033" lon="-0.06248">
        <ele>18.4</ele>
        <time>2024-03-20T13:53:06Z</time>
      </trkpt>
      <trkpt lat="49.12035" lon="-0.06237">
        <ele>18.4</ele>
        <time>2024-03-20T13:53:07Z</time>
      </trkpt>
      <trkpt lat="49.12038" lon="-0.06225">
        <ele>18.2</ele>
        <time>2024-03-20T13:53:08Z</time>
      </trkpt>
      <trkpt lat="49.12041" lon="-0.06214">
        <ele>18.2</ele>
        <time>2024-03-20T13:53:09Z</time>
      </trkpt>
      <trkpt lat="49.12044" lon="-0.06202">
        <ele>18.2</ele>
        <time>2024-03-20T13:53:10Z</time>
      </trkpt>
      <trkpt lat="49.12046" lon="-0.0619">
        <ele>18.2</ele>
        <time>2024-03-20T13:53:11Z</time>
      </trkpt>
      <trkpt lat="49.12049" lon="-0.06178">
        <ele>18.2</ele>
        <time>2024-03-20T13:53:12Z</time>
      </trkpt>
      <trkpt lat="49.12052" lon="-0.06166">
        <ele>18</ele>
        <time>2024-03-20T13:53:13Z</time>
      </trkpt>
      <trkpt lat="49.12054" lon="-0.06154">
        <ele>18</ele>
        <time>2024-03-20T13:53:14Z</time>
      </trkpt>
      <trkpt lat="49.12057" lon="-0.06143">
        <ele>18</ele>
        <time>2024-03-20T13:53:15Z</time>
      </trkpt>
      <trkpt lat="49.1206" lon="-0.06131">
        <ele>18</ele>
        <time>2024-03-20T13:53:16Z</time>
      </trkpt>
      <trkpt lat="49.12062" lon="-0.0612">
        <ele>17.8</ele>
        <time>2024-03-20T13:53:17Z</time>
      </trkpt>
      <trkpt lat="49.12065" lon="-0.06108">
        <ele>17.8</ele>
        <time>2024-03-20T13:53:18Z</time>
      </trkpt>
      <trkpt lat="49.12067" lon="-0.06097">
        <ele>17.8</ele>
        <time>2024-03-20T13:53:19Z</time>
      </trkpt>
      <trkpt lat="49.1207" lon="-0.06086">
        <ele>17.8</ele>
        <time>2024-03-20T13:53:20Z</time>
      </trkpt>
      <trkpt lat="49.12073" lon="-0.06074">
        <ele>17.6</ele>
        <time>2024-03-20T13:53:21Z</time>
      </trkpt>
      <trkpt lat="49.12075" lon="-0.06063">
        <ele>17.6</ele>
        <time>2024-03-20T13:53:22Z</time>
      </trkpt>
      <trkpt lat="49.12078" lon="-0.06052">
        <ele>17.6</ele>
        <time>2024-03-20T13:53:23Z</time>
      </trkpt>
      <trkpt lat="49.1208" lon="-0.06041">
        <ele>17.6</ele>
        <time>2024-03-20T13:53:24Z</time>
      </trkpt>
      <trkpt lat="49.12083" lon="-0.0603">
        <ele>17.6</ele>
        <time>2024-03-20T13:53:25Z</time>
      </trkpt>
      <trkpt lat="49.12085" lon="-0.0602">
        <ele>17.6</ele>
        <time>2024-03-20T13:53:26Z</time>
      </trkpt>
      <trkpt lat="49.12088" lon="-0.06009">
        <ele>17.6</ele>
        <time>2024-03-20T13:53:27Z</time>
      </trkpt>
      <trkpt lat="49.1209" lon="-0.05998">
        <ele>17.4</ele>
        <time>2024-03-20T13:53:28Z</time>
      </trkpt>
      <trkpt lat="49.12092" lon="-0.05986">
        <ele>17.4</ele>
        <time>2024-03-20T13:53:29Z</time>
      </trkpt>
      <trkpt lat="49.12094" lon="-0.05974">
        <ele>17.4</ele>
        <time>2024-03-20T13:53:30Z</time>
      </trkpt>
      <trkpt lat="49.12097" lon="-0.05963">
        <ele>17.4</ele>
        <time>2024-03-20T13:53:31Z</time>
      </trkpt>
      <trkpt lat="49.121" lon="-0.05951">
        <ele>17.4</ele>
        <time>2024-03-20T13:53:32Z</time>
      </trkpt>
      <trkpt lat="49.12102" lon="-0.0594">
        <ele>17.6</ele>
        <time>2024-03-20T13:53:33Z</time>
      </trkpt>
      <trkpt lat="49.12105" lon="-0.05929">
        <ele>17.6</ele>
        <time>2024-03-20T13:53:34Z</time>
      </trkpt>
      <trkpt lat="49.12107" lon="-0.05917">
        <ele>17.4</ele>
        <time>2024-03-20T13:53:35Z</time>
      </trkpt>
      <trkpt lat="49.1211" lon="-0.05906">
        <ele>17.4</ele>
        <time>2024-03-20T13:53:36Z</time>
      </trkpt>
      <trkpt lat="49.12112" lon="-0.05894">
        <ele>17.4</ele>
        <time>2024-03-20T13:53:37Z</time>
      </trkpt>
      <trkpt lat="49.12115" lon="-0.05882">
        <ele>17.4</ele>
        <time>2024-03-20T13:53:38Z</time>
      </trkpt>
      <trkpt lat="49.12118" lon="-0.05871">
        <ele>17.4</ele>
        <time>2024-03-20T13:53:39Z</time>
      </trkpt>
      <trkpt lat="49.12121" lon="-0.05859">
        <ele>17.4</ele>
        <time>2024-03-20T13:53:40Z</time>
      </trkpt>
      <trkpt lat="49.12123" lon="-0.05847">
        <ele>17.4</ele>
        <time>2024-03-20T13:53:41Z</time>
      </trkpt>
      <trkpt lat="49.12125" lon="-0.05836">
        <ele>17.4</ele>
        <time>2024-03-20T13:53:42Z</time>
      </trkpt>
      <trkpt lat="49.12128" lon="-0.05825">
        <ele>17.2</ele>
        <time>2024-03-20T13:53:43Z</time>
      </trkpt>
      <trkpt lat="49.1213" lon="-0.05814">
        <ele>17.2</ele>
        <time>2024-03-20T13:53:44Z</time>
      </trkpt>
      <trkpt lat="49.12132" lon="-0.05802">
        <ele>17.2</ele>
        <time>2024-03-20T13:53:45Z</time>
      </trkpt>
      <trkpt lat="49.12134" lon="-0.05791">
        <ele>17.2</ele>
        <time>2024-03-20T13:53:46Z</time>
      </trkpt>
      <trkpt lat="49.12137" lon="-0.0578">
        <ele>17.2</ele>
        <time>2024-03-20T13:53:47Z</time>
      </trkpt>
      <trkpt lat="49.12139" lon="-0.05769">
        <ele>17.2</ele>
        <time>2024-03-20T13:53:48Z</time>
      </trkpt>
      <trkpt lat="49.12142" lon="-0.05758">
        <ele>17.2</ele>
        <time>2024-03-20T13:53:49Z</time>
      </trkpt>
      <trkpt lat="49.12144" lon="-0.05747">
        <ele>17.2</ele>
        <time>2024-03-20T13:53:50Z</time>
      </trkpt>
      <trkpt lat="49.12146" lon="-0.05736">
        <ele>17.2</ele>
        <time>2024-03-20T13:53:51Z</time>
      </trkpt>
      <trkpt lat="49.12149" lon="-0.05726">
        <ele>17</ele>
        <time>2024-03-20T13:53:52Z</time>
      </trkpt>
      <trkpt lat="49.12151" lon="-0.05715">
        <ele>17</ele>
        <time>2024-03-20T13:53:53Z</time>
      </trkpt>
      <trkpt lat="49.12153" lon="-0.05705">
        <ele>16.8</ele>
        <time>2024-03-20T13:53:54Z</time>
      </trkpt>
      <trkpt lat="49.12156" lon="-0.05694">
        <ele>16.8</ele>
        <time>2024-03-20T13:53:55Z</time>
      </trkpt>
      <trkpt lat="49.12158" lon="-0.05683">
        <ele>16.8</ele>
        <time>2024-03-20T13:53:56Z</time>
      </trkpt>
      <trkpt lat="49.12161" lon="-0.05672">
        <ele>16.8</ele>
        <time>2024-03-20T13:53:57Z</time>
      </trkpt>
      <trkpt lat="49.12163" lon="-0.05661">
        <ele>16.8</ele>
        <time>2024-03-20T13:53:58Z</time>
      </trkpt>
      <trkpt lat="49.12165" lon="-0.05649">
        <ele>16.8</ele>
        <time>2024-03-20T13:53:59Z</time>
      </trkpt>
      <trkpt lat="49.12167" lon="-0.05638">
        <ele>16.6</ele>
        <time>2024-03-20T13:54:00Z</time>
      </trkpt>
      <trkpt lat="49.1217" lon="-0.05627">
        <ele>16.6</ele>
        <time>2024-03-20T13:54:01Z</time>
      </trkpt>
      <trkpt lat="49.12172" lon="-0.05616">
        <ele>16.6</ele>
        <time>2024-03-20T13:54:02Z</time>
      </trkpt>
      <trkpt lat="49.12175" lon="-0.05605">
        <ele>16.6</ele>
        <time>2024-03-20T13:54:03Z</time>
      </trkpt>
      <trkpt lat="49.12177" lon="-0.05594">
        <ele>16.6</ele>
        <time>2024-03-20T13:54:04Z</time>
      </trkpt>
      <trkpt lat="49.12179" lon="-0.05583">
        <ele>16.6</ele>
        <time>2024-03-20T13:54:05Z</time>
      </trkpt>
      <trkpt lat="49.12181" lon="-0.05572">
        <ele>16.6</ele>
        <time>2024-03-20T13:54:06Z</time>
      </trkpt>
      <trkpt lat="49.12184" lon="-0.05561">
        <ele>16.6</ele>
        <time>2024-03-20T13:54:07Z</time>
      </trkpt>
      <trkpt lat="49.12186" lon="-0.0555">
        <ele>16.6</ele>
        <time>2024-03-20T13:54:08Z</time>
      </trkpt>
      <trkpt lat="49.12189" lon="-0.05539">
        <ele>16.4</ele>
        <time>2024-03-20T13:54:09Z</time>
      </trkpt>
      <trkpt lat="49.12191" lon="-0.05528">
        <ele>16.4</ele>
        <time>2024-03-20T13:54:10Z</time>
      </trkpt>
      <trkpt lat="49.12194" lon="-0.05518">
        <ele>16.4</ele>
        <time>2024-03-20T13:54:11Z</time>
      </trkpt>
      <trkpt lat="49.12197" lon="-0.05507">
        <ele>16.4</ele>
        <time>2024-03-20T13:54:12Z</time>
      </trkpt>
      <trkpt lat="49.12199" lon="-0.05496">
        <ele>16.4</ele>
        <time>2024-03-20T13:54:13Z</time>
      </trkpt>
      <trkpt lat="49.12201" lon="-0.05485">
        <ele>16.4</ele>
        <time>2024-03-20T13:54:14Z</time>
      </trkpt>
      <trkpt lat="49.12204" lon="-0.05474">
        <ele>16.4</ele>
        <time>2024-03-20T13:54:15Z</time>
      </trkpt>
      <trkpt lat="49.12206" lon="-0.05463">
        <ele>16.4</ele>
        <time>2024-03-20T13:54:16Z</time>
      </trkpt>
      <trkpt lat="49.12209" lon="-0.05453">
        <ele>16.4</ele>
        <time>2024-03-20T13:54:17Z</time>
      </trkpt>
      <trkpt lat="49.12211" lon="-0.05442">
        <ele>16.4</ele>
        <time>2024-03-20T13:54:18Z</time>
      </trkpt>
      <trkpt lat="49.12214" lon="-0.05432">
        <ele>16.4</ele>
        <time>2024-03-20T13:54:19Z</time>
      </trkpt>
      <trkpt lat="49.12217" lon="-0.05421">
        <ele>16.4</ele>
        <time>2024-03-20T13:54:20Z</time>
      </trkpt>
      <trkpt lat="49.1222" lon="-0.05411">
        <ele>16.4</ele>
        <time>2024-03-20T13:54:21Z</time>
      </trkpt>
      <trkpt lat="49.12223" lon="-0.054">
        <ele>16.4</ele>
        <time>2024-03-20T13:54:22Z</time>
      </trkpt>
      <trkpt lat="49.12226" lon="-0.0539">
        <ele>16.4</ele>
        <time>2024-03-20T13:54:23Z</time>
      </trkpt>
      <trkpt lat="49.12229" lon="-0.0538">
        <ele>16.4</ele>
        <time>2024-03-20T13:54:24Z</time>
      </trkpt>
      <trkpt lat="49.12232" lon="-0.05369">
        <ele>16.4</ele>
        <time>2024-03-20T13:54:25Z</time>
      </trkpt>
      <trkpt lat="49.12236" lon="-0.05359">
        <ele>16.4</ele>
        <time>2024-03-20T13:54:26Z</time>
      </trkpt>
      <trkpt lat="49.12239" lon="-0.0535">
        <ele>16.4</ele>
        <time>2024-03-20T13:54:27Z</time>
      </trkpt>
      <trkpt lat="49.12243" lon="-0.0534">
        <ele>16.4</ele>
        <time>2024-03-20T13:54:28Z</time>
      </trkpt>
      <trkpt lat="49.12247" lon="-0.0533">
        <ele>16.4</ele>
        <time>2024-03-20T13:54:29Z</time>
      </trkpt>
      <trkpt lat="49.12251" lon="-0.05321">
        <ele>16.4</ele>
        <time>2024-03-20T13:54:30Z</time>
      </trkpt>
      <trkpt lat="49.12254" lon="-0.05311">
        <ele>16.4</ele>
        <time>2024-03-20T13:54:31Z</time>
      </trkpt>
      <trkpt lat="49.12258" lon="-0.05302">
        <ele>16.4</ele>
        <time>2024-03-20T13:54:32Z</time>
      </trkpt>
      <trkpt lat="49.12262" lon="-0.05293">
        <ele>16.4</ele>
        <time>2024-03-20T13:54:33Z</time>
      </trkpt>
      <trkpt lat="49.12266" lon="-0.05285">
        <ele>16.4</ele>
        <time>2024-03-20T13:54:34Z</time>
      </trkpt>
      <trkpt lat="49.1227" lon="-0.05277">
        <ele>16.4</ele>
        <time>2024-03-20T13:54:35Z</time>
      </trkpt>
      <trkpt lat="49.12274" lon="-0.05268">
        <ele>16.4</ele>
        <time>2024-03-20T13:54:36Z</time>
      </trkpt>
      <trkpt lat="49.12278" lon="-0.0526">
        <ele>16.4</ele>
        <time>2024-03-20T13:54:37Z</time>
      </trkpt>
      <trkpt lat="49.12281" lon="-0.05253">
        <ele>16.4</ele>
        <time>2024-03-20T13:54:38Z</time>
      </trkpt>
      <trkpt lat="49.12285" lon="-0.05245">
        <ele>16.4</ele>
        <time>2024-03-20T13:54:39Z</time>
      </trkpt>
      <trkpt lat="49.12289" lon="-0.05238">
        <ele>16.4</ele>
        <time>2024-03-20T13:54:40Z</time>
      </trkpt>
      <trkpt lat="49.12292" lon="-0.05232">
        <ele>16.4</ele>
        <time>2024-03-20T13:54:41Z</time>
      </trkpt>
      <trkpt lat="49.12295" lon="-0.05225">
        <ele>16.4</ele>
        <time>2024-03-20T13:54:42Z</time>
      </trkpt>
      <trkpt lat="49.12298" lon="-0.05217">
        <ele>16.4</ele>
        <time>2024-03-20T13:54:43Z</time>
      </trkpt>
      <trkpt lat="49.123" lon="-0.05209">
        <ele>16.4</ele>
        <time>2024-03-20T13:54:44Z</time>
      </trkpt>
      <trkpt lat="49.12302" lon="-0.05201">
        <ele>16.4</ele>
        <time>2024-03-20T13:54:45Z</time>
      </trkpt>
      <trkpt lat="49.12301" lon="-0.05193">
        <ele>16.4</ele>
        <time>2024-03-20T13:54:46Z</time>
      </trkpt>
      <trkpt lat="49.12299" lon="-0.05186">
        <ele>16.4</ele>
        <time>2024-03-20T13:54:47Z</time>
      </trkpt>
      <trkpt lat="49.12296" lon="-0.05181">
        <ele>16.4</ele>
        <time>2024-03-20T13:54:48Z</time>
      </trkpt>
      <trkpt lat="49.12293" lon="-0.05176">
        <ele>16.4</ele>
        <time>2024-03-20T13:54:49Z</time>
      </trkpt>
      <trkpt lat="49.1229" lon="-0.05172">
        <ele>16.4</ele>
        <time>2024-03-20T13:54:50Z</time>
      </trkpt>
      <trkpt lat="49.12288" lon="-0.05168">
        <ele>16.4</ele>
        <time>2024-03-20T13:54:51Z</time>
      </trkpt>
      <trkpt lat="49.12287" lon="-0.05164">
        <ele>16.4</ele>
        <time>2024-03-20T13:54:52Z</time>
      </trkpt>
      <trkpt lat="49.12287" lon="-0.0516">
        <ele>16.4</ele>
        <time>2024-03-20T13:54:53Z</time>
      </trkpt>
      <trkpt lat="49.12287" lon="-0.05156">
        <ele>16.4</ele>
        <time>2024-03-20T13:54:54Z</time>
      </trkpt>
      <trkpt lat="49.12287" lon="-0.05151">
        <ele>16.2</ele>
        <time>2024-03-20T13:54:55Z</time>
      </trkpt>
      <trkpt lat="49.12288" lon="-0.05145">
        <ele>16.2</ele>
        <time>2024-03-20T13:54:56Z</time>
      </trkpt>
      <trkpt lat="49.12289" lon="-0.05138">
        <ele>16.4</ele>
        <time>2024-03-20T13:54:57Z</time>
      </trkpt>
      <trkpt lat="49.12291" lon="-0.05131">
        <ele>16.2</ele>
        <time>2024-03-20T13:54:58Z</time>
      </trkpt>
      <trkpt lat="49.12292" lon="-0.05124">
        <ele>16.2</ele>
        <time>2024-03-20T13:54:59Z</time>
      </trkpt>
      <trkpt lat="49.12293" lon="-0.05116">
        <ele>16.2</ele>
        <time>2024-03-20T13:55:00Z</time>
      </trkpt>
      <trkpt lat="49.12294" lon="-0.05108">
        <ele>16</ele>
        <time>2024-03-20T13:55:01Z</time>
      </trkpt>
      <trkpt lat="49.12296" lon="-0.05099">
        <ele>16</ele>
        <time>2024-03-20T13:55:02Z</time>
      </trkpt>
      <trkpt lat="49.12298" lon="-0.0509">
        <ele>16</ele>
        <time>2024-03-20T13:55:03Z</time>
      </trkpt>
      <trkpt lat="49.123" lon="-0.05081">
        <ele>15.8</ele>
        <time>2024-03-20T13:55:04Z</time>
      </trkpt>
      <trkpt lat="49.12301" lon="-0.05071">
        <ele>15.8</ele>
        <time>2024-03-20T13:55:05Z</time>
      </trkpt>
      <trkpt lat="49.12303" lon="-0.05061">
        <ele>15.8</ele>
        <time>2024-03-20T13:55:06Z</time>
      </trkpt>
      <trkpt lat="49.12305" lon="-0.05051">
        <ele>15.6</ele>
        <time>2024-03-20T13:55:07Z</time>
      </trkpt>
      <trkpt lat="49.12307" lon="-0.05041">
        <ele>15.4</ele>
        <time>2024-03-20T13:55:08Z</time>
      </trkpt>
      <trkpt lat="49.12308" lon="-0.05032">
        <ele>15.2</ele>
        <time>2024-03-20T13:55:09Z</time>
      </trkpt>
      <trkpt lat="49.1231" lon="-0.05022">
        <ele>15.2</ele>
        <time>2024-03-20T13:55:10Z</time>
      </trkpt>
      <trkpt lat="49.12312" lon="-0.05013">
        <ele>15</ele>
        <time>2024-03-20T13:55:11Z</time>
      </trkpt>
      <trkpt lat="49.12314" lon="-0.05004">
        <ele>15</ele>
        <time>2024-03-20T13:55:12Z</time>
      </trkpt>
      <trkpt lat="49.12316" lon="-0.04995">
        <ele>15</ele>
        <time>2024-03-20T13:55:13Z</time>
      </trkpt>
      <trkpt lat="49.12318" lon="-0.04986">
        <ele>15</ele>
        <time>2024-03-20T13:55:14Z</time>
      </trkpt>
      <trkpt lat="49.1232" lon="-0.04978">
        <ele>15</ele>
        <time>2024-03-20T13:55:15Z</time>
      </trkpt>
      <trkpt lat="49.12321" lon="-0.04969">
        <ele>15</ele>
        <time>2024-03-20T13:55:16Z</time>
      </trkpt>
      <trkpt lat="49.12323" lon="-0.04961">
        <ele>15</ele>
        <time>2024-03-20T13:55:17Z</time>
      </trkpt>
      <trkpt lat="49.12325" lon="-0.04952">
        <ele>15</ele>
        <time>2024-03-20T13:55:18Z</time>
      </trkpt>
      <trkpt lat="49.12328" lon="-0.04944">
        <ele>15</ele>
        <time>2024-03-20T13:55:19Z</time>
      </trkpt>
      <trkpt lat="49.1233" lon="-0.04937">
        <ele>15</ele>
        <time>2024-03-20T13:55:20Z</time>
      </trkpt>
      <trkpt lat="49.12331" lon="-0.04928">
        <ele>14.8</ele>
        <time>2024-03-20T13:55:21Z</time>
      </trkpt>
      <trkpt lat="49.12332" lon="-0.0492">
        <ele>15</ele>
        <time>2024-03-20T13:55:22Z</time>
      </trkpt>
      <trkpt lat="49.12333" lon="-0.04912">
        <ele>15</ele>
        <time>2024-03-20T13:55:23Z</time>
      </trkpt>
      <trkpt lat="49.12335" lon="-0.04904">
        <ele>15</ele>
        <time>2024-03-20T13:55:24Z</time>
      </trkpt>
      <trkpt lat="49.12337" lon="-0.04896">
        <ele>15</ele>
        <time>2024-03-20T13:55:25Z</time>
      </trkpt>
      <trkpt lat="49.12339" lon="-0.04888">
        <ele>15</ele>
        <time>2024-03-20T13:55:26Z</time>
      </trkpt>
      <trkpt lat="49.12341" lon="-0.0488">
        <ele>15</ele>
        <time>2024-03-20T13:55:27Z</time>
      </trkpt>
      <trkpt lat="49.12342" lon="-0.04871">
        <ele>15</ele>
        <time>2024-03-20T13:55:28Z</time>
      </trkpt>
      <trkpt lat="49.12344" lon="-0.04863">
        <ele>15</ele>
        <time>2024-03-20T13:55:29Z</time>
      </trkpt>
      <trkpt lat="49.12345" lon="-0.04854">
        <ele>15</ele>
        <time>2024-03-20T13:55:30Z</time>
      </trkpt>
      <trkpt lat="49.12347" lon="-0.04845">
        <ele>15</ele>
        <time>2024-03-20T13:55:31Z</time>
      </trkpt>
      <trkpt lat="49.12348" lon="-0.04836">
        <ele>15</ele>
        <time>2024-03-20T13:55:32Z</time>
      </trkpt>
      <trkpt lat="49.12349" lon="-0.04827">
        <ele>15</ele>
        <time>2024-03-20T13:55:33Z</time>
      </trkpt>
      <trkpt lat="49.12349" lon="-0.04817">
        <ele>15</ele>
        <time>2024-03-20T13:55:34Z</time>
      </trkpt>
      <trkpt lat="49.1235" lon="-0.04808">
        <ele>15</ele>
        <time>2024-03-20T13:55:35Z</time>
      </trkpt>
      <trkpt lat="49.1235" lon="-0.04798">
        <ele>15</ele>
        <time>2024-03-20T13:55:36Z</time>
      </trkpt>
      <trkpt lat="49.1235" lon="-0.04789">
        <ele>14.8</ele>
        <time>2024-03-20T13:55:37Z</time>
      </trkpt>
      <trkpt lat="49.12351" lon="-0.0478">
        <ele>14.8</ele>
        <time>2024-03-20T13:55:38Z</time>
      </trkpt>
      <trkpt lat="49.12352" lon="-0.0477">
        <ele>14.8</ele>
        <time>2024-03-20T13:55:39Z</time>
      </trkpt>
      <trkpt lat="49.12354" lon="-0.04761">
        <ele>14.8</ele>
        <time>2024-03-20T13:55:40Z</time>
      </trkpt>
      <trkpt lat="49.12356" lon="-0.04751">
        <ele>14.6</ele>
        <time>2024-03-20T13:55:41Z</time>
      </trkpt>
      <trkpt lat="49.12358" lon="-0.04742">
        <ele>14.6</ele>
        <time>2024-03-20T13:55:42Z</time>
      </trkpt>
      <trkpt lat="49.12361" lon="-0.04732">
        <ele>14.6</ele>
        <time>2024-03-20T13:55:43Z</time>
      </trkpt>
      <trkpt lat="49.12364" lon="-0.04723">
        <ele>14.4</ele>
        <time>2024-03-20T13:55:44Z</time>
      </trkpt>
      <trkpt lat="49.12367" lon="-0.04714">
        <ele>14.4</ele>
        <time>2024-03-20T13:55:45Z</time>
      </trkpt>
      <trkpt lat="49.1237" lon="-0.04705">
        <ele>14.4</ele>
        <time>2024-03-20T13:55:46Z</time>
      </trkpt>
      <trkpt lat="49.12373" lon="-0.04696">
        <ele>14.4</ele>
        <time>2024-03-20T13:55:47Z</time>
      </trkpt>
      <trkpt lat="49.12376" lon="-0.04686">
        <ele>14.2</ele>
        <time>2024-03-20T13:55:48Z</time>
      </trkpt>
      <trkpt lat="49.1238" lon="-0.04677">
        <ele>14.2</ele>
        <time>2024-03-20T13:55:49Z</time>
      </trkpt>
      <trkpt lat="49.12383" lon="-0.04669">
        <ele>14.2</ele>
        <time>2024-03-20T13:55:50Z</time>
      </trkpt>
      <trkpt lat="49.12387" lon="-0.0466">
        <ele>14.2</ele>
        <time>2024-03-20T13:55:51Z</time>
      </trkpt>
      <trkpt lat="49.1239" lon="-0.04651">
        <ele>14.2</ele>
        <time>2024-03-20T13:55:52Z</time>
      </trkpt>
      <trkpt lat="49.12393" lon="-0.04642">
        <ele>14.2</ele>
        <time>2024-03-20T13:55:53Z</time>
      </trkpt>
      <trkpt lat="49.12397" lon="-0.04632">
        <ele>14</ele>
        <time>2024-03-20T13:55:54Z</time>
      </trkpt>
      <trkpt lat="49.124" lon="-0.04623">
        <ele>14</ele>
        <time>2024-03-20T13:55:55Z</time>
      </trkpt>
      <trkpt lat="49.12403" lon="-0.04614">
        <ele>13.8</ele>
        <time>2024-03-20T13:55:56Z</time>
      </trkpt>
      <trkpt lat="49.12407" lon="-0.04605">
        <ele>13.6</ele>
        <time>2024-03-20T13:55:57Z</time>
      </trkpt>
      <trkpt lat="49.1241" lon="-0.04596">
        <ele>13.6</ele>
        <time>2024-03-20T13:55:58Z</time>
      </trkpt>
      <trkpt lat="49.12413" lon="-0.04588">
        <ele>13.6</ele>
        <time>2024-03-20T13:55:59Z</time>
      </trkpt>
      <trkpt lat="49.12416" lon="-0.04579">
        <ele>13.6</ele>
        <time>2024-03-20T13:56:00Z</time>
      </trkpt>
      <trkpt lat="49.12419" lon="-0.0457">
        <ele>13.6</ele>
        <time>2024-03-20T13:56:01Z</time>
      </trkpt>
      <trkpt lat="49.12423" lon="-0.04561">
        <ele>13.4</ele>
        <time>2024-03-20T13:56:02Z</time>
      </trkpt>
      <trkpt lat="49.12426" lon="-0.04551">
        <ele>13.4</ele>
        <time>2024-03-20T13:56:03Z</time>
      </trkpt>
      <trkpt lat="49.12429" lon="-0.04542">
        <ele>13.4</ele>
        <time>2024-03-20T13:56:04Z</time>
      </trkpt>
      <trkpt lat="49.12432" lon="-0.04533">
        <ele>13.4</ele>
        <time>2024-03-20T13:56:05Z</time>
      </trkpt>
      <trkpt lat="49.12435" lon="-0.04523">
        <ele>13.4</ele>
        <time>2024-03-20T13:56:06Z</time>
      </trkpt>
      <trkpt lat="49.12438" lon="-0.04514">
        <ele>13.4</ele>
        <time>2024-03-20T13:56:07Z</time>
      </trkpt>
      <trkpt lat="49.12441" lon="-0.04505">
        <ele>13.4</ele>
        <time>2024-03-20T13:56:08Z</time>
      </trkpt>
      <trkpt lat="49.12445" lon="-0.04495">
        <ele>13.6</ele>
        <time>2024-03-20T13:56:09Z</time>
      </trkpt>
      <trkpt lat="49.12448" lon="-0.04486">
        <ele>13.6</ele>
        <time>2024-03-20T13:56:10Z</time>
      </trkpt>
      <trkpt lat="49.12451" lon="-0.04476">
        <ele>13.6</ele>
        <time>2024-03-20T13:56:11Z</time>
      </trkpt>
      <trkpt lat="49.12454" lon="-0.04467">
        <ele>13.8</ele>
        <time>2024-03-20T13:56:12Z</time>
      </trkpt>
      <trkpt lat="49.12458" lon="-0.04458">
        <ele>13.6</ele>
        <time>2024-03-20T13:56:13Z</time>
      </trkpt>
      <trkpt lat="49.12461" lon="-0.04448">
        <ele>13.8</ele>
        <time>2024-03-20T13:56:14Z</time>
      </trkpt>
      <trkpt lat="49.12464" lon="-0.04439">
        <ele>13.8</ele>
        <time>2024-03-20T13:56:15Z</time>
      </trkpt>
      <trkpt lat="49.12467" lon="-0.04429">
        <ele>13.8</ele>
        <time>2024-03-20T13:56:16Z</time>
      </trkpt>
      <trkpt lat="49.1247" lon="-0.04419">
        <ele>14</ele>
        <time>2024-03-20T13:56:17Z</time>
      </trkpt>
      <trkpt lat="49.12473" lon="-0.0441">
        <ele>14</ele>
        <time>2024-03-20T13:56:18Z</time>
      </trkpt>
      <trkpt lat="49.12477" lon="-0.044">
        <ele>14</ele>
        <time>2024-03-20T13:56:19Z</time>
      </trkpt>
      <trkpt lat="49.1248" lon="-0.0439">
        <ele>14</ele>
        <time>2024-03-20T13:56:20Z</time>
      </trkpt>
      <trkpt lat="49.12483" lon="-0.0438">
        <ele>13.8</ele>
        <time>2024-03-20T13:56:21Z</time>
      </trkpt>
      <trkpt lat="49.12486" lon="-0.0437">
        <ele>14</ele>
        <time>2024-03-20T13:56:22Z</time>
      </trkpt>
      <trkpt lat="49.12489" lon="-0.0436">
        <ele>14</ele>
        <time>2024-03-20T13:56:23Z</time>
      </trkpt>
      <trkpt lat="49.12491" lon="-0.0435">
        <ele>14</ele>
        <time>2024-03-20T13:56:24Z</time>
      </trkpt>
      <trkpt lat="49.12494" lon="-0.0434">
        <ele>14</ele>
        <time>2024-03-20T13:56:25Z</time>
      </trkpt>
      <trkpt lat="49.12497" lon="-0.0433">
        <ele>14</ele>
        <time>2024-03-20T13:56:26Z</time>
      </trkpt>
      <trkpt lat="49.12499" lon="-0.04319">
        <ele>14</ele>
        <time>2024-03-20T13:56:27Z</time>
      </trkpt>
      <trkpt lat="49.12501" lon="-0.04309">
        <ele>14</ele>
        <time>2024-03-20T13:56:28Z</time>
      </trkpt>
      <trkpt lat="49.12503" lon="-0.04298">
        <ele>14</ele>
        <time>2024-03-20T13:56:29Z</time>
      </trkpt>
      <trkpt lat="49.12505" lon="-0.04287">
        <ele>14</ele>
        <time>2024-03-20T13:56:30Z</time>
      </trkpt>
      <trkpt lat="49.12507" lon="-0.04277">
        <ele>14</ele>
        <time>2024-03-20T13:56:31Z</time>
      </trkpt>
      <trkpt lat="49.12509" lon="-0.04266">
        <ele>14</ele>
        <time>2024-03-20T13:56:32Z</time>
      </trkpt>
      <trkpt lat="49.12511" lon="-0.04256">
        <ele>14</ele>
        <time>2024-03-20T13:56:33Z</time>
      </trkpt>
      <trkpt lat="49.12513" lon="-0.04246">
        <ele>14</ele>
        <time>2024-03-20T13:56:34Z</time>
      </trkpt>
      <trkpt lat="49.12515" lon="-0.04235">
        <ele>14</ele>
        <time>2024-03-20T13:56:35Z</time>
      </trkpt>
      <trkpt lat="49.12517" lon="-0.04225">
        <ele>14</ele>
        <time>2024-03-20T13:56:36Z</time>
      </trkpt>
      <trkpt lat="49.12519" lon="-0.04214">
        <ele>14</ele>
        <time>2024-03-20T13:56:37Z</time>
      </trkpt>
      <trkpt lat="49.12521" lon="-0.04204">
        <ele>14</ele>
        <time>2024-03-20T13:56:38Z</time>
      </trkpt>
      <trkpt lat="49.12523" lon="-0.04194">
        <ele>14</ele>
        <time>2024-03-20T13:56:39Z</time>
      </trkpt>
      <trkpt lat="49.12525" lon="-0.04183">
        <ele>14</ele>
        <time>2024-03-20T13:56:40Z</time>
      </trkpt>
      <trkpt lat="49.12527" lon="-0.04173">
        <ele>14</ele>
        <time>2024-03-20T13:56:41Z</time>
      </trkpt>
      <trkpt lat="49.1253" lon="-0.04164">
        <ele>14</ele>
        <time>2024-03-20T13:56:42Z</time>
      </trkpt>
      <trkpt lat="49.12533" lon="-0.04154">
        <ele>14</ele>
        <time>2024-03-20T13:56:43Z</time>
      </trkpt>
      <trkpt lat="49.12537" lon="-0.04145">
        <ele>14</ele>
        <time>2024-03-20T13:56:44Z</time>
      </trkpt>
      <trkpt lat="49.1254" lon="-0.04136">
        <ele>14</ele>
        <time>2024-03-20T13:56:45Z</time>
      </trkpt>
      <trkpt lat="49.12544" lon="-0.04127">
        <ele>14</ele>
        <time>2024-03-20T13:56:46Z</time>
      </trkpt>
      <trkpt lat="49.12548" lon="-0.04119">
        <ele>14</ele>
        <time>2024-03-20T13:56:47Z</time>
      </trkpt>
      <trkpt lat="49.12552" lon="-0.04111">
        <ele>14.2</ele>
        <time>2024-03-20T13:56:48Z</time>
      </trkpt>
      <trkpt lat="49.12555" lon="-0.04102">
        <ele>14.2</ele>
        <time>2024-03-20T13:56:49Z</time>
      </trkpt>
      <trkpt lat="49.12559" lon="-0.04094">
        <ele>14.2</ele>
        <time>2024-03-20T13:56:50Z</time>
      </trkpt>
      <trkpt lat="49.12563" lon="-0.04086">
        <ele>14.2</ele>
        <time>2024-03-20T13:56:51Z</time>
      </trkpt>
      <trkpt lat="49.12567" lon="-0.04077">
        <ele>14.2</ele>
        <time>2024-03-20T13:56:52Z</time>
      </trkpt>
      <trkpt lat="49.12571" lon="-0.04069">
        <ele>14.4</ele>
        <time>2024-03-20T13:56:53Z</time>
      </trkpt>
      <trkpt lat="49.12575" lon="-0.04061">
        <ele>14.4</ele>
        <time>2024-03-20T13:56:54Z</time>
      </trkpt>
      <trkpt lat="49.12579" lon="-0.04053">
        <ele>14.4</ele>
        <time>2024-03-20T13:56:55Z</time>
      </trkpt>
      <trkpt lat="49.12582" lon="-0.04045">
        <ele>14.6</ele>
        <time>2024-03-20T13:56:56Z</time>
      </trkpt>
      <trkpt lat="49.12586" lon="-0.04036">
        <ele>14.6</ele>
        <time>2024-03-20T13:56:57Z</time>
      </trkpt>
      <trkpt lat="49.12589" lon="-0.04028">
        <ele>14.6</ele>
        <time>2024-03-20T13:56:58Z</time>
      </trkpt>
      <trkpt lat="49.12592" lon="-0.04021">
        <ele>14.6</ele>
        <time>2024-03-20T13:56:59Z</time>
      </trkpt>
      <trkpt lat="49.12596" lon="-0.04013">
        <ele>14.8</ele>
        <time>2024-03-20T13:57:00Z</time>
      </trkpt>
      <trkpt lat="49.12599" lon="-0.04006">
        <ele>14.8</ele>
        <time>2024-03-20T13:57:01Z</time>
      </trkpt>
      <trkpt lat="49.12602" lon="-0.03998">
        <ele>14.8</ele>
        <time>2024-03-20T13:57:02Z</time>
      </trkpt>
      <trkpt lat="49.12603" lon="-0.03992">
        <ele>14.8</ele>
        <time>2024-03-20T13:57:03Z</time>
      </trkpt>
      <trkpt lat="49.12604" lon="-0.03987">
        <ele>14.8</ele>
        <time>2024-03-20T13:57:04Z</time>
      </trkpt>
      <trkpt lat="49.12604" lon="-0.03983">
        <ele>15</ele>
        <time>2024-03-20T13:57:05Z</time>
      </trkpt>
      <trkpt lat="49.12604" lon="-0.03979">
        <ele>15</ele>
        <time>2024-03-20T13:57:06Z</time>
      </trkpt>
      <trkpt lat="49.12603" lon="-0.03976">
        <ele>15</ele>
        <time>2024-03-20T13:57:07Z</time>
      </trkpt>
      <trkpt lat="49.12603" lon="-0.03973">
        <ele>15</ele>
        <time>2024-03-20T13:57:08Z</time>
      </trkpt>
      <trkpt lat="49.12603" lon="-0.03972">
        <ele>15</ele>
        <time>2024-03-20T13:57:09Z</time>
      </trkpt>
      <trkpt lat="49.12603" lon="-0.03972">
        <ele>15.2</ele>
        <time>2024-03-20T13:57:10Z</time>
      </trkpt>
      <trkpt lat="49.12605" lon="-0.03966">
        <ele>15.8</ele>
        <time>2024-03-20T13:57:47Z</time>
      </trkpt>
      <trkpt lat="49.12606" lon="-0.03963">
        <ele>15.8</ele>
        <time>2024-03-20T13:57:48Z</time>
      </trkpt>
      <trkpt lat="49.12607" lon="-0.0396">
        <ele>15.8</ele>
        <time>2024-03-20T13:57:49Z</time>
      </trkpt>
      <trkpt lat="49.12607" lon="-0.03956">
        <ele>15.8</ele>
        <time>2024-03-20T13:57:50Z</time>
      </trkpt>
      <trkpt lat="49.12608" lon="-0.03953">
        <ele>15.8</ele>
        <time>2024-03-20T13:57:51Z</time>
      </trkpt>
      <trkpt lat="49.12608" lon="-0.03949">
        <ele>15.8</ele>
        <time>2024-03-20T13:57:52Z</time>
      </trkpt>
      <trkpt lat="49.12609" lon="-0.03945">
        <ele>15.8</ele>
        <time>2024-03-20T13:57:53Z</time>
      </trkpt>
      <trkpt lat="49.1261" lon="-0.03941">
        <ele>15.8</ele>
        <time>2024-03-20T13:57:54Z</time>
      </trkpt>
      <trkpt lat="49.12611" lon="-0.03937">
        <ele>15.8</ele>
        <time>2024-03-20T13:57:55Z</time>
      </trkpt>
      <trkpt lat="49.12612" lon="-0.03933">
        <ele>15.8</ele>
        <time>2024-03-20T13:57:56Z</time>
      </trkpt>
      <trkpt lat="49.12612" lon="-0.03928">
        <ele>15.8</ele>
        <time>2024-03-20T13:57:57Z</time>
      </trkpt>
      <trkpt lat="49.12613" lon="-0.03924">
        <ele>15.8</ele>
        <time>2024-03-20T13:57:58Z</time>
      </trkpt>
      <trkpt lat="49.12614" lon="-0.03919">
        <ele>15.8</ele>
        <time>2024-03-20T13:57:59Z</time>
      </trkpt>
      <trkpt lat="49.12614" lon="-0.03914">
        <ele>15.8</ele>
        <time>2024-03-20T13:58:00Z</time>
      </trkpt>
      <trkpt lat="49.12615" lon="-0.0391">
        <ele>15.8</ele>
        <time>2024-03-20T13:58:01Z</time>
      </trkpt>
      <trkpt lat="49.12616" lon="-0.03905">
        <ele>15.8</ele>
        <time>2024-03-20T13:58:02Z</time>
      </trkpt>
      <trkpt lat="49.12617" lon="-0.039">
        <ele>15.8</ele>
        <time>2024-03-20T13:58:03Z</time>
      </trkpt>
      <trkpt lat="49.12618" lon="-0.03895">
        <ele>15.8</ele>
        <time>2024-03-20T13:58:04Z</time>
      </trkpt>
      <trkpt lat="49.12619" lon="-0.03889">
        <ele>15.8</ele>
        <time>2024-03-20T13:58:05Z</time>
      </trkpt>
      <trkpt lat="49.1262" lon="-0.03883">
        <ele>15.6</ele>
        <time>2024-03-20T13:58:06Z</time>
      </trkpt>
      <trkpt lat="49.12622" lon="-0.03877">
        <ele>15.6</ele>
        <time>2024-03-20T13:58:07Z</time>
      </trkpt>
      <trkpt lat="49.12623" lon="-0.03871">
        <ele>15.6</ele>
        <time>2024-03-20T13:58:08Z</time>
      </trkpt>
      <trkpt lat="49.12625" lon="-0.03865">
        <ele>15.6</ele>
        <time>2024-03-20T13:58:09Z</time>
      </trkpt>
      <trkpt lat="49.12626" lon="-0.0386">
        <ele>15.6</ele>
        <time>2024-03-20T13:58:10Z</time>
      </trkpt>
      <trkpt lat="49.12627" lon="-0.03854">
        <ele>15.6</ele>
        <time>2024-03-20T13:58:11Z</time>
      </trkpt>
      <trkpt lat="49.12628" lon="-0.03849">
        <ele>15.6</ele>
        <time>2024-03-20T13:58:12Z</time>
      </trkpt>
      <trkpt lat="49.12629" lon="-0.03844">
        <ele>15.6</ele>
        <time>2024-03-20T13:58:13Z</time>
      </trkpt>
      <trkpt lat="49.12629" lon="-0.0384">
        <ele>15.6</ele>
        <time>2024-03-20T13:58:14Z</time>
      </trkpt>
      <trkpt lat="49.1263" lon="-0.03835">
        <ele>15.6</ele>
        <time>2024-03-20T13:58:15Z</time>
      </trkpt>
      <trkpt lat="49.1263" lon="-0.03831">
        <ele>15.6</ele>
        <time>2024-03-20T13:58:16Z</time>
      </trkpt>
      <trkpt lat="49.12631" lon="-0.03826">
        <ele>15.6</ele>
        <time>2024-03-20T13:58:17Z</time>
      </trkpt>
      <trkpt lat="49.12631" lon="-0.03822">
        <ele>15.6</ele>
        <time>2024-03-20T13:58:18Z</time>
      </trkpt>
      <trkpt lat="49.12631" lon="-0.03818">
        <ele>15.6</ele>
        <time>2024-03-20T13:58:19Z</time>
      </trkpt>
      <trkpt lat="49.12631" lon="-0.03814">
        <ele>15.6</ele>
        <time>2024-03-20T13:58:20Z</time>
      </trkpt>
      <trkpt lat="49.12631" lon="-0.03809">
        <ele>15.6</ele>
        <time>2024-03-20T13:58:21Z</time>
      </trkpt>
      <trkpt lat="49.12631" lon="-0.03804">
        <ele>15.4</ele>
        <time>2024-03-20T13:58:22Z</time>
      </trkpt>
      <trkpt lat="49.1263" lon="-0.03799">
        <ele>15.4</ele>
        <time>2024-03-20T13:58:23Z</time>
      </trkpt>
      <trkpt lat="49.12629" lon="-0.03794">
        <ele>15.4</ele>
        <time>2024-03-20T13:58:24Z</time>
      </trkpt>
      <trkpt lat="49.12629" lon="-0.03789">
        <ele>15.4</ele>
        <time>2024-03-20T13:58:25Z</time>
      </trkpt>
      <trkpt lat="49.12628" lon="-0.03784">
        <ele>15.4</ele>
        <time>2024-03-20T13:58:26Z</time>
      </trkpt>
      <trkpt lat="49.12627" lon="-0.03779">
        <ele>15.4</ele>
        <time>2024-03-20T13:58:27Z</time>
      </trkpt>
      <trkpt lat="49.12626" lon="-0.03774">
        <ele>15.4</ele>
        <time>2024-03-20T13:58:28Z</time>
      </trkpt>
      <trkpt lat="49.12625" lon="-0.03769">
        <ele>15.6</ele>
        <time>2024-03-20T13:58:29Z</time>
      </trkpt>
      <trkpt lat="49.12625" lon="-0.03765">
        <ele>15.6</ele>
        <time>2024-03-20T13:58:30Z</time>
      </trkpt>
      <trkpt lat="49.12624" lon="-0.0376">
        <ele>15.6</ele>
        <time>2024-03-20T13:58:31Z</time>
      </trkpt>
      <trkpt lat="49.12623" lon="-0.03754">
        <ele>15.6</ele>
        <time>2024-03-20T13:58:32Z</time>
      </trkpt>
      <trkpt lat="49.12622" lon="-0.03749">
        <ele>15.6</ele>
        <time>2024-03-20T13:58:33Z</time>
      </trkpt>
      <trkpt lat="49.12621" lon="-0.03744">
        <ele>15.6</ele>
        <time>2024-03-20T13:58:34Z</time>
      </trkpt>
      <trkpt lat="49.1262" lon="-0.03739">
        <ele>15.6</ele>
        <time>2024-03-20T13:58:35Z</time>
      </trkpt>
      <trkpt lat="49.12619" lon="-0.03734">
        <ele>15.6</ele>
        <time>2024-03-20T13:58:36Z</time>
      </trkpt>
      <trkpt lat="49.12617" lon="-0.03729">
        <ele>15.6</ele>
        <time>2024-03-20T13:58:37Z</time>
      </trkpt>
      <trkpt lat="49.12616" lon="-0.03724">
        <ele>15.6</ele>
        <time>2024-03-20T13:58:38Z</time>
      </trkpt>
      <trkpt lat="49.12615" lon="-0.03719">
        <ele>15.6</ele>
        <time>2024-03-20T13:58:39Z</time>
      </trkpt>
      <trkpt lat="49.12614" lon="-0.03714">
        <ele>15.6</ele>
        <time>2024-03-20T13:58:40Z</time>
      </trkpt>
      <trkpt lat="49.12613" lon="-0.03708">
        <ele>15.6</ele>
        <time>2024-03-20T13:58:41Z</time>
      </trkpt>
      <trkpt lat="49.12612" lon="-0.03703">
        <ele>15.6</ele>
        <time>2024-03-20T13:58:42Z</time>
      </trkpt>
      <trkpt lat="49.1261" lon="-0.03697">
        <ele>15.6</ele>
        <time>2024-03-20T13:58:43Z</time>
      </trkpt>
      <trkpt lat="49.12609" lon="-0.03691">
        <ele>15.6</ele>
        <time>2024-03-20T13:58:44Z</time>
      </trkpt>
      <trkpt lat="49.12608" lon="-0.03685">
        <ele>15.6</ele>
        <time>2024-03-20T13:58:45Z</time>
      </trkpt>
      <trkpt lat="49.12606" lon="-0.03678">
        <ele>15.4</ele>
        <time>2024-03-20T13:58:46Z</time>
      </trkpt>
      <trkpt lat="49.12604" lon="-0.03672">
        <ele>15.4</ele>
        <time>2024-03-20T13:58:47Z</time>
      </trkpt>
      <trkpt lat="49.12603" lon="-0.03665">
        <ele>15.4</ele>
        <time>2024-03-20T13:58:48Z</time>
      </trkpt>
      <trkpt lat="49.12602" lon="-0.03658">
        <ele>15.4</ele>
        <time>2024-03-20T13:58:49Z</time>
      </trkpt>
      <trkpt lat="49.126" lon="-0.03652">
        <ele>15.4</ele>
        <time>2024-03-20T13:58:50Z</time>
      </trkpt>
      <trkpt lat="49.12599" lon="-0.03645">
        <ele>15.4</ele>
        <time>2024-03-20T13:58:51Z</time>
      </trkpt>
      <trkpt lat="49.12597" lon="-0.03638">
        <ele>15.4</ele>
        <time>2024-03-20T13:58:52Z</time>
      </trkpt>
      <trkpt lat="49.12596" lon="-0.03631">
        <ele>15.2</ele>
        <time>2024-03-20T13:58:53Z</time>
      </trkpt>
      <trkpt lat="49.12594" lon="-0.03623">
        <ele>15.2</ele>
        <time>2024-03-20T13:58:54Z</time>
      </trkpt>
      <trkpt lat="49.12593" lon="-0.03615">
        <ele>15.2</ele>
        <time>2024-03-20T13:58:55Z</time>
      </trkpt>
      <trkpt lat="49.12591" lon="-0.03608">
        <ele>15.2</ele>
        <time>2024-03-20T13:58:56Z</time>
      </trkpt>
      <trkpt lat="49.1259" lon="-0.036">
        <ele>15.2</ele>
        <time>2024-03-20T13:58:57Z</time>
      </trkpt>
      <trkpt lat="49.12588" lon="-0.03593">
        <ele>15.2</ele>
        <time>2024-03-20T13:58:58Z</time>
      </trkpt>
      <trkpt lat="49.12586" lon="-0.03585">
        <ele>15.2</ele>
        <time>2024-03-20T13:58:59Z</time>
      </trkpt>
      <trkpt lat="49.12584" lon="-0.03577">
        <ele>15</ele>
        <time>2024-03-20T13:59:00Z</time>
      </trkpt>
      <trkpt lat="49.12582" lon="-0.03569">
        <ele>15</ele>
        <time>2024-03-20T13:59:01Z</time>
      </trkpt>
      <trkpt lat="49.1258" lon="-0.03561">
        <ele>14.8</ele>
        <time>2024-03-20T13:59:02Z</time>
      </trkpt>
      <trkpt lat="49.12579" lon="-0.03552">
        <ele>14.8</ele>
        <time>2024-03-20T13:59:03Z</time>
      </trkpt>
      <trkpt lat="49.12577" lon="-0.03544">
        <ele>14.6</ele>
        <time>2024-03-20T13:59:04Z</time>
      </trkpt>
      <trkpt lat="49.12575" lon="-0.03535">
        <ele>14.6</ele>
        <time>2024-03-20T13:59:05Z</time>
      </trkpt>
      <trkpt lat="49.12573" lon="-0.03526">
        <ele>14.6</ele>
        <time>2024-03-20T13:59:06Z</time>
      </trkpt>
      <trkpt lat="49.12571" lon="-0.03518">
        <ele>14.4</ele>
        <time>2024-03-20T13:59:07Z</time>
      </trkpt>
      <trkpt lat="49.12569" lon="-0.03509">
        <ele>14.4</ele>
        <time>2024-03-20T13:59:08Z</time>
      </trkpt>
      <trkpt lat="49.12567" lon="-0.035">
        <ele>14.4</ele>
        <time>2024-03-20T13:59:09Z</time>
      </trkpt>
      <trkpt lat="49.12565" lon="-0.03491">
        <ele>14.4</ele>
        <time>2024-03-20T13:59:10Z</time>
      </trkpt>
      <trkpt lat="49.12563" lon="-0.03482">
        <ele>14.4</ele>
        <time>2024-03-20T13:59:11Z</time>
      </trkpt>
      <trkpt lat="49.12561" lon="-0.03473">
        <ele>14.4</ele>
        <time>2024-03-20T13:59:12Z</time>
      </trkpt>
      <trkpt lat="49.1256" lon="-0.03464">
        <ele>14.4</ele>
        <time>2024-03-20T13:59:13Z</time>
      </trkpt>
      <trkpt lat="49.12558" lon="-0.03455">
        <ele>14.4</ele>
        <time>2024-03-20T13:59:14Z</time>
      </trkpt>
      <trkpt lat="49.12556" lon="-0.03446">
        <ele>14.4</ele>
        <time>2024-03-20T13:59:15Z</time>
      </trkpt>
      <trkpt lat="49.12555" lon="-0.03437">
        <ele>14.4</ele>
        <time>2024-03-20T13:59:16Z</time>
      </trkpt>
      <trkpt lat="49.12553" lon="-0.03427">
        <ele>14.4</ele>
        <time>2024-03-20T13:59:17Z</time>
      </trkpt>
      <trkpt lat="49.12552" lon="-0.03418">
        <ele>14.2</ele>
        <time>2024-03-20T13:59:18Z</time>
      </trkpt>
      <trkpt lat="49.12551" lon="-0.03408">
        <ele>14.2</ele>
        <time>2024-03-20T13:59:19Z</time>
      </trkpt>
      <trkpt lat="49.1255" lon="-0.03398">
        <ele>14.2</ele>
        <time>2024-03-20T13:59:20Z</time>
      </trkpt>
      <trkpt lat="49.12548" lon="-0.03389">
        <ele>14.2</ele>
        <time>2024-03-20T13:59:21Z</time>
      </trkpt>
      <trkpt lat="49.12547" lon="-0.03379">
        <ele>14.2</ele>
        <time>2024-03-20T13:59:22Z</time>
      </trkpt>
      <trkpt lat="49.12546" lon="-0.03369">
        <ele>14.2</ele>
        <time>2024-03-20T13:59:23Z</time>
      </trkpt>
      <trkpt lat="49.12545" lon="-0.0336">
        <ele>14.2</ele>
        <time>2024-03-20T13:59:24Z</time>
      </trkpt>
      <trkpt lat="49.12544" lon="-0.0335">
        <ele>14.2</ele>
        <time>2024-03-20T13:59:25Z</time>
      </trkpt>
      <trkpt lat="49.12544" lon="-0.0334">
        <ele>14.2</ele>
        <time>2024-03-20T13:59:26Z</time>
      </trkpt>
      <trkpt lat="49.12543" lon="-0.03331">
        <ele>14.2</ele>
        <time>2024-03-20T13:59:27Z</time>
      </trkpt>
      <trkpt lat="49.12542" lon="-0.03321">
        <ele>14.2</ele>
        <time>2024-03-20T13:59:28Z</time>
      </trkpt>
      <trkpt lat="49.12541" lon="-0.03312">
        <ele>14.2</ele>
        <time>2024-03-20T13:59:29Z</time>
      </trkpt>
      <trkpt lat="49.12541" lon="-0.03302">
        <ele>14.2</ele>
        <time>2024-03-20T13:59:30Z</time>
      </trkpt>
      <trkpt lat="49.1254" lon="-0.03293">
        <ele>14.2</ele>
        <time>2024-03-20T13:59:31Z</time>
      </trkpt>
      <trkpt lat="49.1254" lon="-0.03283">
        <ele>14.2</ele>
        <time>2024-03-20T13:59:32Z</time>
      </trkpt>
      <trkpt lat="49.12539" lon="-0.03273">
        <ele>14.2</ele>
        <time>2024-03-20T13:59:33Z</time>
      </trkpt>
      <trkpt lat="49.12539" lon="-0.03263">
        <ele>14.2</ele>
        <time>2024-03-20T13:59:34Z</time>
      </trkpt>
      <trkpt lat="49.12538" lon="-0.03253">
        <ele>14.2</ele>
        <time>2024-03-20T13:59:35Z</time>
      </trkpt>
      <trkpt lat="49.12538" lon="-0.03243">
        <ele>14.2</ele>
        <time>2024-03-20T13:59:36Z</time>
      </trkpt>
      <trkpt lat="49.12537" lon="-0.03234">
        <ele>14.2</ele>
        <time>2024-03-20T13:59:37Z</time>
      </trkpt>
      <trkpt lat="49.12537" lon="-0.03224">
        <ele>14.2</ele>
        <time>2024-03-20T13:59:38Z</time>
      </trkpt>
      <trkpt lat="49.12536" lon="-0.03214">
        <ele>14.4</ele>
        <time>2024-03-20T13:59:39Z</time>
      </trkpt>
      <trkpt lat="49.12536" lon="-0.03204">
        <ele>14.4</ele>
        <time>2024-03-20T13:59:40Z</time>
      </trkpt>
      <trkpt lat="49.12535" lon="-0.03194">
        <ele>14.4</ele>
        <time>2024-03-20T13:59:41Z</time>
      </trkpt>
      <trkpt lat="49.12535" lon="-0.03184">
        <ele>14.4</ele>
        <time>2024-03-20T13:59:42Z</time>
      </trkpt>
      <trkpt lat="49.12534" lon="-0.03175">
        <ele>14.4</ele>
        <time>2024-03-20T13:59:43Z</time>
      </trkpt>
      <trkpt lat="49.12533" lon="-0.03165">
        <ele>14.4</ele>
        <time>2024-03-20T13:59:44Z</time>
      </trkpt>
      <trkpt lat="49.12533" lon="-0.03155">
        <ele>14.6</ele>
        <time>2024-03-20T13:59:45Z</time>
      </trkpt>
      <trkpt lat="49.12532" lon="-0.03145">
        <ele>14.6</ele>
        <time>2024-03-20T13:59:46Z</time>
      </trkpt>
      <trkpt lat="49.12531" lon="-0.03136">
        <ele>14.6</ele>
        <time>2024-03-20T13:59:47Z</time>
      </trkpt>
      <trkpt lat="49.12531" lon="-0.03126">
        <ele>14.6</ele>
        <time>2024-03-20T13:59:48Z</time>
      </trkpt>
      <trkpt lat="49.1253" lon="-0.03116">
        <ele>14.6</ele>
        <time>2024-03-20T13:59:49Z</time>
      </trkpt>
      <trkpt lat="49.1253" lon="-0.03106">
        <ele>14.6</ele>
        <time>2024-03-20T13:59:50Z</time>
      </trkpt>
      <trkpt lat="49.12529" lon="-0.03096">
        <ele>14.6</ele>
        <time>2024-03-20T13:59:51Z</time>
      </trkpt>
      <trkpt lat="49.12529" lon="-0.03086">
        <ele>14.4</ele>
        <time>2024-03-20T13:59:52Z</time>
      </trkpt>
      <trkpt lat="49.12528" lon="-0.03076">
        <ele>14.6</ele>
        <time>2024-03-20T13:59:53Z</time>
      </trkpt>
      <trkpt lat="49.12528" lon="-0.03067">
        <ele>14.6</ele>
        <time>2024-03-20T13:59:54Z</time>
      </trkpt>
      <trkpt lat="49.12528" lon="-0.03057">
        <ele>14.8</ele>
        <time>2024-03-20T13:59:55Z</time>
      </trkpt>
      <trkpt lat="49.12527" lon="-0.03047">
        <ele>14.8</ele>
        <time>2024-03-20T13:59:56Z</time>
      </trkpt>
      <trkpt lat="49.12527" lon="-0.03037">
        <ele>14.8</ele>
        <time>2024-03-20T13:59:57Z</time>
      </trkpt>
      <trkpt lat="49.12527" lon="-0.03027">
        <ele>14.8</ele>
        <time>2024-03-20T13:59:58Z</time>
      </trkpt>
      <trkpt lat="49.12526" lon="-0.03017">
        <ele>14.8</ele>
        <time>2024-03-20T13:59:59Z</time>
      </trkpt>
      <trkpt lat="49.12526" lon="-0.03007">
        <ele>14.8</ele>
        <time>2024-03-20T14:00:00Z</time>
      </trkpt>
      <trkpt lat="49.12525" lon="-0.02996">
        <ele>14.8</ele>
        <time>2024-03-20T14:00:01Z</time>
      </trkpt>
      <trkpt lat="49.12525" lon="-0.02985">
        <ele>14.8</ele>
        <time>2024-03-20T14:00:02Z</time>
      </trkpt>
      <trkpt lat="49.12524" lon="-0.02974">
        <ele>14.8</ele>
        <time>2024-03-20T14:00:03Z</time>
      </trkpt>
      <trkpt lat="49.12524" lon="-0.02964">
        <ele>14.8</ele>
        <time>2024-03-20T14:00:04Z</time>
      </trkpt>
      <trkpt lat="49.12523" lon="-0.02953">
        <ele>14.8</ele>
        <time>2024-03-20T14:00:05Z</time>
      </trkpt>
      <trkpt lat="49.12523" lon="-0.02943">
        <ele>14.8</ele>
        <time>2024-03-20T14:00:06Z</time>
      </trkpt>
      <trkpt lat="49.12523" lon="-0.02932">
        <ele>15</ele>
        <time>2024-03-20T14:00:07Z</time>
      </trkpt>
      <trkpt lat="49.12523" lon="-0.02921">
        <ele>15</ele>
        <time>2024-03-20T14:00:08Z</time>
      </trkpt>
      <trkpt lat="49.12522" lon="-0.02911">
        <ele>15</ele>
        <time>2024-03-20T14:00:09Z</time>
      </trkpt>
      <trkpt lat="49.12521" lon="-0.029">
        <ele>15</ele>
        <time>2024-03-20T14:00:10Z</time>
      </trkpt>
      <trkpt lat="49.1252" lon="-0.0289">
        <ele>15</ele>
        <time>2024-03-20T14:00:11Z</time>
      </trkpt>
      <trkpt lat="49.1252" lon="-0.02879">
        <ele>14.8</ele>
        <time>2024-03-20T14:00:12Z</time>
      </trkpt>
      <trkpt lat="49.12519" lon="-0.02868">
        <ele>14.8</ele>
        <time>2024-03-20T14:00:13Z</time>
      </trkpt>
      <trkpt lat="49.12519" lon="-0.02858">
        <ele>14.8</ele>
        <time>2024-03-20T14:00:14Z</time>
      </trkpt>
      <trkpt lat="49.12518" lon="-0.02847">
        <ele>14.8</ele>
        <time>2024-03-20T14:00:15Z</time>
      </trkpt>
      <trkpt lat="49.12518" lon="-0.02837">
        <ele>14.8</ele>
        <time>2024-03-20T14:00:16Z</time>
      </trkpt>
      <trkpt lat="49.12517" lon="-0.02826">
        <ele>14.8</ele>
        <time>2024-03-20T14:00:17Z</time>
      </trkpt>
      <trkpt lat="49.12517" lon="-0.02815">
        <ele>14.8</ele>
        <time>2024-03-20T14:00:18Z</time>
      </trkpt>
      <trkpt lat="49.12516" lon="-0.02804">
        <ele>14.6</ele>
        <time>2024-03-20T14:00:19Z</time>
      </trkpt>
      <trkpt lat="49.12516" lon="-0.02794">
        <ele>14.6</ele>
        <time>2024-03-20T14:00:20Z</time>
      </trkpt>
      <trkpt lat="49.12515" lon="-0.02783">
        <ele>14.6</ele>
        <time>2024-03-20T14:00:21Z</time>
      </trkpt>
      <trkpt lat="49.12515" lon="-0.02773">
        <ele>14.6</ele>
        <time>2024-03-20T14:00:22Z</time>
      </trkpt>
      <trkpt lat="49.12514" lon="-0.02762">
        <ele>14.6</ele>
        <time>2024-03-20T14:00:23Z</time>
      </trkpt>
      <trkpt lat="49.12514" lon="-0.02751">
        <ele>14.6</ele>
        <time>2024-03-20T14:00:24Z</time>
      </trkpt>
      <trkpt lat="49.12513" lon="-0.0274">
        <ele>14.6</ele>
        <time>2024-03-20T14:00:25Z</time>
      </trkpt>
      <trkpt lat="49.12513" lon="-0.02729">
        <ele>14.6</ele>
        <time>2024-03-20T14:00:26Z</time>
      </trkpt>
      <trkpt lat="49.12512" lon="-0.02718">
        <ele>14.6</ele>
        <time>2024-03-20T14:00:27Z</time>
      </trkpt>
      <trkpt lat="49.12512" lon="-0.02707">
        <ele>14.4</ele>
        <time>2024-03-20T14:00:28Z</time>
      </trkpt>
      <trkpt lat="49.12511" lon="-0.02696">
        <ele>14.4</ele>
        <time>2024-03-20T14:00:29Z</time>
      </trkpt>
      <trkpt lat="49.1251" lon="-0.02685">
        <ele>14.4</ele>
        <time>2024-03-20T14:00:30Z</time>
      </trkpt>
      <trkpt lat="49.1251" lon="-0.02675">
        <ele>14.4</ele>
        <time>2024-03-20T14:00:31Z</time>
      </trkpt>
      <trkpt lat="49.12509" lon="-0.02664">
        <ele>14.4</ele>
        <time>2024-03-20T14:00:32Z</time>
      </trkpt>
      <trkpt lat="49.12509" lon="-0.02653">
        <ele>14.4</ele>
        <time>2024-03-20T14:00:33Z</time>
      </trkpt>
      <trkpt lat="49.12508" lon="-0.02642">
        <ele>14.4</ele>
        <time>2024-03-20T14:00:34Z</time>
      </trkpt>
      <trkpt lat="49.12507" lon="-0.02631">
        <ele>14.4</ele>
        <time>2024-03-20T14:00:35Z</time>
      </trkpt>
      <trkpt lat="49.12507" lon="-0.02621">
        <ele>14.4</ele>
        <time>2024-03-20T14:00:36Z</time>
      </trkpt>
      <trkpt lat="49.12506" lon="-0.0261">
        <ele>14.4</ele>
        <time>2024-03-20T14:00:37Z</time>
      </trkpt>
      <trkpt lat="49.12506" lon="-0.02599">
        <ele>14.2</ele>
        <time>2024-03-20T14:00:38Z</time>
      </trkpt>
      <trkpt lat="49.12505" lon="-0.02588">
        <ele>14.2</ele>
        <time>2024-03-20T14:00:39Z</time>
      </trkpt>
      <trkpt lat="49.12504" lon="-0.02577">
        <ele>14.2</ele>
        <time>2024-03-20T14:00:40Z</time>
      </trkpt>
      <trkpt lat="49.12504" lon="-0.02567">
        <ele>14.2</ele>
        <time>2024-03-20T14:00:41Z</time>
      </trkpt>
      <trkpt lat="49.12504" lon="-0.02556">
        <ele>14.2</ele>
        <time>2024-03-20T14:00:42Z</time>
      </trkpt>
      <trkpt lat="49.12503" lon="-0.02545">
        <ele>14.2</ele>
        <time>2024-03-20T14:00:43Z</time>
      </trkpt>
      <trkpt lat="49.12502" lon="-0.02534">
        <ele>14.2</ele>
        <time>2024-03-20T14:00:44Z</time>
      </trkpt>
      <trkpt lat="49.12502" lon="-0.02523">
        <ele>14.2</ele>
        <time>2024-03-20T14:00:45Z</time>
      </trkpt>
      <trkpt lat="49.12501" lon="-0.02511">
        <ele>14.2</ele>
        <time>2024-03-20T14:00:46Z</time>
      </trkpt>
      <trkpt lat="49.12501" lon="-0.025">
        <ele>14.2</ele>
        <time>2024-03-20T14:00:47Z</time>
      </trkpt>
      <trkpt lat="49.125" lon="-0.02489">
        <ele>14.2</ele>
        <time>2024-03-20T14:00:48Z</time>
      </trkpt>
      <trkpt lat="49.125" lon="-0.02478">
        <ele>14.2</ele>
        <time>2024-03-20T14:00:49Z</time>
      </trkpt>
      <trkpt lat="49.12499" lon="-0.02467">
        <ele>14.2</ele>
        <time>2024-03-20T14:00:50Z</time>
      </trkpt>
      <trkpt lat="49.12499" lon="-0.02456">
        <ele>14.2</ele>
        <time>2024-03-20T14:00:51Z</time>
      </trkpt>
      <trkpt lat="49.12498" lon="-0.02445">
        <ele>14.2</ele>
        <time>2024-03-20T14:00:52Z</time>
      </trkpt>
      <trkpt lat="49.12498" lon="-0.02434">
        <ele>14.2</ele>
        <time>2024-03-20T14:00:53Z</time>
      </trkpt>
      <trkpt lat="49.12497" lon="-0.02423">
        <ele>14.2</ele>
        <time>2024-03-20T14:00:54Z</time>
      </trkpt>
      <trkpt lat="49.12497" lon="-0.02412">
        <ele>14.2</ele>
        <time>2024-03-20T14:00:55Z</time>
      </trkpt>
      <trkpt lat="49.12496" lon="-0.02401">
        <ele>14.2</ele>
        <time>2024-03-20T14:00:56Z</time>
      </trkpt>
      <trkpt lat="49.12496" lon="-0.0239">
        <ele>14.2</ele>
        <time>2024-03-20T14:00:57Z</time>
      </trkpt>
      <trkpt lat="49.12495" lon="-0.02379">
        <ele>14.2</ele>
        <time>2024-03-20T14:00:58Z</time>
      </trkpt>
      <trkpt lat="49.12495" lon="-0.02368">
        <ele>14.2</ele>
        <time>2024-03-20T14:00:59Z</time>
      </trkpt>
      <trkpt lat="49.12494" lon="-0.02358">
        <ele>14.2</ele>
        <time>2024-03-20T14:01:00Z</time>
      </trkpt>
      <trkpt lat="49.12493" lon="-0.02347">
        <ele>14.2</ele>
        <time>2024-03-20T14:01:01Z</time>
      </trkpt>
      <trkpt lat="49.12493" lon="-0.02336">
        <ele>14.2</ele>
        <time>2024-03-20T14:01:02Z</time>
      </trkpt>
      <trkpt lat="49.12492" lon="-0.02325">
        <ele>14.2</ele>
        <time>2024-03-20T14:01:03Z</time>
      </trkpt>
      <trkpt lat="49.12492" lon="-0.02314">
        <ele>14.2</ele>
        <time>2024-03-20T14:01:04Z</time>
      </trkpt>
      <trkpt lat="49.12491" lon="-0.02304">
        <ele>14.2</ele>
        <time>2024-03-20T14:01:05Z</time>
      </trkpt>
      <trkpt lat="49.12491" lon="-0.02293">
        <ele>14.2</ele>
        <time>2024-03-20T14:01:06Z</time>
      </trkpt>
      <trkpt lat="49.1249" lon="-0.02282">
        <ele>14.2</ele>
        <time>2024-03-20T14:01:07Z</time>
      </trkpt>
      <trkpt lat="49.1249" lon="-0.02272">
        <ele>14.2</ele>
        <time>2024-03-20T14:01:08Z</time>
      </trkpt>
      <trkpt lat="49.12489" lon="-0.02261">
        <ele>14.2</ele>
        <time>2024-03-20T14:01:09Z</time>
      </trkpt>
      <trkpt lat="49.12489" lon="-0.02251">
        <ele>14.4</ele>
        <time>2024-03-20T14:01:10Z</time>
      </trkpt>
      <trkpt lat="49.12489" lon="-0.0224">
        <ele>14.4</ele>
        <time>2024-03-20T14:01:11Z</time>
      </trkpt>
      <trkpt lat="49.12489" lon="-0.02229">
        <ele>14.4</ele>
        <time>2024-03-20T14:01:12Z</time>
      </trkpt>
      <trkpt lat="49.12489" lon="-0.02218">
        <ele>14.4</ele>
        <time>2024-03-20T14:01:13Z</time>
      </trkpt>
      <trkpt lat="49.12489" lon="-0.02207">
        <ele>14.6</ele>
        <time>2024-03-20T14:01:14Z</time>
      </trkpt>
      <trkpt lat="49.1249" lon="-0.02196">
        <ele>14.6</ele>
        <time>2024-03-20T14:01:15Z</time>
      </trkpt>
      <trkpt lat="49.1249" lon="-0.02184">
        <ele>14.8</ele>
        <time>2024-03-20T14:01:16Z</time>
      </trkpt>
      <trkpt lat="49.12491" lon="-0.02173">
        <ele>15</ele>
        <time>2024-03-20T14:01:17Z</time>
      </trkpt>
      <trkpt lat="49.12492" lon="-0.02161">
        <ele>15</ele>
        <time>2024-03-20T14:01:18Z</time>
      </trkpt>
      <trkpt lat="49.12493" lon="-0.02149">
        <ele>15.2</ele>
        <time>2024-03-20T14:01:19Z</time>
      </trkpt>
      <trkpt lat="49.12494" lon="-0.02138">
        <ele>15.2</ele>
        <time>2024-03-20T14:01:20Z</time>
      </trkpt>
      <trkpt lat="49.12494" lon="-0.02125">
        <ele>15.2</ele>
        <time>2024-03-20T14:01:21Z</time>
      </trkpt>
      <trkpt lat="49.12495" lon="-0.02113">
        <ele>15.2</ele>
        <time>2024-03-20T14:01:22Z</time>
      </trkpt>
      <trkpt lat="49.12497" lon="-0.02101">
        <ele>15.2</ele>
        <time>2024-03-20T14:01:23Z</time>
      </trkpt>
      <trkpt lat="49.12498" lon="-0.02088">
        <ele>15.2</ele>
        <time>2024-03-20T14:01:24Z</time>
      </trkpt>
      <trkpt lat="49.12499" lon="-0.02076">
        <ele>15.2</ele>
        <time>2024-03-20T14:01:25Z</time>
      </trkpt>
      <trkpt lat="49.125" lon="-0.02064">
        <ele>15.2</ele>
        <time>2024-03-20T14:01:26Z</time>
      </trkpt>
      <trkpt lat="49.12501" lon="-0.02051">
        <ele>15.2</ele>
        <time>2024-03-20T14:01:27Z</time>
      </trkpt>
      <trkpt lat="49.12502" lon="-0.02039">
        <ele>15.2</ele>
        <time>2024-03-20T14:01:28Z</time>
      </trkpt>
      <trkpt lat="49.12503" lon="-0.02027">
        <ele>15.2</ele>
        <time>2024-03-20T14:01:29Z</time>
      </trkpt>
      <trkpt lat="49.12504" lon="-0.02015">
        <ele>15.2</ele>
        <time>2024-03-20T14:01:30Z</time>
      </trkpt>
      <trkpt lat="49.12505" lon="-0.02003">
        <ele>15.2</ele>
        <time>2024-03-20T14:01:31Z</time>
      </trkpt>
      <trkpt lat="49.12505" lon="-0.01991">
        <ele>15</ele>
        <time>2024-03-20T14:01:32Z</time>
      </trkpt>
      <trkpt lat="49.12506" lon="-0.0198">
        <ele>14.8</ele>
        <time>2024-03-20T14:01:33Z</time>
      </trkpt>
      <trkpt lat="49.12507" lon="-0.01968">
        <ele>14.8</ele>
        <time>2024-03-20T14:01:34Z</time>
      </trkpt>
      <trkpt lat="49.12509" lon="-0.01956">
        <ele>14.8</ele>
        <time>2024-03-20T14:01:35Z</time>
      </trkpt>
      <trkpt lat="49.1251" lon="-0.01944">
        <ele>14.8</ele>
        <time>2024-03-20T14:01:36Z</time>
      </trkpt>
      <trkpt lat="49.12511" lon="-0.01932">
        <ele>14.8</ele>
        <time>2024-03-20T14:01:37Z</time>
      </trkpt>
      <trkpt lat="49.12512" lon="-0.0192">
        <ele>14.8</ele>
        <time>2024-03-20T14:01:38Z</time>
      </trkpt>
      <trkpt lat="49.12513" lon="-0.01909">
        <ele>14.6</ele>
        <time>2024-03-20T14:01:39Z</time>
      </trkpt>
      <trkpt lat="49.12514" lon="-0.01897">
        <ele>14.6</ele>
        <time>2024-03-20T14:01:40Z</time>
      </trkpt>
      <trkpt lat="49.12515" lon="-0.01884">
        <ele>14.6</ele>
        <time>2024-03-20T14:01:41Z</time>
      </trkpt>
      <trkpt lat="49.12516" lon="-0.01873">
        <ele>14.6</ele>
        <time>2024-03-20T14:01:42Z</time>
      </trkpt>
      <trkpt lat="49.12517" lon="-0.01861">
        <ele>14.8</ele>
        <time>2024-03-20T14:01:43Z</time>
      </trkpt>
      <trkpt lat="49.12518" lon="-0.0185">
        <ele>14.8</ele>
        <time>2024-03-20T14:01:44Z</time>
      </trkpt>
      <trkpt lat="49.12519" lon="-0.01838">
        <ele>14.8</ele>
        <time>2024-03-20T14:01:45Z</time>
      </trkpt>
      <trkpt lat="49.1252" lon="-0.01826">
        <ele>14.8</ele>
        <time>2024-03-20T14:01:46Z</time>
      </trkpt>
      <trkpt lat="49.12521" lon="-0.01814">
        <ele>14.8</ele>
        <time>2024-03-20T14:01:47Z</time>
      </trkpt>
      <trkpt lat="49.12522" lon="-0.01802">
        <ele>14.8</ele>
        <time>2024-03-20T14:01:48Z</time>
      </trkpt>
      <trkpt lat="49.12523" lon="-0.01791">
        <ele>14.8</ele>
        <time>2024-03-20T14:01:49Z</time>
      </trkpt>
      <trkpt lat="49.12525" lon="-0.01779">
        <ele>14.8</ele>
        <time>2024-03-20T14:01:50Z</time>
      </trkpt>
      <trkpt lat="49.12526" lon="-0.01767">
        <ele>14.8</ele>
        <time>2024-03-20T14:01:51Z</time>
      </trkpt>
      <trkpt lat="49.12527" lon="-0.01756">
        <ele>14.8</ele>
        <time>2024-03-20T14:01:52Z</time>
      </trkpt>
      <trkpt lat="49.12528" lon="-0.01743">
        <ele>14.8</ele>
        <time>2024-03-20T14:01:53Z</time>
      </trkpt>
      <trkpt lat="49.12529" lon="-0.01731">
        <ele>14.8</ele>
        <time>2024-03-20T14:01:54Z</time>
      </trkpt>
      <trkpt lat="49.12529" lon="-0.01719">
        <ele>14.8</ele>
        <time>2024-03-20T14:01:55Z</time>
      </trkpt>
      <trkpt lat="49.1253" lon="-0.01707">
        <ele>14.8</ele>
        <time>2024-03-20T14:01:56Z</time>
      </trkpt>
      <trkpt lat="49.12531" lon="-0.01695">
        <ele>14.8</ele>
        <time>2024-03-20T14:01:57Z</time>
      </trkpt>
      <trkpt lat="49.12532" lon="-0.01683">
        <ele>14.8</ele>
        <time>2024-03-20T14:01:58Z</time>
      </trkpt>
      <trkpt lat="49.12533" lon="-0.01671">
        <ele>14.8</ele>
        <time>2024-03-20T14:01:59Z</time>
      </trkpt>
      <trkpt lat="49.12534" lon="-0.01659">
        <ele>14.8</ele>
        <time>2024-03-20T14:02:00Z</time>
      </trkpt>
      <trkpt lat="49.12535" lon="-0.01647">
        <ele>14.8</ele>
        <time>2024-03-20T14:02:01Z</time>
      </trkpt>
      <trkpt lat="49.12536" lon="-0.01635">
        <ele>14.8</ele>
        <time>2024-03-20T14:02:02Z</time>
      </trkpt>
      <trkpt lat="49.12537" lon="-0.01623">
        <ele>14.8</ele>
        <time>2024-03-20T14:02:03Z</time>
      </trkpt>
      <trkpt lat="49.12538" lon="-0.01611">
        <ele>14.8</ele>
        <time>2024-03-20T14:02:04Z</time>
      </trkpt>
      <trkpt lat="49.12539" lon="-0.01599">
        <ele>14.8</ele>
        <time>2024-03-20T14:02:05Z</time>
      </trkpt>
      <trkpt lat="49.1254" lon="-0.01588">
        <ele>14.8</ele>
        <time>2024-03-20T14:02:06Z</time>
      </trkpt>
      <trkpt lat="49.12541" lon="-0.01575">
        <ele>14.8</ele>
        <time>2024-03-20T14:02:07Z</time>
      </trkpt>
      <trkpt lat="49.12542" lon="-0.01563">
        <ele>14.8</ele>
        <time>2024-03-20T14:02:08Z</time>
      </trkpt>
      <trkpt lat="49.12543" lon="-0.01551">
        <ele>14.8</ele>
        <time>2024-03-20T14:02:09Z</time>
      </trkpt>
      <trkpt lat="49.12544" lon="-0.01539">
        <ele>14.8</ele>
        <time>2024-03-20T14:02:10Z</time>
      </trkpt>
      <trkpt lat="49.12545" lon="-0.01527">
        <ele>14.8</ele>
        <time>2024-03-20T14:02:11Z</time>
      </trkpt>
      <trkpt lat="49.12545" lon="-0.01515">
        <ele>15</ele>
        <time>2024-03-20T14:02:12Z</time>
      </trkpt>
      <trkpt lat="49.12546" lon="-0.01502">
        <ele>15</ele>
        <time>2024-03-20T14:02:13Z</time>
      </trkpt>
      <trkpt lat="49.12547" lon="-0.0149">
        <ele>15</ele>
        <time>2024-03-20T14:02:14Z</time>
      </trkpt>
      <trkpt lat="49.12547" lon="-0.01477">
        <ele>14.8</ele>
        <time>2024-03-20T14:02:15Z</time>
      </trkpt>
      <trkpt lat="49.12548" lon="-0.01465">
        <ele>15</ele>
        <time>2024-03-20T14:02:16Z</time>
      </trkpt>
      <trkpt lat="49.12548" lon="-0.01452">
        <ele>15</ele>
        <time>2024-03-20T14:02:17Z</time>
      </trkpt>
      <trkpt lat="49.12548" lon="-0.0144">
        <ele>15</ele>
        <time>2024-03-20T14:02:18Z</time>
      </trkpt>
      <trkpt lat="49.12548" lon="-0.01428">
        <ele>14.8</ele>
        <time>2024-03-20T14:02:19Z</time>
      </trkpt>
      <trkpt lat="49.12547" lon="-0.01415">
        <ele>14.8</ele>
        <time>2024-03-20T14:02:20Z</time>
      </trkpt>
      <trkpt lat="49.12547" lon="-0.01403">
        <ele>15</ele>
        <time>2024-03-20T14:02:21Z</time>
      </trkpt>
      <trkpt lat="49.12546" lon="-0.01391">
        <ele>15</ele>
        <time>2024-03-20T14:02:22Z</time>
      </trkpt>
      <trkpt lat="49.12546" lon="-0.01379">
        <ele>15</ele>
        <time>2024-03-20T14:02:23Z</time>
      </trkpt>
      <trkpt lat="49.12545" lon="-0.01368">
        <ele>15</ele>
        <time>2024-03-20T14:02:24Z</time>
      </trkpt>
      <trkpt lat="49.12544" lon="-0.01356">
        <ele>15</ele>
        <time>2024-03-20T14:02:25Z</time>
      </trkpt>
      <trkpt lat="49.12543" lon="-0.01345">
        <ele>15</ele>
        <time>2024-03-20T14:02:26Z</time>
      </trkpt>
      <trkpt lat="49.12542" lon="-0.01333">
        <ele>15</ele>
        <time>2024-03-20T14:02:27Z</time>
      </trkpt>
      <trkpt lat="49.12541" lon="-0.01322">
        <ele>15</ele>
        <time>2024-03-20T14:02:28Z</time>
      </trkpt>
      <trkpt lat="49.12539" lon="-0.0131">
        <ele>15</ele>
        <time>2024-03-20T14:02:29Z</time>
      </trkpt>
      <trkpt lat="49.12538" lon="-0.01299">
        <ele>15</ele>
        <time>2024-03-20T14:02:30Z</time>
      </trkpt>
      <trkpt lat="49.12536" lon="-0.01287">
        <ele>15</ele>
        <time>2024-03-20T14:02:31Z</time>
      </trkpt>
      <trkpt lat="49.12535" lon="-0.01276">
        <ele>15</ele>
        <time>2024-03-20T14:02:32Z</time>
      </trkpt>
      <trkpt lat="49.12532" lon="-0.01265">
        <ele>15</ele>
        <time>2024-03-20T14:02:33Z</time>
      </trkpt>
      <trkpt lat="49.1253" lon="-0.01254">
        <ele>15</ele>
        <time>2024-03-20T14:02:34Z</time>
      </trkpt>
      <trkpt lat="49.12528" lon="-0.01242">
        <ele>15</ele>
        <time>2024-03-20T14:02:35Z</time>
      </trkpt>
      <trkpt lat="49.12526" lon="-0.01231">
        <ele>15</ele>
        <time>2024-03-20T14:02:36Z</time>
      </trkpt>
      <trkpt lat="49.12523" lon="-0.0122">
        <ele>15</ele>
        <time>2024-03-20T14:02:37Z</time>
      </trkpt>
      <trkpt lat="49.1252" lon="-0.01209">
        <ele>15</ele>
        <time>2024-03-20T14:02:38Z</time>
      </trkpt>
      <trkpt lat="49.12517" lon="-0.01199">
        <ele>15</ele>
        <time>2024-03-20T14:02:39Z</time>
      </trkpt>
      <trkpt lat="49.12514" lon="-0.01188">
        <ele>15</ele>
        <time>2024-03-20T14:02:40Z</time>
      </trkpt>
      <trkpt lat="49.12511" lon="-0.01178">
        <ele>15.2</ele>
        <time>2024-03-20T14:02:41Z</time>
      </trkpt>
      <trkpt lat="49.12508" lon="-0.01168">
        <ele>15.2</ele>
        <time>2024-03-20T14:02:42Z</time>
      </trkpt>
      <trkpt lat="49.12505" lon="-0.01157">
        <ele>15.2</ele>
        <time>2024-03-20T14:02:43Z</time>
      </trkpt>
      <trkpt lat="49.12502" lon="-0.01147">
        <ele>15.4</ele>
        <time>2024-03-20T14:02:44Z</time>
      </trkpt>
      <trkpt lat="49.125" lon="-0.01137">
        <ele>15.4</ele>
        <time>2024-03-20T14:02:45Z</time>
      </trkpt>
      <trkpt lat="49.12497" lon="-0.01127">
        <ele>15.4</ele>
        <time>2024-03-20T14:02:46Z</time>
      </trkpt>
      <trkpt lat="49.12494" lon="-0.01118">
        <ele>15.6</ele>
        <time>2024-03-20T14:02:47Z</time>
      </trkpt>
      <trkpt lat="49.12491" lon="-0.01108">
        <ele>15.6</ele>
        <time>2024-03-20T14:02:48Z</time>
      </trkpt>
      <trkpt lat="49.12488" lon="-0.01099">
        <ele>15.6</ele>
        <time>2024-03-20T14:02:49Z</time>
      </trkpt>
      <trkpt lat="49.12485" lon="-0.0109">
        <ele>15.8</ele>
        <time>2024-03-20T14:02:50Z</time>
      </trkpt>
      <trkpt lat="49.12483" lon="-0.0108">
        <ele>15.8</ele>
        <time>2024-03-20T14:02:51Z</time>
      </trkpt>
      <trkpt lat="49.1248" lon="-0.0107">
        <ele>15.8</ele>
        <time>2024-03-20T14:02:52Z</time>
      </trkpt>
      <trkpt lat="49.12477" lon="-0.01061">
        <ele>15.8</ele>
        <time>2024-03-20T14:02:53Z</time>
      </trkpt>
      <trkpt lat="49.12474" lon="-0.01051">
        <ele>16</ele>
        <time>2024-03-20T14:02:54Z</time>
      </trkpt>
      <trkpt lat="49.12471" lon="-0.01041">
        <ele>16</ele>
        <time>2024-03-20T14:02:55Z</time>
      </trkpt>
      <trkpt lat="49.12468" lon="-0.01032">
        <ele>16</ele>
        <time>2024-03-20T14:02:56Z</time>
      </trkpt>
      <trkpt lat="49.12465" lon="-0.01023">
        <ele>16</ele>
        <time>2024-03-20T14:02:57Z</time>
      </trkpt>
      <trkpt lat="49.12461" lon="-0.01014">
        <ele>16</ele>
        <time>2024-03-20T14:02:58Z</time>
      </trkpt>
      <trkpt lat="49.12457" lon="-0.01006">
        <ele>16</ele>
        <time>2024-03-20T14:02:59Z</time>
      </trkpt>
      <trkpt lat="49.12454" lon="-0.00997">
        <ele>15.8</ele>
        <time>2024-03-20T14:03:00Z</time>
      </trkpt>
      <trkpt lat="49.1245" lon="-0.00988">
        <ele>15.8</ele>
        <time>2024-03-20T14:03:01Z</time>
      </trkpt>
      <trkpt lat="49.12446" lon="-0.0098">
        <ele>15.8</ele>
        <time>2024-03-20T14:03:02Z</time>
      </trkpt>
      <trkpt lat="49.12442" lon="-0.00972">
        <ele>15.8</ele>
        <time>2024-03-20T14:03:03Z</time>
      </trkpt>
      <trkpt lat="49.12439" lon="-0.00963">
        <ele>15.8</ele>
        <time>2024-03-20T14:03:04Z</time>
      </trkpt>
      <trkpt lat="49.12435" lon="-0.00955">
        <ele>15.8</ele>
        <time>2024-03-20T14:03:05Z</time>
      </trkpt>
      <trkpt lat="49.12432" lon="-0.00946">
        <ele>15.8</ele>
        <time>2024-03-20T14:03:06Z</time>
      </trkpt>
      <trkpt lat="49.12428" lon="-0.00937">
        <ele>15.8</ele>
        <time>2024-03-20T14:03:07Z</time>
      </trkpt>
      <trkpt lat="49.12425" lon="-0.00928">
        <ele>15.8</ele>
        <time>2024-03-20T14:03:08Z</time>
      </trkpt>
      <trkpt lat="49.12421" lon="-0.0092">
        <ele>15.8</ele>
        <time>2024-03-20T14:03:09Z</time>
      </trkpt>
      <trkpt lat="49.12417" lon="-0.00911">
        <ele>15.6</ele>
        <time>2024-03-20T14:03:10Z</time>
      </trkpt>
      <trkpt lat="49.12413" lon="-0.00903">
        <ele>15.6</ele>
        <time>2024-03-20T14:03:11Z</time>
      </trkpt>
      <trkpt lat="49.12409" lon="-0.00894">
        <ele>15.6</ele>
        <time>2024-03-20T14:03:12Z</time>
      </trkpt>
      <trkpt lat="49.12405" lon="-0.00886">
        <ele>15.6</ele>
        <time>2024-03-20T14:03:13Z</time>
      </trkpt>
      <trkpt lat="49.12401" lon="-0.00878">
        <ele>15.6</ele>
        <time>2024-03-20T14:03:14Z</time>
      </trkpt>
      <trkpt lat="49.12397" lon="-0.0087">
        <ele>15.6</ele>
        <time>2024-03-20T14:03:15Z</time>
      </trkpt>
      <trkpt lat="49.12393" lon="-0.00862">
        <ele>15.6</ele>
        <time>2024-03-20T14:03:16Z</time>
      </trkpt>
      <trkpt lat="49.12388" lon="-0.00855">
        <ele>15.6</ele>
        <time>2024-03-20T14:03:17Z</time>
      </trkpt>
      <trkpt lat="49.12383" lon="-0.00849">
        <ele>15.6</ele>
        <time>2024-03-20T14:03:18Z</time>
      </trkpt>
      <trkpt lat="49.12378" lon="-0.00843">
        <ele>15.4</ele>
        <time>2024-03-20T14:03:19Z</time>
      </trkpt>
      <trkpt lat="49.12373" lon="-0.00837">
        <ele>15.4</ele>
        <time>2024-03-20T14:03:20Z</time>
      </trkpt>
      <trkpt lat="49.12368" lon="-0.00831">
        <ele>15.4</ele>
        <time>2024-03-20T14:03:21Z</time>
      </trkpt>
      <trkpt lat="49.12363" lon="-0.00825">
        <ele>15.4</ele>
        <time>2024-03-20T14:03:22Z</time>
      </trkpt>
      <trkpt lat="49.12357" lon="-0.0082">
        <ele>15.4</ele>
        <time>2024-03-20T14:03:23Z</time>
      </trkpt>
      <trkpt lat="49.12352" lon="-0.00815">
        <ele>15.4</ele>
        <time>2024-03-20T14:03:24Z</time>
      </trkpt>
      <trkpt lat="49.12346" lon="-0.00811">
        <ele>15.4</ele>
        <time>2024-03-20T14:03:25Z</time>
      </trkpt>
      <trkpt lat="49.1234" lon="-0.00807">
        <ele>15.4</ele>
        <time>2024-03-20T14:03:26Z</time>
      </trkpt>
      <trkpt lat="49.12334" lon="-0.00803">
        <ele>15.4</ele>
        <time>2024-03-20T14:03:27Z</time>
      </trkpt>
      <trkpt lat="49.12328" lon="-0.008">
        <ele>15.4</ele>
        <time>2024-03-20T14:03:28Z</time>
      </trkpt>
      <trkpt lat="49.12322" lon="-0.00797">
        <ele>15.4</ele>
        <time>2024-03-20T14:03:29Z</time>
      </trkpt>
      <trkpt lat="49.12315" lon="-0.00794">
        <ele>15.4</ele>
        <time>2024-03-20T14:03:30Z</time>
      </trkpt>
      <trkpt lat="49.12309" lon="-0.00791">
        <ele>15.4</ele>
        <time>2024-03-20T14:03:31Z</time>
      </trkpt>
      <trkpt lat="49.12303" lon="-0.00787">
        <ele>15.4</ele>
        <time>2024-03-20T14:03:32Z</time>
      </trkpt>
      <trkpt lat="49.12296" lon="-0.00782">
        <ele>15.4</ele>
        <time>2024-03-20T14:03:33Z</time>
      </trkpt>
      <trkpt lat="49.12291" lon="-0.00776">
        <ele>15.6</ele>
        <time>2024-03-20T14:03:34Z</time>
      </trkpt>
      <trkpt lat="49.12286" lon="-0.0077">
        <ele>15.6</ele>
        <time>2024-03-20T14:03:35Z</time>
      </trkpt>
      <trkpt lat="49.12281" lon="-0.00762">
        <ele>16</ele>
        <time>2024-03-20T14:03:36Z</time>
      </trkpt>
      <trkpt lat="49.12277" lon="-0.00754">
        <ele>16</ele>
        <time>2024-03-20T14:03:37Z</time>
      </trkpt>
      <trkpt lat="49.12273" lon="-0.00746">
        <ele>16</ele>
        <time>2024-03-20T14:03:38Z</time>
      </trkpt>
      <trkpt lat="49.1227" lon="-0.00737">
        <ele>16.2</ele>
        <time>2024-03-20T14:03:39Z</time>
      </trkpt>
      <trkpt lat="49.12267" lon="-0.00729">
        <ele>16.2</ele>
        <time>2024-03-20T14:03:40Z</time>
      </trkpt>
      <trkpt lat="49.12264" lon="-0.0072">
        <ele>16.2</ele>
        <time>2024-03-20T14:03:41Z</time>
      </trkpt>
      <trkpt lat="49.12261" lon="-0.00711">
        <ele>16.2</ele>
        <time>2024-03-20T14:03:42Z</time>
      </trkpt>
      <trkpt lat="49.12259" lon="-0.00701">
        <ele>16.2</ele>
        <time>2024-03-20T14:03:43Z</time>
      </trkpt>
      <trkpt lat="49.12257" lon="-0.00692">
        <ele>16.4</ele>
        <time>2024-03-20T14:03:44Z</time>
      </trkpt>
      <trkpt lat="49.12255" lon="-0.00682">
        <ele>16.4</ele>
        <time>2024-03-20T14:03:45Z</time>
      </trkpt>
      <trkpt lat="49.12253" lon="-0.00673">
        <ele>16.4</ele>
        <time>2024-03-20T14:03:46Z</time>
      </trkpt>
      <trkpt lat="49.12251" lon="-0.00664">
        <ele>16.4</ele>
        <time>2024-03-20T14:03:47Z</time>
      </trkpt>
      <trkpt lat="49.12248" lon="-0.00655">
        <ele>16.4</ele>
        <time>2024-03-20T14:03:48Z</time>
      </trkpt>
      <trkpt lat="49.12246" lon="-0.00645">
        <ele>16.4</ele>
        <time>2024-03-20T14:03:49Z</time>
      </trkpt>
      <trkpt lat="49.12243" lon="-0.00636">
        <ele>16.4</ele>
        <time>2024-03-20T14:03:50Z</time>
      </trkpt>
      <trkpt lat="49.12239" lon="-0.00628">
        <ele>16.4</ele>
        <time>2024-03-20T14:03:51Z</time>
      </trkpt>
      <trkpt lat="49.12236" lon="-0.00619">
        <ele>16.4</ele>
        <time>2024-03-20T14:03:52Z</time>
      </trkpt>
      <trkpt lat="49.12231" lon="-0.00612">
        <ele>16.4</ele>
        <time>2024-03-20T14:03:53Z</time>
      </trkpt>
      <trkpt lat="49.12227" lon="-0.00605">
        <ele>16.4</ele>
        <time>2024-03-20T14:03:54Z</time>
      </trkpt>
      <trkpt lat="49.12222" lon="-0.00598">
        <ele>16.2</ele>
        <time>2024-03-20T14:03:55Z</time>
      </trkpt>
      <trkpt lat="49.12217" lon="-0.00591">
        <ele>16.2</ele>
        <time>2024-03-20T14:03:56Z</time>
      </trkpt>
      <trkpt lat="49.12212" lon="-0.00585">
        <ele>16.2</ele>
        <time>2024-03-20T14:03:57Z</time>
      </trkpt>
      <trkpt lat="49.12207" lon="-0.0058">
        <ele>16.2</ele>
        <time>2024-03-20T14:03:58Z</time>
      </trkpt>
      <trkpt lat="49.12201" lon="-0.00574">
        <ele>16.2</ele>
        <time>2024-03-20T14:03:59Z</time>
      </trkpt>
      <trkpt lat="49.12195" lon="-0.00569">
        <ele>16.2</ele>
        <time>2024-03-20T14:04:00Z</time>
      </trkpt>
      <trkpt lat="49.12189" lon="-0.00564">
        <ele>16.2</ele>
        <time>2024-03-20T14:04:01Z</time>
      </trkpt>
      <trkpt lat="49.12183" lon="-0.00558">
        <ele>16.2</ele>
        <time>2024-03-20T14:04:02Z</time>
      </trkpt>
      <trkpt lat="49.12177" lon="-0.00552">
        <ele>16.2</ele>
        <time>2024-03-20T14:04:03Z</time>
      </trkpt>
      <trkpt lat="49.12172" lon="-0.00547">
        <ele>16.2</ele>
        <time>2024-03-20T14:04:04Z</time>
      </trkpt>
      <trkpt lat="49.12166" lon="-0.00541">
        <ele>16.2</ele>
        <time>2024-03-20T14:04:05Z</time>
      </trkpt>
      <trkpt lat="49.1216" lon="-0.00535">
        <ele>16.2</ele>
        <time>2024-03-20T14:04:06Z</time>
      </trkpt>
      <trkpt lat="49.12155" lon="-0.00529">
        <ele>16.2</ele>
        <time>2024-03-20T14:04:07Z</time>
      </trkpt>
      <trkpt lat="49.12149" lon="-0.00524">
        <ele>16.4</ele>
        <time>2024-03-20T14:04:08Z</time>
      </trkpt>
      <trkpt lat="49.12144" lon="-0.00518">
        <ele>16.4</ele>
        <time>2024-03-20T14:04:09Z</time>
      </trkpt>
      <trkpt lat="49.12139" lon="-0.00513">
        <ele>16.4</ele>
        <time>2024-03-20T14:04:10Z</time>
      </trkpt>
      <trkpt lat="49.12133" lon="-0.00508">
        <ele>16.4</ele>
        <time>2024-03-20T14:04:11Z</time>
      </trkpt>
      <trkpt lat="49.12128" lon="-0.00504">
        <ele>16.4</ele>
        <time>2024-03-20T14:04:12Z</time>
      </trkpt>
      <trkpt lat="49.12123" lon="-0.00499">
        <ele>16.4</ele>
        <time>2024-03-20T14:04:13Z</time>
      </trkpt>
      <trkpt lat="49.12117" lon="-0.00495">
        <ele>16.6</ele>
        <time>2024-03-20T14:04:14Z</time>
      </trkpt>
      <trkpt lat="49.12112" lon="-0.00491">
        <ele>16.6</ele>
        <time>2024-03-20T14:04:15Z</time>
      </trkpt>
      <trkpt lat="49.12106" lon="-0.00486">
        <ele>16.8</ele>
        <time>2024-03-20T14:04:16Z</time>
      </trkpt>
      <trkpt lat="49.121" lon="-0.00482">
        <ele>16.8</ele>
        <time>2024-03-20T14:04:17Z</time>
      </trkpt>
      <trkpt lat="49.12094" lon="-0.00479">
        <ele>17</ele>
        <time>2024-03-20T14:04:18Z</time>
      </trkpt>
      <trkpt lat="49.12089" lon="-0.00476">
        <ele>17</ele>
        <time>2024-03-20T14:04:19Z</time>
      </trkpt>
      <trkpt lat="49.12083" lon="-0.00473">
        <ele>17</ele>
        <time>2024-03-20T14:04:20Z</time>
      </trkpt>
      <trkpt lat="49.12077" lon="-0.0047">
        <ele>17</ele>
        <time>2024-03-20T14:04:21Z</time>
      </trkpt>
      <trkpt lat="49.12071" lon="-0.00467">
        <ele>17</ele>
        <time>2024-03-20T14:04:22Z</time>
      </trkpt>
      <trkpt lat="49.12065" lon="-0.00464">
        <ele>17.2</ele>
        <time>2024-03-20T14:04:23Z</time>
      </trkpt>
      <trkpt lat="49.12059" lon="-0.00461">
        <ele>17.2</ele>
        <time>2024-03-20T14:04:24Z</time>
      </trkpt>
      <trkpt lat="49.12052" lon="-0.00458">
        <ele>17.2</ele>
        <time>2024-03-20T14:04:25Z</time>
      </trkpt>
      <trkpt lat="49.12046" lon="-0.00455">
        <ele>17.2</ele>
        <time>2024-03-20T14:04:26Z</time>
      </trkpt>
      <trkpt lat="49.1204" lon="-0.00451">
        <ele>17.2</ele>
        <time>2024-03-20T14:04:27Z</time>
      </trkpt>
      <trkpt lat="49.12033" lon="-0.00448">
        <ele>17</ele>
        <time>2024-03-20T14:04:28Z</time>
      </trkpt>
      <trkpt lat="49.12026" lon="-0.00444">
        <ele>17</ele>
        <time>2024-03-20T14:04:29Z</time>
      </trkpt>
      <trkpt lat="49.12019" lon="-0.0044">
        <ele>17</ele>
        <time>2024-03-20T14:04:30Z</time>
      </trkpt>
      <trkpt lat="49.12012" lon="-0.00437">
        <ele>17</ele>
        <time>2024-03-20T14:04:31Z</time>
      </trkpt>
      <trkpt lat="49.12005" lon="-0.00434">
        <ele>16.8</ele>
        <time>2024-03-20T14:04:32Z</time>
      </trkpt>
      <trkpt lat="49.11998" lon="-0.00431">
        <ele>16.6</ele>
        <time>2024-03-20T14:04:33Z</time>
      </trkpt>
      <trkpt lat="49.11991" lon="-0.0043">
        <ele>16.6</ele>
        <time>2024-03-20T14:04:34Z</time>
      </trkpt>
      <trkpt lat="49.11983" lon="-0.0043">
        <ele>16.6</ele>
        <time>2024-03-20T14:04:35Z</time>
      </trkpt>
      <trkpt lat="49.11976" lon="-0.00431">
        <ele>16.4</ele>
        <time>2024-03-20T14:04:36Z</time>
      </trkpt>
      <trkpt lat="49.11968" lon="-0.00433">
        <ele>16.4</ele>
        <time>2024-03-20T14:04:37Z</time>
      </trkpt>
      <trkpt lat="49.11961" lon="-0.00435">
        <ele>16.4</ele>
        <time>2024-03-20T14:04:38Z</time>
      </trkpt>
      <trkpt lat="49.11954" lon="-0.00437">
        <ele>16.4</ele>
        <time>2024-03-20T14:04:39Z</time>
      </trkpt>
      <trkpt lat="49.11947" lon="-0.00438">
        <ele>16.4</ele>
        <time>2024-03-20T14:04:40Z</time>
      </trkpt>
      <trkpt lat="49.11939" lon="-0.00438">
        <ele>16.4</ele>
        <time>2024-03-20T14:04:41Z</time>
      </trkpt>
      <trkpt lat="49.11932" lon="-0.00437">
        <ele>16.2</ele>
        <time>2024-03-20T14:04:42Z</time>
      </trkpt>
      <trkpt lat="49.11925" lon="-0.00436">
        <ele>16.2</ele>
        <time>2024-03-20T14:04:43Z</time>
      </trkpt>
      <trkpt lat="49.11917" lon="-0.00434">
        <ele>16.2</ele>
        <time>2024-03-20T14:04:44Z</time>
      </trkpt>
      <trkpt lat="49.11909" lon="-0.00431">
        <ele>16</ele>
        <time>2024-03-20T14:04:45Z</time>
      </trkpt>
      <trkpt lat="49.11902" lon="-0.00428">
        <ele>16</ele>
        <time>2024-03-20T14:04:46Z</time>
      </trkpt>
      <trkpt lat="49.11895" lon="-0.00426">
        <ele>16</ele>
        <time>2024-03-20T14:04:47Z</time>
      </trkpt>
      <trkpt lat="49.11887" lon="-0.00422">
        <ele>16</ele>
        <time>2024-03-20T14:04:48Z</time>
      </trkpt>
      <trkpt lat="49.11879" lon="-0.00418">
        <ele>16</ele>
        <time>2024-03-20T14:04:49Z</time>
      </trkpt>
      <trkpt lat="49.11872" lon="-0.00415">
        <ele>16</ele>
        <time>2024-03-20T14:04:50Z</time>
      </trkpt>
      <trkpt lat="49.11865" lon="-0.00411">
        <ele>16</ele>
        <time>2024-03-20T14:04:51Z</time>
      </trkpt>
      <trkpt lat="49.11858" lon="-0.00408">
        <ele>15.6</ele>
        <time>2024-03-20T14:04:52Z</time>
      </trkpt>
      <trkpt lat="49.11851" lon="-0.00405">
        <ele>15.8</ele>
        <time>2024-03-20T14:04:53Z</time>
      </trkpt>
      <trkpt lat="49.11843" lon="-0.00402">
        <ele>15.8</ele>
        <time>2024-03-20T14:04:54Z</time>
      </trkpt>
      <trkpt lat="49.11836" lon="-0.00399">
        <ele>15.6</ele>
        <time>2024-03-20T14:04:55Z</time>
      </trkpt>
      <trkpt lat="49.11828" lon="-0.00396">
        <ele>15.6</ele>
        <time>2024-03-20T14:04:56Z</time>
      </trkpt>
      <trkpt lat="49.11821" lon="-0.00395">
        <ele>15.6</ele>
        <time>2024-03-20T14:04:57Z</time>
      </trkpt>
      <trkpt lat="49.11813" lon="-0.00394">
        <ele>15.6</ele>
        <time>2024-03-20T14:04:58Z</time>
      </trkpt>
      <trkpt lat="49.11805" lon="-0.00394">
        <ele>15.6</ele>
        <time>2024-03-20T14:04:59Z</time>
      </trkpt>
      <trkpt lat="49.11797" lon="-0.00395">
        <ele>15.6</ele>
        <time>2024-03-20T14:05:00Z</time>
      </trkpt>
      <trkpt lat="49.11789" lon="-0.00395">
        <ele>15.8</ele>
        <time>2024-03-20T14:05:01Z</time>
      </trkpt>
      <trkpt lat="49.11782" lon="-0.00394">
        <ele>15.8</ele>
        <time>2024-03-20T14:05:02Z</time>
      </trkpt>
      <trkpt lat="49.11774" lon="-0.00394">
        <ele>15.6</ele>
        <time>2024-03-20T14:05:03Z</time>
      </trkpt>
      <trkpt lat="49.11766" lon="-0.00393">
        <ele>15.6</ele>
        <time>2024-03-20T14:05:04Z</time>
      </trkpt>
      <trkpt lat="49.11759" lon="-0.00392">
        <ele>15.6</ele>
        <time>2024-03-20T14:05:05Z</time>
      </trkpt>
      <trkpt lat="49.11751" lon="-0.0039">
        <ele>15.6</ele>
        <time>2024-03-20T14:05:06Z</time>
      </trkpt>
      <trkpt lat="49.11743" lon="-0.00389">
        <ele>15.6</ele>
        <time>2024-03-20T14:05:07Z</time>
      </trkpt>
      <trkpt lat="49.11736" lon="-0.00388">
        <ele>15.6</ele>
        <time>2024-03-20T14:05:08Z</time>
      </trkpt>
      <trkpt lat="49.11728" lon="-0.00387">
        <ele>15.8</ele>
        <time>2024-03-20T14:05:09Z</time>
      </trkpt>
      <trkpt lat="49.1172" lon="-0.00386">
        <ele>15.8</ele>
        <time>2024-03-20T14:05:10Z</time>
      </trkpt>
      <trkpt lat="49.11713" lon="-0.00385">
        <ele>15.8</ele>
        <time>2024-03-20T14:05:11Z</time>
      </trkpt>
      <trkpt lat="49.11705" lon="-0.00384">
        <ele>15.8</ele>
        <time>2024-03-20T14:05:12Z</time>
      </trkpt>
      <trkpt lat="49.11697" lon="-0.00383">
        <ele>15.8</ele>
        <time>2024-03-20T14:05:13Z</time>
      </trkpt>
      <trkpt lat="49.11689" lon="-0.00382">
        <ele>15.8</ele>
        <time>2024-03-20T14:05:14Z</time>
      </trkpt>
      <trkpt lat="49.11682" lon="-0.00381">
        <ele>16.2</ele>
        <time>2024-03-20T14:05:15Z</time>
      </trkpt>
      <trkpt lat="49.11675" lon="-0.0038">
        <ele>16.4</ele>
        <time>2024-03-20T14:05:16Z</time>
      </trkpt>
      <trkpt lat="49.11667" lon="-0.0038">
        <ele>16.4</ele>
        <time>2024-03-20T14:05:17Z</time>
      </trkpt>
      <trkpt lat="49.11659" lon="-0.0038">
        <ele>16.4</ele>
        <time>2024-03-20T14:05:18Z</time>
      </trkpt>
      <trkpt lat="49.11651" lon="-0.00379">
        <ele>16.6</ele>
        <time>2024-03-20T14:05:19Z</time>
      </trkpt>
      <trkpt lat="49.11642" lon="-0.00378">
        <ele>16.6</ele>
        <time>2024-03-20T14:05:20Z</time>
      </trkpt>
      <trkpt lat="49.11635" lon="-0.00376">
        <ele>16.6</ele>
        <time>2024-03-20T14:05:21Z</time>
      </trkpt>
      <trkpt lat="49.11627" lon="-0.00375">
        <ele>16.6</ele>
        <time>2024-03-20T14:05:22Z</time>
      </trkpt>
      <trkpt lat="49.11619" lon="-0.00374">
        <ele>16.6</ele>
        <time>2024-03-20T14:05:23Z</time>
      </trkpt>
      <trkpt lat="49.1161" lon="-0.00373">
        <ele>16.8</ele>
        <time>2024-03-20T14:05:24Z</time>
      </trkpt>
      <trkpt lat="49.11603" lon="-0.00372">
        <ele>16.8</ele>
        <time>2024-03-20T14:05:25Z</time>
      </trkpt>
      <trkpt lat="49.11595" lon="-0.00372">
        <ele>16.8</ele>
        <time>2024-03-20T14:05:26Z</time>
      </trkpt>
      <trkpt lat="49.11587" lon="-0.00372">
        <ele>16.8</ele>
        <time>2024-03-20T14:05:27Z</time>
      </trkpt>
      <trkpt lat="49.1158" lon="-0.00373">
        <ele>16.8</ele>
        <time>2024-03-20T14:05:28Z</time>
      </trkpt>
      <trkpt lat="49.11572" lon="-0.00374">
        <ele>16.8</ele>
        <time>2024-03-20T14:05:29Z</time>
      </trkpt>
      <trkpt lat="49.11564" lon="-0.00375">
        <ele>17</ele>
        <time>2024-03-20T14:05:30Z</time>
      </trkpt>
      <trkpt lat="49.11556" lon="-0.00376">
        <ele>17</ele>
        <time>2024-03-20T14:05:31Z</time>
      </trkpt>
      <trkpt lat="49.11549" lon="-0.00376">
        <ele>17</ele>
        <time>2024-03-20T14:05:32Z</time>
      </trkpt>
      <trkpt lat="49.11541" lon="-0.00376">
        <ele>17</ele>
        <time>2024-03-20T14:05:33Z</time>
      </trkpt>
      <trkpt lat="49.11533" lon="-0.00376">
        <ele>17</ele>
        <time>2024-03-20T14:05:34Z</time>
      </trkpt>
      <trkpt lat="49.11526" lon="-0.00376">
        <ele>17</ele>
        <time>2024-03-20T14:05:35Z</time>
      </trkpt>
      <trkpt lat="49.11518" lon="-0.00377">
        <ele>17</ele>
        <time>2024-03-20T14:05:36Z</time>
      </trkpt>
      <trkpt lat="49.1151" lon="-0.00376">
        <ele>17</ele>
        <time>2024-03-20T14:05:37Z</time>
      </trkpt>
      <trkpt lat="49.11503" lon="-0.00377">
        <ele>17</ele>
        <time>2024-03-20T14:05:38Z</time>
      </trkpt>
      <trkpt lat="49.11495" lon="-0.00377">
        <ele>17</ele>
        <time>2024-03-20T14:05:39Z</time>
      </trkpt>
      <trkpt lat="49.11487" lon="-0.00377">
        <ele>17</ele>
        <time>2024-03-20T14:05:40Z</time>
      </trkpt>
      <trkpt lat="49.11479" lon="-0.00377">
        <ele>17</ele>
        <time>2024-03-20T14:05:41Z</time>
      </trkpt>
      <trkpt lat="49.11471" lon="-0.00377">
        <ele>17.2</ele>
        <time>2024-03-20T14:05:42Z</time>
      </trkpt>
      <trkpt lat="49.11464" lon="-0.00378">
        <ele>17.2</ele>
        <time>2024-03-20T14:05:43Z</time>
      </trkpt>
      <trkpt lat="49.11456" lon="-0.00378">
        <ele>17.2</ele>
        <time>2024-03-20T14:05:44Z</time>
      </trkpt>
      <trkpt lat="49.11448" lon="-0.00377">
        <ele>17.4</ele>
        <time>2024-03-20T14:05:45Z</time>
      </trkpt>
      <trkpt lat="49.1144" lon="-0.00377">
        <ele>17.4</ele>
        <time>2024-03-20T14:05:46Z</time>
      </trkpt>
      <trkpt lat="49.11431" lon="-0.00377">
        <ele>17.4</ele>
        <time>2024-03-20T14:05:47Z</time>
      </trkpt>
      <trkpt lat="49.11423" lon="-0.00377">
        <ele>17.4</ele>
        <time>2024-03-20T14:05:48Z</time>
      </trkpt>
      <trkpt lat="49.11415" lon="-0.00378">
        <ele>17.4</ele>
        <time>2024-03-20T14:05:49Z</time>
      </trkpt>
      <trkpt lat="49.11407" lon="-0.00378">
        <ele>17.6</ele>
        <time>2024-03-20T14:05:50Z</time>
      </trkpt>
      <trkpt lat="49.11399" lon="-0.00378">
        <ele>17.6</ele>
        <time>2024-03-20T14:05:51Z</time>
      </trkpt>
      <trkpt lat="49.11391" lon="-0.00378">
        <ele>17.8</ele>
        <time>2024-03-20T14:05:52Z</time>
      </trkpt>
      <trkpt lat="49.11384" lon="-0.00378">
        <ele>17.8</ele>
        <time>2024-03-20T14:05:53Z</time>
      </trkpt>
      <trkpt lat="49.11376" lon="-0.00377">
        <ele>18</ele>
        <time>2024-03-20T14:05:54Z</time>
      </trkpt>
      <trkpt lat="49.11368" lon="-0.00378">
        <ele>18</ele>
        <time>2024-03-20T14:05:55Z</time>
      </trkpt>
      <trkpt lat="49.11361" lon="-0.00378">
        <ele>18</ele>
        <time>2024-03-20T14:05:56Z</time>
      </trkpt>
      <trkpt lat="49.11353" lon="-0.00378">
        <ele>18</ele>
        <time>2024-03-20T14:05:57Z</time>
      </trkpt>
      <trkpt lat="49.11345" lon="-0.00378">
        <ele>18</ele>
        <time>2024-03-20T14:05:58Z</time>
      </trkpt>
      <trkpt lat="49.11337" lon="-0.00378">
        <ele>18.2</ele>
        <time>2024-03-20T14:05:59Z</time>
      </trkpt>
      <trkpt lat="49.11329" lon="-0.00378">
        <ele>18.2</ele>
        <time>2024-03-20T14:06:00Z</time>
      </trkpt>
      <trkpt lat="49.11321" lon="-0.00378">
        <ele>18.2</ele>
        <time>2024-03-20T14:06:01Z</time>
      </trkpt>
      <trkpt lat="49.11314" lon="-0.00378">
        <ele>18.2</ele>
        <time>2024-03-20T14:06:02Z</time>
      </trkpt>
      <trkpt lat="49.11306" lon="-0.00378">
        <ele>18.2</ele>
        <time>2024-03-20T14:06:03Z</time>
      </trkpt>
      <trkpt lat="49.11298" lon="-0.00377">
        <ele>18</ele>
        <time>2024-03-20T14:06:04Z</time>
      </trkpt>
      <trkpt lat="49.1129" lon="-0.00377">
        <ele>18.2</ele>
        <time>2024-03-20T14:06:05Z</time>
      </trkpt>
      <trkpt lat="49.11282" lon="-0.00377">
        <ele>18.2</ele>
        <time>2024-03-20T14:06:06Z</time>
      </trkpt>
      <trkpt lat="49.11274" lon="-0.00377">
        <ele>18.2</ele>
        <time>2024-03-20T14:06:07Z</time>
      </trkpt>
      <trkpt lat="49.11266" lon="-0.00377">
        <ele>18.2</ele>
        <time>2024-03-20T14:06:08Z</time>
      </trkpt>
      <trkpt lat="49.11258" lon="-0.00376">
        <ele>18</ele>
        <time>2024-03-20T14:06:09Z</time>
      </trkpt>
      <trkpt lat="49.1125" lon="-0.00375">
        <ele>18.2</ele>
        <time>2024-03-20T14:06:10Z</time>
      </trkpt>
      <trkpt lat="49.11242" lon="-0.00373">
        <ele>18.2</ele>
        <time>2024-03-20T14:06:11Z</time>
      </trkpt>
      <trkpt lat="49.11235" lon="-0.00371">
        <ele>18.2</ele>
        <time>2024-03-20T14:06:12Z</time>
      </trkpt>
      <trkpt lat="49.11227" lon="-0.00369">
        <ele>18.2</ele>
        <time>2024-03-20T14:06:13Z</time>
      </trkpt>
      <trkpt lat="49.11219" lon="-0.00366">
        <ele>18.2</ele>
        <time>2024-03-20T14:06:14Z</time>
      </trkpt>
      <trkpt lat="49.11211" lon="-0.00364">
        <ele>18.2</ele>
        <time>2024-03-20T14:06:15Z</time>
      </trkpt>
      <trkpt lat="49.11204" lon="-0.00362">
        <ele>18.2</ele>
        <time>2024-03-20T14:06:16Z</time>
      </trkpt>
      <trkpt lat="49.11196" lon="-0.00359">
        <ele>18.2</ele>
        <time>2024-03-20T14:06:17Z</time>
      </trkpt>
      <trkpt lat="49.11188" lon="-0.00357">
        <ele>18.2</ele>
        <time>2024-03-20T14:06:18Z</time>
      </trkpt>
      <trkpt lat="49.1118" lon="-0.00355">
        <ele>18.4</ele>
        <time>2024-03-20T14:06:19Z</time>
      </trkpt>
      <trkpt lat="49.11172" lon="-0.00354">
        <ele>18.4</ele>
        <time>2024-03-20T14:06:20Z</time>
      </trkpt>
      <trkpt lat="49.11164" lon="-0.00353">
        <ele>18.6</ele>
        <time>2024-03-20T14:06:21Z</time>
      </trkpt>
      <trkpt lat="49.11156" lon="-0.00352">
        <ele>18.6</ele>
        <time>2024-03-20T14:06:22Z</time>
      </trkpt>
      <trkpt lat="49.11148" lon="-0.00352">
        <ele>18.6</ele>
        <time>2024-03-20T14:06:23Z</time>
      </trkpt>
      <trkpt lat="49.1114" lon="-0.00352">
        <ele>18.6</ele>
        <time>2024-03-20T14:06:24Z</time>
      </trkpt>
      <trkpt lat="49.11132" lon="-0.00353">
        <ele>18.6</ele>
        <time>2024-03-20T14:06:25Z</time>
      </trkpt>
      <trkpt lat="49.11125" lon="-0.00354">
        <ele>18.6</ele>
        <time>2024-03-20T14:06:26Z</time>
      </trkpt>
      <trkpt lat="49.11117" lon="-0.00354">
        <ele>18.6</ele>
        <time>2024-03-20T14:06:27Z</time>
      </trkpt>
      <trkpt lat="49.11111" lon="-0.00355">
        <ele>18.4</ele>
        <time>2024-03-20T14:06:28Z</time>
      </trkpt>
      <trkpt lat="49.11104" lon="-0.00356">
        <ele>18.6</ele>
        <time>2024-03-20T14:06:29Z</time>
      </trkpt>
      <trkpt lat="49.11098" lon="-0.00356">
        <ele>18.6</ele>
        <time>2024-03-20T14:06:30Z</time>
      </trkpt>
      <trkpt lat="49.11093" lon="-0.00357">
        <ele>18.6</ele>
        <time>2024-03-20T14:06:31Z</time>
      </trkpt>
      <trkpt lat="49.11089" lon="-0.00358">
        <ele>18.6</ele>
        <time>2024-03-20T14:06:32Z</time>
      </trkpt>
      <trkpt lat="49.11086" lon="-0.00359">
        <ele>18.6</ele>
        <time>2024-03-20T14:06:33Z</time>
      </trkpt>
      <trkpt lat="49.11084" lon="-0.00359">
        <ele>18.6</ele>
        <time>2024-03-20T14:06:34Z</time>
      </trkpt>
      <trkpt lat="49.11084" lon="-0.00359">
        <ele>18.6</ele>
        <time>2024-03-20T14:06:35Z</time>
      </trkpt>
      <trkpt lat="49.11084" lon="-0.00359">
        <ele>18.6</ele>
        <time>2024-03-20T14:06:36Z</time>
      </trkpt>
      <trkpt lat="49.11082" lon="-0.00354">
        <ele>21.6</ele>
        <time>2024-03-20T14:06:47Z</time>
      </trkpt>
      <trkpt lat="49.11082" lon="-0.00351">
        <ele>21.6</ele>
        <time>2024-03-20T14:06:48Z</time>
      </trkpt>
      <trkpt lat="49.11082" lon="-0.00349">
        <ele>21.6</ele>
        <time>2024-03-20T14:06:49Z</time>
      </trkpt>
      <trkpt lat="49.11082" lon="-0.00345">
        <ele>21.6</ele>
        <time>2024-03-20T14:06:50Z</time>
      </trkpt>
      <trkpt lat="49.11082" lon="-0.00342">
        <ele>21.6</ele>
        <time>2024-03-20T14:06:51Z</time>
      </trkpt>
      <trkpt lat="49.11082" lon="-0.00338">
        <ele>21.6</ele>
        <time>2024-03-20T14:06:52Z</time>
      </trkpt>
      <trkpt lat="49.11081" lon="-0.00334">
        <ele>21.6</ele>
        <time>2024-03-20T14:06:53Z</time>
      </trkpt>
      <trkpt lat="49.11082" lon="-0.00329">
        <ele>21.6</ele>
        <time>2024-03-20T14:06:54Z</time>
      </trkpt>
      <trkpt lat="49.11082" lon="-0.00324">
        <ele>21.6</ele>
        <time>2024-03-20T14:06:55Z</time>
      </trkpt>
      <trkpt lat="49.11083" lon="-0.00318">
        <ele>21.6</ele>
        <time>2024-03-20T14:06:56Z</time>
      </trkpt>
      <trkpt lat="49.11084" lon="-0.00313">
        <ele>21.4</ele>
        <time>2024-03-20T14:06:57Z</time>
      </trkpt>
      <trkpt lat="49.11084" lon="-0.00306">
        <ele>21.4</ele>
        <time>2024-03-20T14:06:58Z</time>
      </trkpt>
      <trkpt lat="49.11084" lon="-0.003">
        <ele>21.4</ele>
        <time>2024-03-20T14:06:59Z</time>
      </trkpt>
      <trkpt lat="49.11083" lon="-0.00293">
        <ele>21.4</ele>
        <time>2024-03-20T14:07:00Z</time>
      </trkpt>
      <trkpt lat="49.11084" lon="-0.00285">
        <ele>21.2</ele>
        <time>2024-03-20T14:07:01Z</time>
      </trkpt>
      <trkpt lat="49.11084" lon="-0.00277">
        <ele>21.2</ele>
        <time>2024-03-20T14:07:02Z</time>
      </trkpt>
      <trkpt lat="49.11084" lon="-0.00269">
        <ele>21.2</ele>
        <time>2024-03-20T14:07:03Z</time>
      </trkpt>
      <trkpt lat="49.11085" lon="-0.00261">
        <ele>21.2</ele>
        <time>2024-03-20T14:07:04Z</time>
      </trkpt>
      <trkpt lat="49.11085" lon="-0.00253">
        <ele>21.2</ele>
        <time>2024-03-20T14:07:05Z</time>
      </trkpt>
      <trkpt lat="49.11086" lon="-0.00243">
        <ele>21</ele>
        <time>2024-03-20T14:07:06Z</time>
      </trkpt>
      <trkpt lat="49.11086" lon="-0.00234">
        <ele>21</ele>
        <time>2024-03-20T14:07:07Z</time>
      </trkpt>
      <trkpt lat="49.11086" lon="-0.00224">
        <ele>21</ele>
        <time>2024-03-20T14:07:08Z</time>
      </trkpt>
      <trkpt lat="49.11087" lon="-0.00213">
        <ele>21</ele>
        <time>2024-03-20T14:07:09Z</time>
      </trkpt>
      <trkpt lat="49.11087" lon="-0.00203">
        <ele>20.8</ele>
        <time>2024-03-20T14:07:10Z</time>
      </trkpt>
      <trkpt lat="49.11087" lon="-0.00192">
        <ele>20.8</ele>
        <time>2024-03-20T14:07:11Z</time>
      </trkpt>
      <trkpt lat="49.11088" lon="-0.00182">
        <ele>20.6</ele>
        <time>2024-03-20T14:07:12Z</time>
      </trkpt>
      <trkpt lat="49.11088" lon="-0.00171">
        <ele>20.6</ele>
        <time>2024-03-20T14:07:13Z</time>
      </trkpt>
      <trkpt lat="49.11089" lon="-0.00159">
        <ele>20.6</ele>
        <time>2024-03-20T14:07:14Z</time>
      </trkpt>
      <trkpt lat="49.11089" lon="-0.00148">
        <ele>20.4</ele>
        <time>2024-03-20T14:07:15Z</time>
      </trkpt>
      <trkpt lat="49.11089" lon="-0.00136">
        <ele>20.6</ele>
        <time>2024-03-20T14:07:16Z</time>
      </trkpt>
      <trkpt lat="49.11089" lon="-0.00124">
        <ele>20.4</ele>
        <time>2024-03-20T14:07:17Z</time>
      </trkpt>
      <trkpt lat="49.11089" lon="-0.00112">
        <ele>20</ele>
        <time>2024-03-20T14:07:18Z</time>
      </trkpt>
      <trkpt lat="49.1109" lon="-0.00101">
        <ele>20</ele>
        <time>2024-03-20T14:07:19Z</time>
      </trkpt>
      <trkpt lat="49.1109" lon="-0.00088">
        <ele>20</ele>
        <time>2024-03-20T14:07:20Z</time>
      </trkpt>
      <trkpt lat="49.1109" lon="-0.00076">
        <ele>19.8</ele>
        <time>2024-03-20T14:07:21Z</time>
      </trkpt>
      <trkpt lat="49.11091" lon="-0.00064">
        <ele>19.8</ele>
        <time>2024-03-20T14:07:22Z</time>
      </trkpt>
      <trkpt lat="49.11091" lon="-0.00053">
        <ele>19.8</ele>
        <time>2024-03-20T14:07:23Z</time>
      </trkpt>
      <trkpt lat="49.11091" lon="-0.00041">
        <ele>19.6</ele>
        <time>2024-03-20T14:07:24Z</time>
      </trkpt>
      <trkpt lat="49.1109" lon="-0.00029">
        <ele>19.6</ele>
        <time>2024-03-20T14:07:25Z</time>
      </trkpt>
      <trkpt lat="49.1109" lon="-0.00017">
        <ele>19.4</ele>
        <time>2024-03-20T14:07:26Z</time>
      </trkpt>
      <trkpt lat="49.11089" lon="-5.0E-5">
        <ele>19.4</ele>
        <time>2024-03-20T14:07:27Z</time>
      </trkpt>
      <trkpt lat="49.11089" lon="7.0E-5">
        <ele>19.2</ele>
        <time>2024-03-20T14:07:28Z</time>
      </trkpt>
      <trkpt lat="49.11089" lon="0.00018">
        <ele>19</ele>
        <time>2024-03-20T14:07:29Z</time>
      </trkpt>
      <trkpt lat="49.11088" lon="0.0003">
        <ele>19</ele>
        <time>2024-03-20T14:07:30Z</time>
      </trkpt>
      <trkpt lat="49.11088" lon="0.00042">
        <ele>19</ele>
        <time>2024-03-20T14:07:31Z</time>
      </trkpt>
      <trkpt lat="49.11087" lon="0.00054">
        <ele>18.8</ele>
        <time>2024-03-20T14:07:32Z</time>
      </trkpt>
      <trkpt lat="49.11087" lon="0.00066">
        <ele>18.8</ele>
        <time>2024-03-20T14:07:33Z</time>
      </trkpt>
      <trkpt lat="49.11086" lon="0.00079">
        <ele>18.8</ele>
        <time>2024-03-20T14:07:34Z</time>
      </trkpt>
      <trkpt lat="49.11086" lon="0.00091">
        <ele>18.8</ele>
        <time>2024-03-20T14:07:35Z</time>
      </trkpt>
      <trkpt lat="49.11085" lon="0.00102">
        <ele>18.8</ele>
        <time>2024-03-20T14:07:36Z</time>
      </trkpt>
      <trkpt lat="49.11084" lon="0.00114">
        <ele>18.8</ele>
        <time>2024-03-20T14:07:37Z</time>
      </trkpt>
      <trkpt lat="49.11083" lon="0.00125">
        <ele>18.8</ele>
        <time>2024-03-20T14:07:38Z</time>
      </trkpt>
      <trkpt lat="49.11083" lon="0.00137">
        <ele>18.8</ele>
        <time>2024-03-20T14:07:39Z</time>
      </trkpt>
      <trkpt lat="49.11083" lon="0.00148">
        <ele>18.8</ele>
        <time>2024-03-20T14:07:40Z</time>
      </trkpt>
      <trkpt lat="49.11082" lon="0.00159">
        <ele>18.8</ele>
        <time>2024-03-20T14:07:41Z</time>
      </trkpt>
      <trkpt lat="49.11082" lon="0.00171">
        <ele>18.8</ele>
        <time>2024-03-20T14:07:42Z</time>
      </trkpt>
      <trkpt lat="49.11082" lon="0.00181">
        <ele>18.8</ele>
        <time>2024-03-20T14:07:43Z</time>
      </trkpt>
      <trkpt lat="49.11081" lon="0.00192">
        <ele>18.8</ele>
        <time>2024-03-20T14:07:44Z</time>
      </trkpt>
      <trkpt lat="49.11082" lon="0.00202">
        <ele>18.8</ele>
        <time>2024-03-20T14:07:45Z</time>
      </trkpt>
      <trkpt lat="49.11082" lon="0.00212">
        <ele>18.8</ele>
        <time>2024-03-20T14:07:46Z</time>
      </trkpt>
      <trkpt lat="49.11082" lon="0.00222">
        <ele>18.8</ele>
        <time>2024-03-20T14:07:47Z</time>
      </trkpt>
      <trkpt lat="49.11082" lon="0.0023">
        <ele>19</ele>
        <time>2024-03-20T14:07:48Z</time>
      </trkpt>
      <trkpt lat="49.11082" lon="0.00239">
        <ele>19</ele>
        <time>2024-03-20T14:07:49Z</time>
      </trkpt>
      <trkpt lat="49.11083" lon="0.00248">
        <ele>19</ele>
        <time>2024-03-20T14:07:50Z</time>
      </trkpt>
      <trkpt lat="49.11083" lon="0.00256">
        <ele>19</ele>
        <time>2024-03-20T14:07:51Z</time>
      </trkpt>
      <trkpt lat="49.11082" lon="0.00265">
        <ele>19.2</ele>
        <time>2024-03-20T14:07:52Z</time>
      </trkpt>
      <trkpt lat="49.11082" lon="0.00273">
        <ele>19.2</ele>
        <time>2024-03-20T14:07:53Z</time>
      </trkpt>
      <trkpt lat="49.11082" lon="0.00282">
        <ele>19.4</ele>
        <time>2024-03-20T14:07:54Z</time>
      </trkpt>
      <trkpt lat="49.11082" lon="0.00291">
        <ele>19.4</ele>
        <time>2024-03-20T14:07:55Z</time>
      </trkpt>
      <trkpt lat="49.11082" lon="0.003">
        <ele>19.6</ele>
        <time>2024-03-20T14:07:56Z</time>
      </trkpt>
      <trkpt lat="49.11083" lon="0.00309">
        <ele>19.6</ele>
        <time>2024-03-20T14:07:57Z</time>
      </trkpt>
      <trkpt lat="49.11083" lon="0.00317">
        <ele>19.8</ele>
        <time>2024-03-20T14:07:58Z</time>
      </trkpt>
      <trkpt lat="49.11083" lon="0.00325">
        <ele>20</ele>
        <time>2024-03-20T14:07:59Z</time>
      </trkpt>
      <trkpt lat="49.11083" lon="0.00332">
        <ele>20.2</ele>
        <time>2024-03-20T14:08:00Z</time>
      </trkpt>
      <trkpt lat="49.11083" lon="0.00339">
        <ele>20.4</ele>
        <time>2024-03-20T14:08:01Z</time>
      </trkpt>
      <trkpt lat="49.11082" lon="0.00347">
        <ele>20.6</ele>
        <time>2024-03-20T14:08:02Z</time>
      </trkpt>
      <trkpt lat="49.1108" lon="0.00354">
        <ele>20.6</ele>
        <time>2024-03-20T14:08:03Z</time>
      </trkpt>
      <trkpt lat="49.11077" lon="0.0036">
        <ele>20.6</ele>
        <time>2024-03-20T14:08:04Z</time>
      </trkpt>
      <trkpt lat="49.11074" lon="0.00365">
        <ele>21.2</ele>
        <time>2024-03-20T14:08:05Z</time>
      </trkpt>
      <trkpt lat="49.1107" lon="0.00371">
        <ele>21.4</ele>
        <time>2024-03-20T14:08:06Z</time>
      </trkpt>
      <trkpt lat="49.11066" lon="0.00378">
        <ele>21.6</ele>
        <time>2024-03-20T14:08:07Z</time>
      </trkpt>
      <trkpt lat="49.11062" lon="0.00385">
        <ele>21.6</ele>
        <time>2024-03-20T14:08:08Z</time>
      </trkpt>
      <trkpt lat="49.11058" lon="0.00392">
        <ele>21.8</ele>
        <time>2024-03-20T14:08:09Z</time>
      </trkpt>
      <trkpt lat="49.11054" lon="0.00398">
        <ele>22</ele>
        <time>2024-03-20T14:08:10Z</time>
      </trkpt>
      <trkpt lat="49.1105" lon="0.00405">
        <ele>22</ele>
        <time>2024-03-20T14:08:11Z</time>
      </trkpt>
      <trkpt lat="49.11047" lon="0.00412">
        <ele>22</ele>
        <time>2024-03-20T14:08:12Z</time>
      </trkpt>
      <trkpt lat="49.11042" lon="0.00419">
        <ele>22</ele>
        <time>2024-03-20T14:08:13Z</time>
      </trkpt>
      <trkpt lat="49.11038" lon="0.00426">
        <ele>22.2</ele>
        <time>2024-03-20T14:08:14Z</time>
      </trkpt>
      <trkpt lat="49.11035" lon="0.00433">
        <ele>22.2</ele>
        <time>2024-03-20T14:08:15Z</time>
      </trkpt>
      <trkpt lat="49.1103" lon="0.0044">
        <ele>22.2</ele>
        <time>2024-03-20T14:08:16Z</time>
      </trkpt>
      <trkpt lat="49.11026" lon="0.00447">
        <ele>22.4</ele>
        <time>2024-03-20T14:08:17Z</time>
      </trkpt>
      <trkpt lat="49.11022" lon="0.00453">
        <ele>22.4</ele>
        <time>2024-03-20T14:08:18Z</time>
      </trkpt>
      <trkpt lat="49.11018" lon="0.0046">
        <ele>22.4</ele>
        <time>2024-03-20T14:08:19Z</time>
      </trkpt>
      <trkpt lat="49.11014" lon="0.00468">
        <ele>22.6</ele>
        <time>2024-03-20T14:08:20Z</time>
      </trkpt>
      <trkpt lat="49.1101" lon="0.00475">
        <ele>23</ele>
        <time>2024-03-20T14:08:21Z</time>
      </trkpt>
      <trkpt lat="49.11006" lon="0.00482">
        <ele>23</ele>
        <time>2024-03-20T14:08:22Z</time>
      </trkpt>
      <trkpt lat="49.11002" lon="0.00489">
        <ele>23.2</ele>
        <time>2024-03-20T14:08:23Z</time>
      </trkpt>
      <trkpt lat="49.10998" lon="0.00496">
        <ele>23.2</ele>
        <time>2024-03-20T14:08:24Z</time>
      </trkpt>
      <trkpt lat="49.10994" lon="0.00503">
        <ele>23.2</ele>
        <time>2024-03-20T14:08:25Z</time>
      </trkpt>
      <trkpt lat="49.1099" lon="0.0051">
        <ele>23.2</ele>
        <time>2024-03-20T14:08:26Z</time>
      </trkpt>
      <trkpt lat="49.10986" lon="0.00518">
        <ele>23.4</ele>
        <time>2024-03-20T14:08:27Z</time>
      </trkpt>
      <trkpt lat="49.10983" lon="0.00526">
        <ele>23.6</ele>
        <time>2024-03-20T14:08:28Z</time>
      </trkpt>
      <trkpt lat="49.10979" lon="0.00533">
        <ele>23.8</ele>
        <time>2024-03-20T14:08:29Z</time>
      </trkpt>
      <trkpt lat="49.10976" lon="0.0054">
        <ele>24</ele>
        <time>2024-03-20T14:08:30Z</time>
      </trkpt>
      <trkpt lat="49.10972" lon="0.00547">
        <ele>24.2</ele>
        <time>2024-03-20T14:08:31Z</time>
      </trkpt>
      <trkpt lat="49.10969" lon="0.00555">
        <ele>24.2</ele>
        <time>2024-03-20T14:08:32Z</time>
      </trkpt>
      <trkpt lat="49.10966" lon="0.00562">
        <ele>24.4</ele>
        <time>2024-03-20T14:08:33Z</time>
      </trkpt>
      <trkpt lat="49.10962" lon="0.00569">
        <ele>24.6</ele>
        <time>2024-03-20T14:08:34Z</time>
      </trkpt>
      <trkpt lat="49.10959" lon="0.00577">
        <ele>24.6</ele>
        <time>2024-03-20T14:08:35Z</time>
      </trkpt>
      <trkpt lat="49.10956" lon="0.00584">
        <ele>24.6</ele>
        <time>2024-03-20T14:08:36Z</time>
      </trkpt>
      <trkpt lat="49.10953" lon="0.00591">
        <ele>24.8</ele>
        <time>2024-03-20T14:08:37Z</time>
      </trkpt>
      <trkpt lat="49.1095" lon="0.00598">
        <ele>24.8</ele>
        <time>2024-03-20T14:08:38Z</time>
      </trkpt>
      <trkpt lat="49.10947" lon="0.00606">
        <ele>25</ele>
        <time>2024-03-20T14:08:39Z</time>
      </trkpt>
      <trkpt lat="49.10944" lon="0.00613">
        <ele>25.2</ele>
        <time>2024-03-20T14:08:40Z</time>
      </trkpt>
      <trkpt lat="49.10941" lon="0.0062">
        <ele>25.2</ele>
        <time>2024-03-20T14:08:41Z</time>
      </trkpt>
      <trkpt lat="49.10938" lon="0.00627">
        <ele>25.4</ele>
        <time>2024-03-20T14:08:42Z</time>
      </trkpt>
      <trkpt lat="49.10936" lon="0.00634">
        <ele>25.6</ele>
        <time>2024-03-20T14:08:43Z</time>
      </trkpt>
      <trkpt lat="49.10933" lon="0.0064">
        <ele>25.8</ele>
        <time>2024-03-20T14:08:44Z</time>
      </trkpt>
      <trkpt lat="49.10931" lon="0.00647">
        <ele>26</ele>
        <time>2024-03-20T14:08:45Z</time>
      </trkpt>
      <trkpt lat="49.10929" lon="0.00653">
        <ele>26.2</ele>
        <time>2024-03-20T14:08:46Z</time>
      </trkpt>
      <trkpt lat="49.10927" lon="0.00658">
        <ele>26.2</ele>
        <time>2024-03-20T14:08:47Z</time>
      </trkpt>
      <trkpt lat="49.10924" lon="0.00664">
        <ele>26.4</ele>
        <time>2024-03-20T14:08:48Z</time>
      </trkpt>
      <trkpt lat="49.10922" lon="0.00668">
        <ele>26.4</ele>
        <time>2024-03-20T14:08:49Z</time>
      </trkpt>
      <trkpt lat="49.1092" lon="0.00673">
        <ele>26.6</ele>
        <time>2024-03-20T14:08:50Z</time>
      </trkpt>
      <trkpt lat="49.10919" lon="0.00676">
        <ele>26.8</ele>
        <time>2024-03-20T14:08:51Z</time>
      </trkpt>
      <trkpt lat="49.10917" lon="0.0068">
        <ele>27</ele>
        <time>2024-03-20T14:08:52Z</time>
      </trkpt>
      <trkpt lat="49.10916" lon="0.00682">
        <ele>27.2</ele>
        <time>2024-03-20T14:08:53Z</time>
      </trkpt>
      <trkpt lat="49.10915" lon="0.00683">
        <ele>27.4</ele>
        <time>2024-03-20T14:08:54Z</time>
      </trkpt>
      <trkpt lat="49.10914" lon="0.00684">
        <ele>27.8</ele>
        <time>2024-03-20T14:08:55Z</time>
      </trkpt>
      <trkpt lat="49.10914" lon="0.00684">
        <ele>28.2</ele>
        <time>2024-03-20T14:08:56Z</time>
      </trkpt>
      <trkpt lat="49.10917" lon="0.00678">
        <ele>30.4</ele>
        <time>2024-03-20T14:11:32Z</time>
      </trkpt>
      <trkpt lat="49.10919" lon="0.00675">
        <ele>30.4</ele>
        <time>2024-03-20T14:11:33Z</time>
      </trkpt>
      <trkpt lat="49.10922" lon="0.00671">
        <ele>30.4</ele>
        <time>2024-03-20T14:11:34Z</time>
      </trkpt>
      <trkpt lat="49.10925" lon="0.00666">
        <ele>30.4</ele>
        <time>2024-03-20T14:11:35Z</time>
      </trkpt>
      <trkpt lat="49.10927" lon="0.0066">
        <ele>30.4</ele>
        <time>2024-03-20T14:11:36Z</time>
      </trkpt>
      <trkpt lat="49.1093" lon="0.00654">
        <ele>30.4</ele>
        <time>2024-03-20T14:11:37Z</time>
      </trkpt>
      <trkpt lat="49.10933" lon="0.00647">
        <ele>30.4</ele>
        <time>2024-03-20T14:11:38Z</time>
      </trkpt>
      <trkpt lat="49.10936" lon="0.00639">
        <ele>30.4</ele>
        <time>2024-03-20T14:11:39Z</time>
      </trkpt>
      <trkpt lat="49.10939" lon="0.00632">
        <ele>30.2</ele>
        <time>2024-03-20T14:11:40Z</time>
      </trkpt>
      <trkpt lat="49.10941" lon="0.00624">
        <ele>30.2</ele>
        <time>2024-03-20T14:11:41Z</time>
      </trkpt>
      <trkpt lat="49.10944" lon="0.00616">
        <ele>29.8</ele>
        <time>2024-03-20T14:11:42Z</time>
      </trkpt>
      <trkpt lat="49.10947" lon="0.00608">
        <ele>29.6</ele>
        <time>2024-03-20T14:11:43Z</time>
      </trkpt>
      <trkpt lat="49.1095" lon="0.006">
        <ele>29.2</ele>
        <time>2024-03-20T14:11:44Z</time>
      </trkpt>
      <trkpt lat="49.10954" lon="0.00592">
        <ele>28.8</ele>
        <time>2024-03-20T14:11:45Z</time>
      </trkpt>
      <trkpt lat="49.10957" lon="0.00584">
        <ele>28.4</ele>
        <time>2024-03-20T14:11:46Z</time>
      </trkpt>
      <trkpt lat="49.10961" lon="0.00576">
        <ele>28.2</ele>
        <time>2024-03-20T14:11:47Z</time>
      </trkpt>
      <trkpt lat="49.10964" lon="0.00568">
        <ele>27.8</ele>
        <time>2024-03-20T14:11:48Z</time>
      </trkpt>
      <trkpt lat="49.10968" lon="0.0056">
        <ele>27.6</ele>
        <time>2024-03-20T14:11:49Z</time>
      </trkpt>
      <trkpt lat="49.10972" lon="0.00551">
        <ele>27.6</ele>
        <time>2024-03-20T14:11:50Z</time>
      </trkpt>
      <trkpt lat="49.10975" lon="0.00543">
        <ele>27.4</ele>
        <time>2024-03-20T14:11:51Z</time>
      </trkpt>
      <trkpt lat="49.1098" lon="0.00534">
        <ele>27.2</ele>
        <time>2024-03-20T14:11:52Z</time>
      </trkpt>
      <trkpt lat="49.10984" lon="0.00524">
        <ele>27</ele>
        <time>2024-03-20T14:11:53Z</time>
      </trkpt>
      <trkpt lat="49.10989" lon="0.00515">
        <ele>26.8</ele>
        <time>2024-03-20T14:11:54Z</time>
      </trkpt>
      <trkpt lat="49.10993" lon="0.00506">
        <ele>26.6</ele>
        <time>2024-03-20T14:11:55Z</time>
      </trkpt>
      <trkpt lat="49.10998" lon="0.00497">
        <ele>26.4</ele>
        <time>2024-03-20T14:11:56Z</time>
      </trkpt>
      <trkpt lat="49.11002" lon="0.00488">
        <ele>26</ele>
        <time>2024-03-20T14:11:57Z</time>
      </trkpt>
      <trkpt lat="49.11007" lon="0.0048">
        <ele>25.8</ele>
        <time>2024-03-20T14:11:58Z</time>
      </trkpt>
      <trkpt lat="49.11012" lon="0.00471">
        <ele>25.6</ele>
        <time>2024-03-20T14:11:59Z</time>
      </trkpt>
      <trkpt lat="49.11017" lon="0.00461">
        <ele>25.6</ele>
        <time>2024-03-20T14:12:00Z</time>
      </trkpt>
      <trkpt lat="49.11023" lon="0.00453">
        <ele>25.2</ele>
        <time>2024-03-20T14:12:01Z</time>
      </trkpt>
      <trkpt lat="49.11028" lon="0.00444">
        <ele>24.8</ele>
        <time>2024-03-20T14:12:02Z</time>
      </trkpt>
      <trkpt lat="49.11033" lon="0.00434">
        <ele>24.2</ele>
        <time>2024-03-20T14:12:03Z</time>
      </trkpt>
      <trkpt lat="49.11038" lon="0.00426">
        <ele>23.8</ele>
        <time>2024-03-20T14:12:04Z</time>
      </trkpt>
      <trkpt lat="49.11043" lon="0.00417">
        <ele>23.6</ele>
        <time>2024-03-20T14:12:05Z</time>
      </trkpt>
      <trkpt lat="49.11049" lon="0.00408">
        <ele>23.4</ele>
        <time>2024-03-20T14:12:06Z</time>
      </trkpt>
      <trkpt lat="49.11054" lon="0.004">
        <ele>23.2</ele>
        <time>2024-03-20T14:12:07Z</time>
      </trkpt>
      <trkpt lat="49.11059" lon="0.00392">
        <ele>23</ele>
        <time>2024-03-20T14:12:08Z</time>
      </trkpt>
      <trkpt lat="49.11064" lon="0.00383">
        <ele>23</ele>
        <time>2024-03-20T14:12:09Z</time>
      </trkpt>
      <trkpt lat="49.11069" lon="0.00375">
        <ele>22.8</ele>
        <time>2024-03-20T14:12:10Z</time>
      </trkpt>
      <trkpt lat="49.11073" lon="0.00367">
        <ele>22.8</ele>
        <time>2024-03-20T14:12:11Z</time>
      </trkpt>
      <trkpt lat="49.11077" lon="0.00361">
        <ele>22.6</ele>
        <time>2024-03-20T14:12:12Z</time>
      </trkpt>
      <trkpt lat="49.1108" lon="0.00356">
        <ele>22.4</ele>
        <time>2024-03-20T14:12:13Z</time>
      </trkpt>
      <trkpt lat="49.11083" lon="0.00351">
        <ele>22.4</ele>
        <time>2024-03-20T14:12:14Z</time>
      </trkpt>
      <trkpt lat="49.11085" lon="0.00345">
        <ele>22.4</ele>
        <time>2024-03-20T14:12:15Z</time>
      </trkpt>
      <trkpt lat="49.11086" lon="0.00339">
        <ele>22.4</ele>
        <time>2024-03-20T14:12:16Z</time>
      </trkpt>
      <trkpt lat="49.11087" lon="0.00332">
        <ele>22.4</ele>
        <time>2024-03-20T14:12:17Z</time>
      </trkpt>
      <trkpt lat="49.11087" lon="0.00323">
        <ele>22.2</ele>
        <time>2024-03-20T14:12:18Z</time>
      </trkpt>
      <trkpt lat="49.11087" lon="0.00314">
        <ele>22.2</ele>
        <time>2024-03-20T14:12:19Z</time>
      </trkpt>
      <trkpt lat="49.11087" lon="0.00305">
        <ele>22</ele>
        <time>2024-03-20T14:12:20Z</time>
      </trkpt>
      <trkpt lat="49.11086" lon="0.00295">
        <ele>22</ele>
        <time>2024-03-20T14:12:21Z</time>
      </trkpt>
      <trkpt lat="49.11086" lon="0.00285">
        <ele>21.8</ele>
        <time>2024-03-20T14:12:22Z</time>
      </trkpt>
      <trkpt lat="49.11086" lon="0.00275">
        <ele>21.8</ele>
        <time>2024-03-20T14:12:23Z</time>
      </trkpt>
      <trkpt lat="49.11086" lon="0.00264">
        <ele>21.8</ele>
        <time>2024-03-20T14:12:24Z</time>
      </trkpt>
      <trkpt lat="49.11086" lon="0.00254">
        <ele>21.6</ele>
        <time>2024-03-20T14:12:25Z</time>
      </trkpt>
      <trkpt lat="49.11085" lon="0.00242">
        <ele>21.6</ele>
        <time>2024-03-20T14:12:26Z</time>
      </trkpt>
      <trkpt lat="49.11085" lon="0.00231">
        <ele>21.6</ele>
        <time>2024-03-20T14:12:27Z</time>
      </trkpt>
      <trkpt lat="49.11085" lon="0.00219">
        <ele>21.4</ele>
        <time>2024-03-20T14:12:28Z</time>
      </trkpt>
      <trkpt lat="49.11085" lon="0.00208">
        <ele>21.4</ele>
        <time>2024-03-20T14:12:29Z</time>
      </trkpt>
      <trkpt lat="49.11085" lon="0.00196">
        <ele>21.2</ele>
        <time>2024-03-20T14:12:30Z</time>
      </trkpt>
      <trkpt lat="49.11085" lon="0.00184">
        <ele>21</ele>
        <time>2024-03-20T14:12:31Z</time>
      </trkpt>
      <trkpt lat="49.11085" lon="0.00173">
        <ele>20.8</ele>
        <time>2024-03-20T14:12:32Z</time>
      </trkpt>
      <trkpt lat="49.11086" lon="0.00161">
        <ele>20.4</ele>
        <time>2024-03-20T14:12:33Z</time>
      </trkpt>
      <trkpt lat="49.11086" lon="0.00149">
        <ele>20</ele>
        <time>2024-03-20T14:12:34Z</time>
      </trkpt>
      <trkpt lat="49.11086" lon="0.00138">
        <ele>19.8</ele>
        <time>2024-03-20T14:12:35Z</time>
      </trkpt>
      <trkpt lat="49.11087" lon="0.00127">
        <ele>19.8</ele>
        <time>2024-03-20T14:12:36Z</time>
      </trkpt>
      <trkpt lat="49.11087" lon="0.00116">
        <ele>19.6</ele>
        <time>2024-03-20T14:12:37Z</time>
      </trkpt>
      <trkpt lat="49.11087" lon="0.00106">
        <ele>19.6</ele>
        <time>2024-03-20T14:12:38Z</time>
      </trkpt>
      <trkpt lat="49.11088" lon="0.00095">
        <ele>19.6</ele>
        <time>2024-03-20T14:12:39Z</time>
      </trkpt>
      <trkpt lat="49.11088" lon="0.00086">
        <ele>19.6</ele>
        <time>2024-03-20T14:12:40Z</time>
      </trkpt>
      <trkpt lat="49.11089" lon="0.00078">
        <ele>19.6</ele>
        <time>2024-03-20T14:12:41Z</time>
      </trkpt>
      <trkpt lat="49.11089" lon="0.00073">
        <ele>19.4</ele>
        <time>2024-03-20T14:12:42Z</time>
      </trkpt>
      <trkpt lat="49.11088" lon="0.00069">
        <ele>19.6</ele>
        <time>2024-03-20T14:12:43Z</time>
      </trkpt>
      <trkpt lat="49.11088" lon="0.00067">
        <ele>19.6</ele>
        <time>2024-03-20T14:12:44Z</time>
      </trkpt>
      <trkpt lat="49.11087" lon="0.00068">
        <ele>19.4</ele>
        <time>2024-03-20T14:12:45Z</time>
      </trkpt>
      <trkpt lat="49.11087" lon="0.00068">
        <ele>19.4</ele>
        <time>2024-03-20T14:12:46Z</time>
      </trkpt>
      <trkpt lat="49.11085" lon="0.00085">
        <ele>20.4</ele>
        <time>2024-03-20T14:17:03Z</time>
      </trkpt>
      <trkpt lat="49.11085" lon="0.00088">
        <ele>20.4</ele>
        <time>2024-03-20T14:17:04Z</time>
      </trkpt>
      <trkpt lat="49.11085" lon="0.00091">
        <ele>20.4</ele>
        <time>2024-03-20T14:17:05Z</time>
      </trkpt>
      <trkpt lat="49.11085" lon="0.00094">
        <ele>20.4</ele>
        <time>2024-03-20T14:17:06Z</time>
      </trkpt>
      <trkpt lat="49.11084" lon="0.00096">
        <ele>20.4</ele>
        <time>2024-03-20T14:17:07Z</time>
      </trkpt>
      <trkpt lat="49.11084" lon="0.00099">
        <ele>20.4</ele>
        <time>2024-03-20T14:17:08Z</time>
      </trkpt>
      <trkpt lat="49.11083" lon="0.00103">
        <ele>20.4</ele>
        <time>2024-03-20T14:17:09Z</time>
      </trkpt>
      <trkpt lat="49.11083" lon="0.00107">
        <ele>20.4</ele>
        <time>2024-03-20T14:17:10Z</time>
      </trkpt>
      <trkpt lat="49.11083" lon="0.00111">
        <ele>20.4</ele>
        <time>2024-03-20T14:17:11Z</time>
      </trkpt>
      <trkpt lat="49.11083" lon="0.00114">
        <ele>20.4</ele>
        <time>2024-03-20T14:17:12Z</time>
      </trkpt>
      <trkpt lat="49.11083" lon="0.00118">
        <ele>20.4</ele>
        <time>2024-03-20T14:17:13Z</time>
      </trkpt>
      <trkpt lat="49.11083" lon="0.00122">
        <ele>20.4</ele>
        <time>2024-03-20T14:17:14Z</time>
      </trkpt>
      <trkpt lat="49.11082" lon="0.00126">
        <ele>20.4</ele>
        <time>2024-03-20T14:17:15Z</time>
      </trkpt>
      <trkpt lat="49.11082" lon="0.00131">
        <ele>20.4</ele>
        <time>2024-03-20T14:17:16Z</time>
      </trkpt>
      <trkpt lat="49.11082" lon="0.00135">
        <ele>20.2</ele>
        <time>2024-03-20T14:17:17Z</time>
      </trkpt>
      <trkpt lat="49.11082" lon="0.0014">
        <ele>20.2</ele>
        <time>2024-03-20T14:17:18Z</time>
      </trkpt>
      <trkpt lat="49.11081" lon="0.00145">
        <ele>20.2</ele>
        <time>2024-03-20T14:17:19Z</time>
      </trkpt>
      <trkpt lat="49.11081" lon="0.0015">
        <ele>20.2</ele>
        <time>2024-03-20T14:17:20Z</time>
      </trkpt>
      <trkpt lat="49.11081" lon="0.00155">
        <ele>20.2</ele>
        <time>2024-03-20T14:17:21Z</time>
      </trkpt>
      <trkpt lat="49.11081" lon="0.0016">
        <ele>20.2</ele>
        <time>2024-03-20T14:17:22Z</time>
      </trkpt>
      <trkpt lat="49.11081" lon="0.00166">
        <ele>20.2</ele>
        <time>2024-03-20T14:17:23Z</time>
      </trkpt>
      <trkpt lat="49.11081" lon="0.00171">
        <ele>20.2</ele>
        <time>2024-03-20T14:17:24Z</time>
      </trkpt>
      <trkpt lat="49.11081" lon="0.00176">
        <ele>20.2</ele>
        <time>2024-03-20T14:17:25Z</time>
      </trkpt>
      <trkpt lat="49.11081" lon="0.00182">
        <ele>20.2</ele>
        <time>2024-03-20T14:17:26Z</time>
      </trkpt>
      <trkpt lat="49.11081" lon="0.00187">
        <ele>20.2</ele>
        <time>2024-03-20T14:17:27Z</time>
      </trkpt>
      <trkpt lat="49.11081" lon="0.00193">
        <ele>20.4</ele>
        <time>2024-03-20T14:17:28Z</time>
      </trkpt>
      <trkpt lat="49.11081" lon="0.00199">
        <ele>20.4</ele>
        <time>2024-03-20T14:17:29Z</time>
      </trkpt>
      <trkpt lat="49.11081" lon="0.00205">
        <ele>20.4</ele>
        <time>2024-03-20T14:17:30Z</time>
      </trkpt>
      <trkpt lat="49.1108" lon="0.00211">
        <ele>20.4</ele>
        <time>2024-03-20T14:17:31Z</time>
      </trkpt>
      <trkpt lat="49.11081" lon="0.00218">
        <ele>20.6</ele>
        <time>2024-03-20T14:17:32Z</time>
      </trkpt>
      <trkpt lat="49.11081" lon="0.00225">
        <ele>20.6</ele>
        <time>2024-03-20T14:17:33Z</time>
      </trkpt>
      <trkpt lat="49.11081" lon="0.00232">
        <ele>20.8</ele>
        <time>2024-03-20T14:17:34Z</time>
      </trkpt>
      <trkpt lat="49.11081" lon="0.0024">
        <ele>20.8</ele>
        <time>2024-03-20T14:17:35Z</time>
      </trkpt>
      <trkpt lat="49.11082" lon="0.00248">
        <ele>20.8</ele>
        <time>2024-03-20T14:17:36Z</time>
      </trkpt>
      <trkpt lat="49.11082" lon="0.00256">
        <ele>20.8</ele>
        <time>2024-03-20T14:17:37Z</time>
      </trkpt>
      <trkpt lat="49.11082" lon="0.00265">
        <ele>20.8</ele>
        <time>2024-03-20T14:17:38Z</time>
      </trkpt>
      <trkpt lat="49.11082" lon="0.00273">
        <ele>20.8</ele>
        <time>2024-03-20T14:17:39Z</time>
      </trkpt>
      <trkpt lat="49.11082" lon="0.00281">
        <ele>20.8</ele>
        <time>2024-03-20T14:17:40Z</time>
      </trkpt>
      <trkpt lat="49.11082" lon="0.00289">
        <ele>20.8</ele>
        <time>2024-03-20T14:17:41Z</time>
      </trkpt>
      <trkpt lat="49.11082" lon="0.00297">
        <ele>20.8</ele>
        <time>2024-03-20T14:17:42Z</time>
      </trkpt>
      <trkpt lat="49.11082" lon="0.00305">
        <ele>20.8</ele>
        <time>2024-03-20T14:17:43Z</time>
      </trkpt>
      <trkpt lat="49.11082" lon="0.00314">
        <ele>21</ele>
        <time>2024-03-20T14:17:44Z</time>
      </trkpt>
      <trkpt lat="49.11083" lon="0.00322">
        <ele>21</ele>
        <time>2024-03-20T14:17:45Z</time>
      </trkpt>
      <trkpt lat="49.11083" lon="0.0033">
        <ele>21</ele>
        <time>2024-03-20T14:17:46Z</time>
      </trkpt>
      <trkpt lat="49.11083" lon="0.00339">
        <ele>21</ele>
        <time>2024-03-20T14:17:47Z</time>
      </trkpt>
      <trkpt lat="49.11082" lon="0.00347">
        <ele>21</ele>
        <time>2024-03-20T14:17:48Z</time>
      </trkpt>
      <trkpt lat="49.11079" lon="0.00354">
        <ele>21</ele>
        <time>2024-03-20T14:17:49Z</time>
      </trkpt>
      <trkpt lat="49.11075" lon="0.0036">
        <ele>21</ele>
        <time>2024-03-20T14:17:50Z</time>
      </trkpt>
      <trkpt lat="49.11071" lon="0.00366">
        <ele>21.2</ele>
        <time>2024-03-20T14:17:51Z</time>
      </trkpt>
      <trkpt lat="49.11068" lon="0.00373">
        <ele>21.4</ele>
        <time>2024-03-20T14:17:52Z</time>
      </trkpt>
      <trkpt lat="49.11064" lon="0.0038">
        <ele>21.6</ele>
        <time>2024-03-20T14:17:53Z</time>
      </trkpt>
      <trkpt lat="49.1106" lon="0.00386">
        <ele>21.8</ele>
        <time>2024-03-20T14:17:54Z</time>
      </trkpt>
      <trkpt lat="49.11056" lon="0.00393">
        <ele>22</ele>
        <time>2024-03-20T14:17:55Z</time>
      </trkpt>
      <trkpt lat="49.11053" lon="0.00399">
        <ele>22</ele>
        <time>2024-03-20T14:17:56Z</time>
      </trkpt>
      <trkpt lat="49.1105" lon="0.00405">
        <ele>22.2</ele>
        <time>2024-03-20T14:17:57Z</time>
      </trkpt>
      <trkpt lat="49.11046" lon="0.0041">
        <ele>22.2</ele>
        <time>2024-03-20T14:17:58Z</time>
      </trkpt>
      <trkpt lat="49.11043" lon="0.00416">
        <ele>22.4</ele>
        <time>2024-03-20T14:17:59Z</time>
      </trkpt>
      <trkpt lat="49.11039" lon="0.00422">
        <ele>22.4</ele>
        <time>2024-03-20T14:18:00Z</time>
      </trkpt>
      <trkpt lat="49.11036" lon="0.00428">
        <ele>22.4</ele>
        <time>2024-03-20T14:18:01Z</time>
      </trkpt>
      <trkpt lat="49.11032" lon="0.00435">
        <ele>22.6</ele>
        <time>2024-03-20T14:18:02Z</time>
      </trkpt>
      <trkpt lat="49.11028" lon="0.00441">
        <ele>22.6</ele>
        <time>2024-03-20T14:18:03Z</time>
      </trkpt>
      <trkpt lat="49.11024" lon="0.00448">
        <ele>22.8</ele>
        <time>2024-03-20T14:18:04Z</time>
      </trkpt>
      <trkpt lat="49.1102" lon="0.00454">
        <ele>23</ele>
        <time>2024-03-20T14:18:05Z</time>
      </trkpt>
      <trkpt lat="49.11017" lon="0.00461">
        <ele>23.2</ele>
        <time>2024-03-20T14:18:06Z</time>
      </trkpt>
      <trkpt lat="49.11013" lon="0.00468">
        <ele>23.4</ele>
        <time>2024-03-20T14:18:07Z</time>
      </trkpt>
      <trkpt lat="49.11009" lon="0.00475">
        <ele>23.4</ele>
        <time>2024-03-20T14:18:08Z</time>
      </trkpt>
      <trkpt lat="49.11005" lon="0.00482">
        <ele>23.6</ele>
        <time>2024-03-20T14:18:09Z</time>
      </trkpt>
      <trkpt lat="49.11002" lon="0.00489">
        <ele>23.8</ele>
        <time>2024-03-20T14:18:10Z</time>
      </trkpt>
      <trkpt lat="49.10998" lon="0.00496">
        <ele>23.8</ele>
        <time>2024-03-20T14:18:11Z</time>
      </trkpt>
      <trkpt lat="49.10994" lon="0.00503">
        <ele>24</ele>
        <time>2024-03-20T14:18:12Z</time>
      </trkpt>
      <trkpt lat="49.1099" lon="0.00511">
        <ele>24</ele>
        <time>2024-03-20T14:18:13Z</time>
      </trkpt>
      <trkpt lat="49.10987" lon="0.00518">
        <ele>24.2</ele>
        <time>2024-03-20T14:18:14Z</time>
      </trkpt>
      <trkpt lat="49.10983" lon="0.00526">
        <ele>24.4</ele>
        <time>2024-03-20T14:18:15Z</time>
      </trkpt>
      <trkpt lat="49.10979" lon="0.00533">
        <ele>24.4</ele>
        <time>2024-03-20T14:18:16Z</time>
      </trkpt>
      <trkpt lat="49.10976" lon="0.00541">
        <ele>24.4</ele>
        <time>2024-03-20T14:18:17Z</time>
      </trkpt>
      <trkpt lat="49.10972" lon="0.00548">
        <ele>24.6</ele>
        <time>2024-03-20T14:18:18Z</time>
      </trkpt>
      <trkpt lat="49.10969" lon="0.00556">
        <ele>24.6</ele>
        <time>2024-03-20T14:18:19Z</time>
      </trkpt>
      <trkpt lat="49.10966" lon="0.00563">
        <ele>24.8</ele>
        <time>2024-03-20T14:18:20Z</time>
      </trkpt>
      <trkpt lat="49.10962" lon="0.00571">
        <ele>24.8</ele>
        <time>2024-03-20T14:18:21Z</time>
      </trkpt>
      <trkpt lat="49.10959" lon="0.00578">
        <ele>25</ele>
        <time>2024-03-20T14:18:22Z</time>
      </trkpt>
      <trkpt lat="49.10956" lon="0.00585">
        <ele>25</ele>
        <time>2024-03-20T14:18:23Z</time>
      </trkpt>
      <trkpt lat="49.10953" lon="0.00593">
        <ele>25.2</ele>
        <time>2024-03-20T14:18:24Z</time>
      </trkpt>
      <trkpt lat="49.1095" lon="0.00601">
        <ele>25.2</ele>
        <time>2024-03-20T14:18:25Z</time>
      </trkpt>
      <trkpt lat="49.10946" lon="0.00609">
        <ele>25.2</ele>
        <time>2024-03-20T14:18:26Z</time>
      </trkpt>
      <trkpt lat="49.10943" lon="0.00617">
        <ele>25.6</ele>
        <time>2024-03-20T14:18:27Z</time>
      </trkpt>
      <trkpt lat="49.1094" lon="0.00625">
        <ele>25.8</ele>
        <time>2024-03-20T14:18:28Z</time>
      </trkpt>
      <trkpt lat="49.10937" lon="0.00632">
        <ele>26</ele>
        <time>2024-03-20T14:18:29Z</time>
      </trkpt>
      <trkpt lat="49.10934" lon="0.0064">
        <ele>26.2</ele>
        <time>2024-03-20T14:18:30Z</time>
      </trkpt>
      <trkpt lat="49.10931" lon="0.00648">
        <ele>26.4</ele>
        <time>2024-03-20T14:18:31Z</time>
      </trkpt>
      <trkpt lat="49.10928" lon="0.00655">
        <ele>26.6</ele>
        <time>2024-03-20T14:18:32Z</time>
      </trkpt>
      <trkpt lat="49.10925" lon="0.00663">
        <ele>26.6</ele>
        <time>2024-03-20T14:18:33Z</time>
      </trkpt>
      <trkpt lat="49.10923" lon="0.00669">
        <ele>26.8</ele>
        <time>2024-03-20T14:18:34Z</time>
      </trkpt>
      <trkpt lat="49.1092" lon="0.00676">
        <ele>27</ele>
        <time>2024-03-20T14:18:35Z</time>
      </trkpt>
      <trkpt lat="49.10919" lon="0.00681">
        <ele>27.2</ele>
        <time>2024-03-20T14:18:36Z</time>
      </trkpt>
      <trkpt lat="49.10917" lon="0.00684">
        <ele>27.2</ele>
        <time>2024-03-20T14:18:37Z</time>
      </trkpt>
      <trkpt lat="49.10914" lon="0.00687">
        <ele>27.6</ele>
        <time>2024-03-20T14:18:38Z</time>
      </trkpt>
      <trkpt lat="49.10911" lon="0.00687">
        <ele>27.8</ele>
        <time>2024-03-20T14:18:39Z</time>
      </trkpt>
      <trkpt lat="49.10907" lon="0.00686">
        <ele>28</ele>
        <time>2024-03-20T14:18:40Z</time>
      </trkpt>
      <trkpt lat="49.10902" lon="0.00683">
        <ele>28.2</ele>
        <time>2024-03-20T14:18:41Z</time>
      </trkpt>
      <trkpt lat="49.10898" lon="0.0068">
        <ele>28.6</ele>
        <time>2024-03-20T14:18:42Z</time>
      </trkpt>
      <trkpt lat="49.10893" lon="0.00676">
        <ele>29</ele>
        <time>2024-03-20T14:18:43Z</time>
      </trkpt>
      <trkpt lat="49.10888" lon="0.00673">
        <ele>29.6</ele>
        <time>2024-03-20T14:18:44Z</time>
      </trkpt>
      <trkpt lat="49.10883" lon="0.0067">
        <ele>29.8</ele>
        <time>2024-03-20T14:18:45Z</time>
      </trkpt>
      <trkpt lat="49.10877" lon="0.00667">
        <ele>30</ele>
        <time>2024-03-20T14:18:46Z</time>
      </trkpt>
      <trkpt lat="49.10872" lon="0.00664">
        <ele>30.2</ele>
        <time>2024-03-20T14:18:47Z</time>
      </trkpt>
      <trkpt lat="49.10866" lon="0.00661">
        <ele>30.2</ele>
        <time>2024-03-20T14:18:48Z</time>
      </trkpt>
      <trkpt lat="49.10861" lon="0.00659">
        <ele>30.2</ele>
        <time>2024-03-20T14:18:49Z</time>
      </trkpt>
      <trkpt lat="49.10855" lon="0.00656">
        <ele>30.4</ele>
        <time>2024-03-20T14:18:50Z</time>
      </trkpt>
      <trkpt lat="49.10849" lon="0.00653">
        <ele>30.4</ele>
        <time>2024-03-20T14:18:51Z</time>
      </trkpt>
      <trkpt lat="49.10844" lon="0.0065">
        <ele>30.4</ele>
        <time>2024-03-20T14:18:52Z</time>
      </trkpt>
      <trkpt lat="49.10838" lon="0.00648">
        <ele>30.4</ele>
        <time>2024-03-20T14:18:53Z</time>
      </trkpt>
      <trkpt lat="49.10832" lon="0.00645">
        <ele>30.4</ele>
        <time>2024-03-20T14:18:54Z</time>
      </trkpt>
      <trkpt lat="49.10826" lon="0.00642">
        <ele>30.4</ele>
        <time>2024-03-20T14:18:55Z</time>
      </trkpt>
      <trkpt lat="49.1082" lon="0.00639">
        <ele>30.4</ele>
        <time>2024-03-20T14:18:56Z</time>
      </trkpt>
      <trkpt lat="49.10814" lon="0.00637">
        <ele>30.4</ele>
        <time>2024-03-20T14:18:57Z</time>
      </trkpt>
      <trkpt lat="49.10808" lon="0.00634">
        <ele>30.4</ele>
        <time>2024-03-20T14:18:58Z</time>
      </trkpt>
      <trkpt lat="49.10803" lon="0.00631">
        <ele>30.4</ele>
        <time>2024-03-20T14:18:59Z</time>
      </trkpt>
      <trkpt lat="49.10797" lon="0.00628">
        <ele>30.4</ele>
        <time>2024-03-20T14:19:00Z</time>
      </trkpt>
      <trkpt lat="49.10791" lon="0.00625">
        <ele>30.4</ele>
        <time>2024-03-20T14:19:01Z</time>
      </trkpt>
      <trkpt lat="49.10785" lon="0.00622">
        <ele>30.4</ele>
        <time>2024-03-20T14:19:02Z</time>
      </trkpt>
      <trkpt lat="49.10779" lon="0.0062">
        <ele>30.4</ele>
        <time>2024-03-20T14:19:03Z</time>
      </trkpt>
      <trkpt lat="49.10773" lon="0.00617">
        <ele>30.4</ele>
        <time>2024-03-20T14:19:04Z</time>
      </trkpt>
      <trkpt lat="49.10767" lon="0.00614">
        <ele>30.6</ele>
        <time>2024-03-20T14:19:05Z</time>
      </trkpt>
      <trkpt lat="49.10761" lon="0.00611">
        <ele>30.6</ele>
        <time>2024-03-20T14:19:06Z</time>
      </trkpt>
      <trkpt lat="49.10755" lon="0.00607">
        <ele>30.6</ele>
        <time>2024-03-20T14:19:07Z</time>
      </trkpt>
      <trkpt lat="49.10749" lon="0.00604">
        <ele>30.6</ele>
        <time>2024-03-20T14:19:08Z</time>
      </trkpt>
      <trkpt lat="49.10742" lon="0.00601">
        <ele>30.6</ele>
        <time>2024-03-20T14:19:09Z</time>
      </trkpt>
      <trkpt lat="49.10736" lon="0.00599">
        <ele>30.6</ele>
        <time>2024-03-20T14:19:10Z</time>
      </trkpt>
      <trkpt lat="49.1073" lon="0.00596">
        <ele>30.6</ele>
        <time>2024-03-20T14:19:11Z</time>
      </trkpt>
      <trkpt lat="49.10723" lon="0.00593">
        <ele>30.6</ele>
        <time>2024-03-20T14:19:12Z</time>
      </trkpt>
      <trkpt lat="49.10717" lon="0.0059">
        <ele>30.6</ele>
        <time>2024-03-20T14:19:13Z</time>
      </trkpt>
      <trkpt lat="49.1071" lon="0.00586">
        <ele>30.6</ele>
        <time>2024-03-20T14:19:14Z</time>
      </trkpt>
      <trkpt lat="49.10704" lon="0.00583">
        <ele>30.6</ele>
        <time>2024-03-20T14:19:15Z</time>
      </trkpt>
      <trkpt lat="49.10697" lon="0.0058">
        <ele>30.6</ele>
        <time>2024-03-20T14:19:16Z</time>
      </trkpt>
      <trkpt lat="49.10691" lon="0.00577">
        <ele>30.6</ele>
        <time>2024-03-20T14:19:17Z</time>
      </trkpt>
      <trkpt lat="49.10684" lon="0.00574">
        <ele>30.6</ele>
        <time>2024-03-20T14:19:18Z</time>
      </trkpt>
      <trkpt lat="49.10677" lon="0.0057">
        <ele>30.6</ele>
        <time>2024-03-20T14:19:19Z</time>
      </trkpt>
      <trkpt lat="49.1067" lon="0.00567">
        <ele>30.6</ele>
        <time>2024-03-20T14:19:20Z</time>
      </trkpt>
      <trkpt lat="49.10663" lon="0.00563">
        <ele>30.4</ele>
        <time>2024-03-20T14:19:21Z</time>
      </trkpt>
      <trkpt lat="49.10656" lon="0.00559">
        <ele>30.4</ele>
        <time>2024-03-20T14:19:22Z</time>
      </trkpt>
      <trkpt lat="49.10649" lon="0.00556">
        <ele>30.4</ele>
        <time>2024-03-20T14:19:23Z</time>
      </trkpt>
      <trkpt lat="49.10643" lon="0.00553">
        <ele>30.4</ele>
        <time>2024-03-20T14:19:24Z</time>
      </trkpt>
      <trkpt lat="49.10636" lon="0.0055">
        <ele>30.4</ele>
        <time>2024-03-20T14:19:25Z</time>
      </trkpt>
      <trkpt lat="49.10628" lon="0.00547">
        <ele>30.4</ele>
        <time>2024-03-20T14:19:26Z</time>
      </trkpt>
      <trkpt lat="49.10621" lon="0.00543">
        <ele>30.4</ele>
        <time>2024-03-20T14:19:27Z</time>
      </trkpt>
      <trkpt lat="49.10614" lon="0.0054">
        <ele>30.2</ele>
        <time>2024-03-20T14:19:28Z</time>
      </trkpt>
      <trkpt lat="49.10607" lon="0.00536">
        <ele>30.2</ele>
        <time>2024-03-20T14:19:29Z</time>
      </trkpt>
      <trkpt lat="49.106" lon="0.00532">
        <ele>30.2</ele>
        <time>2024-03-20T14:19:30Z</time>
      </trkpt>
      <trkpt lat="49.10593" lon="0.00529">
        <ele>30.2</ele>
        <time>2024-03-20T14:19:31Z</time>
      </trkpt>
      <trkpt lat="49.10585" lon="0.00525">
        <ele>30</ele>
        <time>2024-03-20T14:19:32Z</time>
      </trkpt>
      <trkpt lat="49.10578" lon="0.00522">
        <ele>30</ele>
        <time>2024-03-20T14:19:33Z</time>
      </trkpt>
      <trkpt lat="49.1057" lon="0.00519">
        <ele>30</ele>
        <time>2024-03-20T14:19:34Z</time>
      </trkpt>
      <trkpt lat="49.10563" lon="0.00515">
        <ele>29.8</ele>
        <time>2024-03-20T14:19:35Z</time>
      </trkpt>
      <trkpt lat="49.10555" lon="0.00511">
        <ele>29.6</ele>
        <time>2024-03-20T14:19:36Z</time>
      </trkpt>
      <trkpt lat="49.10548" lon="0.00508">
        <ele>29.4</ele>
        <time>2024-03-20T14:19:37Z</time>
      </trkpt>
      <trkpt lat="49.1054" lon="0.00504">
        <ele>29</ele>
        <time>2024-03-20T14:19:38Z</time>
      </trkpt>
      <trkpt lat="49.10532" lon="0.005">
        <ele>28.8</ele>
        <time>2024-03-20T14:19:39Z</time>
      </trkpt>
      <trkpt lat="49.10525" lon="0.00497">
        <ele>28.4</ele>
        <time>2024-03-20T14:19:40Z</time>
      </trkpt>
      <trkpt lat="49.10517" lon="0.00493">
        <ele>28.2</ele>
        <time>2024-03-20T14:19:41Z</time>
      </trkpt>
      <trkpt lat="49.10509" lon="0.00489">
        <ele>28</ele>
        <time>2024-03-20T14:19:42Z</time>
      </trkpt>
      <trkpt lat="49.10501" lon="0.00485">
        <ele>27.8</ele>
        <time>2024-03-20T14:19:43Z</time>
      </trkpt>
      <trkpt lat="49.10493" lon="0.00481">
        <ele>27.6</ele>
        <time>2024-03-20T14:19:44Z</time>
      </trkpt>
      <trkpt lat="49.10484" lon="0.00477">
        <ele>27.4</ele>
        <time>2024-03-20T14:19:45Z</time>
      </trkpt>
      <trkpt lat="49.10476" lon="0.00473">
        <ele>27.2</ele>
        <time>2024-03-20T14:19:46Z</time>
      </trkpt>
      <trkpt lat="49.10468" lon="0.00469">
        <ele>27</ele>
        <time>2024-03-20T14:19:47Z</time>
      </trkpt>
      <trkpt lat="49.10461" lon="0.00465">
        <ele>27</ele>
        <time>2024-03-20T14:19:48Z</time>
      </trkpt>
      <trkpt lat="49.10453" lon="0.00462">
        <ele>26.8</ele>
        <time>2024-03-20T14:19:49Z</time>
      </trkpt>
      <trkpt lat="49.10445" lon="0.00458">
        <ele>26.6</ele>
        <time>2024-03-20T14:19:50Z</time>
      </trkpt>
      <trkpt lat="49.10438" lon="0.00454">
        <ele>26.4</ele>
        <time>2024-03-20T14:19:51Z</time>
      </trkpt>
      <trkpt lat="49.1043" lon="0.00451">
        <ele>26</ele>
        <time>2024-03-20T14:19:52Z</time>
      </trkpt>
      <trkpt lat="49.10422" lon="0.00447">
        <ele>25.8</ele>
        <time>2024-03-20T14:19:53Z</time>
      </trkpt>
      <trkpt lat="49.10415" lon="0.00443">
        <ele>25.6</ele>
        <time>2024-03-20T14:19:54Z</time>
      </trkpt>
      <trkpt lat="49.10408" lon="0.00439">
        <ele>25.2</ele>
        <time>2024-03-20T14:19:55Z</time>
      </trkpt>
      <trkpt lat="49.104" lon="0.00435">
        <ele>25</ele>
        <time>2024-03-20T14:19:56Z</time>
      </trkpt>
      <trkpt lat="49.10392" lon="0.00432">
        <ele>24.6</ele>
        <time>2024-03-20T14:19:57Z</time>
      </trkpt>
      <trkpt lat="49.10384" lon="0.00428">
        <ele>24.6</ele>
        <time>2024-03-20T14:19:58Z</time>
      </trkpt>
      <trkpt lat="49.10376" lon="0.00425">
        <ele>24.4</ele>
        <time>2024-03-20T14:19:59Z</time>
      </trkpt>
      <trkpt lat="49.10368" lon="0.00421">
        <ele>24</ele>
        <time>2024-03-20T14:20:00Z</time>
      </trkpt>
      <trkpt lat="49.1036" lon="0.00417">
        <ele>24</ele>
        <time>2024-03-20T14:20:01Z</time>
      </trkpt>
      <trkpt lat="49.10352" lon="0.00413">
        <ele>23.8</ele>
        <time>2024-03-20T14:20:02Z</time>
      </trkpt>
      <trkpt lat="49.10343" lon="0.00409">
        <ele>23.8</ele>
        <time>2024-03-20T14:20:03Z</time>
      </trkpt>
      <trkpt lat="49.10335" lon="0.00405">
        <ele>23.4</ele>
        <time>2024-03-20T14:20:04Z</time>
      </trkpt>
      <trkpt lat="49.10327" lon="0.00401">
        <ele>23.2</ele>
        <time>2024-03-20T14:20:05Z</time>
      </trkpt>
      <trkpt lat="49.10319" lon="0.00397">
        <ele>23</ele>
        <time>2024-03-20T14:20:06Z</time>
      </trkpt>
      <trkpt lat="49.10311" lon="0.00393">
        <ele>23</ele>
        <time>2024-03-20T14:20:07Z</time>
      </trkpt>
      <trkpt lat="49.10303" lon="0.00389">
        <ele>23</ele>
        <time>2024-03-20T14:20:08Z</time>
      </trkpt>
      <trkpt lat="49.10294" lon="0.00385">
        <ele>22.8</ele>
        <time>2024-03-20T14:20:09Z</time>
      </trkpt>
      <trkpt lat="49.10286" lon="0.00382">
        <ele>22.8</ele>
        <time>2024-03-20T14:20:10Z</time>
      </trkpt>
      <trkpt lat="49.10278" lon="0.00379">
        <ele>22.8</ele>
        <time>2024-03-20T14:20:11Z</time>
      </trkpt>
      <trkpt lat="49.1027" lon="0.00376">
        <ele>22.8</ele>
        <time>2024-03-20T14:20:12Z</time>
      </trkpt>
      <trkpt lat="49.10262" lon="0.00372">
        <ele>22.8</ele>
        <time>2024-03-20T14:20:13Z</time>
      </trkpt>
      <trkpt lat="49.10253" lon="0.00369">
        <ele>22.8</ele>
        <time>2024-03-20T14:20:14Z</time>
      </trkpt>
      <trkpt lat="49.10245" lon="0.00365">
        <ele>22.8</ele>
        <time>2024-03-20T14:20:15Z</time>
      </trkpt>
      <trkpt lat="49.10237" lon="0.0036">
        <ele>22.8</ele>
        <time>2024-03-20T14:20:16Z</time>
      </trkpt>
      <trkpt lat="49.10229" lon="0.00357">
        <ele>22.6</ele>
        <time>2024-03-20T14:20:17Z</time>
      </trkpt>
      <trkpt lat="49.10221" lon="0.00353">
        <ele>22.6</ele>
        <time>2024-03-20T14:20:18Z</time>
      </trkpt>
      <trkpt lat="49.10213" lon="0.00351">
        <ele>22.6</ele>
        <time>2024-03-20T14:20:19Z</time>
      </trkpt>
      <trkpt lat="49.10206" lon="0.00351">
        <ele>22.6</ele>
        <time>2024-03-20T14:20:20Z</time>
      </trkpt>
      <trkpt lat="49.10199" lon="0.00356">
        <ele>22.6</ele>
        <time>2024-03-20T14:20:21Z</time>
      </trkpt>
      <trkpt lat="49.10193" lon="0.00364">
        <ele>22.6</ele>
        <time>2024-03-20T14:20:22Z</time>
      </trkpt>
      <trkpt lat="49.10188" lon="0.00373">
        <ele>22.4</ele>
        <time>2024-03-20T14:20:23Z</time>
      </trkpt>
      <trkpt lat="49.10182" lon="0.00382">
        <ele>22.4</ele>
        <time>2024-03-20T14:20:24Z</time>
      </trkpt>
      <trkpt lat="49.10177" lon="0.00391">
        <ele>22.2</ele>
        <time>2024-03-20T14:20:25Z</time>
      </trkpt>
      <trkpt lat="49.10172" lon="0.00401">
        <ele>22.2</ele>
        <time>2024-03-20T14:20:26Z</time>
      </trkpt>
      <trkpt lat="49.10167" lon="0.0041">
        <ele>22</ele>
        <time>2024-03-20T14:20:27Z</time>
      </trkpt>
      <trkpt lat="49.10163" lon="0.00419">
        <ele>21.8</ele>
        <time>2024-03-20T14:20:28Z</time>
      </trkpt>
      <trkpt lat="49.10158" lon="0.00428">
        <ele>21.8</ele>
        <time>2024-03-20T14:20:29Z</time>
      </trkpt>
      <trkpt lat="49.10153" lon="0.00437">
        <ele>21.6</ele>
        <time>2024-03-20T14:20:30Z</time>
      </trkpt>
      <trkpt lat="49.10148" lon="0.00446">
        <ele>21.6</ele>
        <time>2024-03-20T14:20:31Z</time>
      </trkpt>
      <trkpt lat="49.10143" lon="0.00455">
        <ele>21.4</ele>
        <time>2024-03-20T14:20:32Z</time>
      </trkpt>
      <trkpt lat="49.10139" lon="0.00464">
        <ele>21.4</ele>
        <time>2024-03-20T14:20:33Z</time>
      </trkpt>
      <trkpt lat="49.10134" lon="0.00472">
        <ele>21.4</ele>
        <time>2024-03-20T14:20:34Z</time>
      </trkpt>
      <trkpt lat="49.1013" lon="0.0048">
        <ele>21.2</ele>
        <time>2024-03-20T14:20:35Z</time>
      </trkpt>
      <trkpt lat="49.10125" lon="0.00489">
        <ele>21.2</ele>
        <time>2024-03-20T14:20:36Z</time>
      </trkpt>
      <trkpt lat="49.1012" lon="0.00497">
        <ele>21.2</ele>
        <time>2024-03-20T14:20:37Z</time>
      </trkpt>
      <trkpt lat="49.10116" lon="0.00506">
        <ele>21.2</ele>
        <time>2024-03-20T14:20:38Z</time>
      </trkpt>
      <trkpt lat="49.10111" lon="0.00514">
        <ele>21.2</ele>
        <time>2024-03-20T14:20:39Z</time>
      </trkpt>
      <trkpt lat="49.10107" lon="0.00522">
        <ele>21.2</ele>
        <time>2024-03-20T14:20:40Z</time>
      </trkpt>
      <trkpt lat="49.10103" lon="0.00531">
        <ele>21.2</ele>
        <time>2024-03-20T14:20:41Z</time>
      </trkpt>
      <trkpt lat="49.10098" lon="0.00539">
        <ele>21.2</ele>
        <time>2024-03-20T14:20:42Z</time>
      </trkpt>
      <trkpt lat="49.10094" lon="0.00548">
        <ele>21.4</ele>
        <time>2024-03-20T14:20:43Z</time>
      </trkpt>
      <trkpt lat="49.10089" lon="0.00556">
        <ele>21.4</ele>
        <time>2024-03-20T14:20:44Z</time>
      </trkpt>
      <trkpt lat="49.10085" lon="0.00564">
        <ele>21.4</ele>
        <time>2024-03-20T14:20:45Z</time>
      </trkpt>
      <trkpt lat="49.1008" lon="0.00573">
        <ele>21.4</ele>
        <time>2024-03-20T14:20:46Z</time>
      </trkpt>
      <trkpt lat="49.10076" lon="0.00581">
        <ele>21.4</ele>
        <time>2024-03-20T14:20:47Z</time>
      </trkpt>
      <trkpt lat="49.10071" lon="0.0059">
        <ele>21.4</ele>
        <time>2024-03-20T14:20:48Z</time>
      </trkpt>
      <trkpt lat="49.10067" lon="0.00598">
        <ele>21.6</ele>
        <time>2024-03-20T14:20:49Z</time>
      </trkpt>
      <trkpt lat="49.10063" lon="0.00607">
        <ele>21.6</ele>
        <time>2024-03-20T14:20:50Z</time>
      </trkpt>
      <trkpt lat="49.10058" lon="0.00615">
        <ele>21.6</ele>
        <time>2024-03-20T14:20:51Z</time>
      </trkpt>
      <trkpt lat="49.10053" lon="0.00623">
        <ele>21.6</ele>
        <time>2024-03-20T14:20:52Z</time>
      </trkpt>
      <trkpt lat="49.10048" lon="0.00631">
        <ele>21.6</ele>
        <time>2024-03-20T14:20:53Z</time>
      </trkpt>
      <trkpt lat="49.10043" lon="0.0064">
        <ele>21.6</ele>
        <time>2024-03-20T14:20:54Z</time>
      </trkpt>
      <trkpt lat="49.10039" lon="0.00648">
        <ele>21.6</ele>
        <time>2024-03-20T14:20:55Z</time>
      </trkpt>
      <trkpt lat="49.10034" lon="0.00657">
        <ele>21.6</ele>
        <time>2024-03-20T14:20:56Z</time>
      </trkpt>
      <trkpt lat="49.1003" lon="0.00666">
        <ele>21.6</ele>
        <time>2024-03-20T14:20:57Z</time>
      </trkpt>
      <trkpt lat="49.10025" lon="0.00674">
        <ele>21.6</ele>
        <time>2024-03-20T14:20:58Z</time>
      </trkpt>
      <trkpt lat="49.10021" lon="0.00683">
        <ele>21.6</ele>
        <time>2024-03-20T14:20:59Z</time>
      </trkpt>
      <trkpt lat="49.10016" lon="0.00692">
        <ele>21.6</ele>
        <time>2024-03-20T14:21:00Z</time>
      </trkpt>
      <trkpt lat="49.10011" lon="0.007">
        <ele>21.6</ele>
        <time>2024-03-20T14:21:01Z</time>
      </trkpt>
      <trkpt lat="49.10007" lon="0.00709">
        <ele>21.6</ele>
        <time>2024-03-20T14:21:02Z</time>
      </trkpt>
      <trkpt lat="49.10002" lon="0.00718">
        <ele>21.8</ele>
        <time>2024-03-20T14:21:03Z</time>
      </trkpt>
      <trkpt lat="49.09997" lon="0.00727">
        <ele>21.8</ele>
        <time>2024-03-20T14:21:04Z</time>
      </trkpt>
      <trkpt lat="49.09992" lon="0.00735">
        <ele>21.8</ele>
        <time>2024-03-20T14:21:05Z</time>
      </trkpt>
      <trkpt lat="49.09987" lon="0.00744">
        <ele>22</ele>
        <time>2024-03-20T14:21:06Z</time>
      </trkpt>
      <trkpt lat="49.09982" lon="0.00753">
        <ele>22.2</ele>
        <time>2024-03-20T14:21:07Z</time>
      </trkpt>
      <trkpt lat="49.09977" lon="0.00762">
        <ele>22.2</ele>
        <time>2024-03-20T14:21:08Z</time>
      </trkpt>
      <trkpt lat="49.09973" lon="0.00771">
        <ele>22.4</ele>
        <time>2024-03-20T14:21:09Z</time>
      </trkpt>
      <trkpt lat="49.09968" lon="0.0078">
        <ele>22.4</ele>
        <time>2024-03-20T14:21:10Z</time>
      </trkpt>
      <trkpt lat="49.09964" lon="0.00788">
        <ele>22.4</ele>
        <time>2024-03-20T14:21:11Z</time>
      </trkpt>
      <trkpt lat="49.09959" lon="0.00797">
        <ele>22.4</ele>
        <time>2024-03-20T14:21:12Z</time>
      </trkpt>
      <trkpt lat="49.09954" lon="0.00806">
        <ele>22.6</ele>
        <time>2024-03-20T14:21:13Z</time>
      </trkpt>
      <trkpt lat="49.0995" lon="0.00815">
        <ele>22.6</ele>
        <time>2024-03-20T14:21:14Z</time>
      </trkpt>
      <trkpt lat="49.09945" lon="0.00824">
        <ele>22.6</ele>
        <time>2024-03-20T14:21:15Z</time>
      </trkpt>
      <trkpt lat="49.0994" lon="0.00833">
        <ele>22.8</ele>
        <time>2024-03-20T14:21:16Z</time>
      </trkpt>
      <trkpt lat="49.09935" lon="0.00842">
        <ele>22.8</ele>
        <time>2024-03-20T14:21:17Z</time>
      </trkpt>
      <trkpt lat="49.0993" lon="0.00851">
        <ele>22.8</ele>
        <time>2024-03-20T14:21:18Z</time>
      </trkpt>
      <trkpt lat="49.09925" lon="0.0086">
        <ele>23</ele>
        <time>2024-03-20T14:21:19Z</time>
      </trkpt>
      <trkpt lat="49.0992" lon="0.00868">
        <ele>23</ele>
        <time>2024-03-20T14:21:20Z</time>
      </trkpt>
      <trkpt lat="49.09916" lon="0.00877">
        <ele>23</ele>
        <time>2024-03-20T14:21:21Z</time>
      </trkpt>
      <trkpt lat="49.09911" lon="0.00886">
        <ele>23</ele>
        <time>2024-03-20T14:21:22Z</time>
      </trkpt>
      <trkpt lat="49.09906" lon="0.00895">
        <ele>23</ele>
        <time>2024-03-20T14:21:23Z</time>
      </trkpt>
      <trkpt lat="49.09901" lon="0.00904">
        <ele>23</ele>
        <time>2024-03-20T14:21:24Z</time>
      </trkpt>
      <trkpt lat="49.09896" lon="0.00913">
        <ele>23</ele>
        <time>2024-03-20T14:21:25Z</time>
      </trkpt>
      <trkpt lat="49.09891" lon="0.00921">
        <ele>23</ele>
        <time>2024-03-20T14:21:26Z</time>
      </trkpt>
      <trkpt lat="49.09886" lon="0.00931">
        <ele>23</ele>
        <time>2024-03-20T14:21:27Z</time>
      </trkpt>
      <trkpt lat="49.09881" lon="0.0094">
        <ele>23</ele>
        <time>2024-03-20T14:21:28Z</time>
      </trkpt>
      <trkpt lat="49.09877" lon="0.00949">
        <ele>23</ele>
        <time>2024-03-20T14:21:29Z</time>
      </trkpt>
      <trkpt lat="49.09872" lon="0.00958">
        <ele>23</ele>
        <time>2024-03-20T14:21:30Z</time>
      </trkpt>
      <trkpt lat="49.09867" lon="0.00967">
        <ele>23</ele>
        <time>2024-03-20T14:21:31Z</time>
      </trkpt>
      <trkpt lat="49.09862" lon="0.00976">
        <ele>23</ele>
        <time>2024-03-20T14:21:32Z</time>
      </trkpt>
      <trkpt lat="49.09857" lon="0.00985">
        <ele>23</ele>
        <time>2024-03-20T14:21:33Z</time>
      </trkpt>
      <trkpt lat="49.09851" lon="0.00994">
        <ele>23</ele>
        <time>2024-03-20T14:21:34Z</time>
      </trkpt>
      <trkpt lat="49.09847" lon="0.01003">
        <ele>23</ele>
        <time>2024-03-20T14:21:35Z</time>
      </trkpt>
      <trkpt lat="49.09842" lon="0.01012">
        <ele>23</ele>
        <time>2024-03-20T14:21:36Z</time>
      </trkpt>
      <trkpt lat="49.09837" lon="0.01021">
        <ele>23</ele>
        <time>2024-03-20T14:21:37Z</time>
      </trkpt>
      <trkpt lat="49.09832" lon="0.0103">
        <ele>23</ele>
        <time>2024-03-20T14:21:38Z</time>
      </trkpt>
      <trkpt lat="49.09827" lon="0.01039">
        <ele>23</ele>
        <time>2024-03-20T14:21:39Z</time>
      </trkpt>
      <trkpt lat="49.09822" lon="0.01048">
        <ele>23</ele>
        <time>2024-03-20T14:21:40Z</time>
      </trkpt>
      <trkpt lat="49.09817" lon="0.01057">
        <ele>23</ele>
        <time>2024-03-20T14:21:41Z</time>
      </trkpt>
      <trkpt lat="49.09812" lon="0.01066">
        <ele>23</ele>
        <time>2024-03-20T14:21:42Z</time>
      </trkpt>
      <trkpt lat="49.09807" lon="0.01075">
        <ele>23</ele>
        <time>2024-03-20T14:21:43Z</time>
      </trkpt>
      <trkpt lat="49.09802" lon="0.01084">
        <ele>23</ele>
        <time>2024-03-20T14:21:44Z</time>
      </trkpt>
      <trkpt lat="49.09797" lon="0.01093">
        <ele>23</ele>
        <time>2024-03-20T14:21:45Z</time>
      </trkpt>
      <trkpt lat="49.09793" lon="0.01102">
        <ele>23</ele>
        <time>2024-03-20T14:21:46Z</time>
      </trkpt>
      <trkpt lat="49.09787" lon="0.01111">
        <ele>23</ele>
        <time>2024-03-20T14:21:47Z</time>
      </trkpt>
      <trkpt lat="49.09783" lon="0.01121">
        <ele>23</ele>
        <time>2024-03-20T14:21:48Z</time>
      </trkpt>
      <trkpt lat="49.09778" lon="0.0113">
        <ele>23</ele>
        <time>2024-03-20T14:21:49Z</time>
      </trkpt>
      <trkpt lat="49.09773" lon="0.01139">
        <ele>23</ele>
        <time>2024-03-20T14:21:50Z</time>
      </trkpt>
      <trkpt lat="49.09768" lon="0.01148">
        <ele>23.2</ele>
        <time>2024-03-20T14:21:51Z</time>
      </trkpt>
      <trkpt lat="49.09763" lon="0.01157">
        <ele>23.2</ele>
        <time>2024-03-20T14:21:52Z</time>
      </trkpt>
      <trkpt lat="49.09758" lon="0.01166">
        <ele>23.2</ele>
        <time>2024-03-20T14:21:53Z</time>
      </trkpt>
      <trkpt lat="49.09754" lon="0.01175">
        <ele>23.2</ele>
        <time>2024-03-20T14:21:54Z</time>
      </trkpt>
      <trkpt lat="49.09749" lon="0.01184">
        <ele>23.2</ele>
        <time>2024-03-20T14:21:55Z</time>
      </trkpt>
      <trkpt lat="49.09744" lon="0.01193">
        <ele>23.2</ele>
        <time>2024-03-20T14:21:56Z</time>
      </trkpt>
      <trkpt lat="49.09739" lon="0.01202">
        <ele>23.2</ele>
        <time>2024-03-20T14:21:57Z</time>
      </trkpt>
      <trkpt lat="49.09734" lon="0.01211">
        <ele>23.2</ele>
        <time>2024-03-20T14:21:58Z</time>
      </trkpt>
      <trkpt lat="49.09729" lon="0.0122">
        <ele>23.2</ele>
        <time>2024-03-20T14:21:59Z</time>
      </trkpt>
      <trkpt lat="49.09724" lon="0.01229">
        <ele>23.2</ele>
        <time>2024-03-20T14:22:00Z</time>
      </trkpt>
      <trkpt lat="49.09719" lon="0.01237">
        <ele>23.2</ele>
        <time>2024-03-20T14:22:01Z</time>
      </trkpt>
      <trkpt lat="49.09715" lon="0.01246">
        <ele>23.2</ele>
        <time>2024-03-20T14:22:02Z</time>
      </trkpt>
      <trkpt lat="49.0971" lon="0.01255">
        <ele>23.2</ele>
        <time>2024-03-20T14:22:03Z</time>
      </trkpt>
      <trkpt lat="49.09705" lon="0.01264">
        <ele>23.2</ele>
        <time>2024-03-20T14:22:04Z</time>
      </trkpt>
      <trkpt lat="49.097" lon="0.01273">
        <ele>23.4</ele>
        <time>2024-03-20T14:22:05Z</time>
      </trkpt>
      <trkpt lat="49.09695" lon="0.01282">
        <ele>23.4</ele>
        <time>2024-03-20T14:22:06Z</time>
      </trkpt>
      <trkpt lat="49.0969" lon="0.01292">
        <ele>23.4</ele>
        <time>2024-03-20T14:22:07Z</time>
      </trkpt>
      <trkpt lat="49.09685" lon="0.01301">
        <ele>23.4</ele>
        <time>2024-03-20T14:22:08Z</time>
      </trkpt>
      <trkpt lat="49.0968" lon="0.0131">
        <ele>23.4</ele>
        <time>2024-03-20T14:22:09Z</time>
      </trkpt>
      <trkpt lat="49.09675" lon="0.01319">
        <ele>23.4</ele>
        <time>2024-03-20T14:22:10Z</time>
      </trkpt>
      <trkpt lat="49.0967" lon="0.01329">
        <ele>23.4</ele>
        <time>2024-03-20T14:22:11Z</time>
      </trkpt>
      <trkpt lat="49.09665" lon="0.01338">
        <ele>23.4</ele>
        <time>2024-03-20T14:22:12Z</time>
      </trkpt>
      <trkpt lat="49.0966" lon="0.01347">
        <ele>23.4</ele>
        <time>2024-03-20T14:22:13Z</time>
      </trkpt>
      <trkpt lat="49.09655" lon="0.01356">
        <ele>23.4</ele>
        <time>2024-03-20T14:22:14Z</time>
      </trkpt>
      <trkpt lat="49.0965" lon="0.01365">
        <ele>23.4</ele>
        <time>2024-03-20T14:22:15Z</time>
      </trkpt>
      <trkpt lat="49.09646" lon="0.01374">
        <ele>23.4</ele>
        <time>2024-03-20T14:22:16Z</time>
      </trkpt>
      <trkpt lat="49.09641" lon="0.01383">
        <ele>23.6</ele>
        <time>2024-03-20T14:22:17Z</time>
      </trkpt>
      <trkpt lat="49.09636" lon="0.01392">
        <ele>23.6</ele>
        <time>2024-03-20T14:22:18Z</time>
      </trkpt>
      <trkpt lat="49.09631" lon="0.01401">
        <ele>23.6</ele>
        <time>2024-03-20T14:22:19Z</time>
      </trkpt>
      <trkpt lat="49.09626" lon="0.0141">
        <ele>23.6</ele>
        <time>2024-03-20T14:22:20Z</time>
      </trkpt>
      <trkpt lat="49.09621" lon="0.01419">
        <ele>23.6</ele>
        <time>2024-03-20T14:22:21Z</time>
      </trkpt>
      <trkpt lat="49.09616" lon="0.01428">
        <ele>23.6</ele>
        <time>2024-03-20T14:22:22Z</time>
      </trkpt>
      <trkpt lat="49.09611" lon="0.01437">
        <ele>23.6</ele>
        <time>2024-03-20T14:22:23Z</time>
      </trkpt>
      <trkpt lat="49.09607" lon="0.01446">
        <ele>23.6</ele>
        <time>2024-03-20T14:22:24Z</time>
      </trkpt>
      <trkpt lat="49.09602" lon="0.01455">
        <ele>23.6</ele>
        <time>2024-03-20T14:22:25Z</time>
      </trkpt>
      <trkpt lat="49.09597" lon="0.01465">
        <ele>23.6</ele>
        <time>2024-03-20T14:22:26Z</time>
      </trkpt>
      <trkpt lat="49.09593" lon="0.01473">
        <ele>23.6</ele>
        <time>2024-03-20T14:22:27Z</time>
      </trkpt>
      <trkpt lat="49.09588" lon="0.01482">
        <ele>23.6</ele>
        <time>2024-03-20T14:22:28Z</time>
      </trkpt>
      <trkpt lat="49.09583" lon="0.01491">
        <ele>23.6</ele>
        <time>2024-03-20T14:22:29Z</time>
      </trkpt>
      <trkpt lat="49.09579" lon="0.01499">
        <ele>23.6</ele>
        <time>2024-03-20T14:22:30Z</time>
      </trkpt>
      <trkpt lat="49.09574" lon="0.01508">
        <ele>23.6</ele>
        <time>2024-03-20T14:22:31Z</time>
      </trkpt>
      <trkpt lat="49.09569" lon="0.01517">
        <ele>23.8</ele>
        <time>2024-03-20T14:22:32Z</time>
      </trkpt>
      <trkpt lat="49.09564" lon="0.01526">
        <ele>23.8</ele>
        <time>2024-03-20T14:22:33Z</time>
      </trkpt>
      <trkpt lat="49.09559" lon="0.01535">
        <ele>23.8</ele>
        <time>2024-03-20T14:22:34Z</time>
      </trkpt>
      <trkpt lat="49.09554" lon="0.01543">
        <ele>23.8</ele>
        <time>2024-03-20T14:22:35Z</time>
      </trkpt>
      <trkpt lat="49.09549" lon="0.01552">
        <ele>23.8</ele>
        <time>2024-03-20T14:22:36Z</time>
      </trkpt>
      <trkpt lat="49.09543" lon="0.01561">
        <ele>23.8</ele>
        <time>2024-03-20T14:22:37Z</time>
      </trkpt>
      <trkpt lat="49.09538" lon="0.01569">
        <ele>23.8</ele>
        <time>2024-03-20T14:22:38Z</time>
      </trkpt>
      <trkpt lat="49.09532" lon="0.01577">
        <ele>23.8</ele>
        <time>2024-03-20T14:22:39Z</time>
      </trkpt>
      <trkpt lat="49.09526" lon="0.01584">
        <ele>23.8</ele>
        <time>2024-03-20T14:22:40Z</time>
      </trkpt>
      <trkpt lat="49.0952" lon="0.01592">
        <ele>23.8</ele>
        <time>2024-03-20T14:22:41Z</time>
      </trkpt>
      <trkpt lat="49.09513" lon="0.01599">
        <ele>23.8</ele>
        <time>2024-03-20T14:22:42Z</time>
      </trkpt>
      <trkpt lat="49.09508" lon="0.01606">
        <ele>24</ele>
        <time>2024-03-20T14:22:43Z</time>
      </trkpt>
      <trkpt lat="49.09501" lon="0.01613">
        <ele>24</ele>
        <time>2024-03-20T14:22:44Z</time>
      </trkpt>
      <trkpt lat="49.09494" lon="0.0162">
        <ele>24</ele>
        <time>2024-03-20T14:22:45Z</time>
      </trkpt>
      <trkpt lat="49.09488" lon="0.01626">
        <ele>24.2</ele>
        <time>2024-03-20T14:22:46Z</time>
      </trkpt>
      <trkpt lat="49.09481" lon="0.01633">
        <ele>24.2</ele>
        <time>2024-03-20T14:22:47Z</time>
      </trkpt>
      <trkpt lat="49.09475" lon="0.01639">
        <ele>24.2</ele>
        <time>2024-03-20T14:22:48Z</time>
      </trkpt>
      <trkpt lat="49.09468" lon="0.01645">
        <ele>24.6</ele>
        <time>2024-03-20T14:22:49Z</time>
      </trkpt>
      <trkpt lat="49.09461" lon="0.01651">
        <ele>24.6</ele>
        <time>2024-03-20T14:22:50Z</time>
      </trkpt>
      <trkpt lat="49.09454" lon="0.01657">
        <ele>24.6</ele>
        <time>2024-03-20T14:22:51Z</time>
      </trkpt>
      <trkpt lat="49.09448" lon="0.01662">
        <ele>24.6</ele>
        <time>2024-03-20T14:22:52Z</time>
      </trkpt>
      <trkpt lat="49.09441" lon="0.01668">
        <ele>24.6</ele>
        <time>2024-03-20T14:22:53Z</time>
      </trkpt>
      <trkpt lat="49.09434" lon="0.01673">
        <ele>24.6</ele>
        <time>2024-03-20T14:22:54Z</time>
      </trkpt>
      <trkpt lat="49.09426" lon="0.01678">
        <ele>24.6</ele>
        <time>2024-03-20T14:22:55Z</time>
      </trkpt>
      <trkpt lat="49.09419" lon="0.01683">
        <ele>24.4</ele>
        <time>2024-03-20T14:22:56Z</time>
      </trkpt>
      <trkpt lat="49.09411" lon="0.01687">
        <ele>24.6</ele>
        <time>2024-03-20T14:22:57Z</time>
      </trkpt>
      <trkpt lat="49.09404" lon="0.01691">
        <ele>24.6</ele>
        <time>2024-03-20T14:22:58Z</time>
      </trkpt>
      <trkpt lat="49.09397" lon="0.01696">
        <ele>24.6</ele>
        <time>2024-03-20T14:22:59Z</time>
      </trkpt>
      <trkpt lat="49.09389" lon="0.017">
        <ele>24.4</ele>
        <time>2024-03-20T14:23:00Z</time>
      </trkpt>
      <trkpt lat="49.09382" lon="0.01704">
        <ele>24.4</ele>
        <time>2024-03-20T14:23:01Z</time>
      </trkpt>
      <trkpt lat="49.09374" lon="0.01708">
        <ele>24.6</ele>
        <time>2024-03-20T14:23:02Z</time>
      </trkpt>
      <trkpt lat="49.09367" lon="0.01712">
        <ele>24.4</ele>
        <time>2024-03-20T14:23:03Z</time>
      </trkpt>
      <trkpt lat="49.09359" lon="0.01715">
        <ele>24.6</ele>
        <time>2024-03-20T14:23:04Z</time>
      </trkpt>
      <trkpt lat="49.09352" lon="0.01719">
        <ele>24.6</ele>
        <time>2024-03-20T14:23:05Z</time>
      </trkpt>
      <trkpt lat="49.09344" lon="0.01722">
        <ele>24.6</ele>
        <time>2024-03-20T14:23:06Z</time>
      </trkpt>
      <trkpt lat="49.09337" lon="0.01726">
        <ele>24.8</ele>
        <time>2024-03-20T14:23:07Z</time>
      </trkpt>
      <trkpt lat="49.09329" lon="0.01729">
        <ele>24.8</ele>
        <time>2024-03-20T14:23:08Z</time>
      </trkpt>
      <trkpt lat="49.09322" lon="0.01733">
        <ele>24.8</ele>
        <time>2024-03-20T14:23:09Z</time>
      </trkpt>
      <trkpt lat="49.09314" lon="0.01736">
        <ele>24.8</ele>
        <time>2024-03-20T14:23:10Z</time>
      </trkpt>
      <trkpt lat="49.09307" lon="0.0174">
        <ele>24.8</ele>
        <time>2024-03-20T14:23:11Z</time>
      </trkpt>
      <trkpt lat="49.09299" lon="0.01744">
        <ele>24.8</ele>
        <time>2024-03-20T14:23:12Z</time>
      </trkpt>
      <trkpt lat="49.09292" lon="0.01748">
        <ele>24.8</ele>
        <time>2024-03-20T14:23:13Z</time>
      </trkpt>
      <trkpt lat="49.09284" lon="0.01751">
        <ele>24.8</ele>
        <time>2024-03-20T14:23:14Z</time>
      </trkpt>
      <trkpt lat="49.09276" lon="0.01755">
        <ele>24.8</ele>
        <time>2024-03-20T14:23:15Z</time>
      </trkpt>
      <trkpt lat="49.09269" lon="0.01758">
        <ele>24.8</ele>
        <time>2024-03-20T14:23:16Z</time>
      </trkpt>
      <trkpt lat="49.09261" lon="0.01762">
        <ele>24.8</ele>
        <time>2024-03-20T14:23:17Z</time>
      </trkpt>
      <trkpt lat="49.09254" lon="0.01766">
        <ele>24.8</ele>
        <time>2024-03-20T14:23:18Z</time>
      </trkpt>
      <trkpt lat="49.09246" lon="0.0177">
        <ele>24.8</ele>
        <time>2024-03-20T14:23:19Z</time>
      </trkpt>
      <trkpt lat="49.09239" lon="0.01774">
        <ele>24.8</ele>
        <time>2024-03-20T14:23:20Z</time>
      </trkpt>
      <trkpt lat="49.09231" lon="0.01777">
        <ele>24.8</ele>
        <time>2024-03-20T14:23:21Z</time>
      </trkpt>
      <trkpt lat="49.09224" lon="0.01781">
        <ele>25</ele>
        <time>2024-03-20T14:23:22Z</time>
      </trkpt>
      <trkpt lat="49.09216" lon="0.01785">
        <ele>25</ele>
        <time>2024-03-20T14:23:23Z</time>
      </trkpt>
      <trkpt lat="49.09209" lon="0.01789">
        <ele>25</ele>
        <time>2024-03-20T14:23:24Z</time>
      </trkpt>
      <trkpt lat="49.09201" lon="0.01792">
        <ele>25</ele>
        <time>2024-03-20T14:23:25Z</time>
      </trkpt>
      <trkpt lat="49.09194" lon="0.01796">
        <ele>25</ele>
        <time>2024-03-20T14:23:26Z</time>
      </trkpt>
      <trkpt lat="49.09186" lon="0.018">
        <ele>25</ele>
        <time>2024-03-20T14:23:27Z</time>
      </trkpt>
      <trkpt lat="49.09178" lon="0.01803">
        <ele>25</ele>
        <time>2024-03-20T14:23:28Z</time>
      </trkpt>
      <trkpt lat="49.09171" lon="0.01807">
        <ele>25</ele>
        <time>2024-03-20T14:23:29Z</time>
      </trkpt>
      <trkpt lat="49.09163" lon="0.01811">
        <ele>25</ele>
        <time>2024-03-20T14:23:30Z</time>
      </trkpt>
      <trkpt lat="49.09156" lon="0.01814">
        <ele>25.2</ele>
        <time>2024-03-20T14:23:31Z</time>
      </trkpt>
      <trkpt lat="49.09149" lon="0.01818">
        <ele>25.2</ele>
        <time>2024-03-20T14:23:32Z</time>
      </trkpt>
      <trkpt lat="49.09141" lon="0.01822">
        <ele>25.2</ele>
        <time>2024-03-20T14:23:33Z</time>
      </trkpt>
      <trkpt lat="49.09134" lon="0.01825">
        <ele>25.2</ele>
        <time>2024-03-20T14:23:34Z</time>
      </trkpt>
      <trkpt lat="49.09127" lon="0.01829">
        <ele>25.2</ele>
        <time>2024-03-20T14:23:35Z</time>
      </trkpt>
      <trkpt lat="49.09119" lon="0.01833">
        <ele>25.4</ele>
        <time>2024-03-20T14:23:36Z</time>
      </trkpt>
      <trkpt lat="49.09112" lon="0.01836">
        <ele>25.4</ele>
        <time>2024-03-20T14:23:37Z</time>
      </trkpt>
      <trkpt lat="49.09104" lon="0.0184">
        <ele>25.4</ele>
        <time>2024-03-20T14:23:38Z</time>
      </trkpt>
      <trkpt lat="49.09097" lon="0.01844">
        <ele>25.4</ele>
        <time>2024-03-20T14:23:39Z</time>
      </trkpt>
      <trkpt lat="49.0909" lon="0.01848">
        <ele>25.6</ele>
        <time>2024-03-20T14:23:40Z</time>
      </trkpt>
      <trkpt lat="49.09083" lon="0.01852">
        <ele>25.6</ele>
        <time>2024-03-20T14:23:41Z</time>
      </trkpt>
      <trkpt lat="49.09076" lon="0.01855">
        <ele>25.6</ele>
        <time>2024-03-20T14:23:42Z</time>
      </trkpt>
      <trkpt lat="49.0907" lon="0.01859">
        <ele>25.8</ele>
        <time>2024-03-20T14:23:43Z</time>
      </trkpt>
      <trkpt lat="49.09063" lon="0.01862">
        <ele>25.8</ele>
        <time>2024-03-20T14:23:44Z</time>
      </trkpt>
      <trkpt lat="49.09057" lon="0.01866">
        <ele>25.8</ele>
        <time>2024-03-20T14:23:45Z</time>
      </trkpt>
      <trkpt lat="49.09051" lon="0.01868">
        <ele>26</ele>
        <time>2024-03-20T14:23:46Z</time>
      </trkpt>
      <trkpt lat="49.09045" lon="0.01871">
        <ele>26</ele>
        <time>2024-03-20T14:23:47Z</time>
      </trkpt>
      <trkpt lat="49.0904" lon="0.01873">
        <ele>26.2</ele>
        <time>2024-03-20T14:23:48Z</time>
      </trkpt>
      <trkpt lat="49.09034" lon="0.01876">
        <ele>26.4</ele>
        <time>2024-03-20T14:23:49Z</time>
      </trkpt>
      <trkpt lat="49.09029" lon="0.01879">
        <ele>26.6</ele>
        <time>2024-03-20T14:23:50Z</time>
      </trkpt>
      <trkpt lat="49.09024" lon="0.01882">
        <ele>26.8</ele>
        <time>2024-03-20T14:23:51Z</time>
      </trkpt>
      <trkpt lat="49.09019" lon="0.01885">
        <ele>27</ele>
        <time>2024-03-20T14:23:52Z</time>
      </trkpt>
      <trkpt lat="49.09014" lon="0.01887">
        <ele>27.2</ele>
        <time>2024-03-20T14:23:53Z</time>
      </trkpt>
      <trkpt lat="49.0901" lon="0.01889">
        <ele>27.2</ele>
        <time>2024-03-20T14:23:54Z</time>
      </trkpt>
      <trkpt lat="49.09006" lon="0.01892">
        <ele>27.4</ele>
        <time>2024-03-20T14:23:55Z</time>
      </trkpt>
      <trkpt lat="49.09004" lon="0.01895">
        <ele>27.6</ele>
        <time>2024-03-20T14:23:56Z</time>
      </trkpt>
      <trkpt lat="49.09002" lon="0.01899">
        <ele>27.8</ele>
        <time>2024-03-20T14:23:57Z</time>
      </trkpt>
      <trkpt lat="49.09001" lon="0.01905">
        <ele>28</ele>
        <time>2024-03-20T14:23:58Z</time>
      </trkpt>
      <trkpt lat="49.09002" lon="0.01911">
        <ele>28.4</ele>
        <time>2024-03-20T14:23:59Z</time>
      </trkpt>
      <trkpt lat="49.09003" lon="0.01918">
        <ele>28.6</ele>
        <time>2024-03-20T14:24:00Z</time>
      </trkpt>
      <trkpt lat="49.09006" lon="0.01926">
        <ele>28.8</ele>
        <time>2024-03-20T14:24:01Z</time>
      </trkpt>
      <trkpt lat="49.09008" lon="0.01935">
        <ele>28.8</ele>
        <time>2024-03-20T14:24:02Z</time>
      </trkpt>
      <trkpt lat="49.09009" lon="0.01944">
        <ele>28.8</ele>
        <time>2024-03-20T14:24:03Z</time>
      </trkpt>
      <trkpt lat="49.0901" lon="0.01954">
        <ele>28.8</ele>
        <time>2024-03-20T14:24:04Z</time>
      </trkpt>
      <trkpt lat="49.0901" lon="0.01964">
        <ele>28.8</ele>
        <time>2024-03-20T14:24:05Z</time>
      </trkpt>
      <trkpt lat="49.09011" lon="0.01975">
        <ele>28.8</ele>
        <time>2024-03-20T14:24:06Z</time>
      </trkpt>
      <trkpt lat="49.09011" lon="0.01986">
        <ele>28.8</ele>
        <time>2024-03-20T14:24:07Z</time>
      </trkpt>
      <trkpt lat="49.09011" lon="0.01997">
        <ele>28.8</ele>
        <time>2024-03-20T14:24:08Z</time>
      </trkpt>
      <trkpt lat="49.09012" lon="0.02008">
        <ele>28.8</ele>
        <time>2024-03-20T14:24:09Z</time>
      </trkpt>
      <trkpt lat="49.09012" lon="0.0202">
        <ele>28.8</ele>
        <time>2024-03-20T14:24:10Z</time>
      </trkpt>
      <trkpt lat="49.09012" lon="0.02032">
        <ele>28.4</ele>
        <time>2024-03-20T14:24:11Z</time>
      </trkpt>
      <trkpt lat="49.09013" lon="0.02043">
        <ele>28</ele>
        <time>2024-03-20T14:24:12Z</time>
      </trkpt>
      <trkpt lat="49.09013" lon="0.02056">
        <ele>27.6</ele>
        <time>2024-03-20T14:24:13Z</time>
      </trkpt>
      <trkpt lat="49.09014" lon="0.02068">
        <ele>27.4</ele>
        <time>2024-03-20T14:24:14Z</time>
      </trkpt>
      <trkpt lat="49.09014" lon="0.02079">
        <ele>27.4</ele>
        <time>2024-03-20T14:24:15Z</time>
      </trkpt>
      <trkpt lat="49.09015" lon="0.02092">
        <ele>27.2</ele>
        <time>2024-03-20T14:24:16Z</time>
      </trkpt>
      <trkpt lat="49.09015" lon="0.02104">
        <ele>27.2</ele>
        <time>2024-03-20T14:24:17Z</time>
      </trkpt>
      <trkpt lat="49.09015" lon="0.02116">
        <ele>27.2</ele>
        <time>2024-03-20T14:24:18Z</time>
      </trkpt>
      <trkpt lat="49.09016" lon="0.02128">
        <ele>27</ele>
        <time>2024-03-20T14:24:19Z</time>
      </trkpt>
      <trkpt lat="49.09017" lon="0.02141">
        <ele>27</ele>
        <time>2024-03-20T14:24:20Z</time>
      </trkpt>
      <trkpt lat="49.09018" lon="0.02153">
        <ele>27</ele>
        <time>2024-03-20T14:24:21Z</time>
      </trkpt>
      <trkpt lat="49.09019" lon="0.02165">
        <ele>27</ele>
        <time>2024-03-20T14:24:22Z</time>
      </trkpt>
      <trkpt lat="49.0902" lon="0.02177">
        <ele>27</ele>
        <time>2024-03-20T14:24:23Z</time>
      </trkpt>
      <trkpt lat="49.09021" lon="0.0219">
        <ele>27</ele>
        <time>2024-03-20T14:24:24Z</time>
      </trkpt>
      <trkpt lat="49.09021" lon="0.02202">
        <ele>27</ele>
        <time>2024-03-20T14:24:25Z</time>
      </trkpt>
      <trkpt lat="49.09021" lon="0.02214">
        <ele>27</ele>
        <time>2024-03-20T14:24:26Z</time>
      </trkpt>
      <trkpt lat="49.0902" lon="0.02227">
        <ele>27</ele>
        <time>2024-03-20T14:24:27Z</time>
      </trkpt>
      <trkpt lat="49.09018" lon="0.02239">
        <ele>27</ele>
        <time>2024-03-20T14:24:28Z</time>
      </trkpt>
      <trkpt lat="49.09015" lon="0.02251">
        <ele>27</ele>
        <time>2024-03-20T14:24:29Z</time>
      </trkpt>
      <trkpt lat="49.09013" lon="0.02263">
        <ele>27</ele>
        <time>2024-03-20T14:24:30Z</time>
      </trkpt>
      <trkpt lat="49.0901" lon="0.02275">
        <ele>27</ele>
        <time>2024-03-20T14:24:31Z</time>
      </trkpt>
      <trkpt lat="49.09008" lon="0.02287">
        <ele>27</ele>
        <time>2024-03-20T14:24:32Z</time>
      </trkpt>
      <trkpt lat="49.09005" lon="0.02299">
        <ele>27.2</ele>
        <time>2024-03-20T14:24:33Z</time>
      </trkpt>
      <trkpt lat="49.09002" lon="0.0231">
        <ele>27.2</ele>
        <time>2024-03-20T14:24:34Z</time>
      </trkpt>
      <trkpt lat="49.08999" lon="0.02321">
        <ele>27.4</ele>
        <time>2024-03-20T14:24:35Z</time>
      </trkpt>
      <trkpt lat="49.08995" lon="0.02332">
        <ele>27.8</ele>
        <time>2024-03-20T14:24:36Z</time>
      </trkpt>
      <trkpt lat="49.08991" lon="0.02341">
        <ele>27.8</ele>
        <time>2024-03-20T14:24:37Z</time>
      </trkpt>
      <trkpt lat="49.08986" lon="0.02349">
        <ele>28</ele>
        <time>2024-03-20T14:24:38Z</time>
      </trkpt>
      <trkpt lat="49.0898" lon="0.02357">
        <ele>28.2</ele>
        <time>2024-03-20T14:24:39Z</time>
      </trkpt>
      <trkpt lat="49.08975" lon="0.02364">
        <ele>28.2</ele>
        <time>2024-03-20T14:24:40Z</time>
      </trkpt>
      <trkpt lat="49.08969" lon="0.0237">
        <ele>28.4</ele>
        <time>2024-03-20T14:24:41Z</time>
      </trkpt>
      <trkpt lat="49.08963" lon="0.02376">
        <ele>28.4</ele>
        <time>2024-03-20T14:24:42Z</time>
      </trkpt>
      <trkpt lat="49.08956" lon="0.02381">
        <ele>28.4</ele>
        <time>2024-03-20T14:24:43Z</time>
      </trkpt>
      <trkpt lat="49.0895" lon="0.02385">
        <ele>28.4</ele>
        <time>2024-03-20T14:24:44Z</time>
      </trkpt>
      <trkpt lat="49.08943" lon="0.0239">
        <ele>28.6</ele>
        <time>2024-03-20T14:24:45Z</time>
      </trkpt>
      <trkpt lat="49.08936" lon="0.02395">
        <ele>28.8</ele>
        <time>2024-03-20T14:24:46Z</time>
      </trkpt>
      <trkpt lat="49.0893" lon="0.024">
        <ele>29</ele>
        <time>2024-03-20T14:24:47Z</time>
      </trkpt>
      <trkpt lat="49.08924" lon="0.02405">
        <ele>29</ele>
        <time>2024-03-20T14:24:48Z</time>
      </trkpt>
      <trkpt lat="49.08918" lon="0.0241">
        <ele>29.4</ele>
        <time>2024-03-20T14:24:49Z</time>
      </trkpt>
      <trkpt lat="49.08912" lon="0.02416">
        <ele>29.8</ele>
        <time>2024-03-20T14:24:50Z</time>
      </trkpt>
      <trkpt lat="49.08907" lon="0.02423">
        <ele>30</ele>
        <time>2024-03-20T14:24:51Z</time>
      </trkpt>
      <trkpt lat="49.08901" lon="0.02429">
        <ele>30.2</ele>
        <time>2024-03-20T14:24:52Z</time>
      </trkpt>
      <trkpt lat="49.08896" lon="0.02436">
        <ele>30.4</ele>
        <time>2024-03-20T14:24:53Z</time>
      </trkpt>
      <trkpt lat="49.08892" lon="0.02442">
        <ele>30.6</ele>
        <time>2024-03-20T14:24:54Z</time>
      </trkpt>
      <trkpt lat="49.08888" lon="0.02448">
        <ele>30.8</ele>
        <time>2024-03-20T14:24:55Z</time>
      </trkpt>
      <trkpt lat="49.08884" lon="0.02452">
        <ele>31</ele>
        <time>2024-03-20T14:24:56Z</time>
      </trkpt>
      <trkpt lat="49.0888" lon="0.02455">
        <ele>31</ele>
        <time>2024-03-20T14:24:57Z</time>
      </trkpt>
      <trkpt lat="49.08877" lon="0.02457">
        <ele>31</ele>
        <time>2024-03-20T14:24:58Z</time>
      </trkpt>
      <trkpt lat="49.08874" lon="0.02458">
        <ele>31</ele>
        <time>2024-03-20T14:24:59Z</time>
      </trkpt>
      <trkpt lat="49.08871" lon="0.02459">
        <ele>31</ele>
        <time>2024-03-20T14:25:00Z</time>
      </trkpt>
      <trkpt lat="49.08868" lon="0.0246">
        <ele>31.2</ele>
        <time>2024-03-20T14:25:01Z</time>
      </trkpt>
      <trkpt lat="49.08867" lon="0.02461">
        <ele>31.4</ele>
        <time>2024-03-20T14:25:02Z</time>
      </trkpt>
      <trkpt lat="49.08865" lon="0.02461">
        <ele>31.8</ele>
        <time>2024-03-20T14:25:03Z</time>
      </trkpt>
      <trkpt lat="49.08865" lon="0.02461">
        <ele>32</ele>
        <time>2024-03-20T14:25:04Z</time>
      </trkpt>
      <trkpt lat="49.08865" lon="0.02461">
        <ele>32</ele>
        <time>2024-03-20T14:25:05Z</time>
      </trkpt>
      <trkpt lat="49.08872" lon="0.02459">
        <ele>33</ele>
        <time>2024-03-20T14:25:14Z</time>
      </trkpt>
      <trkpt lat="49.08873" lon="0.02458">
        <ele>33</ele>
        <time>2024-03-20T14:25:15Z</time>
      </trkpt>
      <trkpt lat="49.08874" lon="0.02457">
        <ele>33</ele>
        <time>2024-03-20T14:25:16Z</time>
      </trkpt>
      <trkpt lat="49.08875" lon="0.02457">
        <ele>33</ele>
        <time>2024-03-20T14:25:17Z</time>
      </trkpt>
      <trkpt lat="49.08877" lon="0.02457">
        <ele>33</ele>
        <time>2024-03-20T14:25:18Z</time>
      </trkpt>
      <trkpt lat="49.08878" lon="0.02459">
        <ele>33</ele>
        <time>2024-03-20T14:25:19Z</time>
      </trkpt>
      <trkpt lat="49.08878" lon="0.0246">
        <ele>33</ele>
        <time>2024-03-20T14:25:20Z</time>
      </trkpt>
      <trkpt lat="49.08879" lon="0.02461">
        <ele>32.8</ele>
        <time>2024-03-20T14:25:21Z</time>
      </trkpt>
      <trkpt lat="49.0888" lon="0.02462">
        <ele>32.8</ele>
        <time>2024-03-20T14:25:22Z</time>
      </trkpt>
      <trkpt lat="49.0888" lon="0.02462">
        <ele>32.8</ele>
        <time>2024-03-20T14:25:23Z</time>
      </trkpt>
      <trkpt lat="49.08868" lon="0.02458">
        <ele>33</ele>
        <time>2024-03-20T14:28:07Z</time>
      </trkpt>
      <trkpt lat="49.08866" lon="0.02458">
        <ele>33</ele>
        <time>2024-03-20T14:28:08Z</time>
      </trkpt>
      <trkpt lat="49.08863" lon="0.02458">
        <ele>33</ele>
        <time>2024-03-20T14:28:09Z</time>
      </trkpt>
      <trkpt lat="49.08861" lon="0.02458">
        <ele>33</ele>
        <time>2024-03-20T14:28:10Z</time>
      </trkpt>
      <trkpt lat="49.08858" lon="0.02458">
        <ele>33</ele>
        <time>2024-03-20T14:28:11Z</time>
      </trkpt>
      <trkpt lat="49.08855" lon="0.02458">
        <ele>33</ele>
        <time>2024-03-20T14:28:12Z</time>
      </trkpt>
      <trkpt lat="49.08852" lon="0.02457">
        <ele>33</ele>
        <time>2024-03-20T14:28:13Z</time>
      </trkpt>
      <trkpt lat="49.08848" lon="0.02456">
        <ele>33</ele>
        <time>2024-03-20T14:28:14Z</time>
      </trkpt>
      <trkpt lat="49.08845" lon="0.02455">
        <ele>33</ele>
        <time>2024-03-20T14:28:15Z</time>
      </trkpt>
      <trkpt lat="49.08841" lon="0.02454">
        <ele>33</ele>
        <time>2024-03-20T14:28:16Z</time>
      </trkpt>
      <trkpt lat="49.08838" lon="0.02452">
        <ele>33</ele>
        <time>2024-03-20T14:28:17Z</time>
      </trkpt>
      <trkpt lat="49.08834" lon="0.02451">
        <ele>33.2</ele>
        <time>2024-03-20T14:28:18Z</time>
      </trkpt>
      <trkpt lat="49.0883" lon="0.0245">
        <ele>33.2</ele>
        <time>2024-03-20T14:28:19Z</time>
      </trkpt>
      <trkpt lat="49.08826" lon="0.02448">
        <ele>33.2</ele>
        <time>2024-03-20T14:28:20Z</time>
      </trkpt>
      <trkpt lat="49.08823" lon="0.02446">
        <ele>33.2</ele>
        <time>2024-03-20T14:28:21Z</time>
      </trkpt>
      <trkpt lat="49.08818" lon="0.02444">
        <ele>33.2</ele>
        <time>2024-03-20T14:28:22Z</time>
      </trkpt>
      <trkpt lat="49.08814" lon="0.02443">
        <ele>33.2</ele>
        <time>2024-03-20T14:28:23Z</time>
      </trkpt>
      <trkpt lat="49.0881" lon="0.02441">
        <ele>33.2</ele>
        <time>2024-03-20T14:28:24Z</time>
      </trkpt>
      <trkpt lat="49.08806" lon="0.0244">
        <ele>33.4</ele>
        <time>2024-03-20T14:28:25Z</time>
      </trkpt>
      <trkpt lat="49.08803" lon="0.02439">
        <ele>33.6</ele>
        <time>2024-03-20T14:28:26Z</time>
      </trkpt>
      <trkpt lat="49.08799" lon="0.02438">
        <ele>33.8</ele>
        <time>2024-03-20T14:28:27Z</time>
      </trkpt>
      <trkpt lat="49.08795" lon="0.02438">
        <ele>34</ele>
        <time>2024-03-20T14:28:28Z</time>
      </trkpt>
      <trkpt lat="49.08791" lon="0.02438">
        <ele>34.2</ele>
        <time>2024-03-20T14:28:29Z</time>
      </trkpt>
      <trkpt lat="49.08787" lon="0.02439">
        <ele>34.4</ele>
        <time>2024-03-20T14:28:30Z</time>
      </trkpt>
      <trkpt lat="49.08785" lon="0.0244">
        <ele>34.8</ele>
        <time>2024-03-20T14:28:31Z</time>
      </trkpt>
      <trkpt lat="49.08782" lon="0.02442">
        <ele>35</ele>
        <time>2024-03-20T14:28:32Z</time>
      </trkpt>
      <trkpt lat="49.08781" lon="0.02444">
        <ele>35.2</ele>
        <time>2024-03-20T14:28:33Z</time>
      </trkpt>
      <trkpt lat="49.08779" lon="0.02445">
        <ele>35.6</ele>
        <time>2024-03-20T14:28:34Z</time>
      </trkpt>
      <trkpt lat="49.08777" lon="0.02447">
        <ele>36</ele>
        <time>2024-03-20T14:28:35Z</time>
      </trkpt>
      <trkpt lat="49.08776" lon="0.02449">
        <ele>36.4</ele>
        <time>2024-03-20T14:28:36Z</time>
      </trkpt>
      <trkpt lat="49.08775" lon="0.02451">
        <ele>36.8</ele>
        <time>2024-03-20T14:28:37Z</time>
      </trkpt>
      <trkpt lat="49.08773" lon="0.02454">
        <ele>37</ele>
        <time>2024-03-20T14:28:38Z</time>
      </trkpt>
      <trkpt lat="49.08771" lon="0.02457">
        <ele>37.2</ele>
        <time>2024-03-20T14:28:39Z</time>
      </trkpt>
      <trkpt lat="49.08769" lon="0.02462">
        <ele>37.4</ele>
        <time>2024-03-20T14:28:40Z</time>
      </trkpt>
      <trkpt lat="49.08768" lon="0.02467">
        <ele>37.4</ele>
        <time>2024-03-20T14:28:41Z</time>
      </trkpt>
      <trkpt lat="49.08767" lon="0.02474">
        <ele>37.4</ele>
        <time>2024-03-20T14:28:42Z</time>
      </trkpt>
      <trkpt lat="49.08766" lon="0.02482">
        <ele>37.4</ele>
        <time>2024-03-20T14:28:43Z</time>
      </trkpt>
      <trkpt lat="49.08766" lon="0.02491">
        <ele>37.4</ele>
        <time>2024-03-20T14:28:44Z</time>
      </trkpt>
      <trkpt lat="49.08767" lon="0.02501">
        <ele>37.4</ele>
        <time>2024-03-20T14:28:45Z</time>
      </trkpt>
      <trkpt lat="49.08767" lon="0.02513">
        <ele>37.4</ele>
        <time>2024-03-20T14:28:46Z</time>
      </trkpt>
      <trkpt lat="49.08768" lon="0.02525">
        <ele>37.4</ele>
        <time>2024-03-20T14:28:47Z</time>
      </trkpt>
      <trkpt lat="49.0877" lon="0.02537">
        <ele>37.4</ele>
        <time>2024-03-20T14:28:48Z</time>
      </trkpt>
      <trkpt lat="49.08771" lon="0.02549">
        <ele>37.4</ele>
        <time>2024-03-20T14:28:49Z</time>
      </trkpt>
      <trkpt lat="49.08771" lon="0.02562">
        <ele>37.6</ele>
        <time>2024-03-20T14:28:50Z</time>
      </trkpt>
      <trkpt lat="49.08772" lon="0.02574">
        <ele>37.4</ele>
        <time>2024-03-20T14:28:51Z</time>
      </trkpt>
      <trkpt lat="49.08773" lon="0.02587">
        <ele>37.2</ele>
        <time>2024-03-20T14:28:52Z</time>
      </trkpt>
      <trkpt lat="49.08773" lon="0.02599">
        <ele>37</ele>
        <time>2024-03-20T14:28:53Z</time>
      </trkpt>
      <trkpt lat="49.08772" lon="0.02611">
        <ele>36.8</ele>
        <time>2024-03-20T14:28:54Z</time>
      </trkpt>
      <trkpt lat="49.08769" lon="0.02622">
        <ele>36.4</ele>
        <time>2024-03-20T14:28:55Z</time>
      </trkpt>
      <trkpt lat="49.08765" lon="0.02632">
        <ele>35.8</ele>
        <time>2024-03-20T14:28:56Z</time>
      </trkpt>
      <trkpt lat="49.08759" lon="0.02641">
        <ele>35.2</ele>
        <time>2024-03-20T14:28:57Z</time>
      </trkpt>
      <trkpt lat="49.08753" lon="0.02649">
        <ele>34.8</ele>
        <time>2024-03-20T14:28:58Z</time>
      </trkpt>
      <trkpt lat="49.08746" lon="0.02657">
        <ele>34.6</ele>
        <time>2024-03-20T14:28:59Z</time>
      </trkpt>
      <trkpt lat="49.08739" lon="0.02664">
        <ele>34.4</ele>
        <time>2024-03-20T14:29:00Z</time>
      </trkpt>
      <trkpt lat="49.08732" lon="0.02672">
        <ele>34.2</ele>
        <time>2024-03-20T14:29:01Z</time>
      </trkpt>
      <trkpt lat="49.08726" lon="0.0268">
        <ele>34</ele>
        <time>2024-03-20T14:29:02Z</time>
      </trkpt>
      <trkpt lat="49.08719" lon="0.02688">
        <ele>34</ele>
        <time>2024-03-20T14:29:03Z</time>
      </trkpt>
      <trkpt lat="49.08712" lon="0.02696">
        <ele>34</ele>
        <time>2024-03-20T14:29:04Z</time>
      </trkpt>
      <trkpt lat="49.08706" lon="0.02704">
        <ele>34</ele>
        <time>2024-03-20T14:29:05Z</time>
      </trkpt>
      <trkpt lat="49.087" lon="0.02713">
        <ele>34</ele>
        <time>2024-03-20T14:29:06Z</time>
      </trkpt>
      <trkpt lat="49.08694" lon="0.02722">
        <ele>34</ele>
        <time>2024-03-20T14:29:07Z</time>
      </trkpt>
      <trkpt lat="49.08688" lon="0.0273">
        <ele>34</ele>
        <time>2024-03-20T14:29:08Z</time>
      </trkpt>
      <trkpt lat="49.08683" lon="0.0274">
        <ele>33.8</ele>
        <time>2024-03-20T14:29:09Z</time>
      </trkpt>
      <trkpt lat="49.08678" lon="0.02749">
        <ele>33.8</ele>
        <time>2024-03-20T14:29:10Z</time>
      </trkpt>
      <trkpt lat="49.08673" lon="0.02759">
        <ele>33.8</ele>
        <time>2024-03-20T14:29:11Z</time>
      </trkpt>
      <trkpt lat="49.08668" lon="0.02769">
        <ele>33.8</ele>
        <time>2024-03-20T14:29:12Z</time>
      </trkpt>
      <trkpt lat="49.08663" lon="0.02778">
        <ele>33.6</ele>
        <time>2024-03-20T14:29:13Z</time>
      </trkpt>
      <trkpt lat="49.08658" lon="0.02788">
        <ele>33.6</ele>
        <time>2024-03-20T14:29:14Z</time>
      </trkpt>
      <trkpt lat="49.08653" lon="0.02798">
        <ele>33.6</ele>
        <time>2024-03-20T14:29:15Z</time>
      </trkpt>
      <trkpt lat="49.08649" lon="0.02808">
        <ele>33.6</ele>
        <time>2024-03-20T14:29:16Z</time>
      </trkpt>
      <trkpt lat="49.08644" lon="0.02818">
        <ele>33.4</ele>
        <time>2024-03-20T14:29:17Z</time>
      </trkpt>
      <trkpt lat="49.0864" lon="0.02828">
        <ele>33.4</ele>
        <time>2024-03-20T14:29:18Z</time>
      </trkpt>
      <trkpt lat="49.08635" lon="0.02838">
        <ele>33.4</ele>
        <time>2024-03-20T14:29:19Z</time>
      </trkpt>
      <trkpt lat="49.08631" lon="0.02848">
        <ele>33.4</ele>
        <time>2024-03-20T14:29:20Z</time>
      </trkpt>
      <trkpt lat="49.08627" lon="0.02859">
        <ele>33.4</ele>
        <time>2024-03-20T14:29:21Z</time>
      </trkpt>
      <trkpt lat="49.08623" lon="0.02869">
        <ele>33.4</ele>
        <time>2024-03-20T14:29:22Z</time>
      </trkpt>
      <trkpt lat="49.08619" lon="0.0288">
        <ele>33.4</ele>
        <time>2024-03-20T14:29:23Z</time>
      </trkpt>
      <trkpt lat="49.08615" lon="0.0289">
        <ele>33.4</ele>
        <time>2024-03-20T14:29:24Z</time>
      </trkpt>
      <trkpt lat="49.08611" lon="0.02901">
        <ele>33.4</ele>
        <time>2024-03-20T14:29:25Z</time>
      </trkpt>
      <trkpt lat="49.08607" lon="0.02911">
        <ele>33.4</ele>
        <time>2024-03-20T14:29:26Z</time>
      </trkpt>
      <trkpt lat="49.08603" lon="0.02921">
        <ele>33.2</ele>
        <time>2024-03-20T14:29:27Z</time>
      </trkpt>
      <trkpt lat="49.08598" lon="0.02931">
        <ele>33.2</ele>
        <time>2024-03-20T14:29:28Z</time>
      </trkpt>
      <trkpt lat="49.08594" lon="0.02941">
        <ele>33.2</ele>
        <time>2024-03-20T14:29:29Z</time>
      </trkpt>
      <trkpt lat="49.08589" lon="0.0295">
        <ele>33</ele>
        <time>2024-03-20T14:29:30Z</time>
      </trkpt>
      <trkpt lat="49.08584" lon="0.0296">
        <ele>33</ele>
        <time>2024-03-20T14:29:31Z</time>
      </trkpt>
      <trkpt lat="49.0858" lon="0.0297">
        <ele>33</ele>
        <time>2024-03-20T14:29:32Z</time>
      </trkpt>
      <trkpt lat="49.08576" lon="0.02979">
        <ele>33</ele>
        <time>2024-03-20T14:29:33Z</time>
      </trkpt>
      <trkpt lat="49.08572" lon="0.02988">
        <ele>33</ele>
        <time>2024-03-20T14:29:34Z</time>
      </trkpt>
      <trkpt lat="49.08567" lon="0.02997">
        <ele>33</ele>
        <time>2024-03-20T14:29:35Z</time>
      </trkpt>
      <trkpt lat="49.08563" lon="0.03005">
        <ele>33</ele>
        <time>2024-03-20T14:29:36Z</time>
      </trkpt>
      <trkpt lat="49.08559" lon="0.03012">
        <ele>33</ele>
        <time>2024-03-20T14:29:37Z</time>
      </trkpt>
      <trkpt lat="49.08556" lon="0.03018">
        <ele>33</ele>
        <time>2024-03-20T14:29:38Z</time>
      </trkpt>
      <trkpt lat="49.08553" lon="0.03024">
        <ele>33</ele>
        <time>2024-03-20T14:29:39Z</time>
      </trkpt>
      <trkpt lat="49.08549" lon="0.03029">
        <ele>33</ele>
        <time>2024-03-20T14:29:40Z</time>
      </trkpt>
      <trkpt lat="49.08546" lon="0.03034">
        <ele>33</ele>
        <time>2024-03-20T14:29:41Z</time>
      </trkpt>
      <trkpt lat="49.08542" lon="0.03039">
        <ele>33</ele>
        <time>2024-03-20T14:29:42Z</time>
      </trkpt>
      <trkpt lat="49.08539" lon="0.03044">
        <ele>33.2</ele>
        <time>2024-03-20T14:29:43Z</time>
      </trkpt>
      <trkpt lat="49.08535" lon="0.03049">
        <ele>33.2</ele>
        <time>2024-03-20T14:29:44Z</time>
      </trkpt>
      <trkpt lat="49.08532" lon="0.03054">
        <ele>33.4</ele>
        <time>2024-03-20T14:29:45Z</time>
      </trkpt>
      <trkpt lat="49.08528" lon="0.03059">
        <ele>33.4</ele>
        <time>2024-03-20T14:29:46Z</time>
      </trkpt>
      <trkpt lat="49.08524" lon="0.03066">
        <ele>33.4</ele>
        <time>2024-03-20T14:29:47Z</time>
      </trkpt>
      <trkpt lat="49.0852" lon="0.03072">
        <ele>33.6</ele>
        <time>2024-03-20T14:29:48Z</time>
      </trkpt>
      <trkpt lat="49.08516" lon="0.03079">
        <ele>33.6</ele>
        <time>2024-03-20T14:29:49Z</time>
      </trkpt>
      <trkpt lat="49.08511" lon="0.03087">
        <ele>33.6</ele>
        <time>2024-03-20T14:29:50Z</time>
      </trkpt>
      <trkpt lat="49.08506" lon="0.03093">
        <ele>33.6</ele>
        <time>2024-03-20T14:29:51Z</time>
      </trkpt>
      <trkpt lat="49.08501" lon="0.031">
        <ele>33.6</ele>
        <time>2024-03-20T14:29:52Z</time>
      </trkpt>
      <trkpt lat="49.08497" lon="0.03107">
        <ele>33.6</ele>
        <time>2024-03-20T14:29:53Z</time>
      </trkpt>
      <trkpt lat="49.08492" lon="0.03114">
        <ele>33.6</ele>
        <time>2024-03-20T14:29:54Z</time>
      </trkpt>
      <trkpt lat="49.08488" lon="0.03121">
        <ele>33.8</ele>
        <time>2024-03-20T14:29:55Z</time>
      </trkpt>
      <trkpt lat="49.08483" lon="0.03128">
        <ele>33.8</ele>
        <time>2024-03-20T14:29:56Z</time>
      </trkpt>
      <trkpt lat="49.08478" lon="0.03135">
        <ele>33.8</ele>
        <time>2024-03-20T14:29:57Z</time>
      </trkpt>
      <trkpt lat="49.08473" lon="0.03143">
        <ele>33.8</ele>
        <time>2024-03-20T14:29:58Z</time>
      </trkpt>
      <trkpt lat="49.08468" lon="0.0315">
        <ele>33.8</ele>
        <time>2024-03-20T14:29:59Z</time>
      </trkpt>
      <trkpt lat="49.08463" lon="0.03158">
        <ele>33.8</ele>
        <time>2024-03-20T14:30:00Z</time>
      </trkpt>
      <trkpt lat="49.08458" lon="0.03165">
        <ele>33.8</ele>
        <time>2024-03-20T14:30:01Z</time>
      </trkpt>
      <trkpt lat="49.08452" lon="0.03172">
        <ele>33.8</ele>
        <time>2024-03-20T14:30:02Z</time>
      </trkpt>
      <trkpt lat="49.08447" lon="0.03179">
        <ele>34</ele>
        <time>2024-03-20T14:30:03Z</time>
      </trkpt>
      <trkpt lat="49.08442" lon="0.03187">
        <ele>34</ele>
        <time>2024-03-20T14:30:04Z</time>
      </trkpt>
      <trkpt lat="49.08436" lon="0.03195">
        <ele>34.2</ele>
        <time>2024-03-20T14:30:05Z</time>
      </trkpt>
      <trkpt lat="49.08431" lon="0.03203">
        <ele>34.2</ele>
        <time>2024-03-20T14:30:06Z</time>
      </trkpt>
      <trkpt lat="49.08425" lon="0.0321">
        <ele>34.4</ele>
        <time>2024-03-20T14:30:07Z</time>
      </trkpt>
      <trkpt lat="49.0842" lon="0.03218">
        <ele>34.4</ele>
        <time>2024-03-20T14:30:08Z</time>
      </trkpt>
      <trkpt lat="49.08415" lon="0.03226">
        <ele>34.4</ele>
        <time>2024-03-20T14:30:09Z</time>
      </trkpt>
      <trkpt lat="49.0841" lon="0.03234">
        <ele>34.4</ele>
        <time>2024-03-20T14:30:10Z</time>
      </trkpt>
      <trkpt lat="49.08405" lon="0.03242">
        <ele>34.6</ele>
        <time>2024-03-20T14:30:11Z</time>
      </trkpt>
      <trkpt lat="49.084" lon="0.0325">
        <ele>34.6</ele>
        <time>2024-03-20T14:30:12Z</time>
      </trkpt>
      <trkpt lat="49.08395" lon="0.03259">
        <ele>34.6</ele>
        <time>2024-03-20T14:30:13Z</time>
      </trkpt>
      <trkpt lat="49.08391" lon="0.03268">
        <ele>34.6</ele>
        <time>2024-03-20T14:30:14Z</time>
      </trkpt>
      <trkpt lat="49.08388" lon="0.03277">
        <ele>34.6</ele>
        <time>2024-03-20T14:30:15Z</time>
      </trkpt>
      <trkpt lat="49.08385" lon="0.03287">
        <ele>34.6</ele>
        <time>2024-03-20T14:30:16Z</time>
      </trkpt>
      <trkpt lat="49.08382" lon="0.03297">
        <ele>34.6</ele>
        <time>2024-03-20T14:30:17Z</time>
      </trkpt>
      <trkpt lat="49.08379" lon="0.03308">
        <ele>34.6</ele>
        <time>2024-03-20T14:30:18Z</time>
      </trkpt>
      <trkpt lat="49.08377" lon="0.03318">
        <ele>34.6</ele>
        <time>2024-03-20T14:30:19Z</time>
      </trkpt>
      <trkpt lat="49.08374" lon="0.03328">
        <ele>34.6</ele>
        <time>2024-03-20T14:30:20Z</time>
      </trkpt>
      <trkpt lat="49.08372" lon="0.03339">
        <ele>34.6</ele>
        <time>2024-03-20T14:30:21Z</time>
      </trkpt>
      <trkpt lat="49.08369" lon="0.0335">
        <ele>34.6</ele>
        <time>2024-03-20T14:30:22Z</time>
      </trkpt>
      <trkpt lat="49.08367" lon="0.0336">
        <ele>34.6</ele>
        <time>2024-03-20T14:30:23Z</time>
      </trkpt>
      <trkpt lat="49.08364" lon="0.03372">
        <ele>34.6</ele>
        <time>2024-03-20T14:30:24Z</time>
      </trkpt>
      <trkpt lat="49.08361" lon="0.03383">
        <ele>34.6</ele>
        <time>2024-03-20T14:30:25Z</time>
      </trkpt>
      <trkpt lat="49.08358" lon="0.03394">
        <ele>34.6</ele>
        <time>2024-03-20T14:30:26Z</time>
      </trkpt>
      <trkpt lat="49.08356" lon="0.03406">
        <ele>34.6</ele>
        <time>2024-03-20T14:30:27Z</time>
      </trkpt>
      <trkpt lat="49.08353" lon="0.03418">
        <ele>34.6</ele>
        <time>2024-03-20T14:30:28Z</time>
      </trkpt>
      <trkpt lat="49.0835" lon="0.0343">
        <ele>34.6</ele>
        <time>2024-03-20T14:30:29Z</time>
      </trkpt>
      <trkpt lat="49.08348" lon="0.03441">
        <ele>34.6</ele>
        <time>2024-03-20T14:30:30Z</time>
      </trkpt>
      <trkpt lat="49.08345" lon="0.03452">
        <ele>34.4</ele>
        <time>2024-03-20T14:30:31Z</time>
      </trkpt>
      <trkpt lat="49.08343" lon="0.03462">
        <ele>34.4</ele>
        <time>2024-03-20T14:30:32Z</time>
      </trkpt>
      <trkpt lat="49.0834" lon="0.03472">
        <ele>34.4</ele>
        <time>2024-03-20T14:30:33Z</time>
      </trkpt>
      <trkpt lat="49.08338" lon="0.03481">
        <ele>34.2</ele>
        <time>2024-03-20T14:30:34Z</time>
      </trkpt>
      <trkpt lat="49.08335" lon="0.0349">
        <ele>34.2</ele>
        <time>2024-03-20T14:30:35Z</time>
      </trkpt>
      <trkpt lat="49.08333" lon="0.03499">
        <ele>34.2</ele>
        <time>2024-03-20T14:30:36Z</time>
      </trkpt>
      <trkpt lat="49.0833" lon="0.03508">
        <ele>34.2</ele>
        <time>2024-03-20T14:30:37Z</time>
      </trkpt>
      <trkpt lat="49.08328" lon="0.03517">
        <ele>34.2</ele>
        <time>2024-03-20T14:30:38Z</time>
      </trkpt>
      <trkpt lat="49.08326" lon="0.03526">
        <ele>34.2</ele>
        <time>2024-03-20T14:30:39Z</time>
      </trkpt>
      <trkpt lat="49.08324" lon="0.03535">
        <ele>34.2</ele>
        <time>2024-03-20T14:30:40Z</time>
      </trkpt>
      <trkpt lat="49.08322" lon="0.03544">
        <ele>34.4</ele>
        <time>2024-03-20T14:30:41Z</time>
      </trkpt>
      <trkpt lat="49.0832" lon="0.03552">
        <ele>34.4</ele>
        <time>2024-03-20T14:30:42Z</time>
      </trkpt>
      <trkpt lat="49.08318" lon="0.0356">
        <ele>34.6</ele>
        <time>2024-03-20T14:30:43Z</time>
      </trkpt>
      <trkpt lat="49.08315" lon="0.03568">
        <ele>34.8</ele>
        <time>2024-03-20T14:30:44Z</time>
      </trkpt>
      <trkpt lat="49.08313" lon="0.03577">
        <ele>35</ele>
        <time>2024-03-20T14:30:45Z</time>
      </trkpt>
      <trkpt lat="49.08311" lon="0.03585">
        <ele>35.2</ele>
        <time>2024-03-20T14:30:46Z</time>
      </trkpt>
      <trkpt lat="49.08308" lon="0.03594">
        <ele>35.4</ele>
        <time>2024-03-20T14:30:47Z</time>
      </trkpt>
      <trkpt lat="49.08306" lon="0.03602">
        <ele>35.6</ele>
        <time>2024-03-20T14:30:48Z</time>
      </trkpt>
      <trkpt lat="49.08304" lon="0.03611">
        <ele>36</ele>
        <time>2024-03-20T14:30:49Z</time>
      </trkpt>
      <trkpt lat="49.08301" lon="0.0362">
        <ele>36</ele>
        <time>2024-03-20T14:30:50Z</time>
      </trkpt>
      <trkpt lat="49.08299" lon="0.03628">
        <ele>36.4</ele>
        <time>2024-03-20T14:30:51Z</time>
      </trkpt>
      <trkpt lat="49.08296" lon="0.03636">
        <ele>36.4</ele>
        <time>2024-03-20T14:30:52Z</time>
      </trkpt>
      <trkpt lat="49.08292" lon="0.03644">
        <ele>36.8</ele>
        <time>2024-03-20T14:30:53Z</time>
      </trkpt>
      <trkpt lat="49.08289" lon="0.03652">
        <ele>37</ele>
        <time>2024-03-20T14:30:54Z</time>
      </trkpt>
      <trkpt lat="49.08284" lon="0.03659">
        <ele>37.2</ele>
        <time>2024-03-20T14:30:55Z</time>
      </trkpt>
      <trkpt lat="49.0828" lon="0.03666">
        <ele>37.6</ele>
        <time>2024-03-20T14:30:56Z</time>
      </trkpt>
      <trkpt lat="49.08276" lon="0.03673">
        <ele>38</ele>
        <time>2024-03-20T14:30:57Z</time>
      </trkpt>
      <trkpt lat="49.08272" lon="0.0368">
        <ele>38.2</ele>
        <time>2024-03-20T14:30:58Z</time>
      </trkpt>
      <trkpt lat="49.08268" lon="0.03687">
        <ele>38.4</ele>
        <time>2024-03-20T14:30:59Z</time>
      </trkpt>
      <trkpt lat="49.08264" lon="0.03694">
        <ele>38.6</ele>
        <time>2024-03-20T14:31:00Z</time>
      </trkpt>
      <trkpt lat="49.08261" lon="0.03701">
        <ele>38.8</ele>
        <time>2024-03-20T14:31:01Z</time>
      </trkpt>
      <trkpt lat="49.08256" lon="0.03707">
        <ele>38.8</ele>
        <time>2024-03-20T14:31:02Z</time>
      </trkpt>
      <trkpt lat="49.08252" lon="0.03714">
        <ele>39</ele>
        <time>2024-03-20T14:31:03Z</time>
      </trkpt>
      <trkpt lat="49.08247" lon="0.0372">
        <ele>39</ele>
        <time>2024-03-20T14:31:04Z</time>
      </trkpt>
      <trkpt lat="49.08243" lon="0.03726">
        <ele>39</ele>
        <time>2024-03-20T14:31:05Z</time>
      </trkpt>
      <trkpt lat="49.08238" lon="0.03732">
        <ele>39.2</ele>
        <time>2024-03-20T14:31:06Z</time>
      </trkpt>
      <trkpt lat="49.08233" lon="0.03737">
        <ele>39.2</ele>
        <time>2024-03-20T14:31:07Z</time>
      </trkpt>
      <trkpt lat="49.08227" lon="0.03742">
        <ele>39.2</ele>
        <time>2024-03-20T14:31:08Z</time>
      </trkpt>
      <trkpt lat="49.08222" lon="0.03746">
        <ele>39.4</ele>
        <time>2024-03-20T14:31:09Z</time>
      </trkpt>
      <trkpt lat="49.08217" lon="0.0375">
        <ele>39.4</ele>
        <time>2024-03-20T14:31:10Z</time>
      </trkpt>
      <trkpt lat="49.08211" lon="0.03754">
        <ele>39.6</ele>
        <time>2024-03-20T14:31:11Z</time>
      </trkpt>
      <trkpt lat="49.08206" lon="0.03759">
        <ele>39.6</ele>
        <time>2024-03-20T14:31:12Z</time>
      </trkpt>
      <trkpt lat="49.08201" lon="0.03764">
        <ele>39.8</ele>
        <time>2024-03-20T14:31:13Z</time>
      </trkpt>
      <trkpt lat="49.08196" lon="0.03769">
        <ele>39.8</ele>
        <time>2024-03-20T14:31:14Z</time>
      </trkpt>
      <trkpt lat="49.08192" lon="0.03776">
        <ele>39.8</ele>
        <time>2024-03-20T14:31:15Z</time>
      </trkpt>
      <trkpt lat="49.08188" lon="0.03784">
        <ele>39.8</ele>
        <time>2024-03-20T14:31:16Z</time>
      </trkpt>
      <trkpt lat="49.08184" lon="0.03792">
        <ele>39.8</ele>
        <time>2024-03-20T14:31:17Z</time>
      </trkpt>
      <trkpt lat="49.0818" lon="0.038">
        <ele>40</ele>
        <time>2024-03-20T14:31:18Z</time>
      </trkpt>
      <trkpt lat="49.08176" lon="0.03807">
        <ele>40</ele>
        <time>2024-03-20T14:31:19Z</time>
      </trkpt>
      <trkpt lat="49.08173" lon="0.03815">
        <ele>40.2</ele>
        <time>2024-03-20T14:31:20Z</time>
      </trkpt>
      <trkpt lat="49.08169" lon="0.03824">
        <ele>40.4</ele>
        <time>2024-03-20T14:31:21Z</time>
      </trkpt>
      <trkpt lat="49.08166" lon="0.03832">
        <ele>40.4</ele>
        <time>2024-03-20T14:31:22Z</time>
      </trkpt>
      <trkpt lat="49.08162" lon="0.0384">
        <ele>40.4</ele>
        <time>2024-03-20T14:31:23Z</time>
      </trkpt>
      <trkpt lat="49.08159" lon="0.03848">
        <ele>40.6</ele>
        <time>2024-03-20T14:31:24Z</time>
      </trkpt>
      <trkpt lat="49.08156" lon="0.03856">
        <ele>40.6</ele>
        <time>2024-03-20T14:31:25Z</time>
      </trkpt>
      <trkpt lat="49.08153" lon="0.03865">
        <ele>40.6</ele>
        <time>2024-03-20T14:31:26Z</time>
      </trkpt>
      <trkpt lat="49.0815" lon="0.03875">
        <ele>40.8</ele>
        <time>2024-03-20T14:31:27Z</time>
      </trkpt>
      <trkpt lat="49.08147" lon="0.03884">
        <ele>40.8</ele>
        <time>2024-03-20T14:31:28Z</time>
      </trkpt>
      <trkpt lat="49.08143" lon="0.03892">
        <ele>40.8</ele>
        <time>2024-03-20T14:31:29Z</time>
      </trkpt>
      <trkpt lat="49.08138" lon="0.03901">
        <ele>40.8</ele>
        <time>2024-03-20T14:31:30Z</time>
      </trkpt>
      <trkpt lat="49.08133" lon="0.03907">
        <ele>40.8</ele>
        <time>2024-03-20T14:31:31Z</time>
      </trkpt>
      <trkpt lat="49.08128" lon="0.03914">
        <ele>41</ele>
        <time>2024-03-20T14:31:32Z</time>
      </trkpt>
      <trkpt lat="49.08122" lon="0.0392">
        <ele>41</ele>
        <time>2024-03-20T14:31:33Z</time>
      </trkpt>
      <trkpt lat="49.08116" lon="0.03925">
        <ele>41.2</ele>
        <time>2024-03-20T14:31:34Z</time>
      </trkpt>
      <trkpt lat="49.08111" lon="0.0393">
        <ele>41.4</ele>
        <time>2024-03-20T14:31:35Z</time>
      </trkpt>
      <trkpt lat="49.08105" lon="0.03936">
        <ele>41.8</ele>
        <time>2024-03-20T14:31:36Z</time>
      </trkpt>
      <trkpt lat="49.08099" lon="0.03942">
        <ele>42</ele>
        <time>2024-03-20T14:31:37Z</time>
      </trkpt>
      <trkpt lat="49.08093" lon="0.03948">
        <ele>42</ele>
        <time>2024-03-20T14:31:38Z</time>
      </trkpt>
      <trkpt lat="49.08088" lon="0.03955">
        <ele>42.2</ele>
        <time>2024-03-20T14:31:39Z</time>
      </trkpt>
      <trkpt lat="49.08083" lon="0.03962">
        <ele>42.2</ele>
        <time>2024-03-20T14:31:40Z</time>
      </trkpt>
      <trkpt lat="49.08078" lon="0.03971">
        <ele>42.2</ele>
        <time>2024-03-20T14:31:41Z</time>
      </trkpt>
      <trkpt lat="49.08075" lon="0.0398">
        <ele>42.4</ele>
        <time>2024-03-20T14:31:42Z</time>
      </trkpt>
      <trkpt lat="49.08072" lon="0.0399">
        <ele>42.6</ele>
        <time>2024-03-20T14:31:43Z</time>
      </trkpt>
      <trkpt lat="49.08071" lon="0.04002">
        <ele>42.6</ele>
        <time>2024-03-20T14:31:44Z</time>
      </trkpt>
      <trkpt lat="49.0807" lon="0.04013">
        <ele>43</ele>
        <time>2024-03-20T14:31:45Z</time>
      </trkpt>
      <trkpt lat="49.08069" lon="0.04024">
        <ele>43.2</ele>
        <time>2024-03-20T14:31:46Z</time>
      </trkpt>
      <trkpt lat="49.08068" lon="0.04036">
        <ele>43.2</ele>
        <time>2024-03-20T14:31:47Z</time>
      </trkpt>
      <trkpt lat="49.08066" lon="0.04048">
        <ele>43.4</ele>
        <time>2024-03-20T14:31:48Z</time>
      </trkpt>
      <trkpt lat="49.08065" lon="0.04059">
        <ele>43.4</ele>
        <time>2024-03-20T14:31:49Z</time>
      </trkpt>
      <trkpt lat="49.08064" lon="0.04071">
        <ele>43.6</ele>
        <time>2024-03-20T14:31:50Z</time>
      </trkpt>
      <trkpt lat="49.08063" lon="0.04083">
        <ele>43.6</ele>
        <time>2024-03-20T14:31:51Z</time>
      </trkpt>
      <trkpt lat="49.08062" lon="0.04095">
        <ele>43.6</ele>
        <time>2024-03-20T14:31:52Z</time>
      </trkpt>
      <trkpt lat="49.0806" lon="0.04107">
        <ele>43.6</ele>
        <time>2024-03-20T14:31:53Z</time>
      </trkpt>
      <trkpt lat="49.08059" lon="0.04118">
        <ele>43.8</ele>
        <time>2024-03-20T14:31:54Z</time>
      </trkpt>
      <trkpt lat="49.08058" lon="0.0413">
        <ele>43.8</ele>
        <time>2024-03-20T14:31:55Z</time>
      </trkpt>
      <trkpt lat="49.08056" lon="0.04141">
        <ele>43.8</ele>
        <time>2024-03-20T14:31:56Z</time>
      </trkpt>
      <trkpt lat="49.08055" lon="0.04153">
        <ele>43.8</ele>
        <time>2024-03-20T14:31:57Z</time>
      </trkpt>
      <trkpt lat="49.08053" lon="0.04165">
        <ele>43.8</ele>
        <time>2024-03-20T14:31:58Z</time>
      </trkpt>
      <trkpt lat="49.08053" lon="0.04176">
        <ele>43.8</ele>
        <time>2024-03-20T14:31:59Z</time>
      </trkpt>
      <trkpt lat="49.08054" lon="0.04188">
        <ele>43.8</ele>
        <time>2024-03-20T14:32:00Z</time>
      </trkpt>
      <trkpt lat="49.08056" lon="0.04201">
        <ele>43.8</ele>
        <time>2024-03-20T14:32:01Z</time>
      </trkpt>
      <trkpt lat="49.08059" lon="0.04213">
        <ele>43.8</ele>
        <time>2024-03-20T14:32:02Z</time>
      </trkpt>
      <trkpt lat="49.08063" lon="0.04224">
        <ele>43.8</ele>
        <time>2024-03-20T14:32:03Z</time>
      </trkpt>
      <trkpt lat="49.08067" lon="0.04235">
        <ele>43.8</ele>
        <time>2024-03-20T14:32:04Z</time>
      </trkpt>
      <trkpt lat="49.08071" lon="0.04246">
        <ele>43.8</ele>
        <time>2024-03-20T14:32:05Z</time>
      </trkpt>
      <trkpt lat="49.08075" lon="0.04257">
        <ele>43.6</ele>
        <time>2024-03-20T14:32:06Z</time>
      </trkpt>
      <trkpt lat="49.08079" lon="0.04267">
        <ele>43.6</ele>
        <time>2024-03-20T14:32:07Z</time>
      </trkpt>
      <trkpt lat="49.08083" lon="0.04279">
        <ele>43.6</ele>
        <time>2024-03-20T14:32:08Z</time>
      </trkpt>
      <trkpt lat="49.08087" lon="0.0429">
        <ele>43.6</ele>
        <time>2024-03-20T14:32:09Z</time>
      </trkpt>
      <trkpt lat="49.0809" lon="0.04302">
        <ele>43.6</ele>
        <time>2024-03-20T14:32:10Z</time>
      </trkpt>
      <trkpt lat="49.08094" lon="0.04314">
        <ele>43.6</ele>
        <time>2024-03-20T14:32:11Z</time>
      </trkpt>
      <trkpt lat="49.08097" lon="0.04327">
        <ele>43.6</ele>
        <time>2024-03-20T14:32:12Z</time>
      </trkpt>
      <trkpt lat="49.08099" lon="0.0434">
        <ele>43.4</ele>
        <time>2024-03-20T14:32:13Z</time>
      </trkpt>
      <trkpt lat="49.08102" lon="0.04353">
        <ele>43.4</ele>
        <time>2024-03-20T14:32:14Z</time>
      </trkpt>
      <trkpt lat="49.08104" lon="0.04366">
        <ele>43.2</ele>
        <time>2024-03-20T14:32:15Z</time>
      </trkpt>
      <trkpt lat="49.08106" lon="0.0438">
        <ele>43.2</ele>
        <time>2024-03-20T14:32:16Z</time>
      </trkpt>
      <trkpt lat="49.08108" lon="0.04394">
        <ele>43</ele>
        <time>2024-03-20T14:32:17Z</time>
      </trkpt>
      <trkpt lat="49.0811" lon="0.04407">
        <ele>43</ele>
        <time>2024-03-20T14:32:18Z</time>
      </trkpt>
      <trkpt lat="49.08112" lon="0.04421">
        <ele>42.8</ele>
        <time>2024-03-20T14:32:19Z</time>
      </trkpt>
      <trkpt lat="49.08114" lon="0.04435">
        <ele>42.6</ele>
        <time>2024-03-20T14:32:20Z</time>
      </trkpt>
      <trkpt lat="49.08116" lon="0.04449">
        <ele>42.4</ele>
        <time>2024-03-20T14:32:21Z</time>
      </trkpt>
      <trkpt lat="49.08118" lon="0.04463">
        <ele>42.4</ele>
        <time>2024-03-20T14:32:22Z</time>
      </trkpt>
      <trkpt lat="49.0812" lon="0.04478">
        <ele>42.4</ele>
        <time>2024-03-20T14:32:23Z</time>
      </trkpt>
      <trkpt lat="49.08121" lon="0.04493">
        <ele>42.2</ele>
        <time>2024-03-20T14:32:24Z</time>
      </trkpt>
      <trkpt lat="49.08123" lon="0.04508">
        <ele>42</ele>
        <time>2024-03-20T14:32:25Z</time>
      </trkpt>
      <trkpt lat="49.08124" lon="0.04523">
        <ele>42</ele>
        <time>2024-03-20T14:32:26Z</time>
      </trkpt>
      <trkpt lat="49.08126" lon="0.04539">
        <ele>41.8</ele>
        <time>2024-03-20T14:32:27Z</time>
      </trkpt>
      <trkpt lat="49.08127" lon="0.04554">
        <ele>41.8</ele>
        <time>2024-03-20T14:32:28Z</time>
      </trkpt>
      <trkpt lat="49.08129" lon="0.04569">
        <ele>41.8</ele>
        <time>2024-03-20T14:32:29Z</time>
      </trkpt>
      <trkpt lat="49.08129" lon="0.04585">
        <ele>41.6</ele>
        <time>2024-03-20T14:32:30Z</time>
      </trkpt>
      <trkpt lat="49.0813" lon="0.046">
        <ele>41.4</ele>
        <time>2024-03-20T14:32:31Z</time>
      </trkpt>
      <trkpt lat="49.08131" lon="0.04615">
        <ele>41.2</ele>
        <time>2024-03-20T14:32:32Z</time>
      </trkpt>
      <trkpt lat="49.08131" lon="0.0463">
        <ele>41.2</ele>
        <time>2024-03-20T14:32:33Z</time>
      </trkpt>
      <trkpt lat="49.08131" lon="0.04645">
        <ele>41</ele>
        <time>2024-03-20T14:32:34Z</time>
      </trkpt>
      <trkpt lat="49.08131" lon="0.0466">
        <ele>40.6</ele>
        <time>2024-03-20T14:32:35Z</time>
      </trkpt>
      <trkpt lat="49.0813" lon="0.04675">
        <ele>40.4</ele>
        <time>2024-03-20T14:32:36Z</time>
      </trkpt>
      <trkpt lat="49.08129" lon="0.04689">
        <ele>40.2</ele>
        <time>2024-03-20T14:32:37Z</time>
      </trkpt>
      <trkpt lat="49.08128" lon="0.04703">
        <ele>40.2</ele>
        <time>2024-03-20T14:32:38Z</time>
      </trkpt>
      <trkpt lat="49.08127" lon="0.04717">
        <ele>40</ele>
        <time>2024-03-20T14:32:39Z</time>
      </trkpt>
      <trkpt lat="49.08125" lon="0.04731">
        <ele>40</ele>
        <time>2024-03-20T14:32:40Z</time>
      </trkpt>
      <trkpt lat="49.08123" lon="0.04744">
        <ele>40</ele>
        <time>2024-03-20T14:32:41Z</time>
      </trkpt>
      <trkpt lat="49.08121" lon="0.04758">
        <ele>40</ele>
        <time>2024-03-20T14:32:42Z</time>
      </trkpt>
      <trkpt lat="49.0812" lon="0.04772">
        <ele>40</ele>
        <time>2024-03-20T14:32:43Z</time>
      </trkpt>
      <trkpt lat="49.08118" lon="0.04785">
        <ele>39.8</ele>
        <time>2024-03-20T14:32:44Z</time>
      </trkpt>
      <trkpt lat="49.08117" lon="0.04799">
        <ele>39.8</ele>
        <time>2024-03-20T14:32:45Z</time>
      </trkpt>
      <trkpt lat="49.08115" lon="0.04812">
        <ele>39.6</ele>
        <time>2024-03-20T14:32:46Z</time>
      </trkpt>
      <trkpt lat="49.08114" lon="0.04825">
        <ele>39.6</ele>
        <time>2024-03-20T14:32:47Z</time>
      </trkpt>
      <trkpt lat="49.08113" lon="0.04837">
        <ele>39.4</ele>
        <time>2024-03-20T14:32:48Z</time>
      </trkpt>
      <trkpt lat="49.08111" lon="0.0485">
        <ele>39.2</ele>
        <time>2024-03-20T14:32:49Z</time>
      </trkpt>
      <trkpt lat="49.08108" lon="0.04862">
        <ele>39.2</ele>
        <time>2024-03-20T14:32:50Z</time>
      </trkpt>
      <trkpt lat="49.08105" lon="0.04874">
        <ele>39.2</ele>
        <time>2024-03-20T14:32:51Z</time>
      </trkpt>
      <trkpt lat="49.08102" lon="0.04886">
        <ele>39.2</ele>
        <time>2024-03-20T14:32:52Z</time>
      </trkpt>
      <trkpt lat="49.08098" lon="0.04898">
        <ele>39.2</ele>
        <time>2024-03-20T14:32:53Z</time>
      </trkpt>
      <trkpt lat="49.08095" lon="0.0491">
        <ele>39</ele>
        <time>2024-03-20T14:32:54Z</time>
      </trkpt>
      <trkpt lat="49.08091" lon="0.04921">
        <ele>39</ele>
        <time>2024-03-20T14:32:55Z</time>
      </trkpt>
      <trkpt lat="49.08088" lon="0.04931">
        <ele>38.8</ele>
        <time>2024-03-20T14:32:56Z</time>
      </trkpt>
      <trkpt lat="49.08085" lon="0.04943">
        <ele>38.8</ele>
        <time>2024-03-20T14:32:57Z</time>
      </trkpt>
      <trkpt lat="49.08082" lon="0.04955">
        <ele>38.6</ele>
        <time>2024-03-20T14:32:58Z</time>
      </trkpt>
      <trkpt lat="49.0808" lon="0.04966">
        <ele>38.6</ele>
        <time>2024-03-20T14:32:59Z</time>
      </trkpt>
      <trkpt lat="49.08078" lon="0.04978">
        <ele>38.4</ele>
        <time>2024-03-20T14:33:00Z</time>
      </trkpt>
      <trkpt lat="49.08077" lon="0.0499">
        <ele>38.4</ele>
        <time>2024-03-20T14:33:01Z</time>
      </trkpt>
      <trkpt lat="49.08078" lon="0.05001">
        <ele>38.4</ele>
        <time>2024-03-20T14:33:02Z</time>
      </trkpt>
      <trkpt lat="49.08079" lon="0.05013">
        <ele>38.4</ele>
        <time>2024-03-20T14:33:03Z</time>
      </trkpt>
      <trkpt lat="49.08082" lon="0.05025">
        <ele>38.4</ele>
        <time>2024-03-20T14:33:04Z</time>
      </trkpt>
      <trkpt lat="49.08085" lon="0.05037">
        <ele>38.2</ele>
        <time>2024-03-20T14:33:05Z</time>
      </trkpt>
      <trkpt lat="49.08089" lon="0.05048">
        <ele>38.2</ele>
        <time>2024-03-20T14:33:06Z</time>
      </trkpt>
      <trkpt lat="49.08094" lon="0.05058">
        <ele>38</ele>
        <time>2024-03-20T14:33:07Z</time>
      </trkpt>
      <trkpt lat="49.08098" lon="0.05069">
        <ele>38</ele>
        <time>2024-03-20T14:33:08Z</time>
      </trkpt>
      <trkpt lat="49.08103" lon="0.05079">
        <ele>38</ele>
        <time>2024-03-20T14:33:09Z</time>
      </trkpt>
      <trkpt lat="49.08107" lon="0.0509">
        <ele>38</ele>
        <time>2024-03-20T14:33:10Z</time>
      </trkpt>
      <trkpt lat="49.0811" lon="0.051">
        <ele>38</ele>
        <time>2024-03-20T14:33:11Z</time>
      </trkpt>
      <trkpt lat="49.08114" lon="0.05111">
        <ele>38</ele>
        <time>2024-03-20T14:33:12Z</time>
      </trkpt>
      <trkpt lat="49.08117" lon="0.05121">
        <ele>38</ele>
        <time>2024-03-20T14:33:13Z</time>
      </trkpt>
      <trkpt lat="49.08121" lon="0.05132">
        <ele>38</ele>
        <time>2024-03-20T14:33:14Z</time>
      </trkpt>
      <trkpt lat="49.08124" lon="0.05142">
        <ele>38</ele>
        <time>2024-03-20T14:33:15Z</time>
      </trkpt>
      <trkpt lat="49.08127" lon="0.05153">
        <ele>38</ele>
        <time>2024-03-20T14:33:16Z</time>
      </trkpt>
      <trkpt lat="49.08131" lon="0.05163">
        <ele>38</ele>
        <time>2024-03-20T14:33:17Z</time>
      </trkpt>
      <trkpt lat="49.08134" lon="0.05174">
        <ele>38</ele>
        <time>2024-03-20T14:33:18Z</time>
      </trkpt>
      <trkpt lat="49.08138" lon="0.05185">
        <ele>38</ele>
        <time>2024-03-20T14:33:19Z</time>
      </trkpt>
      <trkpt lat="49.08141" lon="0.05195">
        <ele>38</ele>
        <time>2024-03-20T14:33:20Z</time>
      </trkpt>
      <trkpt lat="49.08145" lon="0.05206">
        <ele>38</ele>
        <time>2024-03-20T14:33:21Z</time>
      </trkpt>
      <trkpt lat="49.08148" lon="0.05217">
        <ele>37.8</ele>
        <time>2024-03-20T14:33:22Z</time>
      </trkpt>
      <trkpt lat="49.08152" lon="0.05228">
        <ele>37.8</ele>
        <time>2024-03-20T14:33:23Z</time>
      </trkpt>
      <trkpt lat="49.08155" lon="0.05238">
        <ele>37.8</ele>
        <time>2024-03-20T14:33:24Z</time>
      </trkpt>
      <trkpt lat="49.08158" lon="0.05249">
        <ele>38</ele>
        <time>2024-03-20T14:33:25Z</time>
      </trkpt>
      <trkpt lat="49.08161" lon="0.0526">
        <ele>37.8</ele>
        <time>2024-03-20T14:33:26Z</time>
      </trkpt>
      <trkpt lat="49.08164" lon="0.0527">
        <ele>38</ele>
        <time>2024-03-20T14:33:27Z</time>
      </trkpt>
      <trkpt lat="49.08168" lon="0.05281">
        <ele>38</ele>
        <time>2024-03-20T14:33:28Z</time>
      </trkpt>
      <trkpt lat="49.08171" lon="0.05292">
        <ele>38</ele>
        <time>2024-03-20T14:33:29Z</time>
      </trkpt>
      <trkpt lat="49.08174" lon="0.05302">
        <ele>38</ele>
        <time>2024-03-20T14:33:30Z</time>
      </trkpt>
      <trkpt lat="49.08177" lon="0.05312">
        <ele>38</ele>
        <time>2024-03-20T14:33:31Z</time>
      </trkpt>
      <trkpt lat="49.0818" lon="0.05322">
        <ele>38</ele>
        <time>2024-03-20T14:33:32Z</time>
      </trkpt>
      <trkpt lat="49.08184" lon="0.0533">
        <ele>38</ele>
        <time>2024-03-20T14:33:33Z</time>
      </trkpt>
      <trkpt lat="49.08189" lon="0.05339">
        <ele>38</ele>
        <time>2024-03-20T14:33:34Z</time>
      </trkpt>
      <trkpt lat="49.08195" lon="0.05346">
        <ele>38</ele>
        <time>2024-03-20T14:33:35Z</time>
      </trkpt>
      <trkpt lat="49.08201" lon="0.05353">
        <ele>38</ele>
        <time>2024-03-20T14:33:36Z</time>
      </trkpt>
      <trkpt lat="49.08208" lon="0.05359">
        <ele>38.2</ele>
        <time>2024-03-20T14:33:37Z</time>
      </trkpt>
      <trkpt lat="49.08215" lon="0.05365">
        <ele>38.2</ele>
        <time>2024-03-20T14:33:38Z</time>
      </trkpt>
      <trkpt lat="49.08222" lon="0.05371">
        <ele>38.2</ele>
        <time>2024-03-20T14:33:39Z</time>
      </trkpt>
      <trkpt lat="49.08229" lon="0.05376">
        <ele>38.2</ele>
        <time>2024-03-20T14:33:40Z</time>
      </trkpt>
      <trkpt lat="49.08235" lon="0.05383">
        <ele>38.2</ele>
        <time>2024-03-20T14:33:41Z</time>
      </trkpt>
      <trkpt lat="49.08241" lon="0.05389">
        <ele>38.4</ele>
        <time>2024-03-20T14:33:42Z</time>
      </trkpt>
      <trkpt lat="49.08247" lon="0.05397">
        <ele>38.4</ele>
        <time>2024-03-20T14:33:43Z</time>
      </trkpt>
      <trkpt lat="49.08253" lon="0.05406">
        <ele>38.6</ele>
        <time>2024-03-20T14:33:44Z</time>
      </trkpt>
      <trkpt lat="49.08257" lon="0.05416">
        <ele>38.6</ele>
        <time>2024-03-20T14:33:45Z</time>
      </trkpt>
      <trkpt lat="49.08262" lon="0.05426">
        <ele>38.6</ele>
        <time>2024-03-20T14:33:46Z</time>
      </trkpt>
      <trkpt lat="49.08265" lon="0.05437">
        <ele>38.6</ele>
        <time>2024-03-20T14:33:47Z</time>
      </trkpt>
      <trkpt lat="49.08269" lon="0.05448">
        <ele>38.6</ele>
        <time>2024-03-20T14:33:48Z</time>
      </trkpt>
      <trkpt lat="49.08272" lon="0.05459">
        <ele>38.6</ele>
        <time>2024-03-20T14:33:49Z</time>
      </trkpt>
      <trkpt lat="49.08275" lon="0.0547">
        <ele>38.4</ele>
        <time>2024-03-20T14:33:50Z</time>
      </trkpt>
      <trkpt lat="49.08279" lon="0.05481">
        <ele>38.4</ele>
        <time>2024-03-20T14:33:51Z</time>
      </trkpt>
      <trkpt lat="49.08282" lon="0.05492">
        <ele>38.4</ele>
        <time>2024-03-20T14:33:52Z</time>
      </trkpt>
      <trkpt lat="49.08285" lon="0.05503">
        <ele>38.4</ele>
        <time>2024-03-20T14:33:53Z</time>
      </trkpt>
      <trkpt lat="49.08287" lon="0.05515">
        <ele>38.4</ele>
        <time>2024-03-20T14:33:54Z</time>
      </trkpt>
      <trkpt lat="49.08289" lon="0.05526">
        <ele>38.2</ele>
        <time>2024-03-20T14:33:55Z</time>
      </trkpt>
      <trkpt lat="49.08291" lon="0.05538">
        <ele>38.4</ele>
        <time>2024-03-20T14:33:56Z</time>
      </trkpt>
      <trkpt lat="49.08292" lon="0.05551">
        <ele>38.2</ele>
        <time>2024-03-20T14:33:57Z</time>
      </trkpt>
      <trkpt lat="49.08292" lon="0.05563">
        <ele>38.2</ele>
        <time>2024-03-20T14:33:58Z</time>
      </trkpt>
      <trkpt lat="49.08292" lon="0.05576">
        <ele>38.2</ele>
        <time>2024-03-20T14:33:59Z</time>
      </trkpt>
      <trkpt lat="49.08292" lon="0.05588">
        <ele>38</ele>
        <time>2024-03-20T14:34:00Z</time>
      </trkpt>
      <trkpt lat="49.08292" lon="0.056">
        <ele>38</ele>
        <time>2024-03-20T14:34:01Z</time>
      </trkpt>
      <trkpt lat="49.08292" lon="0.05611">
        <ele>38</ele>
        <time>2024-03-20T14:34:02Z</time>
      </trkpt>
      <trkpt lat="49.08292" lon="0.05623">
        <ele>38</ele>
        <time>2024-03-20T14:34:03Z</time>
      </trkpt>
      <trkpt lat="49.08291" lon="0.05635">
        <ele>38</ele>
        <time>2024-03-20T14:34:04Z</time>
      </trkpt>
      <trkpt lat="49.08291" lon="0.05646">
        <ele>38</ele>
        <time>2024-03-20T14:34:05Z</time>
      </trkpt>
      <trkpt lat="49.08291" lon="0.05658">
        <ele>38</ele>
        <time>2024-03-20T14:34:06Z</time>
      </trkpt>
      <trkpt lat="49.08291" lon="0.05669">
        <ele>38</ele>
        <time>2024-03-20T14:34:07Z</time>
      </trkpt>
      <trkpt lat="49.08291" lon="0.05681">
        <ele>38.2</ele>
        <time>2024-03-20T14:34:08Z</time>
      </trkpt>
      <trkpt lat="49.0829" lon="0.05693">
        <ele>38.2</ele>
        <time>2024-03-20T14:34:09Z</time>
      </trkpt>
      <trkpt lat="49.0829" lon="0.05706">
        <ele>38</ele>
        <time>2024-03-20T14:34:10Z</time>
      </trkpt>
      <trkpt lat="49.0829" lon="0.05718">
        <ele>38.2</ele>
        <time>2024-03-20T14:34:11Z</time>
      </trkpt>
      <trkpt lat="49.0829" lon="0.0573">
        <ele>38.2</ele>
        <time>2024-03-20T14:34:12Z</time>
      </trkpt>
      <trkpt lat="49.0829" lon="0.05743">
        <ele>38.2</ele>
        <time>2024-03-20T14:34:13Z</time>
      </trkpt>
      <trkpt lat="49.0829" lon="0.05755">
        <ele>38.2</ele>
        <time>2024-03-20T14:34:14Z</time>
      </trkpt>
      <trkpt lat="49.08289" lon="0.05767">
        <ele>38.2</ele>
        <time>2024-03-20T14:34:15Z</time>
      </trkpt>
      <trkpt lat="49.08289" lon="0.05779">
        <ele>38.2</ele>
        <time>2024-03-20T14:34:16Z</time>
      </trkpt>
      <trkpt lat="49.08288" lon="0.05791">
        <ele>38.2</ele>
        <time>2024-03-20T14:34:17Z</time>
      </trkpt>
      <trkpt lat="49.08287" lon="0.05804">
        <ele>38.4</ele>
        <time>2024-03-20T14:34:18Z</time>
      </trkpt>
      <trkpt lat="49.08286" lon="0.05816">
        <ele>38.4</ele>
        <time>2024-03-20T14:34:19Z</time>
      </trkpt>
      <trkpt lat="49.08284" lon="0.05828">
        <ele>38.4</ele>
        <time>2024-03-20T14:34:20Z</time>
      </trkpt>
      <trkpt lat="49.08281" lon="0.05839">
        <ele>38.4</ele>
        <time>2024-03-20T14:34:21Z</time>
      </trkpt>
      <trkpt lat="49.08278" lon="0.05851">
        <ele>38.4</ele>
        <time>2024-03-20T14:34:22Z</time>
      </trkpt>
      <trkpt lat="49.08275" lon="0.05862">
        <ele>38.4</ele>
        <time>2024-03-20T14:34:23Z</time>
      </trkpt>
      <trkpt lat="49.08271" lon="0.05873">
        <ele>38.2</ele>
        <time>2024-03-20T14:34:24Z</time>
      </trkpt>
      <trkpt lat="49.08268" lon="0.05885">
        <ele>38.4</ele>
        <time>2024-03-20T14:34:25Z</time>
      </trkpt>
      <trkpt lat="49.08265" lon="0.05896">
        <ele>38.4</ele>
        <time>2024-03-20T14:34:26Z</time>
      </trkpt>
      <trkpt lat="49.08262" lon="0.05906">
        <ele>38.4</ele>
        <time>2024-03-20T14:34:27Z</time>
      </trkpt>
      <trkpt lat="49.08259" lon="0.05917">
        <ele>38.4</ele>
        <time>2024-03-20T14:34:28Z</time>
      </trkpt>
      <trkpt lat="49.08256" lon="0.05928">
        <ele>38.4</ele>
        <time>2024-03-20T14:34:29Z</time>
      </trkpt>
      <trkpt lat="49.08253" lon="0.05939">
        <ele>38.4</ele>
        <time>2024-03-20T14:34:30Z</time>
      </trkpt>
      <trkpt lat="49.08249" lon="0.0595">
        <ele>38.6</ele>
        <time>2024-03-20T14:34:31Z</time>
      </trkpt>
      <trkpt lat="49.08246" lon="0.0596">
        <ele>38.6</ele>
        <time>2024-03-20T14:34:32Z</time>
      </trkpt>
      <trkpt lat="49.08242" lon="0.0597">
        <ele>38.6</ele>
        <time>2024-03-20T14:34:33Z</time>
      </trkpt>
      <trkpt lat="49.08237" lon="0.0598">
        <ele>38.6</ele>
        <time>2024-03-20T14:34:34Z</time>
      </trkpt>
      <trkpt lat="49.08232" lon="0.05989">
        <ele>38.6</ele>
        <time>2024-03-20T14:34:35Z</time>
      </trkpt>
      <trkpt lat="49.08226" lon="0.05998">
        <ele>38.8</ele>
        <time>2024-03-20T14:34:36Z</time>
      </trkpt>
      <trkpt lat="49.0822" lon="0.06006">
        <ele>38.8</ele>
        <time>2024-03-20T14:34:37Z</time>
      </trkpt>
      <trkpt lat="49.08214" lon="0.06015">
        <ele>38.8</ele>
        <time>2024-03-20T14:34:38Z</time>
      </trkpt>
      <trkpt lat="49.08208" lon="0.06023">
        <ele>39</ele>
        <time>2024-03-20T14:34:39Z</time>
      </trkpt>
      <trkpt lat="49.08202" lon="0.0603">
        <ele>39</ele>
        <time>2024-03-20T14:34:40Z</time>
      </trkpt>
      <trkpt lat="49.08197" lon="0.06039">
        <ele>39</ele>
        <time>2024-03-20T14:34:41Z</time>
      </trkpt>
      <trkpt lat="49.08191" lon="0.06047">
        <ele>39</ele>
        <time>2024-03-20T14:34:42Z</time>
      </trkpt>
      <trkpt lat="49.08186" lon="0.06057">
        <ele>39</ele>
        <time>2024-03-20T14:34:43Z</time>
      </trkpt>
      <trkpt lat="49.08181" lon="0.06067">
        <ele>39</ele>
        <time>2024-03-20T14:34:44Z</time>
      </trkpt>
      <trkpt lat="49.08177" lon="0.06078">
        <ele>39</ele>
        <time>2024-03-20T14:34:45Z</time>
      </trkpt>
      <trkpt lat="49.08173" lon="0.06088">
        <ele>39</ele>
        <time>2024-03-20T14:34:46Z</time>
      </trkpt>
      <trkpt lat="49.08169" lon="0.06099">
        <ele>39</ele>
        <time>2024-03-20T14:34:47Z</time>
      </trkpt>
      <trkpt lat="49.08165" lon="0.0611">
        <ele>39</ele>
        <time>2024-03-20T14:34:48Z</time>
      </trkpt>
      <trkpt lat="49.08162" lon="0.06121">
        <ele>39</ele>
        <time>2024-03-20T14:34:49Z</time>
      </trkpt>
      <trkpt lat="49.08159" lon="0.06133">
        <ele>38.8</ele>
        <time>2024-03-20T14:34:50Z</time>
      </trkpt>
      <trkpt lat="49.08156" lon="0.06145">
        <ele>38.6</ele>
        <time>2024-03-20T14:34:51Z</time>
      </trkpt>
      <trkpt lat="49.08153" lon="0.06156">
        <ele>38.6</ele>
        <time>2024-03-20T14:34:52Z</time>
      </trkpt>
      <trkpt lat="49.08149" lon="0.06167">
        <ele>38.6</ele>
        <time>2024-03-20T14:34:53Z</time>
      </trkpt>
      <trkpt lat="49.08145" lon="0.06178">
        <ele>38.6</ele>
        <time>2024-03-20T14:34:54Z</time>
      </trkpt>
      <trkpt lat="49.0814" lon="0.06188">
        <ele>38.4</ele>
        <time>2024-03-20T14:34:55Z</time>
      </trkpt>
      <trkpt lat="49.08136" lon="0.06198">
        <ele>38.4</ele>
        <time>2024-03-20T14:34:56Z</time>
      </trkpt>
      <trkpt lat="49.08132" lon="0.06208">
        <ele>38.4</ele>
        <time>2024-03-20T14:34:57Z</time>
      </trkpt>
      <trkpt lat="49.08127" lon="0.06218">
        <ele>38.4</ele>
        <time>2024-03-20T14:34:58Z</time>
      </trkpt>
      <trkpt lat="49.08123" lon="0.06227">
        <ele>38.4</ele>
        <time>2024-03-20T14:34:59Z</time>
      </trkpt>
      <trkpt lat="49.08118" lon="0.06237">
        <ele>38.4</ele>
        <time>2024-03-20T14:35:00Z</time>
      </trkpt>
      <trkpt lat="49.08114" lon="0.06247">
        <ele>38.6</ele>
        <time>2024-03-20T14:35:01Z</time>
      </trkpt>
      <trkpt lat="49.0811" lon="0.06256">
        <ele>38.6</ele>
        <time>2024-03-20T14:35:02Z</time>
      </trkpt>
      <trkpt lat="49.08105" lon="0.06266">
        <ele>38.4</ele>
        <time>2024-03-20T14:35:03Z</time>
      </trkpt>
      <trkpt lat="49.081" lon="0.06275">
        <ele>38.6</ele>
        <time>2024-03-20T14:35:04Z</time>
      </trkpt>
      <trkpt lat="49.08096" lon="0.06285">
        <ele>38.6</ele>
        <time>2024-03-20T14:35:05Z</time>
      </trkpt>
      <trkpt lat="49.08091" lon="0.06295">
        <ele>38.8</ele>
        <time>2024-03-20T14:35:06Z</time>
      </trkpt>
      <trkpt lat="49.08086" lon="0.06304">
        <ele>38.8</ele>
        <time>2024-03-20T14:35:07Z</time>
      </trkpt>
      <trkpt lat="49.08082" lon="0.06314">
        <ele>39</ele>
        <time>2024-03-20T14:35:08Z</time>
      </trkpt>
      <trkpt lat="49.08077" lon="0.06324">
        <ele>39</ele>
        <time>2024-03-20T14:35:09Z</time>
      </trkpt>
      <trkpt lat="49.08073" lon="0.06335">
        <ele>39</ele>
        <time>2024-03-20T14:35:10Z</time>
      </trkpt>
      <trkpt lat="49.08068" lon="0.06345">
        <ele>39</ele>
        <time>2024-03-20T14:35:11Z</time>
      </trkpt>
      <trkpt lat="49.08064" lon="0.06355">
        <ele>39</ele>
        <time>2024-03-20T14:35:12Z</time>
      </trkpt>
      <trkpt lat="49.0806" lon="0.06366">
        <ele>39</ele>
        <time>2024-03-20T14:35:13Z</time>
      </trkpt>
      <trkpt lat="49.08056" lon="0.06377">
        <ele>39</ele>
        <time>2024-03-20T14:35:14Z</time>
      </trkpt>
      <trkpt lat="49.08052" lon="0.06388">
        <ele>39.2</ele>
        <time>2024-03-20T14:35:15Z</time>
      </trkpt>
      <trkpt lat="49.08048" lon="0.06398">
        <ele>39.2</ele>
        <time>2024-03-20T14:35:16Z</time>
      </trkpt>
      <trkpt lat="49.08044" lon="0.06409">
        <ele>39.4</ele>
        <time>2024-03-20T14:35:17Z</time>
      </trkpt>
      <trkpt lat="49.08039" lon="0.0642">
        <ele>39.4</ele>
        <time>2024-03-20T14:35:18Z</time>
      </trkpt>
      <trkpt lat="49.08035" lon="0.06431">
        <ele>39.6</ele>
        <time>2024-03-20T14:35:19Z</time>
      </trkpt>
      <trkpt lat="49.0803" lon="0.06442">
        <ele>39.6</ele>
        <time>2024-03-20T14:35:20Z</time>
      </trkpt>
      <trkpt lat="49.08025" lon="0.06452">
        <ele>39.8</ele>
        <time>2024-03-20T14:35:21Z</time>
      </trkpt>
      <trkpt lat="49.08021" lon="0.06463">
        <ele>39.8</ele>
        <time>2024-03-20T14:35:22Z</time>
      </trkpt>
      <trkpt lat="49.08016" lon="0.06473">
        <ele>39.8</ele>
        <time>2024-03-20T14:35:23Z</time>
      </trkpt>
      <trkpt lat="49.0801" lon="0.06483">
        <ele>39.8</ele>
        <time>2024-03-20T14:35:24Z</time>
      </trkpt>
      <trkpt lat="49.08005" lon="0.06493">
        <ele>39.8</ele>
        <time>2024-03-20T14:35:25Z</time>
      </trkpt>
      <trkpt lat="49.08" lon="0.06503">
        <ele>39.8</ele>
        <time>2024-03-20T14:35:26Z</time>
      </trkpt>
      <trkpt lat="49.07996" lon="0.06513">
        <ele>39.8</ele>
        <time>2024-03-20T14:35:27Z</time>
      </trkpt>
      <trkpt lat="49.07991" lon="0.06523">
        <ele>39.8</ele>
        <time>2024-03-20T14:35:28Z</time>
      </trkpt>
      <trkpt lat="49.07986" lon="0.06534">
        <ele>39.8</ele>
        <time>2024-03-20T14:35:29Z</time>
      </trkpt>
      <trkpt lat="49.07981" lon="0.06543">
        <ele>39.8</ele>
        <time>2024-03-20T14:35:30Z</time>
      </trkpt>
      <trkpt lat="49.07976" lon="0.06553">
        <ele>39.8</ele>
        <time>2024-03-20T14:35:31Z</time>
      </trkpt>
      <trkpt lat="49.07971" lon="0.06563">
        <ele>39.6</ele>
        <time>2024-03-20T14:35:32Z</time>
      </trkpt>
      <trkpt lat="49.07967" lon="0.06573">
        <ele>39.6</ele>
        <time>2024-03-20T14:35:33Z</time>
      </trkpt>
      <trkpt lat="49.07962" lon="0.06583">
        <ele>39.6</ele>
        <time>2024-03-20T14:35:34Z</time>
      </trkpt>
      <trkpt lat="49.07957" lon="0.06592">
        <ele>39.6</ele>
        <time>2024-03-20T14:35:35Z</time>
      </trkpt>
      <trkpt lat="49.07953" lon="0.06602">
        <ele>39.6</ele>
        <time>2024-03-20T14:35:36Z</time>
      </trkpt>
      <trkpt lat="49.07949" lon="0.06612">
        <ele>39.6</ele>
        <time>2024-03-20T14:35:37Z</time>
      </trkpt>
      <trkpt lat="49.07944" lon="0.06622">
        <ele>39.6</ele>
        <time>2024-03-20T14:35:38Z</time>
      </trkpt>
      <trkpt lat="49.0794" lon="0.06632">
        <ele>39.6</ele>
        <time>2024-03-20T14:35:39Z</time>
      </trkpt>
      <trkpt lat="49.07937" lon="0.06642">
        <ele>39.6</ele>
        <time>2024-03-20T14:35:40Z</time>
      </trkpt>
      <trkpt lat="49.07933" lon="0.06653">
        <ele>39.6</ele>
        <time>2024-03-20T14:35:41Z</time>
      </trkpt>
      <trkpt lat="49.07929" lon="0.06663">
        <ele>39.6</ele>
        <time>2024-03-20T14:35:42Z</time>
      </trkpt>
      <trkpt lat="49.07925" lon="0.06674">
        <ele>39.6</ele>
        <time>2024-03-20T14:35:43Z</time>
      </trkpt>
      <trkpt lat="49.07922" lon="0.06685">
        <ele>39.6</ele>
        <time>2024-03-20T14:35:44Z</time>
      </trkpt>
      <trkpt lat="49.07919" lon="0.06696">
        <ele>39.6</ele>
        <time>2024-03-20T14:35:45Z</time>
      </trkpt>
      <trkpt lat="49.07915" lon="0.06708">
        <ele>39.6</ele>
        <time>2024-03-20T14:35:46Z</time>
      </trkpt>
      <trkpt lat="49.07912" lon="0.06719">
        <ele>39.6</ele>
        <time>2024-03-20T14:35:47Z</time>
      </trkpt>
      <trkpt lat="49.07909" lon="0.0673">
        <ele>39.8</ele>
        <time>2024-03-20T14:35:48Z</time>
      </trkpt>
      <trkpt lat="49.07906" lon="0.06741">
        <ele>39.8</ele>
        <time>2024-03-20T14:35:49Z</time>
      </trkpt>
      <trkpt lat="49.07902" lon="0.06752">
        <ele>39.8</ele>
        <time>2024-03-20T14:35:50Z</time>
      </trkpt>
      <trkpt lat="49.07899" lon="0.06763">
        <ele>40</ele>
        <time>2024-03-20T14:35:51Z</time>
      </trkpt>
      <trkpt lat="49.07896" lon="0.06774">
        <ele>40</ele>
        <time>2024-03-20T14:35:52Z</time>
      </trkpt>
      <trkpt lat="49.07893" lon="0.06786">
        <ele>40</ele>
        <time>2024-03-20T14:35:53Z</time>
      </trkpt>
      <trkpt lat="49.0789" lon="0.06797">
        <ele>40</ele>
        <time>2024-03-20T14:35:54Z</time>
      </trkpt>
      <trkpt lat="49.07887" lon="0.06808">
        <ele>40.2</ele>
        <time>2024-03-20T14:35:55Z</time>
      </trkpt>
      <trkpt lat="49.07885" lon="0.0682">
        <ele>40.2</ele>
        <time>2024-03-20T14:35:56Z</time>
      </trkpt>
      <trkpt lat="49.07882" lon="0.06832">
        <ele>40.2</ele>
        <time>2024-03-20T14:35:57Z</time>
      </trkpt>
      <trkpt lat="49.0788" lon="0.06844">
        <ele>40.2</ele>
        <time>2024-03-20T14:35:58Z</time>
      </trkpt>
      <trkpt lat="49.07878" lon="0.06857">
        <ele>40.2</ele>
        <time>2024-03-20T14:35:59Z</time>
      </trkpt>
      <trkpt lat="49.07876" lon="0.06869">
        <ele>40.2</ele>
        <time>2024-03-20T14:36:00Z</time>
      </trkpt>
      <trkpt lat="49.07875" lon="0.06881">
        <ele>40.2</ele>
        <time>2024-03-20T14:36:01Z</time>
      </trkpt>
      <trkpt lat="49.07873" lon="0.06893">
        <ele>40.2</ele>
        <time>2024-03-20T14:36:02Z</time>
      </trkpt>
      <trkpt lat="49.07871" lon="0.06905">
        <ele>40.2</ele>
        <time>2024-03-20T14:36:03Z</time>
      </trkpt>
      <trkpt lat="49.07869" lon="0.06917">
        <ele>40.2</ele>
        <time>2024-03-20T14:36:04Z</time>
      </trkpt>
      <trkpt lat="49.07867" lon="0.06929">
        <ele>40.4</ele>
        <time>2024-03-20T14:36:05Z</time>
      </trkpt>
      <trkpt lat="49.07865" lon="0.06941">
        <ele>40.4</ele>
        <time>2024-03-20T14:36:06Z</time>
      </trkpt>
      <trkpt lat="49.07862" lon="0.06953">
        <ele>40.4</ele>
        <time>2024-03-20T14:36:07Z</time>
      </trkpt>
      <trkpt lat="49.07859" lon="0.06964">
        <ele>40.4</ele>
        <time>2024-03-20T14:36:08Z</time>
      </trkpt>
      <trkpt lat="49.07856" lon="0.06975">
        <ele>40.4</ele>
        <time>2024-03-20T14:36:09Z</time>
      </trkpt>
      <trkpt lat="49.07853" lon="0.06987">
        <ele>40.4</ele>
        <time>2024-03-20T14:36:10Z</time>
      </trkpt>
      <trkpt lat="49.07851" lon="0.06996">
        <ele>40.4</ele>
        <time>2024-03-20T14:36:11Z</time>
      </trkpt>
      <trkpt lat="49.07848" lon="0.07007">
        <ele>40.4</ele>
        <time>2024-03-20T14:36:12Z</time>
      </trkpt>
      <trkpt lat="49.07845" lon="0.07021">
        <ele>40.4</ele>
        <time>2024-03-20T14:36:13Z</time>
      </trkpt>
      <trkpt lat="49.07842" lon="0.07033">
        <ele>40.4</ele>
        <time>2024-03-20T14:36:14Z</time>
      </trkpt>
      <trkpt lat="49.07839" lon="0.07044">
        <ele>40.4</ele>
        <time>2024-03-20T14:36:15Z</time>
      </trkpt>
      <trkpt lat="49.07836" lon="0.07056">
        <ele>40.4</ele>
        <time>2024-03-20T14:36:16Z</time>
      </trkpt>
      <trkpt lat="49.07833" lon="0.07067">
        <ele>40.4</ele>
        <time>2024-03-20T14:36:17Z</time>
      </trkpt>
      <trkpt lat="49.0783" lon="0.07079">
        <ele>40.4</ele>
        <time>2024-03-20T14:36:18Z</time>
      </trkpt>
      <trkpt lat="49.07828" lon="0.0709">
        <ele>40.4</ele>
        <time>2024-03-20T14:36:19Z</time>
      </trkpt>
      <trkpt lat="49.07825" lon="0.07102">
        <ele>40.4</ele>
        <time>2024-03-20T14:36:20Z</time>
      </trkpt>
      <trkpt lat="49.07822" lon="0.07113">
        <ele>40.4</ele>
        <time>2024-03-20T14:36:21Z</time>
      </trkpt>
      <trkpt lat="49.0782" lon="0.07124">
        <ele>40.4</ele>
        <time>2024-03-20T14:36:22Z</time>
      </trkpt>
      <trkpt lat="49.07817" lon="0.07135">
        <ele>40.4</ele>
        <time>2024-03-20T14:36:23Z</time>
      </trkpt>
      <trkpt lat="49.07815" lon="0.07146">
        <ele>40.2</ele>
        <time>2024-03-20T14:36:24Z</time>
      </trkpt>
      <trkpt lat="49.07812" lon="0.07158">
        <ele>40.2</ele>
        <time>2024-03-20T14:36:25Z</time>
      </trkpt>
      <trkpt lat="49.0781" lon="0.07169">
        <ele>40.2</ele>
        <time>2024-03-20T14:36:26Z</time>
      </trkpt>
      <trkpt lat="49.07807" lon="0.07181">
        <ele>40.2</ele>
        <time>2024-03-20T14:36:27Z</time>
      </trkpt>
      <trkpt lat="49.07805" lon="0.07192">
        <ele>40.2</ele>
        <time>2024-03-20T14:36:28Z</time>
      </trkpt>
      <trkpt lat="49.07803" lon="0.07203">
        <ele>40.2</ele>
        <time>2024-03-20T14:36:29Z</time>
      </trkpt>
      <trkpt lat="49.078" lon="0.07213">
        <ele>40.2</ele>
        <time>2024-03-20T14:36:30Z</time>
      </trkpt>
      <trkpt lat="49.07798" lon="0.07224">
        <ele>40.2</ele>
        <time>2024-03-20T14:36:31Z</time>
      </trkpt>
      <trkpt lat="49.07795" lon="0.07234">
        <ele>40.2</ele>
        <time>2024-03-20T14:36:32Z</time>
      </trkpt>
      <trkpt lat="49.07793" lon="0.07245">
        <ele>40.2</ele>
        <time>2024-03-20T14:36:33Z</time>
      </trkpt>
      <trkpt lat="49.0779" lon="0.07255">
        <ele>40.2</ele>
        <time>2024-03-20T14:36:34Z</time>
      </trkpt>
      <trkpt lat="49.07788" lon="0.07266">
        <ele>40.2</ele>
        <time>2024-03-20T14:36:35Z</time>
      </trkpt>
      <trkpt lat="49.07786" lon="0.07277">
        <ele>40.2</ele>
        <time>2024-03-20T14:36:36Z</time>
      </trkpt>
      <trkpt lat="49.07784" lon="0.07288">
        <ele>40.2</ele>
        <time>2024-03-20T14:36:37Z</time>
      </trkpt>
      <trkpt lat="49.07781" lon="0.07299">
        <ele>40.2</ele>
        <time>2024-03-20T14:36:38Z</time>
      </trkpt>
      <trkpt lat="49.07778" lon="0.07311">
        <ele>40.2</ele>
        <time>2024-03-20T14:36:39Z</time>
      </trkpt>
      <trkpt lat="49.07775" lon="0.07322">
        <ele>40.2</ele>
        <time>2024-03-20T14:36:40Z</time>
      </trkpt>
      <trkpt lat="49.07771" lon="0.07332">
        <ele>40.2</ele>
        <time>2024-03-20T14:36:41Z</time>
      </trkpt>
      <trkpt lat="49.07766" lon="0.07343">
        <ele>40.2</ele>
        <time>2024-03-20T14:36:42Z</time>
      </trkpt>
      <trkpt lat="49.07762" lon="0.07353">
        <ele>40.2</ele>
        <time>2024-03-20T14:36:43Z</time>
      </trkpt>
      <trkpt lat="49.07757" lon="0.07363">
        <ele>40.4</ele>
        <time>2024-03-20T14:36:44Z</time>
      </trkpt>
      <trkpt lat="49.07751" lon="0.07374">
        <ele>40.4</ele>
        <time>2024-03-20T14:36:45Z</time>
      </trkpt>
      <trkpt lat="49.07748" lon="0.07382">
        <ele>40.4</ele>
        <time>2024-03-20T14:36:46Z</time>
      </trkpt>
      <trkpt lat="49.07743" lon="0.07391">
        <ele>40.4</ele>
        <time>2024-03-20T14:36:47Z</time>
      </trkpt>
      <trkpt lat="49.07739" lon="0.07401">
        <ele>40.4</ele>
        <time>2024-03-20T14:36:48Z</time>
      </trkpt>
      <trkpt lat="49.07734" lon="0.07414">
        <ele>40.4</ele>
        <time>2024-03-20T14:36:49Z</time>
      </trkpt>
      <trkpt lat="49.07731" lon="0.07422">
        <ele>40.4</ele>
        <time>2024-03-20T14:36:50Z</time>
      </trkpt>
      <trkpt lat="49.07728" lon="0.07432">
        <ele>40.4</ele>
        <time>2024-03-20T14:36:51Z</time>
      </trkpt>
      <trkpt lat="49.07724" lon="0.07443">
        <ele>40.4</ele>
        <time>2024-03-20T14:36:52Z</time>
      </trkpt>
      <trkpt lat="49.07721" lon="0.07453">
        <ele>40.4</ele>
        <time>2024-03-20T14:36:53Z</time>
      </trkpt>
      <trkpt lat="49.07716" lon="0.07466">
        <ele>40.6</ele>
        <time>2024-03-20T14:36:54Z</time>
      </trkpt>
      <trkpt lat="49.07713" lon="0.07475">
        <ele>40.6</ele>
        <time>2024-03-20T14:36:55Z</time>
      </trkpt>
      <trkpt lat="49.0771" lon="0.07485">
        <ele>40.6</ele>
        <time>2024-03-20T14:36:56Z</time>
      </trkpt>
      <trkpt lat="49.07705" lon="0.07497">
        <ele>40.8</ele>
        <time>2024-03-20T14:36:57Z</time>
      </trkpt>
      <trkpt lat="49.07702" lon="0.07505">
        <ele>40.8</ele>
        <time>2024-03-20T14:36:58Z</time>
      </trkpt>
      <trkpt lat="49.07699" lon="0.07515">
        <ele>41</ele>
        <time>2024-03-20T14:36:59Z</time>
      </trkpt>
      <trkpt lat="49.07695" lon="0.07525">
        <ele>41</ele>
        <time>2024-03-20T14:37:00Z</time>
      </trkpt>
      <trkpt lat="49.07692" lon="0.07536">
        <ele>41.2</ele>
        <time>2024-03-20T14:37:01Z</time>
      </trkpt>
      <trkpt lat="49.07689" lon="0.07547">
        <ele>41.2</ele>
        <time>2024-03-20T14:37:02Z</time>
      </trkpt>
      <trkpt lat="49.07686" lon="0.0756">
        <ele>41.2</ele>
        <time>2024-03-20T14:37:03Z</time>
      </trkpt>
      <trkpt lat="49.07683" lon="0.0757">
        <ele>41.4</ele>
        <time>2024-03-20T14:37:04Z</time>
      </trkpt>
      <trkpt lat="49.0768" lon="0.07579">
        <ele>41.4</ele>
        <time>2024-03-20T14:37:05Z</time>
      </trkpt>
      <trkpt lat="49.07676" lon="0.07591">
        <ele>41.4</ele>
        <time>2024-03-20T14:37:06Z</time>
      </trkpt>
      <trkpt lat="49.07673" lon="0.076">
        <ele>41.6</ele>
        <time>2024-03-20T14:37:07Z</time>
      </trkpt>
      <trkpt lat="49.07669" lon="0.0761">
        <ele>41.6</ele>
        <time>2024-03-20T14:37:08Z</time>
      </trkpt>
      <trkpt lat="49.07666" lon="0.07621">
        <ele>41.8</ele>
        <time>2024-03-20T14:37:09Z</time>
      </trkpt>
      <trkpt lat="49.07662" lon="0.07634">
        <ele>41.8</ele>
        <time>2024-03-20T14:37:10Z</time>
      </trkpt>
      <trkpt lat="49.07659" lon="0.07642">
        <ele>41.8</ele>
        <time>2024-03-20T14:37:11Z</time>
      </trkpt>
      <trkpt lat="49.07655" lon="0.07654">
        <ele>41.8</ele>
        <time>2024-03-20T14:37:12Z</time>
      </trkpt>
      <trkpt lat="49.07652" lon="0.07662">
        <ele>42</ele>
        <time>2024-03-20T14:37:13Z</time>
      </trkpt>
      <trkpt lat="49.07648" lon="0.07672">
        <ele>42</ele>
        <time>2024-03-20T14:37:14Z</time>
      </trkpt>
      <trkpt lat="49.07644" lon="0.07682">
        <ele>42</ele>
        <time>2024-03-20T14:37:15Z</time>
      </trkpt>
      <trkpt lat="49.0764" lon="0.07692">
        <ele>42.2</ele>
        <time>2024-03-20T14:37:16Z</time>
      </trkpt>
      <trkpt lat="49.07636" lon="0.07702">
        <ele>42.2</ele>
        <time>2024-03-20T14:37:17Z</time>
      </trkpt>
      <trkpt lat="49.07631" lon="0.07715">
        <ele>42.2</ele>
        <time>2024-03-20T14:37:18Z</time>
      </trkpt>
      <trkpt lat="49.07628" lon="0.07723">
        <ele>42.4</ele>
        <time>2024-03-20T14:37:19Z</time>
      </trkpt>
      <trkpt lat="49.07623" lon="0.07734">
        <ele>42.4</ele>
        <time>2024-03-20T14:37:20Z</time>
      </trkpt>
      <trkpt lat="49.07619" lon="0.07746">
        <ele>42.4</ele>
        <time>2024-03-20T14:37:21Z</time>
      </trkpt>
      <trkpt lat="49.07614" lon="0.07757">
        <ele>42.4</ele>
        <time>2024-03-20T14:37:22Z</time>
      </trkpt>
      <trkpt lat="49.07609" lon="0.07769">
        <ele>42.4</ele>
        <time>2024-03-20T14:37:23Z</time>
      </trkpt>
      <trkpt lat="49.07604" lon="0.0778">
        <ele>42.4</ele>
        <time>2024-03-20T14:37:24Z</time>
      </trkpt>
      <trkpt lat="49.076" lon="0.07791">
        <ele>42.4</ele>
        <time>2024-03-20T14:37:25Z</time>
      </trkpt>
      <trkpt lat="49.07595" lon="0.07802">
        <ele>42.4</ele>
        <time>2024-03-20T14:37:26Z</time>
      </trkpt>
      <trkpt lat="49.0759" lon="0.07813">
        <ele>42.4</ele>
        <time>2024-03-20T14:37:27Z</time>
      </trkpt>
      <trkpt lat="49.07585" lon="0.07825">
        <ele>42.2</ele>
        <time>2024-03-20T14:37:28Z</time>
      </trkpt>
      <trkpt lat="49.07581" lon="0.07832">
        <ele>41.8</ele>
        <time>2024-03-20T14:37:29Z</time>
      </trkpt>
      <trkpt lat="49.07576" lon="0.07843">
        <ele>41.6</ele>
        <time>2024-03-20T14:37:30Z</time>
      </trkpt>
      <trkpt lat="49.07573" lon="0.07848">
        <ele>41.4</ele>
        <time>2024-03-20T14:37:31Z</time>
      </trkpt>
      <trkpt lat="49.07569" lon="0.07857">
        <ele>41.2</ele>
        <time>2024-03-20T14:37:32Z</time>
      </trkpt>
      <trkpt lat="49.07564" lon="0.07865">
        <ele>41.2</ele>
        <time>2024-03-20T14:37:33Z</time>
      </trkpt>
      <trkpt lat="49.07559" lon="0.07873">
        <ele>41.2</ele>
        <time>2024-03-20T14:37:34Z</time>
      </trkpt>
      <trkpt lat="49.07553" lon="0.07881">
        <ele>41.2</ele>
        <time>2024-03-20T14:37:35Z</time>
      </trkpt>
      <trkpt lat="49.07548" lon="0.07889">
        <ele>41.2</ele>
        <time>2024-03-20T14:37:36Z</time>
      </trkpt>
      <trkpt lat="49.07539" lon="0.07899">
        <ele>41.2</ele>
        <time>2024-03-20T14:37:37Z</time>
      </trkpt>
      <trkpt lat="49.07535" lon="0.07905">
        <ele>41.2</ele>
        <time>2024-03-20T14:37:38Z</time>
      </trkpt>
      <trkpt lat="49.07528" lon="0.07912">
        <ele>41.2</ele>
        <time>2024-03-20T14:37:39Z</time>
      </trkpt>
      <trkpt lat="49.07523" lon="0.0792">
        <ele>41.2</ele>
        <time>2024-03-20T14:37:40Z</time>
      </trkpt>
      <trkpt lat="49.07517" lon="0.07928">
        <ele>41.2</ele>
        <time>2024-03-20T14:37:41Z</time>
      </trkpt>
      <trkpt lat="49.07511" lon="0.07936">
        <ele>41.2</ele>
        <time>2024-03-20T14:37:42Z</time>
      </trkpt>
      <trkpt lat="49.07505" lon="0.07945">
        <ele>41.2</ele>
        <time>2024-03-20T14:37:43Z</time>
      </trkpt>
      <trkpt lat="49.07499" lon="0.07956">
        <ele>41.2</ele>
        <time>2024-03-20T14:37:44Z</time>
      </trkpt>
      <trkpt lat="49.07495" lon="0.07964">
        <ele>41.2</ele>
        <time>2024-03-20T14:37:45Z</time>
      </trkpt>
      <trkpt lat="49.0749" lon="0.07975">
        <ele>41.2</ele>
        <time>2024-03-20T14:37:46Z</time>
      </trkpt>
      <trkpt lat="49.07486" lon="0.07983">
        <ele>41.2</ele>
        <time>2024-03-20T14:37:47Z</time>
      </trkpt>
      <trkpt lat="49.07482" lon="0.07993">
        <ele>41.2</ele>
        <time>2024-03-20T14:37:48Z</time>
      </trkpt>
      <trkpt lat="49.07477" lon="0.08003">
        <ele>41.2</ele>
        <time>2024-03-20T14:37:49Z</time>
      </trkpt>
      <trkpt lat="49.07472" lon="0.08012">
        <ele>41.2</ele>
        <time>2024-03-20T14:37:50Z</time>
      </trkpt>
      <trkpt lat="49.07467" lon="0.08021">
        <ele>41</ele>
        <time>2024-03-20T14:37:51Z</time>
      </trkpt>
      <trkpt lat="49.07461" lon="0.08032">
        <ele>41</ele>
        <time>2024-03-20T14:37:52Z</time>
      </trkpt>
      <trkpt lat="49.07456" lon="0.08038">
        <ele>41</ele>
        <time>2024-03-20T14:37:53Z</time>
      </trkpt>
      <trkpt lat="49.0745" lon="0.08045">
        <ele>41</ele>
        <time>2024-03-20T14:37:54Z</time>
      </trkpt>
      <trkpt lat="49.07443" lon="0.08054">
        <ele>41</ele>
        <time>2024-03-20T14:37:55Z</time>
      </trkpt>
      <trkpt lat="49.07438" lon="0.0806">
        <ele>41</ele>
        <time>2024-03-20T14:37:56Z</time>
      </trkpt>
      <trkpt lat="49.07432" lon="0.08067">
        <ele>41</ele>
        <time>2024-03-20T14:37:57Z</time>
      </trkpt>
      <trkpt lat="49.07424" lon="0.08075">
        <ele>41</ele>
        <time>2024-03-20T14:37:58Z</time>
      </trkpt>
      <trkpt lat="49.07418" lon="0.08082">
        <ele>41</ele>
        <time>2024-03-20T14:37:59Z</time>
      </trkpt>
      <trkpt lat="49.07413" lon="0.08087">
        <ele>41</ele>
        <time>2024-03-20T14:38:00Z</time>
      </trkpt>
      <trkpt lat="49.07406" lon="0.08096">
        <ele>41</ele>
        <time>2024-03-20T14:38:01Z</time>
      </trkpt>
      <trkpt lat="49.07401" lon="0.08101">
        <ele>41</ele>
        <time>2024-03-20T14:38:02Z</time>
      </trkpt>
      <trkpt lat="49.07394" lon="0.08108">
        <ele>41</ele>
        <time>2024-03-20T14:38:03Z</time>
      </trkpt>
      <trkpt lat="49.07387" lon="0.08117">
        <ele>41</ele>
        <time>2024-03-20T14:38:04Z</time>
      </trkpt>
      <trkpt lat="49.07381" lon="0.08124">
        <ele>41.2</ele>
        <time>2024-03-20T14:38:05Z</time>
      </trkpt>
      <trkpt lat="49.07376" lon="0.08129">
        <ele>41.2</ele>
        <time>2024-03-20T14:38:06Z</time>
      </trkpt>
      <trkpt lat="49.0737" lon="0.08136">
        <ele>41.4</ele>
        <time>2024-03-20T14:38:07Z</time>
      </trkpt>
      <trkpt lat="49.07362" lon="0.08144">
        <ele>41.4</ele>
        <time>2024-03-20T14:38:08Z</time>
      </trkpt>
      <trkpt lat="49.07357" lon="0.08149">
        <ele>41.6</ele>
        <time>2024-03-20T14:38:09Z</time>
      </trkpt>
      <trkpt lat="49.0735" lon="0.08158">
        <ele>41.6</ele>
        <time>2024-03-20T14:38:10Z</time>
      </trkpt>
      <trkpt lat="49.07345" lon="0.08163">
        <ele>41.6</ele>
        <time>2024-03-20T14:38:11Z</time>
      </trkpt>
      <trkpt lat="49.07339" lon="0.08171">
        <ele>41.6</ele>
        <time>2024-03-20T14:38:12Z</time>
      </trkpt>
      <trkpt lat="49.07332" lon="0.0818">
        <ele>41.6</ele>
        <time>2024-03-20T14:38:13Z</time>
      </trkpt>
      <trkpt lat="49.07326" lon="0.08187">
        <ele>41.8</ele>
        <time>2024-03-20T14:38:14Z</time>
      </trkpt>
      <trkpt lat="49.07321" lon="0.08193">
        <ele>41.8</ele>
        <time>2024-03-20T14:38:15Z</time>
      </trkpt>
      <trkpt lat="49.07315" lon="0.082">
        <ele>41.8</ele>
        <time>2024-03-20T14:38:16Z</time>
      </trkpt>
      <trkpt lat="49.07309" lon="0.08208">
        <ele>42</ele>
        <time>2024-03-20T14:38:17Z</time>
      </trkpt>
      <trkpt lat="49.07303" lon="0.08215">
        <ele>42</ele>
        <time>2024-03-20T14:38:18Z</time>
      </trkpt>
      <trkpt lat="49.07296" lon="0.08224">
        <ele>42.2</ele>
        <time>2024-03-20T14:38:19Z</time>
      </trkpt>
      <trkpt lat="49.07291" lon="0.08232">
        <ele>42.2</ele>
        <time>2024-03-20T14:38:20Z</time>
      </trkpt>
      <trkpt lat="49.07286" lon="0.08239">
        <ele>42.2</ele>
        <time>2024-03-20T14:38:21Z</time>
      </trkpt>
      <trkpt lat="49.07281" lon="0.08247">
        <ele>42.4</ele>
        <time>2024-03-20T14:38:22Z</time>
      </trkpt>
      <trkpt lat="49.07275" lon="0.08255">
        <ele>42.6</ele>
        <time>2024-03-20T14:38:23Z</time>
      </trkpt>
      <trkpt lat="49.07269" lon="0.08263">
        <ele>42.6</ele>
        <time>2024-03-20T14:38:24Z</time>
      </trkpt>
      <trkpt lat="49.07264" lon="0.0827">
        <ele>42.6</ele>
        <time>2024-03-20T14:38:25Z</time>
      </trkpt>
      <trkpt lat="49.07258" lon="0.08278">
        <ele>42.6</ele>
        <time>2024-03-20T14:38:26Z</time>
      </trkpt>
      <trkpt lat="49.07252" lon="0.08286">
        <ele>42.8</ele>
        <time>2024-03-20T14:38:27Z</time>
      </trkpt>
      <trkpt lat="49.07246" lon="0.08295">
        <ele>43</ele>
        <time>2024-03-20T14:38:28Z</time>
      </trkpt>
      <trkpt lat="49.07241" lon="0.08301">
        <ele>43.2</ele>
        <time>2024-03-20T14:38:29Z</time>
      </trkpt>
      <trkpt lat="49.07235" lon="0.08309">
        <ele>43.2</ele>
        <time>2024-03-20T14:38:30Z</time>
      </trkpt>
      <trkpt lat="49.07229" lon="0.08317">
        <ele>43.2</ele>
        <time>2024-03-20T14:38:31Z</time>
      </trkpt>
      <trkpt lat="49.07222" lon="0.08328">
        <ele>43.2</ele>
        <time>2024-03-20T14:38:32Z</time>
      </trkpt>
      <trkpt lat="49.07218" lon="0.08334">
        <ele>43.2</ele>
        <time>2024-03-20T14:38:33Z</time>
      </trkpt>
      <trkpt lat="49.07211" lon="0.08344">
        <ele>43.2</ele>
        <time>2024-03-20T14:38:34Z</time>
      </trkpt>
      <trkpt lat="49.07205" lon="0.08353">
        <ele>43.2</ele>
        <time>2024-03-20T14:38:35Z</time>
      </trkpt>
      <trkpt lat="49.072" lon="0.08359">
        <ele>43.2</ele>
        <time>2024-03-20T14:38:36Z</time>
      </trkpt>
      <trkpt lat="49.07193" lon="0.08369">
        <ele>43.2</ele>
        <time>2024-03-20T14:38:37Z</time>
      </trkpt>
      <trkpt lat="49.07187" lon="0.08377">
        <ele>43.2</ele>
        <time>2024-03-20T14:38:38Z</time>
      </trkpt>
      <trkpt lat="49.07182" lon="0.08384">
        <ele>43.2</ele>
        <time>2024-03-20T14:38:39Z</time>
      </trkpt>
      <trkpt lat="49.07176" lon="0.08392">
        <ele>43.2</ele>
        <time>2024-03-20T14:38:40Z</time>
      </trkpt>
      <trkpt lat="49.0717" lon="0.084">
        <ele>43.2</ele>
        <time>2024-03-20T14:38:41Z</time>
      </trkpt>
      <trkpt lat="49.07164" lon="0.08409">
        <ele>43.2</ele>
        <time>2024-03-20T14:38:42Z</time>
      </trkpt>
      <trkpt lat="49.07156" lon="0.08419">
        <ele>43</ele>
        <time>2024-03-20T14:38:43Z</time>
      </trkpt>
      <trkpt lat="49.0715" lon="0.08427">
        <ele>43</ele>
        <time>2024-03-20T14:38:44Z</time>
      </trkpt>
      <trkpt lat="49.07146" lon="0.08433">
        <ele>43</ele>
        <time>2024-03-20T14:38:45Z</time>
      </trkpt>
      <trkpt lat="49.0714" lon="0.08441">
        <ele>43</ele>
        <time>2024-03-20T14:38:46Z</time>
      </trkpt>
      <trkpt lat="49.07134" lon="0.08448">
        <ele>42.8</ele>
        <time>2024-03-20T14:38:47Z</time>
      </trkpt>
      <trkpt lat="49.07127" lon="0.08455">
        <ele>42.8</ele>
        <time>2024-03-20T14:38:48Z</time>
      </trkpt>
      <trkpt lat="49.07121" lon="0.08462">
        <ele>42.8</ele>
        <time>2024-03-20T14:38:49Z</time>
      </trkpt>
      <trkpt lat="49.07113" lon="0.08469">
        <ele>42.8</ele>
        <time>2024-03-20T14:38:50Z</time>
      </trkpt>
      <trkpt lat="49.07108" lon="0.08473">
        <ele>42.8</ele>
        <time>2024-03-20T14:38:51Z</time>
      </trkpt>
      <trkpt lat="49.071" lon="0.0848">
        <ele>42.8</ele>
        <time>2024-03-20T14:38:52Z</time>
      </trkpt>
      <trkpt lat="49.07094" lon="0.08486">
        <ele>42.8</ele>
        <time>2024-03-20T14:38:53Z</time>
      </trkpt>
      <trkpt lat="49.07088" lon="0.0849">
        <ele>42.8</ele>
        <time>2024-03-20T14:38:54Z</time>
      </trkpt>
      <trkpt lat="49.07081" lon="0.08497">
        <ele>42.8</ele>
        <time>2024-03-20T14:38:55Z</time>
      </trkpt>
      <trkpt lat="49.07076" lon="0.08501">
        <ele>42.8</ele>
        <time>2024-03-20T14:38:56Z</time>
      </trkpt>
      <trkpt lat="49.07069" lon="0.08505">
        <ele>42.8</ele>
        <time>2024-03-20T14:38:57Z</time>
      </trkpt>
      <trkpt lat="49.07063" lon="0.08511">
        <ele>42.8</ele>
        <time>2024-03-20T14:38:58Z</time>
      </trkpt>
      <trkpt lat="49.07056" lon="0.08517">
        <ele>42.8</ele>
        <time>2024-03-20T14:38:59Z</time>
      </trkpt>
      <trkpt lat="49.07051" lon="0.08522">
        <ele>42.8</ele>
        <time>2024-03-20T14:39:00Z</time>
      </trkpt>
      <trkpt lat="49.07046" lon="0.08528">
        <ele>42.8</ele>
        <time>2024-03-20T14:39:01Z</time>
      </trkpt>
      <trkpt lat="49.07039" lon="0.08537">
        <ele>43</ele>
        <time>2024-03-20T14:39:02Z</time>
      </trkpt>
      <trkpt lat="49.07034" lon="0.08543">
        <ele>43</ele>
        <time>2024-03-20T14:39:03Z</time>
      </trkpt>
      <trkpt lat="49.07028" lon="0.08552">
        <ele>43.2</ele>
        <time>2024-03-20T14:39:04Z</time>
      </trkpt>
      <trkpt lat="49.07023" lon="0.0856">
        <ele>43.2</ele>
        <time>2024-03-20T14:39:05Z</time>
      </trkpt>
      <trkpt lat="49.07019" lon="0.08566">
        <ele>43.2</ele>
        <time>2024-03-20T14:39:06Z</time>
      </trkpt>
      <trkpt lat="49.07015" lon="0.08574">
        <ele>43.2</ele>
        <time>2024-03-20T14:39:07Z</time>
      </trkpt>
      <trkpt lat="49.0701" lon="0.08582">
        <ele>43.4</ele>
        <time>2024-03-20T14:39:08Z</time>
      </trkpt>
      <trkpt lat="49.07006" lon="0.08589">
        <ele>43.4</ele>
        <time>2024-03-20T14:39:09Z</time>
      </trkpt>
      <trkpt lat="49.07002" lon="0.08598">
        <ele>43.4</ele>
        <time>2024-03-20T14:39:10Z</time>
      </trkpt>
      <trkpt lat="49.06998" lon="0.08603">
        <ele>43.4</ele>
        <time>2024-03-20T14:39:11Z</time>
      </trkpt>
      <trkpt lat="49.06994" lon="0.08605">
        <ele>43.6</ele>
        <time>2024-03-20T14:39:12Z</time>
      </trkpt>
      <trkpt lat="49.06989" lon="0.08608">
        <ele>43.6</ele>
        <time>2024-03-20T14:39:13Z</time>
      </trkpt>
      <trkpt lat="49.06985" lon="0.08608">
        <ele>43.6</ele>
        <time>2024-03-20T14:39:14Z</time>
      </trkpt>
      <trkpt lat="49.06981" lon="0.08609">
        <ele>43.6</ele>
        <time>2024-03-20T14:39:15Z</time>
      </trkpt>
      <trkpt lat="49.06977" lon="0.08609">
        <ele>43.6</ele>
        <time>2024-03-20T14:39:16Z</time>
      </trkpt>
      <trkpt lat="49.06974" lon="0.08609">
        <ele>43.6</ele>
        <time>2024-03-20T14:39:17Z</time>
      </trkpt>
      <trkpt lat="49.06971" lon="0.0861">
        <ele>43.8</ele>
        <time>2024-03-20T14:39:18Z</time>
      </trkpt>
      <trkpt lat="49.06969" lon="0.0861">
        <ele>44.2</ele>
        <time>2024-03-20T14:39:19Z</time>
      </trkpt>
      <trkpt lat="49.06968" lon="0.0861">
        <ele>44.4</ele>
        <time>2024-03-20T14:39:20Z</time>
      </trkpt>
      <trkpt lat="49.06966" lon="0.08612">
        <ele>44.8</ele>
        <time>2024-03-20T14:39:21Z</time>
      </trkpt>
      <trkpt lat="49.06965" lon="0.08614">
        <ele>45.2</ele>
        <time>2024-03-20T14:39:22Z</time>
      </trkpt>
      <trkpt lat="49.06964" lon="0.08616">
        <ele>45.4</ele>
        <time>2024-03-20T14:39:23Z</time>
      </trkpt>
      <trkpt lat="49.06964" lon="0.0862">
        <ele>45.6</ele>
        <time>2024-03-20T14:39:24Z</time>
      </trkpt>
      <trkpt lat="49.06964" lon="0.08624">
        <ele>45.6</ele>
        <time>2024-03-20T14:39:25Z</time>
      </trkpt>
      <trkpt lat="49.06964" lon="0.08629">
        <ele>45.6</ele>
        <time>2024-03-20T14:39:26Z</time>
      </trkpt>
      <trkpt lat="49.06965" lon="0.08634">
        <ele>45.8</ele>
        <time>2024-03-20T14:39:27Z</time>
      </trkpt>
      <trkpt lat="49.06965" lon="0.0864">
        <ele>45.8</ele>
        <time>2024-03-20T14:39:28Z</time>
      </trkpt>
      <trkpt lat="49.06966" lon="0.08647">
        <ele>45.8</ele>
        <time>2024-03-20T14:39:29Z</time>
      </trkpt>
      <trkpt lat="49.06967" lon="0.08654">
        <ele>45.8</ele>
        <time>2024-03-20T14:39:30Z</time>
      </trkpt>
      <trkpt lat="49.06968" lon="0.08661">
        <ele>45.8</ele>
        <time>2024-03-20T14:39:31Z</time>
      </trkpt>
      <trkpt lat="49.0697" lon="0.08671">
        <ele>45.8</ele>
        <time>2024-03-20T14:39:32Z</time>
      </trkpt>
      <trkpt lat="49.06972" lon="0.08679">
        <ele>45.8</ele>
        <time>2024-03-20T14:39:33Z</time>
      </trkpt>
      <trkpt lat="49.06974" lon="0.08688">
        <ele>45.8</ele>
        <time>2024-03-20T14:39:34Z</time>
      </trkpt>
      <trkpt lat="49.06976" lon="0.087">
        <ele>45.8</ele>
        <time>2024-03-20T14:39:35Z</time>
      </trkpt>
      <trkpt lat="49.06977" lon="0.08708">
        <ele>45.8</ele>
        <time>2024-03-20T14:39:36Z</time>
      </trkpt>
      <trkpt lat="49.06979" lon="0.08719">
        <ele>45.8</ele>
        <time>2024-03-20T14:39:37Z</time>
      </trkpt>
      <trkpt lat="49.06981" lon="0.08731">
        <ele>45.6</ele>
        <time>2024-03-20T14:39:38Z</time>
      </trkpt>
      <trkpt lat="49.06982" lon="0.08739">
        <ele>45.6</ele>
        <time>2024-03-20T14:39:39Z</time>
      </trkpt>
      <trkpt lat="49.06985" lon="0.0875">
        <ele>45.4</ele>
        <time>2024-03-20T14:39:40Z</time>
      </trkpt>
      <trkpt lat="49.06987" lon="0.08761">
        <ele>45.4</ele>
        <time>2024-03-20T14:39:41Z</time>
      </trkpt>
      <trkpt lat="49.06989" lon="0.08771">
        <ele>45.4</ele>
        <time>2024-03-20T14:39:42Z</time>
      </trkpt>
      <trkpt lat="49.0699" lon="0.08782">
        <ele>45.4</ele>
        <time>2024-03-20T14:39:43Z</time>
      </trkpt>
      <trkpt lat="49.06993" lon="0.08795">
        <ele>45.2</ele>
        <time>2024-03-20T14:39:44Z</time>
      </trkpt>
      <trkpt lat="49.06995" lon="0.08805">
        <ele>45.2</ele>
        <time>2024-03-20T14:39:45Z</time>
      </trkpt>
      <trkpt lat="49.06997" lon="0.08815">
        <ele>45.2</ele>
        <time>2024-03-20T14:39:46Z</time>
      </trkpt>
      <trkpt lat="49.06999" lon="0.08826">
        <ele>45.2</ele>
        <time>2024-03-20T14:39:47Z</time>
      </trkpt>
      <trkpt lat="49.07001" lon="0.08834">
        <ele>45.2</ele>
        <time>2024-03-20T14:39:48Z</time>
      </trkpt>
      <trkpt lat="49.07003" lon="0.08845">
        <ele>45.2</ele>
        <time>2024-03-20T14:39:49Z</time>
      </trkpt>
      <trkpt lat="49.07005" lon="0.08853">
        <ele>45</ele>
        <time>2024-03-20T14:39:50Z</time>
      </trkpt>
      <trkpt lat="49.07008" lon="0.08863">
        <ele>45</ele>
        <time>2024-03-20T14:39:51Z</time>
      </trkpt>
      <trkpt lat="49.07012" lon="0.08873">
        <ele>45</ele>
        <time>2024-03-20T14:39:52Z</time>
      </trkpt>
      <trkpt lat="49.07017" lon="0.08883">
        <ele>45</ele>
        <time>2024-03-20T14:39:53Z</time>
      </trkpt>
      <trkpt lat="49.07021" lon="0.08894">
        <ele>45</ele>
        <time>2024-03-20T14:39:54Z</time>
      </trkpt>
      <trkpt lat="49.07022" lon="0.08903">
        <ele>45</ele>
        <time>2024-03-20T14:39:55Z</time>
      </trkpt>
      <trkpt lat="49.07022" lon="0.08915">
        <ele>44.8</ele>
        <time>2024-03-20T14:39:56Z</time>
      </trkpt>
      <trkpt lat="49.07021" lon="0.08926">
        <ele>44.8</ele>
        <time>2024-03-20T14:39:57Z</time>
      </trkpt>
      <trkpt lat="49.0702" lon="0.08933">
        <ele>44.6</ele>
        <time>2024-03-20T14:39:58Z</time>
      </trkpt>
      <trkpt lat="49.07018" lon="0.08949">
        <ele>44.2</ele>
        <time>2024-03-20T14:39:59Z</time>
      </trkpt>
      <trkpt lat="49.07015" lon="0.0896">
        <ele>43.8</ele>
        <time>2024-03-20T14:40:00Z</time>
      </trkpt>
      <trkpt lat="49.07013" lon="0.0897">
        <ele>43.8</ele>
        <time>2024-03-20T14:40:01Z</time>
      </trkpt>
      <trkpt lat="49.07011" lon="0.08979">
        <ele>43.6</ele>
        <time>2024-03-20T14:40:02Z</time>
      </trkpt>
      <trkpt lat="49.07008" lon="0.08997">
        <ele>43.4</ele>
        <time>2024-03-20T14:40:03Z</time>
      </trkpt>
      <trkpt lat="49.07007" lon="0.0901">
        <ele>43.2</ele>
        <time>2024-03-20T14:40:04Z</time>
      </trkpt>
      <trkpt lat="49.07005" lon="0.0902">
        <ele>43</ele>
        <time>2024-03-20T14:40:05Z</time>
      </trkpt>
      <trkpt lat="49.07003" lon="0.09032">
        <ele>43</ele>
        <time>2024-03-20T14:40:06Z</time>
      </trkpt>
      <trkpt lat="49.07" lon="0.09045">
        <ele>43</ele>
        <time>2024-03-20T14:40:07Z</time>
      </trkpt>
      <trkpt lat="49.06998" lon="0.09054">
        <ele>43</ele>
        <time>2024-03-20T14:40:08Z</time>
      </trkpt>
      <trkpt lat="49.06995" lon="0.09064">
        <ele>43</ele>
        <time>2024-03-20T14:40:09Z</time>
      </trkpt>
      <trkpt lat="49.06992" lon="0.09077">
        <ele>43</ele>
        <time>2024-03-20T14:40:10Z</time>
      </trkpt>
      <trkpt lat="49.06989" lon="0.09085">
        <ele>43</ele>
        <time>2024-03-20T14:40:11Z</time>
      </trkpt>
      <trkpt lat="49.06986" lon="0.09095">
        <ele>43</ele>
        <time>2024-03-20T14:40:12Z</time>
      </trkpt>
      <trkpt lat="49.06983" lon="0.09105">
        <ele>43</ele>
        <time>2024-03-20T14:40:13Z</time>
      </trkpt>
      <trkpt lat="49.0698" lon="0.09115">
        <ele>43</ele>
        <time>2024-03-20T14:40:14Z</time>
      </trkpt>
      <trkpt lat="49.06976" lon="0.09127">
        <ele>43</ele>
        <time>2024-03-20T14:40:15Z</time>
      </trkpt>
      <trkpt lat="49.06974" lon="0.09135">
        <ele>43.4</ele>
        <time>2024-03-20T14:40:16Z</time>
      </trkpt>
      <trkpt lat="49.0697" lon="0.09147">
        <ele>43.6</ele>
        <time>2024-03-20T14:40:17Z</time>
      </trkpt>
      <trkpt lat="49.06967" lon="0.09154">
        <ele>44</ele>
        <time>2024-03-20T14:40:18Z</time>
      </trkpt>
      <trkpt lat="49.06964" lon="0.09164">
        <ele>44.2</ele>
        <time>2024-03-20T14:40:19Z</time>
      </trkpt>
      <trkpt lat="49.06961" lon="0.09176">
        <ele>44.4</ele>
        <time>2024-03-20T14:40:20Z</time>
      </trkpt>
      <trkpt lat="49.06959" lon="0.09186">
        <ele>44.4</ele>
        <time>2024-03-20T14:40:21Z</time>
      </trkpt>
      <trkpt lat="49.06956" lon="0.09194">
        <ele>44.4</ele>
        <time>2024-03-20T14:40:22Z</time>
      </trkpt>
      <trkpt lat="49.06953" lon="0.09207">
        <ele>44.4</ele>
        <time>2024-03-20T14:40:23Z</time>
      </trkpt>
      <trkpt lat="49.0695" lon="0.09215">
        <ele>44.4</ele>
        <time>2024-03-20T14:40:24Z</time>
      </trkpt>
      <trkpt lat="49.06947" lon="0.09225">
        <ele>44.4</ele>
        <time>2024-03-20T14:40:25Z</time>
      </trkpt>
      <trkpt lat="49.06944" lon="0.09235">
        <ele>44.6</ele>
        <time>2024-03-20T14:40:26Z</time>
      </trkpt>
      <trkpt lat="49.0694" lon="0.09245">
        <ele>44.6</ele>
        <time>2024-03-20T14:40:27Z</time>
      </trkpt>
      <trkpt lat="49.06936" lon="0.09255">
        <ele>44.8</ele>
        <time>2024-03-20T14:40:28Z</time>
      </trkpt>
      <trkpt lat="49.06932" lon="0.09267">
        <ele>44.8</ele>
        <time>2024-03-20T14:40:29Z</time>
      </trkpt>
      <trkpt lat="49.06928" lon="0.09277">
        <ele>44.8</ele>
        <time>2024-03-20T14:40:30Z</time>
      </trkpt>
      <trkpt lat="49.06925" lon="0.09284">
        <ele>44.8</ele>
        <time>2024-03-20T14:40:31Z</time>
      </trkpt>
      <trkpt lat="49.0692" lon="0.09292">
        <ele>45</ele>
        <time>2024-03-20T14:40:32Z</time>
      </trkpt>
      <trkpt lat="49.06915" lon="0.093">
        <ele>45</ele>
        <time>2024-03-20T14:40:33Z</time>
      </trkpt>
      <trkpt lat="49.0691" lon="0.09309">
        <ele>45</ele>
        <time>2024-03-20T14:40:34Z</time>
      </trkpt>
      <trkpt lat="49.06905" lon="0.09316">
        <ele>45</ele>
        <time>2024-03-20T14:40:35Z</time>
      </trkpt>
      <trkpt lat="49.06899" lon="0.09325">
        <ele>44.8</ele>
        <time>2024-03-20T14:40:36Z</time>
      </trkpt>
      <trkpt lat="49.06894" lon="0.09331">
        <ele>44.8</ele>
        <time>2024-03-20T14:40:37Z</time>
      </trkpt>
      <trkpt lat="49.06887" lon="0.09339">
        <ele>44.8</ele>
        <time>2024-03-20T14:40:38Z</time>
      </trkpt>
      <trkpt lat="49.06881" lon="0.09346">
        <ele>44.6</ele>
        <time>2024-03-20T14:40:39Z</time>
      </trkpt>
      <trkpt lat="49.06877" lon="0.09352">
        <ele>44.8</ele>
        <time>2024-03-20T14:40:40Z</time>
      </trkpt>
      <trkpt lat="49.0687" lon="0.0936">
        <ele>44.8</ele>
        <time>2024-03-20T14:40:41Z</time>
      </trkpt>
      <trkpt lat="49.06865" lon="0.09365">
        <ele>44.8</ele>
        <time>2024-03-20T14:40:42Z</time>
      </trkpt>
      <trkpt lat="49.06859" lon="0.09372">
        <ele>44.8</ele>
        <time>2024-03-20T14:40:43Z</time>
      </trkpt>
      <trkpt lat="49.06852" lon="0.09381">
        <ele>44.8</ele>
        <time>2024-03-20T14:40:44Z</time>
      </trkpt>
      <trkpt lat="49.06846" lon="0.09387">
        <ele>44.8</ele>
        <time>2024-03-20T14:40:45Z</time>
      </trkpt>
      <trkpt lat="49.06841" lon="0.09393">
        <ele>44.8</ele>
        <time>2024-03-20T14:40:46Z</time>
      </trkpt>
      <trkpt lat="49.06834" lon="0.09401">
        <ele>44.8</ele>
        <time>2024-03-20T14:40:47Z</time>
      </trkpt>
      <trkpt lat="49.06829" lon="0.09407">
        <ele>44.8</ele>
        <time>2024-03-20T14:40:48Z</time>
      </trkpt>
      <trkpt lat="49.06824" lon="0.09412">
        <ele>44.8</ele>
        <time>2024-03-20T14:40:49Z</time>
      </trkpt>
      <trkpt lat="49.06818" lon="0.09419">
        <ele>44.8</ele>
        <time>2024-03-20T14:40:50Z</time>
      </trkpt>
      <trkpt lat="49.06811" lon="0.09427">
        <ele>44.8</ele>
        <time>2024-03-20T14:40:51Z</time>
      </trkpt>
      <trkpt lat="49.06807" lon="0.09432">
        <ele>45</ele>
        <time>2024-03-20T14:40:52Z</time>
      </trkpt>
      <trkpt lat="49.068" lon="0.0944">
        <ele>45</ele>
        <time>2024-03-20T14:40:53Z</time>
      </trkpt>
      <trkpt lat="49.06795" lon="0.09446">
        <ele>45</ele>
        <time>2024-03-20T14:40:54Z</time>
      </trkpt>
      <trkpt lat="49.06789" lon="0.09453">
        <ele>45.2</ele>
        <time>2024-03-20T14:40:55Z</time>
      </trkpt>
      <trkpt lat="49.06782" lon="0.09461">
        <ele>45.2</ele>
        <time>2024-03-20T14:40:56Z</time>
      </trkpt>
      <trkpt lat="49.06776" lon="0.09468">
        <ele>45.2</ele>
        <time>2024-03-20T14:40:57Z</time>
      </trkpt>
      <trkpt lat="49.0677" lon="0.09475">
        <ele>45.4</ele>
        <time>2024-03-20T14:40:58Z</time>
      </trkpt>
      <trkpt lat="49.06766" lon="0.09481">
        <ele>45.4</ele>
        <time>2024-03-20T14:40:59Z</time>
      </trkpt>
      <trkpt lat="49.0676" lon="0.09488">
        <ele>45.6</ele>
        <time>2024-03-20T14:41:00Z</time>
      </trkpt>
      <trkpt lat="49.06753" lon="0.09496">
        <ele>45.6</ele>
        <time>2024-03-20T14:41:01Z</time>
      </trkpt>
      <trkpt lat="49.06748" lon="0.09502">
        <ele>45.6</ele>
        <time>2024-03-20T14:41:02Z</time>
      </trkpt>
      <trkpt lat="49.06742" lon="0.09509">
        <ele>45.6</ele>
        <time>2024-03-20T14:41:03Z</time>
      </trkpt>
      <trkpt lat="49.06735" lon="0.09517">
        <ele>45.6</ele>
        <time>2024-03-20T14:41:04Z</time>
      </trkpt>
      <trkpt lat="49.06729" lon="0.09524">
        <ele>45.6</ele>
        <time>2024-03-20T14:41:05Z</time>
      </trkpt>
      <trkpt lat="49.06725" lon="0.09529">
        <ele>45.6</ele>
        <time>2024-03-20T14:41:06Z</time>
      </trkpt>
      <trkpt lat="49.06717" lon="0.09537">
        <ele>45.6</ele>
        <time>2024-03-20T14:41:07Z</time>
      </trkpt>
      <trkpt lat="49.06713" lon="0.09543">
        <ele>45.6</ele>
        <time>2024-03-20T14:41:08Z</time>
      </trkpt>
      <trkpt lat="49.06707" lon="0.0955">
        <ele>45.6</ele>
        <time>2024-03-20T14:41:09Z</time>
      </trkpt>
      <trkpt lat="49.06699" lon="0.09558">
        <ele>45.6</ele>
        <time>2024-03-20T14:41:10Z</time>
      </trkpt>
      <trkpt lat="49.06693" lon="0.09565">
        <ele>45.6</ele>
        <time>2024-03-20T14:41:11Z</time>
      </trkpt>
      <trkpt lat="49.06689" lon="0.0957">
        <ele>45.6</ele>
        <time>2024-03-20T14:41:12Z</time>
      </trkpt>
      <trkpt lat="49.06681" lon="0.09579">
        <ele>45.6</ele>
        <time>2024-03-20T14:41:13Z</time>
      </trkpt>
      <trkpt lat="49.06675" lon="0.09586">
        <ele>45.8</ele>
        <time>2024-03-20T14:41:14Z</time>
      </trkpt>
      <trkpt lat="49.06671" lon="0.09591">
        <ele>45.8</ele>
        <time>2024-03-20T14:41:15Z</time>
      </trkpt>
      <trkpt lat="49.06665" lon="0.09598">
        <ele>45.8</ele>
        <time>2024-03-20T14:41:16Z</time>
      </trkpt>
      <trkpt lat="49.06659" lon="0.09605">
        <ele>45.8</ele>
        <time>2024-03-20T14:41:17Z</time>
      </trkpt>
      <trkpt lat="49.06651" lon="0.09613">
        <ele>45.8</ele>
        <time>2024-03-20T14:41:18Z</time>
      </trkpt>
      <trkpt lat="49.06645" lon="0.0962">
        <ele>45.8</ele>
        <time>2024-03-20T14:41:19Z</time>
      </trkpt>
      <trkpt lat="49.06639" lon="0.09626">
        <ele>45.8</ele>
        <time>2024-03-20T14:41:20Z</time>
      </trkpt>
      <trkpt lat="49.06633" lon="0.09634">
        <ele>45.8</ele>
        <time>2024-03-20T14:41:21Z</time>
      </trkpt>
      <trkpt lat="49.06628" lon="0.0964">
        <ele>45.8</ele>
        <time>2024-03-20T14:41:22Z</time>
      </trkpt>
      <trkpt lat="49.06621" lon="0.09649">
        <ele>45.8</ele>
        <time>2024-03-20T14:41:23Z</time>
      </trkpt>
      <trkpt lat="49.06616" lon="0.09657">
        <ele>45.8</ele>
        <time>2024-03-20T14:41:24Z</time>
      </trkpt>
      <trkpt lat="49.06611" lon="0.09663">
        <ele>46</ele>
        <time>2024-03-20T14:41:25Z</time>
      </trkpt>
      <trkpt lat="49.06605" lon="0.09672">
        <ele>46</ele>
        <time>2024-03-20T14:41:26Z</time>
      </trkpt>
      <trkpt lat="49.066" lon="0.09681">
        <ele>46</ele>
        <time>2024-03-20T14:41:27Z</time>
      </trkpt>
      <trkpt lat="49.06596" lon="0.09688">
        <ele>46</ele>
        <time>2024-03-20T14:41:28Z</time>
      </trkpt>
      <trkpt lat="49.0659" lon="0.09698">
        <ele>46</ele>
        <time>2024-03-20T14:41:29Z</time>
      </trkpt>
      <trkpt lat="49.06586" lon="0.09707">
        <ele>46</ele>
        <time>2024-03-20T14:41:30Z</time>
      </trkpt>
      <trkpt lat="49.06583" lon="0.09714">
        <ele>46</ele>
        <time>2024-03-20T14:41:31Z</time>
      </trkpt>
      <trkpt lat="49.06577" lon="0.09726">
        <ele>46</ele>
        <time>2024-03-20T14:41:32Z</time>
      </trkpt>
      <trkpt lat="49.06574" lon="0.09733">
        <ele>46</ele>
        <time>2024-03-20T14:41:33Z</time>
      </trkpt>
      <trkpt lat="49.0657" lon="0.09741">
        <ele>46</ele>
        <time>2024-03-20T14:41:34Z</time>
      </trkpt>
      <trkpt lat="49.06564" lon="0.09754">
        <ele>46</ele>
        <time>2024-03-20T14:41:35Z</time>
      </trkpt>
      <trkpt lat="49.0656" lon="0.09763">
        <ele>46</ele>
        <time>2024-03-20T14:41:36Z</time>
      </trkpt>
      <trkpt lat="49.06557" lon="0.09771">
        <ele>46</ele>
        <time>2024-03-20T14:41:37Z</time>
      </trkpt>
      <trkpt lat="49.06552" lon="0.09782">
        <ele>46</ele>
        <time>2024-03-20T14:41:38Z</time>
      </trkpt>
      <trkpt lat="49.06548" lon="0.09792">
        <ele>46</ele>
        <time>2024-03-20T14:41:39Z</time>
      </trkpt>
      <trkpt lat="49.06545" lon="0.098">
        <ele>46</ele>
        <time>2024-03-20T14:41:40Z</time>
      </trkpt>
      <trkpt lat="49.06541" lon="0.09809">
        <ele>46</ele>
        <time>2024-03-20T14:41:41Z</time>
      </trkpt>
      <trkpt lat="49.06536" lon="0.09821">
        <ele>46</ele>
        <time>2024-03-20T14:41:42Z</time>
      </trkpt>
      <trkpt lat="49.06532" lon="0.09829">
        <ele>46</ele>
        <time>2024-03-20T14:41:43Z</time>
      </trkpt>
      <trkpt lat="49.06529" lon="0.09837">
        <ele>46.2</ele>
        <time>2024-03-20T14:41:44Z</time>
      </trkpt>
      <trkpt lat="49.06524" lon="0.09846">
        <ele>46.2</ele>
        <time>2024-03-20T14:41:45Z</time>
      </trkpt>
      <trkpt lat="49.0652" lon="0.09856">
        <ele>46.2</ele>
        <time>2024-03-20T14:41:46Z</time>
      </trkpt>
      <trkpt lat="49.06515" lon="0.0987">
        <ele>46.4</ele>
        <time>2024-03-20T14:41:47Z</time>
      </trkpt>
      <trkpt lat="49.06512" lon="0.09878">
        <ele>46.4</ele>
        <time>2024-03-20T14:41:48Z</time>
      </trkpt>
      <trkpt lat="49.06509" lon="0.09888">
        <ele>46.4</ele>
        <time>2024-03-20T14:41:49Z</time>
      </trkpt>
      <trkpt lat="49.06506" lon="0.09899">
        <ele>46.6</ele>
        <time>2024-03-20T14:41:50Z</time>
      </trkpt>
      <trkpt lat="49.06503" lon="0.09909">
        <ele>46.6</ele>
        <time>2024-03-20T14:41:51Z</time>
      </trkpt>
      <trkpt lat="49.06499" lon="0.0992">
        <ele>46.8</ele>
        <time>2024-03-20T14:41:52Z</time>
      </trkpt>
      <trkpt lat="49.06496" lon="0.09934">
        <ele>46.8</ele>
        <time>2024-03-20T14:41:53Z</time>
      </trkpt>
      <trkpt lat="49.06494" lon="0.09943">
        <ele>47</ele>
        <time>2024-03-20T14:41:54Z</time>
      </trkpt>
      <trkpt lat="49.06491" lon="0.09956">
        <ele>47</ele>
        <time>2024-03-20T14:41:55Z</time>
      </trkpt>
      <trkpt lat="49.0649" lon="0.09968">
        <ele>47</ele>
        <time>2024-03-20T14:41:56Z</time>
      </trkpt>
      <trkpt lat="49.06489" lon="0.09976">
        <ele>47</ele>
        <time>2024-03-20T14:41:57Z</time>
      </trkpt>
      <trkpt lat="49.06487" lon="0.09988">
        <ele>47.2</ele>
        <time>2024-03-20T14:41:58Z</time>
      </trkpt>
      <trkpt lat="49.06486" lon="0.09999">
        <ele>47.2</ele>
        <time>2024-03-20T14:41:59Z</time>
      </trkpt>
      <trkpt lat="49.06485" lon="0.1001">
        <ele>47.2</ele>
        <time>2024-03-20T14:42:00Z</time>
      </trkpt>
      <trkpt lat="49.06483" lon="0.10022">
        <ele>47.2</ele>
        <time>2024-03-20T14:42:01Z</time>
      </trkpt>
      <trkpt lat="49.06481" lon="0.10033">
        <ele>47.4</ele>
        <time>2024-03-20T14:42:02Z</time>
      </trkpt>
      <trkpt lat="49.0648" lon="0.10042">
        <ele>47.4</ele>
        <time>2024-03-20T14:42:03Z</time>
      </trkpt>
      <trkpt lat="49.06479" lon="0.10053">
        <ele>47.4</ele>
        <time>2024-03-20T14:42:04Z</time>
      </trkpt>
      <trkpt lat="49.06478" lon="0.10066">
        <ele>47.4</ele>
        <time>2024-03-20T14:42:05Z</time>
      </trkpt>
      <trkpt lat="49.06476" lon="0.10075">
        <ele>47.6</ele>
        <time>2024-03-20T14:42:06Z</time>
      </trkpt>
      <trkpt lat="49.06475" lon="0.10086">
        <ele>47.6</ele>
        <time>2024-03-20T14:42:07Z</time>
      </trkpt>
      <trkpt lat="49.06473" lon="0.10097">
        <ele>47.8</ele>
        <time>2024-03-20T14:42:08Z</time>
      </trkpt>
      <trkpt lat="49.06472" lon="0.10108">
        <ele>48</ele>
        <time>2024-03-20T14:42:09Z</time>
      </trkpt>
      <trkpt lat="49.06471" lon="0.10121">
        <ele>48</ele>
        <time>2024-03-20T14:42:10Z</time>
      </trkpt>
      <trkpt lat="49.0647" lon="0.10132">
        <ele>48.2</ele>
        <time>2024-03-20T14:42:11Z</time>
      </trkpt>
      <trkpt lat="49.06469" lon="0.10141">
        <ele>48.4</ele>
        <time>2024-03-20T14:42:12Z</time>
      </trkpt>
      <trkpt lat="49.06467" lon="0.10154">
        <ele>48.4</ele>
        <time>2024-03-20T14:42:13Z</time>
      </trkpt>
      <trkpt lat="49.06466" lon="0.10163">
        <ele>48.6</ele>
        <time>2024-03-20T14:42:14Z</time>
      </trkpt>
      <trkpt lat="49.06465" lon="0.10174">
        <ele>48.6</ele>
        <time>2024-03-20T14:42:15Z</time>
      </trkpt>
      <trkpt lat="49.06464" lon="0.10187">
        <ele>48.6</ele>
        <time>2024-03-20T14:42:16Z</time>
      </trkpt>
      <trkpt lat="49.06462" lon="0.10195">
        <ele>48.8</ele>
        <time>2024-03-20T14:42:17Z</time>
      </trkpt>
      <trkpt lat="49.06461" lon="0.10206">
        <ele>48.8</ele>
        <time>2024-03-20T14:42:18Z</time>
      </trkpt>
      <trkpt lat="49.06458" lon="0.10219">
        <ele>49</ele>
        <time>2024-03-20T14:42:19Z</time>
      </trkpt>
      <trkpt lat="49.06456" lon="0.10228">
        <ele>49</ele>
        <time>2024-03-20T14:42:20Z</time>
      </trkpt>
      <trkpt lat="49.06454" lon="0.10238">
        <ele>49</ele>
        <time>2024-03-20T14:42:21Z</time>
      </trkpt>
      <trkpt lat="49.06452" lon="0.10249">
        <ele>49.2</ele>
        <time>2024-03-20T14:42:22Z</time>
      </trkpt>
      <trkpt lat="49.06449" lon="0.10259">
        <ele>49.2</ele>
        <time>2024-03-20T14:42:23Z</time>
      </trkpt>
      <trkpt lat="49.06446" lon="0.10269">
        <ele>49.2</ele>
        <time>2024-03-20T14:42:24Z</time>
      </trkpt>
      <trkpt lat="49.06442" lon="0.10279">
        <ele>49.2</ele>
        <time>2024-03-20T14:42:25Z</time>
      </trkpt>
      <trkpt lat="49.06437" lon="0.1029">
        <ele>49.2</ele>
        <time>2024-03-20T14:42:26Z</time>
      </trkpt>
      <trkpt lat="49.06434" lon="0.10297">
        <ele>49.2</ele>
        <time>2024-03-20T14:42:27Z</time>
      </trkpt>
      <trkpt lat="49.06429" lon="0.10306">
        <ele>49.4</ele>
        <time>2024-03-20T14:42:28Z</time>
      </trkpt>
      <trkpt lat="49.06423" lon="0.10317">
        <ele>49.4</ele>
        <time>2024-03-20T14:42:29Z</time>
      </trkpt>
      <trkpt lat="49.0642" lon="0.10324">
        <ele>49.4</ele>
        <time>2024-03-20T14:42:30Z</time>
      </trkpt>
      <trkpt lat="49.06415" lon="0.10332">
        <ele>49.4</ele>
        <time>2024-03-20T14:42:31Z</time>
      </trkpt>
      <trkpt lat="49.0641" lon="0.1034">
        <ele>49.6</ele>
        <time>2024-03-20T14:42:32Z</time>
      </trkpt>
      <trkpt lat="49.06405" lon="0.10349">
        <ele>49.6</ele>
        <time>2024-03-20T14:42:33Z</time>
      </trkpt>
      <trkpt lat="49.064" lon="0.10357">
        <ele>49.6</ele>
        <time>2024-03-20T14:42:34Z</time>
      </trkpt>
      <trkpt lat="49.06395" lon="0.10367">
        <ele>49.6</ele>
        <time>2024-03-20T14:42:35Z</time>
      </trkpt>
      <trkpt lat="49.06391" lon="0.10374">
        <ele>49.6</ele>
        <time>2024-03-20T14:42:36Z</time>
      </trkpt>
      <trkpt lat="49.06387" lon="0.10382">
        <ele>49.6</ele>
        <time>2024-03-20T14:42:37Z</time>
      </trkpt>
      <trkpt lat="49.06381" lon="0.10392">
        <ele>49.6</ele>
        <time>2024-03-20T14:42:38Z</time>
      </trkpt>
      <trkpt lat="49.06377" lon="0.10399">
        <ele>49.6</ele>
        <time>2024-03-20T14:42:39Z</time>
      </trkpt>
      <trkpt lat="49.06373" lon="0.10407">
        <ele>49.6</ele>
        <time>2024-03-20T14:42:40Z</time>
      </trkpt>
      <trkpt lat="49.06368" lon="0.10415">
        <ele>49.6</ele>
        <time>2024-03-20T14:42:41Z</time>
      </trkpt>
      <trkpt lat="49.06363" lon="0.10424">
        <ele>49.6</ele>
        <time>2024-03-20T14:42:42Z</time>
      </trkpt>
      <trkpt lat="49.0636" lon="0.10431">
        <ele>49.6</ele>
        <time>2024-03-20T14:42:43Z</time>
      </trkpt>
      <trkpt lat="49.06355" lon="0.10439">
        <ele>49.6</ele>
        <time>2024-03-20T14:42:44Z</time>
      </trkpt>
      <trkpt lat="49.0635" lon="0.10447">
        <ele>49.6</ele>
        <time>2024-03-20T14:42:45Z</time>
      </trkpt>
      <trkpt lat="49.06344" lon="0.10457">
        <ele>49.8</ele>
        <time>2024-03-20T14:42:46Z</time>
      </trkpt>
      <trkpt lat="49.06339" lon="0.10468">
        <ele>49.8</ele>
        <time>2024-03-20T14:42:47Z</time>
      </trkpt>
      <trkpt lat="49.06336" lon="0.10473">
        <ele>49.8</ele>
        <time>2024-03-20T14:42:48Z</time>
      </trkpt>
      <trkpt lat="49.06331" lon="0.10482">
        <ele>49.8</ele>
        <time>2024-03-20T14:42:49Z</time>
      </trkpt>
      <trkpt lat="49.06324" lon="0.10494">
        <ele>49.8</ele>
        <time>2024-03-20T14:42:50Z</time>
      </trkpt>
      <trkpt lat="49.0632" lon="0.105">
        <ele>49.8</ele>
        <time>2024-03-20T14:42:51Z</time>
      </trkpt>
      <trkpt lat="49.06315" lon="0.10508">
        <ele>49.8</ele>
        <time>2024-03-20T14:42:52Z</time>
      </trkpt>
      <trkpt lat="49.06309" lon="0.10517">
        <ele>49.8</ele>
        <time>2024-03-20T14:42:53Z</time>
      </trkpt>
      <trkpt lat="49.06305" lon="0.10523">
        <ele>50</ele>
        <time>2024-03-20T14:42:54Z</time>
      </trkpt>
      <trkpt lat="49.06299" lon="0.10531">
        <ele>50</ele>
        <time>2024-03-20T14:42:55Z</time>
      </trkpt>
      <trkpt lat="49.06292" lon="0.10539">
        <ele>50</ele>
        <time>2024-03-20T14:42:56Z</time>
      </trkpt>
      <trkpt lat="49.06288" lon="0.10544">
        <ele>50.2</ele>
        <time>2024-03-20T14:42:57Z</time>
      </trkpt>
      <trkpt lat="49.06282" lon="0.10551">
        <ele>50.2</ele>
        <time>2024-03-20T14:42:58Z</time>
      </trkpt>
      <trkpt lat="49.06275" lon="0.10559">
        <ele>50.4</ele>
        <time>2024-03-20T14:42:59Z</time>
      </trkpt>
      <trkpt lat="49.06269" lon="0.10565">
        <ele>50.4</ele>
        <time>2024-03-20T14:43:00Z</time>
      </trkpt>
      <trkpt lat="49.06264" lon="0.1057">
        <ele>50.4</ele>
        <time>2024-03-20T14:43:01Z</time>
      </trkpt>
      <trkpt lat="49.06258" lon="0.10576">
        <ele>50.4</ele>
        <time>2024-03-20T14:43:02Z</time>
      </trkpt>
      <trkpt lat="49.06252" lon="0.10583">
        <ele>50.4</ele>
        <time>2024-03-20T14:43:03Z</time>
      </trkpt>
      <trkpt lat="49.06246" lon="0.10589">
        <ele>50.4</ele>
        <time>2024-03-20T14:43:04Z</time>
      </trkpt>
      <trkpt lat="49.06239" lon="0.10596">
        <ele>50.6</ele>
        <time>2024-03-20T14:43:05Z</time>
      </trkpt>
      <trkpt lat="49.06233" lon="0.10603">
        <ele>50.6</ele>
        <time>2024-03-20T14:43:06Z</time>
      </trkpt>
      <trkpt lat="49.06228" lon="0.10608">
        <ele>50.6</ele>
        <time>2024-03-20T14:43:07Z</time>
      </trkpt>
      <trkpt lat="49.06222" lon="0.10614">
        <ele>50.6</ele>
        <time>2024-03-20T14:43:08Z</time>
      </trkpt>
      <trkpt lat="49.06215" lon="0.10622">
        <ele>50.8</ele>
        <time>2024-03-20T14:43:09Z</time>
      </trkpt>
      <trkpt lat="49.0621" lon="0.10627">
        <ele>50.8</ele>
        <time>2024-03-20T14:43:10Z</time>
      </trkpt>
      <trkpt lat="49.06204" lon="0.10633">
        <ele>50.8</ele>
        <time>2024-03-20T14:43:11Z</time>
      </trkpt>
      <trkpt lat="49.06197" lon="0.1064">
        <ele>50.8</ele>
        <time>2024-03-20T14:43:12Z</time>
      </trkpt>
      <trkpt lat="49.06191" lon="0.10646">
        <ele>50.8</ele>
        <time>2024-03-20T14:43:13Z</time>
      </trkpt>
      <trkpt lat="49.06185" lon="0.10653">
        <ele>50.8</ele>
        <time>2024-03-20T14:43:14Z</time>
      </trkpt>
      <trkpt lat="49.06178" lon="0.10659">
        <ele>51</ele>
        <time>2024-03-20T14:43:15Z</time>
      </trkpt>
      <trkpt lat="49.06172" lon="0.10666">
        <ele>51</ele>
        <time>2024-03-20T14:43:16Z</time>
      </trkpt>
      <trkpt lat="49.06165" lon="0.10674">
        <ele>51</ele>
        <time>2024-03-20T14:43:17Z</time>
      </trkpt>
      <trkpt lat="49.0616" lon="0.10679">
        <ele>51</ele>
        <time>2024-03-20T14:43:18Z</time>
      </trkpt>
      <trkpt lat="49.06154" lon="0.10686">
        <ele>51</ele>
        <time>2024-03-20T14:43:19Z</time>
      </trkpt>
      <trkpt lat="49.06146" lon="0.10693">
        <ele>51.2</ele>
        <time>2024-03-20T14:43:20Z</time>
      </trkpt>
      <trkpt lat="49.06139" lon="0.10699">
        <ele>51.2</ele>
        <time>2024-03-20T14:43:21Z</time>
      </trkpt>
      <trkpt lat="49.06134" lon="0.10704">
        <ele>51.2</ele>
        <time>2024-03-20T14:43:22Z</time>
      </trkpt>
      <trkpt lat="49.06126" lon="0.10712">
        <ele>51.2</ele>
        <time>2024-03-20T14:43:23Z</time>
      </trkpt>
      <trkpt lat="49.06121" lon="0.10716">
        <ele>51.2</ele>
        <time>2024-03-20T14:43:24Z</time>
      </trkpt>
      <trkpt lat="49.06114" lon="0.10722">
        <ele>51.2</ele>
        <time>2024-03-20T14:43:25Z</time>
      </trkpt>
      <trkpt lat="49.06107" lon="0.10727">
        <ele>51.4</ele>
        <time>2024-03-20T14:43:26Z</time>
      </trkpt>
      <trkpt lat="49.06098" lon="0.10733">
        <ele>51.4</ele>
        <time>2024-03-20T14:43:27Z</time>
      </trkpt>
      <trkpt lat="49.06093" lon="0.10737">
        <ele>51.4</ele>
        <time>2024-03-20T14:43:28Z</time>
      </trkpt>
      <trkpt lat="49.06084" lon="0.10742">
        <ele>51.4</ele>
        <time>2024-03-20T14:43:29Z</time>
      </trkpt>
      <trkpt lat="49.06077" lon="0.10747">
        <ele>51.4</ele>
        <time>2024-03-20T14:43:30Z</time>
      </trkpt>
      <trkpt lat="49.06072" lon="0.10751">
        <ele>51.4</ele>
        <time>2024-03-20T14:43:31Z</time>
      </trkpt>
      <trkpt lat="49.06064" lon="0.10756">
        <ele>51.6</ele>
        <time>2024-03-20T14:43:32Z</time>
      </trkpt>
      <trkpt lat="49.06057" lon="0.10761">
        <ele>51.6</ele>
        <time>2024-03-20T14:43:33Z</time>
      </trkpt>
      <trkpt lat="49.06051" lon="0.10764">
        <ele>51.6</ele>
        <time>2024-03-20T14:43:34Z</time>
      </trkpt>
      <trkpt lat="49.06043" lon="0.1077">
        <ele>51.6</ele>
        <time>2024-03-20T14:43:35Z</time>
      </trkpt>
      <trkpt lat="49.06036" lon="0.10774">
        <ele>51.6</ele>
        <time>2024-03-20T14:43:36Z</time>
      </trkpt>
      <trkpt lat="49.06031" lon="0.10778">
        <ele>51.6</ele>
        <time>2024-03-20T14:43:37Z</time>
      </trkpt>
      <trkpt lat="49.06022" lon="0.10783">
        <ele>51.6</ele>
        <time>2024-03-20T14:43:38Z</time>
      </trkpt>
      <trkpt lat="49.06016" lon="0.10788">
        <ele>51.6</ele>
        <time>2024-03-20T14:43:39Z</time>
      </trkpt>
      <trkpt lat="49.0601" lon="0.10792">
        <ele>51.6</ele>
        <time>2024-03-20T14:43:40Z</time>
      </trkpt>
      <trkpt lat="49.06002" lon="0.10797">
        <ele>51.6</ele>
        <time>2024-03-20T14:43:41Z</time>
      </trkpt>
      <trkpt lat="49.05996" lon="0.10801">
        <ele>51.6</ele>
        <time>2024-03-20T14:43:42Z</time>
      </trkpt>
      <trkpt lat="49.05989" lon="0.10806">
        <ele>51.6</ele>
        <time>2024-03-20T14:43:43Z</time>
      </trkpt>
      <trkpt lat="49.05981" lon="0.10811">
        <ele>51.6</ele>
        <time>2024-03-20T14:43:44Z</time>
      </trkpt>
      <trkpt lat="49.05975" lon="0.10814">
        <ele>51.4</ele>
        <time>2024-03-20T14:43:45Z</time>
      </trkpt>
      <trkpt lat="49.05968" lon="0.10819">
        <ele>51.4</ele>
        <time>2024-03-20T14:43:46Z</time>
      </trkpt>
      <trkpt lat="49.05961" lon="0.10823">
        <ele>51.4</ele>
        <time>2024-03-20T14:43:47Z</time>
      </trkpt>
      <trkpt lat="49.05953" lon="0.10828">
        <ele>51.4</ele>
        <time>2024-03-20T14:43:48Z</time>
      </trkpt>
      <trkpt lat="49.05947" lon="0.10833">
        <ele>51.4</ele>
        <time>2024-03-20T14:43:49Z</time>
      </trkpt>
      <trkpt lat="49.0594" lon="0.10838">
        <ele>51.4</ele>
        <time>2024-03-20T14:43:50Z</time>
      </trkpt>
      <trkpt lat="49.05932" lon="0.10844">
        <ele>51.2</ele>
        <time>2024-03-20T14:43:51Z</time>
      </trkpt>
      <trkpt lat="49.05926" lon="0.10848">
        <ele>51.2</ele>
        <time>2024-03-20T14:43:52Z</time>
      </trkpt>
      <trkpt lat="49.0592" lon="0.10853">
        <ele>51.2</ele>
        <time>2024-03-20T14:43:53Z</time>
      </trkpt>
      <trkpt lat="49.05912" lon="0.10859">
        <ele>51.4</ele>
        <time>2024-03-20T14:43:54Z</time>
      </trkpt>
      <trkpt lat="49.05907" lon="0.10864">
        <ele>51.2</ele>
        <time>2024-03-20T14:43:55Z</time>
      </trkpt>
      <trkpt lat="49.059" lon="0.1087">
        <ele>51.2</ele>
        <time>2024-03-20T14:43:56Z</time>
      </trkpt>
      <trkpt lat="49.05894" lon="0.10876">
        <ele>51.2</ele>
        <time>2024-03-20T14:43:57Z</time>
      </trkpt>
      <trkpt lat="49.05888" lon="0.10883">
        <ele>51.2</ele>
        <time>2024-03-20T14:43:58Z</time>
      </trkpt>
      <trkpt lat="49.05882" lon="0.10891">
        <ele>51.2</ele>
        <time>2024-03-20T14:43:59Z</time>
      </trkpt>
      <trkpt lat="49.05875" lon="0.109">
        <ele>51.2</ele>
        <time>2024-03-20T14:44:00Z</time>
      </trkpt>
      <trkpt lat="49.05871" lon="0.10906">
        <ele>51.2</ele>
        <time>2024-03-20T14:44:01Z</time>
      </trkpt>
      <trkpt lat="49.05865" lon="0.10914">
        <ele>51.2</ele>
        <time>2024-03-20T14:44:02Z</time>
      </trkpt>
      <trkpt lat="49.05858" lon="0.10925">
        <ele>51.2</ele>
        <time>2024-03-20T14:44:03Z</time>
      </trkpt>
      <trkpt lat="49.05854" lon="0.10932">
        <ele>51.4</ele>
        <time>2024-03-20T14:44:04Z</time>
      </trkpt>
      <trkpt lat="49.05848" lon="0.1094">
        <ele>51</ele>
        <time>2024-03-20T14:44:05Z</time>
      </trkpt>
      <trkpt lat="49.05843" lon="0.10948">
        <ele>51.2</ele>
        <time>2024-03-20T14:44:06Z</time>
      </trkpt>
      <trkpt lat="49.05837" lon="0.10957">
        <ele>51</ele>
        <time>2024-03-20T14:44:07Z</time>
      </trkpt>
      <trkpt lat="49.05832" lon="0.10965">
        <ele>51</ele>
        <time>2024-03-20T14:44:08Z</time>
      </trkpt>
      <trkpt lat="49.05826" lon="0.10974">
        <ele>50.8</ele>
        <time>2024-03-20T14:44:09Z</time>
      </trkpt>
      <trkpt lat="49.0582" lon="0.10984">
        <ele>50.6</ele>
        <time>2024-03-20T14:44:10Z</time>
      </trkpt>
      <trkpt lat="49.05815" lon="0.10991">
        <ele>50.8</ele>
        <time>2024-03-20T14:44:11Z</time>
      </trkpt>
      <trkpt lat="49.05809" lon="0.11">
        <ele>50.6</ele>
        <time>2024-03-20T14:44:12Z</time>
      </trkpt>
      <trkpt lat="49.05803" lon="0.1101">
        <ele>50.6</ele>
        <time>2024-03-20T14:44:13Z</time>
      </trkpt>
      <trkpt lat="49.05798" lon="0.11017">
        <ele>50.6</ele>
        <time>2024-03-20T14:44:14Z</time>
      </trkpt>
      <trkpt lat="49.05792" lon="0.11025">
        <ele>50.4</ele>
        <time>2024-03-20T14:44:15Z</time>
      </trkpt>
      <trkpt lat="49.05787" lon="0.11034">
        <ele>50.4</ele>
        <time>2024-03-20T14:44:16Z</time>
      </trkpt>
      <trkpt lat="49.05781" lon="0.11042">
        <ele>50.4</ele>
        <time>2024-03-20T14:44:17Z</time>
      </trkpt>
      <trkpt lat="49.05775" lon="0.11051">
        <ele>50.4</ele>
        <time>2024-03-20T14:44:18Z</time>
      </trkpt>
      <trkpt lat="49.05769" lon="0.11061">
        <ele>50.2</ele>
        <time>2024-03-20T14:44:19Z</time>
      </trkpt>
      <trkpt lat="49.05763" lon="0.11069">
        <ele>50.2</ele>
        <time>2024-03-20T14:44:20Z</time>
      </trkpt>
      <trkpt lat="49.05759" lon="0.11076">
        <ele>50.2</ele>
        <time>2024-03-20T14:44:21Z</time>
      </trkpt>
      <trkpt lat="49.05753" lon="0.11084">
        <ele>50.2</ele>
        <time>2024-03-20T14:44:22Z</time>
      </trkpt>
      <trkpt lat="49.05746" lon="0.11092">
        <ele>50.2</ele>
        <time>2024-03-20T14:44:23Z</time>
      </trkpt>
      <trkpt lat="49.05741" lon="0.11098">
        <ele>50.2</ele>
        <time>2024-03-20T14:44:24Z</time>
      </trkpt>
      <trkpt lat="49.05734" lon="0.11105">
        <ele>50</ele>
        <time>2024-03-20T14:44:25Z</time>
      </trkpt>
      <trkpt lat="49.05728" lon="0.11109">
        <ele>50</ele>
        <time>2024-03-20T14:44:26Z</time>
      </trkpt>
      <trkpt lat="49.05722" lon="0.11113">
        <ele>50</ele>
        <time>2024-03-20T14:44:27Z</time>
      </trkpt>
      <trkpt lat="49.05715" lon="0.11117">
        <ele>50</ele>
        <time>2024-03-20T14:44:28Z</time>
      </trkpt>
      <trkpt lat="49.05708" lon="0.1112">
        <ele>50</ele>
        <time>2024-03-20T14:44:29Z</time>
      </trkpt>
      <trkpt lat="49.05701" lon="0.11122">
        <ele>49.8</ele>
        <time>2024-03-20T14:44:30Z</time>
      </trkpt>
      <trkpt lat="49.05693" lon="0.11124">
        <ele>49.4</ele>
        <time>2024-03-20T14:44:31Z</time>
      </trkpt>
      <trkpt lat="49.05687" lon="0.11123">
        <ele>49.6</ele>
        <time>2024-03-20T14:44:32Z</time>
      </trkpt>
      <trkpt lat="49.0568" lon="0.11123">
        <ele>49.6</ele>
        <time>2024-03-20T14:44:33Z</time>
      </trkpt>
      <trkpt lat="49.05673" lon="0.11122">
        <ele>49.6</ele>
        <time>2024-03-20T14:44:34Z</time>
      </trkpt>
      <trkpt lat="49.05666" lon="0.11121">
        <ele>49.6</ele>
        <time>2024-03-20T14:44:35Z</time>
      </trkpt>
      <trkpt lat="49.05661" lon="0.1112">
        <ele>49.6</ele>
        <time>2024-03-20T14:44:36Z</time>
      </trkpt>
      <trkpt lat="49.05654" lon="0.11118">
        <ele>49.6</ele>
        <time>2024-03-20T14:44:37Z</time>
      </trkpt>
      <trkpt lat="49.05649" lon="0.11116">
        <ele>49.6</ele>
        <time>2024-03-20T14:44:38Z</time>
      </trkpt>
      <trkpt lat="49.05643" lon="0.11112">
        <ele>49.6</ele>
        <time>2024-03-20T14:44:39Z</time>
      </trkpt>
      <trkpt lat="49.05636" lon="0.11105">
        <ele>49.6</ele>
        <time>2024-03-20T14:44:40Z</time>
      </trkpt>
      <trkpt lat="49.05632" lon="0.11099">
        <ele>49.6</ele>
        <time>2024-03-20T14:44:41Z</time>
      </trkpt>
      <trkpt lat="49.05629" lon="0.11091">
        <ele>49.8</ele>
        <time>2024-03-20T14:44:42Z</time>
      </trkpt>
      <trkpt lat="49.05625" lon="0.11081">
        <ele>50</ele>
        <time>2024-03-20T14:44:43Z</time>
      </trkpt>
      <trkpt lat="49.05621" lon="0.11069">
        <ele>50.2</ele>
        <time>2024-03-20T14:44:44Z</time>
      </trkpt>
      <trkpt lat="49.05619" lon="0.11062">
        <ele>50.2</ele>
        <time>2024-03-20T14:44:45Z</time>
      </trkpt>
      <trkpt lat="49.05616" lon="0.11051">
        <ele>50.4</ele>
        <time>2024-03-20T14:44:46Z</time>
      </trkpt>
      <trkpt lat="49.05613" lon="0.11042">
        <ele>50.6</ele>
        <time>2024-03-20T14:44:47Z</time>
      </trkpt>
      <trkpt lat="49.05611" lon="0.11035">
        <ele>50.8</ele>
        <time>2024-03-20T14:44:48Z</time>
      </trkpt>
      <trkpt lat="49.05608" lon="0.11026">
        <ele>50.8</ele>
        <time>2024-03-20T14:44:49Z</time>
      </trkpt>
      <trkpt lat="49.05606" lon="0.11017">
        <ele>50.8</ele>
        <time>2024-03-20T14:44:50Z</time>
      </trkpt>
      <trkpt lat="49.05603" lon="0.11009">
        <ele>51</ele>
        <time>2024-03-20T14:44:51Z</time>
      </trkpt>
      <trkpt lat="49.056" lon="0.10999">
        <ele>51.2</ele>
        <time>2024-03-20T14:44:52Z</time>
      </trkpt>
      <trkpt lat="49.05597" lon="0.10991">
        <ele>51.4</ele>
        <time>2024-03-20T14:44:53Z</time>
      </trkpt>
      <trkpt lat="49.05595" lon="0.10985">
        <ele>51.6</ele>
        <time>2024-03-20T14:44:54Z</time>
      </trkpt>
      <trkpt lat="49.05592" lon="0.10975">
        <ele>51.8</ele>
        <time>2024-03-20T14:44:55Z</time>
      </trkpt>
      <trkpt lat="49.0559" lon="0.10968">
        <ele>52</ele>
        <time>2024-03-20T14:44:56Z</time>
      </trkpt>
      <trkpt lat="49.05587" lon="0.1096">
        <ele>52.2</ele>
        <time>2024-03-20T14:44:57Z</time>
      </trkpt>
      <trkpt lat="49.05584" lon="0.1095">
        <ele>52.4</ele>
        <time>2024-03-20T14:44:58Z</time>
      </trkpt>
      <trkpt lat="49.05581" lon="0.10943">
        <ele>52.8</ele>
        <time>2024-03-20T14:44:59Z</time>
      </trkpt>
      <trkpt lat="49.05578" lon="0.10935">
        <ele>53.2</ele>
        <time>2024-03-20T14:45:00Z</time>
      </trkpt>
      <trkpt lat="49.05575" lon="0.10925">
        <ele>53.4</ele>
        <time>2024-03-20T14:45:01Z</time>
      </trkpt>
      <trkpt lat="49.05572" lon="0.10919">
        <ele>53.6</ele>
        <time>2024-03-20T14:45:02Z</time>
      </trkpt>
      <trkpt lat="49.05569" lon="0.10911">
        <ele>53.8</ele>
        <time>2024-03-20T14:45:03Z</time>
      </trkpt>
      <trkpt lat="49.05566" lon="0.10904">
        <ele>54</ele>
        <time>2024-03-20T14:45:04Z</time>
      </trkpt>
      <trkpt lat="49.05562" lon="0.10895">
        <ele>54.2</ele>
        <time>2024-03-20T14:45:05Z</time>
      </trkpt>
      <trkpt lat="49.05559" lon="0.10889">
        <ele>54.2</ele>
        <time>2024-03-20T14:45:06Z</time>
      </trkpt>
      <trkpt lat="49.05554" lon="0.10881">
        <ele>54.4</ele>
        <time>2024-03-20T14:45:07Z</time>
      </trkpt>
      <trkpt lat="49.05551" lon="0.10875">
        <ele>54.6</ele>
        <time>2024-03-20T14:45:08Z</time>
      </trkpt>
      <trkpt lat="49.05547" lon="0.10869">
        <ele>54.6</ele>
        <time>2024-03-20T14:45:09Z</time>
      </trkpt>
      <trkpt lat="49.05542" lon="0.10861">
        <ele>54.6</ele>
        <time>2024-03-20T14:45:10Z</time>
      </trkpt>
      <trkpt lat="49.05539" lon="0.10856">
        <ele>54.8</ele>
        <time>2024-03-20T14:45:11Z</time>
      </trkpt>
      <trkpt lat="49.05535" lon="0.10849">
        <ele>55</ele>
        <time>2024-03-20T14:45:12Z</time>
      </trkpt>
      <trkpt lat="49.05532" lon="0.10844">
        <ele>55</ele>
        <time>2024-03-20T14:45:13Z</time>
      </trkpt>
      <trkpt lat="49.05527" lon="0.10837">
        <ele>55.2</ele>
        <time>2024-03-20T14:45:14Z</time>
      </trkpt>
      <trkpt lat="49.05524" lon="0.10831">
        <ele>55.4</ele>
        <time>2024-03-20T14:45:15Z</time>
      </trkpt>
      <trkpt lat="49.0552" lon="0.10824">
        <ele>55.4</ele>
        <time>2024-03-20T14:45:16Z</time>
      </trkpt>
      <trkpt lat="49.05517" lon="0.10817">
        <ele>55.6</ele>
        <time>2024-03-20T14:45:17Z</time>
      </trkpt>
      <trkpt lat="49.05515" lon="0.10812">
        <ele>56</ele>
        <time>2024-03-20T14:45:18Z</time>
      </trkpt>
      <trkpt lat="49.05512" lon="0.10805">
        <ele>56</ele>
        <time>2024-03-20T14:45:19Z</time>
      </trkpt>
      <trkpt lat="49.0551" lon="0.10797">
        <ele>56.4</ele>
        <time>2024-03-20T14:45:20Z</time>
      </trkpt>
      <trkpt lat="49.05508" lon="0.1079">
        <ele>56.6</ele>
        <time>2024-03-20T14:45:21Z</time>
      </trkpt>
      <trkpt lat="49.05507" lon="0.10785">
        <ele>57</ele>
        <time>2024-03-20T14:45:22Z</time>
      </trkpt>
      <trkpt lat="49.05506" lon="0.10776">
        <ele>57.2</ele>
        <time>2024-03-20T14:45:23Z</time>
      </trkpt>
      <trkpt lat="49.05506" lon="0.10771">
        <ele>57.6</ele>
        <time>2024-03-20T14:45:24Z</time>
      </trkpt>
      <trkpt lat="49.05505" lon="0.10762">
        <ele>57.6</ele>
        <time>2024-03-20T14:45:25Z</time>
      </trkpt>
      <trkpt lat="49.05504" lon="0.10755">
        <ele>57.8</ele>
        <time>2024-03-20T14:45:26Z</time>
      </trkpt>
      <trkpt lat="49.05503" lon="0.10748">
        <ele>58</ele>
        <time>2024-03-20T14:45:27Z</time>
      </trkpt>
      <trkpt lat="49.05503" lon="0.1074">
        <ele>58.4</ele>
        <time>2024-03-20T14:45:28Z</time>
      </trkpt>
      <trkpt lat="49.05502" lon="0.10733">
        <ele>58.4</ele>
        <time>2024-03-20T14:45:29Z</time>
      </trkpt>
      <trkpt lat="49.05501" lon="0.10724">
        <ele>58.6</ele>
        <time>2024-03-20T14:45:30Z</time>
      </trkpt>
      <trkpt lat="49.05501" lon="0.10715">
        <ele>59</ele>
        <time>2024-03-20T14:45:31Z</time>
      </trkpt>
      <trkpt lat="49.055" lon="0.10708">
        <ele>59</ele>
        <time>2024-03-20T14:45:32Z</time>
      </trkpt>
      <trkpt lat="49.05499" lon="0.107">
        <ele>59.4</ele>
        <time>2024-03-20T14:45:33Z</time>
      </trkpt>
      <trkpt lat="49.05498" lon="0.1069">
        <ele>59.6</ele>
        <time>2024-03-20T14:45:34Z</time>
      </trkpt>
      <trkpt lat="49.05498" lon="0.10683">
        <ele>59.8</ele>
        <time>2024-03-20T14:45:35Z</time>
      </trkpt>
      <trkpt lat="49.05497" lon="0.10673">
        <ele>60.2</ele>
        <time>2024-03-20T14:45:36Z</time>
      </trkpt>
      <trkpt lat="49.05496" lon="0.10664">
        <ele>60.2</ele>
        <time>2024-03-20T14:45:37Z</time>
      </trkpt>
      <trkpt lat="49.05495" lon="0.10656">
        <ele>60.4</ele>
        <time>2024-03-20T14:45:38Z</time>
      </trkpt>
      <trkpt lat="49.05493" lon="0.10647">
        <ele>60.4</ele>
        <time>2024-03-20T14:45:39Z</time>
      </trkpt>
      <trkpt lat="49.05492" lon="0.10638">
        <ele>60.6</ele>
        <time>2024-03-20T14:45:40Z</time>
      </trkpt>
      <trkpt lat="49.05491" lon="0.1063">
        <ele>60.8</ele>
        <time>2024-03-20T14:45:41Z</time>
      </trkpt>
      <trkpt lat="49.0549" lon="0.1062">
        <ele>60.8</ele>
        <time>2024-03-20T14:45:42Z</time>
      </trkpt>
      <trkpt lat="49.05489" lon="0.10613">
        <ele>61.2</ele>
        <time>2024-03-20T14:45:43Z</time>
      </trkpt>
      <trkpt lat="49.05488" lon="0.10604">
        <ele>61.4</ele>
        <time>2024-03-20T14:45:44Z</time>
      </trkpt>
      <trkpt lat="49.05487" lon="0.10593">
        <ele>61.6</ele>
        <time>2024-03-20T14:45:45Z</time>
      </trkpt>
      <trkpt lat="49.05485" lon="0.10583">
        <ele>61.8</ele>
        <time>2024-03-20T14:45:46Z</time>
      </trkpt>
      <trkpt lat="49.05484" lon="0.10573">
        <ele>62</ele>
        <time>2024-03-20T14:45:47Z</time>
      </trkpt>
      <trkpt lat="49.05483" lon="0.10564">
        <ele>62</ele>
        <time>2024-03-20T14:45:48Z</time>
      </trkpt>
      <trkpt lat="49.05481" lon="0.10554">
        <ele>62.2</ele>
        <time>2024-03-20T14:45:49Z</time>
      </trkpt>
      <trkpt lat="49.0548" lon="0.10545">
        <ele>62.2</ele>
        <time>2024-03-20T14:45:50Z</time>
      </trkpt>
      <trkpt lat="49.05478" lon="0.10536">
        <ele>62.4</ele>
        <time>2024-03-20T14:45:51Z</time>
      </trkpt>
      <trkpt lat="49.05477" lon="0.10527">
        <ele>62.4</ele>
        <time>2024-03-20T14:45:52Z</time>
      </trkpt>
      <trkpt lat="49.05476" lon="0.1052">
        <ele>62.4</ele>
        <time>2024-03-20T14:45:53Z</time>
      </trkpt>
      <trkpt lat="49.05474" lon="0.1051">
        <ele>62.4</ele>
        <time>2024-03-20T14:45:54Z</time>
      </trkpt>
      <trkpt lat="49.05472" lon="0.10501">
        <ele>62.4</ele>
        <time>2024-03-20T14:45:55Z</time>
      </trkpt>
      <trkpt lat="49.0547" lon="0.10492">
        <ele>62.6</ele>
        <time>2024-03-20T14:45:56Z</time>
      </trkpt>
      <trkpt lat="49.05467" lon="0.10481">
        <ele>62.6</ele>
        <time>2024-03-20T14:45:57Z</time>
      </trkpt>
      <trkpt lat="49.05465" lon="0.10473">
        <ele>62.6</ele>
        <time>2024-03-20T14:45:58Z</time>
      </trkpt>
      <trkpt lat="49.05462" lon="0.10464">
        <ele>62.6</ele>
        <time>2024-03-20T14:45:59Z</time>
      </trkpt>
      <trkpt lat="49.05459" lon="0.10455">
        <ele>62.6</ele>
        <time>2024-03-20T14:46:00Z</time>
      </trkpt>
      <trkpt lat="49.05456" lon="0.10445">
        <ele>62.6</ele>
        <time>2024-03-20T14:46:01Z</time>
      </trkpt>
      <trkpt lat="49.05453" lon="0.10438">
        <ele>62.6</ele>
        <time>2024-03-20T14:46:02Z</time>
      </trkpt>
      <trkpt lat="49.0545" lon="0.10427">
        <ele>62.6</ele>
        <time>2024-03-20T14:46:03Z</time>
      </trkpt>
      <trkpt lat="49.05447" lon="0.10418">
        <ele>62.6</ele>
        <time>2024-03-20T14:46:04Z</time>
      </trkpt>
      <trkpt lat="49.05446" lon="0.1041">
        <ele>62.6</ele>
        <time>2024-03-20T14:46:05Z</time>
      </trkpt>
      <trkpt lat="49.05443" lon="0.10399">
        <ele>62.4</ele>
        <time>2024-03-20T14:46:06Z</time>
      </trkpt>
      <trkpt lat="49.05441" lon="0.10389">
        <ele>62.4</ele>
        <time>2024-03-20T14:46:07Z</time>
      </trkpt>
      <trkpt lat="49.05439" lon="0.10379">
        <ele>62.4</ele>
        <time>2024-03-20T14:46:08Z</time>
      </trkpt>
      <trkpt lat="49.05438" lon="0.10369">
        <ele>62.2</ele>
        <time>2024-03-20T14:46:09Z</time>
      </trkpt>
      <trkpt lat="49.05436" lon="0.1036">
        <ele>62.2</ele>
        <time>2024-03-20T14:46:10Z</time>
      </trkpt>
      <trkpt lat="49.05435" lon="0.1035">
        <ele>62</ele>
        <time>2024-03-20T14:46:11Z</time>
      </trkpt>
      <trkpt lat="49.05433" lon="0.10338">
        <ele>62</ele>
        <time>2024-03-20T14:46:12Z</time>
      </trkpt>
      <trkpt lat="49.05432" lon="0.10328">
        <ele>61.8</ele>
        <time>2024-03-20T14:46:13Z</time>
      </trkpt>
      <trkpt lat="49.05431" lon="0.10318">
        <ele>61.6</ele>
        <time>2024-03-20T14:46:14Z</time>
      </trkpt>
      <trkpt lat="49.0543" lon="0.1031">
        <ele>61.6</ele>
        <time>2024-03-20T14:46:15Z</time>
      </trkpt>
      <trkpt lat="49.05429" lon="0.103">
        <ele>61.6</ele>
        <time>2024-03-20T14:46:16Z</time>
      </trkpt>
      <trkpt lat="49.05428" lon="0.10289">
        <ele>61.6</ele>
        <time>2024-03-20T14:46:17Z</time>
      </trkpt>
      <trkpt lat="49.05427" lon="0.10282">
        <ele>61.6</ele>
        <time>2024-03-20T14:46:18Z</time>
      </trkpt>
      <trkpt lat="49.05427" lon="0.10272">
        <ele>61.6</ele>
        <time>2024-03-20T14:46:19Z</time>
      </trkpt>
      <trkpt lat="49.05426" lon="0.10263">
        <ele>61.6</ele>
        <time>2024-03-20T14:46:20Z</time>
      </trkpt>
      <trkpt lat="49.05425" lon="0.10256">
        <ele>61.6</ele>
        <time>2024-03-20T14:46:21Z</time>
      </trkpt>
      <trkpt lat="49.05424" lon="0.10245">
        <ele>61.6</ele>
        <time>2024-03-20T14:46:22Z</time>
      </trkpt>
      <trkpt lat="49.05424" lon="0.10235">
        <ele>61.6</ele>
        <time>2024-03-20T14:46:23Z</time>
      </trkpt>
      <trkpt lat="49.05423" lon="0.10227">
        <ele>61.6</ele>
        <time>2024-03-20T14:46:24Z</time>
      </trkpt>
      <trkpt lat="49.05422" lon="0.10215">
        <ele>61.6</ele>
        <time>2024-03-20T14:46:25Z</time>
      </trkpt>
      <trkpt lat="49.05422" lon="0.10205">
        <ele>61.6</ele>
        <time>2024-03-20T14:46:26Z</time>
      </trkpt>
      <trkpt lat="49.05421" lon="0.10197">
        <ele>61.6</ele>
        <time>2024-03-20T14:46:27Z</time>
      </trkpt>
      <trkpt lat="49.0542" lon="0.10185">
        <ele>61.6</ele>
        <time>2024-03-20T14:46:28Z</time>
      </trkpt>
      <trkpt lat="49.0542" lon="0.10175">
        <ele>61.8</ele>
        <time>2024-03-20T14:46:29Z</time>
      </trkpt>
      <trkpt lat="49.05419" lon="0.10168">
        <ele>61.8</ele>
        <time>2024-03-20T14:46:30Z</time>
      </trkpt>
      <trkpt lat="49.05418" lon="0.10156">
        <ele>61.8</ele>
        <time>2024-03-20T14:46:31Z</time>
      </trkpt>
      <trkpt lat="49.05418" lon="0.10146">
        <ele>61.8</ele>
        <time>2024-03-20T14:46:32Z</time>
      </trkpt>
      <trkpt lat="49.05417" lon="0.10138">
        <ele>61.8</ele>
        <time>2024-03-20T14:46:33Z</time>
      </trkpt>
      <trkpt lat="49.05417" lon="0.10127">
        <ele>61.8</ele>
        <time>2024-03-20T14:46:34Z</time>
      </trkpt>
      <trkpt lat="49.05415" lon="0.10117">
        <ele>61.8</ele>
        <time>2024-03-20T14:46:35Z</time>
      </trkpt>
      <trkpt lat="49.05414" lon="0.10109">
        <ele>61.8</ele>
        <time>2024-03-20T14:46:36Z</time>
      </trkpt>
      <trkpt lat="49.05412" lon="0.10099">
        <ele>61.8</ele>
        <time>2024-03-20T14:46:37Z</time>
      </trkpt>
      <trkpt lat="49.05409" lon="0.1009">
        <ele>61.8</ele>
        <time>2024-03-20T14:46:38Z</time>
      </trkpt>
      <trkpt lat="49.05406" lon="0.10081">
        <ele>61.8</ele>
        <time>2024-03-20T14:46:39Z</time>
      </trkpt>
      <trkpt lat="49.05402" lon="0.10073">
        <ele>62</ele>
        <time>2024-03-20T14:46:40Z</time>
      </trkpt>
      <trkpt lat="49.05397" lon="0.10064">
        <ele>62</ele>
        <time>2024-03-20T14:46:41Z</time>
      </trkpt>
      <trkpt lat="49.05394" lon="0.10058">
        <ele>62</ele>
        <time>2024-03-20T14:46:42Z</time>
      </trkpt>
      <trkpt lat="49.0539" lon="0.10051">
        <ele>62</ele>
        <time>2024-03-20T14:46:43Z</time>
      </trkpt>
      <trkpt lat="49.05384" lon="0.10043">
        <ele>62</ele>
        <time>2024-03-20T14:46:44Z</time>
      </trkpt>
      <trkpt lat="49.05381" lon="0.10037">
        <ele>62</ele>
        <time>2024-03-20T14:46:45Z</time>
      </trkpt>
      <trkpt lat="49.05377" lon="0.1003">
        <ele>62</ele>
        <time>2024-03-20T14:46:46Z</time>
      </trkpt>
      <trkpt lat="49.05373" lon="0.10022">
        <ele>62</ele>
        <time>2024-03-20T14:46:47Z</time>
      </trkpt>
      <trkpt lat="49.0537" lon="0.10017">
        <ele>62.2</ele>
        <time>2024-03-20T14:46:48Z</time>
      </trkpt>
      <trkpt lat="49.05365" lon="0.10009">
        <ele>62.2</ele>
        <time>2024-03-20T14:46:49Z</time>
      </trkpt>
      <trkpt lat="49.05361" lon="0.10002">
        <ele>62.2</ele>
        <time>2024-03-20T14:46:50Z</time>
      </trkpt>
      <trkpt lat="49.05358" lon="0.09996">
        <ele>62.4</ele>
        <time>2024-03-20T14:46:51Z</time>
      </trkpt>
      <trkpt lat="49.05354" lon="0.0999">
        <ele>62.6</ele>
        <time>2024-03-20T14:46:52Z</time>
      </trkpt>
      <trkpt lat="49.05349" lon="0.09982">
        <ele>62.8</ele>
        <time>2024-03-20T14:46:53Z</time>
      </trkpt>
      <trkpt lat="49.05345" lon="0.09977">
        <ele>63.2</ele>
        <time>2024-03-20T14:46:54Z</time>
      </trkpt>
      <trkpt lat="49.05341" lon="0.0997">
        <ele>63.4</ele>
        <time>2024-03-20T14:46:55Z</time>
      </trkpt>
      <trkpt lat="49.05336" lon="0.09963">
        <ele>63.4</ele>
        <time>2024-03-20T14:46:56Z</time>
      </trkpt>
      <trkpt lat="49.05332" lon="0.09956">
        <ele>63.8</ele>
        <time>2024-03-20T14:46:57Z</time>
      </trkpt>
      <trkpt lat="49.05329" lon="0.09951">
        <ele>64</ele>
        <time>2024-03-20T14:46:58Z</time>
      </trkpt>
      <trkpt lat="49.05324" lon="0.09944">
        <ele>64.2</ele>
        <time>2024-03-20T14:46:59Z</time>
      </trkpt>
      <trkpt lat="49.05319" lon="0.09938">
        <ele>64.6</ele>
        <time>2024-03-20T14:47:00Z</time>
      </trkpt>
      <trkpt lat="49.05316" lon="0.09934">
        <ele>64.6</ele>
        <time>2024-03-20T14:47:01Z</time>
      </trkpt>
      <trkpt lat="49.0531" lon="0.09927">
        <ele>64.8</ele>
        <time>2024-03-20T14:47:02Z</time>
      </trkpt>
      <trkpt lat="49.05306" lon="0.09922">
        <ele>65</ele>
        <time>2024-03-20T14:47:03Z</time>
      </trkpt>
      <trkpt lat="49.05303" lon="0.09918">
        <ele>65.2</ele>
        <time>2024-03-20T14:47:04Z</time>
      </trkpt>
      <trkpt lat="49.05298" lon="0.09912">
        <ele>65.4</ele>
        <time>2024-03-20T14:47:05Z</time>
      </trkpt>
      <trkpt lat="49.05295" lon="0.09908">
        <ele>65.4</ele>
        <time>2024-03-20T14:47:06Z</time>
      </trkpt>
      <trkpt lat="49.05291" lon="0.09903">
        <ele>65.8</ele>
        <time>2024-03-20T14:47:07Z</time>
      </trkpt>
      <trkpt lat="49.05286" lon="0.09896">
        <ele>65.6</ele>
        <time>2024-03-20T14:47:08Z</time>
      </trkpt>
      <trkpt lat="49.05282" lon="0.09892">
        <ele>66</ele>
        <time>2024-03-20T14:47:09Z</time>
      </trkpt>
      <trkpt lat="49.05278" lon="0.09887">
        <ele>66</ele>
        <time>2024-03-20T14:47:10Z</time>
      </trkpt>
      <trkpt lat="49.05273" lon="0.09881">
        <ele>66.2</ele>
        <time>2024-03-20T14:47:11Z</time>
      </trkpt>
      <trkpt lat="49.05269" lon="0.09876">
        <ele>66.6</ele>
        <time>2024-03-20T14:47:12Z</time>
      </trkpt>
      <trkpt lat="49.05264" lon="0.0987">
        <ele>66.6</ele>
        <time>2024-03-20T14:47:13Z</time>
      </trkpt>
      <trkpt lat="49.05261" lon="0.09866">
        <ele>66.8</ele>
        <time>2024-03-20T14:47:14Z</time>
      </trkpt>
      <trkpt lat="49.05256" lon="0.0986">
        <ele>66.8</ele>
        <time>2024-03-20T14:47:15Z</time>
      </trkpt>
      <trkpt lat="49.05252" lon="0.09856">
        <ele>67</ele>
        <time>2024-03-20T14:47:16Z</time>
      </trkpt>
      <trkpt lat="49.05248" lon="0.09851">
        <ele>67.2</ele>
        <time>2024-03-20T14:47:17Z</time>
      </trkpt>
      <trkpt lat="49.05243" lon="0.09845">
        <ele>67.4</ele>
        <time>2024-03-20T14:47:18Z</time>
      </trkpt>
      <trkpt lat="49.0524" lon="0.09841">
        <ele>67.4</ele>
        <time>2024-03-20T14:47:19Z</time>
      </trkpt>
      <trkpt lat="49.05235" lon="0.09835">
        <ele>67.6</ele>
        <time>2024-03-20T14:47:20Z</time>
      </trkpt>
      <trkpt lat="49.05231" lon="0.09829">
        <ele>67.8</ele>
        <time>2024-03-20T14:47:21Z</time>
      </trkpt>
      <trkpt lat="49.05227" lon="0.09824">
        <ele>68</ele>
        <time>2024-03-20T14:47:22Z</time>
      </trkpt>
      <trkpt lat="49.05223" lon="0.09819">
        <ele>68.2</ele>
        <time>2024-03-20T14:47:23Z</time>
      </trkpt>
      <trkpt lat="49.05218" lon="0.09812">
        <ele>68.4</ele>
        <time>2024-03-20T14:47:24Z</time>
      </trkpt>
      <trkpt lat="49.05214" lon="0.09807">
        <ele>68.4</ele>
        <time>2024-03-20T14:47:25Z</time>
      </trkpt>
      <trkpt lat="49.05211" lon="0.09803">
        <ele>68.6</ele>
        <time>2024-03-20T14:47:26Z</time>
      </trkpt>
      <trkpt lat="49.05206" lon="0.09797">
        <ele>69</ele>
        <time>2024-03-20T14:47:27Z</time>
      </trkpt>
      <trkpt lat="49.05202" lon="0.09792">
        <ele>69</ele>
        <time>2024-03-20T14:47:28Z</time>
      </trkpt>
      <trkpt lat="49.05199" lon="0.09787">
        <ele>69.2</ele>
        <time>2024-03-20T14:47:29Z</time>
      </trkpt>
      <trkpt lat="49.05194" lon="0.09782">
        <ele>69.2</ele>
        <time>2024-03-20T14:47:30Z</time>
      </trkpt>
      <trkpt lat="49.05189" lon="0.09776">
        <ele>69.4</ele>
        <time>2024-03-20T14:47:31Z</time>
      </trkpt>
      <trkpt lat="49.05186" lon="0.09771">
        <ele>69.4</ele>
        <time>2024-03-20T14:47:32Z</time>
      </trkpt>
      <trkpt lat="49.05182" lon="0.09766">
        <ele>69.6</ele>
        <time>2024-03-20T14:47:33Z</time>
      </trkpt>
      <trkpt lat="49.05178" lon="0.0976">
        <ele>69.8</ele>
        <time>2024-03-20T14:47:34Z</time>
      </trkpt>
      <trkpt lat="49.05175" lon="0.09756">
        <ele>70.2</ele>
        <time>2024-03-20T14:47:35Z</time>
      </trkpt>
      <trkpt lat="49.0517" lon="0.0975">
        <ele>70.4</ele>
        <time>2024-03-20T14:47:36Z</time>
      </trkpt>
      <trkpt lat="49.05166" lon="0.09745">
        <ele>70.4</ele>
        <time>2024-03-20T14:47:37Z</time>
      </trkpt>
      <trkpt lat="49.05162" lon="0.09741">
        <ele>70.6</ele>
        <time>2024-03-20T14:47:38Z</time>
      </trkpt>
      <trkpt lat="49.05158" lon="0.09734">
        <ele>70.8</ele>
        <time>2024-03-20T14:47:39Z</time>
      </trkpt>
      <trkpt lat="49.05154" lon="0.0973">
        <ele>71</ele>
        <time>2024-03-20T14:47:40Z</time>
      </trkpt>
      <trkpt lat="49.05151" lon="0.09725">
        <ele>71</ele>
        <time>2024-03-20T14:47:41Z</time>
      </trkpt>
      <trkpt lat="49.05146" lon="0.09718">
        <ele>71.2</ele>
        <time>2024-03-20T14:47:42Z</time>
      </trkpt>
      <trkpt lat="49.05142" lon="0.09712">
        <ele>71.6</ele>
        <time>2024-03-20T14:47:43Z</time>
      </trkpt>
      <trkpt lat="49.0514" lon="0.09707">
        <ele>71.8</ele>
        <time>2024-03-20T14:47:44Z</time>
      </trkpt>
      <trkpt lat="49.05135" lon="0.09699">
        <ele>71.8</ele>
        <time>2024-03-20T14:47:45Z</time>
      </trkpt>
      <trkpt lat="49.05132" lon="0.09693">
        <ele>72.2</ele>
        <time>2024-03-20T14:47:46Z</time>
      </trkpt>
      <trkpt lat="49.05129" lon="0.09687">
        <ele>72.4</ele>
        <time>2024-03-20T14:47:47Z</time>
      </trkpt>
      <trkpt lat="49.05125" lon="0.09679">
        <ele>72.4</ele>
        <time>2024-03-20T14:47:48Z</time>
      </trkpt>
      <trkpt lat="49.05121" lon="0.09673">
        <ele>72.8</ele>
        <time>2024-03-20T14:47:49Z</time>
      </trkpt>
      <trkpt lat="49.05119" lon="0.09667">
        <ele>73.2</ele>
        <time>2024-03-20T14:47:50Z</time>
      </trkpt>
      <trkpt lat="49.05115" lon="0.09659">
        <ele>73.4</ele>
        <time>2024-03-20T14:47:51Z</time>
      </trkpt>
      <trkpt lat="49.05112" lon="0.09652">
        <ele>73.6</ele>
        <time>2024-03-20T14:47:52Z</time>
      </trkpt>
      <trkpt lat="49.05109" lon="0.09646">
        <ele>73.8</ele>
        <time>2024-03-20T14:47:53Z</time>
      </trkpt>
      <trkpt lat="49.05105" lon="0.09639">
        <ele>73.8</ele>
        <time>2024-03-20T14:47:54Z</time>
      </trkpt>
      <trkpt lat="49.05102" lon="0.09632">
        <ele>74.2</ele>
        <time>2024-03-20T14:47:55Z</time>
      </trkpt>
      <trkpt lat="49.05099" lon="0.09627">
        <ele>74.4</ele>
        <time>2024-03-20T14:47:56Z</time>
      </trkpt>
      <trkpt lat="49.05095" lon="0.09619">
        <ele>74.6</ele>
        <time>2024-03-20T14:47:57Z</time>
      </trkpt>
      <trkpt lat="49.05092" lon="0.09612">
        <ele>74.8</ele>
        <time>2024-03-20T14:47:58Z</time>
      </trkpt>
      <trkpt lat="49.05089" lon="0.09607">
        <ele>75</ele>
        <time>2024-03-20T14:47:59Z</time>
      </trkpt>
      <trkpt lat="49.05086" lon="0.096">
        <ele>75</ele>
        <time>2024-03-20T14:48:00Z</time>
      </trkpt>
      <trkpt lat="49.05082" lon="0.09591">
        <ele>75.2</ele>
        <time>2024-03-20T14:48:01Z</time>
      </trkpt>
      <trkpt lat="49.05079" lon="0.09586">
        <ele>75.4</ele>
        <time>2024-03-20T14:48:02Z</time>
      </trkpt>
      <trkpt lat="49.05076" lon="0.09579">
        <ele>75.4</ele>
        <time>2024-03-20T14:48:03Z</time>
      </trkpt>
      <trkpt lat="49.05071" lon="0.0957">
        <ele>75.6</ele>
        <time>2024-03-20T14:48:04Z</time>
      </trkpt>
      <trkpt lat="49.05068" lon="0.09565">
        <ele>75.8</ele>
        <time>2024-03-20T14:48:05Z</time>
      </trkpt>
      <trkpt lat="49.05064" lon="0.09556">
        <ele>76</ele>
        <time>2024-03-20T14:48:06Z</time>
      </trkpt>
      <trkpt lat="49.05061" lon="0.09549">
        <ele>76.2</ele>
        <time>2024-03-20T14:48:07Z</time>
      </trkpt>
      <trkpt lat="49.05058" lon="0.09543">
        <ele>76.4</ele>
        <time>2024-03-20T14:48:08Z</time>
      </trkpt>
      <trkpt lat="49.05054" lon="0.09535">
        <ele>76.6</ele>
        <time>2024-03-20T14:48:09Z</time>
      </trkpt>
      <trkpt lat="49.05051" lon="0.09528">
        <ele>76.8</ele>
        <time>2024-03-20T14:48:10Z</time>
      </trkpt>
      <trkpt lat="49.05048" lon="0.09522">
        <ele>76.8</ele>
        <time>2024-03-20T14:48:11Z</time>
      </trkpt>
      <trkpt lat="49.05044" lon="0.09514">
        <ele>77</ele>
        <time>2024-03-20T14:48:12Z</time>
      </trkpt>
      <trkpt lat="49.05041" lon="0.09507">
        <ele>77.4</ele>
        <time>2024-03-20T14:48:13Z</time>
      </trkpt>
      <trkpt lat="49.05038" lon="0.09502">
        <ele>77.6</ele>
        <time>2024-03-20T14:48:14Z</time>
      </trkpt>
      <trkpt lat="49.05034" lon="0.09493">
        <ele>77.8</ele>
        <time>2024-03-20T14:48:15Z</time>
      </trkpt>
      <trkpt lat="49.05031" lon="0.09488">
        <ele>78</ele>
        <time>2024-03-20T14:48:16Z</time>
      </trkpt>
      <trkpt lat="49.05028" lon="0.09482">
        <ele>78.2</ele>
        <time>2024-03-20T14:48:17Z</time>
      </trkpt>
      <trkpt lat="49.05024" lon="0.09474">
        <ele>78.6</ele>
        <time>2024-03-20T14:48:18Z</time>
      </trkpt>
      <trkpt lat="49.0502" lon="0.09468">
        <ele>78.8</ele>
        <time>2024-03-20T14:48:19Z</time>
      </trkpt>
      <trkpt lat="49.05017" lon="0.09464">
        <ele>79</ele>
        <time>2024-03-20T14:48:20Z</time>
      </trkpt>
      <trkpt lat="49.05012" lon="0.09457">
        <ele>79</ele>
        <time>2024-03-20T14:48:21Z</time>
      </trkpt>
      <trkpt lat="49.05008" lon="0.09451">
        <ele>79.2</ele>
        <time>2024-03-20T14:48:22Z</time>
      </trkpt>
      <trkpt lat="49.05005" lon="0.09447">
        <ele>79.2</ele>
        <time>2024-03-20T14:48:23Z</time>
      </trkpt>
      <trkpt lat="49.05001" lon="0.09442">
        <ele>79.4</ele>
        <time>2024-03-20T14:48:24Z</time>
      </trkpt>
      <trkpt lat="49.04997" lon="0.09436">
        <ele>79.6</ele>
        <time>2024-03-20T14:48:25Z</time>
      </trkpt>
      <trkpt lat="49.04994" lon="0.09433">
        <ele>79.8</ele>
        <time>2024-03-20T14:48:26Z</time>
      </trkpt>
      <trkpt lat="49.0499" lon="0.09427">
        <ele>80</ele>
        <time>2024-03-20T14:48:27Z</time>
      </trkpt>
      <trkpt lat="49.04987" lon="0.09423">
        <ele>80.2</ele>
        <time>2024-03-20T14:48:28Z</time>
      </trkpt>
      <trkpt lat="49.04985" lon="0.0942">
        <ele>80.6</ele>
        <time>2024-03-20T14:48:29Z</time>
      </trkpt>
      <trkpt lat="49.04981" lon="0.09415">
        <ele>80.8</ele>
        <time>2024-03-20T14:48:30Z</time>
      </trkpt>
      <trkpt lat="49.04978" lon="0.0941">
        <ele>81</ele>
        <time>2024-03-20T14:48:31Z</time>
      </trkpt>
      <trkpt lat="49.04976" lon="0.09407">
        <ele>81.2</ele>
        <time>2024-03-20T14:48:32Z</time>
      </trkpt>
      <trkpt lat="49.04974" lon="0.09403">
        <ele>81.6</ele>
        <time>2024-03-20T14:48:33Z</time>
      </trkpt>
      <trkpt lat="49.0497" lon="0.09399">
        <ele>81.8</ele>
        <time>2024-03-20T14:48:34Z</time>
      </trkpt>
      <trkpt lat="49.04968" lon="0.09396">
        <ele>82</ele>
        <time>2024-03-20T14:48:35Z</time>
      </trkpt>
      <trkpt lat="49.04966" lon="0.09393">
        <ele>82.2</ele>
        <time>2024-03-20T14:48:36Z</time>
      </trkpt>
      <trkpt lat="49.04962" lon="0.09391">
        <ele>82.4</ele>
        <time>2024-03-20T14:48:37Z</time>
      </trkpt>
      <trkpt lat="49.04958" lon="0.0939">
        <ele>82.6</ele>
        <time>2024-03-20T14:48:38Z</time>
      </trkpt>
      <trkpt lat="49.04955" lon="0.09391">
        <ele>82.6</ele>
        <time>2024-03-20T14:48:39Z</time>
      </trkpt>
      <trkpt lat="49.04951" lon="0.09393">
        <ele>82.8</ele>
        <time>2024-03-20T14:48:40Z</time>
      </trkpt>
      <trkpt lat="49.04948" lon="0.09395">
        <ele>83</ele>
        <time>2024-03-20T14:48:41Z</time>
      </trkpt>
      <trkpt lat="49.04945" lon="0.09397">
        <ele>83.2</ele>
        <time>2024-03-20T14:48:42Z</time>
      </trkpt>
      <trkpt lat="49.0494" lon="0.09399">
        <ele>83.2</ele>
        <time>2024-03-20T14:48:43Z</time>
      </trkpt>
      <trkpt lat="49.04936" lon="0.09401">
        <ele>83.4</ele>
        <time>2024-03-20T14:48:44Z</time>
      </trkpt>
      <trkpt lat="49.04932" lon="0.09403">
        <ele>83.4</ele>
        <time>2024-03-20T14:48:45Z</time>
      </trkpt>
      <trkpt lat="49.04928" lon="0.09405">
        <ele>83.4</ele>
        <time>2024-03-20T14:48:46Z</time>
      </trkpt>
      <trkpt lat="49.04923" lon="0.09408">
        <ele>83.4</ele>
        <time>2024-03-20T14:48:47Z</time>
      </trkpt>
      <trkpt lat="49.04919" lon="0.09411">
        <ele>83.4</ele>
        <time>2024-03-20T14:48:48Z</time>
      </trkpt>
      <trkpt lat="49.04914" lon="0.09414">
        <ele>83.6</ele>
        <time>2024-03-20T14:48:49Z</time>
      </trkpt>
      <trkpt lat="49.0491" lon="0.09417">
        <ele>83.6</ele>
        <time>2024-03-20T14:48:50Z</time>
      </trkpt>
      <trkpt lat="49.04905" lon="0.0942">
        <ele>83.6</ele>
        <time>2024-03-20T14:48:51Z</time>
      </trkpt>
      <trkpt lat="49.049" lon="0.09423">
        <ele>83.6</ele>
        <time>2024-03-20T14:48:52Z</time>
      </trkpt>
      <trkpt lat="49.04895" lon="0.09427">
        <ele>83.8</ele>
        <time>2024-03-20T14:48:53Z</time>
      </trkpt>
      <trkpt lat="49.0489" lon="0.09431">
        <ele>83.8</ele>
        <time>2024-03-20T14:48:54Z</time>
      </trkpt>
      <trkpt lat="49.04886" lon="0.09434">
        <ele>84</ele>
        <time>2024-03-20T14:48:55Z</time>
      </trkpt>
      <trkpt lat="49.0488" lon="0.09438">
        <ele>84</ele>
        <time>2024-03-20T14:48:56Z</time>
      </trkpt>
      <trkpt lat="49.04874" lon="0.09442">
        <ele>84.2</ele>
        <time>2024-03-20T14:48:57Z</time>
      </trkpt>
      <trkpt lat="49.0487" lon="0.09446">
        <ele>84.4</ele>
        <time>2024-03-20T14:48:58Z</time>
      </trkpt>
      <trkpt lat="49.04864" lon="0.09452">
        <ele>84.4</ele>
        <time>2024-03-20T14:48:59Z</time>
      </trkpt>
      <trkpt lat="49.04858" lon="0.09457">
        <ele>84.6</ele>
        <time>2024-03-20T14:49:00Z</time>
      </trkpt>
      <trkpt lat="49.04853" lon="0.09463">
        <ele>84.8</ele>
        <time>2024-03-20T14:49:01Z</time>
      </trkpt>
      <trkpt lat="49.04848" lon="0.09467">
        <ele>84.8</ele>
        <time>2024-03-20T14:49:02Z</time>
      </trkpt>
      <trkpt lat="49.04842" lon="0.09473">
        <ele>85</ele>
        <time>2024-03-20T14:49:03Z</time>
      </trkpt>
      <trkpt lat="49.04836" lon="0.09479">
        <ele>85</ele>
        <time>2024-03-20T14:49:04Z</time>
      </trkpt>
      <trkpt lat="49.04831" lon="0.09484">
        <ele>85</ele>
        <time>2024-03-20T14:49:05Z</time>
      </trkpt>
      <trkpt lat="49.04825" lon="0.0949">
        <ele>85</ele>
        <time>2024-03-20T14:49:06Z</time>
      </trkpt>
      <trkpt lat="49.04819" lon="0.09496">
        <ele>85</ele>
        <time>2024-03-20T14:49:07Z</time>
      </trkpt>
      <trkpt lat="49.04813" lon="0.09502">
        <ele>85</ele>
        <time>2024-03-20T14:49:08Z</time>
      </trkpt>
      <trkpt lat="49.04805" lon="0.09509">
        <ele>85</ele>
        <time>2024-03-20T14:49:09Z</time>
      </trkpt>
      <trkpt lat="49.048" lon="0.09514">
        <ele>85</ele>
        <time>2024-03-20T14:49:10Z</time>
      </trkpt>
      <trkpt lat="49.04793" lon="0.0952">
        <ele>85</ele>
        <time>2024-03-20T14:49:11Z</time>
      </trkpt>
      <trkpt lat="49.04785" lon="0.09528">
        <ele>85</ele>
        <time>2024-03-20T14:49:12Z</time>
      </trkpt>
      <trkpt lat="49.04779" lon="0.09534">
        <ele>85</ele>
        <time>2024-03-20T14:49:13Z</time>
      </trkpt>
      <trkpt lat="49.04772" lon="0.09541">
        <ele>84.8</ele>
        <time>2024-03-20T14:49:14Z</time>
      </trkpt>
      <trkpt lat="49.04765" lon="0.09547">
        <ele>84.8</ele>
        <time>2024-03-20T14:49:15Z</time>
      </trkpt>
      <trkpt lat="49.04758" lon="0.09554">
        <ele>84.6</ele>
        <time>2024-03-20T14:49:16Z</time>
      </trkpt>
      <trkpt lat="49.04752" lon="0.09559">
        <ele>84.4</ele>
        <time>2024-03-20T14:49:17Z</time>
      </trkpt>
      <trkpt lat="49.04744" lon="0.09567">
        <ele>84.4</ele>
        <time>2024-03-20T14:49:18Z</time>
      </trkpt>
      <trkpt lat="49.04737" lon="0.09573">
        <ele>84.2</ele>
        <time>2024-03-20T14:49:19Z</time>
      </trkpt>
      <trkpt lat="49.04731" lon="0.09578">
        <ele>84</ele>
        <time>2024-03-20T14:49:20Z</time>
      </trkpt>
      <trkpt lat="49.04723" lon="0.09586">
        <ele>83.8</ele>
        <time>2024-03-20T14:49:21Z</time>
      </trkpt>
      <trkpt lat="49.04715" lon="0.09592">
        <ele>83.6</ele>
        <time>2024-03-20T14:49:22Z</time>
      </trkpt>
      <trkpt lat="49.04708" lon="0.09597">
        <ele>83.4</ele>
        <time>2024-03-20T14:49:23Z</time>
      </trkpt>
      <trkpt lat="49.04702" lon="0.09602">
        <ele>83.2</ele>
        <time>2024-03-20T14:49:24Z</time>
      </trkpt>
      <trkpt lat="49.04695" lon="0.09607">
        <ele>83</ele>
        <time>2024-03-20T14:49:25Z</time>
      </trkpt>
      <trkpt lat="49.0469" lon="0.0961">
        <ele>82.8</ele>
        <time>2024-03-20T14:49:26Z</time>
      </trkpt>
      <trkpt lat="49.04682" lon="0.09614">
        <ele>82.8</ele>
        <time>2024-03-20T14:49:27Z</time>
      </trkpt>
      <trkpt lat="49.04677" lon="0.09616">
        <ele>82.6</ele>
        <time>2024-03-20T14:49:28Z</time>
      </trkpt>
      <trkpt lat="49.04671" lon="0.09619">
        <ele>82.6</ele>
        <time>2024-03-20T14:49:29Z</time>
      </trkpt>
      <trkpt lat="49.04663" lon="0.09622">
        <ele>82.6</ele>
        <time>2024-03-20T14:49:30Z</time>
      </trkpt>
      <trkpt lat="49.04657" lon="0.09625">
        <ele>82.6</ele>
        <time>2024-03-20T14:49:31Z</time>
      </trkpt>
      <trkpt lat="49.04651" lon="0.09627">
        <ele>82.6</ele>
        <time>2024-03-20T14:49:32Z</time>
      </trkpt>
      <trkpt lat="49.04645" lon="0.0963">
        <ele>82.6</ele>
        <time>2024-03-20T14:49:33Z</time>
      </trkpt>
      <trkpt lat="49.0464" lon="0.09632">
        <ele>82.6</ele>
        <time>2024-03-20T14:49:34Z</time>
      </trkpt>
      <trkpt lat="49.04633" lon="0.09635">
        <ele>82.6</ele>
        <time>2024-03-20T14:49:35Z</time>
      </trkpt>
      <trkpt lat="49.04626" lon="0.09638">
        <ele>82.6</ele>
        <time>2024-03-20T14:49:36Z</time>
      </trkpt>
      <trkpt lat="49.04619" lon="0.09641">
        <ele>82.6</ele>
        <time>2024-03-20T14:49:37Z</time>
      </trkpt>
      <trkpt lat="49.04614" lon="0.09642">
        <ele>82.6</ele>
        <time>2024-03-20T14:49:38Z</time>
      </trkpt>
      <trkpt lat="49.04606" lon="0.09645">
        <ele>82.8</ele>
        <time>2024-03-20T14:49:39Z</time>
      </trkpt>
      <trkpt lat="49.046" lon="0.09648">
        <ele>83</ele>
        <time>2024-03-20T14:49:40Z</time>
      </trkpt>
      <trkpt lat="49.04595" lon="0.09649">
        <ele>83.2</ele>
        <time>2024-03-20T14:49:41Z</time>
      </trkpt>
      <trkpt lat="49.04587" lon="0.09652">
        <ele>83.4</ele>
        <time>2024-03-20T14:49:42Z</time>
      </trkpt>
      <trkpt lat="49.04581" lon="0.09655">
        <ele>83.4</ele>
        <time>2024-03-20T14:49:43Z</time>
      </trkpt>
      <trkpt lat="49.04576" lon="0.09657">
        <ele>83.4</ele>
        <time>2024-03-20T14:49:44Z</time>
      </trkpt>
      <trkpt lat="49.04569" lon="0.0966">
        <ele>83.6</ele>
        <time>2024-03-20T14:49:45Z</time>
      </trkpt>
      <trkpt lat="49.04563" lon="0.09663">
        <ele>83.8</ele>
        <time>2024-03-20T14:49:46Z</time>
      </trkpt>
      <trkpt lat="49.04558" lon="0.09665">
        <ele>84</ele>
        <time>2024-03-20T14:49:47Z</time>
      </trkpt>
      <trkpt lat="49.04552" lon="0.09668">
        <ele>84.2</ele>
        <time>2024-03-20T14:49:48Z</time>
      </trkpt>
      <trkpt lat="49.04547" lon="0.09669">
        <ele>84.2</ele>
        <time>2024-03-20T14:49:49Z</time>
      </trkpt>
      <trkpt lat="49.04542" lon="0.09671">
        <ele>84.4</ele>
        <time>2024-03-20T14:49:50Z</time>
      </trkpt>
      <trkpt lat="49.04535" lon="0.09673">
        <ele>84.6</ele>
        <time>2024-03-20T14:49:51Z</time>
      </trkpt>
      <trkpt lat="49.04529" lon="0.09675">
        <ele>84.8</ele>
        <time>2024-03-20T14:49:52Z</time>
      </trkpt>
      <trkpt lat="49.04524" lon="0.09677">
        <ele>85</ele>
        <time>2024-03-20T14:49:53Z</time>
      </trkpt>
      <trkpt lat="49.04517" lon="0.09679">
        <ele>85.2</ele>
        <time>2024-03-20T14:49:54Z</time>
      </trkpt>
      <trkpt lat="49.04512" lon="0.09681">
        <ele>85.2</ele>
        <time>2024-03-20T14:49:55Z</time>
      </trkpt>
      <trkpt lat="49.04507" lon="0.09682">
        <ele>85.4</ele>
        <time>2024-03-20T14:49:56Z</time>
      </trkpt>
      <trkpt lat="49.045" lon="0.09684">
        <ele>85.8</ele>
        <time>2024-03-20T14:49:57Z</time>
      </trkpt>
      <trkpt lat="49.04495" lon="0.09685">
        <ele>86</ele>
        <time>2024-03-20T14:49:58Z</time>
      </trkpt>
      <trkpt lat="49.04489" lon="0.09686">
        <ele>86.4</ele>
        <time>2024-03-20T14:49:59Z</time>
      </trkpt>
      <trkpt lat="49.04485" lon="0.09687">
        <ele>86.4</ele>
        <time>2024-03-20T14:50:00Z</time>
      </trkpt>
      <trkpt lat="49.04478" lon="0.09688">
        <ele>86.6</ele>
        <time>2024-03-20T14:50:01Z</time>
      </trkpt>
      <trkpt lat="49.04473" lon="0.09689">
        <ele>86.8</ele>
        <time>2024-03-20T14:50:02Z</time>
      </trkpt>
      <trkpt lat="49.04468" lon="0.09691">
        <ele>87</ele>
        <time>2024-03-20T14:50:03Z</time>
      </trkpt>
      <trkpt lat="49.04462" lon="0.09692">
        <ele>87.4</ele>
        <time>2024-03-20T14:50:04Z</time>
      </trkpt>
      <trkpt lat="49.04456" lon="0.09694">
        <ele>87.6</ele>
        <time>2024-03-20T14:50:05Z</time>
      </trkpt>
      <trkpt lat="49.04452" lon="0.09695">
        <ele>87.8</ele>
        <time>2024-03-20T14:50:06Z</time>
      </trkpt>
      <trkpt lat="49.04445" lon="0.09696">
        <ele>88</ele>
        <time>2024-03-20T14:50:07Z</time>
      </trkpt>
      <trkpt lat="49.0444" lon="0.09697">
        <ele>88.2</ele>
        <time>2024-03-20T14:50:08Z</time>
      </trkpt>
      <trkpt lat="49.04435" lon="0.09698">
        <ele>88.4</ele>
        <time>2024-03-20T14:50:09Z</time>
      </trkpt>
      <trkpt lat="49.04429" lon="0.097">
        <ele>88.8</ele>
        <time>2024-03-20T14:50:10Z</time>
      </trkpt>
      <trkpt lat="49.04424" lon="0.09701">
        <ele>89</ele>
        <time>2024-03-20T14:50:11Z</time>
      </trkpt>
      <trkpt lat="49.04419" lon="0.09702">
        <ele>89.2</ele>
        <time>2024-03-20T14:50:12Z</time>
      </trkpt>
      <trkpt lat="49.04412" lon="0.09704">
        <ele>89.4</ele>
        <time>2024-03-20T14:50:13Z</time>
      </trkpt>
      <trkpt lat="49.04407" lon="0.09705">
        <ele>89.8</ele>
        <time>2024-03-20T14:50:14Z</time>
      </trkpt>
      <trkpt lat="49.04402" lon="0.09706">
        <ele>90</ele>
        <time>2024-03-20T14:50:15Z</time>
      </trkpt>
      <trkpt lat="49.04396" lon="0.09707">
        <ele>90.2</ele>
        <time>2024-03-20T14:50:16Z</time>
      </trkpt>
      <trkpt lat="49.04392" lon="0.09708">
        <ele>90.4</ele>
        <time>2024-03-20T14:50:17Z</time>
      </trkpt>
      <trkpt lat="49.04386" lon="0.0971">
        <ele>90.4</ele>
        <time>2024-03-20T14:50:18Z</time>
      </trkpt>
      <trkpt lat="49.04381" lon="0.09711">
        <ele>90.6</ele>
        <time>2024-03-20T14:50:19Z</time>
      </trkpt>
      <trkpt lat="49.04375" lon="0.09712">
        <ele>90.8</ele>
        <time>2024-03-20T14:50:20Z</time>
      </trkpt>
      <trkpt lat="49.0437" lon="0.09713">
        <ele>91</ele>
        <time>2024-03-20T14:50:21Z</time>
      </trkpt>
      <trkpt lat="49.04364" lon="0.09714">
        <ele>91.2</ele>
        <time>2024-03-20T14:50:22Z</time>
      </trkpt>
      <trkpt lat="49.04359" lon="0.09715">
        <ele>91.4</ele>
        <time>2024-03-20T14:50:23Z</time>
      </trkpt>
      <trkpt lat="49.04355" lon="0.09716">
        <ele>91.8</ele>
        <time>2024-03-20T14:50:24Z</time>
      </trkpt>
      <trkpt lat="49.04348" lon="0.09717">
        <ele>92</ele>
        <time>2024-03-20T14:50:25Z</time>
      </trkpt>
      <trkpt lat="49.04343" lon="0.09718">
        <ele>92.2</ele>
        <time>2024-03-20T14:50:26Z</time>
      </trkpt>
      <trkpt lat="49.04339" lon="0.09719">
        <ele>92.6</ele>
        <time>2024-03-20T14:50:27Z</time>
      </trkpt>
      <trkpt lat="49.04333" lon="0.0972">
        <ele>92.8</ele>
        <time>2024-03-20T14:50:28Z</time>
      </trkpt>
      <trkpt lat="49.04328" lon="0.09721">
        <ele>93</ele>
        <time>2024-03-20T14:50:29Z</time>
      </trkpt>
      <trkpt lat="49.04324" lon="0.09722">
        <ele>93.2</ele>
        <time>2024-03-20T14:50:30Z</time>
      </trkpt>
      <trkpt lat="49.04318" lon="0.09723">
        <ele>93.6</ele>
        <time>2024-03-20T14:50:31Z</time>
      </trkpt>
      <trkpt lat="49.04314" lon="0.09724">
        <ele>94</ele>
        <time>2024-03-20T14:50:32Z</time>
      </trkpt>
      <trkpt lat="49.04309" lon="0.09725">
        <ele>94.2</ele>
        <time>2024-03-20T14:50:33Z</time>
      </trkpt>
      <trkpt lat="49.04304" lon="0.09726">
        <ele>94.6</ele>
        <time>2024-03-20T14:50:34Z</time>
      </trkpt>
      <trkpt lat="49.04298" lon="0.09727">
        <ele>94.8</ele>
        <time>2024-03-20T14:50:35Z</time>
      </trkpt>
      <trkpt lat="49.04294" lon="0.09727">
        <ele>95.2</ele>
        <time>2024-03-20T14:50:36Z</time>
      </trkpt>
      <trkpt lat="49.04288" lon="0.09728">
        <ele>95.6</ele>
        <time>2024-03-20T14:50:37Z</time>
      </trkpt>
      <trkpt lat="49.04282" lon="0.09729">
        <ele>95.8</ele>
        <time>2024-03-20T14:50:38Z</time>
      </trkpt>
      <trkpt lat="49.04278" lon="0.09729">
        <ele>96</ele>
        <time>2024-03-20T14:50:39Z</time>
      </trkpt>
      <trkpt lat="49.04272" lon="0.09729">
        <ele>96.2</ele>
        <time>2024-03-20T14:50:40Z</time>
      </trkpt>
      <trkpt lat="49.04267" lon="0.09729">
        <ele>96.2</ele>
        <time>2024-03-20T14:50:41Z</time>
      </trkpt>
      <trkpt lat="49.04263" lon="0.09729">
        <ele>96.4</ele>
        <time>2024-03-20T14:50:42Z</time>
      </trkpt>
      <trkpt lat="49.04257" lon="0.09729">
        <ele>96.8</ele>
        <time>2024-03-20T14:50:43Z</time>
      </trkpt>
      <trkpt lat="49.04252" lon="0.09729">
        <ele>97</ele>
        <time>2024-03-20T14:50:44Z</time>
      </trkpt>
      <trkpt lat="49.04248" lon="0.09729">
        <ele>97.2</ele>
        <time>2024-03-20T14:50:45Z</time>
      </trkpt>
      <trkpt lat="49.04242" lon="0.09728">
        <ele>97.4</ele>
        <time>2024-03-20T14:50:46Z</time>
      </trkpt>
      <trkpt lat="49.04237" lon="0.09728">
        <ele>97.6</ele>
        <time>2024-03-20T14:50:47Z</time>
      </trkpt>
      <trkpt lat="49.04233" lon="0.09728">
        <ele>97.6</ele>
        <time>2024-03-20T14:50:48Z</time>
      </trkpt>
      <trkpt lat="49.04227" lon="0.09728">
        <ele>97.8</ele>
        <time>2024-03-20T14:50:49Z</time>
      </trkpt>
      <trkpt lat="49.04222" lon="0.09728">
        <ele>98</ele>
        <time>2024-03-20T14:50:50Z</time>
      </trkpt>
      <trkpt lat="49.04218" lon="0.09728">
        <ele>98.2</ele>
        <time>2024-03-20T14:50:51Z</time>
      </trkpt>
      <trkpt lat="49.04212" lon="0.09728">
        <ele>98.4</ele>
        <time>2024-03-20T14:50:52Z</time>
      </trkpt>
      <trkpt lat="49.04208" lon="0.09728">
        <ele>98.6</ele>
        <time>2024-03-20T14:50:53Z</time>
      </trkpt>
      <trkpt lat="49.04203" lon="0.09728">
        <ele>98.8</ele>
        <time>2024-03-20T14:50:54Z</time>
      </trkpt>
      <trkpt lat="49.04197" lon="0.09728">
        <ele>98.8</ele>
        <time>2024-03-20T14:50:55Z</time>
      </trkpt>
      <trkpt lat="49.04192" lon="0.09728">
        <ele>99.2</ele>
        <time>2024-03-20T14:50:56Z</time>
      </trkpt>
      <trkpt lat="49.04188" lon="0.09728">
        <ele>99.4</ele>
        <time>2024-03-20T14:50:57Z</time>
      </trkpt>
      <trkpt lat="49.04182" lon="0.09729">
        <ele>99.4</ele>
        <time>2024-03-20T14:50:58Z</time>
      </trkpt>
      <trkpt lat="49.04177" lon="0.09729">
        <ele>99.6</ele>
        <time>2024-03-20T14:50:59Z</time>
      </trkpt>
      <trkpt lat="49.04173" lon="0.0973">
        <ele>99.8</ele>
        <time>2024-03-20T14:51:00Z</time>
      </trkpt>
      <trkpt lat="49.04167" lon="0.09731">
        <ele>100.2</ele>
        <time>2024-03-20T14:51:01Z</time>
      </trkpt>
      <trkpt lat="49.04162" lon="0.09732">
        <ele>100.4</ele>
        <time>2024-03-20T14:51:02Z</time>
      </trkpt>
      <trkpt lat="49.04159" lon="0.09732">
        <ele>100.8</ele>
        <time>2024-03-20T14:51:03Z</time>
      </trkpt>
      <trkpt lat="49.04153" lon="0.09734">
        <ele>101</ele>
        <time>2024-03-20T14:51:04Z</time>
      </trkpt>
      <trkpt lat="49.04148" lon="0.09735">
        <ele>101</ele>
        <time>2024-03-20T14:51:05Z</time>
      </trkpt>
      <trkpt lat="49.04144" lon="0.09737">
        <ele>101.2</ele>
        <time>2024-03-20T14:51:06Z</time>
      </trkpt>
      <trkpt lat="49.04139" lon="0.09739">
        <ele>101.6</ele>
        <time>2024-03-20T14:51:07Z</time>
      </trkpt>
      <trkpt lat="49.04134" lon="0.09741">
        <ele>101.8</ele>
        <time>2024-03-20T14:51:08Z</time>
      </trkpt>
      <trkpt lat="49.04131" lon="0.09744">
        <ele>102</ele>
        <time>2024-03-20T14:51:09Z</time>
      </trkpt>
      <trkpt lat="49.04125" lon="0.09747">
        <ele>102.4</ele>
        <time>2024-03-20T14:51:10Z</time>
      </trkpt>
      <trkpt lat="49.04121" lon="0.09751">
        <ele>102.6</ele>
        <time>2024-03-20T14:51:11Z</time>
      </trkpt>
      <trkpt lat="49.04118" lon="0.09753">
        <ele>103</ele>
        <time>2024-03-20T14:51:12Z</time>
      </trkpt>
      <trkpt lat="49.04112" lon="0.09758">
        <ele>103.2</ele>
        <time>2024-03-20T14:51:13Z</time>
      </trkpt>
      <trkpt lat="49.04108" lon="0.09761">
        <ele>103.4</ele>
        <time>2024-03-20T14:51:14Z</time>
      </trkpt>
      <trkpt lat="49.04104" lon="0.09764">
        <ele>103.6</ele>
        <time>2024-03-20T14:51:15Z</time>
      </trkpt>
      <trkpt lat="49.041" lon="0.09769">
        <ele>104</ele>
        <time>2024-03-20T14:51:16Z</time>
      </trkpt>
      <trkpt lat="49.04095" lon="0.09773">
        <ele>104.2</ele>
        <time>2024-03-20T14:51:17Z</time>
      </trkpt>
      <trkpt lat="49.04092" lon="0.09776">
        <ele>104.4</ele>
        <time>2024-03-20T14:51:18Z</time>
      </trkpt>
      <trkpt lat="49.04087" lon="0.09781">
        <ele>104.6</ele>
        <time>2024-03-20T14:51:19Z</time>
      </trkpt>
      <trkpt lat="49.04083" lon="0.09786">
        <ele>104.8</ele>
        <time>2024-03-20T14:51:20Z</time>
      </trkpt>
      <trkpt lat="49.0408" lon="0.09789">
        <ele>105</ele>
        <time>2024-03-20T14:51:21Z</time>
      </trkpt>
      <trkpt lat="49.04075" lon="0.09794">
        <ele>105.2</ele>
        <time>2024-03-20T14:51:22Z</time>
      </trkpt>
      <trkpt lat="49.04071" lon="0.09798">
        <ele>105.4</ele>
        <time>2024-03-20T14:51:23Z</time>
      </trkpt>
      <trkpt lat="49.04068" lon="0.09801">
        <ele>105.6</ele>
        <time>2024-03-20T14:51:24Z</time>
      </trkpt>
      <trkpt lat="49.04063" lon="0.09806">
        <ele>105.8</ele>
        <time>2024-03-20T14:51:25Z</time>
      </trkpt>
      <trkpt lat="49.04059" lon="0.09809">
        <ele>106</ele>
        <time>2024-03-20T14:51:26Z</time>
      </trkpt>
      <trkpt lat="49.04056" lon="0.09812">
        <ele>106.2</ele>
        <time>2024-03-20T14:51:27Z</time>
      </trkpt>
      <trkpt lat="49.04052" lon="0.09817">
        <ele>106.2</ele>
        <time>2024-03-20T14:51:28Z</time>
      </trkpt>
      <trkpt lat="49.04048" lon="0.09821">
        <ele>106.4</ele>
        <time>2024-03-20T14:51:29Z</time>
      </trkpt>
      <trkpt lat="49.04044" lon="0.09824">
        <ele>106.6</ele>
        <time>2024-03-20T14:51:30Z</time>
      </trkpt>
      <trkpt lat="49.0404" lon="0.09828">
        <ele>106.6</ele>
        <time>2024-03-20T14:51:31Z</time>
      </trkpt>
      <trkpt lat="49.04037" lon="0.09832">
        <ele>106.8</ele>
        <time>2024-03-20T14:51:32Z</time>
      </trkpt>
      <trkpt lat="49.04033" lon="0.09836">
        <ele>107</ele>
        <time>2024-03-20T14:51:33Z</time>
      </trkpt>
      <trkpt lat="49.0403" lon="0.09839">
        <ele>107.2</ele>
        <time>2024-03-20T14:51:34Z</time>
      </trkpt>
      <trkpt lat="49.04026" lon="0.09844">
        <ele>107.4</ele>
        <time>2024-03-20T14:51:35Z</time>
      </trkpt>
      <trkpt lat="49.04022" lon="0.09847">
        <ele>107.6</ele>
        <time>2024-03-20T14:51:36Z</time>
      </trkpt>
      <trkpt lat="49.04019" lon="0.09851">
        <ele>108</ele>
        <time>2024-03-20T14:51:37Z</time>
      </trkpt>
      <trkpt lat="49.04015" lon="0.09855">
        <ele>108</ele>
        <time>2024-03-20T14:51:38Z</time>
      </trkpt>
      <trkpt lat="49.0401" lon="0.09859">
        <ele>108.2</ele>
        <time>2024-03-20T14:51:39Z</time>
      </trkpt>
      <trkpt lat="49.04006" lon="0.09862">
        <ele>108.4</ele>
        <time>2024-03-20T14:51:40Z</time>
      </trkpt>
      <trkpt lat="49.04001" lon="0.09867">
        <ele>108.4</ele>
        <time>2024-03-20T14:51:41Z</time>
      </trkpt>
      <trkpt lat="49.03997" lon="0.09871">
        <ele>108.6</ele>
        <time>2024-03-20T14:51:42Z</time>
      </trkpt>
      <trkpt lat="49.03994" lon="0.09874">
        <ele>108.8</ele>
        <time>2024-03-20T14:51:43Z</time>
      </trkpt>
      <trkpt lat="49.03989" lon="0.09878">
        <ele>109</ele>
        <time>2024-03-20T14:51:44Z</time>
      </trkpt>
      <trkpt lat="49.03985" lon="0.09882">
        <ele>109</ele>
        <time>2024-03-20T14:51:45Z</time>
      </trkpt>
      <trkpt lat="49.03982" lon="0.09884">
        <ele>109.4</ele>
        <time>2024-03-20T14:51:46Z</time>
      </trkpt>
      <trkpt lat="49.03977" lon="0.09889">
        <ele>109.4</ele>
        <time>2024-03-20T14:51:47Z</time>
      </trkpt>
      <trkpt lat="49.03972" lon="0.09892">
        <ele>109.6</ele>
        <time>2024-03-20T14:51:48Z</time>
      </trkpt>
      <trkpt lat="49.03969" lon="0.09895">
        <ele>109.6</ele>
        <time>2024-03-20T14:51:49Z</time>
      </trkpt>
      <trkpt lat="49.03964" lon="0.09899">
        <ele>109.8</ele>
        <time>2024-03-20T14:51:50Z</time>
      </trkpt>
      <trkpt lat="49.03959" lon="0.09903">
        <ele>109.8</ele>
        <time>2024-03-20T14:51:51Z</time>
      </trkpt>
      <trkpt lat="49.03956" lon="0.09906">
        <ele>109.8</ele>
        <time>2024-03-20T14:51:52Z</time>
      </trkpt>
      <trkpt lat="49.0395" lon="0.0991">
        <ele>110</ele>
        <time>2024-03-20T14:51:53Z</time>
      </trkpt>
      <trkpt lat="49.03945" lon="0.09914">
        <ele>110</ele>
        <time>2024-03-20T14:51:54Z</time>
      </trkpt>
      <trkpt lat="49.03941" lon="0.09917">
        <ele>110.4</ele>
        <time>2024-03-20T14:51:55Z</time>
      </trkpt>
      <trkpt lat="49.03935" lon="0.09922">
        <ele>110.6</ele>
        <time>2024-03-20T14:51:56Z</time>
      </trkpt>
      <trkpt lat="49.0393" lon="0.09925">
        <ele>110.6</ele>
        <time>2024-03-20T14:51:57Z</time>
      </trkpt>
      <trkpt lat="49.03926" lon="0.09928">
        <ele>111</ele>
        <time>2024-03-20T14:51:58Z</time>
      </trkpt>
      <trkpt lat="49.0392" lon="0.09933">
        <ele>111.2</ele>
        <time>2024-03-20T14:51:59Z</time>
      </trkpt>
      <trkpt lat="49.03914" lon="0.09936">
        <ele>111.2</ele>
        <time>2024-03-20T14:52:00Z</time>
      </trkpt>
      <trkpt lat="49.03908" lon="0.0994">
        <ele>111.6</ele>
        <time>2024-03-20T14:52:01Z</time>
      </trkpt>
      <trkpt lat="49.03902" lon="0.09944">
        <ele>111.6</ele>
        <time>2024-03-20T14:52:02Z</time>
      </trkpt>
      <trkpt lat="49.03895" lon="0.09947">
        <ele>111.8</ele>
        <time>2024-03-20T14:52:03Z</time>
      </trkpt>
      <trkpt lat="49.03891" lon="0.0995">
        <ele>112.2</ele>
        <time>2024-03-20T14:52:04Z</time>
      </trkpt>
      <trkpt lat="49.03883" lon="0.09953">
        <ele>112.2</ele>
        <time>2024-03-20T14:52:05Z</time>
      </trkpt>
      <trkpt lat="49.03877" lon="0.09954">
        <ele>112.2</ele>
        <time>2024-03-20T14:52:06Z</time>
      </trkpt>
      <trkpt lat="49.03871" lon="0.09955">
        <ele>112.4</ele>
        <time>2024-03-20T14:52:07Z</time>
      </trkpt>
      <trkpt lat="49.03863" lon="0.09955">
        <ele>112.4</ele>
        <time>2024-03-20T14:52:08Z</time>
      </trkpt>
      <trkpt lat="49.03858" lon="0.09953">
        <ele>112.4</ele>
        <time>2024-03-20T14:52:09Z</time>
      </trkpt>
      <trkpt lat="49.03852" lon="0.09951">
        <ele>112.4</ele>
        <time>2024-03-20T14:52:10Z</time>
      </trkpt>
      <trkpt lat="49.03845" lon="0.09948">
        <ele>112.4</ele>
        <time>2024-03-20T14:52:11Z</time>
      </trkpt>
      <trkpt lat="49.03838" lon="0.09944">
        <ele>112.4</ele>
        <time>2024-03-20T14:52:12Z</time>
      </trkpt>
      <trkpt lat="49.03833" lon="0.09941">
        <ele>112.4</ele>
        <time>2024-03-20T14:52:13Z</time>
      </trkpt>
      <trkpt lat="49.03826" lon="0.09936">
        <ele>112.2</ele>
        <time>2024-03-20T14:52:14Z</time>
      </trkpt>
      <trkpt lat="49.03821" lon="0.09932">
        <ele>112.2</ele>
        <time>2024-03-20T14:52:15Z</time>
      </trkpt>
      <trkpt lat="49.03816" lon="0.09928">
        <ele>112.2</ele>
        <time>2024-03-20T14:52:16Z</time>
      </trkpt>
      <trkpt lat="49.0381" lon="0.09923">
        <ele>112</ele>
        <time>2024-03-20T14:52:17Z</time>
      </trkpt>
      <trkpt lat="49.03804" lon="0.09919">
        <ele>112</ele>
        <time>2024-03-20T14:52:18Z</time>
      </trkpt>
      <trkpt lat="49.038" lon="0.09916">
        <ele>112</ele>
        <time>2024-03-20T14:52:19Z</time>
      </trkpt>
      <trkpt lat="49.03795" lon="0.09912">
        <ele>112</ele>
        <time>2024-03-20T14:52:20Z</time>
      </trkpt>
      <trkpt lat="49.0379" lon="0.09909">
        <ele>112</ele>
        <time>2024-03-20T14:52:21Z</time>
      </trkpt>
      <trkpt lat="49.03785" lon="0.09905">
        <ele>112</ele>
        <time>2024-03-20T14:52:22Z</time>
      </trkpt>
      <trkpt lat="49.03778" lon="0.099">
        <ele>112</ele>
        <time>2024-03-20T14:52:23Z</time>
      </trkpt>
      <trkpt lat="49.03773" lon="0.09897">
        <ele>112</ele>
        <time>2024-03-20T14:52:24Z</time>
      </trkpt>
      <trkpt lat="49.03769" lon="0.09894">
        <ele>112</ele>
        <time>2024-03-20T14:52:25Z</time>
      </trkpt>
      <trkpt lat="49.03763" lon="0.09889">
        <ele>112</ele>
        <time>2024-03-20T14:52:26Z</time>
      </trkpt>
      <trkpt lat="49.03759" lon="0.09885">
        <ele>112.2</ele>
        <time>2024-03-20T14:52:27Z</time>
      </trkpt>
      <trkpt lat="49.03755" lon="0.09881">
        <ele>112.4</ele>
        <time>2024-03-20T14:52:28Z</time>
      </trkpt>
      <trkpt lat="49.0375" lon="0.09876">
        <ele>112.8</ele>
        <time>2024-03-20T14:52:29Z</time>
      </trkpt>
      <trkpt lat="49.03746" lon="0.09871">
        <ele>113.2</ele>
        <time>2024-03-20T14:52:30Z</time>
      </trkpt>
      <trkpt lat="49.03743" lon="0.09867">
        <ele>113.4</ele>
        <time>2024-03-20T14:52:31Z</time>
      </trkpt>
      <trkpt lat="49.03739" lon="0.09861">
        <ele>113.8</ele>
        <time>2024-03-20T14:52:32Z</time>
      </trkpt>
      <trkpt lat="49.03735" lon="0.09856">
        <ele>114</ele>
        <time>2024-03-20T14:52:33Z</time>
      </trkpt>
      <trkpt lat="49.03732" lon="0.09851">
        <ele>114.4</ele>
        <time>2024-03-20T14:52:34Z</time>
      </trkpt>
      <trkpt lat="49.03728" lon="0.09844">
        <ele>114.8</ele>
        <time>2024-03-20T14:52:35Z</time>
      </trkpt>
      <trkpt lat="49.03726" lon="0.09839">
        <ele>115.2</ele>
        <time>2024-03-20T14:52:36Z</time>
      </trkpt>
      <trkpt lat="49.03723" lon="0.09833">
        <ele>115.6</ele>
        <time>2024-03-20T14:52:37Z</time>
      </trkpt>
      <trkpt lat="49.0372" lon="0.09826">
        <ele>115.6</ele>
        <time>2024-03-20T14:52:38Z</time>
      </trkpt>
      <trkpt lat="49.03718" lon="0.09821">
        <ele>116</ele>
        <time>2024-03-20T14:52:39Z</time>
      </trkpt>
      <trkpt lat="49.03715" lon="0.09815">
        <ele>116.2</ele>
        <time>2024-03-20T14:52:40Z</time>
      </trkpt>
      <trkpt lat="49.03713" lon="0.09809">
        <ele>116.8</ele>
        <time>2024-03-20T14:52:41Z</time>
      </trkpt>
      <trkpt lat="49.0371" lon="0.09803">
        <ele>117.2</ele>
        <time>2024-03-20T14:52:42Z</time>
      </trkpt>
      <trkpt lat="49.03707" lon="0.09797">
        <ele>117.6</ele>
        <time>2024-03-20T14:52:43Z</time>
      </trkpt>
      <trkpt lat="49.03705" lon="0.09791">
        <ele>118</ele>
        <time>2024-03-20T14:52:44Z</time>
      </trkpt>
      <trkpt lat="49.03701" lon="0.09783">
        <ele>118.2</ele>
        <time>2024-03-20T14:52:45Z</time>
      </trkpt>
      <trkpt lat="49.03698" lon="0.09779">
        <ele>118.6</ele>
        <time>2024-03-20T14:52:46Z</time>
      </trkpt>
      <trkpt lat="49.03695" lon="0.09772">
        <ele>118.8</ele>
        <time>2024-03-20T14:52:47Z</time>
      </trkpt>
      <trkpt lat="49.03691" lon="0.09766">
        <ele>119</ele>
        <time>2024-03-20T14:52:48Z</time>
      </trkpt>
      <trkpt lat="49.03689" lon="0.09762">
        <ele>119.2</ele>
        <time>2024-03-20T14:52:49Z</time>
      </trkpt>
      <trkpt lat="49.03685" lon="0.09756">
        <ele>119.6</ele>
        <time>2024-03-20T14:52:50Z</time>
      </trkpt>
      <trkpt lat="49.03682" lon="0.0975">
        <ele>119.8</ele>
        <time>2024-03-20T14:52:51Z</time>
      </trkpt>
      <trkpt lat="49.03679" lon="0.09746">
        <ele>120.2</ele>
        <time>2024-03-20T14:52:52Z</time>
      </trkpt>
      <trkpt lat="49.03676" lon="0.09741">
        <ele>120.4</ele>
        <time>2024-03-20T14:52:53Z</time>
      </trkpt>
      <trkpt lat="49.03672" lon="0.09736">
        <ele>120.6</ele>
        <time>2024-03-20T14:52:54Z</time>
      </trkpt>
      <trkpt lat="49.03668" lon="0.0973">
        <ele>121</ele>
        <time>2024-03-20T14:52:55Z</time>
      </trkpt>
      <trkpt lat="49.03665" lon="0.09725">
        <ele>121.4</ele>
        <time>2024-03-20T14:52:56Z</time>
      </trkpt>
      <trkpt lat="49.03661" lon="0.0972">
        <ele>121.6</ele>
        <time>2024-03-20T14:52:57Z</time>
      </trkpt>
      <trkpt lat="49.03658" lon="0.09715">
        <ele>121.8</ele>
        <time>2024-03-20T14:52:58Z</time>
      </trkpt>
      <trkpt lat="49.03654" lon="0.09708">
        <ele>122</ele>
        <time>2024-03-20T14:52:59Z</time>
      </trkpt>
      <trkpt lat="49.03651" lon="0.09704">
        <ele>122.2</ele>
        <time>2024-03-20T14:53:00Z</time>
      </trkpt>
      <trkpt lat="49.03648" lon="0.09699">
        <ele>122.2</ele>
        <time>2024-03-20T14:53:01Z</time>
      </trkpt>
      <trkpt lat="49.03645" lon="0.09694">
        <ele>122.4</ele>
        <time>2024-03-20T14:53:02Z</time>
      </trkpt>
      <trkpt lat="49.03641" lon="0.09689">
        <ele>122.6</ele>
        <time>2024-03-20T14:53:03Z</time>
      </trkpt>
      <trkpt lat="49.03637" lon="0.09683">
        <ele>122.8</ele>
        <time>2024-03-20T14:53:04Z</time>
      </trkpt>
      <trkpt lat="49.03634" lon="0.09679">
        <ele>123.2</ele>
        <time>2024-03-20T14:53:05Z</time>
      </trkpt>
      <trkpt lat="49.0363" lon="0.09675">
        <ele>123.2</ele>
        <time>2024-03-20T14:53:06Z</time>
      </trkpt>
      <trkpt lat="49.03627" lon="0.0967">
        <ele>123.6</ele>
        <time>2024-03-20T14:53:07Z</time>
      </trkpt>
      <trkpt lat="49.03623" lon="0.09666">
        <ele>123.8</ele>
        <time>2024-03-20T14:53:08Z</time>
      </trkpt>
      <trkpt lat="49.03619" lon="0.0966">
        <ele>124</ele>
        <time>2024-03-20T14:53:09Z</time>
      </trkpt>
      <trkpt lat="49.03615" lon="0.09657">
        <ele>124.2</ele>
        <time>2024-03-20T14:53:10Z</time>
      </trkpt>
      <trkpt lat="49.03611" lon="0.09652">
        <ele>124.6</ele>
        <time>2024-03-20T14:53:11Z</time>
      </trkpt>
      <trkpt lat="49.03607" lon="0.09648">
        <ele>124.8</ele>
        <time>2024-03-20T14:53:12Z</time>
      </trkpt>
      <trkpt lat="49.03603" lon="0.09643">
        <ele>125.2</ele>
        <time>2024-03-20T14:53:13Z</time>
      </trkpt>
      <trkpt lat="49.03599" lon="0.0964">
        <ele>125.4</ele>
        <time>2024-03-20T14:53:14Z</time>
      </trkpt>
      <trkpt lat="49.03596" lon="0.09636">
        <ele>125.8</ele>
        <time>2024-03-20T14:53:15Z</time>
      </trkpt>
      <trkpt lat="49.03591" lon="0.09632">
        <ele>126</ele>
        <time>2024-03-20T14:53:16Z</time>
      </trkpt>
      <trkpt lat="49.03588" lon="0.09628">
        <ele>126.4</ele>
        <time>2024-03-20T14:53:17Z</time>
      </trkpt>
      <trkpt lat="49.03584" lon="0.09624">
        <ele>126.6</ele>
        <time>2024-03-20T14:53:18Z</time>
      </trkpt>
      <trkpt lat="49.0358" lon="0.0962">
        <ele>126.8</ele>
        <time>2024-03-20T14:53:19Z</time>
      </trkpt>
      <trkpt lat="49.03577" lon="0.09617">
        <ele>127</ele>
        <time>2024-03-20T14:53:20Z</time>
      </trkpt>
      <trkpt lat="49.03573" lon="0.09612">
        <ele>127.2</ele>
        <time>2024-03-20T14:53:21Z</time>
      </trkpt>
      <trkpt lat="49.03569" lon="0.09608">
        <ele>127.6</ele>
        <time>2024-03-20T14:53:22Z</time>
      </trkpt>
      <trkpt lat="49.03566" lon="0.09605">
        <ele>127.8</ele>
        <time>2024-03-20T14:53:23Z</time>
      </trkpt>
      <trkpt lat="49.03563" lon="0.09601">
        <ele>128.2</ele>
        <time>2024-03-20T14:53:24Z</time>
      </trkpt>
      <trkpt lat="49.03559" lon="0.09597">
        <ele>128.2</ele>
        <time>2024-03-20T14:53:25Z</time>
      </trkpt>
      <trkpt lat="49.03555" lon="0.09593">
        <ele>128.4</ele>
        <time>2024-03-20T14:53:26Z</time>
      </trkpt>
      <trkpt lat="49.03551" lon="0.09589">
        <ele>128.6</ele>
        <time>2024-03-20T14:53:27Z</time>
      </trkpt>
      <trkpt lat="49.03548" lon="0.09585">
        <ele>128.8</ele>
        <time>2024-03-20T14:53:28Z</time>
      </trkpt>
      <trkpt lat="49.03544" lon="0.09581">
        <ele>129</ele>
        <time>2024-03-20T14:53:29Z</time>
      </trkpt>
      <trkpt lat="49.0354" lon="0.09577">
        <ele>129.4</ele>
        <time>2024-03-20T14:53:30Z</time>
      </trkpt>
      <trkpt lat="49.03537" lon="0.09573">
        <ele>129.6</ele>
        <time>2024-03-20T14:53:31Z</time>
      </trkpt>
      <trkpt lat="49.03533" lon="0.09569">
        <ele>129.8</ele>
        <time>2024-03-20T14:53:32Z</time>
      </trkpt>
      <trkpt lat="49.03529" lon="0.09565">
        <ele>130</ele>
        <time>2024-03-20T14:53:33Z</time>
      </trkpt>
      <trkpt lat="49.03526" lon="0.09561">
        <ele>130.2</ele>
        <time>2024-03-20T14:53:34Z</time>
      </trkpt>
      <trkpt lat="49.03522" lon="0.09557">
        <ele>130.6</ele>
        <time>2024-03-20T14:53:35Z</time>
      </trkpt>
      <trkpt lat="49.03518" lon="0.09553">
        <ele>130.8</ele>
        <time>2024-03-20T14:53:36Z</time>
      </trkpt>
      <trkpt lat="49.03513" lon="0.09549">
        <ele>131</ele>
        <time>2024-03-20T14:53:37Z</time>
      </trkpt>
      <trkpt lat="49.03511" lon="0.09546">
        <ele>131.4</ele>
        <time>2024-03-20T14:53:38Z</time>
      </trkpt>
      <trkpt lat="49.03506" lon="0.09541">
        <ele>131.8</ele>
        <time>2024-03-20T14:53:39Z</time>
      </trkpt>
      <trkpt lat="49.03503" lon="0.09539">
        <ele>132</ele>
        <time>2024-03-20T14:53:40Z</time>
      </trkpt>
      <trkpt lat="49.03499" lon="0.09536">
        <ele>132.2</ele>
        <time>2024-03-20T14:53:41Z</time>
      </trkpt>
      <trkpt lat="49.03495" lon="0.09533">
        <ele>132.6</ele>
        <time>2024-03-20T14:53:42Z</time>
      </trkpt>
      <trkpt lat="49.03491" lon="0.0953">
        <ele>132.8</ele>
        <time>2024-03-20T14:53:43Z</time>
      </trkpt>
      <trkpt lat="49.03487" lon="0.09527">
        <ele>133</ele>
        <time>2024-03-20T14:53:44Z</time>
      </trkpt>
      <trkpt lat="49.03483" lon="0.09526">
        <ele>133.4</ele>
        <time>2024-03-20T14:53:45Z</time>
      </trkpt>
      <trkpt lat="49.03479" lon="0.09524">
        <ele>133.6</ele>
        <time>2024-03-20T14:53:46Z</time>
      </trkpt>
      <trkpt lat="49.03474" lon="0.09524">
        <ele>133.6</ele>
        <time>2024-03-20T14:53:47Z</time>
      </trkpt>
      <trkpt lat="49.0347" lon="0.09523">
        <ele>133.6</ele>
        <time>2024-03-20T14:53:48Z</time>
      </trkpt>
      <trkpt lat="49.03466" lon="0.09522">
        <ele>134</ele>
        <time>2024-03-20T14:53:49Z</time>
      </trkpt>
      <trkpt lat="49.03461" lon="0.09521">
        <ele>134.2</ele>
        <time>2024-03-20T14:53:50Z</time>
      </trkpt>
      <trkpt lat="49.03457" lon="0.09521">
        <ele>134.4</ele>
        <time>2024-03-20T14:53:51Z</time>
      </trkpt>
      <trkpt lat="49.03452" lon="0.09521">
        <ele>134.6</ele>
        <time>2024-03-20T14:53:52Z</time>
      </trkpt>
      <trkpt lat="49.03448" lon="0.09521">
        <ele>134.8</ele>
        <time>2024-03-20T14:53:53Z</time>
      </trkpt>
      <trkpt lat="49.03443" lon="0.0952">
        <ele>135</ele>
        <time>2024-03-20T14:53:54Z</time>
      </trkpt>
      <trkpt lat="49.03438" lon="0.0952">
        <ele>135.2</ele>
        <time>2024-03-20T14:53:55Z</time>
      </trkpt>
      <trkpt lat="49.03435" lon="0.0952">
        <ele>135.4</ele>
        <time>2024-03-20T14:53:56Z</time>
      </trkpt>
      <trkpt lat="49.0343" lon="0.0952">
        <ele>135.6</ele>
        <time>2024-03-20T14:53:57Z</time>
      </trkpt>
      <trkpt lat="49.03426" lon="0.0952">
        <ele>135.8</ele>
        <time>2024-03-20T14:53:58Z</time>
      </trkpt>
      <trkpt lat="49.03422" lon="0.0952">
        <ele>136</ele>
        <time>2024-03-20T14:53:59Z</time>
      </trkpt>
      <trkpt lat="49.03417" lon="0.0952">
        <ele>136.2</ele>
        <time>2024-03-20T14:54:00Z</time>
      </trkpt>
      <trkpt lat="49.03412" lon="0.0952">
        <ele>136.4</ele>
        <time>2024-03-20T14:54:01Z</time>
      </trkpt>
      <trkpt lat="49.03408" lon="0.0952">
        <ele>136.6</ele>
        <time>2024-03-20T14:54:02Z</time>
      </trkpt>
      <trkpt lat="49.03404" lon="0.0952">
        <ele>136.8</ele>
        <time>2024-03-20T14:54:03Z</time>
      </trkpt>
      <trkpt lat="49.034" lon="0.09521">
        <ele>136.8</ele>
        <time>2024-03-20T14:54:04Z</time>
      </trkpt>
      <trkpt lat="49.03396" lon="0.09521">
        <ele>137.2</ele>
        <time>2024-03-20T14:54:05Z</time>
      </trkpt>
      <trkpt lat="49.03392" lon="0.09521">
        <ele>137.4</ele>
        <time>2024-03-20T14:54:06Z</time>
      </trkpt>
      <trkpt lat="49.03387" lon="0.0952">
        <ele>137.6</ele>
        <time>2024-03-20T14:54:07Z</time>
      </trkpt>
      <trkpt lat="49.03383" lon="0.0952">
        <ele>137.8</ele>
        <time>2024-03-20T14:54:08Z</time>
      </trkpt>
      <trkpt lat="49.03379" lon="0.0952">
        <ele>138</ele>
        <time>2024-03-20T14:54:09Z</time>
      </trkpt>
      <trkpt lat="49.03376" lon="0.09521">
        <ele>138.2</ele>
        <time>2024-03-20T14:54:10Z</time>
      </trkpt>
      <trkpt lat="49.03372" lon="0.09522">
        <ele>138.2</ele>
        <time>2024-03-20T14:54:11Z</time>
      </trkpt>
      <trkpt lat="49.03367" lon="0.09523">
        <ele>138.4</ele>
        <time>2024-03-20T14:54:12Z</time>
      </trkpt>
      <trkpt lat="49.03362" lon="0.09524">
        <ele>138.6</ele>
        <time>2024-03-20T14:54:13Z</time>
      </trkpt>
      <trkpt lat="49.03358" lon="0.09525">
        <ele>138.8</ele>
        <time>2024-03-20T14:54:14Z</time>
      </trkpt>
      <trkpt lat="49.03355" lon="0.09525">
        <ele>139.2</ele>
        <time>2024-03-20T14:54:15Z</time>
      </trkpt>
      <trkpt lat="49.03351" lon="0.09526">
        <ele>139.4</ele>
        <time>2024-03-20T14:54:16Z</time>
      </trkpt>
      <trkpt lat="49.03347" lon="0.09527">
        <ele>139.8</ele>
        <time>2024-03-20T14:54:17Z</time>
      </trkpt>
      <trkpt lat="49.03343" lon="0.09528">
        <ele>139.8</ele>
        <time>2024-03-20T14:54:18Z</time>
      </trkpt>
      <trkpt lat="49.0334" lon="0.09529">
        <ele>140</ele>
        <time>2024-03-20T14:54:19Z</time>
      </trkpt>
      <trkpt lat="49.03336" lon="0.0953">
        <ele>140.2</ele>
        <time>2024-03-20T14:54:20Z</time>
      </trkpt>
      <trkpt lat="49.03332" lon="0.09531">
        <ele>140.4</ele>
        <time>2024-03-20T14:54:21Z</time>
      </trkpt>
      <trkpt lat="49.03328" lon="0.09531">
        <ele>140.6</ele>
        <time>2024-03-20T14:54:22Z</time>
      </trkpt>
      <trkpt lat="49.03325" lon="0.09532">
        <ele>140.8</ele>
        <time>2024-03-20T14:54:23Z</time>
      </trkpt>
      <trkpt lat="49.03321" lon="0.09533">
        <ele>141</ele>
        <time>2024-03-20T14:54:24Z</time>
      </trkpt>
      <trkpt lat="49.03317" lon="0.09534">
        <ele>141.2</ele>
        <time>2024-03-20T14:54:25Z</time>
      </trkpt>
      <trkpt lat="49.03313" lon="0.09536">
        <ele>141.6</ele>
        <time>2024-03-20T14:54:26Z</time>
      </trkpt>
      <trkpt lat="49.03308" lon="0.09536">
        <ele>141.8</ele>
        <time>2024-03-20T14:54:27Z</time>
      </trkpt>
      <trkpt lat="49.03304" lon="0.09537">
        <ele>142.2</ele>
        <time>2024-03-20T14:54:28Z</time>
      </trkpt>
      <trkpt lat="49.033" lon="0.09537">
        <ele>142.4</ele>
        <time>2024-03-20T14:54:29Z</time>
      </trkpt>
      <trkpt lat="49.03296" lon="0.09537">
        <ele>142.8</ele>
        <time>2024-03-20T14:54:30Z</time>
      </trkpt>
      <trkpt lat="49.03293" lon="0.09537">
        <ele>143</ele>
        <time>2024-03-20T14:54:31Z</time>
      </trkpt>
      <trkpt lat="49.03289" lon="0.09537">
        <ele>143.4</ele>
        <time>2024-03-20T14:54:32Z</time>
      </trkpt>
      <trkpt lat="49.03284" lon="0.09537">
        <ele>143.6</ele>
        <time>2024-03-20T14:54:33Z</time>
      </trkpt>
      <trkpt lat="49.0328" lon="0.09537">
        <ele>143.8</ele>
        <time>2024-03-20T14:54:34Z</time>
      </trkpt>
      <trkpt lat="49.03277" lon="0.09537">
        <ele>143.8</ele>
        <time>2024-03-20T14:54:35Z</time>
      </trkpt>
      <trkpt lat="49.03273" lon="0.09536">
        <ele>144</ele>
        <time>2024-03-20T14:54:36Z</time>
      </trkpt>
      <trkpt lat="49.03269" lon="0.09536">
        <ele>144.4</ele>
        <time>2024-03-20T14:54:37Z</time>
      </trkpt>
      <trkpt lat="49.03265" lon="0.09535">
        <ele>144.8</ele>
        <time>2024-03-20T14:54:38Z</time>
      </trkpt>
      <trkpt lat="49.03261" lon="0.09534">
        <ele>145</ele>
        <time>2024-03-20T14:54:39Z</time>
      </trkpt>
      <trkpt lat="49.03257" lon="0.09533">
        <ele>145.4</ele>
        <time>2024-03-20T14:54:40Z</time>
      </trkpt>
      <trkpt lat="49.03254" lon="0.09532">
        <ele>145.6</ele>
        <time>2024-03-20T14:54:41Z</time>
      </trkpt>
      <trkpt lat="49.0325" lon="0.09531">
        <ele>146</ele>
        <time>2024-03-20T14:54:42Z</time>
      </trkpt>
      <trkpt lat="49.03246" lon="0.0953">
        <ele>146.4</ele>
        <time>2024-03-20T14:54:43Z</time>
      </trkpt>
      <trkpt lat="49.03243" lon="0.09529">
        <ele>146.6</ele>
        <time>2024-03-20T14:54:44Z</time>
      </trkpt>
      <trkpt lat="49.03239" lon="0.09528">
        <ele>147</ele>
        <time>2024-03-20T14:54:45Z</time>
      </trkpt>
      <trkpt lat="49.03235" lon="0.09528">
        <ele>147.4</ele>
        <time>2024-03-20T14:54:46Z</time>
      </trkpt>
      <trkpt lat="49.03232" lon="0.09527">
        <ele>147.6</ele>
        <time>2024-03-20T14:54:47Z</time>
      </trkpt>
      <trkpt lat="49.03227" lon="0.09526">
        <ele>148</ele>
        <time>2024-03-20T14:54:48Z</time>
      </trkpt>
      <trkpt lat="49.03225" lon="0.09526">
        <ele>148.2</ele>
        <time>2024-03-20T14:54:49Z</time>
      </trkpt>
      <trkpt lat="49.03221" lon="0.09525">
        <ele>148.4</ele>
        <time>2024-03-20T14:54:50Z</time>
      </trkpt>
      <trkpt lat="49.03218" lon="0.09524">
        <ele>148.6</ele>
        <time>2024-03-20T14:54:51Z</time>
      </trkpt>
      <trkpt lat="49.03214" lon="0.09523">
        <ele>148.8</ele>
        <time>2024-03-20T14:54:52Z</time>
      </trkpt>
      <trkpt lat="49.03211" lon="0.09523">
        <ele>149.2</ele>
        <time>2024-03-20T14:54:53Z</time>
      </trkpt>
      <trkpt lat="49.03206" lon="0.09522">
        <ele>149.4</ele>
        <time>2024-03-20T14:54:54Z</time>
      </trkpt>
      <trkpt lat="49.03203" lon="0.09522">
        <ele>149.8</ele>
        <time>2024-03-20T14:54:55Z</time>
      </trkpt>
      <trkpt lat="49.032" lon="0.09522">
        <ele>150.2</ele>
        <time>2024-03-20T14:54:56Z</time>
      </trkpt>
      <trkpt lat="49.03197" lon="0.09522">
        <ele>150.4</ele>
        <time>2024-03-20T14:54:57Z</time>
      </trkpt>
      <trkpt lat="49.03193" lon="0.09522">
        <ele>150.4</ele>
        <time>2024-03-20T14:54:58Z</time>
      </trkpt>
      <trkpt lat="49.0319" lon="0.09522">
        <ele>150.8</ele>
        <time>2024-03-20T14:54:59Z</time>
      </trkpt>
      <trkpt lat="49.03185" lon="0.09522">
        <ele>151</ele>
        <time>2024-03-20T14:55:00Z</time>
      </trkpt>
      <trkpt lat="49.03182" lon="0.09521">
        <ele>151.2</ele>
        <time>2024-03-20T14:55:01Z</time>
      </trkpt>
      <trkpt lat="49.03179" lon="0.09521">
        <ele>151.4</ele>
        <time>2024-03-20T14:55:02Z</time>
      </trkpt>
      <trkpt lat="49.03175" lon="0.09521">
        <ele>151.8</ele>
        <time>2024-03-20T14:55:03Z</time>
      </trkpt>
      <trkpt lat="49.03172" lon="0.09521">
        <ele>152</ele>
        <time>2024-03-20T14:55:04Z</time>
      </trkpt>
      <trkpt lat="49.03168" lon="0.09521">
        <ele>152.2</ele>
        <time>2024-03-20T14:55:05Z</time>
      </trkpt>
      <trkpt lat="49.03164" lon="0.09521">
        <ele>152.4</ele>
        <time>2024-03-20T14:55:06Z</time>
      </trkpt>
      <trkpt lat="49.03161" lon="0.09521">
        <ele>152.8</ele>
        <time>2024-03-20T14:55:07Z</time>
      </trkpt>
      <trkpt lat="49.03158" lon="0.09521">
        <ele>153</ele>
        <time>2024-03-20T14:55:08Z</time>
      </trkpt>
      <trkpt lat="49.03153" lon="0.09522">
        <ele>153.2</ele>
        <time>2024-03-20T14:55:09Z</time>
      </trkpt>
      <trkpt lat="49.0315" lon="0.09522">
        <ele>153.6</ele>
        <time>2024-03-20T14:55:10Z</time>
      </trkpt>
      <trkpt lat="49.03147" lon="0.09522">
        <ele>153.6</ele>
        <time>2024-03-20T14:55:11Z</time>
      </trkpt>
      <trkpt lat="49.03143" lon="0.09522">
        <ele>153.8</ele>
        <time>2024-03-20T14:55:12Z</time>
      </trkpt>
      <trkpt lat="49.03139" lon="0.09521">
        <ele>154.2</ele>
        <time>2024-03-20T14:55:13Z</time>
      </trkpt>
      <trkpt lat="49.03135" lon="0.09521">
        <ele>154.4</ele>
        <time>2024-03-20T14:55:14Z</time>
      </trkpt>
      <trkpt lat="49.03131" lon="0.0952">
        <ele>154.8</ele>
        <time>2024-03-20T14:55:15Z</time>
      </trkpt>
      <trkpt lat="49.03127" lon="0.09519">
        <ele>155</ele>
        <time>2024-03-20T14:55:16Z</time>
      </trkpt>
      <trkpt lat="49.03123" lon="0.09519">
        <ele>155.2</ele>
        <time>2024-03-20T14:55:17Z</time>
      </trkpt>
      <trkpt lat="49.03119" lon="0.09519">
        <ele>155.4</ele>
        <time>2024-03-20T14:55:18Z</time>
      </trkpt>
      <trkpt lat="49.03115" lon="0.09518">
        <ele>155.8</ele>
        <time>2024-03-20T14:55:19Z</time>
      </trkpt>
      <trkpt lat="49.03111" lon="0.09517">
        <ele>156</ele>
        <time>2024-03-20T14:55:20Z</time>
      </trkpt>
      <trkpt lat="49.03106" lon="0.09516">
        <ele>156</ele>
        <time>2024-03-20T14:55:21Z</time>
      </trkpt>
      <trkpt lat="49.03101" lon="0.09515">
        <ele>156.2</ele>
        <time>2024-03-20T14:55:22Z</time>
      </trkpt>
      <trkpt lat="49.03098" lon="0.09514">
        <ele>156.4</ele>
        <time>2024-03-20T14:55:23Z</time>
      </trkpt>
      <trkpt lat="49.03094" lon="0.09512">
        <ele>156.6</ele>
        <time>2024-03-20T14:55:24Z</time>
      </trkpt>
      <trkpt lat="49.03089" lon="0.09511">
        <ele>156.6</ele>
        <time>2024-03-20T14:55:25Z</time>
      </trkpt>
      <trkpt lat="49.03086" lon="0.0951">
        <ele>156.8</ele>
        <time>2024-03-20T14:55:26Z</time>
      </trkpt>
      <trkpt lat="49.03082" lon="0.09509">
        <ele>156.8</ele>
        <time>2024-03-20T14:55:27Z</time>
      </trkpt>
      <trkpt lat="49.03077" lon="0.09507">
        <ele>157</ele>
        <time>2024-03-20T14:55:28Z</time>
      </trkpt>
      <trkpt lat="49.03074" lon="0.09505">
        <ele>157</ele>
        <time>2024-03-20T14:55:29Z</time>
      </trkpt>
      <trkpt lat="49.0307" lon="0.09504">
        <ele>157.2</ele>
        <time>2024-03-20T14:55:30Z</time>
      </trkpt>
      <trkpt lat="49.03065" lon="0.09502">
        <ele>157.2</ele>
        <time>2024-03-20T14:55:31Z</time>
      </trkpt>
      <trkpt lat="49.03062" lon="0.09501">
        <ele>157.4</ele>
        <time>2024-03-20T14:55:32Z</time>
      </trkpt>
      <trkpt lat="49.03058" lon="0.095">
        <ele>157.6</ele>
        <time>2024-03-20T14:55:33Z</time>
      </trkpt>
      <trkpt lat="49.03054" lon="0.09498">
        <ele>157.8</ele>
        <time>2024-03-20T14:55:34Z</time>
      </trkpt>
      <trkpt lat="49.03051" lon="0.09497">
        <ele>158</ele>
        <time>2024-03-20T14:55:35Z</time>
      </trkpt>
      <trkpt lat="49.03047" lon="0.09495">
        <ele>158</ele>
        <time>2024-03-20T14:55:36Z</time>
      </trkpt>
      <trkpt lat="49.03043" lon="0.09493">
        <ele>158.2</ele>
        <time>2024-03-20T14:55:37Z</time>
      </trkpt>
      <trkpt lat="49.03039" lon="0.09492">
        <ele>158.4</ele>
        <time>2024-03-20T14:55:38Z</time>
      </trkpt>
      <trkpt lat="49.03035" lon="0.0949">
        <ele>158.6</ele>
        <time>2024-03-20T14:55:39Z</time>
      </trkpt>
      <trkpt lat="49.03031" lon="0.09488">
        <ele>158.8</ele>
        <time>2024-03-20T14:55:40Z</time>
      </trkpt>
      <trkpt lat="49.03028" lon="0.09487">
        <ele>159</ele>
        <time>2024-03-20T14:55:41Z</time>
      </trkpt>
      <trkpt lat="49.03024" lon="0.09485">
        <ele>159.2</ele>
        <time>2024-03-20T14:55:42Z</time>
      </trkpt>
      <trkpt lat="49.03019" lon="0.09482">
        <ele>159.4</ele>
        <time>2024-03-20T14:55:43Z</time>
      </trkpt>
      <trkpt lat="49.03016" lon="0.0948">
        <ele>159.4</ele>
        <time>2024-03-20T14:55:44Z</time>
      </trkpt>
      <trkpt lat="49.03012" lon="0.09479">
        <ele>159.4</ele>
        <time>2024-03-20T14:55:45Z</time>
      </trkpt>
      <trkpt lat="49.03008" lon="0.09477">
        <ele>159.4</ele>
        <time>2024-03-20T14:55:46Z</time>
      </trkpt>
      <trkpt lat="49.03005" lon="0.09476">
        <ele>159.6</ele>
        <time>2024-03-20T14:55:47Z</time>
      </trkpt>
      <trkpt lat="49.03001" lon="0.09475">
        <ele>159.8</ele>
        <time>2024-03-20T14:55:48Z</time>
      </trkpt>
      <trkpt lat="49.02997" lon="0.09473">
        <ele>160</ele>
        <time>2024-03-20T14:55:49Z</time>
      </trkpt>
      <trkpt lat="49.02995" lon="0.09473">
        <ele>160</ele>
        <time>2024-03-20T14:55:50Z</time>
      </trkpt>
      <trkpt lat="49.02992" lon="0.09472">
        <ele>160.2</ele>
        <time>2024-03-20T14:55:51Z</time>
      </trkpt>
      <trkpt lat="49.02989" lon="0.09471">
        <ele>160.2</ele>
        <time>2024-03-20T14:55:52Z</time>
      </trkpt>
      <trkpt lat="49.02986" lon="0.09471">
        <ele>160.4</ele>
        <time>2024-03-20T14:55:53Z</time>
      </trkpt>
      <trkpt lat="49.02984" lon="0.09471">
        <ele>160.6</ele>
        <time>2024-03-20T14:55:54Z</time>
      </trkpt>
      <trkpt lat="49.02981" lon="0.09471">
        <ele>160.6</ele>
        <time>2024-03-20T14:55:55Z</time>
      </trkpt>
      <trkpt lat="49.02979" lon="0.09472">
        <ele>160.8</ele>
        <time>2024-03-20T14:55:56Z</time>
      </trkpt>
      <trkpt lat="49.02978" lon="0.09473">
        <ele>161</ele>
        <time>2024-03-20T14:55:57Z</time>
      </trkpt>
      <trkpt lat="49.02976" lon="0.09475">
        <ele>161</ele>
        <time>2024-03-20T14:55:58Z</time>
      </trkpt>
      <trkpt lat="49.02975" lon="0.09477">
        <ele>161.2</ele>
        <time>2024-03-20T14:55:59Z</time>
      </trkpt>
      <trkpt lat="49.02974" lon="0.09478">
        <ele>161.4</ele>
        <time>2024-03-20T14:56:00Z</time>
      </trkpt>
      <trkpt lat="49.02974" lon="0.0948">
        <ele>161.4</ele>
        <time>2024-03-20T14:56:01Z</time>
      </trkpt>
      <trkpt lat="49.02974" lon="0.0948">
        <ele>161.6</ele>
        <time>2024-03-20T14:56:02Z</time>
      </trkpt>
      <trkpt lat="49.02974" lon="0.09488">
        <ele>162</ele>
        <time>2024-03-20T14:56:11Z</time>
      </trkpt>
      <trkpt lat="49.02974" lon="0.09491">
        <ele>162</ele>
        <time>2024-03-20T14:56:12Z</time>
      </trkpt>
      <trkpt lat="49.02974" lon="0.09495">
        <ele>162</ele>
        <time>2024-03-20T14:56:13Z</time>
      </trkpt>
      <trkpt lat="49.02973" lon="0.09499">
        <ele>162</ele>
        <time>2024-03-20T14:56:14Z</time>
      </trkpt>
      <trkpt lat="49.02972" lon="0.09503">
        <ele>162</ele>
        <time>2024-03-20T14:56:15Z</time>
      </trkpt>
      <trkpt lat="49.02972" lon="0.09507">
        <ele>162</ele>
        <time>2024-03-20T14:56:16Z</time>
      </trkpt>
      <trkpt lat="49.02971" lon="0.09512">
        <ele>162</ele>
        <time>2024-03-20T14:56:17Z</time>
      </trkpt>
      <trkpt lat="49.0297" lon="0.09517">
        <ele>162</ele>
        <time>2024-03-20T14:56:18Z</time>
      </trkpt>
      <trkpt lat="49.02969" lon="0.09522">
        <ele>162</ele>
        <time>2024-03-20T14:56:19Z</time>
      </trkpt>
      <trkpt lat="49.02967" lon="0.09527">
        <ele>162</ele>
        <time>2024-03-20T14:56:20Z</time>
      </trkpt>
      <trkpt lat="49.02966" lon="0.09533">
        <ele>162</ele>
        <time>2024-03-20T14:56:21Z</time>
      </trkpt>
      <trkpt lat="49.02965" lon="0.09539">
        <ele>162</ele>
        <time>2024-03-20T14:56:22Z</time>
      </trkpt>
      <trkpt lat="49.02964" lon="0.09546">
        <ele>162</ele>
        <time>2024-03-20T14:56:23Z</time>
      </trkpt>
      <trkpt lat="49.02962" lon="0.0955">
        <ele>162</ele>
        <time>2024-03-20T14:56:24Z</time>
      </trkpt>
      <trkpt lat="49.02961" lon="0.09557">
        <ele>162</ele>
        <time>2024-03-20T14:56:25Z</time>
      </trkpt>
      <trkpt lat="49.0296" lon="0.09564">
        <ele>162</ele>
        <time>2024-03-20T14:56:26Z</time>
      </trkpt>
      <trkpt lat="49.02958" lon="0.09571">
        <ele>162</ele>
        <time>2024-03-20T14:56:27Z</time>
      </trkpt>
      <trkpt lat="49.02956" lon="0.09579">
        <ele>162</ele>
        <time>2024-03-20T14:56:28Z</time>
      </trkpt>
      <trkpt lat="49.02954" lon="0.09588">
        <ele>162.2</ele>
        <time>2024-03-20T14:56:29Z</time>
      </trkpt>
      <trkpt lat="49.02953" lon="0.09595">
        <ele>162.2</ele>
        <time>2024-03-20T14:56:30Z</time>
      </trkpt>
      <trkpt lat="49.02951" lon="0.09603">
        <ele>162.2</ele>
        <time>2024-03-20T14:56:31Z</time>
      </trkpt>
      <trkpt lat="49.0295" lon="0.09612">
        <ele>162.4</ele>
        <time>2024-03-20T14:56:32Z</time>
      </trkpt>
      <trkpt lat="49.02948" lon="0.09617">
        <ele>162.6</ele>
        <time>2024-03-20T14:56:33Z</time>
      </trkpt>
      <trkpt lat="49.02946" lon="0.09626">
        <ele>162.6</ele>
        <time>2024-03-20T14:56:34Z</time>
      </trkpt>
      <trkpt lat="49.02944" lon="0.09632">
        <ele>162.6</ele>
        <time>2024-03-20T14:56:35Z</time>
      </trkpt>
      <trkpt lat="49.02942" lon="0.0964">
        <ele>162.8</ele>
        <time>2024-03-20T14:56:36Z</time>
      </trkpt>
      <trkpt lat="49.0294" lon="0.09648">
        <ele>162.8</ele>
        <time>2024-03-20T14:56:37Z</time>
      </trkpt>
      <trkpt lat="49.02937" lon="0.09656">
        <ele>163</ele>
        <time>2024-03-20T14:56:38Z</time>
      </trkpt>
      <trkpt lat="49.02934" lon="0.09663">
        <ele>163.2</ele>
        <time>2024-03-20T14:56:39Z</time>
      </trkpt>
      <trkpt lat="49.02931" lon="0.0967">
        <ele>163.2</ele>
        <time>2024-03-20T14:56:40Z</time>
      </trkpt>
      <trkpt lat="49.02927" lon="0.09676">
        <ele>163.4</ele>
        <time>2024-03-20T14:56:41Z</time>
      </trkpt>
      <trkpt lat="49.02924" lon="0.09684">
        <ele>163.4</ele>
        <time>2024-03-20T14:56:42Z</time>
      </trkpt>
      <trkpt lat="49.0292" lon="0.09691">
        <ele>163.4</ele>
        <time>2024-03-20T14:56:43Z</time>
      </trkpt>
      <trkpt lat="49.02917" lon="0.09698">
        <ele>163.6</ele>
        <time>2024-03-20T14:56:44Z</time>
      </trkpt>
      <trkpt lat="49.02914" lon="0.09706">
        <ele>163.6</ele>
        <time>2024-03-20T14:56:45Z</time>
      </trkpt>
      <trkpt lat="49.0291" lon="0.09714">
        <ele>163.6</ele>
        <time>2024-03-20T14:56:46Z</time>
      </trkpt>
      <trkpt lat="49.02907" lon="0.09722">
        <ele>163.6</ele>
        <time>2024-03-20T14:56:47Z</time>
      </trkpt>
      <trkpt lat="49.02903" lon="0.09731">
        <ele>163.6</ele>
        <time>2024-03-20T14:56:48Z</time>
      </trkpt>
      <trkpt lat="49.029" lon="0.09739">
        <ele>163.6</ele>
        <time>2024-03-20T14:56:49Z</time>
      </trkpt>
      <trkpt lat="49.02897" lon="0.09747">
        <ele>163.6</ele>
        <time>2024-03-20T14:56:50Z</time>
      </trkpt>
      <trkpt lat="49.02894" lon="0.09756">
        <ele>163.6</ele>
        <time>2024-03-20T14:56:51Z</time>
      </trkpt>
      <trkpt lat="49.02891" lon="0.09764">
        <ele>163.6</ele>
        <time>2024-03-20T14:56:52Z</time>
      </trkpt>
      <trkpt lat="49.02888" lon="0.09773">
        <ele>163.6</ele>
        <time>2024-03-20T14:56:53Z</time>
      </trkpt>
      <trkpt lat="49.02886" lon="0.09782">
        <ele>163.6</ele>
        <time>2024-03-20T14:56:54Z</time>
      </trkpt>
      <trkpt lat="49.02884" lon="0.09791">
        <ele>163.6</ele>
        <time>2024-03-20T14:56:55Z</time>
      </trkpt>
      <trkpt lat="49.02881" lon="0.098">
        <ele>163.6</ele>
        <time>2024-03-20T14:56:56Z</time>
      </trkpt>
      <trkpt lat="49.02879" lon="0.0981">
        <ele>163.6</ele>
        <time>2024-03-20T14:56:57Z</time>
      </trkpt>
      <trkpt lat="49.02878" lon="0.09819">
        <ele>163.6</ele>
        <time>2024-03-20T14:56:58Z</time>
      </trkpt>
      <trkpt lat="49.02876" lon="0.09828">
        <ele>163.8</ele>
        <time>2024-03-20T14:56:59Z</time>
      </trkpt>
      <trkpt lat="49.02874" lon="0.09837">
        <ele>163.8</ele>
        <time>2024-03-20T14:57:00Z</time>
      </trkpt>
      <trkpt lat="49.02872" lon="0.09846">
        <ele>163.8</ele>
        <time>2024-03-20T14:57:01Z</time>
      </trkpt>
      <trkpt lat="49.0287" lon="0.09855">
        <ele>163.8</ele>
        <time>2024-03-20T14:57:02Z</time>
      </trkpt>
      <trkpt lat="49.02868" lon="0.09864">
        <ele>163.8</ele>
        <time>2024-03-20T14:57:03Z</time>
      </trkpt>
      <trkpt lat="49.02866" lon="0.09875">
        <ele>164</ele>
        <time>2024-03-20T14:57:04Z</time>
      </trkpt>
      <trkpt lat="49.02864" lon="0.09882">
        <ele>164</ele>
        <time>2024-03-20T14:57:05Z</time>
      </trkpt>
      <trkpt lat="49.02862" lon="0.09891">
        <ele>164.2</ele>
        <time>2024-03-20T14:57:06Z</time>
      </trkpt>
      <trkpt lat="49.0286" lon="0.09903">
        <ele>164.4</ele>
        <time>2024-03-20T14:57:07Z</time>
      </trkpt>
      <trkpt lat="49.02858" lon="0.0991">
        <ele>164.4</ele>
        <time>2024-03-20T14:57:08Z</time>
      </trkpt>
      <trkpt lat="49.02857" lon="0.0992">
        <ele>164.6</ele>
        <time>2024-03-20T14:57:09Z</time>
      </trkpt>
      <trkpt lat="49.02854" lon="0.09931">
        <ele>164.8</ele>
        <time>2024-03-20T14:57:10Z</time>
      </trkpt>
      <trkpt lat="49.02853" lon="0.09938">
        <ele>164.8</ele>
        <time>2024-03-20T14:57:11Z</time>
      </trkpt>
      <trkpt lat="49.02851" lon="0.09948">
        <ele>165</ele>
        <time>2024-03-20T14:57:12Z</time>
      </trkpt>
      <trkpt lat="49.02849" lon="0.09959">
        <ele>165.2</ele>
        <time>2024-03-20T14:57:13Z</time>
      </trkpt>
      <trkpt lat="49.02847" lon="0.09966">
        <ele>165.4</ele>
        <time>2024-03-20T14:57:14Z</time>
      </trkpt>
      <trkpt lat="49.02845" lon="0.09975">
        <ele>165.6</ele>
        <time>2024-03-20T14:57:15Z</time>
      </trkpt>
      <trkpt lat="49.02843" lon="0.09986">
        <ele>165.6</ele>
        <time>2024-03-20T14:57:16Z</time>
      </trkpt>
      <trkpt lat="49.02841" lon="0.09994">
        <ele>165.6</ele>
        <time>2024-03-20T14:57:17Z</time>
      </trkpt>
      <trkpt lat="49.0284" lon="0.10004">
        <ele>165.8</ele>
        <time>2024-03-20T14:57:18Z</time>
      </trkpt>
      <trkpt lat="49.02838" lon="0.10013">
        <ele>166</ele>
        <time>2024-03-20T14:57:19Z</time>
      </trkpt>
      <trkpt lat="49.02835" lon="0.10023">
        <ele>166.2</ele>
        <time>2024-03-20T14:57:20Z</time>
      </trkpt>
      <trkpt lat="49.02833" lon="0.10032">
        <ele>166.2</ele>
        <time>2024-03-20T14:57:21Z</time>
      </trkpt>
      <trkpt lat="49.02831" lon="0.10042">
        <ele>166.4</ele>
        <time>2024-03-20T14:57:22Z</time>
      </trkpt>
      <trkpt lat="49.0283" lon="0.10052">
        <ele>166.4</ele>
        <time>2024-03-20T14:57:23Z</time>
      </trkpt>
      <trkpt lat="49.02828" lon="0.10062">
        <ele>166.6</ele>
        <time>2024-03-20T14:57:24Z</time>
      </trkpt>
      <trkpt lat="49.02825" lon="0.10073">
        <ele>166.8</ele>
        <time>2024-03-20T14:57:25Z</time>
      </trkpt>
      <trkpt lat="49.02824" lon="0.10081">
        <ele>167</ele>
        <time>2024-03-20T14:57:26Z</time>
      </trkpt>
      <trkpt lat="49.02822" lon="0.1009">
        <ele>167.2</ele>
        <time>2024-03-20T14:57:27Z</time>
      </trkpt>
      <trkpt lat="49.02819" lon="0.10101">
        <ele>167.2</ele>
        <time>2024-03-20T14:57:28Z</time>
      </trkpt>
      <trkpt lat="49.02818" lon="0.10109">
        <ele>167.4</ele>
        <time>2024-03-20T14:57:29Z</time>
      </trkpt>
      <trkpt lat="49.02815" lon="0.10118">
        <ele>167.4</ele>
        <time>2024-03-20T14:57:30Z</time>
      </trkpt>
      <trkpt lat="49.02813" lon="0.10129">
        <ele>167.6</ele>
        <time>2024-03-20T14:57:31Z</time>
      </trkpt>
      <trkpt lat="49.02811" lon="0.10136">
        <ele>167.6</ele>
        <time>2024-03-20T14:57:32Z</time>
      </trkpt>
      <trkpt lat="49.02809" lon="0.10145">
        <ele>167.8</ele>
        <time>2024-03-20T14:57:33Z</time>
      </trkpt>
      <trkpt lat="49.02807" lon="0.10154">
        <ele>167.8</ele>
        <time>2024-03-20T14:57:34Z</time>
      </trkpt>
      <trkpt lat="49.02806" lon="0.10165">
        <ele>168</ele>
        <time>2024-03-20T14:57:35Z</time>
      </trkpt>
      <trkpt lat="49.02805" lon="0.10173">
        <ele>168</ele>
        <time>2024-03-20T14:57:36Z</time>
      </trkpt>
      <trkpt lat="49.02803" lon="0.10182">
        <ele>168.2</ele>
        <time>2024-03-20T14:57:37Z</time>
      </trkpt>
      <trkpt lat="49.02801" lon="0.10191">
        <ele>168.2</ele>
        <time>2024-03-20T14:57:38Z</time>
      </trkpt>
      <trkpt lat="49.02799" lon="0.102">
        <ele>168.2</ele>
        <time>2024-03-20T14:57:39Z</time>
      </trkpt>
      <trkpt lat="49.02797" lon="0.1021">
        <ele>168.2</ele>
        <time>2024-03-20T14:57:40Z</time>
      </trkpt>
      <trkpt lat="49.02795" lon="0.1022">
        <ele>168.4</ele>
        <time>2024-03-20T14:57:41Z</time>
      </trkpt>
      <trkpt lat="49.02792" lon="0.1023">
        <ele>168.6</ele>
        <time>2024-03-20T14:57:42Z</time>
      </trkpt>
      <trkpt lat="49.0279" lon="0.10239">
        <ele>168.6</ele>
        <time>2024-03-20T14:57:43Z</time>
      </trkpt>
      <trkpt lat="49.02788" lon="0.10251">
        <ele>168.8</ele>
        <time>2024-03-20T14:57:44Z</time>
      </trkpt>
      <trkpt lat="49.02787" lon="0.10259">
        <ele>168.8</ele>
        <time>2024-03-20T14:57:45Z</time>
      </trkpt>
      <trkpt lat="49.02785" lon="0.10269">
        <ele>169</ele>
        <time>2024-03-20T14:57:46Z</time>
      </trkpt>
      <trkpt lat="49.02782" lon="0.10279">
        <ele>169</ele>
        <time>2024-03-20T14:57:47Z</time>
      </trkpt>
      <trkpt lat="49.0278" lon="0.10289">
        <ele>169.2</ele>
        <time>2024-03-20T14:57:48Z</time>
      </trkpt>
      <trkpt lat="49.02778" lon="0.103">
        <ele>169.2</ele>
        <time>2024-03-20T14:57:49Z</time>
      </trkpt>
      <trkpt lat="49.02776" lon="0.1031">
        <ele>169.4</ele>
        <time>2024-03-20T14:57:50Z</time>
      </trkpt>
      <trkpt lat="49.02774" lon="0.10321">
        <ele>169.6</ele>
        <time>2024-03-20T14:57:51Z</time>
      </trkpt>
      <trkpt lat="49.02772" lon="0.10331">
        <ele>169.6</ele>
        <time>2024-03-20T14:57:52Z</time>
      </trkpt>
      <trkpt lat="49.0277" lon="0.10341">
        <ele>169.8</ele>
        <time>2024-03-20T14:57:53Z</time>
      </trkpt>
      <trkpt lat="49.02768" lon="0.10351">
        <ele>169.8</ele>
        <time>2024-03-20T14:57:54Z</time>
      </trkpt>
      <trkpt lat="49.02766" lon="0.10361">
        <ele>169.8</ele>
        <time>2024-03-20T14:57:55Z</time>
      </trkpt>
      <trkpt lat="49.02764" lon="0.10371">
        <ele>169.8</ele>
        <time>2024-03-20T14:57:56Z</time>
      </trkpt>
      <trkpt lat="49.02762" lon="0.10381">
        <ele>169.8</ele>
        <time>2024-03-20T14:57:57Z</time>
      </trkpt>
      <trkpt lat="49.0276" lon="0.10391">
        <ele>169.8</ele>
        <time>2024-03-20T14:57:58Z</time>
      </trkpt>
      <trkpt lat="49.02758" lon="0.10401">
        <ele>169.8</ele>
        <time>2024-03-20T14:57:59Z</time>
      </trkpt>
      <trkpt lat="49.02756" lon="0.10411">
        <ele>169.8</ele>
        <time>2024-03-20T14:58:00Z</time>
      </trkpt>
      <trkpt lat="49.02753" lon="0.10423">
        <ele>169.8</ele>
        <time>2024-03-20T14:58:01Z</time>
      </trkpt>
      <trkpt lat="49.02751" lon="0.10432">
        <ele>169.8</ele>
        <time>2024-03-20T14:58:02Z</time>
      </trkpt>
      <trkpt lat="49.02749" lon="0.10442">
        <ele>170</ele>
        <time>2024-03-20T14:58:03Z</time>
      </trkpt>
      <trkpt lat="49.02746" lon="0.10455">
        <ele>170</ele>
        <time>2024-03-20T14:58:04Z</time>
      </trkpt>
      <trkpt lat="49.02743" lon="0.10466">
        <ele>170</ele>
        <time>2024-03-20T14:58:05Z</time>
      </trkpt>
      <trkpt lat="49.02742" lon="0.10474">
        <ele>170</ele>
        <time>2024-03-20T14:58:06Z</time>
      </trkpt>
      <trkpt lat="49.02739" lon="0.10487">
        <ele>170</ele>
        <time>2024-03-20T14:58:07Z</time>
      </trkpt>
      <trkpt lat="49.02736" lon="0.10498">
        <ele>170</ele>
        <time>2024-03-20T14:58:08Z</time>
      </trkpt>
      <trkpt lat="49.02733" lon="0.10506">
        <ele>170</ele>
        <time>2024-03-20T14:58:09Z</time>
      </trkpt>
      <trkpt lat="49.02729" lon="0.10518">
        <ele>170</ele>
        <time>2024-03-20T14:58:10Z</time>
      </trkpt>
      <trkpt lat="49.02726" lon="0.10525">
        <ele>170</ele>
        <time>2024-03-20T14:58:11Z</time>
      </trkpt>
      <trkpt lat="49.02722" lon="0.10534">
        <ele>170</ele>
        <time>2024-03-20T14:58:12Z</time>
      </trkpt>
      <trkpt lat="49.02717" lon="0.10544">
        <ele>170</ele>
        <time>2024-03-20T14:58:13Z</time>
      </trkpt>
      <trkpt lat="49.02713" lon="0.10551">
        <ele>170</ele>
        <time>2024-03-20T14:58:14Z</time>
      </trkpt>
      <trkpt lat="49.02708" lon="0.10559">
        <ele>170</ele>
        <time>2024-03-20T14:58:15Z</time>
      </trkpt>
      <trkpt lat="49.02702" lon="0.10569">
        <ele>170</ele>
        <time>2024-03-20T14:58:16Z</time>
      </trkpt>
      <trkpt lat="49.02698" lon="0.10576">
        <ele>170</ele>
        <time>2024-03-20T14:58:17Z</time>
      </trkpt>
      <trkpt lat="49.02693" lon="0.10585">
        <ele>169.8</ele>
        <time>2024-03-20T14:58:18Z</time>
      </trkpt>
      <trkpt lat="49.02687" lon="0.10593">
        <ele>169.6</ele>
        <time>2024-03-20T14:58:19Z</time>
      </trkpt>
      <trkpt lat="49.02682" lon="0.10601">
        <ele>169.6</ele>
        <time>2024-03-20T14:58:20Z</time>
      </trkpt>
      <trkpt lat="49.02677" lon="0.10609">
        <ele>169.6</ele>
        <time>2024-03-20T14:58:21Z</time>
      </trkpt>
      <trkpt lat="49.02672" lon="0.10617">
        <ele>169.6</ele>
        <time>2024-03-20T14:58:22Z</time>
      </trkpt>
      <trkpt lat="49.02666" lon="0.10625">
        <ele>169.6</ele>
        <time>2024-03-20T14:58:23Z</time>
      </trkpt>
      <trkpt lat="49.02661" lon="0.10633">
        <ele>169.6</ele>
        <time>2024-03-20T14:58:24Z</time>
      </trkpt>
      <trkpt lat="49.02655" lon="0.10641">
        <ele>169.6</ele>
        <time>2024-03-20T14:58:25Z</time>
      </trkpt>
      <trkpt lat="49.0265" lon="0.10648">
        <ele>169.4</ele>
        <time>2024-03-20T14:58:26Z</time>
      </trkpt>
      <trkpt lat="49.02646" lon="0.10656">
        <ele>169.4</ele>
        <time>2024-03-20T14:58:27Z</time>
      </trkpt>
      <trkpt lat="49.02641" lon="0.10664">
        <ele>169.4</ele>
        <time>2024-03-20T14:58:28Z</time>
      </trkpt>
      <trkpt lat="49.02636" lon="0.10672">
        <ele>169.4</ele>
        <time>2024-03-20T14:58:29Z</time>
      </trkpt>
      <trkpt lat="49.02632" lon="0.10681">
        <ele>169.4</ele>
        <time>2024-03-20T14:58:30Z</time>
      </trkpt>
      <trkpt lat="49.02628" lon="0.10689">
        <ele>169.4</ele>
        <time>2024-03-20T14:58:31Z</time>
      </trkpt>
      <trkpt lat="49.02623" lon="0.10697">
        <ele>169.4</ele>
        <time>2024-03-20T14:58:32Z</time>
      </trkpt>
      <trkpt lat="49.02618" lon="0.10705">
        <ele>169.4</ele>
        <time>2024-03-20T14:58:33Z</time>
      </trkpt>
      <trkpt lat="49.02613" lon="0.10713">
        <ele>169.4</ele>
        <time>2024-03-20T14:58:34Z</time>
      </trkpt>
      <trkpt lat="49.02609" lon="0.1072">
        <ele>169.4</ele>
        <time>2024-03-20T14:58:35Z</time>
      </trkpt>
      <trkpt lat="49.02604" lon="0.10727">
        <ele>169.6</ele>
        <time>2024-03-20T14:58:36Z</time>
      </trkpt>
      <trkpt lat="49.026" lon="0.10735">
        <ele>169.6</ele>
        <time>2024-03-20T14:58:37Z</time>
      </trkpt>
      <trkpt lat="49.02595" lon="0.10742">
        <ele>169.6</ele>
        <time>2024-03-20T14:58:38Z</time>
      </trkpt>
      <trkpt lat="49.02591" lon="0.1075">
        <ele>169.6</ele>
        <time>2024-03-20T14:58:39Z</time>
      </trkpt>
      <trkpt lat="49.02586" lon="0.10757">
        <ele>169.6</ele>
        <time>2024-03-20T14:58:40Z</time>
      </trkpt>
      <trkpt lat="49.02582" lon="0.10764">
        <ele>169.6</ele>
        <time>2024-03-20T14:58:41Z</time>
      </trkpt>
      <trkpt lat="49.02577" lon="0.10771">
        <ele>169.8</ele>
        <time>2024-03-20T14:58:42Z</time>
      </trkpt>
      <trkpt lat="49.02573" lon="0.10778">
        <ele>170</ele>
        <time>2024-03-20T14:58:43Z</time>
      </trkpt>
      <trkpt lat="49.02569" lon="0.10785">
        <ele>170.4</ele>
        <time>2024-03-20T14:58:44Z</time>
      </trkpt>
      <trkpt lat="49.02565" lon="0.10792">
        <ele>170.6</ele>
        <time>2024-03-20T14:58:45Z</time>
      </trkpt>
      <trkpt lat="49.02561" lon="0.10799">
        <ele>170.6</ele>
        <time>2024-03-20T14:58:46Z</time>
      </trkpt>
      <trkpt lat="49.02557" lon="0.10806">
        <ele>170.8</ele>
        <time>2024-03-20T14:58:47Z</time>
      </trkpt>
      <trkpt lat="49.02553" lon="0.10813">
        <ele>170.8</ele>
        <time>2024-03-20T14:58:48Z</time>
      </trkpt>
      <trkpt lat="49.02549" lon="0.10821">
        <ele>170.8</ele>
        <time>2024-03-20T14:58:49Z</time>
      </trkpt>
      <trkpt lat="49.02545" lon="0.10829">
        <ele>171</ele>
        <time>2024-03-20T14:58:50Z</time>
      </trkpt>
      <trkpt lat="49.02542" lon="0.10835">
        <ele>171</ele>
        <time>2024-03-20T14:58:51Z</time>
      </trkpt>
      <trkpt lat="49.02539" lon="0.10842">
        <ele>171.2</ele>
        <time>2024-03-20T14:58:52Z</time>
      </trkpt>
      <trkpt lat="49.02535" lon="0.1085">
        <ele>171.4</ele>
        <time>2024-03-20T14:58:53Z</time>
      </trkpt>
      <trkpt lat="49.02532" lon="0.10858">
        <ele>171.8</ele>
        <time>2024-03-20T14:58:54Z</time>
      </trkpt>
      <trkpt lat="49.02529" lon="0.10866">
        <ele>172</ele>
        <time>2024-03-20T14:58:55Z</time>
      </trkpt>
      <trkpt lat="49.02526" lon="0.10874">
        <ele>172.2</ele>
        <time>2024-03-20T14:58:56Z</time>
      </trkpt>
      <trkpt lat="49.02523" lon="0.10882">
        <ele>172.4</ele>
        <time>2024-03-20T14:58:57Z</time>
      </trkpt>
      <trkpt lat="49.0252" lon="0.10892">
        <ele>172.6</ele>
        <time>2024-03-20T14:58:58Z</time>
      </trkpt>
      <trkpt lat="49.02519" lon="0.109">
        <ele>173</ele>
        <time>2024-03-20T14:58:59Z</time>
      </trkpt>
      <trkpt lat="49.02516" lon="0.10909">
        <ele>173.4</ele>
        <time>2024-03-20T14:59:00Z</time>
      </trkpt>
      <trkpt lat="49.02514" lon="0.10917">
        <ele>173.6</ele>
        <time>2024-03-20T14:59:01Z</time>
      </trkpt>
      <trkpt lat="49.02512" lon="0.10926">
        <ele>173.8</ele>
        <time>2024-03-20T14:59:02Z</time>
      </trkpt>
      <trkpt lat="49.02509" lon="0.10935">
        <ele>174</ele>
        <time>2024-03-20T14:59:03Z</time>
      </trkpt>
      <trkpt lat="49.02506" lon="0.10944">
        <ele>174.2</ele>
        <time>2024-03-20T14:59:04Z</time>
      </trkpt>
      <trkpt lat="49.02504" lon="0.10953">
        <ele>174.4</ele>
        <time>2024-03-20T14:59:05Z</time>
      </trkpt>
      <trkpt lat="49.02502" lon="0.10962">
        <ele>174.6</ele>
        <time>2024-03-20T14:59:06Z</time>
      </trkpt>
      <trkpt lat="49.025" lon="0.10972">
        <ele>174.8</ele>
        <time>2024-03-20T14:59:07Z</time>
      </trkpt>
      <trkpt lat="49.02498" lon="0.10984">
        <ele>175.2</ele>
        <time>2024-03-20T14:59:08Z</time>
      </trkpt>
      <trkpt lat="49.02496" lon="0.10991">
        <ele>175.4</ele>
        <time>2024-03-20T14:59:09Z</time>
      </trkpt>
      <trkpt lat="49.02494" lon="0.11003">
        <ele>175.4</ele>
        <time>2024-03-20T14:59:10Z</time>
      </trkpt>
      <trkpt lat="49.02494" lon="0.11012">
        <ele>175.6</ele>
        <time>2024-03-20T14:59:11Z</time>
      </trkpt>
      <trkpt lat="49.02493" lon="0.11022">
        <ele>175.8</ele>
        <time>2024-03-20T14:59:12Z</time>
      </trkpt>
      <trkpt lat="49.02492" lon="0.11035">
        <ele>176.2</ele>
        <time>2024-03-20T14:59:13Z</time>
      </trkpt>
      <trkpt lat="49.02491" lon="0.11043">
        <ele>176.4</ele>
        <time>2024-03-20T14:59:14Z</time>
      </trkpt>
      <trkpt lat="49.0249" lon="0.11054">
        <ele>176.6</ele>
        <time>2024-03-20T14:59:15Z</time>
      </trkpt>
      <trkpt lat="49.0249" lon="0.11064">
        <ele>176.6</ele>
        <time>2024-03-20T14:59:16Z</time>
      </trkpt>
      <trkpt lat="49.02489" lon="0.11075">
        <ele>176.8</ele>
        <time>2024-03-20T14:59:17Z</time>
      </trkpt>
      <trkpt lat="49.02489" lon="0.11085">
        <ele>176.8</ele>
        <time>2024-03-20T14:59:18Z</time>
      </trkpt>
      <trkpt lat="49.02488" lon="0.11096">
        <ele>177</ele>
        <time>2024-03-20T14:59:19Z</time>
      </trkpt>
      <trkpt lat="49.02487" lon="0.11106">
        <ele>176.8</ele>
        <time>2024-03-20T14:59:20Z</time>
      </trkpt>
      <trkpt lat="49.02487" lon="0.11117">
        <ele>176.8</ele>
        <time>2024-03-20T14:59:21Z</time>
      </trkpt>
      <trkpt lat="49.02486" lon="0.11127">
        <ele>177</ele>
        <time>2024-03-20T14:59:22Z</time>
      </trkpt>
      <trkpt lat="49.02485" lon="0.11137">
        <ele>177</ele>
        <time>2024-03-20T14:59:23Z</time>
      </trkpt>
      <trkpt lat="49.02484" lon="0.11148">
        <ele>177</ele>
        <time>2024-03-20T14:59:24Z</time>
      </trkpt>
      <trkpt lat="49.02483" lon="0.11159">
        <ele>177</ele>
        <time>2024-03-20T14:59:25Z</time>
      </trkpt>
      <trkpt lat="49.02483" lon="0.1117">
        <ele>177</ele>
        <time>2024-03-20T14:59:26Z</time>
      </trkpt>
      <trkpt lat="49.02481" lon="0.1118">
        <ele>177.2</ele>
        <time>2024-03-20T14:59:27Z</time>
      </trkpt>
      <trkpt lat="49.0248" lon="0.11191">
        <ele>177.2</ele>
        <time>2024-03-20T14:59:28Z</time>
      </trkpt>
      <trkpt lat="49.02479" lon="0.11201">
        <ele>177.2</ele>
        <time>2024-03-20T14:59:29Z</time>
      </trkpt>
      <trkpt lat="49.02477" lon="0.11211">
        <ele>177.2</ele>
        <time>2024-03-20T14:59:30Z</time>
      </trkpt>
      <trkpt lat="49.02475" lon="0.11221">
        <ele>177.2</ele>
        <time>2024-03-20T14:59:31Z</time>
      </trkpt>
      <trkpt lat="49.02474" lon="0.11231">
        <ele>177.2</ele>
        <time>2024-03-20T14:59:32Z</time>
      </trkpt>
      <trkpt lat="49.02472" lon="0.11241">
        <ele>177.2</ele>
        <time>2024-03-20T14:59:33Z</time>
      </trkpt>
      <trkpt lat="49.02469" lon="0.11251">
        <ele>177.2</ele>
        <time>2024-03-20T14:59:34Z</time>
      </trkpt>
      <trkpt lat="49.02466" lon="0.11263">
        <ele>177.4</ele>
        <time>2024-03-20T14:59:35Z</time>
      </trkpt>
      <trkpt lat="49.02464" lon="0.11271">
        <ele>177.4</ele>
        <time>2024-03-20T14:59:36Z</time>
      </trkpt>
      <trkpt lat="49.02461" lon="0.11282">
        <ele>177.4</ele>
        <time>2024-03-20T14:59:37Z</time>
      </trkpt>
      <trkpt lat="49.02459" lon="0.11292">
        <ele>177.4</ele>
        <time>2024-03-20T14:59:38Z</time>
      </trkpt>
      <trkpt lat="49.02456" lon="0.11303">
        <ele>177.4</ele>
        <time>2024-03-20T14:59:39Z</time>
      </trkpt>
      <trkpt lat="49.02454" lon="0.11313">
        <ele>177.4</ele>
        <time>2024-03-20T14:59:40Z</time>
      </trkpt>
      <trkpt lat="49.02452" lon="0.11323">
        <ele>177.4</ele>
        <time>2024-03-20T14:59:41Z</time>
      </trkpt>
      <trkpt lat="49.02449" lon="0.11334">
        <ele>177.6</ele>
        <time>2024-03-20T14:59:42Z</time>
      </trkpt>
      <trkpt lat="49.02447" lon="0.11344">
        <ele>177.6</ele>
        <time>2024-03-20T14:59:43Z</time>
      </trkpt>
      <trkpt lat="49.02444" lon="0.11354">
        <ele>177.6</ele>
        <time>2024-03-20T14:59:44Z</time>
      </trkpt>
      <trkpt lat="49.02442" lon="0.11364">
        <ele>177.8</ele>
        <time>2024-03-20T14:59:45Z</time>
      </trkpt>
      <trkpt lat="49.0244" lon="0.11375">
        <ele>177.8</ele>
        <time>2024-03-20T14:59:46Z</time>
      </trkpt>
      <trkpt lat="49.02437" lon="0.11385">
        <ele>177.8</ele>
        <time>2024-03-20T14:59:47Z</time>
      </trkpt>
      <trkpt lat="49.02435" lon="0.11396">
        <ele>177.8</ele>
        <time>2024-03-20T14:59:48Z</time>
      </trkpt>
      <trkpt lat="49.02432" lon="0.11406">
        <ele>177.8</ele>
        <time>2024-03-20T14:59:49Z</time>
      </trkpt>
      <trkpt lat="49.0243" lon="0.11416">
        <ele>177.8</ele>
        <time>2024-03-20T14:59:50Z</time>
      </trkpt>
      <trkpt lat="49.02427" lon="0.11426">
        <ele>177.8</ele>
        <time>2024-03-20T14:59:51Z</time>
      </trkpt>
      <trkpt lat="49.02424" lon="0.11436">
        <ele>178</ele>
        <time>2024-03-20T14:59:52Z</time>
      </trkpt>
      <trkpt lat="49.02421" lon="0.11446">
        <ele>178</ele>
        <time>2024-03-20T14:59:53Z</time>
      </trkpt>
      <trkpt lat="49.02417" lon="0.11455">
        <ele>178</ele>
        <time>2024-03-20T14:59:54Z</time>
      </trkpt>
      <trkpt lat="49.02414" lon="0.11465">
        <ele>178</ele>
        <time>2024-03-20T14:59:55Z</time>
      </trkpt>
      <trkpt lat="49.0241" lon="0.11475">
        <ele>178</ele>
        <time>2024-03-20T14:59:56Z</time>
      </trkpt>
      <trkpt lat="49.02405" lon="0.11484">
        <ele>178</ele>
        <time>2024-03-20T14:59:57Z</time>
      </trkpt>
      <trkpt lat="49.02401" lon="0.11493">
        <ele>178</ele>
        <time>2024-03-20T14:59:58Z</time>
      </trkpt>
      <trkpt lat="49.02397" lon="0.11502">
        <ele>178.2</ele>
        <time>2024-03-20T14:59:59Z</time>
      </trkpt>
      <trkpt lat="49.02392" lon="0.1151">
        <ele>178.2</ele>
        <time>2024-03-20T15:00:00Z</time>
      </trkpt>
      <trkpt lat="49.02387" lon="0.11519">
        <ele>178.4</ele>
        <time>2024-03-20T15:00:01Z</time>
      </trkpt>
      <trkpt lat="49.02382" lon="0.11527">
        <ele>178.4</ele>
        <time>2024-03-20T15:00:02Z</time>
      </trkpt>
      <trkpt lat="49.02377" lon="0.11536">
        <ele>178.6</ele>
        <time>2024-03-20T15:00:03Z</time>
      </trkpt>
      <trkpt lat="49.02372" lon="0.11544">
        <ele>178.6</ele>
        <time>2024-03-20T15:00:04Z</time>
      </trkpt>
      <trkpt lat="49.02366" lon="0.11552">
        <ele>178.6</ele>
        <time>2024-03-20T15:00:05Z</time>
      </trkpt>
      <trkpt lat="49.02362" lon="0.11561">
        <ele>178.6</ele>
        <time>2024-03-20T15:00:06Z</time>
      </trkpt>
      <trkpt lat="49.02357" lon="0.11569">
        <ele>178.8</ele>
        <time>2024-03-20T15:00:07Z</time>
      </trkpt>
      <trkpt lat="49.02352" lon="0.11578">
        <ele>178.8</ele>
        <time>2024-03-20T15:00:08Z</time>
      </trkpt>
      <trkpt lat="49.02347" lon="0.11586">
        <ele>178.8</ele>
        <time>2024-03-20T15:00:09Z</time>
      </trkpt>
      <trkpt lat="49.02342" lon="0.11594">
        <ele>178.8</ele>
        <time>2024-03-20T15:00:10Z</time>
      </trkpt>
      <trkpt lat="49.02338" lon="0.11602">
        <ele>179</ele>
        <time>2024-03-20T15:00:11Z</time>
      </trkpt>
      <trkpt lat="49.02333" lon="0.1161">
        <ele>179.2</ele>
        <time>2024-03-20T15:00:12Z</time>
      </trkpt>
      <trkpt lat="49.02328" lon="0.11619">
        <ele>179.4</ele>
        <time>2024-03-20T15:00:13Z</time>
      </trkpt>
      <trkpt lat="49.02323" lon="0.11627">
        <ele>179.4</ele>
        <time>2024-03-20T15:00:14Z</time>
      </trkpt>
      <trkpt lat="49.02318" lon="0.11635">
        <ele>179.4</ele>
        <time>2024-03-20T15:00:15Z</time>
      </trkpt>
      <trkpt lat="49.02313" lon="0.11644">
        <ele>179.6</ele>
        <time>2024-03-20T15:00:16Z</time>
      </trkpt>
      <trkpt lat="49.02308" lon="0.11652">
        <ele>179.6</ele>
        <time>2024-03-20T15:00:17Z</time>
      </trkpt>
      <trkpt lat="49.02303" lon="0.11661">
        <ele>179.6</ele>
        <time>2024-03-20T15:00:18Z</time>
      </trkpt>
      <trkpt lat="49.02298" lon="0.11669">
        <ele>179.6</ele>
        <time>2024-03-20T15:00:19Z</time>
      </trkpt>
      <trkpt lat="49.02292" lon="0.11678">
        <ele>179.6</ele>
        <time>2024-03-20T15:00:20Z</time>
      </trkpt>
      <trkpt lat="49.02288" lon="0.11686">
        <ele>179.6</ele>
        <time>2024-03-20T15:00:21Z</time>
      </trkpt>
      <trkpt lat="49.02283" lon="0.11695">
        <ele>179.8</ele>
        <time>2024-03-20T15:00:22Z</time>
      </trkpt>
      <trkpt lat="49.02278" lon="0.11703">
        <ele>179.8</ele>
        <time>2024-03-20T15:00:23Z</time>
      </trkpt>
      <trkpt lat="49.02273" lon="0.11712">
        <ele>179.8</ele>
        <time>2024-03-20T15:00:24Z</time>
      </trkpt>
      <trkpt lat="49.02268" lon="0.11721">
        <ele>179.8</ele>
        <time>2024-03-20T15:00:25Z</time>
      </trkpt>
      <trkpt lat="49.02263" lon="0.11731">
        <ele>179.8</ele>
        <time>2024-03-20T15:00:26Z</time>
      </trkpt>
      <trkpt lat="49.02259" lon="0.11741">
        <ele>180</ele>
        <time>2024-03-20T15:00:27Z</time>
      </trkpt>
      <trkpt lat="49.02255" lon="0.11751">
        <ele>180</ele>
        <time>2024-03-20T15:00:28Z</time>
      </trkpt>
      <trkpt lat="49.02251" lon="0.11761">
        <ele>180.2</ele>
        <time>2024-03-20T15:00:29Z</time>
      </trkpt>
      <trkpt lat="49.02248" lon="0.11771">
        <ele>180.6</ele>
        <time>2024-03-20T15:00:30Z</time>
      </trkpt>
      <trkpt lat="49.02244" lon="0.11782">
        <ele>180.8</ele>
        <time>2024-03-20T15:00:31Z</time>
      </trkpt>
      <trkpt lat="49.02241" lon="0.11793">
        <ele>180.8</ele>
        <time>2024-03-20T15:00:32Z</time>
      </trkpt>
      <trkpt lat="49.02238" lon="0.11804">
        <ele>180.8</ele>
        <time>2024-03-20T15:00:33Z</time>
      </trkpt>
      <trkpt lat="49.02235" lon="0.11815">
        <ele>181</ele>
        <time>2024-03-20T15:00:34Z</time>
      </trkpt>
      <trkpt lat="49.02231" lon="0.11825">
        <ele>181</ele>
        <time>2024-03-20T15:00:35Z</time>
      </trkpt>
      <trkpt lat="49.02228" lon="0.11836">
        <ele>181</ele>
        <time>2024-03-20T15:00:36Z</time>
      </trkpt>
      <trkpt lat="49.02224" lon="0.11846">
        <ele>181</ele>
        <time>2024-03-20T15:00:37Z</time>
      </trkpt>
      <trkpt lat="49.0222" lon="0.11857">
        <ele>181.2</ele>
        <time>2024-03-20T15:00:38Z</time>
      </trkpt>
      <trkpt lat="49.02215" lon="0.11866">
        <ele>181.2</ele>
        <time>2024-03-20T15:00:39Z</time>
      </trkpt>
      <trkpt lat="49.0221" lon="0.11876">
        <ele>181.2</ele>
        <time>2024-03-20T15:00:40Z</time>
      </trkpt>
      <trkpt lat="49.02205" lon="0.11885">
        <ele>181.2</ele>
        <time>2024-03-20T15:00:41Z</time>
      </trkpt>
      <trkpt lat="49.022" lon="0.11894">
        <ele>181.2</ele>
        <time>2024-03-20T15:00:42Z</time>
      </trkpt>
      <trkpt lat="49.02195" lon="0.11902">
        <ele>181.2</ele>
        <time>2024-03-20T15:00:43Z</time>
      </trkpt>
      <trkpt lat="49.02189" lon="0.11911">
        <ele>181.2</ele>
        <time>2024-03-20T15:00:44Z</time>
      </trkpt>
      <trkpt lat="49.02184" lon="0.11918">
        <ele>181.2</ele>
        <time>2024-03-20T15:00:45Z</time>
      </trkpt>
      <trkpt lat="49.02178" lon="0.11926">
        <ele>181.2</ele>
        <time>2024-03-20T15:00:46Z</time>
      </trkpt>
      <trkpt lat="49.02172" lon="0.11934">
        <ele>181.2</ele>
        <time>2024-03-20T15:00:47Z</time>
      </trkpt>
      <trkpt lat="49.02165" lon="0.11942">
        <ele>181.2</ele>
        <time>2024-03-20T15:00:48Z</time>
      </trkpt>
      <trkpt lat="49.02159" lon="0.11949">
        <ele>181.2</ele>
        <time>2024-03-20T15:00:49Z</time>
      </trkpt>
      <trkpt lat="49.02153" lon="0.11956">
        <ele>181.2</ele>
        <time>2024-03-20T15:00:50Z</time>
      </trkpt>
      <trkpt lat="49.02146" lon="0.11964">
        <ele>181.2</ele>
        <time>2024-03-20T15:00:51Z</time>
      </trkpt>
      <trkpt lat="49.0214" lon="0.11971">
        <ele>181.2</ele>
        <time>2024-03-20T15:00:52Z</time>
      </trkpt>
      <trkpt lat="49.02134" lon="0.11978">
        <ele>181.2</ele>
        <time>2024-03-20T15:00:53Z</time>
      </trkpt>
      <trkpt lat="49.02128" lon="0.11985">
        <ele>181</ele>
        <time>2024-03-20T15:00:54Z</time>
      </trkpt>
      <trkpt lat="49.02121" lon="0.11993">
        <ele>181</ele>
        <time>2024-03-20T15:00:55Z</time>
      </trkpt>
      <trkpt lat="49.02115" lon="0.12">
        <ele>181</ele>
        <time>2024-03-20T15:00:56Z</time>
      </trkpt>
      <trkpt lat="49.02109" lon="0.12008">
        <ele>181</ele>
        <time>2024-03-20T15:00:57Z</time>
      </trkpt>
      <trkpt lat="49.02103" lon="0.12015">
        <ele>180.8</ele>
        <time>2024-03-20T15:00:58Z</time>
      </trkpt>
      <trkpt lat="49.02097" lon="0.12023">
        <ele>180.8</ele>
        <time>2024-03-20T15:00:59Z</time>
      </trkpt>
      <trkpt lat="49.02091" lon="0.1203">
        <ele>180.8</ele>
        <time>2024-03-20T15:01:00Z</time>
      </trkpt>
      <trkpt lat="49.02085" lon="0.12038">
        <ele>180.8</ele>
        <time>2024-03-20T15:01:01Z</time>
      </trkpt>
      <trkpt lat="49.02079" lon="0.12045">
        <ele>180.8</ele>
        <time>2024-03-20T15:01:02Z</time>
      </trkpt>
      <trkpt lat="49.02073" lon="0.12053">
        <ele>180.8</ele>
        <time>2024-03-20T15:01:03Z</time>
      </trkpt>
      <trkpt lat="49.02067" lon="0.1206">
        <ele>180.8</ele>
        <time>2024-03-20T15:01:04Z</time>
      </trkpt>
      <trkpt lat="49.02061" lon="0.12068">
        <ele>180.8</ele>
        <time>2024-03-20T15:01:05Z</time>
      </trkpt>
      <trkpt lat="49.02056" lon="0.12075">
        <ele>180.6</ele>
        <time>2024-03-20T15:01:06Z</time>
      </trkpt>
      <trkpt lat="49.0205" lon="0.12083">
        <ele>180.6</ele>
        <time>2024-03-20T15:01:07Z</time>
      </trkpt>
      <trkpt lat="49.02044" lon="0.12091">
        <ele>180.6</ele>
        <time>2024-03-20T15:01:08Z</time>
      </trkpt>
      <trkpt lat="49.02038" lon="0.121">
        <ele>180.6</ele>
        <time>2024-03-20T15:01:09Z</time>
      </trkpt>
      <trkpt lat="49.02033" lon="0.12108">
        <ele>180.6</ele>
        <time>2024-03-20T15:01:10Z</time>
      </trkpt>
      <trkpt lat="49.02027" lon="0.12116">
        <ele>180.4</ele>
        <time>2024-03-20T15:01:11Z</time>
      </trkpt>
      <trkpt lat="49.02021" lon="0.12124">
        <ele>180.4</ele>
        <time>2024-03-20T15:01:12Z</time>
      </trkpt>
      <trkpt lat="49.02016" lon="0.12132">
        <ele>180.4</ele>
        <time>2024-03-20T15:01:13Z</time>
      </trkpt>
      <trkpt lat="49.02011" lon="0.12141">
        <ele>180.4</ele>
        <time>2024-03-20T15:01:14Z</time>
      </trkpt>
      <trkpt lat="49.02006" lon="0.1215">
        <ele>180.4</ele>
        <time>2024-03-20T15:01:15Z</time>
      </trkpt>
      <trkpt lat="49.02001" lon="0.12158">
        <ele>180.4</ele>
        <time>2024-03-20T15:01:16Z</time>
      </trkpt>
      <trkpt lat="49.01995" lon="0.12168">
        <ele>180.4</ele>
        <time>2024-03-20T15:01:17Z</time>
      </trkpt>
      <trkpt lat="49.0199" lon="0.12177">
        <ele>180.4</ele>
        <time>2024-03-20T15:01:18Z</time>
      </trkpt>
      <trkpt lat="49.01985" lon="0.12185">
        <ele>180.4</ele>
        <time>2024-03-20T15:01:19Z</time>
      </trkpt>
      <trkpt lat="49.0198" lon="0.12194">
        <ele>180.6</ele>
        <time>2024-03-20T15:01:20Z</time>
      </trkpt>
      <trkpt lat="49.01975" lon="0.12203">
        <ele>180.6</ele>
        <time>2024-03-20T15:01:21Z</time>
      </trkpt>
      <trkpt lat="49.01969" lon="0.12211">
        <ele>180.6</ele>
        <time>2024-03-20T15:01:22Z</time>
      </trkpt>
      <trkpt lat="49.01964" lon="0.1222">
        <ele>180.8</ele>
        <time>2024-03-20T15:01:23Z</time>
      </trkpt>
      <trkpt lat="49.01959" lon="0.1223">
        <ele>181</ele>
        <time>2024-03-20T15:01:24Z</time>
      </trkpt>
      <trkpt lat="49.01954" lon="0.12239">
        <ele>181.2</ele>
        <time>2024-03-20T15:01:25Z</time>
      </trkpt>
      <trkpt lat="49.01949" lon="0.12247">
        <ele>181.4</ele>
        <time>2024-03-20T15:01:26Z</time>
      </trkpt>
      <trkpt lat="49.01944" lon="0.12256">
        <ele>181.4</ele>
        <time>2024-03-20T15:01:27Z</time>
      </trkpt>
      <trkpt lat="49.01939" lon="0.12265">
        <ele>181.6</ele>
        <time>2024-03-20T15:01:28Z</time>
      </trkpt>
      <trkpt lat="49.01933" lon="0.12274">
        <ele>181.8</ele>
        <time>2024-03-20T15:01:29Z</time>
      </trkpt>
      <trkpt lat="49.01928" lon="0.12283">
        <ele>182</ele>
        <time>2024-03-20T15:01:30Z</time>
      </trkpt>
      <trkpt lat="49.01922" lon="0.12292">
        <ele>182.2</ele>
        <time>2024-03-20T15:01:31Z</time>
      </trkpt>
      <trkpt lat="49.01917" lon="0.12301">
        <ele>182.2</ele>
        <time>2024-03-20T15:01:32Z</time>
      </trkpt>
      <trkpt lat="49.01912" lon="0.1231">
        <ele>182.4</ele>
        <time>2024-03-20T15:01:33Z</time>
      </trkpt>
      <trkpt lat="49.01907" lon="0.12319">
        <ele>182.4</ele>
        <time>2024-03-20T15:01:34Z</time>
      </trkpt>
      <trkpt lat="49.01902" lon="0.12327">
        <ele>182.6</ele>
        <time>2024-03-20T15:01:35Z</time>
      </trkpt>
      <trkpt lat="49.01897" lon="0.12336">
        <ele>182.6</ele>
        <time>2024-03-20T15:01:36Z</time>
      </trkpt>
      <trkpt lat="49.01891" lon="0.12345">
        <ele>182.6</ele>
        <time>2024-03-20T15:01:37Z</time>
      </trkpt>
      <trkpt lat="49.01886" lon="0.12354">
        <ele>182.8</ele>
        <time>2024-03-20T15:01:38Z</time>
      </trkpt>
      <trkpt lat="49.01882" lon="0.12363">
        <ele>182.8</ele>
        <time>2024-03-20T15:01:39Z</time>
      </trkpt>
      <trkpt lat="49.01876" lon="0.12371">
        <ele>182.8</ele>
        <time>2024-03-20T15:01:40Z</time>
      </trkpt>
      <trkpt lat="49.01871" lon="0.1238">
        <ele>182.8</ele>
        <time>2024-03-20T15:01:41Z</time>
      </trkpt>
      <trkpt lat="49.01866" lon="0.12388">
        <ele>182.8</ele>
        <time>2024-03-20T15:01:42Z</time>
      </trkpt>
      <trkpt lat="49.0186" lon="0.12396">
        <ele>182.8</ele>
        <time>2024-03-20T15:01:43Z</time>
      </trkpt>
      <trkpt lat="49.01854" lon="0.12404">
        <ele>182.8</ele>
        <time>2024-03-20T15:01:44Z</time>
      </trkpt>
      <trkpt lat="49.01848" lon="0.12411">
        <ele>182.8</ele>
        <time>2024-03-20T15:01:45Z</time>
      </trkpt>
      <trkpt lat="49.01842" lon="0.12418">
        <ele>182.8</ele>
        <time>2024-03-20T15:01:46Z</time>
      </trkpt>
      <trkpt lat="49.01835" lon="0.12425">
        <ele>182.8</ele>
        <time>2024-03-20T15:01:47Z</time>
      </trkpt>
      <trkpt lat="49.01829" lon="0.12431">
        <ele>182.8</ele>
        <time>2024-03-20T15:01:48Z</time>
      </trkpt>
      <trkpt lat="49.01822" lon="0.12437">
        <ele>182.8</ele>
        <time>2024-03-20T15:01:49Z</time>
      </trkpt>
      <trkpt lat="49.01816" lon="0.12443">
        <ele>182.8</ele>
        <time>2024-03-20T15:01:50Z</time>
      </trkpt>
      <trkpt lat="49.01809" lon="0.12449">
        <ele>182.8</ele>
        <time>2024-03-20T15:01:51Z</time>
      </trkpt>
      <trkpt lat="49.01802" lon="0.12455">
        <ele>182.6</ele>
        <time>2024-03-20T15:01:52Z</time>
      </trkpt>
      <trkpt lat="49.01795" lon="0.12461">
        <ele>182.6</ele>
        <time>2024-03-20T15:01:53Z</time>
      </trkpt>
      <trkpt lat="49.01789" lon="0.12467">
        <ele>182.6</ele>
        <time>2024-03-20T15:01:54Z</time>
      </trkpt>
      <trkpt lat="49.01782" lon="0.12473">
        <ele>182.6</ele>
        <time>2024-03-20T15:01:55Z</time>
      </trkpt>
      <trkpt lat="49.01775" lon="0.12479">
        <ele>182.6</ele>
        <time>2024-03-20T15:01:56Z</time>
      </trkpt>
      <trkpt lat="49.01769" lon="0.12486">
        <ele>182.8</ele>
        <time>2024-03-20T15:01:57Z</time>
      </trkpt>
      <trkpt lat="49.01762" lon="0.12493">
        <ele>182.8</ele>
        <time>2024-03-20T15:01:58Z</time>
      </trkpt>
      <trkpt lat="49.01756" lon="0.12499">
        <ele>182.8</ele>
        <time>2024-03-20T15:01:59Z</time>
      </trkpt>
      <trkpt lat="49.0175" lon="0.12506">
        <ele>182.8</ele>
        <time>2024-03-20T15:02:00Z</time>
      </trkpt>
      <trkpt lat="49.01744" lon="0.12513">
        <ele>182.8</ele>
        <time>2024-03-20T15:02:01Z</time>
      </trkpt>
      <trkpt lat="49.01738" lon="0.12521">
        <ele>182.8</ele>
        <time>2024-03-20T15:02:02Z</time>
      </trkpt>
      <trkpt lat="49.01733" lon="0.12528">
        <ele>183</ele>
        <time>2024-03-20T15:02:03Z</time>
      </trkpt>
      <trkpt lat="49.01728" lon="0.12536">
        <ele>183</ele>
        <time>2024-03-20T15:02:04Z</time>
      </trkpt>
      <trkpt lat="49.01723" lon="0.12544">
        <ele>183</ele>
        <time>2024-03-20T15:02:05Z</time>
      </trkpt>
      <trkpt lat="49.01718" lon="0.12551">
        <ele>183.2</ele>
        <time>2024-03-20T15:02:06Z</time>
      </trkpt>
      <trkpt lat="49.01713" lon="0.12558">
        <ele>183.2</ele>
        <time>2024-03-20T15:02:07Z</time>
      </trkpt>
      <trkpt lat="49.01709" lon="0.12565">
        <ele>183.2</ele>
        <time>2024-03-20T15:02:08Z</time>
      </trkpt>
      <trkpt lat="49.01705" lon="0.12572">
        <ele>183.2</ele>
        <time>2024-03-20T15:02:09Z</time>
      </trkpt>
      <trkpt lat="49.01701" lon="0.12579">
        <ele>183.2</ele>
        <time>2024-03-20T15:02:10Z</time>
      </trkpt>
      <trkpt lat="49.01698" lon="0.12586">
        <ele>183.4</ele>
        <time>2024-03-20T15:02:11Z</time>
      </trkpt>
      <trkpt lat="49.01695" lon="0.12593">
        <ele>183.4</ele>
        <time>2024-03-20T15:02:12Z</time>
      </trkpt>
      <trkpt lat="49.01692" lon="0.12601">
        <ele>183.4</ele>
        <time>2024-03-20T15:02:13Z</time>
      </trkpt>
      <trkpt lat="49.01688" lon="0.12609">
        <ele>183.4</ele>
        <time>2024-03-20T15:02:14Z</time>
      </trkpt>
      <trkpt lat="49.01685" lon="0.12618">
        <ele>183.4</ele>
        <time>2024-03-20T15:02:15Z</time>
      </trkpt>
      <trkpt lat="49.0168" lon="0.12627">
        <ele>183.4</ele>
        <time>2024-03-20T15:02:16Z</time>
      </trkpt>
      <trkpt lat="49.01676" lon="0.12637">
        <ele>183.4</ele>
        <time>2024-03-20T15:02:17Z</time>
      </trkpt>
      <trkpt lat="49.01671" lon="0.12647">
        <ele>183.4</ele>
        <time>2024-03-20T15:02:18Z</time>
      </trkpt>
      <trkpt lat="49.01666" lon="0.12656">
        <ele>183.2</ele>
        <time>2024-03-20T15:02:19Z</time>
      </trkpt>
      <trkpt lat="49.01661" lon="0.12665">
        <ele>183.2</ele>
        <time>2024-03-20T15:02:20Z</time>
      </trkpt>
      <trkpt lat="49.01655" lon="0.12673">
        <ele>183.2</ele>
        <time>2024-03-20T15:02:21Z</time>
      </trkpt>
      <trkpt lat="49.01649" lon="0.12681">
        <ele>183.2</ele>
        <time>2024-03-20T15:02:22Z</time>
      </trkpt>
      <trkpt lat="49.01643" lon="0.12688">
        <ele>183</ele>
        <time>2024-03-20T15:02:23Z</time>
      </trkpt>
      <trkpt lat="49.01636" lon="0.12694">
        <ele>182.6</ele>
        <time>2024-03-20T15:02:24Z</time>
      </trkpt>
      <trkpt lat="49.01629" lon="0.12698">
        <ele>182.4</ele>
        <time>2024-03-20T15:02:25Z</time>
      </trkpt>
      <trkpt lat="49.01622" lon="0.12702">
        <ele>182.4</ele>
        <time>2024-03-20T15:02:26Z</time>
      </trkpt>
      <trkpt lat="49.01615" lon="0.12705">
        <ele>182.4</ele>
        <time>2024-03-20T15:02:27Z</time>
      </trkpt>
      <trkpt lat="49.01607" lon="0.12709">
        <ele>182.4</ele>
        <time>2024-03-20T15:02:28Z</time>
      </trkpt>
      <trkpt lat="49.016" lon="0.12712">
        <ele>182.4</ele>
        <time>2024-03-20T15:02:29Z</time>
      </trkpt>
      <trkpt lat="49.01593" lon="0.12715">
        <ele>182.2</ele>
        <time>2024-03-20T15:02:30Z</time>
      </trkpt>
      <trkpt lat="49.01585" lon="0.12718">
        <ele>182.2</ele>
        <time>2024-03-20T15:02:31Z</time>
      </trkpt>
      <trkpt lat="49.01577" lon="0.12721">
        <ele>182.2</ele>
        <time>2024-03-20T15:02:32Z</time>
      </trkpt>
      <trkpt lat="49.0157" lon="0.12724">
        <ele>182.2</ele>
        <time>2024-03-20T15:02:33Z</time>
      </trkpt>
      <trkpt lat="49.01562" lon="0.12728">
        <ele>182.2</ele>
        <time>2024-03-20T15:02:34Z</time>
      </trkpt>
      <trkpt lat="49.01554" lon="0.12731">
        <ele>182.2</ele>
        <time>2024-03-20T15:02:35Z</time>
      </trkpt>
      <trkpt lat="49.01547" lon="0.12735">
        <ele>182.2</ele>
        <time>2024-03-20T15:02:36Z</time>
      </trkpt>
      <trkpt lat="49.01539" lon="0.1274">
        <ele>182.2</ele>
        <time>2024-03-20T15:02:37Z</time>
      </trkpt>
      <trkpt lat="49.01531" lon="0.12744">
        <ele>182.2</ele>
        <time>2024-03-20T15:02:38Z</time>
      </trkpt>
      <trkpt lat="49.01524" lon="0.12748">
        <ele>182.4</ele>
        <time>2024-03-20T15:02:39Z</time>
      </trkpt>
      <trkpt lat="49.01516" lon="0.12753">
        <ele>182.4</ele>
        <time>2024-03-20T15:02:40Z</time>
      </trkpt>
      <trkpt lat="49.01508" lon="0.12757">
        <ele>182.6</ele>
        <time>2024-03-20T15:02:41Z</time>
      </trkpt>
      <trkpt lat="49.01501" lon="0.12762">
        <ele>182.6</ele>
        <time>2024-03-20T15:02:42Z</time>
      </trkpt>
      <trkpt lat="49.01494" lon="0.12767">
        <ele>182.6</ele>
        <time>2024-03-20T15:02:43Z</time>
      </trkpt>
      <trkpt lat="49.01487" lon="0.12772">
        <ele>182.6</ele>
        <time>2024-03-20T15:02:44Z</time>
      </trkpt>
      <trkpt lat="49.0148" lon="0.12777">
        <ele>182.6</ele>
        <time>2024-03-20T15:02:45Z</time>
      </trkpt>
      <trkpt lat="49.01473" lon="0.12783">
        <ele>182.6</ele>
        <time>2024-03-20T15:02:46Z</time>
      </trkpt>
      <trkpt lat="49.01467" lon="0.12788">
        <ele>182.6</ele>
        <time>2024-03-20T15:02:47Z</time>
      </trkpt>
      <trkpt lat="49.0146" lon="0.12794">
        <ele>182.6</ele>
        <time>2024-03-20T15:02:48Z</time>
      </trkpt>
      <trkpt lat="49.01453" lon="0.12799">
        <ele>182.6</ele>
        <time>2024-03-20T15:02:49Z</time>
      </trkpt>
      <trkpt lat="49.01447" lon="0.12805">
        <ele>182.6</ele>
        <time>2024-03-20T15:02:50Z</time>
      </trkpt>
      <trkpt lat="49.0144" lon="0.12811">
        <ele>182.6</ele>
        <time>2024-03-20T15:02:51Z</time>
      </trkpt>
      <trkpt lat="49.01434" lon="0.12817">
        <ele>182.6</ele>
        <time>2024-03-20T15:02:52Z</time>
      </trkpt>
      <trkpt lat="49.01428" lon="0.12822">
        <ele>182.6</ele>
        <time>2024-03-20T15:02:53Z</time>
      </trkpt>
      <trkpt lat="49.01421" lon="0.12828">
        <ele>182.4</ele>
        <time>2024-03-20T15:02:54Z</time>
      </trkpt>
      <trkpt lat="49.01415" lon="0.12833">
        <ele>182.2</ele>
        <time>2024-03-20T15:02:55Z</time>
      </trkpt>
      <trkpt lat="49.01408" lon="0.12839">
        <ele>182</ele>
        <time>2024-03-20T15:02:56Z</time>
      </trkpt>
      <trkpt lat="49.01402" lon="0.12844">
        <ele>181.8</ele>
        <time>2024-03-20T15:02:57Z</time>
      </trkpt>
      <trkpt lat="49.01396" lon="0.1285">
        <ele>181.8</ele>
        <time>2024-03-20T15:02:58Z</time>
      </trkpt>
      <trkpt lat="49.0139" lon="0.12855">
        <ele>181.8</ele>
        <time>2024-03-20T15:02:59Z</time>
      </trkpt>
      <trkpt lat="49.01384" lon="0.1286">
        <ele>181.8</ele>
        <time>2024-03-20T15:03:00Z</time>
      </trkpt>
      <trkpt lat="49.01378" lon="0.12865">
        <ele>181.6</ele>
        <time>2024-03-20T15:03:01Z</time>
      </trkpt>
      <trkpt lat="49.01371" lon="0.1287">
        <ele>181.4</ele>
        <time>2024-03-20T15:03:02Z</time>
      </trkpt>
      <trkpt lat="49.01365" lon="0.12874">
        <ele>181.4</ele>
        <time>2024-03-20T15:03:03Z</time>
      </trkpt>
      <trkpt lat="49.01358" lon="0.12876">
        <ele>181.2</ele>
        <time>2024-03-20T15:03:04Z</time>
      </trkpt>
      <trkpt lat="49.01351" lon="0.12876">
        <ele>181.2</ele>
        <time>2024-03-20T15:03:05Z</time>
      </trkpt>
      <trkpt lat="49.01344" lon="0.12874">
        <ele>181.2</ele>
        <time>2024-03-20T15:03:06Z</time>
      </trkpt>
      <trkpt lat="49.01338" lon="0.1287">
        <ele>181.2</ele>
        <time>2024-03-20T15:03:07Z</time>
      </trkpt>
      <trkpt lat="49.01331" lon="0.12865">
        <ele>181.2</ele>
        <time>2024-03-20T15:03:08Z</time>
      </trkpt>
      <trkpt lat="49.01325" lon="0.1286">
        <ele>181.2</ele>
        <time>2024-03-20T15:03:09Z</time>
      </trkpt>
      <trkpt lat="49.01318" lon="0.12855">
        <ele>181.2</ele>
        <time>2024-03-20T15:03:10Z</time>
      </trkpt>
      <trkpt lat="49.01312" lon="0.12849">
        <ele>181.2</ele>
        <time>2024-03-20T15:03:11Z</time>
      </trkpt>
      <trkpt lat="49.01306" lon="0.12844">
        <ele>181.2</ele>
        <time>2024-03-20T15:03:12Z</time>
      </trkpt>
      <trkpt lat="49.01299" lon="0.1284">
        <ele>181.2</ele>
        <time>2024-03-20T15:03:13Z</time>
      </trkpt>
      <trkpt lat="49.01293" lon="0.12837">
        <ele>181.2</ele>
        <time>2024-03-20T15:03:14Z</time>
      </trkpt>
      <trkpt lat="49.01286" lon="0.12836">
        <ele>181.2</ele>
        <time>2024-03-20T15:03:15Z</time>
      </trkpt>
      <trkpt lat="49.01278" lon="0.12836">
        <ele>181.2</ele>
        <time>2024-03-20T15:03:16Z</time>
      </trkpt>
      <trkpt lat="49.01271" lon="0.12837">
        <ele>181.2</ele>
        <time>2024-03-20T15:03:17Z</time>
      </trkpt>
      <trkpt lat="49.01263" lon="0.12838">
        <ele>181.4</ele>
        <time>2024-03-20T15:03:18Z</time>
      </trkpt>
      <trkpt lat="49.01256" lon="0.12839">
        <ele>181.4</ele>
        <time>2024-03-20T15:03:19Z</time>
      </trkpt>
      <trkpt lat="49.01248" lon="0.12841">
        <ele>181.4</ele>
        <time>2024-03-20T15:03:20Z</time>
      </trkpt>
      <trkpt lat="49.01241" lon="0.12842">
        <ele>181.6</ele>
        <time>2024-03-20T15:03:21Z</time>
      </trkpt>
      <trkpt lat="49.01233" lon="0.12843">
        <ele>181.6</ele>
        <time>2024-03-20T15:03:22Z</time>
      </trkpt>
      <trkpt lat="49.01226" lon="0.12844">
        <ele>181.6</ele>
        <time>2024-03-20T15:03:23Z</time>
      </trkpt>
      <trkpt lat="49.01218" lon="0.12845">
        <ele>181.8</ele>
        <time>2024-03-20T15:03:24Z</time>
      </trkpt>
      <trkpt lat="49.01211" lon="0.12846">
        <ele>181.8</ele>
        <time>2024-03-20T15:03:25Z</time>
      </trkpt>
      <trkpt lat="49.01204" lon="0.12847">
        <ele>182</ele>
        <time>2024-03-20T15:03:26Z</time>
      </trkpt>
      <trkpt lat="49.01197" lon="0.12848">
        <ele>182</ele>
        <time>2024-03-20T15:03:27Z</time>
      </trkpt>
      <trkpt lat="49.0119" lon="0.12849">
        <ele>182</ele>
        <time>2024-03-20T15:03:28Z</time>
      </trkpt>
      <trkpt lat="49.01183" lon="0.12849">
        <ele>182</ele>
        <time>2024-03-20T15:03:29Z</time>
      </trkpt>
      <trkpt lat="49.01176" lon="0.1285">
        <ele>182</ele>
        <time>2024-03-20T15:03:30Z</time>
      </trkpt>
      <trkpt lat="49.01169" lon="0.1285">
        <ele>182</ele>
        <time>2024-03-20T15:03:31Z</time>
      </trkpt>
      <trkpt lat="49.01162" lon="0.1285">
        <ele>182</ele>
        <time>2024-03-20T15:03:32Z</time>
      </trkpt>
      <trkpt lat="49.01155" lon="0.12848">
        <ele>182</ele>
        <time>2024-03-20T15:03:33Z</time>
      </trkpt>
      <trkpt lat="49.01149" lon="0.12846">
        <ele>182</ele>
        <time>2024-03-20T15:03:34Z</time>
      </trkpt>
      <trkpt lat="49.01142" lon="0.12842">
        <ele>182</ele>
        <time>2024-03-20T15:03:35Z</time>
      </trkpt>
      <trkpt lat="49.01135" lon="0.12836">
        <ele>182.2</ele>
        <time>2024-03-20T15:03:36Z</time>
      </trkpt>
      <trkpt lat="49.01129" lon="0.12829">
        <ele>182.2</ele>
        <time>2024-03-20T15:03:37Z</time>
      </trkpt>
      <trkpt lat="49.01124" lon="0.12819">
        <ele>182.2</ele>
        <time>2024-03-20T15:03:38Z</time>
      </trkpt>
      <trkpt lat="49.0112" lon="0.12808">
        <ele>182.2</ele>
        <time>2024-03-20T15:03:39Z</time>
      </trkpt>
      <trkpt lat="49.01118" lon="0.12797">
        <ele>182.2</ele>
        <time>2024-03-20T15:03:40Z</time>
      </trkpt>
      <trkpt lat="49.01117" lon="0.12785">
        <ele>182.2</ele>
        <time>2024-03-20T15:03:41Z</time>
      </trkpt>
      <trkpt lat="49.01116" lon="0.12773">
        <ele>182.2</ele>
        <time>2024-03-20T15:03:42Z</time>
      </trkpt>
      <trkpt lat="49.01116" lon="0.12762">
        <ele>182.2</ele>
        <time>2024-03-20T15:03:43Z</time>
      </trkpt>
      <trkpt lat="49.01115" lon="0.12751">
        <ele>182.2</ele>
        <time>2024-03-20T15:03:44Z</time>
      </trkpt>
      <trkpt lat="49.01114" lon="0.1274">
        <ele>182.2</ele>
        <time>2024-03-20T15:03:45Z</time>
      </trkpt>
      <trkpt lat="49.01113" lon="0.12728">
        <ele>182.2</ele>
        <time>2024-03-20T15:03:46Z</time>
      </trkpt>
      <trkpt lat="49.01112" lon="0.12717">
        <ele>182.2</ele>
        <time>2024-03-20T15:03:47Z</time>
      </trkpt>
      <trkpt lat="49.01111" lon="0.12706">
        <ele>182.2</ele>
        <time>2024-03-20T15:03:48Z</time>
      </trkpt>
      <trkpt lat="49.0111" lon="0.12694">
        <ele>182.4</ele>
        <time>2024-03-20T15:03:49Z</time>
      </trkpt>
      <trkpt lat="49.01109" lon="0.12684">
        <ele>182.4</ele>
        <time>2024-03-20T15:03:50Z</time>
      </trkpt>
      <trkpt lat="49.01108" lon="0.12673">
        <ele>182.6</ele>
        <time>2024-03-20T15:03:51Z</time>
      </trkpt>
      <trkpt lat="49.01108" lon="0.12662">
        <ele>182.8</ele>
        <time>2024-03-20T15:03:52Z</time>
      </trkpt>
      <trkpt lat="49.01107" lon="0.12651">
        <ele>183</ele>
        <time>2024-03-20T15:03:53Z</time>
      </trkpt>
      <trkpt lat="49.01106" lon="0.1264">
        <ele>183</ele>
        <time>2024-03-20T15:03:54Z</time>
      </trkpt>
      <trkpt lat="49.01106" lon="0.1263">
        <ele>183.2</ele>
        <time>2024-03-20T15:03:55Z</time>
      </trkpt>
      <trkpt lat="49.01106" lon="0.12619">
        <ele>183.4</ele>
        <time>2024-03-20T15:03:56Z</time>
      </trkpt>
      <trkpt lat="49.01105" lon="0.12609">
        <ele>183.4</ele>
        <time>2024-03-20T15:03:57Z</time>
      </trkpt>
      <trkpt lat="49.01105" lon="0.12598">
        <ele>183.6</ele>
        <time>2024-03-20T15:03:58Z</time>
      </trkpt>
      <trkpt lat="49.01104" lon="0.12587">
        <ele>183.8</ele>
        <time>2024-03-20T15:03:59Z</time>
      </trkpt>
      <trkpt lat="49.01104" lon="0.12577">
        <ele>184.2</ele>
        <time>2024-03-20T15:04:00Z</time>
      </trkpt>
      <trkpt lat="49.01104" lon="0.12566">
        <ele>184.4</ele>
        <time>2024-03-20T15:04:01Z</time>
      </trkpt>
      <trkpt lat="49.01104" lon="0.12556">
        <ele>184.6</ele>
        <time>2024-03-20T15:04:02Z</time>
      </trkpt>
      <trkpt lat="49.01104" lon="0.12546">
        <ele>184.8</ele>
        <time>2024-03-20T15:04:03Z</time>
      </trkpt>
      <trkpt lat="49.01105" lon="0.12536">
        <ele>185</ele>
        <time>2024-03-20T15:04:04Z</time>
      </trkpt>
      <trkpt lat="49.01105" lon="0.12526">
        <ele>185.2</ele>
        <time>2024-03-20T15:04:05Z</time>
      </trkpt>
      <trkpt lat="49.01104" lon="0.12516">
        <ele>185.4</ele>
        <time>2024-03-20T15:04:06Z</time>
      </trkpt>
      <trkpt lat="49.01103" lon="0.12507">
        <ele>185.4</ele>
        <time>2024-03-20T15:04:07Z</time>
      </trkpt>
      <trkpt lat="49.01101" lon="0.12497">
        <ele>185.6</ele>
        <time>2024-03-20T15:04:08Z</time>
      </trkpt>
      <trkpt lat="49.01098" lon="0.12489">
        <ele>185.6</ele>
        <time>2024-03-20T15:04:09Z</time>
      </trkpt>
      <trkpt lat="49.01094" lon="0.1248">
        <ele>185.8</ele>
        <time>2024-03-20T15:04:10Z</time>
      </trkpt>
      <trkpt lat="49.01089" lon="0.12473">
        <ele>185.8</ele>
        <time>2024-03-20T15:04:11Z</time>
      </trkpt>
      <trkpt lat="49.01084" lon="0.12467">
        <ele>186</ele>
        <time>2024-03-20T15:04:12Z</time>
      </trkpt>
      <trkpt lat="49.01078" lon="0.12461">
        <ele>186</ele>
        <time>2024-03-20T15:04:13Z</time>
      </trkpt>
      <trkpt lat="49.01073" lon="0.12455">
        <ele>186</ele>
        <time>2024-03-20T15:04:14Z</time>
      </trkpt>
      <trkpt lat="49.01068" lon="0.12449">
        <ele>186.2</ele>
        <time>2024-03-20T15:04:15Z</time>
      </trkpt>
      <trkpt lat="49.01062" lon="0.12443">
        <ele>186.2</ele>
        <time>2024-03-20T15:04:16Z</time>
      </trkpt>
      <trkpt lat="49.01056" lon="0.12436">
        <ele>186.4</ele>
        <time>2024-03-20T15:04:17Z</time>
      </trkpt>
      <trkpt lat="49.0105" lon="0.12429">
        <ele>186.4</ele>
        <time>2024-03-20T15:04:18Z</time>
      </trkpt>
      <trkpt lat="49.01044" lon="0.12422">
        <ele>186.4</ele>
        <time>2024-03-20T15:04:19Z</time>
      </trkpt>
      <trkpt lat="49.01039" lon="0.12415">
        <ele>186.4</ele>
        <time>2024-03-20T15:04:20Z</time>
      </trkpt>
      <trkpt lat="49.01033" lon="0.12408">
        <ele>186.6</ele>
        <time>2024-03-20T15:04:21Z</time>
      </trkpt>
      <trkpt lat="49.01027" lon="0.12402">
        <ele>186.6</ele>
        <time>2024-03-20T15:04:22Z</time>
      </trkpt>
      <trkpt lat="49.01021" lon="0.12395">
        <ele>186.6</ele>
        <time>2024-03-20T15:04:23Z</time>
      </trkpt>
      <trkpt lat="49.01016" lon="0.12388">
        <ele>186.6</ele>
        <time>2024-03-20T15:04:24Z</time>
      </trkpt>
      <trkpt lat="49.0101" lon="0.12382">
        <ele>186.8</ele>
        <time>2024-03-20T15:04:25Z</time>
      </trkpt>
      <trkpt lat="49.01005" lon="0.12374">
        <ele>186.8</ele>
        <time>2024-03-20T15:04:26Z</time>
      </trkpt>
      <trkpt lat="49.01" lon="0.12367">
        <ele>186.8</ele>
        <time>2024-03-20T15:04:27Z</time>
      </trkpt>
      <trkpt lat="49.00995" lon="0.1236">
        <ele>186.8</ele>
        <time>2024-03-20T15:04:28Z</time>
      </trkpt>
      <trkpt lat="49.0099" lon="0.12352">
        <ele>186.8</ele>
        <time>2024-03-20T15:04:29Z</time>
      </trkpt>
      <trkpt lat="49.00985" lon="0.12344">
        <ele>186.8</ele>
        <time>2024-03-20T15:04:30Z</time>
      </trkpt>
      <trkpt lat="49.0098" lon="0.12337">
        <ele>187</ele>
        <time>2024-03-20T15:04:31Z</time>
      </trkpt>
      <trkpt lat="49.00976" lon="0.12329">
        <ele>187</ele>
        <time>2024-03-20T15:04:32Z</time>
      </trkpt>
      <trkpt lat="49.00971" lon="0.12321">
        <ele>187</ele>
        <time>2024-03-20T15:04:33Z</time>
      </trkpt>
      <trkpt lat="49.00966" lon="0.12313">
        <ele>187</ele>
        <time>2024-03-20T15:04:34Z</time>
      </trkpt>
      <trkpt lat="49.00961" lon="0.12305">
        <ele>187</ele>
        <time>2024-03-20T15:04:35Z</time>
      </trkpt>
      <trkpt lat="49.00956" lon="0.12297">
        <ele>187</ele>
        <time>2024-03-20T15:04:36Z</time>
      </trkpt>
      <trkpt lat="49.00951" lon="0.12289">
        <ele>187</ele>
        <time>2024-03-20T15:04:37Z</time>
      </trkpt>
      <trkpt lat="49.00945" lon="0.12281">
        <ele>187.2</ele>
        <time>2024-03-20T15:04:38Z</time>
      </trkpt>
      <trkpt lat="49.0094" lon="0.12273">
        <ele>187.2</ele>
        <time>2024-03-20T15:04:39Z</time>
      </trkpt>
      <trkpt lat="49.00934" lon="0.12266">
        <ele>187</ele>
        <time>2024-03-20T15:04:40Z</time>
      </trkpt>
      <trkpt lat="49.00929" lon="0.12258">
        <ele>187</ele>
        <time>2024-03-20T15:04:41Z</time>
      </trkpt>
      <trkpt lat="49.00923" lon="0.12251">
        <ele>187</ele>
        <time>2024-03-20T15:04:42Z</time>
      </trkpt>
      <trkpt lat="49.00917" lon="0.12243">
        <ele>187</ele>
        <time>2024-03-20T15:04:43Z</time>
      </trkpt>
      <trkpt lat="49.00911" lon="0.12236">
        <ele>187</ele>
        <time>2024-03-20T15:04:44Z</time>
      </trkpt>
      <trkpt lat="49.00906" lon="0.12229">
        <ele>187</ele>
        <time>2024-03-20T15:04:45Z</time>
      </trkpt>
      <trkpt lat="49.009" lon="0.12222">
        <ele>187</ele>
        <time>2024-03-20T15:04:46Z</time>
      </trkpt>
      <trkpt lat="49.00894" lon="0.12215">
        <ele>187</ele>
        <time>2024-03-20T15:04:47Z</time>
      </trkpt>
      <trkpt lat="49.00888" lon="0.12208">
        <ele>187</ele>
        <time>2024-03-20T15:04:48Z</time>
      </trkpt>
      <trkpt lat="49.00882" lon="0.12202">
        <ele>186.8</ele>
        <time>2024-03-20T15:04:49Z</time>
      </trkpt>
      <trkpt lat="49.00876" lon="0.12196">
        <ele>186.8</ele>
        <time>2024-03-20T15:04:50Z</time>
      </trkpt>
      <trkpt lat="49.0087" lon="0.1219">
        <ele>186.8</ele>
        <time>2024-03-20T15:04:51Z</time>
      </trkpt>
      <trkpt lat="49.00864" lon="0.12185">
        <ele>186.8</ele>
        <time>2024-03-20T15:04:52Z</time>
      </trkpt>
      <trkpt lat="49.00857" lon="0.1218">
        <ele>186.8</ele>
        <time>2024-03-20T15:04:53Z</time>
      </trkpt>
      <trkpt lat="49.00851" lon="0.12175">
        <ele>186.8</ele>
        <time>2024-03-20T15:04:54Z</time>
      </trkpt>
      <trkpt lat="49.00844" lon="0.1217">
        <ele>186.8</ele>
        <time>2024-03-20T15:04:55Z</time>
      </trkpt>
      <trkpt lat="49.00837" lon="0.12165">
        <ele>186.8</ele>
        <time>2024-03-20T15:04:56Z</time>
      </trkpt>
      <trkpt lat="49.00831" lon="0.12159">
        <ele>186.8</ele>
        <time>2024-03-20T15:04:57Z</time>
      </trkpt>
      <trkpt lat="49.00824" lon="0.12153">
        <ele>186.8</ele>
        <time>2024-03-20T15:04:58Z</time>
      </trkpt>
      <trkpt lat="49.00818" lon="0.12146">
        <ele>186.8</ele>
        <time>2024-03-20T15:04:59Z</time>
      </trkpt>
      <trkpt lat="49.00811" lon="0.12139">
        <ele>186.8</ele>
        <time>2024-03-20T15:05:00Z</time>
      </trkpt>
      <trkpt lat="49.00805" lon="0.12132">
        <ele>186.8</ele>
        <time>2024-03-20T15:05:01Z</time>
      </trkpt>
      <trkpt lat="49.00798" lon="0.12125">
        <ele>186.8</ele>
        <time>2024-03-20T15:05:02Z</time>
      </trkpt>
      <trkpt lat="49.00792" lon="0.12117">
        <ele>186.8</ele>
        <time>2024-03-20T15:05:03Z</time>
      </trkpt>
      <trkpt lat="49.00786" lon="0.12109">
        <ele>186.8</ele>
        <time>2024-03-20T15:05:04Z</time>
      </trkpt>
      <trkpt lat="49.0078" lon="0.12102">
        <ele>186.8</ele>
        <time>2024-03-20T15:05:05Z</time>
      </trkpt>
      <trkpt lat="49.00773" lon="0.12095">
        <ele>187</ele>
        <time>2024-03-20T15:05:06Z</time>
      </trkpt>
      <trkpt lat="49.00766" lon="0.12087">
        <ele>187</ele>
        <time>2024-03-20T15:05:07Z</time>
      </trkpt>
      <trkpt lat="49.0076" lon="0.1208">
        <ele>187</ele>
        <time>2024-03-20T15:05:08Z</time>
      </trkpt>
      <trkpt lat="49.00754" lon="0.12073">
        <ele>187.2</ele>
        <time>2024-03-20T15:05:09Z</time>
      </trkpt>
      <trkpt lat="49.00747" lon="0.12065">
        <ele>187.2</ele>
        <time>2024-03-20T15:05:10Z</time>
      </trkpt>
      <trkpt lat="49.00741" lon="0.12058">
        <ele>187.2</ele>
        <time>2024-03-20T15:05:11Z</time>
      </trkpt>
      <trkpt lat="49.00735" lon="0.12051">
        <ele>187.4</ele>
        <time>2024-03-20T15:05:12Z</time>
      </trkpt>
      <trkpt lat="49.00728" lon="0.12044">
        <ele>187.4</ele>
        <time>2024-03-20T15:05:13Z</time>
      </trkpt>
      <trkpt lat="49.00722" lon="0.12037">
        <ele>187.4</ele>
        <time>2024-03-20T15:05:14Z</time>
      </trkpt>
      <trkpt lat="49.00715" lon="0.1203">
        <ele>187.4</ele>
        <time>2024-03-20T15:05:15Z</time>
      </trkpt>
      <trkpt lat="49.00709" lon="0.12023">
        <ele>187.4</ele>
        <time>2024-03-20T15:05:16Z</time>
      </trkpt>
      <trkpt lat="49.00703" lon="0.12016">
        <ele>187.4</ele>
        <time>2024-03-20T15:05:17Z</time>
      </trkpt>
      <trkpt lat="49.00696" lon="0.12009">
        <ele>187.4</ele>
        <time>2024-03-20T15:05:18Z</time>
      </trkpt>
      <trkpt lat="49.0069" lon="0.12002">
        <ele>187.4</ele>
        <time>2024-03-20T15:05:19Z</time>
      </trkpt>
      <trkpt lat="49.00684" lon="0.11995">
        <ele>187.4</ele>
        <time>2024-03-20T15:05:20Z</time>
      </trkpt>
      <trkpt lat="49.00677" lon="0.11988">
        <ele>187.4</ele>
        <time>2024-03-20T15:05:21Z</time>
      </trkpt>
      <trkpt lat="49.00671" lon="0.11981">
        <ele>187.4</ele>
        <time>2024-03-20T15:05:22Z</time>
      </trkpt>
      <trkpt lat="49.00664" lon="0.11974">
        <ele>187.6</ele>
        <time>2024-03-20T15:05:23Z</time>
      </trkpt>
      <trkpt lat="49.00658" lon="0.11966">
        <ele>187.6</ele>
        <time>2024-03-20T15:05:24Z</time>
      </trkpt>
      <trkpt lat="49.00651" lon="0.11959">
        <ele>187.6</ele>
        <time>2024-03-20T15:05:25Z</time>
      </trkpt>
      <trkpt lat="49.00644" lon="0.11952">
        <ele>187.6</ele>
        <time>2024-03-20T15:05:26Z</time>
      </trkpt>
      <trkpt lat="49.00638" lon="0.11945">
        <ele>187.6</ele>
        <time>2024-03-20T15:05:27Z</time>
      </trkpt>
      <trkpt lat="49.00631" lon="0.11938">
        <ele>187.6</ele>
        <time>2024-03-20T15:05:28Z</time>
      </trkpt>
      <trkpt lat="49.00625" lon="0.1193">
        <ele>187.6</ele>
        <time>2024-03-20T15:05:29Z</time>
      </trkpt>
      <trkpt lat="49.00618" lon="0.11923">
        <ele>187.8</ele>
        <time>2024-03-20T15:05:30Z</time>
      </trkpt>
      <trkpt lat="49.00612" lon="0.11917">
        <ele>187.8</ele>
        <time>2024-03-20T15:05:31Z</time>
      </trkpt>
      <trkpt lat="49.00605" lon="0.1191">
        <ele>187.8</ele>
        <time>2024-03-20T15:05:32Z</time>
      </trkpt>
      <trkpt lat="49.00598" lon="0.11904">
        <ele>187.8</ele>
        <time>2024-03-20T15:05:33Z</time>
      </trkpt>
      <trkpt lat="49.00591" lon="0.11898">
        <ele>187.8</ele>
        <time>2024-03-20T15:05:34Z</time>
      </trkpt>
      <trkpt lat="49.00584" lon="0.11893">
        <ele>187.8</ele>
        <time>2024-03-20T15:05:35Z</time>
      </trkpt>
      <trkpt lat="49.00577" lon="0.11889">
        <ele>187.8</ele>
        <time>2024-03-20T15:05:36Z</time>
      </trkpt>
      <trkpt lat="49.00569" lon="0.11885">
        <ele>187.8</ele>
        <time>2024-03-20T15:05:37Z</time>
      </trkpt>
      <trkpt lat="49.00561" lon="0.1188">
        <ele>187.8</ele>
        <time>2024-03-20T15:05:38Z</time>
      </trkpt>
      <trkpt lat="49.00553" lon="0.11876">
        <ele>187.8</ele>
        <time>2024-03-20T15:05:39Z</time>
      </trkpt>
      <trkpt lat="49.00546" lon="0.11871">
        <ele>187.6</ele>
        <time>2024-03-20T15:05:40Z</time>
      </trkpt>
      <trkpt lat="49.00538" lon="0.11866">
        <ele>187.6</ele>
        <time>2024-03-20T15:05:41Z</time>
      </trkpt>
      <trkpt lat="49.0053" lon="0.1186">
        <ele>187.6</ele>
        <time>2024-03-20T15:05:42Z</time>
      </trkpt>
      <trkpt lat="49.00523" lon="0.11855">
        <ele>187.6</ele>
        <time>2024-03-20T15:05:43Z</time>
      </trkpt>
      <trkpt lat="49.00516" lon="0.11849">
        <ele>187.4</ele>
        <time>2024-03-20T15:05:44Z</time>
      </trkpt>
      <trkpt lat="49.00509" lon="0.11843">
        <ele>187.4</ele>
        <time>2024-03-20T15:05:45Z</time>
      </trkpt>
      <trkpt lat="49.00502" lon="0.11837">
        <ele>187.4</ele>
        <time>2024-03-20T15:05:46Z</time>
      </trkpt>
      <trkpt lat="49.00495" lon="0.11831">
        <ele>187.4</ele>
        <time>2024-03-20T15:05:47Z</time>
      </trkpt>
      <trkpt lat="49.00488" lon="0.11825">
        <ele>187.4</ele>
        <time>2024-03-20T15:05:48Z</time>
      </trkpt>
      <trkpt lat="49.0048" lon="0.11819">
        <ele>187.4</ele>
        <time>2024-03-20T15:05:49Z</time>
      </trkpt>
      <trkpt lat="49.00473" lon="0.11813">
        <ele>187.4</ele>
        <time>2024-03-20T15:05:50Z</time>
      </trkpt>
      <trkpt lat="49.00466" lon="0.11807">
        <ele>187.4</ele>
        <time>2024-03-20T15:05:51Z</time>
      </trkpt>
      <trkpt lat="49.00458" lon="0.118">
        <ele>187.4</ele>
        <time>2024-03-20T15:05:52Z</time>
      </trkpt>
      <trkpt lat="49.00451" lon="0.11793">
        <ele>187.2</ele>
        <time>2024-03-20T15:05:53Z</time>
      </trkpt>
      <trkpt lat="49.00444" lon="0.11786">
        <ele>187.2</ele>
        <time>2024-03-20T15:05:54Z</time>
      </trkpt>
      <trkpt lat="49.00437" lon="0.11779">
        <ele>187.2</ele>
        <time>2024-03-20T15:05:55Z</time>
      </trkpt>
      <trkpt lat="49.0043" lon="0.11772">
        <ele>187.2</ele>
        <time>2024-03-20T15:05:56Z</time>
      </trkpt>
      <trkpt lat="49.00423" lon="0.11764">
        <ele>187</ele>
        <time>2024-03-20T15:05:57Z</time>
      </trkpt>
      <trkpt lat="49.00417" lon="0.11756">
        <ele>186.8</ele>
        <time>2024-03-20T15:05:58Z</time>
      </trkpt>
      <trkpt lat="49.00411" lon="0.11747">
        <ele>186.8</ele>
        <time>2024-03-20T15:05:59Z</time>
      </trkpt>
      <trkpt lat="49.00405" lon="0.11738">
        <ele>186.6</ele>
        <time>2024-03-20T15:06:00Z</time>
      </trkpt>
      <trkpt lat="49.00399" lon="0.11728">
        <ele>186.4</ele>
        <time>2024-03-20T15:06:01Z</time>
      </trkpt>
      <trkpt lat="49.00393" lon="0.11717">
        <ele>186.4</ele>
        <time>2024-03-20T15:06:02Z</time>
      </trkpt>
      <trkpt lat="49.00387" lon="0.11707">
        <ele>186.2</ele>
        <time>2024-03-20T15:06:03Z</time>
      </trkpt>
      <trkpt lat="49.00382" lon="0.11696">
        <ele>186.2</ele>
        <time>2024-03-20T15:06:04Z</time>
      </trkpt>
      <trkpt lat="49.00376" lon="0.11685">
        <ele>186</ele>
        <time>2024-03-20T15:06:05Z</time>
      </trkpt>
      <trkpt lat="49.00371" lon="0.11675">
        <ele>186</ele>
        <time>2024-03-20T15:06:06Z</time>
      </trkpt>
      <trkpt lat="49.00365" lon="0.11665">
        <ele>185.8</ele>
        <time>2024-03-20T15:06:07Z</time>
      </trkpt>
      <trkpt lat="49.0036" lon="0.11654">
        <ele>185.8</ele>
        <time>2024-03-20T15:06:08Z</time>
      </trkpt>
      <trkpt lat="49.00354" lon="0.11644">
        <ele>185.4</ele>
        <time>2024-03-20T15:06:09Z</time>
      </trkpt>
      <trkpt lat="49.00349" lon="0.11633">
        <ele>185</ele>
        <time>2024-03-20T15:06:10Z</time>
      </trkpt>
      <trkpt lat="49.00343" lon="0.11622">
        <ele>185</ele>
        <time>2024-03-20T15:06:11Z</time>
      </trkpt>
      <trkpt lat="49.00338" lon="0.11611">
        <ele>184.8</ele>
        <time>2024-03-20T15:06:12Z</time>
      </trkpt>
      <trkpt lat="49.00332" lon="0.11601">
        <ele>184.6</ele>
        <time>2024-03-20T15:06:13Z</time>
      </trkpt>
      <trkpt lat="49.00327" lon="0.1159">
        <ele>184.4</ele>
        <time>2024-03-20T15:06:14Z</time>
      </trkpt>
      <trkpt lat="49.00321" lon="0.11579">
        <ele>184.4</ele>
        <time>2024-03-20T15:06:15Z</time>
      </trkpt>
      <trkpt lat="49.00315" lon="0.1157">
        <ele>184.2</ele>
        <time>2024-03-20T15:06:16Z</time>
      </trkpt>
      <trkpt lat="49.00308" lon="0.11561">
        <ele>184.2</ele>
        <time>2024-03-20T15:06:17Z</time>
      </trkpt>
      <trkpt lat="49.00301" lon="0.11554">
        <ele>184</ele>
        <time>2024-03-20T15:06:18Z</time>
      </trkpt>
      <trkpt lat="49.00294" lon="0.11547">
        <ele>184</ele>
        <time>2024-03-20T15:06:19Z</time>
      </trkpt>
      <trkpt lat="49.00286" lon="0.11541">
        <ele>184</ele>
        <time>2024-03-20T15:06:20Z</time>
      </trkpt>
      <trkpt lat="49.00279" lon="0.11536">
        <ele>184</ele>
        <time>2024-03-20T15:06:21Z</time>
      </trkpt>
      <trkpt lat="49.00271" lon="0.11532">
        <ele>183.8</ele>
        <time>2024-03-20T15:06:22Z</time>
      </trkpt>
      <trkpt lat="49.00264" lon="0.11528">
        <ele>183.8</ele>
        <time>2024-03-20T15:06:23Z</time>
      </trkpt>
      <trkpt lat="49.00256" lon="0.11524">
        <ele>183.8</ele>
        <time>2024-03-20T15:06:24Z</time>
      </trkpt>
      <trkpt lat="49.00248" lon="0.11521">
        <ele>183.8</ele>
        <time>2024-03-20T15:06:25Z</time>
      </trkpt>
      <trkpt lat="49.00241" lon="0.11518">
        <ele>183.8</ele>
        <time>2024-03-20T15:06:26Z</time>
      </trkpt>
      <trkpt lat="49.00233" lon="0.11516">
        <ele>183.8</ele>
        <time>2024-03-20T15:06:27Z</time>
      </trkpt>
      <trkpt lat="49.00226" lon="0.11513">
        <ele>183.8</ele>
        <time>2024-03-20T15:06:28Z</time>
      </trkpt>
      <trkpt lat="49.00218" lon="0.1151">
        <ele>184</ele>
        <time>2024-03-20T15:06:29Z</time>
      </trkpt>
      <trkpt lat="49.00211" lon="0.11507">
        <ele>184</ele>
        <time>2024-03-20T15:06:30Z</time>
      </trkpt>
      <trkpt lat="49.00203" lon="0.11504">
        <ele>184</ele>
        <time>2024-03-20T15:06:31Z</time>
      </trkpt>
      <trkpt lat="49.00195" lon="0.115">
        <ele>184.2</ele>
        <time>2024-03-20T15:06:32Z</time>
      </trkpt>
      <trkpt lat="49.00187" lon="0.11496">
        <ele>184.2</ele>
        <time>2024-03-20T15:06:33Z</time>
      </trkpt>
      <trkpt lat="49.00179" lon="0.11491">
        <ele>184.6</ele>
        <time>2024-03-20T15:06:34Z</time>
      </trkpt>
      <trkpt lat="49.00172" lon="0.11486">
        <ele>185</ele>
        <time>2024-03-20T15:06:35Z</time>
      </trkpt>
      <trkpt lat="49.00164" lon="0.1148">
        <ele>185.2</ele>
        <time>2024-03-20T15:06:36Z</time>
      </trkpt>
      <trkpt lat="49.00156" lon="0.11475">
        <ele>185.6</ele>
        <time>2024-03-20T15:06:37Z</time>
      </trkpt>
      <trkpt lat="49.00149" lon="0.11471">
        <ele>185.8</ele>
        <time>2024-03-20T15:06:38Z</time>
      </trkpt>
      <trkpt lat="49.00141" lon="0.11467">
        <ele>186</ele>
        <time>2024-03-20T15:06:39Z</time>
      </trkpt>
      <trkpt lat="49.00133" lon="0.11464">
        <ele>186.2</ele>
        <time>2024-03-20T15:06:40Z</time>
      </trkpt>
      <trkpt lat="49.00125" lon="0.11462">
        <ele>186.2</ele>
        <time>2024-03-20T15:06:41Z</time>
      </trkpt>
      <trkpt lat="49.00117" lon="0.1146">
        <ele>186.2</ele>
        <time>2024-03-20T15:06:42Z</time>
      </trkpt>
      <trkpt lat="49.00109" lon="0.11459">
        <ele>186.4</ele>
        <time>2024-03-20T15:06:43Z</time>
      </trkpt>
      <trkpt lat="49.00101" lon="0.11458">
        <ele>186.4</ele>
        <time>2024-03-20T15:06:44Z</time>
      </trkpt>
      <trkpt lat="49.00093" lon="0.11458">
        <ele>186.6</ele>
        <time>2024-03-20T15:06:45Z</time>
      </trkpt>
      <trkpt lat="49.00085" lon="0.11458">
        <ele>186.8</ele>
        <time>2024-03-20T15:06:46Z</time>
      </trkpt>
      <trkpt lat="49.00077" lon="0.11458">
        <ele>186.8</ele>
        <time>2024-03-20T15:06:47Z</time>
      </trkpt>
      <trkpt lat="49.00069" lon="0.11458">
        <ele>187</ele>
        <time>2024-03-20T15:06:48Z</time>
      </trkpt>
      <trkpt lat="49.00061" lon="0.11457">
        <ele>187</ele>
        <time>2024-03-20T15:06:49Z</time>
      </trkpt>
      <trkpt lat="49.00053" lon="0.11457">
        <ele>187</ele>
        <time>2024-03-20T15:06:50Z</time>
      </trkpt>
      <trkpt lat="49.00045" lon="0.11456">
        <ele>187</ele>
        <time>2024-03-20T15:06:51Z</time>
      </trkpt>
      <trkpt lat="49.00037" lon="0.11456">
        <ele>187.2</ele>
        <time>2024-03-20T15:06:52Z</time>
      </trkpt>
      <trkpt lat="49.00029" lon="0.11456">
        <ele>187.2</ele>
        <time>2024-03-20T15:06:53Z</time>
      </trkpt>
      <trkpt lat="49.00021" lon="0.11455">
        <ele>187.2</ele>
        <time>2024-03-20T15:06:54Z</time>
      </trkpt>
      <trkpt lat="49.00013" lon="0.11454">
        <ele>187.2</ele>
        <time>2024-03-20T15:06:55Z</time>
      </trkpt>
      <trkpt lat="49.00006" lon="0.11453">
        <ele>187.2</ele>
        <time>2024-03-20T15:06:56Z</time>
      </trkpt>
      <trkpt lat="48.99998" lon="0.11451">
        <ele>187.2</ele>
        <time>2024-03-20T15:06:57Z</time>
      </trkpt>
      <trkpt lat="48.9999" lon="0.1145">
        <ele>187.2</ele>
        <time>2024-03-20T15:06:58Z</time>
      </trkpt>
      <trkpt lat="48.99982" lon="0.11448">
        <ele>187.2</ele>
        <time>2024-03-20T15:06:59Z</time>
      </trkpt>
      <trkpt lat="48.99975" lon="0.11447">
        <ele>187.4</ele>
        <time>2024-03-20T15:07:00Z</time>
      </trkpt>
      <trkpt lat="48.99966" lon="0.11447">
        <ele>187.4</ele>
        <time>2024-03-20T15:07:01Z</time>
      </trkpt>
      <trkpt lat="48.99958" lon="0.11446">
        <ele>187.4</ele>
        <time>2024-03-20T15:07:02Z</time>
      </trkpt>
      <trkpt lat="48.9995" lon="0.11447">
        <ele>187.4</ele>
        <time>2024-03-20T15:07:03Z</time>
      </trkpt>
      <trkpt lat="48.99942" lon="0.11447">
        <ele>187.4</ele>
        <time>2024-03-20T15:07:04Z</time>
      </trkpt>
      <trkpt lat="48.99933" lon="0.11447">
        <ele>187.4</ele>
        <time>2024-03-20T15:07:05Z</time>
      </trkpt>
      <trkpt lat="48.99925" lon="0.11448">
        <ele>187.4</ele>
        <time>2024-03-20T15:07:06Z</time>
      </trkpt>
      <trkpt lat="48.99917" lon="0.11448">
        <ele>187.4</ele>
        <time>2024-03-20T15:07:07Z</time>
      </trkpt>
      <trkpt lat="48.99909" lon="0.11448">
        <ele>187.4</ele>
        <time>2024-03-20T15:07:08Z</time>
      </trkpt>
      <trkpt lat="48.99902" lon="0.11448">
        <ele>187.4</ele>
        <time>2024-03-20T15:07:09Z</time>
      </trkpt>
      <trkpt lat="48.99894" lon="0.11448">
        <ele>187.4</ele>
        <time>2024-03-20T15:07:10Z</time>
      </trkpt>
      <trkpt lat="48.99886" lon="0.11447">
        <ele>187.4</ele>
        <time>2024-03-20T15:07:11Z</time>
      </trkpt>
      <trkpt lat="48.99878" lon="0.11447">
        <ele>187.4</ele>
        <time>2024-03-20T15:07:12Z</time>
      </trkpt>
      <trkpt lat="48.9987" lon="0.11447">
        <ele>187.4</ele>
        <time>2024-03-20T15:07:13Z</time>
      </trkpt>
      <trkpt lat="48.99862" lon="0.11447">
        <ele>187.4</ele>
        <time>2024-03-20T15:07:14Z</time>
      </trkpt>
      <trkpt lat="48.99854" lon="0.11447">
        <ele>187.4</ele>
        <time>2024-03-20T15:07:15Z</time>
      </trkpt>
      <trkpt lat="48.99846" lon="0.11447">
        <ele>187.4</ele>
        <time>2024-03-20T15:07:16Z</time>
      </trkpt>
      <trkpt lat="48.99838" lon="0.11447">
        <ele>187.4</ele>
        <time>2024-03-20T15:07:17Z</time>
      </trkpt>
      <trkpt lat="48.9983" lon="0.11447">
        <ele>187.4</ele>
        <time>2024-03-20T15:07:18Z</time>
      </trkpt>
      <trkpt lat="48.99822" lon="0.11447">
        <ele>187.4</ele>
        <time>2024-03-20T15:07:19Z</time>
      </trkpt>
      <trkpt lat="48.99814" lon="0.11447">
        <ele>187.2</ele>
        <time>2024-03-20T15:07:20Z</time>
      </trkpt>
      <trkpt lat="48.99806" lon="0.11448">
        <ele>187.2</ele>
        <time>2024-03-20T15:07:21Z</time>
      </trkpt>
      <trkpt lat="48.99797" lon="0.11448">
        <ele>187.2</ele>
        <time>2024-03-20T15:07:22Z</time>
      </trkpt>
      <trkpt lat="48.99789" lon="0.11449">
        <ele>187.2</ele>
        <time>2024-03-20T15:07:23Z</time>
      </trkpt>
      <trkpt lat="48.9978" lon="0.1145">
        <ele>187.2</ele>
        <time>2024-03-20T15:07:24Z</time>
      </trkpt>
      <trkpt lat="48.99772" lon="0.11452">
        <ele>187.2</ele>
        <time>2024-03-20T15:07:25Z</time>
      </trkpt>
      <trkpt lat="48.99764" lon="0.11453">
        <ele>187.2</ele>
        <time>2024-03-20T15:07:26Z</time>
      </trkpt>
      <trkpt lat="48.99756" lon="0.11454">
        <ele>187.2</ele>
        <time>2024-03-20T15:07:27Z</time>
      </trkpt>
      <trkpt lat="48.99747" lon="0.11456">
        <ele>187.2</ele>
        <time>2024-03-20T15:07:28Z</time>
      </trkpt>
      <trkpt lat="48.99739" lon="0.11457">
        <ele>187.2</ele>
        <time>2024-03-20T15:07:29Z</time>
      </trkpt>
      <trkpt lat="48.99731" lon="0.11458">
        <ele>187.2</ele>
        <time>2024-03-20T15:07:30Z</time>
      </trkpt>
      <trkpt lat="48.99724" lon="0.11459">
        <ele>187.2</ele>
        <time>2024-03-20T15:07:31Z</time>
      </trkpt>
      <trkpt lat="48.99715" lon="0.11461">
        <ele>187.2</ele>
        <time>2024-03-20T15:07:32Z</time>
      </trkpt>
      <trkpt lat="48.99707" lon="0.11462">
        <ele>187.2</ele>
        <time>2024-03-20T15:07:33Z</time>
      </trkpt>
      <trkpt lat="48.99699" lon="0.11463">
        <ele>187.2</ele>
        <time>2024-03-20T15:07:34Z</time>
      </trkpt>
      <trkpt lat="48.99691" lon="0.11464">
        <ele>187.2</ele>
        <time>2024-03-20T15:07:35Z</time>
      </trkpt>
      <trkpt lat="48.99683" lon="0.11465">
        <ele>187.2</ele>
        <time>2024-03-20T15:07:36Z</time>
      </trkpt>
      <trkpt lat="48.99676" lon="0.11466">
        <ele>187.2</ele>
        <time>2024-03-20T15:07:37Z</time>
      </trkpt>
      <trkpt lat="48.99668" lon="0.11467">
        <ele>187.2</ele>
        <time>2024-03-20T15:07:38Z</time>
      </trkpt>
      <trkpt lat="48.9966" lon="0.11468">
        <ele>187.2</ele>
        <time>2024-03-20T15:07:39Z</time>
      </trkpt>
      <trkpt lat="48.99652" lon="0.11469">
        <ele>187.2</ele>
        <time>2024-03-20T15:07:40Z</time>
      </trkpt>
      <trkpt lat="48.99644" lon="0.1147">
        <ele>187.2</ele>
        <time>2024-03-20T15:07:41Z</time>
      </trkpt>
      <trkpt lat="48.99636" lon="0.11472">
        <ele>187.2</ele>
        <time>2024-03-20T15:07:42Z</time>
      </trkpt>
      <trkpt lat="48.99628" lon="0.11474">
        <ele>187.2</ele>
        <time>2024-03-20T15:07:43Z</time>
      </trkpt>
      <trkpt lat="48.9962" lon="0.11476">
        <ele>187.2</ele>
        <time>2024-03-20T15:07:44Z</time>
      </trkpt>
      <trkpt lat="48.99612" lon="0.11478">
        <ele>187.2</ele>
        <time>2024-03-20T15:07:45Z</time>
      </trkpt>
      <trkpt lat="48.99605" lon="0.1148">
        <ele>187.2</ele>
        <time>2024-03-20T15:07:46Z</time>
      </trkpt>
      <trkpt lat="48.99597" lon="0.11483">
        <ele>187.2</ele>
        <time>2024-03-20T15:07:47Z</time>
      </trkpt>
      <trkpt lat="48.99589" lon="0.11485">
        <ele>187.2</ele>
        <time>2024-03-20T15:07:48Z</time>
      </trkpt>
      <trkpt lat="48.99582" lon="0.11487">
        <ele>187.2</ele>
        <time>2024-03-20T15:07:49Z</time>
      </trkpt>
      <trkpt lat="48.99574" lon="0.1149">
        <ele>187.2</ele>
        <time>2024-03-20T15:07:50Z</time>
      </trkpt>
      <trkpt lat="48.99566" lon="0.11492">
        <ele>187</ele>
        <time>2024-03-20T15:07:51Z</time>
      </trkpt>
      <trkpt lat="48.99559" lon="0.11494">
        <ele>187</ele>
        <time>2024-03-20T15:07:52Z</time>
      </trkpt>
      <trkpt lat="48.99551" lon="0.11497">
        <ele>187</ele>
        <time>2024-03-20T15:07:53Z</time>
      </trkpt>
      <trkpt lat="48.99544" lon="0.115">
        <ele>186.8</ele>
        <time>2024-03-20T15:07:54Z</time>
      </trkpt>
      <trkpt lat="48.99536" lon="0.11503">
        <ele>186.8</ele>
        <time>2024-03-20T15:07:55Z</time>
      </trkpt>
      <trkpt lat="48.99529" lon="0.11505">
        <ele>186.8</ele>
        <time>2024-03-20T15:07:56Z</time>
      </trkpt>
      <trkpt lat="48.99521" lon="0.11508">
        <ele>186.8</ele>
        <time>2024-03-20T15:07:57Z</time>
      </trkpt>
      <trkpt lat="48.99514" lon="0.11511">
        <ele>186.6</ele>
        <time>2024-03-20T15:07:58Z</time>
      </trkpt>
      <trkpt lat="48.99506" lon="0.11514">
        <ele>186.6</ele>
        <time>2024-03-20T15:07:59Z</time>
      </trkpt>
      <trkpt lat="48.99499" lon="0.11517">
        <ele>186.4</ele>
        <time>2024-03-20T15:08:00Z</time>
      </trkpt>
      <trkpt lat="48.99492" lon="0.1152">
        <ele>186.4</ele>
        <time>2024-03-20T15:08:01Z</time>
      </trkpt>
      <trkpt lat="48.99485" lon="0.11524">
        <ele>186.2</ele>
        <time>2024-03-20T15:08:02Z</time>
      </trkpt>
      <trkpt lat="48.99478" lon="0.11528">
        <ele>186.2</ele>
        <time>2024-03-20T15:08:03Z</time>
      </trkpt>
      <trkpt lat="48.99471" lon="0.11533">
        <ele>186</ele>
        <time>2024-03-20T15:08:04Z</time>
      </trkpt>
      <trkpt lat="48.99465" lon="0.11537">
        <ele>186</ele>
        <time>2024-03-20T15:08:05Z</time>
      </trkpt>
      <trkpt lat="48.99459" lon="0.11541">
        <ele>186</ele>
        <time>2024-03-20T15:08:06Z</time>
      </trkpt>
      <trkpt lat="48.99454" lon="0.11545">
        <ele>185.8</ele>
        <time>2024-03-20T15:08:07Z</time>
      </trkpt>
      <trkpt lat="48.99449" lon="0.11549">
        <ele>185.8</ele>
        <time>2024-03-20T15:08:08Z</time>
      </trkpt>
      <trkpt lat="48.99445" lon="0.11552">
        <ele>185.8</ele>
        <time>2024-03-20T15:08:09Z</time>
      </trkpt>
      <trkpt lat="48.99441" lon="0.11554">
        <ele>185.6</ele>
        <time>2024-03-20T15:08:10Z</time>
      </trkpt>
      <trkpt lat="48.99438" lon="0.11556">
        <ele>185.6</ele>
        <time>2024-03-20T15:08:11Z</time>
      </trkpt>
      <trkpt lat="48.99436" lon="0.11557">
        <ele>185.6</ele>
        <time>2024-03-20T15:08:12Z</time>
      </trkpt>
      <trkpt lat="48.99434" lon="0.11556">
        <ele>185.6</ele>
        <time>2024-03-20T15:08:13Z</time>
      </trkpt>
      <trkpt lat="48.99432" lon="0.11557">
        <ele>185.6</ele>
        <time>2024-03-20T15:08:14Z</time>
      </trkpt>
      <trkpt lat="48.9943" lon="0.11557">
        <ele>185.6</ele>
        <time>2024-03-20T15:08:15Z</time>
      </trkpt>
      <trkpt lat="48.99428" lon="0.11558">
        <ele>185.6</ele>
        <time>2024-03-20T15:08:16Z</time>
      </trkpt>
      <trkpt lat="48.99428" lon="0.11558">
        <ele>185.6</ele>
        <time>2024-03-20T15:08:17Z</time>
      </trkpt>
      <trkpt lat="48.99428" lon="0.11558">
        <ele>185.6</ele>
        <time>2024-03-20T15:08:18Z</time>
      </trkpt>
      <trkpt lat="48.99423" lon="0.1156">
        <ele>185.6</ele>
        <time>2024-03-20T15:08:23Z</time>
      </trkpt>
      <trkpt lat="48.99421" lon="0.11562">
        <ele>185.6</ele>
        <time>2024-03-20T15:08:24Z</time>
      </trkpt>
      <trkpt lat="48.9942" lon="0.11564">
        <ele>185.6</ele>
        <time>2024-03-20T15:08:25Z</time>
      </trkpt>
      <trkpt lat="48.99418" lon="0.11566">
        <ele>185.6</ele>
        <time>2024-03-20T15:08:26Z</time>
      </trkpt>
      <trkpt lat="48.99416" lon="0.11569">
        <ele>185.6</ele>
        <time>2024-03-20T15:08:27Z</time>
      </trkpt>
      <trkpt lat="48.99414" lon="0.11571">
        <ele>185.8</ele>
        <time>2024-03-20T15:08:28Z</time>
      </trkpt>
      <trkpt lat="48.99411" lon="0.11575">
        <ele>185.8</ele>
        <time>2024-03-20T15:08:29Z</time>
      </trkpt>
      <trkpt lat="48.99408" lon="0.11578">
        <ele>185.8</ele>
        <time>2024-03-20T15:08:30Z</time>
      </trkpt>
      <trkpt lat="48.99405" lon="0.11582">
        <ele>185.8</ele>
        <time>2024-03-20T15:08:31Z</time>
      </trkpt>
      <trkpt lat="48.99401" lon="0.11586">
        <ele>185.8</ele>
        <time>2024-03-20T15:08:32Z</time>
      </trkpt>
      <trkpt lat="48.99397" lon="0.11589">
        <ele>185.8</ele>
        <time>2024-03-20T15:08:33Z</time>
      </trkpt>
      <trkpt lat="48.99393" lon="0.11591">
        <ele>185.8</ele>
        <time>2024-03-20T15:08:34Z</time>
      </trkpt>
      <trkpt lat="48.99388" lon="0.11594">
        <ele>185.8</ele>
        <time>2024-03-20T15:08:35Z</time>
      </trkpt>
      <trkpt lat="48.99383" lon="0.11597">
        <ele>185.8</ele>
        <time>2024-03-20T15:08:36Z</time>
      </trkpt>
      <trkpt lat="48.99378" lon="0.11599">
        <ele>185.6</ele>
        <time>2024-03-20T15:08:37Z</time>
      </trkpt>
      <trkpt lat="48.99373" lon="0.11603">
        <ele>185.6</ele>
        <time>2024-03-20T15:08:38Z</time>
      </trkpt>
      <trkpt lat="48.99367" lon="0.11606">
        <ele>185.6</ele>
        <time>2024-03-20T15:08:39Z</time>
      </trkpt>
      <trkpt lat="48.99361" lon="0.1161">
        <ele>185.4</ele>
        <time>2024-03-20T15:08:40Z</time>
      </trkpt>
      <trkpt lat="48.99356" lon="0.11614">
        <ele>185.2</ele>
        <time>2024-03-20T15:08:41Z</time>
      </trkpt>
      <trkpt lat="48.9935" lon="0.11618">
        <ele>185.2</ele>
        <time>2024-03-20T15:08:42Z</time>
      </trkpt>
      <trkpt lat="48.99344" lon="0.11621">
        <ele>185</ele>
        <time>2024-03-20T15:08:43Z</time>
      </trkpt>
      <trkpt lat="48.99337" lon="0.11624">
        <ele>184.6</ele>
        <time>2024-03-20T15:08:44Z</time>
      </trkpt>
      <trkpt lat="48.99331" lon="0.11627">
        <ele>184.4</ele>
        <time>2024-03-20T15:08:45Z</time>
      </trkpt>
      <trkpt lat="48.99324" lon="0.1163">
        <ele>184.4</ele>
        <time>2024-03-20T15:08:46Z</time>
      </trkpt>
      <trkpt lat="48.99316" lon="0.1163">
        <ele>184.2</ele>
        <time>2024-03-20T15:08:47Z</time>
      </trkpt>
      <trkpt lat="48.99309" lon="0.1163">
        <ele>184.2</ele>
        <time>2024-03-20T15:08:48Z</time>
      </trkpt>
      <trkpt lat="48.99301" lon="0.1163">
        <ele>184.2</ele>
        <time>2024-03-20T15:08:49Z</time>
      </trkpt>
      <trkpt lat="48.99294" lon="0.1163">
        <ele>184</ele>
        <time>2024-03-20T15:08:50Z</time>
      </trkpt>
      <trkpt lat="48.99286" lon="0.11629">
        <ele>184</ele>
        <time>2024-03-20T15:08:51Z</time>
      </trkpt>
      <trkpt lat="48.99278" lon="0.11628">
        <ele>184</ele>
        <time>2024-03-20T15:08:52Z</time>
      </trkpt>
      <trkpt lat="48.9927" lon="0.11627">
        <ele>184</ele>
        <time>2024-03-20T15:08:53Z</time>
      </trkpt>
      <trkpt lat="48.99262" lon="0.11626">
        <ele>184</ele>
        <time>2024-03-20T15:08:54Z</time>
      </trkpt>
      <trkpt lat="48.99254" lon="0.11625">
        <ele>184</ele>
        <time>2024-03-20T15:08:55Z</time>
      </trkpt>
      <trkpt lat="48.99246" lon="0.11624">
        <ele>184</ele>
        <time>2024-03-20T15:08:56Z</time>
      </trkpt>
      <trkpt lat="48.99238" lon="0.11623">
        <ele>184</ele>
        <time>2024-03-20T15:08:57Z</time>
      </trkpt>
      <trkpt lat="48.9923" lon="0.11623">
        <ele>184</ele>
        <time>2024-03-20T15:08:58Z</time>
      </trkpt>
      <trkpt lat="48.99222" lon="0.11622">
        <ele>184.2</ele>
        <time>2024-03-20T15:08:59Z</time>
      </trkpt>
      <trkpt lat="48.99213" lon="0.11621">
        <ele>184.2</ele>
        <time>2024-03-20T15:09:00Z</time>
      </trkpt>
      <trkpt lat="48.99205" lon="0.1162">
        <ele>184.2</ele>
        <time>2024-03-20T15:09:01Z</time>
      </trkpt>
      <trkpt lat="48.99197" lon="0.1162">
        <ele>184.2</ele>
        <time>2024-03-20T15:09:02Z</time>
      </trkpt>
      <trkpt lat="48.99188" lon="0.11619">
        <ele>184.2</ele>
        <time>2024-03-20T15:09:03Z</time>
      </trkpt>
      <trkpt lat="48.9918" lon="0.11618">
        <ele>184.2</ele>
        <time>2024-03-20T15:09:04Z</time>
      </trkpt>
      <trkpt lat="48.99171" lon="0.11617">
        <ele>184.2</ele>
        <time>2024-03-20T15:09:05Z</time>
      </trkpt>
      <trkpt lat="48.99163" lon="0.11617">
        <ele>184.2</ele>
        <time>2024-03-20T15:09:06Z</time>
      </trkpt>
      <trkpt lat="48.99155" lon="0.11616">
        <ele>184.2</ele>
        <time>2024-03-20T15:09:07Z</time>
      </trkpt>
      <trkpt lat="48.99147" lon="0.11615">
        <ele>184.2</ele>
        <time>2024-03-20T15:09:08Z</time>
      </trkpt>
      <trkpt lat="48.99139" lon="0.11614">
        <ele>184.2</ele>
        <time>2024-03-20T15:09:09Z</time>
      </trkpt>
      <trkpt lat="48.99131" lon="0.11612">
        <ele>184.2</ele>
        <time>2024-03-20T15:09:10Z</time>
      </trkpt>
      <trkpt lat="48.99123" lon="0.11609">
        <ele>184.2</ele>
        <time>2024-03-20T15:09:11Z</time>
      </trkpt>
      <trkpt lat="48.99115" lon="0.11606">
        <ele>184.2</ele>
        <time>2024-03-20T15:09:12Z</time>
      </trkpt>
      <trkpt lat="48.99108" lon="0.11601">
        <ele>184</ele>
        <time>2024-03-20T15:09:13Z</time>
      </trkpt>
      <trkpt lat="48.991" lon="0.11595">
        <ele>184</ele>
        <time>2024-03-20T15:09:14Z</time>
      </trkpt>
      <trkpt lat="48.99094" lon="0.11588">
        <ele>183.8</ele>
        <time>2024-03-20T15:09:15Z</time>
      </trkpt>
      <trkpt lat="48.99088" lon="0.1158">
        <ele>183.8</ele>
        <time>2024-03-20T15:09:16Z</time>
      </trkpt>
      <trkpt lat="48.99082" lon="0.11571">
        <ele>183.8</ele>
        <time>2024-03-20T15:09:17Z</time>
      </trkpt>
      <trkpt lat="48.99078" lon="0.11562">
        <ele>183.6</ele>
        <time>2024-03-20T15:09:18Z</time>
      </trkpt>
      <trkpt lat="48.99074" lon="0.11552">
        <ele>183.6</ele>
        <time>2024-03-20T15:09:19Z</time>
      </trkpt>
      <trkpt lat="48.9907" lon="0.11542">
        <ele>183.4</ele>
        <time>2024-03-20T15:09:20Z</time>
      </trkpt>
      <trkpt lat="48.99066" lon="0.11532">
        <ele>183.2</ele>
        <time>2024-03-20T15:09:21Z</time>
      </trkpt>
      <trkpt lat="48.99062" lon="0.11521">
        <ele>183.2</ele>
        <time>2024-03-20T15:09:22Z</time>
      </trkpt>
      <trkpt lat="48.99058" lon="0.11511">
        <ele>183</ele>
        <time>2024-03-20T15:09:23Z</time>
      </trkpt>
      <trkpt lat="48.99055" lon="0.11501">
        <ele>182.8</ele>
        <time>2024-03-20T15:09:24Z</time>
      </trkpt>
      <trkpt lat="48.99051" lon="0.11491">
        <ele>182.8</ele>
        <time>2024-03-20T15:09:25Z</time>
      </trkpt>
      <trkpt lat="48.99048" lon="0.11481">
        <ele>182.6</ele>
        <time>2024-03-20T15:09:26Z</time>
      </trkpt>
      <trkpt lat="48.99045" lon="0.1147">
        <ele>182.6</ele>
        <time>2024-03-20T15:09:27Z</time>
      </trkpt>
      <trkpt lat="48.99041" lon="0.11459">
        <ele>182.6</ele>
        <time>2024-03-20T15:09:28Z</time>
      </trkpt>
      <trkpt lat="48.99037" lon="0.11449">
        <ele>182.6</ele>
        <time>2024-03-20T15:09:29Z</time>
      </trkpt>
      <trkpt lat="48.99033" lon="0.11438">
        <ele>182.6</ele>
        <time>2024-03-20T15:09:30Z</time>
      </trkpt>
      <trkpt lat="48.99029" lon="0.11427">
        <ele>182.6</ele>
        <time>2024-03-20T15:09:31Z</time>
      </trkpt>
      <trkpt lat="48.99024" lon="0.11415">
        <ele>182.4</ele>
        <time>2024-03-20T15:09:32Z</time>
      </trkpt>
      <trkpt lat="48.9902" lon="0.11405">
        <ele>182.4</ele>
        <time>2024-03-20T15:09:33Z</time>
      </trkpt>
      <trkpt lat="48.99016" lon="0.11394">
        <ele>182.4</ele>
        <time>2024-03-20T15:09:34Z</time>
      </trkpt>
      <trkpt lat="48.99012" lon="0.11383">
        <ele>182.2</ele>
        <time>2024-03-20T15:09:35Z</time>
      </trkpt>
      <trkpt lat="48.99007" lon="0.11372">
        <ele>182.2</ele>
        <time>2024-03-20T15:09:36Z</time>
      </trkpt>
      <trkpt lat="48.99003" lon="0.11362">
        <ele>182</ele>
        <time>2024-03-20T15:09:37Z</time>
      </trkpt>
      <trkpt lat="48.98998" lon="0.11352">
        <ele>182</ele>
        <time>2024-03-20T15:09:38Z</time>
      </trkpt>
      <trkpt lat="48.98993" lon="0.11343">
        <ele>182</ele>
        <time>2024-03-20T15:09:39Z</time>
      </trkpt>
      <trkpt lat="48.98988" lon="0.11333">
        <ele>182</ele>
        <time>2024-03-20T15:09:40Z</time>
      </trkpt>
      <trkpt lat="48.98982" lon="0.11324">
        <ele>182</ele>
        <time>2024-03-20T15:09:41Z</time>
      </trkpt>
      <trkpt lat="48.98977" lon="0.11315">
        <ele>182</ele>
        <time>2024-03-20T15:09:42Z</time>
      </trkpt>
      <trkpt lat="48.98972" lon="0.11306">
        <ele>181.8</ele>
        <time>2024-03-20T15:09:43Z</time>
      </trkpt>
      <trkpt lat="48.98967" lon="0.11297">
        <ele>181.8</ele>
        <time>2024-03-20T15:09:44Z</time>
      </trkpt>
      <trkpt lat="48.98962" lon="0.11287">
        <ele>181.6</ele>
        <time>2024-03-20T15:09:45Z</time>
      </trkpt>
      <trkpt lat="48.98957" lon="0.11278">
        <ele>181.6</ele>
        <time>2024-03-20T15:09:46Z</time>
      </trkpt>
      <trkpt lat="48.98952" lon="0.11268">
        <ele>181.6</ele>
        <time>2024-03-20T15:09:47Z</time>
      </trkpt>
      <trkpt lat="48.98948" lon="0.11258">
        <ele>181.4</ele>
        <time>2024-03-20T15:09:48Z</time>
      </trkpt>
      <trkpt lat="48.98944" lon="0.11248">
        <ele>181.2</ele>
        <time>2024-03-20T15:09:49Z</time>
      </trkpt>
      <trkpt lat="48.98939" lon="0.11238">
        <ele>181.2</ele>
        <time>2024-03-20T15:09:50Z</time>
      </trkpt>
      <trkpt lat="48.98934" lon="0.11228">
        <ele>181.2</ele>
        <time>2024-03-20T15:09:51Z</time>
      </trkpt>
      <trkpt lat="48.9893" lon="0.11219">
        <ele>181</ele>
        <time>2024-03-20T15:09:52Z</time>
      </trkpt>
      <trkpt lat="48.98924" lon="0.11211">
        <ele>180.8</ele>
        <time>2024-03-20T15:09:53Z</time>
      </trkpt>
      <trkpt lat="48.98918" lon="0.11203">
        <ele>180.8</ele>
        <time>2024-03-20T15:09:54Z</time>
      </trkpt>
      <trkpt lat="48.98913" lon="0.11196">
        <ele>180.8</ele>
        <time>2024-03-20T15:09:55Z</time>
      </trkpt>
      <trkpt lat="48.98906" lon="0.11189">
        <ele>180.8</ele>
        <time>2024-03-20T15:09:56Z</time>
      </trkpt>
      <trkpt lat="48.989" lon="0.11183">
        <ele>180.8</ele>
        <time>2024-03-20T15:09:57Z</time>
      </trkpt>
      <trkpt lat="48.98894" lon="0.11177">
        <ele>180.8</ele>
        <time>2024-03-20T15:09:58Z</time>
      </trkpt>
      <trkpt lat="48.98888" lon="0.11171">
        <ele>180.8</ele>
        <time>2024-03-20T15:09:59Z</time>
      </trkpt>
      <trkpt lat="48.98882" lon="0.11165">
        <ele>180.8</ele>
        <time>2024-03-20T15:10:00Z</time>
      </trkpt>
      <trkpt lat="48.98876" lon="0.1116">
        <ele>180.8</ele>
        <time>2024-03-20T15:10:01Z</time>
      </trkpt>
      <trkpt lat="48.9887" lon="0.11154">
        <ele>181</ele>
        <time>2024-03-20T15:10:02Z</time>
      </trkpt>
      <trkpt lat="48.98863" lon="0.11149">
        <ele>181.2</ele>
        <time>2024-03-20T15:10:03Z</time>
      </trkpt>
      <trkpt lat="48.98856" lon="0.11144">
        <ele>181.4</ele>
        <time>2024-03-20T15:10:04Z</time>
      </trkpt>
      <trkpt lat="48.9885" lon="0.1114">
        <ele>181.4</ele>
        <time>2024-03-20T15:10:05Z</time>
      </trkpt>
      <trkpt lat="48.98844" lon="0.11136">
        <ele>181.8</ele>
        <time>2024-03-20T15:10:06Z</time>
      </trkpt>
      <trkpt lat="48.98838" lon="0.11132">
        <ele>182</ele>
        <time>2024-03-20T15:10:07Z</time>
      </trkpt>
      <trkpt lat="48.98832" lon="0.11128">
        <ele>182.2</ele>
        <time>2024-03-20T15:10:08Z</time>
      </trkpt>
      <trkpt lat="48.98826" lon="0.11123">
        <ele>182.4</ele>
        <time>2024-03-20T15:10:09Z</time>
      </trkpt>
      <trkpt lat="48.98821" lon="0.11119">
        <ele>182.6</ele>
        <time>2024-03-20T15:10:10Z</time>
      </trkpt>
      <trkpt lat="48.98815" lon="0.11115">
        <ele>182.6</ele>
        <time>2024-03-20T15:10:11Z</time>
      </trkpt>
      <trkpt lat="48.9881" lon="0.11111">
        <ele>182.6</ele>
        <time>2024-03-20T15:10:12Z</time>
      </trkpt>
      <trkpt lat="48.98804" lon="0.11106">
        <ele>182.8</ele>
        <time>2024-03-20T15:10:13Z</time>
      </trkpt>
      <trkpt lat="48.98799" lon="0.11102">
        <ele>183</ele>
        <time>2024-03-20T15:10:14Z</time>
      </trkpt>
      <trkpt lat="48.98793" lon="0.11097">
        <ele>183.2</ele>
        <time>2024-03-20T15:10:15Z</time>
      </trkpt>
      <trkpt lat="48.98788" lon="0.11091">
        <ele>183.4</ele>
        <time>2024-03-20T15:10:16Z</time>
      </trkpt>
      <trkpt lat="48.98784" lon="0.11084">
        <ele>183.8</ele>
        <time>2024-03-20T15:10:17Z</time>
      </trkpt>
      <trkpt lat="48.9878" lon="0.11077">
        <ele>184</ele>
        <time>2024-03-20T15:10:18Z</time>
      </trkpt>
      <trkpt lat="48.98776" lon="0.1107">
        <ele>184.4</ele>
        <time>2024-03-20T15:10:19Z</time>
      </trkpt>
      <trkpt lat="48.98771" lon="0.11063">
        <ele>184.8</ele>
        <time>2024-03-20T15:10:20Z</time>
      </trkpt>
      <trkpt lat="48.98767" lon="0.11056">
        <ele>185</ele>
        <time>2024-03-20T15:10:21Z</time>
      </trkpt>
      <trkpt lat="48.98762" lon="0.1105">
        <ele>185.2</ele>
        <time>2024-03-20T15:10:22Z</time>
      </trkpt>
      <trkpt lat="48.98757" lon="0.11044">
        <ele>185.4</ele>
        <time>2024-03-20T15:10:23Z</time>
      </trkpt>
      <trkpt lat="48.98752" lon="0.11037">
        <ele>185.6</ele>
        <time>2024-03-20T15:10:24Z</time>
      </trkpt>
      <trkpt lat="48.98747" lon="0.1103">
        <ele>185.8</ele>
        <time>2024-03-20T15:10:25Z</time>
      </trkpt>
      <trkpt lat="48.98742" lon="0.11024">
        <ele>186</ele>
        <time>2024-03-20T15:10:26Z</time>
      </trkpt>
      <trkpt lat="48.98737" lon="0.11018">
        <ele>186.2</ele>
        <time>2024-03-20T15:10:27Z</time>
      </trkpt>
      <trkpt lat="48.98732" lon="0.11012">
        <ele>186.4</ele>
        <time>2024-03-20T15:10:28Z</time>
      </trkpt>
      <trkpt lat="48.98728" lon="0.11006">
        <ele>186.6</ele>
        <time>2024-03-20T15:10:29Z</time>
      </trkpt>
      <trkpt lat="48.98723" lon="0.10999">
        <ele>186.8</ele>
        <time>2024-03-20T15:10:30Z</time>
      </trkpt>
      <trkpt lat="48.98718" lon="0.10992">
        <ele>186.8</ele>
        <time>2024-03-20T15:10:31Z</time>
      </trkpt>
      <trkpt lat="48.98714" lon="0.10986">
        <ele>187</ele>
        <time>2024-03-20T15:10:32Z</time>
      </trkpt>
      <trkpt lat="48.98709" lon="0.10979">
        <ele>187.2</ele>
        <time>2024-03-20T15:10:33Z</time>
      </trkpt>
      <trkpt lat="48.98704" lon="0.10973">
        <ele>187.2</ele>
        <time>2024-03-20T15:10:34Z</time>
      </trkpt>
      <trkpt lat="48.98699" lon="0.10967">
        <ele>187.4</ele>
        <time>2024-03-20T15:10:35Z</time>
      </trkpt>
      <trkpt lat="48.98694" lon="0.10961">
        <ele>187.8</ele>
        <time>2024-03-20T15:10:36Z</time>
      </trkpt>
      <trkpt lat="48.98688" lon="0.10955">
        <ele>188.2</ele>
        <time>2024-03-20T15:10:37Z</time>
      </trkpt>
      <trkpt lat="48.98683" lon="0.1095">
        <ele>188.4</ele>
        <time>2024-03-20T15:10:38Z</time>
      </trkpt>
      <trkpt lat="48.98678" lon="0.10945">
        <ele>188.6</ele>
        <time>2024-03-20T15:10:39Z</time>
      </trkpt>
      <trkpt lat="48.98672" lon="0.1094">
        <ele>188.8</ele>
        <time>2024-03-20T15:10:40Z</time>
      </trkpt>
      <trkpt lat="48.98666" lon="0.10935">
        <ele>188.8</ele>
        <time>2024-03-20T15:10:41Z</time>
      </trkpt>
      <trkpt lat="48.9866" lon="0.10931">
        <ele>188.8</ele>
        <time>2024-03-20T15:10:42Z</time>
      </trkpt>
      <trkpt lat="48.98654" lon="0.10926">
        <ele>189.2</ele>
        <time>2024-03-20T15:10:43Z</time>
      </trkpt>
      <trkpt lat="48.98648" lon="0.10921">
        <ele>189.2</ele>
        <time>2024-03-20T15:10:44Z</time>
      </trkpt>
      <trkpt lat="48.98642" lon="0.10916">
        <ele>189.4</ele>
        <time>2024-03-20T15:10:45Z</time>
      </trkpt>
      <trkpt lat="48.98636" lon="0.10911">
        <ele>189.4</ele>
        <time>2024-03-20T15:10:46Z</time>
      </trkpt>
      <trkpt lat="48.9863" lon="0.10906">
        <ele>189.6</ele>
        <time>2024-03-20T15:10:47Z</time>
      </trkpt>
      <trkpt lat="48.98624" lon="0.10901">
        <ele>189.8</ele>
        <time>2024-03-20T15:10:48Z</time>
      </trkpt>
      <trkpt lat="48.98618" lon="0.10896">
        <ele>189.8</ele>
        <time>2024-03-20T15:10:49Z</time>
      </trkpt>
      <trkpt lat="48.98612" lon="0.10891">
        <ele>190</ele>
        <time>2024-03-20T15:10:50Z</time>
      </trkpt>
      <trkpt lat="48.98606" lon="0.10886">
        <ele>190.2</ele>
        <time>2024-03-20T15:10:51Z</time>
      </trkpt>
      <trkpt lat="48.986" lon="0.10881">
        <ele>190.2</ele>
        <time>2024-03-20T15:10:52Z</time>
      </trkpt>
      <trkpt lat="48.98594" lon="0.10875">
        <ele>190.4</ele>
        <time>2024-03-20T15:10:53Z</time>
      </trkpt>
      <trkpt lat="48.98588" lon="0.1087">
        <ele>190.4</ele>
        <time>2024-03-20T15:10:54Z</time>
      </trkpt>
      <trkpt lat="48.98582" lon="0.10865">
        <ele>190.6</ele>
        <time>2024-03-20T15:10:55Z</time>
      </trkpt>
      <trkpt lat="48.98575" lon="0.10861">
        <ele>190.6</ele>
        <time>2024-03-20T15:10:56Z</time>
      </trkpt>
      <trkpt lat="48.98569" lon="0.10857">
        <ele>190.6</ele>
        <time>2024-03-20T15:10:57Z</time>
      </trkpt>
      <trkpt lat="48.98562" lon="0.10853">
        <ele>190.6</ele>
        <time>2024-03-20T15:10:58Z</time>
      </trkpt>
      <trkpt lat="48.98555" lon="0.10849">
        <ele>190.6</ele>
        <time>2024-03-20T15:10:59Z</time>
      </trkpt>
      <trkpt lat="48.98549" lon="0.10845">
        <ele>190.8</ele>
        <time>2024-03-20T15:11:00Z</time>
      </trkpt>
      <trkpt lat="48.98542" lon="0.10841">
        <ele>190.8</ele>
        <time>2024-03-20T15:11:01Z</time>
      </trkpt>
      <trkpt lat="48.98536" lon="0.10836">
        <ele>191</ele>
        <time>2024-03-20T15:11:02Z</time>
      </trkpt>
      <trkpt lat="48.98529" lon="0.10831">
        <ele>191</ele>
        <time>2024-03-20T15:11:03Z</time>
      </trkpt>
      <trkpt lat="48.98522" lon="0.10827">
        <ele>191.2</ele>
        <time>2024-03-20T15:11:04Z</time>
      </trkpt>
      <trkpt lat="48.98516" lon="0.10822">
        <ele>191.2</ele>
        <time>2024-03-20T15:11:05Z</time>
      </trkpt>
      <trkpt lat="48.9851" lon="0.10818">
        <ele>191.6</ele>
        <time>2024-03-20T15:11:06Z</time>
      </trkpt>
      <trkpt lat="48.98503" lon="0.10813">
        <ele>191.8</ele>
        <time>2024-03-20T15:11:07Z</time>
      </trkpt>
      <trkpt lat="48.98497" lon="0.10808">
        <ele>191.8</ele>
        <time>2024-03-20T15:11:08Z</time>
      </trkpt>
      <trkpt lat="48.98491" lon="0.10803">
        <ele>192</ele>
        <time>2024-03-20T15:11:09Z</time>
      </trkpt>
      <trkpt lat="48.98485" lon="0.10798">
        <ele>192</ele>
        <time>2024-03-20T15:11:10Z</time>
      </trkpt>
      <trkpt lat="48.98479" lon="0.10793">
        <ele>192.2</ele>
        <time>2024-03-20T15:11:11Z</time>
      </trkpt>
      <trkpt lat="48.98473" lon="0.10788">
        <ele>192.2</ele>
        <time>2024-03-20T15:11:12Z</time>
      </trkpt>
      <trkpt lat="48.98467" lon="0.10782">
        <ele>192.2</ele>
        <time>2024-03-20T15:11:13Z</time>
      </trkpt>
      <trkpt lat="48.98462" lon="0.10776">
        <ele>192.2</ele>
        <time>2024-03-20T15:11:14Z</time>
      </trkpt>
      <trkpt lat="48.98457" lon="0.10769">
        <ele>192.2</ele>
        <time>2024-03-20T15:11:15Z</time>
      </trkpt>
      <trkpt lat="48.98451" lon="0.10762">
        <ele>192.2</ele>
        <time>2024-03-20T15:11:16Z</time>
      </trkpt>
      <trkpt lat="48.98446" lon="0.10755">
        <ele>192.2</ele>
        <time>2024-03-20T15:11:17Z</time>
      </trkpt>
      <trkpt lat="48.98441" lon="0.10747">
        <ele>192.4</ele>
        <time>2024-03-20T15:11:18Z</time>
      </trkpt>
      <trkpt lat="48.98435" lon="0.10739">
        <ele>192.4</ele>
        <time>2024-03-20T15:11:19Z</time>
      </trkpt>
      <trkpt lat="48.9843" lon="0.10731">
        <ele>192.4</ele>
        <time>2024-03-20T15:11:20Z</time>
      </trkpt>
      <trkpt lat="48.98425" lon="0.10724">
        <ele>192.4</ele>
        <time>2024-03-20T15:11:21Z</time>
      </trkpt>
      <trkpt lat="48.98421" lon="0.10716">
        <ele>192.4</ele>
        <time>2024-03-20T15:11:22Z</time>
      </trkpt>
      <trkpt lat="48.98416" lon="0.10709">
        <ele>192.4</ele>
        <time>2024-03-20T15:11:23Z</time>
      </trkpt>
      <trkpt lat="48.98411" lon="0.10701">
        <ele>192.6</ele>
        <time>2024-03-20T15:11:24Z</time>
      </trkpt>
      <trkpt lat="48.98406" lon="0.10693">
        <ele>192.6</ele>
        <time>2024-03-20T15:11:25Z</time>
      </trkpt>
      <trkpt lat="48.98401" lon="0.10685">
        <ele>192.8</ele>
        <time>2024-03-20T15:11:26Z</time>
      </trkpt>
      <trkpt lat="48.98396" lon="0.10676">
        <ele>192.8</ele>
        <time>2024-03-20T15:11:27Z</time>
      </trkpt>
      <trkpt lat="48.98392" lon="0.10667">
        <ele>192.8</ele>
        <time>2024-03-20T15:11:28Z</time>
      </trkpt>
      <trkpt lat="48.98387" lon="0.10658">
        <ele>192.8</ele>
        <time>2024-03-20T15:11:29Z</time>
      </trkpt>
      <trkpt lat="48.98383" lon="0.10649">
        <ele>193.2</ele>
        <time>2024-03-20T15:11:30Z</time>
      </trkpt>
      <trkpt lat="48.98378" lon="0.1064">
        <ele>193.2</ele>
        <time>2024-03-20T15:11:31Z</time>
      </trkpt>
      <trkpt lat="48.98374" lon="0.10631">
        <ele>193.4</ele>
        <time>2024-03-20T15:11:32Z</time>
      </trkpt>
      <trkpt lat="48.9837" lon="0.10622">
        <ele>193.4</ele>
        <time>2024-03-20T15:11:33Z</time>
      </trkpt>
      <trkpt lat="48.98366" lon="0.10613">
        <ele>193.6</ele>
        <time>2024-03-20T15:11:34Z</time>
      </trkpt>
      <trkpt lat="48.98362" lon="0.10603">
        <ele>193.6</ele>
        <time>2024-03-20T15:11:35Z</time>
      </trkpt>
      <trkpt lat="48.98358" lon="0.10593">
        <ele>193.6</ele>
        <time>2024-03-20T15:11:36Z</time>
      </trkpt>
      <trkpt lat="48.98354" lon="0.10583">
        <ele>193.8</ele>
        <time>2024-03-20T15:11:37Z</time>
      </trkpt>
      <trkpt lat="48.9835" lon="0.10574">
        <ele>194</ele>
        <time>2024-03-20T15:11:38Z</time>
      </trkpt>
      <trkpt lat="48.98347" lon="0.10564">
        <ele>194.2</ele>
        <time>2024-03-20T15:11:39Z</time>
      </trkpt>
      <trkpt lat="48.98343" lon="0.10555">
        <ele>194.4</ele>
        <time>2024-03-20T15:11:40Z</time>
      </trkpt>
      <trkpt lat="48.98339" lon="0.10546">
        <ele>194.4</ele>
        <time>2024-03-20T15:11:41Z</time>
      </trkpt>
      <trkpt lat="48.98335" lon="0.10538">
        <ele>194.4</ele>
        <time>2024-03-20T15:11:42Z</time>
      </trkpt>
      <trkpt lat="48.98332" lon="0.10528">
        <ele>194.6</ele>
        <time>2024-03-20T15:11:43Z</time>
      </trkpt>
      <trkpt lat="48.98328" lon="0.10519">
        <ele>194.6</ele>
        <time>2024-03-20T15:11:44Z</time>
      </trkpt>
      <trkpt lat="48.98324" lon="0.10509">
        <ele>194.6</ele>
        <time>2024-03-20T15:11:45Z</time>
      </trkpt>
      <trkpt lat="48.9832" lon="0.10499">
        <ele>194.6</ele>
        <time>2024-03-20T15:11:46Z</time>
      </trkpt>
      <trkpt lat="48.98317" lon="0.1049">
        <ele>194.6</ele>
        <time>2024-03-20T15:11:47Z</time>
      </trkpt>
      <trkpt lat="48.98313" lon="0.1048">
        <ele>194.8</ele>
        <time>2024-03-20T15:11:48Z</time>
      </trkpt>
      <trkpt lat="48.9831" lon="0.1047">
        <ele>194.8</ele>
        <time>2024-03-20T15:11:49Z</time>
      </trkpt>
      <trkpt lat="48.98306" lon="0.10461">
        <ele>194.8</ele>
        <time>2024-03-20T15:11:50Z</time>
      </trkpt>
      <trkpt lat="48.98303" lon="0.10451">
        <ele>194.8</ele>
        <time>2024-03-20T15:11:51Z</time>
      </trkpt>
      <trkpt lat="48.98299" lon="0.10442">
        <ele>194.8</ele>
        <time>2024-03-20T15:11:52Z</time>
      </trkpt>
      <trkpt lat="48.98295" lon="0.10432">
        <ele>194.8</ele>
        <time>2024-03-20T15:11:53Z</time>
      </trkpt>
      <trkpt lat="48.98291" lon="0.10423">
        <ele>194.8</ele>
        <time>2024-03-20T15:11:54Z</time>
      </trkpt>
      <trkpt lat="48.98287" lon="0.10413">
        <ele>194.8</ele>
        <time>2024-03-20T15:11:55Z</time>
      </trkpt>
      <trkpt lat="48.98282" lon="0.10403">
        <ele>194.6</ele>
        <time>2024-03-20T15:11:56Z</time>
      </trkpt>
      <trkpt lat="48.98278" lon="0.10393">
        <ele>194.6</ele>
        <time>2024-03-20T15:11:57Z</time>
      </trkpt>
      <trkpt lat="48.98274" lon="0.10384">
        <ele>194.6</ele>
        <time>2024-03-20T15:11:58Z</time>
      </trkpt>
      <trkpt lat="48.9827" lon="0.10375">
        <ele>194.6</ele>
        <time>2024-03-20T15:11:59Z</time>
      </trkpt>
      <trkpt lat="48.98265" lon="0.10366">
        <ele>194.6</ele>
        <time>2024-03-20T15:12:00Z</time>
      </trkpt>
      <trkpt lat="48.98261" lon="0.10358">
        <ele>194.4</ele>
        <time>2024-03-20T15:12:01Z</time>
      </trkpt>
      <trkpt lat="48.98257" lon="0.10349">
        <ele>194.4</ele>
        <time>2024-03-20T15:12:02Z</time>
      </trkpt>
      <trkpt lat="48.98252" lon="0.1034">
        <ele>194.4</ele>
        <time>2024-03-20T15:12:03Z</time>
      </trkpt>
      <trkpt lat="48.98248" lon="0.10331">
        <ele>194.4</ele>
        <time>2024-03-20T15:12:04Z</time>
      </trkpt>
      <trkpt lat="48.98245" lon="0.10321">
        <ele>194.2</ele>
        <time>2024-03-20T15:12:05Z</time>
      </trkpt>
      <trkpt lat="48.98242" lon="0.10311">
        <ele>194.2</ele>
        <time>2024-03-20T15:12:06Z</time>
      </trkpt>
      <trkpt lat="48.98239" lon="0.10301">
        <ele>194.2</ele>
        <time>2024-03-20T15:12:07Z</time>
      </trkpt>
      <trkpt lat="48.98235" lon="0.1029">
        <ele>194.2</ele>
        <time>2024-03-20T15:12:08Z</time>
      </trkpt>
      <trkpt lat="48.98233" lon="0.10279">
        <ele>194</ele>
        <time>2024-03-20T15:12:09Z</time>
      </trkpt>
      <trkpt lat="48.9823" lon="0.10268">
        <ele>194</ele>
        <time>2024-03-20T15:12:10Z</time>
      </trkpt>
      <trkpt lat="48.98228" lon="0.10257">
        <ele>194</ele>
        <time>2024-03-20T15:12:11Z</time>
      </trkpt>
      <trkpt lat="48.98224" lon="0.10247">
        <ele>194</ele>
        <time>2024-03-20T15:12:12Z</time>
      </trkpt>
      <trkpt lat="48.98221" lon="0.10236">
        <ele>194</ele>
        <time>2024-03-20T15:12:13Z</time>
      </trkpt>
      <trkpt lat="48.98217" lon="0.10226">
        <ele>194</ele>
        <time>2024-03-20T15:12:14Z</time>
      </trkpt>
      <trkpt lat="48.98214" lon="0.10215">
        <ele>194</ele>
        <time>2024-03-20T15:12:15Z</time>
      </trkpt>
      <trkpt lat="48.9821" lon="0.10205">
        <ele>194</ele>
        <time>2024-03-20T15:12:16Z</time>
      </trkpt>
      <trkpt lat="48.98205" lon="0.10194">
        <ele>194</ele>
        <time>2024-03-20T15:12:17Z</time>
      </trkpt>
      <trkpt lat="48.98201" lon="0.10184">
        <ele>194</ele>
        <time>2024-03-20T15:12:18Z</time>
      </trkpt>
      <trkpt lat="48.98197" lon="0.10174">
        <ele>194</ele>
        <time>2024-03-20T15:12:19Z</time>
      </trkpt>
      <trkpt lat="48.98193" lon="0.10165">
        <ele>194</ele>
        <time>2024-03-20T15:12:20Z</time>
      </trkpt>
      <trkpt lat="48.98188" lon="0.10155">
        <ele>194</ele>
        <time>2024-03-20T15:12:21Z</time>
      </trkpt>
      <trkpt lat="48.98184" lon="0.10145">
        <ele>194</ele>
        <time>2024-03-20T15:12:22Z</time>
      </trkpt>
      <trkpt lat="48.9818" lon="0.10136">
        <ele>194</ele>
        <time>2024-03-20T15:12:23Z</time>
      </trkpt>
      <trkpt lat="48.98176" lon="0.10126">
        <ele>194</ele>
        <time>2024-03-20T15:12:24Z</time>
      </trkpt>
      <trkpt lat="48.98172" lon="0.10117">
        <ele>194</ele>
        <time>2024-03-20T15:12:25Z</time>
      </trkpt>
      <trkpt lat="48.98167" lon="0.10107">
        <ele>193.8</ele>
        <time>2024-03-20T15:12:26Z</time>
      </trkpt>
      <trkpt lat="48.98163" lon="0.10098">
        <ele>193.8</ele>
        <time>2024-03-20T15:12:27Z</time>
      </trkpt>
      <trkpt lat="48.98158" lon="0.10088">
        <ele>193.6</ele>
        <time>2024-03-20T15:12:28Z</time>
      </trkpt>
      <trkpt lat="48.98154" lon="0.10079">
        <ele>193.6</ele>
        <time>2024-03-20T15:12:29Z</time>
      </trkpt>
      <trkpt lat="48.98149" lon="0.10069">
        <ele>193.6</ele>
        <time>2024-03-20T15:12:30Z</time>
      </trkpt>
      <trkpt lat="48.98144" lon="0.1006">
        <ele>193.4</ele>
        <time>2024-03-20T15:12:31Z</time>
      </trkpt>
      <trkpt lat="48.9814" lon="0.10051">
        <ele>193.4</ele>
        <time>2024-03-20T15:12:32Z</time>
      </trkpt>
      <trkpt lat="48.98134" lon="0.10042">
        <ele>193.4</ele>
        <time>2024-03-20T15:12:33Z</time>
      </trkpt>
      <trkpt lat="48.98129" lon="0.10034">
        <ele>193.4</ele>
        <time>2024-03-20T15:12:34Z</time>
      </trkpt>
      <trkpt lat="48.98124" lon="0.10025">
        <ele>193.4</ele>
        <time>2024-03-20T15:12:35Z</time>
      </trkpt>
      <trkpt lat="48.9812" lon="0.10016">
        <ele>193.4</ele>
        <time>2024-03-20T15:12:36Z</time>
      </trkpt>
      <trkpt lat="48.98115" lon="0.10007">
        <ele>193.4</ele>
        <time>2024-03-20T15:12:37Z</time>
      </trkpt>
      <trkpt lat="48.98111" lon="0.09998">
        <ele>193.4</ele>
        <time>2024-03-20T15:12:38Z</time>
      </trkpt>
      <trkpt lat="48.98106" lon="0.09989">
        <ele>193.4</ele>
        <time>2024-03-20T15:12:39Z</time>
      </trkpt>
      <trkpt lat="48.98102" lon="0.0998">
        <ele>193.4</ele>
        <time>2024-03-20T15:12:40Z</time>
      </trkpt>
      <trkpt lat="48.98097" lon="0.09972">
        <ele>193.4</ele>
        <time>2024-03-20T15:12:41Z</time>
      </trkpt>
      <trkpt lat="48.98094" lon="0.09963">
        <ele>193.4</ele>
        <time>2024-03-20T15:12:42Z</time>
      </trkpt>
      <trkpt lat="48.98089" lon="0.09955">
        <ele>193.4</ele>
        <time>2024-03-20T15:12:43Z</time>
      </trkpt>
      <trkpt lat="48.98085" lon="0.09946">
        <ele>193.2</ele>
        <time>2024-03-20T15:12:44Z</time>
      </trkpt>
      <trkpt lat="48.9808" lon="0.09938">
        <ele>193.2</ele>
        <time>2024-03-20T15:12:45Z</time>
      </trkpt>
      <trkpt lat="48.98075" lon="0.0993">
        <ele>193.2</ele>
        <time>2024-03-20T15:12:46Z</time>
      </trkpt>
      <trkpt lat="48.98069" lon="0.09923">
        <ele>193.2</ele>
        <time>2024-03-20T15:12:47Z</time>
      </trkpt>
      <trkpt lat="48.98063" lon="0.09919">
        <ele>193.2</ele>
        <time>2024-03-20T15:12:48Z</time>
      </trkpt>
      <trkpt lat="48.98055" lon="0.09915">
        <ele>193.2</ele>
        <time>2024-03-20T15:12:49Z</time>
      </trkpt>
      <trkpt lat="48.98047" lon="0.09912">
        <ele>193.2</ele>
        <time>2024-03-20T15:12:50Z</time>
      </trkpt>
      <trkpt lat="48.9804" lon="0.0991">
        <ele>193</ele>
        <time>2024-03-20T15:12:51Z</time>
      </trkpt>
      <trkpt lat="48.98033" lon="0.09907">
        <ele>193</ele>
        <time>2024-03-20T15:12:52Z</time>
      </trkpt>
      <trkpt lat="48.98025" lon="0.09904">
        <ele>193</ele>
        <time>2024-03-20T15:12:53Z</time>
      </trkpt>
      <trkpt lat="48.98018" lon="0.09901">
        <ele>193</ele>
        <time>2024-03-20T15:12:54Z</time>
      </trkpt>
      <trkpt lat="48.98011" lon="0.09898">
        <ele>193</ele>
        <time>2024-03-20T15:12:55Z</time>
      </trkpt>
      <trkpt lat="48.98004" lon="0.09895">
        <ele>193</ele>
        <time>2024-03-20T15:12:56Z</time>
      </trkpt>
      <trkpt lat="48.97997" lon="0.09891">
        <ele>193</ele>
        <time>2024-03-20T15:12:57Z</time>
      </trkpt>
      <trkpt lat="48.97991" lon="0.09886">
        <ele>193</ele>
        <time>2024-03-20T15:12:58Z</time>
      </trkpt>
      <trkpt lat="48.97984" lon="0.09882">
        <ele>193</ele>
        <time>2024-03-20T15:12:59Z</time>
      </trkpt>
      <trkpt lat="48.97977" lon="0.09877">
        <ele>193</ele>
        <time>2024-03-20T15:13:00Z</time>
      </trkpt>
      <trkpt lat="48.9797" lon="0.09871">
        <ele>193</ele>
        <time>2024-03-20T15:13:01Z</time>
      </trkpt>
      <trkpt lat="48.97963" lon="0.09866">
        <ele>193</ele>
        <time>2024-03-20T15:13:02Z</time>
      </trkpt>
      <trkpt lat="48.97956" lon="0.0986">
        <ele>193</ele>
        <time>2024-03-20T15:13:03Z</time>
      </trkpt>
      <trkpt lat="48.97949" lon="0.09855">
        <ele>193</ele>
        <time>2024-03-20T15:13:04Z</time>
      </trkpt>
      <trkpt lat="48.97942" lon="0.0985">
        <ele>193</ele>
        <time>2024-03-20T15:13:05Z</time>
      </trkpt>
      <trkpt lat="48.97935" lon="0.09845">
        <ele>193</ele>
        <time>2024-03-20T15:13:06Z</time>
      </trkpt>
      <trkpt lat="48.97927" lon="0.09841">
        <ele>193.2</ele>
        <time>2024-03-20T15:13:07Z</time>
      </trkpt>
      <trkpt lat="48.9792" lon="0.09836">
        <ele>193.2</ele>
        <time>2024-03-20T15:13:08Z</time>
      </trkpt>
      <trkpt lat="48.97913" lon="0.09831">
        <ele>193.2</ele>
        <time>2024-03-20T15:13:09Z</time>
      </trkpt>
      <trkpt lat="48.97906" lon="0.09826">
        <ele>193.2</ele>
        <time>2024-03-20T15:13:10Z</time>
      </trkpt>
      <trkpt lat="48.97899" lon="0.09822">
        <ele>193.4</ele>
        <time>2024-03-20T15:13:11Z</time>
      </trkpt>
      <trkpt lat="48.97892" lon="0.09818">
        <ele>193.4</ele>
        <time>2024-03-20T15:13:12Z</time>
      </trkpt>
      <trkpt lat="48.97885" lon="0.09813">
        <ele>193.4</ele>
        <time>2024-03-20T15:13:13Z</time>
      </trkpt>
      <trkpt lat="48.97878" lon="0.09808">
        <ele>193.4</ele>
        <time>2024-03-20T15:13:14Z</time>
      </trkpt>
      <trkpt lat="48.97871" lon="0.09803">
        <ele>193.4</ele>
        <time>2024-03-20T15:13:15Z</time>
      </trkpt>
      <trkpt lat="48.97864" lon="0.09798">
        <ele>193.4</ele>
        <time>2024-03-20T15:13:16Z</time>
      </trkpt>
      <trkpt lat="48.97857" lon="0.09794">
        <ele>193.4</ele>
        <time>2024-03-20T15:13:17Z</time>
      </trkpt>
      <trkpt lat="48.97851" lon="0.0979">
        <ele>193.4</ele>
        <time>2024-03-20T15:13:18Z</time>
      </trkpt>
      <trkpt lat="48.97843" lon="0.09785">
        <ele>193.2</ele>
        <time>2024-03-20T15:13:19Z</time>
      </trkpt>
      <trkpt lat="48.97836" lon="0.09781">
        <ele>193.2</ele>
        <time>2024-03-20T15:13:20Z</time>
      </trkpt>
      <trkpt lat="48.97829" lon="0.09777">
        <ele>193.2</ele>
        <time>2024-03-20T15:13:21Z</time>
      </trkpt>
      <trkpt lat="48.97822" lon="0.09773">
        <ele>193.2</ele>
        <time>2024-03-20T15:13:22Z</time>
      </trkpt>
      <trkpt lat="48.97815" lon="0.09768">
        <ele>193.2</ele>
        <time>2024-03-20T15:13:23Z</time>
      </trkpt>
      <trkpt lat="48.97808" lon="0.09764">
        <ele>193.2</ele>
        <time>2024-03-20T15:13:24Z</time>
      </trkpt>
      <trkpt lat="48.97801" lon="0.09759">
        <ele>193.2</ele>
        <time>2024-03-20T15:13:25Z</time>
      </trkpt>
      <trkpt lat="48.97794" lon="0.09754">
        <ele>193.2</ele>
        <time>2024-03-20T15:13:26Z</time>
      </trkpt>
      <trkpt lat="48.97787" lon="0.0975">
        <ele>193.2</ele>
        <time>2024-03-20T15:13:27Z</time>
      </trkpt>
      <trkpt lat="48.9778" lon="0.09745">
        <ele>193.2</ele>
        <time>2024-03-20T15:13:28Z</time>
      </trkpt>
      <trkpt lat="48.97773" lon="0.09741">
        <ele>193.2</ele>
        <time>2024-03-20T15:13:29Z</time>
      </trkpt>
      <trkpt lat="48.97766" lon="0.09736">
        <ele>193.2</ele>
        <time>2024-03-20T15:13:30Z</time>
      </trkpt>
      <trkpt lat="48.97759" lon="0.09732">
        <ele>193.4</ele>
        <time>2024-03-20T15:13:31Z</time>
      </trkpt>
      <trkpt lat="48.97752" lon="0.09727">
        <ele>193.4</ele>
        <time>2024-03-20T15:13:32Z</time>
      </trkpt>
      <trkpt lat="48.97745" lon="0.09723">
        <ele>193.4</ele>
        <time>2024-03-20T15:13:33Z</time>
      </trkpt>
      <trkpt lat="48.97738" lon="0.09719">
        <ele>193.4</ele>
        <time>2024-03-20T15:13:34Z</time>
      </trkpt>
      <trkpt lat="48.97732" lon="0.09715">
        <ele>193.4</ele>
        <time>2024-03-20T15:13:35Z</time>
      </trkpt>
      <trkpt lat="48.97725" lon="0.09711">
        <ele>193.4</ele>
        <time>2024-03-20T15:13:36Z</time>
      </trkpt>
      <trkpt lat="48.97719" lon="0.09708">
        <ele>193.6</ele>
        <time>2024-03-20T15:13:37Z</time>
      </trkpt>
      <trkpt lat="48.97712" lon="0.09704">
        <ele>193.6</ele>
        <time>2024-03-20T15:13:38Z</time>
      </trkpt>
      <trkpt lat="48.97705" lon="0.097">
        <ele>193.6</ele>
        <time>2024-03-20T15:13:39Z</time>
      </trkpt>
      <trkpt lat="48.97698" lon="0.09696">
        <ele>193.8</ele>
        <time>2024-03-20T15:13:40Z</time>
      </trkpt>
      <trkpt lat="48.97692" lon="0.09691">
        <ele>193.8</ele>
        <time>2024-03-20T15:13:41Z</time>
      </trkpt>
      <trkpt lat="48.97685" lon="0.09687">
        <ele>194</ele>
        <time>2024-03-20T15:13:42Z</time>
      </trkpt>
      <trkpt lat="48.97678" lon="0.09682">
        <ele>194</ele>
        <time>2024-03-20T15:13:43Z</time>
      </trkpt>
      <trkpt lat="48.97671" lon="0.09677">
        <ele>194.2</ele>
        <time>2024-03-20T15:13:44Z</time>
      </trkpt>
      <trkpt lat="48.97664" lon="0.09673">
        <ele>194.4</ele>
        <time>2024-03-20T15:13:45Z</time>
      </trkpt>
      <trkpt lat="48.97657" lon="0.09668">
        <ele>194.6</ele>
        <time>2024-03-20T15:13:46Z</time>
      </trkpt>
      <trkpt lat="48.97651" lon="0.09663">
        <ele>194.8</ele>
        <time>2024-03-20T15:13:47Z</time>
      </trkpt>
      <trkpt lat="48.97644" lon="0.09657">
        <ele>195</ele>
        <time>2024-03-20T15:13:48Z</time>
      </trkpt>
      <trkpt lat="48.97637" lon="0.09652">
        <ele>195</ele>
        <time>2024-03-20T15:13:49Z</time>
      </trkpt>
      <trkpt lat="48.97631" lon="0.09646">
        <ele>195</ele>
        <time>2024-03-20T15:13:50Z</time>
      </trkpt>
      <trkpt lat="48.97625" lon="0.09641">
        <ele>195</ele>
        <time>2024-03-20T15:13:51Z</time>
      </trkpt>
      <trkpt lat="48.97618" lon="0.09635">
        <ele>195.2</ele>
        <time>2024-03-20T15:13:52Z</time>
      </trkpt>
      <trkpt lat="48.97612" lon="0.09629">
        <ele>195.2</ele>
        <time>2024-03-20T15:13:53Z</time>
      </trkpt>
      <trkpt lat="48.97606" lon="0.09623">
        <ele>195.2</ele>
        <time>2024-03-20T15:13:54Z</time>
      </trkpt>
      <trkpt lat="48.97599" lon="0.09616">
        <ele>195.2</ele>
        <time>2024-03-20T15:13:55Z</time>
      </trkpt>
      <trkpt lat="48.97593" lon="0.09611">
        <ele>195.2</ele>
        <time>2024-03-20T15:13:56Z</time>
      </trkpt>
      <trkpt lat="48.97586" lon="0.09605">
        <ele>195.2</ele>
        <time>2024-03-20T15:13:57Z</time>
      </trkpt>
      <trkpt lat="48.9758" lon="0.096">
        <ele>195.2</ele>
        <time>2024-03-20T15:13:58Z</time>
      </trkpt>
      <trkpt lat="48.97573" lon="0.09595">
        <ele>195.2</ele>
        <time>2024-03-20T15:13:59Z</time>
      </trkpt>
      <trkpt lat="48.97565" lon="0.0959">
        <ele>195.4</ele>
        <time>2024-03-20T15:14:00Z</time>
      </trkpt>
      <trkpt lat="48.97558" lon="0.09585">
        <ele>195.4</ele>
        <time>2024-03-20T15:14:01Z</time>
      </trkpt>
      <trkpt lat="48.97551" lon="0.0958">
        <ele>195.4</ele>
        <time>2024-03-20T15:14:02Z</time>
      </trkpt>
      <trkpt lat="48.97545" lon="0.09575">
        <ele>195.4</ele>
        <time>2024-03-20T15:14:03Z</time>
      </trkpt>
      <trkpt lat="48.97538" lon="0.0957">
        <ele>195.4</ele>
        <time>2024-03-20T15:14:04Z</time>
      </trkpt>
      <trkpt lat="48.97531" lon="0.09565">
        <ele>195.4</ele>
        <time>2024-03-20T15:14:05Z</time>
      </trkpt>
      <trkpt lat="48.97525" lon="0.0956">
        <ele>195.4</ele>
        <time>2024-03-20T15:14:06Z</time>
      </trkpt>
      <trkpt lat="48.97518" lon="0.09554">
        <ele>195.4</ele>
        <time>2024-03-20T15:14:07Z</time>
      </trkpt>
      <trkpt lat="48.97511" lon="0.09549">
        <ele>195.4</ele>
        <time>2024-03-20T15:14:08Z</time>
      </trkpt>
      <trkpt lat="48.97504" lon="0.09544">
        <ele>195.4</ele>
        <time>2024-03-20T15:14:09Z</time>
      </trkpt>
      <trkpt lat="48.97497" lon="0.0954">
        <ele>195.4</ele>
        <time>2024-03-20T15:14:10Z</time>
      </trkpt>
      <trkpt lat="48.97489" lon="0.09536">
        <ele>195.4</ele>
        <time>2024-03-20T15:14:11Z</time>
      </trkpt>
      <trkpt lat="48.97482" lon="0.09533">
        <ele>195.4</ele>
        <time>2024-03-20T15:14:12Z</time>
      </trkpt>
      <trkpt lat="48.97475" lon="0.09529">
        <ele>195.4</ele>
        <time>2024-03-20T15:14:13Z</time>
      </trkpt>
      <trkpt lat="48.97467" lon="0.09525">
        <ele>195.2</ele>
        <time>2024-03-20T15:14:14Z</time>
      </trkpt>
      <trkpt lat="48.9746" lon="0.09522">
        <ele>195.2</ele>
        <time>2024-03-20T15:14:15Z</time>
      </trkpt>
      <trkpt lat="48.97452" lon="0.09519">
        <ele>195</ele>
        <time>2024-03-20T15:14:16Z</time>
      </trkpt>
      <trkpt lat="48.97444" lon="0.09516">
        <ele>195</ele>
        <time>2024-03-20T15:14:17Z</time>
      </trkpt>
      <trkpt lat="48.97437" lon="0.09512">
        <ele>195</ele>
        <time>2024-03-20T15:14:18Z</time>
      </trkpt>
      <trkpt lat="48.97429" lon="0.09509">
        <ele>195</ele>
        <time>2024-03-20T15:14:19Z</time>
      </trkpt>
      <trkpt lat="48.97421" lon="0.09506">
        <ele>195</ele>
        <time>2024-03-20T15:14:20Z</time>
      </trkpt>
      <trkpt lat="48.97414" lon="0.09503">
        <ele>195</ele>
        <time>2024-03-20T15:14:21Z</time>
      </trkpt>
      <trkpt lat="48.97406" lon="0.095">
        <ele>195</ele>
        <time>2024-03-20T15:14:22Z</time>
      </trkpt>
      <trkpt lat="48.97399" lon="0.09498">
        <ele>195</ele>
        <time>2024-03-20T15:14:23Z</time>
      </trkpt>
      <trkpt lat="48.97391" lon="0.09497">
        <ele>195</ele>
        <time>2024-03-20T15:14:24Z</time>
      </trkpt>
      <trkpt lat="48.97383" lon="0.09496">
        <ele>195</ele>
        <time>2024-03-20T15:14:25Z</time>
      </trkpt>
      <trkpt lat="48.97375" lon="0.09497">
        <ele>195</ele>
        <time>2024-03-20T15:14:26Z</time>
      </trkpt>
      <trkpt lat="48.97368" lon="0.09499">
        <ele>195</ele>
        <time>2024-03-20T15:14:27Z</time>
      </trkpt>
      <trkpt lat="48.9736" lon="0.09501">
        <ele>195</ele>
        <time>2024-03-20T15:14:28Z</time>
      </trkpt>
      <trkpt lat="48.97352" lon="0.09502">
        <ele>195</ele>
        <time>2024-03-20T15:14:29Z</time>
      </trkpt>
      <trkpt lat="48.97344" lon="0.09503">
        <ele>195.2</ele>
        <time>2024-03-20T15:14:30Z</time>
      </trkpt>
      <trkpt lat="48.97337" lon="0.09503">
        <ele>195.4</ele>
        <time>2024-03-20T15:14:31Z</time>
      </trkpt>
      <trkpt lat="48.97329" lon="0.09502">
        <ele>195.6</ele>
        <time>2024-03-20T15:14:32Z</time>
      </trkpt>
      <trkpt lat="48.97321" lon="0.095">
        <ele>195.6</ele>
        <time>2024-03-20T15:14:33Z</time>
      </trkpt>
      <trkpt lat="48.97314" lon="0.09497">
        <ele>195.6</ele>
        <time>2024-03-20T15:14:34Z</time>
      </trkpt>
      <trkpt lat="48.97307" lon="0.09494">
        <ele>195.8</ele>
        <time>2024-03-20T15:14:35Z</time>
      </trkpt>
      <trkpt lat="48.97299" lon="0.0949">
        <ele>195.8</ele>
        <time>2024-03-20T15:14:36Z</time>
      </trkpt>
      <trkpt lat="48.97292" lon="0.09487">
        <ele>195.8</ele>
        <time>2024-03-20T15:14:37Z</time>
      </trkpt>
      <trkpt lat="48.97284" lon="0.09485">
        <ele>195.8</ele>
        <time>2024-03-20T15:14:38Z</time>
      </trkpt>
      <trkpt lat="48.97277" lon="0.09483">
        <ele>195.8</ele>
        <time>2024-03-20T15:14:39Z</time>
      </trkpt>
      <trkpt lat="48.97269" lon="0.09483">
        <ele>196</ele>
        <time>2024-03-20T15:14:40Z</time>
      </trkpt>
      <trkpt lat="48.97261" lon="0.09484">
        <ele>196</ele>
        <time>2024-03-20T15:14:41Z</time>
      </trkpt>
      <trkpt lat="48.97254" lon="0.09487">
        <ele>196</ele>
        <time>2024-03-20T15:14:42Z</time>
      </trkpt>
      <trkpt lat="48.97246" lon="0.09491">
        <ele>196.2</ele>
        <time>2024-03-20T15:14:43Z</time>
      </trkpt>
      <trkpt lat="48.97239" lon="0.09496">
        <ele>196.2</ele>
        <time>2024-03-20T15:14:44Z</time>
      </trkpt>
      <trkpt lat="48.97231" lon="0.09502">
        <ele>196.2</ele>
        <time>2024-03-20T15:14:45Z</time>
      </trkpt>
      <trkpt lat="48.97225" lon="0.09508">
        <ele>196.2</ele>
        <time>2024-03-20T15:14:46Z</time>
      </trkpt>
      <trkpt lat="48.97218" lon="0.09514">
        <ele>196.2</ele>
        <time>2024-03-20T15:14:47Z</time>
      </trkpt>
      <trkpt lat="48.97212" lon="0.09519">
        <ele>196.4</ele>
        <time>2024-03-20T15:14:48Z</time>
      </trkpt>
      <trkpt lat="48.97205" lon="0.09525">
        <ele>196.4</ele>
        <time>2024-03-20T15:14:49Z</time>
      </trkpt>
      <trkpt lat="48.97199" lon="0.09531">
        <ele>196.4</ele>
        <time>2024-03-20T15:14:50Z</time>
      </trkpt>
      <trkpt lat="48.97193" lon="0.09538">
        <ele>196.4</ele>
        <time>2024-03-20T15:14:51Z</time>
      </trkpt>
      <trkpt lat="48.97187" lon="0.09544">
        <ele>196.6</ele>
        <time>2024-03-20T15:14:52Z</time>
      </trkpt>
      <trkpt lat="48.97181" lon="0.0955">
        <ele>197</ele>
        <time>2024-03-20T15:14:53Z</time>
      </trkpt>
      <trkpt lat="48.97174" lon="0.09557">
        <ele>197.2</ele>
        <time>2024-03-20T15:14:54Z</time>
      </trkpt>
      <trkpt lat="48.97168" lon="0.09563">
        <ele>197.6</ele>
        <time>2024-03-20T15:14:55Z</time>
      </trkpt>
      <trkpt lat="48.97162" lon="0.09569">
        <ele>197.8</ele>
        <time>2024-03-20T15:14:56Z</time>
      </trkpt>
      <trkpt lat="48.97155" lon="0.09575">
        <ele>198.2</ele>
        <time>2024-03-20T15:14:57Z</time>
      </trkpt>
      <trkpt lat="48.97148" lon="0.09581">
        <ele>198.4</ele>
        <time>2024-03-20T15:14:58Z</time>
      </trkpt>
      <trkpt lat="48.97142" lon="0.09588">
        <ele>198.4</ele>
        <time>2024-03-20T15:14:59Z</time>
      </trkpt>
      <trkpt lat="48.97135" lon="0.09594">
        <ele>198.8</ele>
        <time>2024-03-20T15:15:00Z</time>
      </trkpt>
      <trkpt lat="48.97128" lon="0.096">
        <ele>198.8</ele>
        <time>2024-03-20T15:15:01Z</time>
      </trkpt>
      <trkpt lat="48.97122" lon="0.09606">
        <ele>199</ele>
        <time>2024-03-20T15:15:02Z</time>
      </trkpt>
      <trkpt lat="48.97115" lon="0.09612">
        <ele>199</ele>
        <time>2024-03-20T15:15:03Z</time>
      </trkpt>
      <trkpt lat="48.97109" lon="0.09618">
        <ele>199.2</ele>
        <time>2024-03-20T15:15:04Z</time>
      </trkpt>
      <trkpt lat="48.97102" lon="0.09624">
        <ele>199.2</ele>
        <time>2024-03-20T15:15:05Z</time>
      </trkpt>
      <trkpt lat="48.97095" lon="0.09629">
        <ele>199.2</ele>
        <time>2024-03-20T15:15:06Z</time>
      </trkpt>
      <trkpt lat="48.97089" lon="0.09633">
        <ele>199.2</ele>
        <time>2024-03-20T15:15:07Z</time>
      </trkpt>
      <trkpt lat="48.97082" lon="0.09638">
        <ele>199</ele>
        <time>2024-03-20T15:15:08Z</time>
      </trkpt>
      <trkpt lat="48.97075" lon="0.09642">
        <ele>199.2</ele>
        <time>2024-03-20T15:15:09Z</time>
      </trkpt>
      <trkpt lat="48.97067" lon="0.09646">
        <ele>199.2</ele>
        <time>2024-03-20T15:15:10Z</time>
      </trkpt>
      <trkpt lat="48.97059" lon="0.0965">
        <ele>199.4</ele>
        <time>2024-03-20T15:15:11Z</time>
      </trkpt>
      <trkpt lat="48.97052" lon="0.09653">
        <ele>199.4</ele>
        <time>2024-03-20T15:15:12Z</time>
      </trkpt>
      <trkpt lat="48.97044" lon="0.09657">
        <ele>199.2</ele>
        <time>2024-03-20T15:15:13Z</time>
      </trkpt>
      <trkpt lat="48.97036" lon="0.0966">
        <ele>199.2</ele>
        <time>2024-03-20T15:15:14Z</time>
      </trkpt>
      <trkpt lat="48.97029" lon="0.09664">
        <ele>199.2</ele>
        <time>2024-03-20T15:15:15Z</time>
      </trkpt>
      <trkpt lat="48.97022" lon="0.09667">
        <ele>199.4</ele>
        <time>2024-03-20T15:15:16Z</time>
      </trkpt>
      <trkpt lat="48.97014" lon="0.09671">
        <ele>199.4</ele>
        <time>2024-03-20T15:15:17Z</time>
      </trkpt>
      <trkpt lat="48.97007" lon="0.09675">
        <ele>199.4</ele>
        <time>2024-03-20T15:15:18Z</time>
      </trkpt>
      <trkpt lat="48.96999" lon="0.09679">
        <ele>199.6</ele>
        <time>2024-03-20T15:15:19Z</time>
      </trkpt>
      <trkpt lat="48.96992" lon="0.09682">
        <ele>199.6</ele>
        <time>2024-03-20T15:15:20Z</time>
      </trkpt>
      <trkpt lat="48.96984" lon="0.09684">
        <ele>199.6</ele>
        <time>2024-03-20T15:15:21Z</time>
      </trkpt>
      <trkpt lat="48.96977" lon="0.09687">
        <ele>199.8</ele>
        <time>2024-03-20T15:15:22Z</time>
      </trkpt>
      <trkpt lat="48.96969" lon="0.0969">
        <ele>199.8</ele>
        <time>2024-03-20T15:15:23Z</time>
      </trkpt>
      <trkpt lat="48.96962" lon="0.09693">
        <ele>200</ele>
        <time>2024-03-20T15:15:24Z</time>
      </trkpt>
      <trkpt lat="48.96955" lon="0.09695">
        <ele>200.2</ele>
        <time>2024-03-20T15:15:25Z</time>
      </trkpt>
      <trkpt lat="48.96947" lon="0.09698">
        <ele>200.4</ele>
        <time>2024-03-20T15:15:26Z</time>
      </trkpt>
      <trkpt lat="48.9694" lon="0.097">
        <ele>200.4</ele>
        <time>2024-03-20T15:15:27Z</time>
      </trkpt>
      <trkpt lat="48.96933" lon="0.09702">
        <ele>200.4</ele>
        <time>2024-03-20T15:15:28Z</time>
      </trkpt>
      <trkpt lat="48.96925" lon="0.09703">
        <ele>200.6</ele>
        <time>2024-03-20T15:15:29Z</time>
      </trkpt>
      <trkpt lat="48.96918" lon="0.09704">
        <ele>200.6</ele>
        <time>2024-03-20T15:15:30Z</time>
      </trkpt>
      <trkpt lat="48.9691" lon="0.09705">
        <ele>200.6</ele>
        <time>2024-03-20T15:15:31Z</time>
      </trkpt>
      <trkpt lat="48.96903" lon="0.09707">
        <ele>200.6</ele>
        <time>2024-03-20T15:15:32Z</time>
      </trkpt>
      <trkpt lat="48.96895" lon="0.09708">
        <ele>200.6</ele>
        <time>2024-03-20T15:15:33Z</time>
      </trkpt>
      <trkpt lat="48.96888" lon="0.09708">
        <ele>200.6</ele>
        <time>2024-03-20T15:15:34Z</time>
      </trkpt>
      <trkpt lat="48.96881" lon="0.09708">
        <ele>200.6</ele>
        <time>2024-03-20T15:15:35Z</time>
      </trkpt>
      <trkpt lat="48.96874" lon="0.09709">
        <ele>200.6</ele>
        <time>2024-03-20T15:15:36Z</time>
      </trkpt>
      <trkpt lat="48.96867" lon="0.0971">
        <ele>200.6</ele>
        <time>2024-03-20T15:15:37Z</time>
      </trkpt>
      <trkpt lat="48.96859" lon="0.09711">
        <ele>200.6</ele>
        <time>2024-03-20T15:15:38Z</time>
      </trkpt>
      <trkpt lat="48.96852" lon="0.09712">
        <ele>200.6</ele>
        <time>2024-03-20T15:15:39Z</time>
      </trkpt>
      <trkpt lat="48.96844" lon="0.09714">
        <ele>200.8</ele>
        <time>2024-03-20T15:15:40Z</time>
      </trkpt>
      <trkpt lat="48.96837" lon="0.09714">
        <ele>200.8</ele>
        <time>2024-03-20T15:15:41Z</time>
      </trkpt>
      <trkpt lat="48.9683" lon="0.09716">
        <ele>200.8</ele>
        <time>2024-03-20T15:15:42Z</time>
      </trkpt>
      <trkpt lat="48.96822" lon="0.09717">
        <ele>200.8</ele>
        <time>2024-03-20T15:15:43Z</time>
      </trkpt>
      <trkpt lat="48.96815" lon="0.09718">
        <ele>200.8</ele>
        <time>2024-03-20T15:15:44Z</time>
      </trkpt>
      <trkpt lat="48.96807" lon="0.0972">
        <ele>200.8</ele>
        <time>2024-03-20T15:15:45Z</time>
      </trkpt>
      <trkpt lat="48.968" lon="0.09721">
        <ele>200.8</ele>
        <time>2024-03-20T15:15:46Z</time>
      </trkpt>
      <trkpt lat="48.96793" lon="0.09724">
        <ele>200.8</ele>
        <time>2024-03-20T15:15:47Z</time>
      </trkpt>
      <trkpt lat="48.96786" lon="0.09726">
        <ele>200.8</ele>
        <time>2024-03-20T15:15:48Z</time>
      </trkpt>
      <trkpt lat="48.96779" lon="0.09729">
        <ele>201</ele>
        <time>2024-03-20T15:15:49Z</time>
      </trkpt>
      <trkpt lat="48.96772" lon="0.09731">
        <ele>201</ele>
        <time>2024-03-20T15:15:50Z</time>
      </trkpt>
      <trkpt lat="48.96765" lon="0.09734">
        <ele>201.2</ele>
        <time>2024-03-20T15:15:51Z</time>
      </trkpt>
      <trkpt lat="48.96758" lon="0.09736">
        <ele>201.2</ele>
        <time>2024-03-20T15:15:52Z</time>
      </trkpt>
      <trkpt lat="48.96751" lon="0.09739">
        <ele>201.2</ele>
        <time>2024-03-20T15:15:53Z</time>
      </trkpt>
      <trkpt lat="48.96744" lon="0.09741">
        <ele>201.2</ele>
        <time>2024-03-20T15:15:54Z</time>
      </trkpt>
      <trkpt lat="48.96737" lon="0.09744">
        <ele>201.4</ele>
        <time>2024-03-20T15:15:55Z</time>
      </trkpt>
      <trkpt lat="48.9673" lon="0.09747">
        <ele>201.4</ele>
        <time>2024-03-20T15:15:56Z</time>
      </trkpt>
      <trkpt lat="48.96723" lon="0.09749">
        <ele>201.4</ele>
        <time>2024-03-20T15:15:57Z</time>
      </trkpt>
      <trkpt lat="48.96716" lon="0.09751">
        <ele>201.6</ele>
        <time>2024-03-20T15:15:58Z</time>
      </trkpt>
      <trkpt lat="48.96709" lon="0.09753">
        <ele>201.6</ele>
        <time>2024-03-20T15:15:59Z</time>
      </trkpt>
      <trkpt lat="48.96702" lon="0.09756">
        <ele>201.8</ele>
        <time>2024-03-20T15:16:00Z</time>
      </trkpt>
      <trkpt lat="48.96695" lon="0.09759">
        <ele>201.8</ele>
        <time>2024-03-20T15:16:01Z</time>
      </trkpt>
      <trkpt lat="48.96688" lon="0.09763">
        <ele>202</ele>
        <time>2024-03-20T15:16:02Z</time>
      </trkpt>
      <trkpt lat="48.96681" lon="0.09766">
        <ele>202.2</ele>
        <time>2024-03-20T15:16:03Z</time>
      </trkpt>
      <trkpt lat="48.96675" lon="0.09771">
        <ele>202.2</ele>
        <time>2024-03-20T15:16:04Z</time>
      </trkpt>
      <trkpt lat="48.96669" lon="0.09775">
        <ele>202.2</ele>
        <time>2024-03-20T15:16:05Z</time>
      </trkpt>
      <trkpt lat="48.96663" lon="0.0978">
        <ele>202.2</ele>
        <time>2024-03-20T15:16:06Z</time>
      </trkpt>
      <trkpt lat="48.96657" lon="0.09785">
        <ele>202.2</ele>
        <time>2024-03-20T15:16:07Z</time>
      </trkpt>
      <trkpt lat="48.96652" lon="0.09791">
        <ele>202.4</ele>
        <time>2024-03-20T15:16:08Z</time>
      </trkpt>
      <trkpt lat="48.96647" lon="0.09796">
        <ele>202.4</ele>
        <time>2024-03-20T15:16:09Z</time>
      </trkpt>
      <trkpt lat="48.96642" lon="0.09801">
        <ele>202.4</ele>
        <time>2024-03-20T15:16:10Z</time>
      </trkpt>
      <trkpt lat="48.96637" lon="0.09806">
        <ele>202.4</ele>
        <time>2024-03-20T15:16:11Z</time>
      </trkpt>
      <trkpt lat="48.96632" lon="0.0981">
        <ele>202.4</ele>
        <time>2024-03-20T15:16:12Z</time>
      </trkpt>
      <trkpt lat="48.96626" lon="0.09811">
        <ele>202.4</ele>
        <time>2024-03-20T15:16:13Z</time>
      </trkpt>
      <trkpt lat="48.9662" lon="0.09812">
        <ele>202.4</ele>
        <time>2024-03-20T15:16:14Z</time>
      </trkpt>
      <trkpt lat="48.96613" lon="0.09811">
        <ele>202.4</ele>
        <time>2024-03-20T15:16:15Z</time>
      </trkpt>
      <trkpt lat="48.96607" lon="0.0981">
        <ele>202.4</ele>
        <time>2024-03-20T15:16:16Z</time>
      </trkpt>
      <trkpt lat="48.966" lon="0.09808">
        <ele>202.4</ele>
        <time>2024-03-20T15:16:17Z</time>
      </trkpt>
      <trkpt lat="48.96594" lon="0.09806">
        <ele>202.4</ele>
        <time>2024-03-20T15:16:18Z</time>
      </trkpt>
      <trkpt lat="48.96588" lon="0.09804">
        <ele>202.4</ele>
        <time>2024-03-20T15:16:19Z</time>
      </trkpt>
      <trkpt lat="48.96582" lon="0.09801">
        <ele>202.4</ele>
        <time>2024-03-20T15:16:20Z</time>
      </trkpt>
      <trkpt lat="48.96576" lon="0.09799">
        <ele>202.6</ele>
        <time>2024-03-20T15:16:21Z</time>
      </trkpt>
      <trkpt lat="48.9657" lon="0.09796">
        <ele>202.6</ele>
        <time>2024-03-20T15:16:22Z</time>
      </trkpt>
      <trkpt lat="48.96565" lon="0.09793">
        <ele>202.8</ele>
        <time>2024-03-20T15:16:23Z</time>
      </trkpt>
      <trkpt lat="48.9656" lon="0.09789">
        <ele>202.8</ele>
        <time>2024-03-20T15:16:24Z</time>
      </trkpt>
      <trkpt lat="48.96555" lon="0.09786">
        <ele>203</ele>
        <time>2024-03-20T15:16:25Z</time>
      </trkpt>
      <trkpt lat="48.9655" lon="0.09782">
        <ele>203</ele>
        <time>2024-03-20T15:16:26Z</time>
      </trkpt>
      <trkpt lat="48.96545" lon="0.09778">
        <ele>203</ele>
        <time>2024-03-20T15:16:27Z</time>
      </trkpt>
      <trkpt lat="48.9654" lon="0.09775">
        <ele>203</ele>
        <time>2024-03-20T15:16:28Z</time>
      </trkpt>
      <trkpt lat="48.96536" lon="0.09772">
        <ele>203.2</ele>
        <time>2024-03-20T15:16:29Z</time>
      </trkpt>
      <trkpt lat="48.96532" lon="0.09769">
        <ele>203.2</ele>
        <time>2024-03-20T15:16:30Z</time>
      </trkpt>
      <trkpt lat="48.96527" lon="0.09767">
        <ele>203.4</ele>
        <time>2024-03-20T15:16:31Z</time>
      </trkpt>
      <trkpt lat="48.96523" lon="0.09764">
        <ele>203.6</ele>
        <time>2024-03-20T15:16:32Z</time>
      </trkpt>
      <trkpt lat="48.96519" lon="0.09763">
        <ele>203.6</ele>
        <time>2024-03-20T15:16:33Z</time>
      </trkpt>
      <trkpt lat="48.96515" lon="0.09763">
        <ele>203.6</ele>
        <time>2024-03-20T15:16:34Z</time>
      </trkpt>
      <trkpt lat="48.96511" lon="0.09765">
        <ele>203.8</ele>
        <time>2024-03-20T15:16:35Z</time>
      </trkpt>
      <trkpt lat="48.96508" lon="0.09769">
        <ele>203.8</ele>
        <time>2024-03-20T15:16:36Z</time>
      </trkpt>
      <trkpt lat="48.96506" lon="0.09775">
        <ele>204</ele>
        <time>2024-03-20T15:16:37Z</time>
      </trkpt>
      <trkpt lat="48.96504" lon="0.09782">
        <ele>204</ele>
        <time>2024-03-20T15:16:38Z</time>
      </trkpt>
      <trkpt lat="48.96502" lon="0.09789">
        <ele>204.2</ele>
        <time>2024-03-20T15:16:39Z</time>
      </trkpt>
      <trkpt lat="48.96501" lon="0.09797">
        <ele>204.2</ele>
        <time>2024-03-20T15:16:40Z</time>
      </trkpt>
      <trkpt lat="48.965" lon="0.09806">
        <ele>204.2</ele>
        <time>2024-03-20T15:16:41Z</time>
      </trkpt>
      <trkpt lat="48.96498" lon="0.09815">
        <ele>204.4</ele>
        <time>2024-03-20T15:16:42Z</time>
      </trkpt>
      <trkpt lat="48.96497" lon="0.09825">
        <ele>204.4</ele>
        <time>2024-03-20T15:16:43Z</time>
      </trkpt>
      <trkpt lat="48.96496" lon="0.09834">
        <ele>204.4</ele>
        <time>2024-03-20T15:16:44Z</time>
      </trkpt>
      <trkpt lat="48.96495" lon="0.09845">
        <ele>204.4</ele>
        <time>2024-03-20T15:16:45Z</time>
      </trkpt>
      <trkpt lat="48.96494" lon="0.09855">
        <ele>204.4</ele>
        <time>2024-03-20T15:16:46Z</time>
      </trkpt>
      <trkpt lat="48.96493" lon="0.09866">
        <ele>204.4</ele>
        <time>2024-03-20T15:16:47Z</time>
      </trkpt>
      <trkpt lat="48.96492" lon="0.09877">
        <ele>204.4</ele>
        <time>2024-03-20T15:16:48Z</time>
      </trkpt>
      <trkpt lat="48.96491" lon="0.09889">
        <ele>204.4</ele>
        <time>2024-03-20T15:16:49Z</time>
      </trkpt>
      <trkpt lat="48.9649" lon="0.099">
        <ele>204.4</ele>
        <time>2024-03-20T15:16:50Z</time>
      </trkpt>
      <trkpt lat="48.96488" lon="0.09912">
        <ele>204.4</ele>
        <time>2024-03-20T15:16:51Z</time>
      </trkpt>
      <trkpt lat="48.96487" lon="0.09924">
        <ele>204.4</ele>
        <time>2024-03-20T15:16:52Z</time>
      </trkpt>
      <trkpt lat="48.96485" lon="0.09935">
        <ele>204.2</ele>
        <time>2024-03-20T15:16:53Z</time>
      </trkpt>
      <trkpt lat="48.96483" lon="0.09947">
        <ele>204.2</ele>
        <time>2024-03-20T15:16:54Z</time>
      </trkpt>
      <trkpt lat="48.96482" lon="0.09959">
        <ele>204</ele>
        <time>2024-03-20T15:16:55Z</time>
      </trkpt>
      <trkpt lat="48.96481" lon="0.09971">
        <ele>203.8</ele>
        <time>2024-03-20T15:16:56Z</time>
      </trkpt>
      <trkpt lat="48.9648" lon="0.09983">
        <ele>203.6</ele>
        <time>2024-03-20T15:16:57Z</time>
      </trkpt>
      <trkpt lat="48.96477" lon="0.09995">
        <ele>203.6</ele>
        <time>2024-03-20T15:16:58Z</time>
      </trkpt>
      <trkpt lat="48.96474" lon="0.10006">
        <ele>203.4</ele>
        <time>2024-03-20T15:16:59Z</time>
      </trkpt>
      <trkpt lat="48.9647" lon="0.10017">
        <ele>203.4</ele>
        <time>2024-03-20T15:17:00Z</time>
      </trkpt>
      <trkpt lat="48.96465" lon="0.10027">
        <ele>203</ele>
        <time>2024-03-20T15:17:01Z</time>
      </trkpt>
      <trkpt lat="48.9646" lon="0.10036">
        <ele>202.8</ele>
        <time>2024-03-20T15:17:02Z</time>
      </trkpt>
      <trkpt lat="48.96454" lon="0.10045">
        <ele>202.6</ele>
        <time>2024-03-20T15:17:03Z</time>
      </trkpt>
      <trkpt lat="48.96447" lon="0.10053">
        <ele>202.4</ele>
        <time>2024-03-20T15:17:04Z</time>
      </trkpt>
      <trkpt lat="48.96441" lon="0.10062">
        <ele>202</ele>
        <time>2024-03-20T15:17:05Z</time>
      </trkpt>
      <trkpt lat="48.96434" lon="0.1007">
        <ele>201.8</ele>
        <time>2024-03-20T15:17:06Z</time>
      </trkpt>
      <trkpt lat="48.96428" lon="0.10079">
        <ele>201.4</ele>
        <time>2024-03-20T15:17:07Z</time>
      </trkpt>
      <trkpt lat="48.96421" lon="0.10089">
        <ele>201.4</ele>
        <time>2024-03-20T15:17:08Z</time>
      </trkpt>
      <trkpt lat="48.96415" lon="0.10099">
        <ele>201.4</ele>
        <time>2024-03-20T15:17:09Z</time>
      </trkpt>
      <trkpt lat="48.96409" lon="0.10109">
        <ele>201</ele>
        <time>2024-03-20T15:17:10Z</time>
      </trkpt>
      <trkpt lat="48.96403" lon="0.10119">
        <ele>200.6</ele>
        <time>2024-03-20T15:17:11Z</time>
      </trkpt>
      <trkpt lat="48.96398" lon="0.10129">
        <ele>200.6</ele>
        <time>2024-03-20T15:17:12Z</time>
      </trkpt>
      <trkpt lat="48.96392" lon="0.1014">
        <ele>200.2</ele>
        <time>2024-03-20T15:17:13Z</time>
      </trkpt>
      <trkpt lat="48.96387" lon="0.1015">
        <ele>200</ele>
        <time>2024-03-20T15:17:14Z</time>
      </trkpt>
      <trkpt lat="48.96382" lon="0.1016">
        <ele>199.6</ele>
        <time>2024-03-20T15:17:15Z</time>
      </trkpt>
      <trkpt lat="48.96377" lon="0.1017">
        <ele>199.6</ele>
        <time>2024-03-20T15:17:16Z</time>
      </trkpt>
      <trkpt lat="48.96373" lon="0.1018">
        <ele>199.4</ele>
        <time>2024-03-20T15:17:17Z</time>
      </trkpt>
      <trkpt lat="48.96368" lon="0.10189">
        <ele>199</ele>
        <time>2024-03-20T15:17:18Z</time>
      </trkpt>
      <trkpt lat="48.96364" lon="0.10199">
        <ele>198.8</ele>
        <time>2024-03-20T15:17:19Z</time>
      </trkpt>
      <trkpt lat="48.9636" lon="0.10209">
        <ele>198.2</ele>
        <time>2024-03-20T15:17:20Z</time>
      </trkpt>
      <trkpt lat="48.96356" lon="0.10219">
        <ele>198</ele>
        <time>2024-03-20T15:17:21Z</time>
      </trkpt>
      <trkpt lat="48.96351" lon="0.10229">
        <ele>198</ele>
        <time>2024-03-20T15:17:22Z</time>
      </trkpt>
      <trkpt lat="48.96347" lon="0.1024">
        <ele>197.6</ele>
        <time>2024-03-20T15:17:23Z</time>
      </trkpt>
      <trkpt lat="48.96342" lon="0.1025">
        <ele>197.6</ele>
        <time>2024-03-20T15:17:24Z</time>
      </trkpt>
      <trkpt lat="48.96338" lon="0.1026">
        <ele>197.6</ele>
        <time>2024-03-20T15:17:25Z</time>
      </trkpt>
      <trkpt lat="48.96334" lon="0.1027">
        <ele>197.6</ele>
        <time>2024-03-20T15:17:26Z</time>
      </trkpt>
      <trkpt lat="48.9633" lon="0.10281">
        <ele>197.6</ele>
        <time>2024-03-20T15:17:27Z</time>
      </trkpt>
      <trkpt lat="48.96326" lon="0.10291">
        <ele>197.6</ele>
        <time>2024-03-20T15:17:28Z</time>
      </trkpt>
      <trkpt lat="48.96322" lon="0.10301">
        <ele>197.6</ele>
        <time>2024-03-20T15:17:29Z</time>
      </trkpt>
      <trkpt lat="48.96318" lon="0.10311">
        <ele>197.6</ele>
        <time>2024-03-20T15:17:30Z</time>
      </trkpt>
      <trkpt lat="48.96314" lon="0.10321">
        <ele>197.6</ele>
        <time>2024-03-20T15:17:31Z</time>
      </trkpt>
      <trkpt lat="48.96311" lon="0.10331">
        <ele>197.6</ele>
        <time>2024-03-20T15:17:32Z</time>
      </trkpt>
      <trkpt lat="48.96307" lon="0.10341">
        <ele>197.6</ele>
        <time>2024-03-20T15:17:33Z</time>
      </trkpt>
      <trkpt lat="48.96303" lon="0.10352">
        <ele>197.6</ele>
        <time>2024-03-20T15:17:34Z</time>
      </trkpt>
      <trkpt lat="48.963" lon="0.10362">
        <ele>197.6</ele>
        <time>2024-03-20T15:17:35Z</time>
      </trkpt>
      <trkpt lat="48.96295" lon="0.10372">
        <ele>197.6</ele>
        <time>2024-03-20T15:17:36Z</time>
      </trkpt>
      <trkpt lat="48.96291" lon="0.10382">
        <ele>197.6</ele>
        <time>2024-03-20T15:17:37Z</time>
      </trkpt>
      <trkpt lat="48.96287" lon="0.10392">
        <ele>197.6</ele>
        <time>2024-03-20T15:17:38Z</time>
      </trkpt>
      <trkpt lat="48.96282" lon="0.10402">
        <ele>197.6</ele>
        <time>2024-03-20T15:17:39Z</time>
      </trkpt>
      <trkpt lat="48.96278" lon="0.10412">
        <ele>197.6</ele>
        <time>2024-03-20T15:17:40Z</time>
      </trkpt>
      <trkpt lat="48.96273" lon="0.10422">
        <ele>198</ele>
        <time>2024-03-20T15:17:41Z</time>
      </trkpt>
      <trkpt lat="48.96268" lon="0.10431">
        <ele>198</ele>
        <time>2024-03-20T15:17:42Z</time>
      </trkpt>
      <trkpt lat="48.96263" lon="0.1044">
        <ele>198.2</ele>
        <time>2024-03-20T15:17:43Z</time>
      </trkpt>
      <trkpt lat="48.96257" lon="0.10449">
        <ele>198.4</ele>
        <time>2024-03-20T15:17:44Z</time>
      </trkpt>
      <trkpt lat="48.96252" lon="0.10458">
        <ele>198.8</ele>
        <time>2024-03-20T15:17:45Z</time>
      </trkpt>
      <trkpt lat="48.96246" lon="0.10466">
        <ele>198.8</ele>
        <time>2024-03-20T15:17:46Z</time>
      </trkpt>
      <trkpt lat="48.96241" lon="0.10475">
        <ele>198.8</ele>
        <time>2024-03-20T15:17:47Z</time>
      </trkpt>
      <trkpt lat="48.96236" lon="0.10483">
        <ele>198.8</ele>
        <time>2024-03-20T15:17:48Z</time>
      </trkpt>
      <trkpt lat="48.96231" lon="0.10492">
        <ele>198.8</ele>
        <time>2024-03-20T15:17:49Z</time>
      </trkpt>
      <trkpt lat="48.96227" lon="0.10502">
        <ele>198.8</ele>
        <time>2024-03-20T15:17:50Z</time>
      </trkpt>
      <trkpt lat="48.96223" lon="0.10512">
        <ele>198.8</ele>
        <time>2024-03-20T15:17:51Z</time>
      </trkpt>
      <trkpt lat="48.9622" lon="0.10523">
        <ele>198.8</ele>
        <time>2024-03-20T15:17:52Z</time>
      </trkpt>
      <trkpt lat="48.96218" lon="0.10535">
        <ele>198.8</ele>
        <time>2024-03-20T15:17:53Z</time>
      </trkpt>
      <trkpt lat="48.96217" lon="0.10547">
        <ele>199</ele>
        <time>2024-03-20T15:17:54Z</time>
      </trkpt>
      <trkpt lat="48.96218" lon="0.1056">
        <ele>199</ele>
        <time>2024-03-20T15:17:55Z</time>
      </trkpt>
      <trkpt lat="48.9622" lon="0.10572">
        <ele>199</ele>
        <time>2024-03-20T15:17:56Z</time>
      </trkpt>
      <trkpt lat="48.96223" lon="0.10584">
        <ele>199</ele>
        <time>2024-03-20T15:17:57Z</time>
      </trkpt>
      <trkpt lat="48.96226" lon="0.10597">
        <ele>199</ele>
        <time>2024-03-20T15:17:58Z</time>
      </trkpt>
      <trkpt lat="48.96229" lon="0.10609">
        <ele>199</ele>
        <time>2024-03-20T15:17:59Z</time>
      </trkpt>
      <trkpt lat="48.96232" lon="0.10622">
        <ele>199</ele>
        <time>2024-03-20T15:18:00Z</time>
      </trkpt>
      <trkpt lat="48.96235" lon="0.10635">
        <ele>199</ele>
        <time>2024-03-20T15:18:01Z</time>
      </trkpt>
      <trkpt lat="48.96238" lon="0.10648">
        <ele>199</ele>
        <time>2024-03-20T15:18:02Z</time>
      </trkpt>
      <trkpt lat="48.96242" lon="0.1066">
        <ele>198.8</ele>
        <time>2024-03-20T15:18:03Z</time>
      </trkpt>
      <trkpt lat="48.96245" lon="0.10673">
        <ele>198.8</ele>
        <time>2024-03-20T15:18:04Z</time>
      </trkpt>
      <trkpt lat="48.96248" lon="0.10686">
        <ele>198.4</ele>
        <time>2024-03-20T15:18:05Z</time>
      </trkpt>
      <trkpt lat="48.96251" lon="0.10699">
        <ele>198.2</ele>
        <time>2024-03-20T15:18:06Z</time>
      </trkpt>
      <trkpt lat="48.96254" lon="0.10712">
        <ele>198</ele>
        <time>2024-03-20T15:18:07Z</time>
      </trkpt>
      <trkpt lat="48.96257" lon="0.10725">
        <ele>197.6</ele>
        <time>2024-03-20T15:18:08Z</time>
      </trkpt>
      <trkpt lat="48.9626" lon="0.10738">
        <ele>197.4</ele>
        <time>2024-03-20T15:18:09Z</time>
      </trkpt>
      <trkpt lat="48.96262" lon="0.10751">
        <ele>196.8</ele>
        <time>2024-03-20T15:18:10Z</time>
      </trkpt>
      <trkpt lat="48.96265" lon="0.10764">
        <ele>196.4</ele>
        <time>2024-03-20T15:18:11Z</time>
      </trkpt>
      <trkpt lat="48.96268" lon="0.10777">
        <ele>196.2</ele>
        <time>2024-03-20T15:18:12Z</time>
      </trkpt>
      <trkpt lat="48.9627" lon="0.1079">
        <ele>196</ele>
        <time>2024-03-20T15:18:13Z</time>
      </trkpt>
      <trkpt lat="48.96273" lon="0.10803">
        <ele>196</ele>
        <time>2024-03-20T15:18:14Z</time>
      </trkpt>
      <trkpt lat="48.96275" lon="0.10817">
        <ele>195.6</ele>
        <time>2024-03-20T15:18:15Z</time>
      </trkpt>
      <trkpt lat="48.96278" lon="0.10831">
        <ele>195.2</ele>
        <time>2024-03-20T15:18:16Z</time>
      </trkpt>
      <trkpt lat="48.96281" lon="0.10844">
        <ele>195</ele>
        <time>2024-03-20T15:18:17Z</time>
      </trkpt>
      <trkpt lat="48.96283" lon="0.10858">
        <ele>195</ele>
        <time>2024-03-20T15:18:18Z</time>
      </trkpt>
      <trkpt lat="48.96286" lon="0.10872">
        <ele>194.4</ele>
        <time>2024-03-20T15:18:19Z</time>
      </trkpt>
      <trkpt lat="48.96289" lon="0.10887">
        <ele>194.2</ele>
        <time>2024-03-20T15:18:20Z</time>
      </trkpt>
      <trkpt lat="48.96292" lon="0.10901">
        <ele>193.6</ele>
        <time>2024-03-20T15:18:21Z</time>
      </trkpt>
      <trkpt lat="48.96295" lon="0.10915">
        <ele>193.4</ele>
        <time>2024-03-20T15:18:22Z</time>
      </trkpt>
      <trkpt lat="48.96298" lon="0.1093">
        <ele>193</ele>
        <time>2024-03-20T15:18:23Z</time>
      </trkpt>
      <trkpt lat="48.96301" lon="0.10944">
        <ele>192.8</ele>
        <time>2024-03-20T15:18:24Z</time>
      </trkpt>
      <trkpt lat="48.96305" lon="0.10958">
        <ele>192.4</ele>
        <time>2024-03-20T15:18:25Z</time>
      </trkpt>
      <trkpt lat="48.96309" lon="0.10972">
        <ele>191.6</ele>
        <time>2024-03-20T15:18:26Z</time>
      </trkpt>
      <trkpt lat="48.96313" lon="0.10986">
        <ele>190.8</ele>
        <time>2024-03-20T15:18:27Z</time>
      </trkpt>
      <trkpt lat="48.96317" lon="0.11001">
        <ele>190.2</ele>
        <time>2024-03-20T15:18:28Z</time>
      </trkpt>
      <trkpt lat="48.96321" lon="0.11015">
        <ele>189.8</ele>
        <time>2024-03-20T15:18:29Z</time>
      </trkpt>
      <trkpt lat="48.96325" lon="0.1103">
        <ele>189.2</ele>
        <time>2024-03-20T15:18:30Z</time>
      </trkpt>
      <trkpt lat="48.96329" lon="0.11045">
        <ele>189</ele>
        <time>2024-03-20T15:18:31Z</time>
      </trkpt>
      <trkpt lat="48.96334" lon="0.1106">
        <ele>188.6</ele>
        <time>2024-03-20T15:18:32Z</time>
      </trkpt>
      <trkpt lat="48.96338" lon="0.11076">
        <ele>188.4</ele>
        <time>2024-03-20T15:18:33Z</time>
      </trkpt>
      <trkpt lat="48.96342" lon="0.11092">
        <ele>187.8</ele>
        <time>2024-03-20T15:18:34Z</time>
      </trkpt>
      <trkpt lat="48.96347" lon="0.11107">
        <ele>187.2</ele>
        <time>2024-03-20T15:18:35Z</time>
      </trkpt>
      <trkpt lat="48.96351" lon="0.11123">
        <ele>187.2</ele>
        <time>2024-03-20T15:18:36Z</time>
      </trkpt>
      <trkpt lat="48.96355" lon="0.1114">
        <ele>186.6</ele>
        <time>2024-03-20T15:18:37Z</time>
      </trkpt>
      <trkpt lat="48.9636" lon="0.11155">
        <ele>186</ele>
        <time>2024-03-20T15:18:38Z</time>
      </trkpt>
      <trkpt lat="48.96365" lon="0.11171">
        <ele>185.4</ele>
        <time>2024-03-20T15:18:39Z</time>
      </trkpt>
      <trkpt lat="48.96369" lon="0.11187">
        <ele>185</ele>
        <time>2024-03-20T15:18:40Z</time>
      </trkpt>
      <trkpt lat="48.96374" lon="0.11202">
        <ele>184.4</ele>
        <time>2024-03-20T15:18:41Z</time>
      </trkpt>
      <trkpt lat="48.96379" lon="0.11217">
        <ele>183.4</ele>
        <time>2024-03-20T15:18:42Z</time>
      </trkpt>
      <trkpt lat="48.96384" lon="0.11232">
        <ele>182.8</ele>
        <time>2024-03-20T15:18:43Z</time>
      </trkpt>
      <trkpt lat="48.96389" lon="0.11248">
        <ele>182.4</ele>
        <time>2024-03-20T15:18:44Z</time>
      </trkpt>
      <trkpt lat="48.96395" lon="0.11263">
        <ele>182</ele>
        <time>2024-03-20T15:18:45Z</time>
      </trkpt>
      <trkpt lat="48.96401" lon="0.11279">
        <ele>181.4</ele>
        <time>2024-03-20T15:18:46Z</time>
      </trkpt>
      <trkpt lat="48.96406" lon="0.11294">
        <ele>180.6</ele>
        <time>2024-03-20T15:18:47Z</time>
      </trkpt>
      <trkpt lat="48.96412" lon="0.1131">
        <ele>180</ele>
        <time>2024-03-20T15:18:48Z</time>
      </trkpt>
      <trkpt lat="48.96418" lon="0.11325">
        <ele>179.2</ele>
        <time>2024-03-20T15:18:49Z</time>
      </trkpt>
      <trkpt lat="48.96424" lon="0.11341">
        <ele>178.4</ele>
        <time>2024-03-20T15:18:50Z</time>
      </trkpt>
      <trkpt lat="48.9643" lon="0.11356">
        <ele>177.4</ele>
        <time>2024-03-20T15:18:51Z</time>
      </trkpt>
      <trkpt lat="48.96436" lon="0.11371">
        <ele>176.8</ele>
        <time>2024-03-20T15:18:52Z</time>
      </trkpt>
      <trkpt lat="48.96442" lon="0.11386">
        <ele>176.2</ele>
        <time>2024-03-20T15:18:53Z</time>
      </trkpt>
      <trkpt lat="48.96447" lon="0.11401">
        <ele>176</ele>
        <time>2024-03-20T15:18:54Z</time>
      </trkpt>
      <trkpt lat="48.96453" lon="0.11416">
        <ele>175.4</ele>
        <time>2024-03-20T15:18:55Z</time>
      </trkpt>
      <trkpt lat="48.96459" lon="0.1143">
        <ele>175.4</ele>
        <time>2024-03-20T15:18:56Z</time>
      </trkpt>
      <trkpt lat="48.96465" lon="0.11444">
        <ele>174.8</ele>
        <time>2024-03-20T15:18:57Z</time>
      </trkpt>
      <trkpt lat="48.96471" lon="0.11458">
        <ele>174.8</ele>
        <time>2024-03-20T15:18:58Z</time>
      </trkpt>
      <trkpt lat="48.96477" lon="0.11471">
        <ele>174.2</ele>
        <time>2024-03-20T15:18:59Z</time>
      </trkpt>
      <trkpt lat="48.96484" lon="0.11483">
        <ele>174</ele>
        <time>2024-03-20T15:19:00Z</time>
      </trkpt>
      <trkpt lat="48.9649" lon="0.11496">
        <ele>173.4</ele>
        <time>2024-03-20T15:19:01Z</time>
      </trkpt>
      <trkpt lat="48.96497" lon="0.11508">
        <ele>172.6</ele>
        <time>2024-03-20T15:19:02Z</time>
      </trkpt>
      <trkpt lat="48.96504" lon="0.11519">
        <ele>172</ele>
        <time>2024-03-20T15:19:03Z</time>
      </trkpt>
      <trkpt lat="48.96511" lon="0.11531">
        <ele>171.4</ele>
        <time>2024-03-20T15:19:04Z</time>
      </trkpt>
      <trkpt lat="48.96517" lon="0.11543">
        <ele>170.8</ele>
        <time>2024-03-20T15:19:05Z</time>
      </trkpt>
      <trkpt lat="48.96523" lon="0.11554">
        <ele>170.6</ele>
        <time>2024-03-20T15:19:06Z</time>
      </trkpt>
      <trkpt lat="48.96529" lon="0.11565">
        <ele>170.6</ele>
        <time>2024-03-20T15:19:07Z</time>
      </trkpt>
      <trkpt lat="48.96534" lon="0.11577">
        <ele>170.6</ele>
        <time>2024-03-20T15:19:08Z</time>
      </trkpt>
      <trkpt lat="48.96537" lon="0.1159">
        <ele>170.4</ele>
        <time>2024-03-20T15:19:09Z</time>
      </trkpt>
      <trkpt lat="48.9654" lon="0.11603">
        <ele>170.4</ele>
        <time>2024-03-20T15:19:10Z</time>
      </trkpt>
      <trkpt lat="48.96542" lon="0.11617">
        <ele>170.4</ele>
        <time>2024-03-20T15:19:11Z</time>
      </trkpt>
      <trkpt lat="48.96543" lon="0.11631">
        <ele>170.4</ele>
        <time>2024-03-20T15:19:12Z</time>
      </trkpt>
      <trkpt lat="48.96545" lon="0.11644">
        <ele>170.4</ele>
        <time>2024-03-20T15:19:13Z</time>
      </trkpt>
      <trkpt lat="48.96548" lon="0.11657">
        <ele>170.2</ele>
        <time>2024-03-20T15:19:14Z</time>
      </trkpt>
      <trkpt lat="48.96552" lon="0.1167">
        <ele>170</ele>
        <time>2024-03-20T15:19:15Z</time>
      </trkpt>
      <trkpt lat="48.96556" lon="0.11681">
        <ele>170</ele>
        <time>2024-03-20T15:19:16Z</time>
      </trkpt>
      <trkpt lat="48.96561" lon="0.11692">
        <ele>169.8</ele>
        <time>2024-03-20T15:19:17Z</time>
      </trkpt>
      <trkpt lat="48.96567" lon="0.11702">
        <ele>169.8</ele>
        <time>2024-03-20T15:19:18Z</time>
      </trkpt>
      <trkpt lat="48.96573" lon="0.11711">
        <ele>169.8</ele>
        <time>2024-03-20T15:19:19Z</time>
      </trkpt>
      <trkpt lat="48.96581" lon="0.11719">
        <ele>169.8</ele>
        <time>2024-03-20T15:19:20Z</time>
      </trkpt>
      <trkpt lat="48.96588" lon="0.11726">
        <ele>169.6</ele>
        <time>2024-03-20T15:19:21Z</time>
      </trkpt>
      <trkpt lat="48.96596" lon="0.11734">
        <ele>169.4</ele>
        <time>2024-03-20T15:19:22Z</time>
      </trkpt>
      <trkpt lat="48.96603" lon="0.11741">
        <ele>169</ele>
        <time>2024-03-20T15:19:23Z</time>
      </trkpt>
      <trkpt lat="48.96611" lon="0.11747">
        <ele>168.6</ele>
        <time>2024-03-20T15:19:24Z</time>
      </trkpt>
      <trkpt lat="48.9662" lon="0.11755">
        <ele>168.4</ele>
        <time>2024-03-20T15:19:25Z</time>
      </trkpt>
      <trkpt lat="48.96628" lon="0.11762">
        <ele>168</ele>
        <time>2024-03-20T15:19:26Z</time>
      </trkpt>
      <trkpt lat="48.96635" lon="0.1177">
        <ele>167.8</ele>
        <time>2024-03-20T15:19:27Z</time>
      </trkpt>
      <trkpt lat="48.96643" lon="0.11778">
        <ele>167.4</ele>
        <time>2024-03-20T15:19:28Z</time>
      </trkpt>
      <trkpt lat="48.96651" lon="0.11786">
        <ele>167</ele>
        <time>2024-03-20T15:19:29Z</time>
      </trkpt>
      <trkpt lat="48.96659" lon="0.11794">
        <ele>166.2</ele>
        <time>2024-03-20T15:19:30Z</time>
      </trkpt>
      <trkpt lat="48.96667" lon="0.11802">
        <ele>165.6</ele>
        <time>2024-03-20T15:19:31Z</time>
      </trkpt>
      <trkpt lat="48.96675" lon="0.11811">
        <ele>165.2</ele>
        <time>2024-03-20T15:19:32Z</time>
      </trkpt>
      <trkpt lat="48.96683" lon="0.11821">
        <ele>164.8</ele>
        <time>2024-03-20T15:19:33Z</time>
      </trkpt>
      <trkpt lat="48.9669" lon="0.11831">
        <ele>164.2</ele>
        <time>2024-03-20T15:19:34Z</time>
      </trkpt>
      <trkpt lat="48.96697" lon="0.11844">
        <ele>163.4</ele>
        <time>2024-03-20T15:19:35Z</time>
      </trkpt>
      <trkpt lat="48.96703" lon="0.11857">
        <ele>162.6</ele>
        <time>2024-03-20T15:19:36Z</time>
      </trkpt>
      <trkpt lat="48.96707" lon="0.11872">
        <ele>162</ele>
        <time>2024-03-20T15:19:37Z</time>
      </trkpt>
      <trkpt lat="48.96712" lon="0.11888">
        <ele>161</ele>
        <time>2024-03-20T15:19:38Z</time>
      </trkpt>
      <trkpt lat="48.96715" lon="0.11905">
        <ele>160.4</ele>
        <time>2024-03-20T15:19:39Z</time>
      </trkpt>
      <trkpt lat="48.96717" lon="0.11922">
        <ele>159.8</ele>
        <time>2024-03-20T15:19:40Z</time>
      </trkpt>
      <trkpt lat="48.96718" lon="0.1194">
        <ele>159</ele>
        <time>2024-03-20T15:19:41Z</time>
      </trkpt>
      <trkpt lat="48.96719" lon="0.11959">
        <ele>159</ele>
        <time>2024-03-20T15:19:42Z</time>
      </trkpt>
      <trkpt lat="48.96719" lon="0.11978">
        <ele>158</ele>
        <time>2024-03-20T15:19:43Z</time>
      </trkpt>
      <trkpt lat="48.9672" lon="0.11997">
        <ele>157.4</ele>
        <time>2024-03-20T15:19:44Z</time>
      </trkpt>
      <trkpt lat="48.9672" lon="0.12016">
        <ele>156.6</ele>
        <time>2024-03-20T15:19:45Z</time>
      </trkpt>
      <trkpt lat="48.96721" lon="0.12036">
        <ele>155.6</ele>
        <time>2024-03-20T15:19:46Z</time>
      </trkpt>
      <trkpt lat="48.96722" lon="0.12056">
        <ele>154.6</ele>
        <time>2024-03-20T15:19:47Z</time>
      </trkpt>
      <trkpt lat="48.96723" lon="0.12076">
        <ele>154</ele>
        <time>2024-03-20T15:19:48Z</time>
      </trkpt>
      <trkpt lat="48.96723" lon="0.12097">
        <ele>153.4</ele>
        <time>2024-03-20T15:19:49Z</time>
      </trkpt>
      <trkpt lat="48.96724" lon="0.12118">
        <ele>152.4</ele>
        <time>2024-03-20T15:19:50Z</time>
      </trkpt>
      <trkpt lat="48.96724" lon="0.12139">
        <ele>151.4</ele>
        <time>2024-03-20T15:19:51Z</time>
      </trkpt>
      <trkpt lat="48.96725" lon="0.1216">
        <ele>150.6</ele>
        <time>2024-03-20T15:19:52Z</time>
      </trkpt>
      <trkpt lat="48.96726" lon="0.12182">
        <ele>149.6</ele>
        <time>2024-03-20T15:19:53Z</time>
      </trkpt>
      <trkpt lat="48.96727" lon="0.12203">
        <ele>148.6</ele>
        <time>2024-03-20T15:19:54Z</time>
      </trkpt>
      <trkpt lat="48.96727" lon="0.12224">
        <ele>147.6</ele>
        <time>2024-03-20T15:19:55Z</time>
      </trkpt>
      <trkpt lat="48.96728" lon="0.12246">
        <ele>147</ele>
        <time>2024-03-20T15:19:56Z</time>
      </trkpt>
      <trkpt lat="48.9673" lon="0.12267">
        <ele>145.6</ele>
        <time>2024-03-20T15:19:57Z</time>
      </trkpt>
      <trkpt lat="48.96731" lon="0.12289">
        <ele>144.4</ele>
        <time>2024-03-20T15:19:58Z</time>
      </trkpt>
      <trkpt lat="48.96733" lon="0.1231">
        <ele>143.6</ele>
        <time>2024-03-20T15:19:59Z</time>
      </trkpt>
      <trkpt lat="48.96735" lon="0.12331">
        <ele>142.2</ele>
        <time>2024-03-20T15:20:00Z</time>
      </trkpt>
      <trkpt lat="48.96737" lon="0.12353">
        <ele>141.4</ele>
        <time>2024-03-20T15:20:01Z</time>
      </trkpt>
      <trkpt lat="48.9674" lon="0.12374">
        <ele>140.2</ele>
        <time>2024-03-20T15:20:02Z</time>
      </trkpt>
      <trkpt lat="48.96742" lon="0.12395">
        <ele>140.2</ele>
        <time>2024-03-20T15:20:03Z</time>
      </trkpt>
      <trkpt lat="48.96744" lon="0.12416">
        <ele>138.8</ele>
        <time>2024-03-20T15:20:04Z</time>
      </trkpt>
      <trkpt lat="48.96747" lon="0.12436">
        <ele>136.8</ele>
        <time>2024-03-20T15:20:05Z</time>
      </trkpt>
      <trkpt lat="48.96749" lon="0.12456">
        <ele>134.8</ele>
        <time>2024-03-20T15:20:06Z</time>
      </trkpt>
      <trkpt lat="48.96753" lon="0.12475">
        <ele>133.2</ele>
        <time>2024-03-20T15:20:07Z</time>
      </trkpt>
      <trkpt lat="48.96758" lon="0.12494">
        <ele>132.2</ele>
        <time>2024-03-20T15:20:08Z</time>
      </trkpt>
      <trkpt lat="48.96763" lon="0.12513">
        <ele>131.2</ele>
        <time>2024-03-20T15:20:09Z</time>
      </trkpt>
      <trkpt lat="48.96769" lon="0.1253">
        <ele>130.6</ele>
        <time>2024-03-20T15:20:10Z</time>
      </trkpt>
      <trkpt lat="48.96776" lon="0.12548">
        <ele>129.6</ele>
        <time>2024-03-20T15:20:11Z</time>
      </trkpt>
      <trkpt lat="48.96782" lon="0.12566">
        <ele>128.8</ele>
        <time>2024-03-20T15:20:12Z</time>
      </trkpt>
      <trkpt lat="48.96789" lon="0.12584">
        <ele>128</ele>
        <time>2024-03-20T15:20:13Z</time>
      </trkpt>
      <trkpt lat="48.96795" lon="0.12602">
        <ele>127.4</ele>
        <time>2024-03-20T15:20:14Z</time>
      </trkpt>
      <trkpt lat="48.96802" lon="0.12621">
        <ele>126.8</ele>
        <time>2024-03-20T15:20:15Z</time>
      </trkpt>
      <trkpt lat="48.96809" lon="0.1264">
        <ele>126.2</ele>
        <time>2024-03-20T15:20:16Z</time>
      </trkpt>
      <trkpt lat="48.96816" lon="0.12659">
        <ele>125.6</ele>
        <time>2024-03-20T15:20:17Z</time>
      </trkpt>
      <trkpt lat="48.96822" lon="0.12678">
        <ele>125.2</ele>
        <time>2024-03-20T15:20:18Z</time>
      </trkpt>
      <trkpt lat="48.96829" lon="0.12697">
        <ele>124.6</ele>
        <time>2024-03-20T15:20:19Z</time>
      </trkpt>
      <trkpt lat="48.96836" lon="0.12716">
        <ele>123.8</ele>
        <time>2024-03-20T15:20:20Z</time>
      </trkpt>
      <trkpt lat="48.96843" lon="0.12735">
        <ele>123.4</ele>
        <time>2024-03-20T15:20:21Z</time>
      </trkpt>
      <trkpt lat="48.96849" lon="0.12754">
        <ele>122.8</ele>
        <time>2024-03-20T15:20:22Z</time>
      </trkpt>
      <trkpt lat="48.96856" lon="0.12772">
        <ele>122.4</ele>
        <time>2024-03-20T15:20:23Z</time>
      </trkpt>
      <trkpt lat="48.96862" lon="0.12792">
        <ele>122</ele>
        <time>2024-03-20T15:20:24Z</time>
      </trkpt>
      <trkpt lat="48.96867" lon="0.12811">
        <ele>122</ele>
        <time>2024-03-20T15:20:25Z</time>
      </trkpt>
      <trkpt lat="48.96871" lon="0.12832">
        <ele>121.6</ele>
        <time>2024-03-20T15:20:26Z</time>
      </trkpt>
      <trkpt lat="48.96875" lon="0.12853">
        <ele>120.8</ele>
        <time>2024-03-20T15:20:27Z</time>
      </trkpt>
      <trkpt lat="48.96877" lon="0.12874">
        <ele>120</ele>
        <time>2024-03-20T15:20:28Z</time>
      </trkpt>
      <trkpt lat="48.96879" lon="0.12894">
        <ele>119.4</ele>
        <time>2024-03-20T15:20:29Z</time>
      </trkpt>
      <trkpt lat="48.9688" lon="0.12915">
        <ele>118.6</ele>
        <time>2024-03-20T15:20:30Z</time>
      </trkpt>
      <trkpt lat="48.96881" lon="0.12936">
        <ele>117.8</ele>
        <time>2024-03-20T15:20:31Z</time>
      </trkpt>
      <trkpt lat="48.96882" lon="0.12956">
        <ele>117</ele>
        <time>2024-03-20T15:20:32Z</time>
      </trkpt>
      <trkpt lat="48.96884" lon="0.12977">
        <ele>116.2</ele>
        <time>2024-03-20T15:20:33Z</time>
      </trkpt>
      <trkpt lat="48.96885" lon="0.12996">
        <ele>115.4</ele>
        <time>2024-03-20T15:20:34Z</time>
      </trkpt>
      <trkpt lat="48.96886" lon="0.13016">
        <ele>114.4</ele>
        <time>2024-03-20T15:20:35Z</time>
      </trkpt>
      <trkpt lat="48.96887" lon="0.13035">
        <ele>113.6</ele>
        <time>2024-03-20T15:20:36Z</time>
      </trkpt>
      <trkpt lat="48.96887" lon="0.13054">
        <ele>112.8</ele>
        <time>2024-03-20T15:20:37Z</time>
      </trkpt>
      <trkpt lat="48.96887" lon="0.13073">
        <ele>112.4</ele>
        <time>2024-03-20T15:20:38Z</time>
      </trkpt>
      <trkpt lat="48.96887" lon="0.13092">
        <ele>111.8</ele>
        <time>2024-03-20T15:20:39Z</time>
      </trkpt>
      <trkpt lat="48.96887" lon="0.1311">
        <ele>111.2</ele>
        <time>2024-03-20T15:20:40Z</time>
      </trkpt>
      <trkpt lat="48.96887" lon="0.13129">
        <ele>110.2</ele>
        <time>2024-03-20T15:20:41Z</time>
      </trkpt>
      <trkpt lat="48.96887" lon="0.13147">
        <ele>109.6</ele>
        <time>2024-03-20T15:20:42Z</time>
      </trkpt>
      <trkpt lat="48.96887" lon="0.13165">
        <ele>109.2</ele>
        <time>2024-03-20T15:20:43Z</time>
      </trkpt>
      <trkpt lat="48.96887" lon="0.13182">
        <ele>109</ele>
        <time>2024-03-20T15:20:44Z</time>
      </trkpt>
      <trkpt lat="48.96887" lon="0.132">
        <ele>108.8</ele>
        <time>2024-03-20T15:20:45Z</time>
      </trkpt>
      <trkpt lat="48.96887" lon="0.13217">
        <ele>108.8</ele>
        <time>2024-03-20T15:20:46Z</time>
      </trkpt>
      <trkpt lat="48.96887" lon="0.13233">
        <ele>108.8</ele>
        <time>2024-03-20T15:20:47Z</time>
      </trkpt>
      <trkpt lat="48.96887" lon="0.1325">
        <ele>108.6</ele>
        <time>2024-03-20T15:20:48Z</time>
      </trkpt>
      <trkpt lat="48.96887" lon="0.13267">
        <ele>108.6</ele>
        <time>2024-03-20T15:20:49Z</time>
      </trkpt>
      <trkpt lat="48.96888" lon="0.13283">
        <ele>108.6</ele>
        <time>2024-03-20T15:20:50Z</time>
      </trkpt>
      <trkpt lat="48.96887" lon="0.13299">
        <ele>108.4</ele>
        <time>2024-03-20T15:20:51Z</time>
      </trkpt>
      <trkpt lat="48.96887" lon="0.13315">
        <ele>108.4</ele>
        <time>2024-03-20T15:20:52Z</time>
      </trkpt>
      <trkpt lat="48.96887" lon="0.13331">
        <ele>108.4</ele>
        <time>2024-03-20T15:20:53Z</time>
      </trkpt>
      <trkpt lat="48.96887" lon="0.13347">
        <ele>108.4</ele>
        <time>2024-03-20T15:20:54Z</time>
      </trkpt>
      <trkpt lat="48.96887" lon="0.13362">
        <ele>108.4</ele>
        <time>2024-03-20T15:20:55Z</time>
      </trkpt>
      <trkpt lat="48.96887" lon="0.13378">
        <ele>108.4</ele>
        <time>2024-03-20T15:20:56Z</time>
      </trkpt>
      <trkpt lat="48.96887" lon="0.13394">
        <ele>108.4</ele>
        <time>2024-03-20T15:20:57Z</time>
      </trkpt>
      <trkpt lat="48.96888" lon="0.13409">
        <ele>108.4</ele>
        <time>2024-03-20T15:20:58Z</time>
      </trkpt>
      <trkpt lat="48.96889" lon="0.13424">
        <ele>108.4</ele>
        <time>2024-03-20T15:20:59Z</time>
      </trkpt>
      <trkpt lat="48.9689" lon="0.1344">
        <ele>108.4</ele>
        <time>2024-03-20T15:21:00Z</time>
      </trkpt>
      <trkpt lat="48.96891" lon="0.13455">
        <ele>108.4</ele>
        <time>2024-03-20T15:21:01Z</time>
      </trkpt>
      <trkpt lat="48.96893" lon="0.1347">
        <ele>108.2</ele>
        <time>2024-03-20T15:21:02Z</time>
      </trkpt>
      <trkpt lat="48.96896" lon="0.13485">
        <ele>108.2</ele>
        <time>2024-03-20T15:21:03Z</time>
      </trkpt>
      <trkpt lat="48.96898" lon="0.135">
        <ele>108.2</ele>
        <time>2024-03-20T15:21:04Z</time>
      </trkpt>
      <trkpt lat="48.96901" lon="0.13515">
        <ele>108.2</ele>
        <time>2024-03-20T15:21:05Z</time>
      </trkpt>
      <trkpt lat="48.96904" lon="0.1353">
        <ele>108.2</ele>
        <time>2024-03-20T15:21:06Z</time>
      </trkpt>
      <trkpt lat="48.96908" lon="0.13545">
        <ele>108.2</ele>
        <time>2024-03-20T15:21:07Z</time>
      </trkpt>
      <trkpt lat="48.96912" lon="0.1356">
        <ele>108.2</ele>
        <time>2024-03-20T15:21:08Z</time>
      </trkpt>
      <trkpt lat="48.96916" lon="0.13575">
        <ele>108.2</ele>
        <time>2024-03-20T15:21:09Z</time>
      </trkpt>
      <trkpt lat="48.96921" lon="0.13589">
        <ele>108</ele>
        <time>2024-03-20T15:21:10Z</time>
      </trkpt>
      <trkpt lat="48.96926" lon="0.13604">
        <ele>108</ele>
        <time>2024-03-20T15:21:11Z</time>
      </trkpt>
      <trkpt lat="48.96932" lon="0.13619">
        <ele>107.6</ele>
        <time>2024-03-20T15:21:12Z</time>
      </trkpt>
      <trkpt lat="48.96937" lon="0.13635">
        <ele>107.4</ele>
        <time>2024-03-20T15:21:13Z</time>
      </trkpt>
      <trkpt lat="48.96943" lon="0.1365">
        <ele>107</ele>
        <time>2024-03-20T15:21:14Z</time>
      </trkpt>
      <trkpt lat="48.96949" lon="0.13665">
        <ele>106.2</ele>
        <time>2024-03-20T15:21:15Z</time>
      </trkpt>
      <trkpt lat="48.96955" lon="0.13681">
        <ele>105.6</ele>
        <time>2024-03-20T15:21:16Z</time>
      </trkpt>
      <trkpt lat="48.9696" lon="0.13696">
        <ele>105</ele>
        <time>2024-03-20T15:21:17Z</time>
      </trkpt>
      <trkpt lat="48.96966" lon="0.13712">
        <ele>104.6</ele>
        <time>2024-03-20T15:21:18Z</time>
      </trkpt>
      <trkpt lat="48.96971" lon="0.13727">
        <ele>104.2</ele>
        <time>2024-03-20T15:21:19Z</time>
      </trkpt>
      <trkpt lat="48.96976" lon="0.13743">
        <ele>103.6</ele>
        <time>2024-03-20T15:21:20Z</time>
      </trkpt>
      <trkpt lat="48.96982" lon="0.13758">
        <ele>103</ele>
        <time>2024-03-20T15:21:21Z</time>
      </trkpt>
      <trkpt lat="48.96988" lon="0.13774">
        <ele>102.4</ele>
        <time>2024-03-20T15:21:22Z</time>
      </trkpt>
      <trkpt lat="48.96993" lon="0.1379">
        <ele>101.8</ele>
        <time>2024-03-20T15:21:23Z</time>
      </trkpt>
      <trkpt lat="48.96999" lon="0.13806">
        <ele>100.8</ele>
        <time>2024-03-20T15:21:24Z</time>
      </trkpt>
      <trkpt lat="48.97005" lon="0.13822">
        <ele>100</ele>
        <time>2024-03-20T15:21:25Z</time>
      </trkpt>
      <trkpt lat="48.97011" lon="0.13838">
        <ele>98.6</ele>
        <time>2024-03-20T15:21:26Z</time>
      </trkpt>
      <trkpt lat="48.97017" lon="0.13855">
        <ele>98</ele>
        <time>2024-03-20T15:21:27Z</time>
      </trkpt>
      <trkpt lat="48.97022" lon="0.13872">
        <ele>97.4</ele>
        <time>2024-03-20T15:21:28Z</time>
      </trkpt>
      <trkpt lat="48.97027" lon="0.13889">
        <ele>96.8</ele>
        <time>2024-03-20T15:21:29Z</time>
      </trkpt>
      <trkpt lat="48.97031" lon="0.13906">
        <ele>96.8</ele>
        <time>2024-03-20T15:21:30Z</time>
      </trkpt>
      <trkpt lat="48.97034" lon="0.13923">
        <ele>95.8</ele>
        <time>2024-03-20T15:21:31Z</time>
      </trkpt>
      <trkpt lat="48.97037" lon="0.1394">
        <ele>95.2</ele>
        <time>2024-03-20T15:21:32Z</time>
      </trkpt>
      <trkpt lat="48.97039" lon="0.13957">
        <ele>94.4</ele>
        <time>2024-03-20T15:21:33Z</time>
      </trkpt>
      <trkpt lat="48.97042" lon="0.13974">
        <ele>93.8</ele>
        <time>2024-03-20T15:21:34Z</time>
      </trkpt>
      <trkpt lat="48.97045" lon="0.1399">
        <ele>92.8</ele>
        <time>2024-03-20T15:21:35Z</time>
      </trkpt>
      <trkpt lat="48.9705" lon="0.14005">
        <ele>91.8</ele>
        <time>2024-03-20T15:21:36Z</time>
      </trkpt>
      <trkpt lat="48.97056" lon="0.14019">
        <ele>91.2</ele>
        <time>2024-03-20T15:21:37Z</time>
      </trkpt>
      <trkpt lat="48.97063" lon="0.14032">
        <ele>90.2</ele>
        <time>2024-03-20T15:21:38Z</time>
      </trkpt>
      <trkpt lat="48.97069" lon="0.14044">
        <ele>89.2</ele>
        <time>2024-03-20T15:21:39Z</time>
      </trkpt>
      <trkpt lat="48.97076" lon="0.14056">
        <ele>88.6</ele>
        <time>2024-03-20T15:21:40Z</time>
      </trkpt>
      <trkpt lat="48.97083" lon="0.14068">
        <ele>88.2</ele>
        <time>2024-03-20T15:21:41Z</time>
      </trkpt>
      <trkpt lat="48.9709" lon="0.14079">
        <ele>87.8</ele>
        <time>2024-03-20T15:21:42Z</time>
      </trkpt>
      <trkpt lat="48.97097" lon="0.14089">
        <ele>87.4</ele>
        <time>2024-03-20T15:21:43Z</time>
      </trkpt>
      <trkpt lat="48.97106" lon="0.14097">
        <ele>87.2</ele>
        <time>2024-03-20T15:21:44Z</time>
      </trkpt>
      <trkpt lat="48.97115" lon="0.14104">
        <ele>87.2</ele>
        <time>2024-03-20T15:21:45Z</time>
      </trkpt>
      <trkpt lat="48.97124" lon="0.1411">
        <ele>87</ele>
        <time>2024-03-20T15:21:46Z</time>
      </trkpt>
      <trkpt lat="48.97132" lon="0.14115">
        <ele>86.8</ele>
        <time>2024-03-20T15:21:47Z</time>
      </trkpt>
      <trkpt lat="48.97141" lon="0.14118">
        <ele>86.8</ele>
        <time>2024-03-20T15:21:48Z</time>
      </trkpt>
      <trkpt lat="48.9715" lon="0.14122">
        <ele>86.8</ele>
        <time>2024-03-20T15:21:49Z</time>
      </trkpt>
      <trkpt lat="48.97159" lon="0.14126">
        <ele>86.8</ele>
        <time>2024-03-20T15:21:50Z</time>
      </trkpt>
      <trkpt lat="48.97168" lon="0.14129">
        <ele>86.8</ele>
        <time>2024-03-20T15:21:51Z</time>
      </trkpt>
      <trkpt lat="48.97176" lon="0.14132">
        <ele>86.8</ele>
        <time>2024-03-20T15:21:52Z</time>
      </trkpt>
      <trkpt lat="48.97185" lon="0.14136">
        <ele>86.8</ele>
        <time>2024-03-20T15:21:53Z</time>
      </trkpt>
      <trkpt lat="48.97194" lon="0.1414">
        <ele>86.8</ele>
        <time>2024-03-20T15:21:54Z</time>
      </trkpt>
      <trkpt lat="48.97202" lon="0.14143">
        <ele>86.8</ele>
        <time>2024-03-20T15:21:55Z</time>
      </trkpt>
      <trkpt lat="48.9721" lon="0.14147">
        <ele>86.8</ele>
        <time>2024-03-20T15:21:56Z</time>
      </trkpt>
      <trkpt lat="48.97219" lon="0.1415">
        <ele>86.8</ele>
        <time>2024-03-20T15:21:57Z</time>
      </trkpt>
      <trkpt lat="48.97226" lon="0.14154">
        <ele>87</ele>
        <time>2024-03-20T15:21:58Z</time>
      </trkpt>
      <trkpt lat="48.97234" lon="0.14158">
        <ele>87</ele>
        <time>2024-03-20T15:21:59Z</time>
      </trkpt>
      <trkpt lat="48.97242" lon="0.14161">
        <ele>87</ele>
        <time>2024-03-20T15:22:00Z</time>
      </trkpt>
      <trkpt lat="48.97249" lon="0.14164">
        <ele>87.2</ele>
        <time>2024-03-20T15:22:01Z</time>
      </trkpt>
      <trkpt lat="48.97257" lon="0.14167">
        <ele>87.2</ele>
        <time>2024-03-20T15:22:02Z</time>
      </trkpt>
      <trkpt lat="48.97264" lon="0.14171">
        <ele>87.4</ele>
        <time>2024-03-20T15:22:03Z</time>
      </trkpt>
      <trkpt lat="48.97271" lon="0.14175">
        <ele>87.4</ele>
        <time>2024-03-20T15:22:04Z</time>
      </trkpt>
      <trkpt lat="48.97277" lon="0.14179">
        <ele>87.8</ele>
        <time>2024-03-20T15:22:05Z</time>
      </trkpt>
      <trkpt lat="48.97283" lon="0.14183">
        <ele>88.2</ele>
        <time>2024-03-20T15:22:06Z</time>
      </trkpt>
      <trkpt lat="48.97289" lon="0.14187">
        <ele>88.4</ele>
        <time>2024-03-20T15:22:07Z</time>
      </trkpt>
      <trkpt lat="48.97295" lon="0.14192">
        <ele>88.4</ele>
        <time>2024-03-20T15:22:08Z</time>
      </trkpt>
      <trkpt lat="48.97301" lon="0.14197">
        <ele>88.6</ele>
        <time>2024-03-20T15:22:09Z</time>
      </trkpt>
      <trkpt lat="48.97306" lon="0.14203">
        <ele>88.8</ele>
        <time>2024-03-20T15:22:10Z</time>
      </trkpt>
      <trkpt lat="48.97312" lon="0.1421">
        <ele>88.8</ele>
        <time>2024-03-20T15:22:11Z</time>
      </trkpt>
      <trkpt lat="48.97316" lon="0.14218">
        <ele>89</ele>
        <time>2024-03-20T15:22:12Z</time>
      </trkpt>
      <trkpt lat="48.9732" lon="0.14228">
        <ele>89</ele>
        <time>2024-03-20T15:22:13Z</time>
      </trkpt>
      <trkpt lat="48.97322" lon="0.14239">
        <ele>89</ele>
        <time>2024-03-20T15:22:14Z</time>
      </trkpt>
      <trkpt lat="48.97323" lon="0.14251">
        <ele>89</ele>
        <time>2024-03-20T15:22:15Z</time>
      </trkpt>
      <trkpt lat="48.97322" lon="0.14264">
        <ele>89</ele>
        <time>2024-03-20T15:22:16Z</time>
      </trkpt>
      <trkpt lat="48.97319" lon="0.14276">
        <ele>89</ele>
        <time>2024-03-20T15:22:17Z</time>
      </trkpt>
      <trkpt lat="48.97315" lon="0.14288">
        <ele>89</ele>
        <time>2024-03-20T15:22:18Z</time>
      </trkpt>
      <trkpt lat="48.97308" lon="0.14297">
        <ele>89</ele>
        <time>2024-03-20T15:22:19Z</time>
      </trkpt>
      <trkpt lat="48.973" lon="0.14305">
        <ele>89</ele>
        <time>2024-03-20T15:22:20Z</time>
      </trkpt>
      <trkpt lat="48.97292" lon="0.14312">
        <ele>89</ele>
        <time>2024-03-20T15:22:21Z</time>
      </trkpt>
      <trkpt lat="48.97284" lon="0.14319">
        <ele>89</ele>
        <time>2024-03-20T15:22:22Z</time>
      </trkpt>
      <trkpt lat="48.97275" lon="0.14326">
        <ele>89</ele>
        <time>2024-03-20T15:22:23Z</time>
      </trkpt>
      <trkpt lat="48.97267" lon="0.14333">
        <ele>88.4</ele>
        <time>2024-03-20T15:22:24Z</time>
      </trkpt>
      <trkpt lat="48.97259" lon="0.14342">
        <ele>88</ele>
        <time>2024-03-20T15:22:25Z</time>
      </trkpt>
      <trkpt lat="48.97252" lon="0.14351">
        <ele>87.4</ele>
        <time>2024-03-20T15:22:26Z</time>
      </trkpt>
      <trkpt lat="48.97245" lon="0.14361">
        <ele>86.6</ele>
        <time>2024-03-20T15:22:27Z</time>
      </trkpt>
      <trkpt lat="48.97239" lon="0.14372">
        <ele>86</ele>
        <time>2024-03-20T15:22:28Z</time>
      </trkpt>
      <trkpt lat="48.97234" lon="0.14384">
        <ele>85.4</ele>
        <time>2024-03-20T15:22:29Z</time>
      </trkpt>
      <trkpt lat="48.9723" lon="0.14396">
        <ele>85</ele>
        <time>2024-03-20T15:22:30Z</time>
      </trkpt>
      <trkpt lat="48.97226" lon="0.14409">
        <ele>84.6</ele>
        <time>2024-03-20T15:22:31Z</time>
      </trkpt>
      <trkpt lat="48.97223" lon="0.14422">
        <ele>84.4</ele>
        <time>2024-03-20T15:22:32Z</time>
      </trkpt>
      <trkpt lat="48.9722" lon="0.14435">
        <ele>84</ele>
        <time>2024-03-20T15:22:33Z</time>
      </trkpt>
      <trkpt lat="48.97218" lon="0.14449">
        <ele>83.8</ele>
        <time>2024-03-20T15:22:34Z</time>
      </trkpt>
      <trkpt lat="48.97216" lon="0.14462">
        <ele>83.8</ele>
        <time>2024-03-20T15:22:35Z</time>
      </trkpt>
      <trkpt lat="48.97213" lon="0.14475">
        <ele>83.8</ele>
        <time>2024-03-20T15:22:36Z</time>
      </trkpt>
      <trkpt lat="48.97211" lon="0.14488">
        <ele>83.8</ele>
        <time>2024-03-20T15:22:37Z</time>
      </trkpt>
      <trkpt lat="48.97209" lon="0.14501">
        <ele>83.8</ele>
        <time>2024-03-20T15:22:38Z</time>
      </trkpt>
      <trkpt lat="48.97207" lon="0.14514">
        <ele>83.8</ele>
        <time>2024-03-20T15:22:39Z</time>
      </trkpt>
      <trkpt lat="48.97205" lon="0.14527">
        <ele>83.8</ele>
        <time>2024-03-20T15:22:40Z</time>
      </trkpt>
      <trkpt lat="48.97203" lon="0.14539">
        <ele>83.8</ele>
        <time>2024-03-20T15:22:41Z</time>
      </trkpt>
      <trkpt lat="48.97201" lon="0.14551">
        <ele>83.8</ele>
        <time>2024-03-20T15:22:42Z</time>
      </trkpt>
      <trkpt lat="48.97199" lon="0.14562">
        <ele>83.8</ele>
        <time>2024-03-20T15:22:43Z</time>
      </trkpt>
      <trkpt lat="48.97197" lon="0.14574">
        <ele>83.8</ele>
        <time>2024-03-20T15:22:44Z</time>
      </trkpt>
      <trkpt lat="48.97195" lon="0.14585">
        <ele>83.8</ele>
        <time>2024-03-20T15:22:45Z</time>
      </trkpt>
      <trkpt lat="48.97193" lon="0.14596">
        <ele>84</ele>
        <time>2024-03-20T15:22:46Z</time>
      </trkpt>
      <trkpt lat="48.97191" lon="0.14606">
        <ele>84</ele>
        <time>2024-03-20T15:22:47Z</time>
      </trkpt>
      <trkpt lat="48.97189" lon="0.14616">
        <ele>84.2</ele>
        <time>2024-03-20T15:22:48Z</time>
      </trkpt>
      <trkpt lat="48.97187" lon="0.14625">
        <ele>84.2</ele>
        <time>2024-03-20T15:22:49Z</time>
      </trkpt>
      <trkpt lat="48.97185" lon="0.14635">
        <ele>84.4</ele>
        <time>2024-03-20T15:22:50Z</time>
      </trkpt>
      <trkpt lat="48.97183" lon="0.14644">
        <ele>84.8</ele>
        <time>2024-03-20T15:22:51Z</time>
      </trkpt>
      <trkpt lat="48.97181" lon="0.14654">
        <ele>85</ele>
        <time>2024-03-20T15:22:52Z</time>
      </trkpt>
      <trkpt lat="48.9718" lon="0.14663">
        <ele>85.4</ele>
        <time>2024-03-20T15:22:53Z</time>
      </trkpt>
      <trkpt lat="48.97179" lon="0.14672">
        <ele>85.8</ele>
        <time>2024-03-20T15:22:54Z</time>
      </trkpt>
      <trkpt lat="48.97177" lon="0.14682">
        <ele>86.4</ele>
        <time>2024-03-20T15:22:55Z</time>
      </trkpt>
      <trkpt lat="48.97175" lon="0.14692">
        <ele>87</ele>
        <time>2024-03-20T15:22:56Z</time>
      </trkpt>
      <trkpt lat="48.97174" lon="0.14702">
        <ele>87</ele>
        <time>2024-03-20T15:22:57Z</time>
      </trkpt>
      <trkpt lat="48.97171" lon="0.14713">
        <ele>87.6</ele>
        <time>2024-03-20T15:22:58Z</time>
      </trkpt>
      <trkpt lat="48.97169" lon="0.14723">
        <ele>87.8</ele>
        <time>2024-03-20T15:22:59Z</time>
      </trkpt>
      <trkpt lat="48.97167" lon="0.14735">
        <ele>88</ele>
        <time>2024-03-20T15:23:00Z</time>
      </trkpt>
      <trkpt lat="48.97164" lon="0.14746">
        <ele>88.4</ele>
        <time>2024-03-20T15:23:01Z</time>
      </trkpt>
      <trkpt lat="48.97162" lon="0.14757">
        <ele>88.8</ele>
        <time>2024-03-20T15:23:02Z</time>
      </trkpt>
      <trkpt lat="48.9716" lon="0.14768">
        <ele>89</ele>
        <time>2024-03-20T15:23:03Z</time>
      </trkpt>
      <trkpt lat="48.97157" lon="0.14779">
        <ele>89</ele>
        <time>2024-03-20T15:23:04Z</time>
      </trkpt>
      <trkpt lat="48.97155" lon="0.1479">
        <ele>89</ele>
        <time>2024-03-20T15:23:05Z</time>
      </trkpt>
      <trkpt lat="48.97152" lon="0.14801">
        <ele>89.2</ele>
        <time>2024-03-20T15:23:06Z</time>
      </trkpt>
      <trkpt lat="48.97149" lon="0.14811">
        <ele>89.2</ele>
        <time>2024-03-20T15:23:07Z</time>
      </trkpt>
      <trkpt lat="48.97147" lon="0.14821">
        <ele>89.2</ele>
        <time>2024-03-20T15:23:08Z</time>
      </trkpt>
      <trkpt lat="48.97144" lon="0.14832">
        <ele>89.2</ele>
        <time>2024-03-20T15:23:09Z</time>
      </trkpt>
      <trkpt lat="48.97141" lon="0.14842">
        <ele>89.2</ele>
        <time>2024-03-20T15:23:10Z</time>
      </trkpt>
      <trkpt lat="48.97138" lon="0.14852">
        <ele>89.2</ele>
        <time>2024-03-20T15:23:11Z</time>
      </trkpt>
      <trkpt lat="48.97135" lon="0.14862">
        <ele>89.4</ele>
        <time>2024-03-20T15:23:12Z</time>
      </trkpt>
      <trkpt lat="48.97131" lon="0.14872">
        <ele>89.4</ele>
        <time>2024-03-20T15:23:13Z</time>
      </trkpt>
      <trkpt lat="48.97128" lon="0.14882">
        <ele>89.4</ele>
        <time>2024-03-20T15:23:14Z</time>
      </trkpt>
      <trkpt lat="48.97125" lon="0.14892">
        <ele>89.4</ele>
        <time>2024-03-20T15:23:15Z</time>
      </trkpt>
      <trkpt lat="48.97122" lon="0.14901">
        <ele>89.4</ele>
        <time>2024-03-20T15:23:16Z</time>
      </trkpt>
      <trkpt lat="48.97118" lon="0.14912">
        <ele>89.6</ele>
        <time>2024-03-20T15:23:17Z</time>
      </trkpt>
      <trkpt lat="48.97114" lon="0.14922">
        <ele>89.6</ele>
        <time>2024-03-20T15:23:18Z</time>
      </trkpt>
      <trkpt lat="48.97111" lon="0.14932">
        <ele>89.6</ele>
        <time>2024-03-20T15:23:19Z</time>
      </trkpt>
      <trkpt lat="48.97107" lon="0.14942">
        <ele>89.6</ele>
        <time>2024-03-20T15:23:20Z</time>
      </trkpt>
      <trkpt lat="48.97103" lon="0.14952">
        <ele>89.8</ele>
        <time>2024-03-20T15:23:21Z</time>
      </trkpt>
      <trkpt lat="48.971" lon="0.14962">
        <ele>90</ele>
        <time>2024-03-20T15:23:22Z</time>
      </trkpt>
      <trkpt lat="48.97096" lon="0.14973">
        <ele>90.2</ele>
        <time>2024-03-20T15:23:23Z</time>
      </trkpt>
      <trkpt lat="48.97092" lon="0.14984">
        <ele>90.2</ele>
        <time>2024-03-20T15:23:24Z</time>
      </trkpt>
      <trkpt lat="48.97088" lon="0.14995">
        <ele>90.4</ele>
        <time>2024-03-20T15:23:25Z</time>
      </trkpt>
      <trkpt lat="48.97084" lon="0.15006">
        <ele>90.4</ele>
        <time>2024-03-20T15:23:26Z</time>
      </trkpt>
      <trkpt lat="48.9708" lon="0.15018">
        <ele>90.4</ele>
        <time>2024-03-20T15:23:27Z</time>
      </trkpt>
      <trkpt lat="48.97075" lon="0.1503">
        <ele>90.4</ele>
        <time>2024-03-20T15:23:28Z</time>
      </trkpt>
      <trkpt lat="48.97071" lon="0.15043">
        <ele>90.4</ele>
        <time>2024-03-20T15:23:29Z</time>
      </trkpt>
      <trkpt lat="48.97067" lon="0.15055">
        <ele>90.4</ele>
        <time>2024-03-20T15:23:30Z</time>
      </trkpt>
      <trkpt lat="48.97062" lon="0.15068">
        <ele>90.4</ele>
        <time>2024-03-20T15:23:31Z</time>
      </trkpt>
      <trkpt lat="48.97058" lon="0.15082">
        <ele>90.4</ele>
        <time>2024-03-20T15:23:32Z</time>
      </trkpt>
      <trkpt lat="48.97053" lon="0.15095">
        <ele>90.2</ele>
        <time>2024-03-20T15:23:33Z</time>
      </trkpt>
      <trkpt lat="48.97048" lon="0.15109">
        <ele>90</ele>
        <time>2024-03-20T15:23:34Z</time>
      </trkpt>
      <trkpt lat="48.97044" lon="0.15123">
        <ele>89.6</ele>
        <time>2024-03-20T15:23:35Z</time>
      </trkpt>
      <trkpt lat="48.97038" lon="0.15138">
        <ele>89.4</ele>
        <time>2024-03-20T15:23:36Z</time>
      </trkpt>
      <trkpt lat="48.97033" lon="0.15152">
        <ele>88.8</ele>
        <time>2024-03-20T15:23:37Z</time>
      </trkpt>
      <trkpt lat="48.97028" lon="0.15166">
        <ele>88.6</ele>
        <time>2024-03-20T15:23:38Z</time>
      </trkpt>
      <trkpt lat="48.97023" lon="0.1518">
        <ele>88.2</ele>
        <time>2024-03-20T15:23:39Z</time>
      </trkpt>
      <trkpt lat="48.97018" lon="0.15194">
        <ele>88.2</ele>
        <time>2024-03-20T15:23:40Z</time>
      </trkpt>
      <trkpt lat="48.97014" lon="0.15208">
        <ele>87.8</ele>
        <time>2024-03-20T15:23:41Z</time>
      </trkpt>
      <trkpt lat="48.97009" lon="0.15223">
        <ele>87</ele>
        <time>2024-03-20T15:23:42Z</time>
      </trkpt>
      <trkpt lat="48.97004" lon="0.15237">
        <ele>86</ele>
        <time>2024-03-20T15:23:43Z</time>
      </trkpt>
      <trkpt lat="48.96999" lon="0.15251">
        <ele>85.4</ele>
        <time>2024-03-20T15:23:44Z</time>
      </trkpt>
      <trkpt lat="48.96994" lon="0.15265">
        <ele>84.6</ele>
        <time>2024-03-20T15:23:45Z</time>
      </trkpt>
      <trkpt lat="48.9699" lon="0.15279">
        <ele>84.2</ele>
        <time>2024-03-20T15:23:46Z</time>
      </trkpt>
      <trkpt lat="48.96985" lon="0.15293">
        <ele>83.8</ele>
        <time>2024-03-20T15:23:47Z</time>
      </trkpt>
      <trkpt lat="48.96981" lon="0.15306">
        <ele>83.6</ele>
        <time>2024-03-20T15:23:48Z</time>
      </trkpt>
      <trkpt lat="48.96977" lon="0.15319">
        <ele>83.4</ele>
        <time>2024-03-20T15:23:49Z</time>
      </trkpt>
      <trkpt lat="48.96972" lon="0.15331">
        <ele>83</ele>
        <time>2024-03-20T15:23:50Z</time>
      </trkpt>
      <trkpt lat="48.96969" lon="0.15343">
        <ele>82.8</ele>
        <time>2024-03-20T15:23:51Z</time>
      </trkpt>
      <trkpt lat="48.96965" lon="0.15355">
        <ele>82.6</ele>
        <time>2024-03-20T15:23:52Z</time>
      </trkpt>
      <trkpt lat="48.96962" lon="0.15367">
        <ele>82.4</ele>
        <time>2024-03-20T15:23:53Z</time>
      </trkpt>
      <trkpt lat="48.9696" lon="0.15379">
        <ele>82.4</ele>
        <time>2024-03-20T15:23:54Z</time>
      </trkpt>
      <trkpt lat="48.96958" lon="0.15392">
        <ele>82.2</ele>
        <time>2024-03-20T15:23:55Z</time>
      </trkpt>
      <trkpt lat="48.96957" lon="0.15404">
        <ele>82.2</ele>
        <time>2024-03-20T15:23:56Z</time>
      </trkpt>
      <trkpt lat="48.96957" lon="0.15416">
        <ele>82.2</ele>
        <time>2024-03-20T15:23:57Z</time>
      </trkpt>
      <trkpt lat="48.96956" lon="0.15428">
        <ele>82.2</ele>
        <time>2024-03-20T15:23:58Z</time>
      </trkpt>
      <trkpt lat="48.96956" lon="0.1544">
        <ele>82.2</ele>
        <time>2024-03-20T15:23:59Z</time>
      </trkpt>
      <trkpt lat="48.96956" lon="0.15453">
        <ele>82.2</ele>
        <time>2024-03-20T15:24:00Z</time>
      </trkpt>
      <trkpt lat="48.96956" lon="0.15465">
        <ele>82.2</ele>
        <time>2024-03-20T15:24:01Z</time>
      </trkpt>
      <trkpt lat="48.96956" lon="0.15477">
        <ele>82.2</ele>
        <time>2024-03-20T15:24:02Z</time>
      </trkpt>
      <trkpt lat="48.96955" lon="0.15489">
        <ele>82.2</ele>
        <time>2024-03-20T15:24:03Z</time>
      </trkpt>
      <trkpt lat="48.96955" lon="0.15501">
        <ele>82.4</ele>
        <time>2024-03-20T15:24:04Z</time>
      </trkpt>
      <trkpt lat="48.96955" lon="0.15513">
        <ele>82.6</ele>
        <time>2024-03-20T15:24:05Z</time>
      </trkpt>
      <trkpt lat="48.96955" lon="0.15525">
        <ele>82.6</ele>
        <time>2024-03-20T15:24:06Z</time>
      </trkpt>
      <trkpt lat="48.96955" lon="0.15538">
        <ele>82.6</ele>
        <time>2024-03-20T15:24:07Z</time>
      </trkpt>
      <trkpt lat="48.96955" lon="0.1555">
        <ele>82.6</ele>
        <time>2024-03-20T15:24:08Z</time>
      </trkpt>
      <trkpt lat="48.96955" lon="0.15562">
        <ele>82.8</ele>
        <time>2024-03-20T15:24:09Z</time>
      </trkpt>
      <trkpt lat="48.96955" lon="0.15574">
        <ele>82.8</ele>
        <time>2024-03-20T15:24:10Z</time>
      </trkpt>
      <trkpt lat="48.96955" lon="0.15587">
        <ele>82.8</ele>
        <time>2024-03-20T15:24:11Z</time>
      </trkpt>
      <trkpt lat="48.96955" lon="0.15599">
        <ele>83</ele>
        <time>2024-03-20T15:24:12Z</time>
      </trkpt>
      <trkpt lat="48.96955" lon="0.15612">
        <ele>83.2</ele>
        <time>2024-03-20T15:24:13Z</time>
      </trkpt>
      <trkpt lat="48.96955" lon="0.15624">
        <ele>83.2</ele>
        <time>2024-03-20T15:24:14Z</time>
      </trkpt>
      <trkpt lat="48.96955" lon="0.15637">
        <ele>83.2</ele>
        <time>2024-03-20T15:24:15Z</time>
      </trkpt>
      <trkpt lat="48.96955" lon="0.15649">
        <ele>83.4</ele>
        <time>2024-03-20T15:24:16Z</time>
      </trkpt>
      <trkpt lat="48.96955" lon="0.15661">
        <ele>83.4</ele>
        <time>2024-03-20T15:24:17Z</time>
      </trkpt>
      <trkpt lat="48.96955" lon="0.15674">
        <ele>83.4</ele>
        <time>2024-03-20T15:24:18Z</time>
      </trkpt>
      <trkpt lat="48.96954" lon="0.15685">
        <ele>83.4</ele>
        <time>2024-03-20T15:24:19Z</time>
      </trkpt>
      <trkpt lat="48.96954" lon="0.15697">
        <ele>83.4</ele>
        <time>2024-03-20T15:24:20Z</time>
      </trkpt>
      <trkpt lat="48.96954" lon="0.15708">
        <ele>83.4</ele>
        <time>2024-03-20T15:24:21Z</time>
      </trkpt>
      <trkpt lat="48.96954" lon="0.15719">
        <ele>83.4</ele>
        <time>2024-03-20T15:24:22Z</time>
      </trkpt>
      <trkpt lat="48.96954" lon="0.1573">
        <ele>83.4</ele>
        <time>2024-03-20T15:24:23Z</time>
      </trkpt>
      <trkpt lat="48.96954" lon="0.1574">
        <ele>83.4</ele>
        <time>2024-03-20T15:24:24Z</time>
      </trkpt>
      <trkpt lat="48.96954" lon="0.1575">
        <ele>83.4</ele>
        <time>2024-03-20T15:24:25Z</time>
      </trkpt>
      <trkpt lat="48.96955" lon="0.15759">
        <ele>83.6</ele>
        <time>2024-03-20T15:24:26Z</time>
      </trkpt>
      <trkpt lat="48.96955" lon="0.15768">
        <ele>83.6</ele>
        <time>2024-03-20T15:24:27Z</time>
      </trkpt>
      <trkpt lat="48.96956" lon="0.15776">
        <ele>83.6</ele>
        <time>2024-03-20T15:24:28Z</time>
      </trkpt>
      <trkpt lat="48.96957" lon="0.15784">
        <ele>83.6</ele>
        <time>2024-03-20T15:24:29Z</time>
      </trkpt>
      <trkpt lat="48.96958" lon="0.15792">
        <ele>83.6</ele>
        <time>2024-03-20T15:24:30Z</time>
      </trkpt>
      <trkpt lat="48.9696" lon="0.15799">
        <ele>83.6</ele>
        <time>2024-03-20T15:24:31Z</time>
      </trkpt>
      <trkpt lat="48.96961" lon="0.15805">
        <ele>83.8</ele>
        <time>2024-03-20T15:24:32Z</time>
      </trkpt>
      <trkpt lat="48.96963" lon="0.15811">
        <ele>84</ele>
        <time>2024-03-20T15:24:33Z</time>
      </trkpt>
      <trkpt lat="48.96965" lon="0.15817">
        <ele>84</ele>
        <time>2024-03-20T15:24:34Z</time>
      </trkpt>
      <trkpt lat="48.96968" lon="0.15822">
        <ele>84.4</ele>
        <time>2024-03-20T15:24:35Z</time>
      </trkpt>
      <trkpt lat="48.96969" lon="0.15826">
        <ele>84.6</ele>
        <time>2024-03-20T15:24:36Z</time>
      </trkpt>
      <trkpt lat="48.9697" lon="0.15831">
        <ele>84.8</ele>
        <time>2024-03-20T15:24:37Z</time>
      </trkpt>
      <trkpt lat="48.96968" lon="0.15835">
        <ele>84.8</ele>
        <time>2024-03-20T15:24:38Z</time>
      </trkpt>
      <trkpt lat="48.96965" lon="0.15839">
        <ele>85</ele>
        <time>2024-03-20T15:24:39Z</time>
      </trkpt>
      <trkpt lat="48.96962" lon="0.15844">
        <ele>85.4</ele>
        <time>2024-03-20T15:24:40Z</time>
      </trkpt>
      <trkpt lat="48.96959" lon="0.15848">
        <ele>85.6</ele>
        <time>2024-03-20T15:24:41Z</time>
      </trkpt>
      <trkpt lat="48.96955" lon="0.15853">
        <ele>85.8</ele>
        <time>2024-03-20T15:24:42Z</time>
      </trkpt>
      <trkpt lat="48.96951" lon="0.15858">
        <ele>86.2</ele>
        <time>2024-03-20T15:24:43Z</time>
      </trkpt>
      <trkpt lat="48.96948" lon="0.15864">
        <ele>86.2</ele>
        <time>2024-03-20T15:24:44Z</time>
      </trkpt>
      <trkpt lat="48.96944" lon="0.15869">
        <ele>86.4</ele>
        <time>2024-03-20T15:24:45Z</time>
      </trkpt>
      <trkpt lat="48.9694" lon="0.15875">
        <ele>86.4</ele>
        <time>2024-03-20T15:24:46Z</time>
      </trkpt>
      <trkpt lat="48.96936" lon="0.15881">
        <ele>86.4</ele>
        <time>2024-03-20T15:24:47Z</time>
      </trkpt>
      <trkpt lat="48.96932" lon="0.15887">
        <ele>86.6</ele>
        <time>2024-03-20T15:24:48Z</time>
      </trkpt>
      <trkpt lat="48.96928" lon="0.15893">
        <ele>86.6</ele>
        <time>2024-03-20T15:24:49Z</time>
      </trkpt>
      <trkpt lat="48.96924" lon="0.159">
        <ele>86.6</ele>
        <time>2024-03-20T15:24:50Z</time>
      </trkpt>
      <trkpt lat="48.96919" lon="0.15906">
        <ele>86.6</ele>
        <time>2024-03-20T15:24:51Z</time>
      </trkpt>
      <trkpt lat="48.96915" lon="0.15913">
        <ele>86.6</ele>
        <time>2024-03-20T15:24:52Z</time>
      </trkpt>
      <trkpt lat="48.96911" lon="0.1592">
        <ele>86.6</ele>
        <time>2024-03-20T15:24:53Z</time>
      </trkpt>
      <trkpt lat="48.96908" lon="0.15927">
        <ele>86.6</ele>
        <time>2024-03-20T15:24:54Z</time>
      </trkpt>
      <trkpt lat="48.96904" lon="0.15934">
        <ele>86.6</ele>
        <time>2024-03-20T15:24:55Z</time>
      </trkpt>
      <trkpt lat="48.969" lon="0.15942">
        <ele>86.6</ele>
        <time>2024-03-20T15:24:56Z</time>
      </trkpt>
      <trkpt lat="48.96896" lon="0.15949">
        <ele>86.6</ele>
        <time>2024-03-20T15:24:57Z</time>
      </trkpt>
      <trkpt lat="48.96892" lon="0.15957">
        <ele>86.6</ele>
        <time>2024-03-20T15:24:58Z</time>
      </trkpt>
      <trkpt lat="48.96888" lon="0.15965">
        <ele>86.6</ele>
        <time>2024-03-20T15:24:59Z</time>
      </trkpt>
      <trkpt lat="48.96884" lon="0.15973">
        <ele>86.6</ele>
        <time>2024-03-20T15:25:00Z</time>
      </trkpt>
      <trkpt lat="48.9688" lon="0.15981">
        <ele>86.6</ele>
        <time>2024-03-20T15:25:01Z</time>
      </trkpt>
      <trkpt lat="48.96876" lon="0.15989">
        <ele>86.6</ele>
        <time>2024-03-20T15:25:02Z</time>
      </trkpt>
      <trkpt lat="48.96872" lon="0.15997">
        <ele>86.6</ele>
        <time>2024-03-20T15:25:03Z</time>
      </trkpt>
      <trkpt lat="48.96868" lon="0.16004">
        <ele>86.6</ele>
        <time>2024-03-20T15:25:04Z</time>
      </trkpt>
      <trkpt lat="48.96864" lon="0.16013">
        <ele>86.8</ele>
        <time>2024-03-20T15:25:05Z</time>
      </trkpt>
      <trkpt lat="48.9686" lon="0.16021">
        <ele>86.8</ele>
        <time>2024-03-20T15:25:06Z</time>
      </trkpt>
      <trkpt lat="48.96856" lon="0.16029">
        <ele>86.8</ele>
        <time>2024-03-20T15:25:07Z</time>
      </trkpt>
      <trkpt lat="48.96852" lon="0.16037">
        <ele>86.8</ele>
        <time>2024-03-20T15:25:08Z</time>
      </trkpt>
      <trkpt lat="48.96848" lon="0.16045">
        <ele>86.8</ele>
        <time>2024-03-20T15:25:09Z</time>
      </trkpt>
      <trkpt lat="48.96844" lon="0.16053">
        <ele>86.8</ele>
        <time>2024-03-20T15:25:10Z</time>
      </trkpt>
      <trkpt lat="48.9684" lon="0.16061">
        <ele>86.8</ele>
        <time>2024-03-20T15:25:11Z</time>
      </trkpt>
      <trkpt lat="48.96836" lon="0.16069">
        <ele>86.8</ele>
        <time>2024-03-20T15:25:12Z</time>
      </trkpt>
      <trkpt lat="48.96831" lon="0.16078">
        <ele>86.8</ele>
        <time>2024-03-20T15:25:13Z</time>
      </trkpt>
      <trkpt lat="48.96827" lon="0.16086">
        <ele>86.8</ele>
        <time>2024-03-20T15:25:14Z</time>
      </trkpt>
      <trkpt lat="48.96823" lon="0.16094">
        <ele>86.8</ele>
        <time>2024-03-20T15:25:15Z</time>
      </trkpt>
      <trkpt lat="48.96819" lon="0.16103">
        <ele>86.8</ele>
        <time>2024-03-20T15:25:16Z</time>
      </trkpt>
      <trkpt lat="48.96815" lon="0.16111">
        <ele>86.8</ele>
        <time>2024-03-20T15:25:17Z</time>
      </trkpt>
      <trkpt lat="48.96811" lon="0.16119">
        <ele>86.8</ele>
        <time>2024-03-20T15:25:18Z</time>
      </trkpt>
      <trkpt lat="48.96807" lon="0.16127">
        <ele>86.8</ele>
        <time>2024-03-20T15:25:19Z</time>
      </trkpt>
      <trkpt lat="48.96803" lon="0.16136">
        <ele>86.8</ele>
        <time>2024-03-20T15:25:20Z</time>
      </trkpt>
      <trkpt lat="48.96799" lon="0.16144">
        <ele>86.8</ele>
        <time>2024-03-20T15:25:21Z</time>
      </trkpt>
      <trkpt lat="48.96795" lon="0.16152">
        <ele>86.8</ele>
        <time>2024-03-20T15:25:22Z</time>
      </trkpt>
      <trkpt lat="48.96791" lon="0.1616">
        <ele>86.8</ele>
        <time>2024-03-20T15:25:23Z</time>
      </trkpt>
      <trkpt lat="48.96787" lon="0.16168">
        <ele>86.8</ele>
        <time>2024-03-20T15:25:24Z</time>
      </trkpt>
      <trkpt lat="48.96783" lon="0.16176">
        <ele>87</ele>
        <time>2024-03-20T15:25:25Z</time>
      </trkpt>
      <trkpt lat="48.96779" lon="0.16184">
        <ele>87</ele>
        <time>2024-03-20T15:25:26Z</time>
      </trkpt>
      <trkpt lat="48.96775" lon="0.16192">
        <ele>87.2</ele>
        <time>2024-03-20T15:25:27Z</time>
      </trkpt>
      <trkpt lat="48.96771" lon="0.162">
        <ele>87.2</ele>
        <time>2024-03-20T15:25:28Z</time>
      </trkpt>
      <trkpt lat="48.96767" lon="0.16209">
        <ele>87.2</ele>
        <time>2024-03-20T15:25:29Z</time>
      </trkpt>
      <trkpt lat="48.96763" lon="0.16217">
        <ele>87.2</ele>
        <time>2024-03-20T15:25:30Z</time>
      </trkpt>
      <trkpt lat="48.96759" lon="0.16225">
        <ele>87.4</ele>
        <time>2024-03-20T15:25:31Z</time>
      </trkpt>
      <trkpt lat="48.96756" lon="0.16233">
        <ele>87.4</ele>
        <time>2024-03-20T15:25:32Z</time>
      </trkpt>
      <trkpt lat="48.96752" lon="0.16241">
        <ele>87.4</ele>
        <time>2024-03-20T15:25:33Z</time>
      </trkpt>
      <trkpt lat="48.96748" lon="0.16249">
        <ele>87.6</ele>
        <time>2024-03-20T15:25:34Z</time>
      </trkpt>
      <trkpt lat="48.96744" lon="0.16257">
        <ele>87.6</ele>
        <time>2024-03-20T15:25:35Z</time>
      </trkpt>
      <trkpt lat="48.9674" lon="0.16265">
        <ele>87.8</ele>
        <time>2024-03-20T15:25:36Z</time>
      </trkpt>
      <trkpt lat="48.96736" lon="0.16273">
        <ele>87.8</ele>
        <time>2024-03-20T15:25:37Z</time>
      </trkpt>
      <trkpt lat="48.96732" lon="0.16281">
        <ele>87.8</ele>
        <time>2024-03-20T15:25:38Z</time>
      </trkpt>
      <trkpt lat="48.96729" lon="0.16289">
        <ele>88</ele>
        <time>2024-03-20T15:25:39Z</time>
      </trkpt>
      <trkpt lat="48.96725" lon="0.16297">
        <ele>88</ele>
        <time>2024-03-20T15:25:40Z</time>
      </trkpt>
      <trkpt lat="48.96721" lon="0.16305">
        <ele>88</ele>
        <time>2024-03-20T15:25:41Z</time>
      </trkpt>
      <trkpt lat="48.96717" lon="0.16313">
        <ele>88</ele>
        <time>2024-03-20T15:25:42Z</time>
      </trkpt>
      <trkpt lat="48.96713" lon="0.16322">
        <ele>88</ele>
        <time>2024-03-20T15:25:43Z</time>
      </trkpt>
      <trkpt lat="48.96709" lon="0.1633">
        <ele>88.2</ele>
        <time>2024-03-20T15:25:44Z</time>
      </trkpt>
      <trkpt lat="48.96705" lon="0.16338">
        <ele>88.2</ele>
        <time>2024-03-20T15:25:45Z</time>
      </trkpt>
      <trkpt lat="48.96702" lon="0.16346">
        <ele>88.4</ele>
        <time>2024-03-20T15:25:46Z</time>
      </trkpt>
      <trkpt lat="48.96698" lon="0.16354">
        <ele>88.4</ele>
        <time>2024-03-20T15:25:47Z</time>
      </trkpt>
      <trkpt lat="48.96693" lon="0.16362">
        <ele>88.6</ele>
        <time>2024-03-20T15:25:48Z</time>
      </trkpt>
      <trkpt lat="48.96689" lon="0.16371">
        <ele>88.6</ele>
        <time>2024-03-20T15:25:49Z</time>
      </trkpt>
      <trkpt lat="48.96686" lon="0.16379">
        <ele>88.6</ele>
        <time>2024-03-20T15:25:50Z</time>
      </trkpt>
      <trkpt lat="48.96682" lon="0.16388">
        <ele>88.6</ele>
        <time>2024-03-20T15:25:51Z</time>
      </trkpt>
      <trkpt lat="48.96678" lon="0.16396">
        <ele>88.8</ele>
        <time>2024-03-20T15:25:52Z</time>
      </trkpt>
      <trkpt lat="48.96674" lon="0.16404">
        <ele>88.8</ele>
        <time>2024-03-20T15:25:53Z</time>
      </trkpt>
      <trkpt lat="48.9667" lon="0.16412">
        <ele>88.8</ele>
        <time>2024-03-20T15:25:54Z</time>
      </trkpt>
      <trkpt lat="48.96666" lon="0.1642">
        <ele>88.8</ele>
        <time>2024-03-20T15:25:55Z</time>
      </trkpt>
      <trkpt lat="48.96663" lon="0.16428">
        <ele>89</ele>
        <time>2024-03-20T15:25:56Z</time>
      </trkpt>
      <trkpt lat="48.96659" lon="0.16436">
        <ele>89</ele>
        <time>2024-03-20T15:25:57Z</time>
      </trkpt>
      <trkpt lat="48.96655" lon="0.16444">
        <ele>89</ele>
        <time>2024-03-20T15:25:58Z</time>
      </trkpt>
      <trkpt lat="48.96652" lon="0.16451">
        <ele>89</ele>
        <time>2024-03-20T15:25:59Z</time>
      </trkpt>
      <trkpt lat="48.96648" lon="0.16459">
        <ele>89</ele>
        <time>2024-03-20T15:26:00Z</time>
      </trkpt>
      <trkpt lat="48.96644" lon="0.16467">
        <ele>89.2</ele>
        <time>2024-03-20T15:26:01Z</time>
      </trkpt>
      <trkpt lat="48.9664" lon="0.16475">
        <ele>89.2</ele>
        <time>2024-03-20T15:26:02Z</time>
      </trkpt>
      <trkpt lat="48.96636" lon="0.16483">
        <ele>89.2</ele>
        <time>2024-03-20T15:26:03Z</time>
      </trkpt>
      <trkpt lat="48.96632" lon="0.16491">
        <ele>89.2</ele>
        <time>2024-03-20T15:26:04Z</time>
      </trkpt>
      <trkpt lat="48.96627" lon="0.165">
        <ele>89.4</ele>
        <time>2024-03-20T15:26:05Z</time>
      </trkpt>
      <trkpt lat="48.96622" lon="0.16508">
        <ele>89.4</ele>
        <time>2024-03-20T15:26:06Z</time>
      </trkpt>
      <trkpt lat="48.96618" lon="0.16517">
        <ele>89.4</ele>
        <time>2024-03-20T15:26:07Z</time>
      </trkpt>
      <trkpt lat="48.96614" lon="0.16525">
        <ele>89.6</ele>
        <time>2024-03-20T15:26:08Z</time>
      </trkpt>
      <trkpt lat="48.9661" lon="0.16533">
        <ele>89.6</ele>
        <time>2024-03-20T15:26:09Z</time>
      </trkpt>
      <trkpt lat="48.96606" lon="0.16541">
        <ele>89.6</ele>
        <time>2024-03-20T15:26:10Z</time>
      </trkpt>
      <trkpt lat="48.96602" lon="0.16549">
        <ele>89.8</ele>
        <time>2024-03-20T15:26:11Z</time>
      </trkpt>
      <trkpt lat="48.96598" lon="0.16557">
        <ele>89.8</ele>
        <time>2024-03-20T15:26:12Z</time>
      </trkpt>
      <trkpt lat="48.96595" lon="0.16566">
        <ele>89.8</ele>
        <time>2024-03-20T15:26:13Z</time>
      </trkpt>
      <trkpt lat="48.96591" lon="0.16574">
        <ele>89.8</ele>
        <time>2024-03-20T15:26:14Z</time>
      </trkpt>
      <trkpt lat="48.96587" lon="0.16582">
        <ele>89.8</ele>
        <time>2024-03-20T15:26:15Z</time>
      </trkpt>
      <trkpt lat="48.96583" lon="0.1659">
        <ele>89.8</ele>
        <time>2024-03-20T15:26:16Z</time>
      </trkpt>
      <trkpt lat="48.96579" lon="0.16599">
        <ele>90</ele>
        <time>2024-03-20T15:26:17Z</time>
      </trkpt>
      <trkpt lat="48.96575" lon="0.16607">
        <ele>90</ele>
        <time>2024-03-20T15:26:18Z</time>
      </trkpt>
      <trkpt lat="48.96571" lon="0.16615">
        <ele>90</ele>
        <time>2024-03-20T15:26:19Z</time>
      </trkpt>
      <trkpt lat="48.96567" lon="0.16624">
        <ele>90.2</ele>
        <time>2024-03-20T15:26:20Z</time>
      </trkpt>
      <trkpt lat="48.96563" lon="0.16633">
        <ele>90.2</ele>
        <time>2024-03-20T15:26:21Z</time>
      </trkpt>
      <trkpt lat="48.96559" lon="0.16641">
        <ele>90.4</ele>
        <time>2024-03-20T15:26:22Z</time>
      </trkpt>
      <trkpt lat="48.96555" lon="0.16649">
        <ele>90.4</ele>
        <time>2024-03-20T15:26:23Z</time>
      </trkpt>
      <trkpt lat="48.96551" lon="0.16658">
        <ele>90.6</ele>
        <time>2024-03-20T15:26:24Z</time>
      </trkpt>
      <trkpt lat="48.96547" lon="0.16666">
        <ele>90.6</ele>
        <time>2024-03-20T15:26:25Z</time>
      </trkpt>
      <trkpt lat="48.96543" lon="0.16674">
        <ele>90.6</ele>
        <time>2024-03-20T15:26:26Z</time>
      </trkpt>
      <trkpt lat="48.96539" lon="0.16683">
        <ele>90.6</ele>
        <time>2024-03-20T15:26:27Z</time>
      </trkpt>
      <trkpt lat="48.96535" lon="0.16691">
        <ele>90.6</ele>
        <time>2024-03-20T15:26:28Z</time>
      </trkpt>
      <trkpt lat="48.96531" lon="0.16699">
        <ele>90.6</ele>
        <time>2024-03-20T15:26:29Z</time>
      </trkpt>
      <trkpt lat="48.96527" lon="0.16708">
        <ele>90.8</ele>
        <time>2024-03-20T15:26:30Z</time>
      </trkpt>
      <trkpt lat="48.96523" lon="0.16716">
        <ele>90.8</ele>
        <time>2024-03-20T15:26:31Z</time>
      </trkpt>
      <trkpt lat="48.96519" lon="0.16725">
        <ele>90.8</ele>
        <time>2024-03-20T15:26:32Z</time>
      </trkpt>
      <trkpt lat="48.96515" lon="0.16733">
        <ele>90.8</ele>
        <time>2024-03-20T15:26:33Z</time>
      </trkpt>
      <trkpt lat="48.96511" lon="0.16741">
        <ele>90.8</ele>
        <time>2024-03-20T15:26:34Z</time>
      </trkpt>
      <trkpt lat="48.96506" lon="0.1675">
        <ele>90.8</ele>
        <time>2024-03-20T15:26:35Z</time>
      </trkpt>
      <trkpt lat="48.96502" lon="0.16758">
        <ele>90.8</ele>
        <time>2024-03-20T15:26:36Z</time>
      </trkpt>
      <trkpt lat="48.96498" lon="0.16766">
        <ele>90.8</ele>
        <time>2024-03-20T15:26:37Z</time>
      </trkpt>
      <trkpt lat="48.96494" lon="0.16775">
        <ele>90.8</ele>
        <time>2024-03-20T15:26:38Z</time>
      </trkpt>
      <trkpt lat="48.96489" lon="0.16784">
        <ele>91</ele>
        <time>2024-03-20T15:26:39Z</time>
      </trkpt>
      <trkpt lat="48.96485" lon="0.16792">
        <ele>91</ele>
        <time>2024-03-20T15:26:40Z</time>
      </trkpt>
      <trkpt lat="48.96481" lon="0.168">
        <ele>91</ele>
        <time>2024-03-20T15:26:41Z</time>
      </trkpt>
      <trkpt lat="48.96477" lon="0.16809">
        <ele>91</ele>
        <time>2024-03-20T15:26:42Z</time>
      </trkpt>
      <trkpt lat="48.96472" lon="0.16817">
        <ele>91</ele>
        <time>2024-03-20T15:26:43Z</time>
      </trkpt>
      <trkpt lat="48.96468" lon="0.16826">
        <ele>91</ele>
        <time>2024-03-20T15:26:44Z</time>
      </trkpt>
      <trkpt lat="48.96463" lon="0.16835">
        <ele>91</ele>
        <time>2024-03-20T15:26:45Z</time>
      </trkpt>
      <trkpt lat="48.96459" lon="0.16844">
        <ele>91</ele>
        <time>2024-03-20T15:26:46Z</time>
      </trkpt>
      <trkpt lat="48.96455" lon="0.16853">
        <ele>91</ele>
        <time>2024-03-20T15:26:47Z</time>
      </trkpt>
      <trkpt lat="48.9645" lon="0.16862">
        <ele>91</ele>
        <time>2024-03-20T15:26:48Z</time>
      </trkpt>
      <trkpt lat="48.96446" lon="0.1687">
        <ele>91</ele>
        <time>2024-03-20T15:26:49Z</time>
      </trkpt>
      <trkpt lat="48.96442" lon="0.16879">
        <ele>91</ele>
        <time>2024-03-20T15:26:50Z</time>
      </trkpt>
      <trkpt lat="48.96438" lon="0.16888">
        <ele>91</ele>
        <time>2024-03-20T15:26:51Z</time>
      </trkpt>
      <trkpt lat="48.96433" lon="0.16896">
        <ele>91</ele>
        <time>2024-03-20T15:26:52Z</time>
      </trkpt>
      <trkpt lat="48.96429" lon="0.16905">
        <ele>91</ele>
        <time>2024-03-20T15:26:53Z</time>
      </trkpt>
      <trkpt lat="48.96425" lon="0.16914">
        <ele>91</ele>
        <time>2024-03-20T15:26:54Z</time>
      </trkpt>
      <trkpt lat="48.9642" lon="0.16923">
        <ele>91</ele>
        <time>2024-03-20T15:26:55Z</time>
      </trkpt>
      <trkpt lat="48.96416" lon="0.16931">
        <ele>91</ele>
        <time>2024-03-20T15:26:56Z</time>
      </trkpt>
      <trkpt lat="48.96411" lon="0.1694">
        <ele>91</ele>
        <time>2024-03-20T15:26:57Z</time>
      </trkpt>
      <trkpt lat="48.96407" lon="0.16949">
        <ele>91</ele>
        <time>2024-03-20T15:26:58Z</time>
      </trkpt>
      <trkpt lat="48.96402" lon="0.16958">
        <ele>91</ele>
        <time>2024-03-20T15:26:59Z</time>
      </trkpt>
      <trkpt lat="48.96398" lon="0.16966">
        <ele>91</ele>
        <time>2024-03-20T15:27:00Z</time>
      </trkpt>
      <trkpt lat="48.96394" lon="0.16975">
        <ele>91.2</ele>
        <time>2024-03-20T15:27:01Z</time>
      </trkpt>
      <trkpt lat="48.96389" lon="0.16984">
        <ele>91.2</ele>
        <time>2024-03-20T15:27:02Z</time>
      </trkpt>
      <trkpt lat="48.96385" lon="0.16993">
        <ele>91.2</ele>
        <time>2024-03-20T15:27:03Z</time>
      </trkpt>
      <trkpt lat="48.9638" lon="0.17002">
        <ele>91.2</ele>
        <time>2024-03-20T15:27:04Z</time>
      </trkpt>
      <trkpt lat="48.96376" lon="0.1701">
        <ele>91.2</ele>
        <time>2024-03-20T15:27:05Z</time>
      </trkpt>
      <trkpt lat="48.96371" lon="0.17019">
        <ele>91.2</ele>
        <time>2024-03-20T15:27:06Z</time>
      </trkpt>
      <trkpt lat="48.96367" lon="0.17028">
        <ele>91.2</ele>
        <time>2024-03-20T15:27:07Z</time>
      </trkpt>
      <trkpt lat="48.96362" lon="0.17036">
        <ele>91.2</ele>
        <time>2024-03-20T15:27:08Z</time>
      </trkpt>
      <trkpt lat="48.96357" lon="0.17045">
        <ele>91.2</ele>
        <time>2024-03-20T15:27:09Z</time>
      </trkpt>
      <trkpt lat="48.96352" lon="0.17053">
        <ele>91.2</ele>
        <time>2024-03-20T15:27:10Z</time>
      </trkpt>
      <trkpt lat="48.96347" lon="0.17061">
        <ele>91.2</ele>
        <time>2024-03-20T15:27:11Z</time>
      </trkpt>
      <trkpt lat="48.96343" lon="0.1707">
        <ele>91.2</ele>
        <time>2024-03-20T15:27:12Z</time>
      </trkpt>
      <trkpt lat="48.96338" lon="0.17078">
        <ele>91.2</ele>
        <time>2024-03-20T15:27:13Z</time>
      </trkpt>
      <trkpt lat="48.96333" lon="0.17087">
        <ele>91.2</ele>
        <time>2024-03-20T15:27:14Z</time>
      </trkpt>
      <trkpt lat="48.96329" lon="0.17095">
        <ele>91.4</ele>
        <time>2024-03-20T15:27:15Z</time>
      </trkpt>
      <trkpt lat="48.96324" lon="0.17103">
        <ele>91.4</ele>
        <time>2024-03-20T15:27:16Z</time>
      </trkpt>
      <trkpt lat="48.96319" lon="0.17111">
        <ele>91.4</ele>
        <time>2024-03-20T15:27:17Z</time>
      </trkpt>
      <trkpt lat="48.96314" lon="0.17119">
        <ele>91.4</ele>
        <time>2024-03-20T15:27:18Z</time>
      </trkpt>
      <trkpt lat="48.96309" lon="0.17127">
        <ele>91.4</ele>
        <time>2024-03-20T15:27:19Z</time>
      </trkpt>
      <trkpt lat="48.96305" lon="0.17136">
        <ele>91.4</ele>
        <time>2024-03-20T15:27:20Z</time>
      </trkpt>
      <trkpt lat="48.963" lon="0.17144">
        <ele>91.4</ele>
        <time>2024-03-20T15:27:21Z</time>
      </trkpt>
      <trkpt lat="48.96295" lon="0.17153">
        <ele>91.4</ele>
        <time>2024-03-20T15:27:22Z</time>
      </trkpt>
      <trkpt lat="48.96289" lon="0.17161">
        <ele>91.4</ele>
        <time>2024-03-20T15:27:23Z</time>
      </trkpt>
      <trkpt lat="48.96284" lon="0.17169">
        <ele>91.4</ele>
        <time>2024-03-20T15:27:24Z</time>
      </trkpt>
      <trkpt lat="48.96279" lon="0.17177">
        <ele>91.4</ele>
        <time>2024-03-20T15:27:25Z</time>
      </trkpt>
      <trkpt lat="48.96274" lon="0.17185">
        <ele>91.4</ele>
        <time>2024-03-20T15:27:26Z</time>
      </trkpt>
      <trkpt lat="48.96269" lon="0.17193">
        <ele>91.4</ele>
        <time>2024-03-20T15:27:27Z</time>
      </trkpt>
      <trkpt lat="48.96264" lon="0.17201">
        <ele>91.4</ele>
        <time>2024-03-20T15:27:28Z</time>
      </trkpt>
      <trkpt lat="48.96259" lon="0.17209">
        <ele>91.6</ele>
        <time>2024-03-20T15:27:29Z</time>
      </trkpt>
      <trkpt lat="48.96253" lon="0.17216">
        <ele>91.6</ele>
        <time>2024-03-20T15:27:30Z</time>
      </trkpt>
      <trkpt lat="48.96248" lon="0.17224">
        <ele>91.6</ele>
        <time>2024-03-20T15:27:31Z</time>
      </trkpt>
      <trkpt lat="48.96243" lon="0.17232">
        <ele>91.6</ele>
        <time>2024-03-20T15:27:32Z</time>
      </trkpt>
      <trkpt lat="48.96237" lon="0.1724">
        <ele>91.6</ele>
        <time>2024-03-20T15:27:33Z</time>
      </trkpt>
      <trkpt lat="48.96232" lon="0.17247">
        <ele>91.6</ele>
        <time>2024-03-20T15:27:34Z</time>
      </trkpt>
      <trkpt lat="48.96227" lon="0.17255">
        <ele>91.6</ele>
        <time>2024-03-20T15:27:35Z</time>
      </trkpt>
      <trkpt lat="48.96221" lon="0.17262">
        <ele>91.6</ele>
        <time>2024-03-20T15:27:36Z</time>
      </trkpt>
      <trkpt lat="48.96216" lon="0.1727">
        <ele>91.6</ele>
        <time>2024-03-20T15:27:37Z</time>
      </trkpt>
      <trkpt lat="48.96211" lon="0.17278">
        <ele>91.6</ele>
        <time>2024-03-20T15:27:38Z</time>
      </trkpt>
      <trkpt lat="48.96205" lon="0.17285">
        <ele>91.6</ele>
        <time>2024-03-20T15:27:39Z</time>
      </trkpt>
      <trkpt lat="48.962" lon="0.17293">
        <ele>91.6</ele>
        <time>2024-03-20T15:27:40Z</time>
      </trkpt>
      <trkpt lat="48.96195" lon="0.17301">
        <ele>91.6</ele>
        <time>2024-03-20T15:27:41Z</time>
      </trkpt>
      <trkpt lat="48.96189" lon="0.17308">
        <ele>91.6</ele>
        <time>2024-03-20T15:27:42Z</time>
      </trkpt>
      <trkpt lat="48.96184" lon="0.17316">
        <ele>91.6</ele>
        <time>2024-03-20T15:27:43Z</time>
      </trkpt>
      <trkpt lat="48.96179" lon="0.17324">
        <ele>91.6</ele>
        <time>2024-03-20T15:27:44Z</time>
      </trkpt>
      <trkpt lat="48.96173" lon="0.17331">
        <ele>91.6</ele>
        <time>2024-03-20T15:27:45Z</time>
      </trkpt>
      <trkpt lat="48.96168" lon="0.17339">
        <ele>91.6</ele>
        <time>2024-03-20T15:27:46Z</time>
      </trkpt>
      <trkpt lat="48.96163" lon="0.17347">
        <ele>91.6</ele>
        <time>2024-03-20T15:27:47Z</time>
      </trkpt>
      <trkpt lat="48.96157" lon="0.17355">
        <ele>91.6</ele>
        <time>2024-03-20T15:27:48Z</time>
      </trkpt>
      <trkpt lat="48.96152" lon="0.17362">
        <ele>91.6</ele>
        <time>2024-03-20T15:27:49Z</time>
      </trkpt>
      <trkpt lat="48.96146" lon="0.1737">
        <ele>91.6</ele>
        <time>2024-03-20T15:27:50Z</time>
      </trkpt>
      <trkpt lat="48.96141" lon="0.17378">
        <ele>91.6</ele>
        <time>2024-03-20T15:27:51Z</time>
      </trkpt>
      <trkpt lat="48.96135" lon="0.17385">
        <ele>91.6</ele>
        <time>2024-03-20T15:27:52Z</time>
      </trkpt>
      <trkpt lat="48.9613" lon="0.17393">
        <ele>91.6</ele>
        <time>2024-03-20T15:27:53Z</time>
      </trkpt>
      <trkpt lat="48.96125" lon="0.17401">
        <ele>91.6</ele>
        <time>2024-03-20T15:27:54Z</time>
      </trkpt>
      <trkpt lat="48.96119" lon="0.17409">
        <ele>91.6</ele>
        <time>2024-03-20T15:27:55Z</time>
      </trkpt>
      <trkpt lat="48.96114" lon="0.17416">
        <ele>91.6</ele>
        <time>2024-03-20T15:27:56Z</time>
      </trkpt>
      <trkpt lat="48.96108" lon="0.17423">
        <ele>91.6</ele>
        <time>2024-03-20T15:27:57Z</time>
      </trkpt>
      <trkpt lat="48.96103" lon="0.17431">
        <ele>91.6</ele>
        <time>2024-03-20T15:27:58Z</time>
      </trkpt>
      <trkpt lat="48.96097" lon="0.17438">
        <ele>91.6</ele>
        <time>2024-03-20T15:27:59Z</time>
      </trkpt>
      <trkpt lat="48.96092" lon="0.17446">
        <ele>91.6</ele>
        <time>2024-03-20T15:28:00Z</time>
      </trkpt>
      <trkpt lat="48.96087" lon="0.17453">
        <ele>91.6</ele>
        <time>2024-03-20T15:28:01Z</time>
      </trkpt>
      <trkpt lat="48.96082" lon="0.1746">
        <ele>91.6</ele>
        <time>2024-03-20T15:28:02Z</time>
      </trkpt>
      <trkpt lat="48.96077" lon="0.17468">
        <ele>91.6</ele>
        <time>2024-03-20T15:28:03Z</time>
      </trkpt>
      <trkpt lat="48.96072" lon="0.17475">
        <ele>91.6</ele>
        <time>2024-03-20T15:28:04Z</time>
      </trkpt>
      <trkpt lat="48.96067" lon="0.17482">
        <ele>91.6</ele>
        <time>2024-03-20T15:28:05Z</time>
      </trkpt>
      <trkpt lat="48.96062" lon="0.17489">
        <ele>91.6</ele>
        <time>2024-03-20T15:28:06Z</time>
      </trkpt>
      <trkpt lat="48.96058" lon="0.17497">
        <ele>91.8</ele>
        <time>2024-03-20T15:28:07Z</time>
      </trkpt>
      <trkpt lat="48.96053" lon="0.17503">
        <ele>91.8</ele>
        <time>2024-03-20T15:28:08Z</time>
      </trkpt>
      <trkpt lat="48.96049" lon="0.17509">
        <ele>91.8</ele>
        <time>2024-03-20T15:28:09Z</time>
      </trkpt>
      <trkpt lat="48.96044" lon="0.17515">
        <ele>91.8</ele>
        <time>2024-03-20T15:28:10Z</time>
      </trkpt>
      <trkpt lat="48.9604" lon="0.17521">
        <ele>91.8</ele>
        <time>2024-03-20T15:28:11Z</time>
      </trkpt>
      <trkpt lat="48.96036" lon="0.17526">
        <ele>91.8</ele>
        <time>2024-03-20T15:28:12Z</time>
      </trkpt>
      <trkpt lat="48.96033" lon="0.17532">
        <ele>91.8</ele>
        <time>2024-03-20T15:28:13Z</time>
      </trkpt>
      <trkpt lat="48.96029" lon="0.17537">
        <ele>92</ele>
        <time>2024-03-20T15:28:14Z</time>
      </trkpt>
      <trkpt lat="48.96026" lon="0.17542">
        <ele>92</ele>
        <time>2024-03-20T15:28:15Z</time>
      </trkpt>
      <trkpt lat="48.96023" lon="0.17546">
        <ele>92</ele>
        <time>2024-03-20T15:28:16Z</time>
      </trkpt>
      <trkpt lat="48.96021" lon="0.17551">
        <ele>92</ele>
        <time>2024-03-20T15:28:17Z</time>
      </trkpt>
      <trkpt lat="48.96018" lon="0.17555">
        <ele>92</ele>
        <time>2024-03-20T15:28:18Z</time>
      </trkpt>
      <trkpt lat="48.96016" lon="0.17558">
        <ele>92</ele>
        <time>2024-03-20T15:28:19Z</time>
      </trkpt>
      <trkpt lat="48.96014" lon="0.17561">
        <ele>92.2</ele>
        <time>2024-03-20T15:28:20Z</time>
      </trkpt>
      <trkpt lat="48.96012" lon="0.17564">
        <ele>92.2</ele>
        <time>2024-03-20T15:28:21Z</time>
      </trkpt>
      <trkpt lat="48.9601" lon="0.17567">
        <ele>92.2</ele>
        <time>2024-03-20T15:28:22Z</time>
      </trkpt>
      <trkpt lat="48.96008" lon="0.1757">
        <ele>92.2</ele>
        <time>2024-03-20T15:28:23Z</time>
      </trkpt>
      <trkpt lat="48.96005" lon="0.17573">
        <ele>92.2</ele>
        <time>2024-03-20T15:28:24Z</time>
      </trkpt>
      <trkpt lat="48.96003" lon="0.17576">
        <ele>92.2</ele>
        <time>2024-03-20T15:28:25Z</time>
      </trkpt>
      <trkpt lat="48.96" lon="0.1758">
        <ele>92.2</ele>
        <time>2024-03-20T15:28:26Z</time>
      </trkpt>
      <trkpt lat="48.95997" lon="0.17586">
        <ele>92.2</ele>
        <time>2024-03-20T15:28:27Z</time>
      </trkpt>
      <trkpt lat="48.95993" lon="0.17592">
        <ele>92.2</ele>
        <time>2024-03-20T15:28:28Z</time>
      </trkpt>
      <trkpt lat="48.9599" lon="0.17599">
        <ele>92.2</ele>
        <time>2024-03-20T15:28:29Z</time>
      </trkpt>
      <trkpt lat="48.95986" lon="0.17606">
        <ele>92.2</ele>
        <time>2024-03-20T15:28:30Z</time>
      </trkpt>
      <trkpt lat="48.95982" lon="0.17614">
        <ele>92.2</ele>
        <time>2024-03-20T15:28:31Z</time>
      </trkpt>
      <trkpt lat="48.95977" lon="0.17622">
        <ele>92.2</ele>
        <time>2024-03-20T15:28:32Z</time>
      </trkpt>
      <trkpt lat="48.95972" lon="0.17629">
        <ele>92.2</ele>
        <time>2024-03-20T15:28:33Z</time>
      </trkpt>
      <trkpt lat="48.95967" lon="0.17637">
        <ele>92.2</ele>
        <time>2024-03-20T15:28:34Z</time>
      </trkpt>
      <trkpt lat="48.95962" lon="0.17644">
        <ele>92.2</ele>
        <time>2024-03-20T15:28:35Z</time>
      </trkpt>
      <trkpt lat="48.95957" lon="0.17653">
        <ele>92.2</ele>
        <time>2024-03-20T15:28:36Z</time>
      </trkpt>
      <trkpt lat="48.95953" lon="0.17661">
        <ele>92.2</ele>
        <time>2024-03-20T15:28:37Z</time>
      </trkpt>
      <trkpt lat="48.95948" lon="0.17669">
        <ele>92.2</ele>
        <time>2024-03-20T15:28:38Z</time>
      </trkpt>
      <trkpt lat="48.95943" lon="0.17677">
        <ele>92.2</ele>
        <time>2024-03-20T15:28:39Z</time>
      </trkpt>
      <trkpt lat="48.95938" lon="0.17685">
        <ele>92</ele>
        <time>2024-03-20T15:28:40Z</time>
      </trkpt>
      <trkpt lat="48.95934" lon="0.17693">
        <ele>92</ele>
        <time>2024-03-20T15:28:41Z</time>
      </trkpt>
      <trkpt lat="48.95929" lon="0.177">
        <ele>92</ele>
        <time>2024-03-20T15:28:42Z</time>
      </trkpt>
      <trkpt lat="48.95925" lon="0.17707">
        <ele>92</ele>
        <time>2024-03-20T15:28:43Z</time>
      </trkpt>
      <trkpt lat="48.9592" lon="0.17715">
        <ele>92</ele>
        <time>2024-03-20T15:28:44Z</time>
      </trkpt>
      <trkpt lat="48.95916" lon="0.17722">
        <ele>92</ele>
        <time>2024-03-20T15:28:45Z</time>
      </trkpt>
      <trkpt lat="48.95911" lon="0.1773">
        <ele>92</ele>
        <time>2024-03-20T15:28:46Z</time>
      </trkpt>
      <trkpt lat="48.95907" lon="0.17739">
        <ele>91.8</ele>
        <time>2024-03-20T15:28:47Z</time>
      </trkpt>
      <trkpt lat="48.95902" lon="0.17747">
        <ele>91.8</ele>
        <time>2024-03-20T15:28:48Z</time>
      </trkpt>
      <trkpt lat="48.95897" lon="0.17755">
        <ele>91.8</ele>
        <time>2024-03-20T15:28:49Z</time>
      </trkpt>
      <trkpt lat="48.95892" lon="0.17763">
        <ele>91.8</ele>
        <time>2024-03-20T15:28:50Z</time>
      </trkpt>
      <trkpt lat="48.95887" lon="0.17771">
        <ele>91.8</ele>
        <time>2024-03-20T15:28:51Z</time>
      </trkpt>
      <trkpt lat="48.95882" lon="0.1778">
        <ele>91.8</ele>
        <time>2024-03-20T15:28:52Z</time>
      </trkpt>
      <trkpt lat="48.95877" lon="0.17788">
        <ele>91.8</ele>
        <time>2024-03-20T15:28:53Z</time>
      </trkpt>
      <trkpt lat="48.95872" lon="0.17796">
        <ele>91.8</ele>
        <time>2024-03-20T15:28:54Z</time>
      </trkpt>
      <trkpt lat="48.95867" lon="0.17805">
        <ele>91.8</ele>
        <time>2024-03-20T15:28:55Z</time>
      </trkpt>
      <trkpt lat="48.95862" lon="0.17813">
        <ele>91.8</ele>
        <time>2024-03-20T15:28:56Z</time>
      </trkpt>
      <trkpt lat="48.95857" lon="0.17821">
        <ele>91.8</ele>
        <time>2024-03-20T15:28:57Z</time>
      </trkpt>
      <trkpt lat="48.95853" lon="0.1783">
        <ele>91.8</ele>
        <time>2024-03-20T15:28:58Z</time>
      </trkpt>
      <trkpt lat="48.95848" lon="0.17838">
        <ele>91.6</ele>
        <time>2024-03-20T15:28:59Z</time>
      </trkpt>
      <trkpt lat="48.95843" lon="0.17846">
        <ele>91.6</ele>
        <time>2024-03-20T15:29:00Z</time>
      </trkpt>
      <trkpt lat="48.95839" lon="0.17854">
        <ele>91.6</ele>
        <time>2024-03-20T15:29:01Z</time>
      </trkpt>
      <trkpt lat="48.95834" lon="0.17862">
        <ele>91.6</ele>
        <time>2024-03-20T15:29:02Z</time>
      </trkpt>
      <trkpt lat="48.9583" lon="0.17869">
        <ele>91.6</ele>
        <time>2024-03-20T15:29:03Z</time>
      </trkpt>
      <trkpt lat="48.95825" lon="0.17877">
        <ele>91.6</ele>
        <time>2024-03-20T15:29:04Z</time>
      </trkpt>
      <trkpt lat="48.9582" lon="0.17885">
        <ele>91.6</ele>
        <time>2024-03-20T15:29:05Z</time>
      </trkpt>
      <trkpt lat="48.95815" lon="0.17893">
        <ele>91.6</ele>
        <time>2024-03-20T15:29:06Z</time>
      </trkpt>
      <trkpt lat="48.95811" lon="0.179">
        <ele>91.6</ele>
        <time>2024-03-20T15:29:07Z</time>
      </trkpt>
      <trkpt lat="48.95806" lon="0.17908">
        <ele>91.6</ele>
        <time>2024-03-20T15:29:08Z</time>
      </trkpt>
      <trkpt lat="48.95801" lon="0.17916">
        <ele>91.8</ele>
        <time>2024-03-20T15:29:09Z</time>
      </trkpt>
      <trkpt lat="48.95797" lon="0.17925">
        <ele>91.8</ele>
        <time>2024-03-20T15:29:10Z</time>
      </trkpt>
      <trkpt lat="48.95792" lon="0.17933">
        <ele>91.8</ele>
        <time>2024-03-20T15:29:11Z</time>
      </trkpt>
      <trkpt lat="48.95788" lon="0.1794">
        <ele>91.8</ele>
        <time>2024-03-20T15:29:12Z</time>
      </trkpt>
      <trkpt lat="48.95783" lon="0.17949">
        <ele>91.8</ele>
        <time>2024-03-20T15:29:13Z</time>
      </trkpt>
      <trkpt lat="48.95779" lon="0.17956">
        <ele>91.8</ele>
        <time>2024-03-20T15:29:14Z</time>
      </trkpt>
      <trkpt lat="48.95774" lon="0.17964">
        <ele>91.8</ele>
        <time>2024-03-20T15:29:15Z</time>
      </trkpt>
      <trkpt lat="48.9577" lon="0.17972">
        <ele>91.8</ele>
        <time>2024-03-20T15:29:16Z</time>
      </trkpt>
      <trkpt lat="48.95765" lon="0.17979">
        <ele>92</ele>
        <time>2024-03-20T15:29:17Z</time>
      </trkpt>
      <trkpt lat="48.95761" lon="0.17987">
        <ele>92</ele>
        <time>2024-03-20T15:29:18Z</time>
      </trkpt>
      <trkpt lat="48.95756" lon="0.17995">
        <ele>92</ele>
        <time>2024-03-20T15:29:19Z</time>
      </trkpt>
      <trkpt lat="48.95751" lon="0.18002">
        <ele>92</ele>
        <time>2024-03-20T15:29:20Z</time>
      </trkpt>
      <trkpt lat="48.95747" lon="0.1801">
        <ele>92</ele>
        <time>2024-03-20T15:29:21Z</time>
      </trkpt>
      <trkpt lat="48.95742" lon="0.18017">
        <ele>92.2</ele>
        <time>2024-03-20T15:29:22Z</time>
      </trkpt>
      <trkpt lat="48.95738" lon="0.18025">
        <ele>92.2</ele>
        <time>2024-03-20T15:29:23Z</time>
      </trkpt>
      <trkpt lat="48.95733" lon="0.18032">
        <ele>92.2</ele>
        <time>2024-03-20T15:29:24Z</time>
      </trkpt>
      <trkpt lat="48.95729" lon="0.1804">
        <ele>92.4</ele>
        <time>2024-03-20T15:29:25Z</time>
      </trkpt>
      <trkpt lat="48.95725" lon="0.18047">
        <ele>92.4</ele>
        <time>2024-03-20T15:29:26Z</time>
      </trkpt>
      <trkpt lat="48.9572" lon="0.18055">
        <ele>92.4</ele>
        <time>2024-03-20T15:29:27Z</time>
      </trkpt>
      <trkpt lat="48.95716" lon="0.18062">
        <ele>92.4</ele>
        <time>2024-03-20T15:29:28Z</time>
      </trkpt>
      <trkpt lat="48.95711" lon="0.1807">
        <ele>92.6</ele>
        <time>2024-03-20T15:29:29Z</time>
      </trkpt>
      <trkpt lat="48.95707" lon="0.18077">
        <ele>92.6</ele>
        <time>2024-03-20T15:29:30Z</time>
      </trkpt>
      <trkpt lat="48.95702" lon="0.18084">
        <ele>92.6</ele>
        <time>2024-03-20T15:29:31Z</time>
      </trkpt>
      <trkpt lat="48.95698" lon="0.18091">
        <ele>92.6</ele>
        <time>2024-03-20T15:29:32Z</time>
      </trkpt>
      <trkpt lat="48.95693" lon="0.18098">
        <ele>92.6</ele>
        <time>2024-03-20T15:29:33Z</time>
      </trkpt>
      <trkpt lat="48.95689" lon="0.18105">
        <ele>92.8</ele>
        <time>2024-03-20T15:29:34Z</time>
      </trkpt>
      <trkpt lat="48.95685" lon="0.18113">
        <ele>93</ele>
        <time>2024-03-20T15:29:35Z</time>
      </trkpt>
      <trkpt lat="48.9568" lon="0.18121">
        <ele>93.2</ele>
        <time>2024-03-20T15:29:36Z</time>
      </trkpt>
      <trkpt lat="48.95676" lon="0.18128">
        <ele>93.4</ele>
        <time>2024-03-20T15:29:37Z</time>
      </trkpt>
      <trkpt lat="48.95672" lon="0.18136">
        <ele>93.4</ele>
        <time>2024-03-20T15:29:38Z</time>
      </trkpt>
      <trkpt lat="48.95667" lon="0.18143">
        <ele>93.6</ele>
        <time>2024-03-20T15:29:39Z</time>
      </trkpt>
      <trkpt lat="48.95663" lon="0.1815">
        <ele>93.8</ele>
        <time>2024-03-20T15:29:40Z</time>
      </trkpt>
      <trkpt lat="48.95659" lon="0.18157">
        <ele>94</ele>
        <time>2024-03-20T15:29:41Z</time>
      </trkpt>
      <trkpt lat="48.95654" lon="0.18165">
        <ele>94</ele>
        <time>2024-03-20T15:29:42Z</time>
      </trkpt>
      <trkpt lat="48.9565" lon="0.18172">
        <ele>94.2</ele>
        <time>2024-03-20T15:29:43Z</time>
      </trkpt>
      <trkpt lat="48.95646" lon="0.18179">
        <ele>94.2</ele>
        <time>2024-03-20T15:29:44Z</time>
      </trkpt>
      <trkpt lat="48.95642" lon="0.18187">
        <ele>94.4</ele>
        <time>2024-03-20T15:29:45Z</time>
      </trkpt>
      <trkpt lat="48.95638" lon="0.18194">
        <ele>94.6</ele>
        <time>2024-03-20T15:29:46Z</time>
      </trkpt>
      <trkpt lat="48.95634" lon="0.18201">
        <ele>94.8</ele>
        <time>2024-03-20T15:29:47Z</time>
      </trkpt>
      <trkpt lat="48.9563" lon="0.18208">
        <ele>95</ele>
        <time>2024-03-20T15:29:48Z</time>
      </trkpt>
      <trkpt lat="48.95626" lon="0.18215">
        <ele>95</ele>
        <time>2024-03-20T15:29:49Z</time>
      </trkpt>
      <trkpt lat="48.95622" lon="0.18222">
        <ele>95.2</ele>
        <time>2024-03-20T15:29:50Z</time>
      </trkpt>
      <trkpt lat="48.95617" lon="0.18229">
        <ele>95.4</ele>
        <time>2024-03-20T15:29:51Z</time>
      </trkpt>
      <trkpt lat="48.95613" lon="0.18236">
        <ele>95.6</ele>
        <time>2024-03-20T15:29:52Z</time>
      </trkpt>
      <trkpt lat="48.95609" lon="0.18243">
        <ele>95.8</ele>
        <time>2024-03-20T15:29:53Z</time>
      </trkpt>
      <trkpt lat="48.95605" lon="0.1825">
        <ele>95.8</ele>
        <time>2024-03-20T15:29:54Z</time>
      </trkpt>
      <trkpt lat="48.956" lon="0.18256">
        <ele>96.2</ele>
        <time>2024-03-20T15:29:55Z</time>
      </trkpt>
      <trkpt lat="48.95596" lon="0.18263">
        <ele>96.2</ele>
        <time>2024-03-20T15:29:56Z</time>
      </trkpt>
      <trkpt lat="48.95592" lon="0.1827">
        <ele>96.4</ele>
        <time>2024-03-20T15:29:57Z</time>
      </trkpt>
      <trkpt lat="48.95588" lon="0.18277">
        <ele>96.4</ele>
        <time>2024-03-20T15:29:58Z</time>
      </trkpt>
      <trkpt lat="48.95584" lon="0.18284">
        <ele>96.6</ele>
        <time>2024-03-20T15:29:59Z</time>
      </trkpt>
      <trkpt lat="48.9558" lon="0.1829">
        <ele>96.6</ele>
        <time>2024-03-20T15:30:00Z</time>
      </trkpt>
      <trkpt lat="48.95576" lon="0.18297">
        <ele>96.8</ele>
        <time>2024-03-20T15:30:01Z</time>
      </trkpt>
      <trkpt lat="48.95572" lon="0.18303">
        <ele>97</ele>
        <time>2024-03-20T15:30:02Z</time>
      </trkpt>
      <trkpt lat="48.95566" lon="0.18309">
        <ele>97.2</ele>
        <time>2024-03-20T15:30:03Z</time>
      </trkpt>
      <trkpt lat="48.95562" lon="0.18315">
        <ele>97.4</ele>
        <time>2024-03-20T15:30:04Z</time>
      </trkpt>
      <trkpt lat="48.95557" lon="0.18321">
        <ele>97.4</ele>
        <time>2024-03-20T15:30:05Z</time>
      </trkpt>
      <trkpt lat="48.95553" lon="0.18327">
        <ele>97.6</ele>
        <time>2024-03-20T15:30:06Z</time>
      </trkpt>
      <trkpt lat="48.95549" lon="0.18334">
        <ele>97.8</ele>
        <time>2024-03-20T15:30:07Z</time>
      </trkpt>
      <trkpt lat="48.95545" lon="0.18341">
        <ele>98</ele>
        <time>2024-03-20T15:30:08Z</time>
      </trkpt>
      <trkpt lat="48.95542" lon="0.18348">
        <ele>98.2</ele>
        <time>2024-03-20T15:30:09Z</time>
      </trkpt>
      <trkpt lat="48.95538" lon="0.18355">
        <ele>98.4</ele>
        <time>2024-03-20T15:30:10Z</time>
      </trkpt>
      <trkpt lat="48.95534" lon="0.18361">
        <ele>98.4</ele>
        <time>2024-03-20T15:30:11Z</time>
      </trkpt>
      <trkpt lat="48.9553" lon="0.18368">
        <ele>98.6</ele>
        <time>2024-03-20T15:30:12Z</time>
      </trkpt>
      <trkpt lat="48.95526" lon="0.18375">
        <ele>98.8</ele>
        <time>2024-03-20T15:30:13Z</time>
      </trkpt>
      <trkpt lat="48.95522" lon="0.18381">
        <ele>98.8</ele>
        <time>2024-03-20T15:30:14Z</time>
      </trkpt>
      <trkpt lat="48.95518" lon="0.18388">
        <ele>99</ele>
        <time>2024-03-20T15:30:15Z</time>
      </trkpt>
      <trkpt lat="48.95514" lon="0.18395">
        <ele>99.2</ele>
        <time>2024-03-20T15:30:16Z</time>
      </trkpt>
      <trkpt lat="48.9551" lon="0.18402">
        <ele>99.4</ele>
        <time>2024-03-20T15:30:17Z</time>
      </trkpt>
      <trkpt lat="48.95506" lon="0.1841">
        <ele>99.4</ele>
        <time>2024-03-20T15:30:18Z</time>
      </trkpt>
      <trkpt lat="48.95503" lon="0.18416">
        <ele>99.6</ele>
        <time>2024-03-20T15:30:19Z</time>
      </trkpt>
      <trkpt lat="48.95499" lon="0.18423">
        <ele>99.8</ele>
        <time>2024-03-20T15:30:20Z</time>
      </trkpt>
      <trkpt lat="48.95495" lon="0.18429">
        <ele>100</ele>
        <time>2024-03-20T15:30:21Z</time>
      </trkpt>
      <trkpt lat="48.95491" lon="0.18436">
        <ele>100.2</ele>
        <time>2024-03-20T15:30:22Z</time>
      </trkpt>
      <trkpt lat="48.95487" lon="0.18442">
        <ele>100.2</ele>
        <time>2024-03-20T15:30:23Z</time>
      </trkpt>
      <trkpt lat="48.95484" lon="0.18449">
        <ele>100.4</ele>
        <time>2024-03-20T15:30:24Z</time>
      </trkpt>
      <trkpt lat="48.9548" lon="0.18456">
        <ele>100.6</ele>
        <time>2024-03-20T15:30:25Z</time>
      </trkpt>
      <trkpt lat="48.95476" lon="0.18463">
        <ele>100.6</ele>
        <time>2024-03-20T15:30:26Z</time>
      </trkpt>
      <trkpt lat="48.95472" lon="0.1847">
        <ele>100.8</ele>
        <time>2024-03-20T15:30:27Z</time>
      </trkpt>
      <trkpt lat="48.95468" lon="0.18477">
        <ele>101</ele>
        <time>2024-03-20T15:30:28Z</time>
      </trkpt>
      <trkpt lat="48.95464" lon="0.18483">
        <ele>101.2</ele>
        <time>2024-03-20T15:30:29Z</time>
      </trkpt>
      <trkpt lat="48.9546" lon="0.18489">
        <ele>101.4</ele>
        <time>2024-03-20T15:30:30Z</time>
      </trkpt>
      <trkpt lat="48.95456" lon="0.18496">
        <ele>101.4</ele>
        <time>2024-03-20T15:30:31Z</time>
      </trkpt>
      <trkpt lat="48.95453" lon="0.18503">
        <ele>101.6</ele>
        <time>2024-03-20T15:30:32Z</time>
      </trkpt>
      <trkpt lat="48.95449" lon="0.1851">
        <ele>101.8</ele>
        <time>2024-03-20T15:30:33Z</time>
      </trkpt>
      <trkpt lat="48.95445" lon="0.18516">
        <ele>102</ele>
        <time>2024-03-20T15:30:34Z</time>
      </trkpt>
      <trkpt lat="48.95441" lon="0.18523">
        <ele>102.2</ele>
        <time>2024-03-20T15:30:35Z</time>
      </trkpt>
      <trkpt lat="48.95437" lon="0.1853">
        <ele>102.4</ele>
        <time>2024-03-20T15:30:36Z</time>
      </trkpt>
      <trkpt lat="48.95433" lon="0.18536">
        <ele>102.6</ele>
        <time>2024-03-20T15:30:37Z</time>
      </trkpt>
      <trkpt lat="48.9543" lon="0.18543">
        <ele>102.6</ele>
        <time>2024-03-20T15:30:38Z</time>
      </trkpt>
      <trkpt lat="48.95426" lon="0.1855">
        <ele>102.8</ele>
        <time>2024-03-20T15:30:39Z</time>
      </trkpt>
      <trkpt lat="48.95422" lon="0.18556">
        <ele>102.8</ele>
        <time>2024-03-20T15:30:40Z</time>
      </trkpt>
      <trkpt lat="48.95418" lon="0.18563">
        <ele>102.8</ele>
        <time>2024-03-20T15:30:41Z</time>
      </trkpt>
      <trkpt lat="48.95414" lon="0.18569">
        <ele>103</ele>
        <time>2024-03-20T15:30:42Z</time>
      </trkpt>
      <trkpt lat="48.9541" lon="0.18575">
        <ele>103.2</ele>
        <time>2024-03-20T15:30:43Z</time>
      </trkpt>
      <trkpt lat="48.95406" lon="0.18582">
        <ele>103.2</ele>
        <time>2024-03-20T15:30:44Z</time>
      </trkpt>
      <trkpt lat="48.95402" lon="0.18588">
        <ele>103.4</ele>
        <time>2024-03-20T15:30:45Z</time>
      </trkpt>
      <trkpt lat="48.95398" lon="0.18594">
        <ele>103.6</ele>
        <time>2024-03-20T15:30:46Z</time>
      </trkpt>
      <trkpt lat="48.95394" lon="0.18601">
        <ele>103.6</ele>
        <time>2024-03-20T15:30:47Z</time>
      </trkpt>
      <trkpt lat="48.9539" lon="0.18607">
        <ele>103.8</ele>
        <time>2024-03-20T15:30:48Z</time>
      </trkpt>
      <trkpt lat="48.95386" lon="0.18613">
        <ele>103.8</ele>
        <time>2024-03-20T15:30:49Z</time>
      </trkpt>
      <trkpt lat="48.95383" lon="0.1862">
        <ele>104</ele>
        <time>2024-03-20T15:30:50Z</time>
      </trkpt>
      <trkpt lat="48.95379" lon="0.18626">
        <ele>104.2</ele>
        <time>2024-03-20T15:30:51Z</time>
      </trkpt>
      <trkpt lat="48.95375" lon="0.18633">
        <ele>104.2</ele>
        <time>2024-03-20T15:30:52Z</time>
      </trkpt>
      <trkpt lat="48.95371" lon="0.18639">
        <ele>104.4</ele>
        <time>2024-03-20T15:30:53Z</time>
      </trkpt>
      <trkpt lat="48.95368" lon="0.18645">
        <ele>104.6</ele>
        <time>2024-03-20T15:30:54Z</time>
      </trkpt>
      <trkpt lat="48.95364" lon="0.18652">
        <ele>104.6</ele>
        <time>2024-03-20T15:30:55Z</time>
      </trkpt>
      <trkpt lat="48.95361" lon="0.18658">
        <ele>104.8</ele>
        <time>2024-03-20T15:30:56Z</time>
      </trkpt>
      <trkpt lat="48.95357" lon="0.18664">
        <ele>104.8</ele>
        <time>2024-03-20T15:30:57Z</time>
      </trkpt>
      <trkpt lat="48.95354" lon="0.18669">
        <ele>105</ele>
        <time>2024-03-20T15:30:58Z</time>
      </trkpt>
      <trkpt lat="48.95351" lon="0.18675">
        <ele>105</ele>
        <time>2024-03-20T15:30:59Z</time>
      </trkpt>
      <trkpt lat="48.95348" lon="0.18679">
        <ele>105.2</ele>
        <time>2024-03-20T15:31:00Z</time>
      </trkpt>
      <trkpt lat="48.95345" lon="0.18684">
        <ele>105.2</ele>
        <time>2024-03-20T15:31:01Z</time>
      </trkpt>
      <trkpt lat="48.95343" lon="0.18688">
        <ele>105.4</ele>
        <time>2024-03-20T15:31:02Z</time>
      </trkpt>
      <trkpt lat="48.95341" lon="0.18692">
        <ele>105.4</ele>
        <time>2024-03-20T15:31:03Z</time>
      </trkpt>
      <trkpt lat="48.95338" lon="0.18695">
        <ele>105.4</ele>
        <time>2024-03-20T15:31:04Z</time>
      </trkpt>
      <trkpt lat="48.95336" lon="0.18698">
        <ele>105.6</ele>
        <time>2024-03-20T15:31:05Z</time>
      </trkpt>
      <trkpt lat="48.95334" lon="0.18702">
        <ele>105.6</ele>
        <time>2024-03-20T15:31:06Z</time>
      </trkpt>
      <trkpt lat="48.95332" lon="0.18706">
        <ele>105.8</ele>
        <time>2024-03-20T15:31:07Z</time>
      </trkpt>
      <trkpt lat="48.9533" lon="0.1871">
        <ele>105.8</ele>
        <time>2024-03-20T15:31:08Z</time>
      </trkpt>
      <trkpt lat="48.95329" lon="0.18713">
        <ele>106</ele>
        <time>2024-03-20T15:31:09Z</time>
      </trkpt>
      <trkpt lat="48.95326" lon="0.18717">
        <ele>106.2</ele>
        <time>2024-03-20T15:31:10Z</time>
      </trkpt>
      <trkpt lat="48.95323" lon="0.18722">
        <ele>106.2</ele>
        <time>2024-03-20T15:31:11Z</time>
      </trkpt>
      <trkpt lat="48.95321" lon="0.18728">
        <ele>106.4</ele>
        <time>2024-03-20T15:31:12Z</time>
      </trkpt>
      <trkpt lat="48.95319" lon="0.18734">
        <ele>106.6</ele>
        <time>2024-03-20T15:31:13Z</time>
      </trkpt>
      <trkpt lat="48.95316" lon="0.18741">
        <ele>106.6</ele>
        <time>2024-03-20T15:31:14Z</time>
      </trkpt>
      <trkpt lat="48.95313" lon="0.18747">
        <ele>106.6</ele>
        <time>2024-03-20T15:31:15Z</time>
      </trkpt>
      <trkpt lat="48.9531" lon="0.18753">
        <ele>106.8</ele>
        <time>2024-03-20T15:31:16Z</time>
      </trkpt>
      <trkpt lat="48.95305" lon="0.18757">
        <ele>106.8</ele>
        <time>2024-03-20T15:31:17Z</time>
      </trkpt>
      <trkpt lat="48.953" lon="0.18763">
        <ele>106.8</ele>
        <time>2024-03-20T15:31:18Z</time>
      </trkpt>
      <trkpt lat="48.95296" lon="0.18767">
        <ele>106.8</ele>
        <time>2024-03-20T15:31:19Z</time>
      </trkpt>
      <trkpt lat="48.95293" lon="0.18771">
        <ele>106.8</ele>
        <time>2024-03-20T15:31:20Z</time>
      </trkpt>
      <trkpt lat="48.9529" lon="0.18775">
        <ele>106.8</ele>
        <time>2024-03-20T15:31:21Z</time>
      </trkpt>
      <trkpt lat="48.95288" lon="0.1878">
        <ele>106.8</ele>
        <time>2024-03-20T15:31:22Z</time>
      </trkpt>
      <trkpt lat="48.95286" lon="0.18784">
        <ele>107</ele>
        <time>2024-03-20T15:31:23Z</time>
      </trkpt>
      <trkpt lat="48.95284" lon="0.18787">
        <ele>107</ele>
        <time>2024-03-20T15:31:24Z</time>
      </trkpt>
      <trkpt lat="48.95282" lon="0.18789">
        <ele>107</ele>
        <time>2024-03-20T15:31:25Z</time>
      </trkpt>
      <trkpt lat="48.9528" lon="0.18792">
        <ele>107</ele>
        <time>2024-03-20T15:31:26Z</time>
      </trkpt>
      <trkpt lat="48.95277" lon="0.18795">
        <ele>107</ele>
        <time>2024-03-20T15:31:27Z</time>
      </trkpt>
      <trkpt lat="48.95275" lon="0.18797">
        <ele>107.2</ele>
        <time>2024-03-20T15:31:28Z</time>
      </trkpt>
      <trkpt lat="48.95273" lon="0.18798">
        <ele>107.2</ele>
        <time>2024-03-20T15:31:29Z</time>
      </trkpt>
      <trkpt lat="48.95271" lon="0.18799">
        <ele>107.2</ele>
        <time>2024-03-20T15:31:30Z</time>
      </trkpt>
      <trkpt lat="48.95269" lon="0.18799">
        <ele>107.4</ele>
        <time>2024-03-20T15:31:31Z</time>
      </trkpt>
      <trkpt lat="48.95268" lon="0.188">
        <ele>107.6</ele>
        <time>2024-03-20T15:31:32Z</time>
      </trkpt>
      <trkpt lat="48.95266" lon="0.188">
        <ele>107.6</ele>
        <time>2024-03-20T15:31:33Z</time>
      </trkpt>
      <trkpt lat="48.95265" lon="0.18801">
        <ele>107.8</ele>
        <time>2024-03-20T15:31:34Z</time>
      </trkpt>
      <trkpt lat="48.95265" lon="0.18801">
        <ele>107.8</ele>
        <time>2024-03-20T15:31:35Z</time>
      </trkpt>
      <trkpt lat="48.95265" lon="0.18801">
        <ele>107.8</ele>
        <time>2024-03-20T15:31:36Z</time>
      </trkpt>
      <trkpt lat="48.95265" lon="0.18801">
        <ele>108</ele>
        <time>2024-03-20T15:31:37Z</time>
      </trkpt>
      <trkpt lat="48.95273" lon="0.18796">
        <ele>108</ele>
        <time>2024-03-20T15:42:51Z</time>
      </trkpt>
      <trkpt lat="48.95275" lon="0.18796">
        <ele>108</ele>
        <time>2024-03-20T15:42:52Z</time>
      </trkpt>
      <trkpt lat="48.95277" lon="0.18795">
        <ele>108</ele>
        <time>2024-03-20T15:42:53Z</time>
      </trkpt>
      <trkpt lat="48.9528" lon="0.18796">
        <ele>108</ele>
        <time>2024-03-20T15:42:54Z</time>
      </trkpt>
      <trkpt lat="48.95282" lon="0.18796">
        <ele>108</ele>
        <time>2024-03-20T15:42:55Z</time>
      </trkpt>
      <trkpt lat="48.95285" lon="0.18796">
        <ele>108</ele>
        <time>2024-03-20T15:42:56Z</time>
      </trkpt>
      <trkpt lat="48.95288" lon="0.18795">
        <ele>108</ele>
        <time>2024-03-20T15:42:57Z</time>
      </trkpt>
      <trkpt lat="48.95291" lon="0.18793">
        <ele>108</ele>
        <time>2024-03-20T15:42:58Z</time>
      </trkpt>
      <trkpt lat="48.95294" lon="0.1879">
        <ele>107.8</ele>
        <time>2024-03-20T15:42:59Z</time>
      </trkpt>
      <trkpt lat="48.95298" lon="0.18787">
        <ele>107.8</ele>
        <time>2024-03-20T15:43:00Z</time>
      </trkpt>
      <trkpt lat="48.95302" lon="0.18784">
        <ele>107.8</ele>
        <time>2024-03-20T15:43:01Z</time>
      </trkpt>
      <trkpt lat="48.95306" lon="0.18781">
        <ele>107.8</ele>
        <time>2024-03-20T15:43:02Z</time>
      </trkpt>
      <trkpt lat="48.95311" lon="0.18777">
        <ele>107.6</ele>
        <time>2024-03-20T15:43:03Z</time>
      </trkpt>
      <trkpt lat="48.95316" lon="0.18772">
        <ele>107.6</ele>
        <time>2024-03-20T15:43:04Z</time>
      </trkpt>
      <trkpt lat="48.95321" lon="0.18768">
        <ele>107.6</ele>
        <time>2024-03-20T15:43:05Z</time>
      </trkpt>
      <trkpt lat="48.95326" lon="0.18763">
        <ele>107.4</ele>
        <time>2024-03-20T15:43:06Z</time>
      </trkpt>
      <trkpt lat="48.95332" lon="0.18758">
        <ele>107.4</ele>
        <time>2024-03-20T15:43:07Z</time>
      </trkpt>
      <trkpt lat="48.95337" lon="0.18753">
        <ele>107</ele>
        <time>2024-03-20T15:43:08Z</time>
      </trkpt>
      <trkpt lat="48.95343" lon="0.18747">
        <ele>106.8</ele>
        <time>2024-03-20T15:43:09Z</time>
      </trkpt>
      <trkpt lat="48.95348" lon="0.18741">
        <ele>106.8</ele>
        <time>2024-03-20T15:43:10Z</time>
      </trkpt>
      <trkpt lat="48.95354" lon="0.18735">
        <ele>106.6</ele>
        <time>2024-03-20T15:43:11Z</time>
      </trkpt>
      <trkpt lat="48.95359" lon="0.18728">
        <ele>106.4</ele>
        <time>2024-03-20T15:43:12Z</time>
      </trkpt>
      <trkpt lat="48.95364" lon="0.18722">
        <ele>106.2</ele>
        <time>2024-03-20T15:43:13Z</time>
      </trkpt>
      <trkpt lat="48.9537" lon="0.18716">
        <ele>105.8</ele>
        <time>2024-03-20T15:43:14Z</time>
      </trkpt>
      <trkpt lat="48.95375" lon="0.18709">
        <ele>105.4</ele>
        <time>2024-03-20T15:43:15Z</time>
      </trkpt>
      <trkpt lat="48.95381" lon="0.18702">
        <ele>105</ele>
        <time>2024-03-20T15:43:16Z</time>
      </trkpt>
      <trkpt lat="48.95387" lon="0.18695">
        <ele>104.6</ele>
        <time>2024-03-20T15:43:17Z</time>
      </trkpt>
      <trkpt lat="48.95392" lon="0.18687">
        <ele>104.4</ele>
        <time>2024-03-20T15:43:18Z</time>
      </trkpt>
      <trkpt lat="48.95398" lon="0.18679">
        <ele>104.4</ele>
        <time>2024-03-20T15:43:19Z</time>
      </trkpt>
      <trkpt lat="48.95404" lon="0.18671">
        <ele>104</ele>
        <time>2024-03-20T15:43:20Z</time>
      </trkpt>
      <trkpt lat="48.9541" lon="0.18663">
        <ele>103.8</ele>
        <time>2024-03-20T15:43:21Z</time>
      </trkpt>
      <trkpt lat="48.95417" lon="0.18655">
        <ele>103.6</ele>
        <time>2024-03-20T15:43:22Z</time>
      </trkpt>
      <trkpt lat="48.95423" lon="0.18646">
        <ele>103.4</ele>
        <time>2024-03-20T15:43:23Z</time>
      </trkpt>
      <trkpt lat="48.95429" lon="0.18638">
        <ele>103</ele>
        <time>2024-03-20T15:43:24Z</time>
      </trkpt>
      <trkpt lat="48.95434" lon="0.1863">
        <ele>102.8</ele>
        <time>2024-03-20T15:43:25Z</time>
      </trkpt>
      <trkpt lat="48.9544" lon="0.18622">
        <ele>102.8</ele>
        <time>2024-03-20T15:43:26Z</time>
      </trkpt>
      <trkpt lat="48.95446" lon="0.18615">
        <ele>102.6</ele>
        <time>2024-03-20T15:43:27Z</time>
      </trkpt>
      <trkpt lat="48.95452" lon="0.18607">
        <ele>102.4</ele>
        <time>2024-03-20T15:43:28Z</time>
      </trkpt>
      <trkpt lat="48.95457" lon="0.186">
        <ele>102.2</ele>
        <time>2024-03-20T15:43:29Z</time>
      </trkpt>
      <trkpt lat="48.95463" lon="0.18593">
        <ele>102</ele>
        <time>2024-03-20T15:43:30Z</time>
      </trkpt>
      <trkpt lat="48.95469" lon="0.18585">
        <ele>101.8</ele>
        <time>2024-03-20T15:43:31Z</time>
      </trkpt>
      <trkpt lat="48.95475" lon="0.18578">
        <ele>101.8</ele>
        <time>2024-03-20T15:43:32Z</time>
      </trkpt>
      <trkpt lat="48.9548" lon="0.18571">
        <ele>101.8</ele>
        <time>2024-03-20T15:43:33Z</time>
      </trkpt>
      <trkpt lat="48.95486" lon="0.18563">
        <ele>101.8</ele>
        <time>2024-03-20T15:43:34Z</time>
      </trkpt>
      <trkpt lat="48.95492" lon="0.18555">
        <ele>101.6</ele>
        <time>2024-03-20T15:43:35Z</time>
      </trkpt>
      <trkpt lat="48.95497" lon="0.18547">
        <ele>101.6</ele>
        <time>2024-03-20T15:43:36Z</time>
      </trkpt>
      <trkpt lat="48.95503" lon="0.18539">
        <ele>101.4</ele>
        <time>2024-03-20T15:43:37Z</time>
      </trkpt>
      <trkpt lat="48.95509" lon="0.18532">
        <ele>101.4</ele>
        <time>2024-03-20T15:43:38Z</time>
      </trkpt>
      <trkpt lat="48.95515" lon="0.18524">
        <ele>101.2</ele>
        <time>2024-03-20T15:43:39Z</time>
      </trkpt>
      <trkpt lat="48.95521" lon="0.18517">
        <ele>101.2</ele>
        <time>2024-03-20T15:43:40Z</time>
      </trkpt>
      <trkpt lat="48.95526" lon="0.18509">
        <ele>101.2</ele>
        <time>2024-03-20T15:43:41Z</time>
      </trkpt>
      <trkpt lat="48.95532" lon="0.18502">
        <ele>101</ele>
        <time>2024-03-20T15:43:42Z</time>
      </trkpt>
      <trkpt lat="48.95538" lon="0.18494">
        <ele>101</ele>
        <time>2024-03-20T15:43:43Z</time>
      </trkpt>
      <trkpt lat="48.95544" lon="0.18486">
        <ele>101</ele>
        <time>2024-03-20T15:43:44Z</time>
      </trkpt>
      <trkpt lat="48.9555" lon="0.18479">
        <ele>101</ele>
        <time>2024-03-20T15:43:45Z</time>
      </trkpt>
      <trkpt lat="48.95556" lon="0.18471">
        <ele>101</ele>
        <time>2024-03-20T15:43:46Z</time>
      </trkpt>
      <trkpt lat="48.95562" lon="0.18463">
        <ele>101</ele>
        <time>2024-03-20T15:43:47Z</time>
      </trkpt>
      <trkpt lat="48.95568" lon="0.18456">
        <ele>100.6</ele>
        <time>2024-03-20T15:43:48Z</time>
      </trkpt>
      <trkpt lat="48.95575" lon="0.18448">
        <ele>100.4</ele>
        <time>2024-03-20T15:43:49Z</time>
      </trkpt>
      <trkpt lat="48.95581" lon="0.1844">
        <ele>100.2</ele>
        <time>2024-03-20T15:43:50Z</time>
      </trkpt>
      <trkpt lat="48.95587" lon="0.18432">
        <ele>100.2</ele>
        <time>2024-03-20T15:43:51Z</time>
      </trkpt>
      <trkpt lat="48.95593" lon="0.18424">
        <ele>100</ele>
        <time>2024-03-20T15:43:52Z</time>
      </trkpt>
      <trkpt lat="48.956" lon="0.18416">
        <ele>99.8</ele>
        <time>2024-03-20T15:43:53Z</time>
      </trkpt>
      <trkpt lat="48.95606" lon="0.18408">
        <ele>99.6</ele>
        <time>2024-03-20T15:43:54Z</time>
      </trkpt>
      <trkpt lat="48.95612" lon="0.184">
        <ele>99.6</ele>
        <time>2024-03-20T15:43:55Z</time>
      </trkpt>
      <trkpt lat="48.95618" lon="0.18391">
        <ele>99.4</ele>
        <time>2024-03-20T15:43:56Z</time>
      </trkpt>
      <trkpt lat="48.95625" lon="0.18383">
        <ele>99.4</ele>
        <time>2024-03-20T15:43:57Z</time>
      </trkpt>
      <trkpt lat="48.95632" lon="0.18375">
        <ele>99.2</ele>
        <time>2024-03-20T15:43:58Z</time>
      </trkpt>
      <trkpt lat="48.95639" lon="0.18366">
        <ele>99.2</ele>
        <time>2024-03-20T15:43:59Z</time>
      </trkpt>
      <trkpt lat="48.95646" lon="0.18357">
        <ele>99.2</ele>
        <time>2024-03-20T15:44:00Z</time>
      </trkpt>
      <trkpt lat="48.95653" lon="0.18348">
        <ele>98.8</ele>
        <time>2024-03-20T15:44:01Z</time>
      </trkpt>
      <trkpt lat="48.9566" lon="0.18339">
        <ele>98.4</ele>
        <time>2024-03-20T15:44:02Z</time>
      </trkpt>
      <trkpt lat="48.95667" lon="0.1833">
        <ele>98.4</ele>
        <time>2024-03-20T15:44:03Z</time>
      </trkpt>
      <trkpt lat="48.95673" lon="0.18321">
        <ele>98</ele>
        <time>2024-03-20T15:44:04Z</time>
      </trkpt>
      <trkpt lat="48.95681" lon="0.18312">
        <ele>97.6</ele>
        <time>2024-03-20T15:44:05Z</time>
      </trkpt>
      <trkpt lat="48.95687" lon="0.18303">
        <ele>97.2</ele>
        <time>2024-03-20T15:44:06Z</time>
      </trkpt>
      <trkpt lat="48.95694" lon="0.18294">
        <ele>96.6</ele>
        <time>2024-03-20T15:44:07Z</time>
      </trkpt>
      <trkpt lat="48.95701" lon="0.18286">
        <ele>96.2</ele>
        <time>2024-03-20T15:44:08Z</time>
      </trkpt>
      <trkpt lat="48.95707" lon="0.18278">
        <ele>95.8</ele>
        <time>2024-03-20T15:44:09Z</time>
      </trkpt>
      <trkpt lat="48.95714" lon="0.18269">
        <ele>95.4</ele>
        <time>2024-03-20T15:44:10Z</time>
      </trkpt>
      <trkpt lat="48.9572" lon="0.18261">
        <ele>95</ele>
        <time>2024-03-20T15:44:11Z</time>
      </trkpt>
      <trkpt lat="48.95727" lon="0.18252">
        <ele>94.6</ele>
        <time>2024-03-20T15:44:12Z</time>
      </trkpt>
      <trkpt lat="48.95733" lon="0.18244">
        <ele>94.2</ele>
        <time>2024-03-20T15:44:13Z</time>
      </trkpt>
      <trkpt lat="48.95739" lon="0.18236">
        <ele>94</ele>
        <time>2024-03-20T15:44:14Z</time>
      </trkpt>
      <trkpt lat="48.95746" lon="0.18228">
        <ele>94</ele>
        <time>2024-03-20T15:44:15Z</time>
      </trkpt>
      <trkpt lat="48.95752" lon="0.1822">
        <ele>93.6</ele>
        <time>2024-03-20T15:44:16Z</time>
      </trkpt>
      <trkpt lat="48.95759" lon="0.18212">
        <ele>93.4</ele>
        <time>2024-03-20T15:44:17Z</time>
      </trkpt>
      <trkpt lat="48.95765" lon="0.18204">
        <ele>93.4</ele>
        <time>2024-03-20T15:44:18Z</time>
      </trkpt>
      <trkpt lat="48.95772" lon="0.18196">
        <ele>93.2</ele>
        <time>2024-03-20T15:44:19Z</time>
      </trkpt>
      <trkpt lat="48.95779" lon="0.18188">
        <ele>93.2</ele>
        <time>2024-03-20T15:44:20Z</time>
      </trkpt>
      <trkpt lat="48.95785" lon="0.1818">
        <ele>93.2</ele>
        <time>2024-03-20T15:44:21Z</time>
      </trkpt>
      <trkpt lat="48.95792" lon="0.18172">
        <ele>93</ele>
        <time>2024-03-20T15:44:22Z</time>
      </trkpt>
      <trkpt lat="48.95798" lon="0.18163">
        <ele>93</ele>
        <time>2024-03-20T15:44:23Z</time>
      </trkpt>
      <trkpt lat="48.95804" lon="0.18155">
        <ele>93</ele>
        <time>2024-03-20T15:44:24Z</time>
      </trkpt>
      <trkpt lat="48.95811" lon="0.18147">
        <ele>93</ele>
        <time>2024-03-20T15:44:25Z</time>
      </trkpt>
      <trkpt lat="48.95817" lon="0.1814">
        <ele>93</ele>
        <time>2024-03-20T15:44:26Z</time>
      </trkpt>
      <trkpt lat="48.95823" lon="0.18132">
        <ele>93</ele>
        <time>2024-03-20T15:44:27Z</time>
      </trkpt>
      <trkpt lat="48.95829" lon="0.18124">
        <ele>93</ele>
        <time>2024-03-20T15:44:28Z</time>
      </trkpt>
      <trkpt lat="48.95836" lon="0.18116">
        <ele>93</ele>
        <time>2024-03-20T15:44:29Z</time>
      </trkpt>
      <trkpt lat="48.95842" lon="0.18109">
        <ele>93</ele>
        <time>2024-03-20T15:44:30Z</time>
      </trkpt>
      <trkpt lat="48.95848" lon="0.18101">
        <ele>93</ele>
        <time>2024-03-20T15:44:31Z</time>
      </trkpt>
      <trkpt lat="48.95855" lon="0.18094">
        <ele>93</ele>
        <time>2024-03-20T15:44:32Z</time>
      </trkpt>
      <trkpt lat="48.95861" lon="0.18086">
        <ele>93</ele>
        <time>2024-03-20T15:44:33Z</time>
      </trkpt>
      <trkpt lat="48.95868" lon="0.18078">
        <ele>93</ele>
        <time>2024-03-20T15:44:34Z</time>
      </trkpt>
      <trkpt lat="48.95874" lon="0.18071">
        <ele>93.2</ele>
        <time>2024-03-20T15:44:35Z</time>
      </trkpt>
      <trkpt lat="48.95881" lon="0.18063">
        <ele>93.2</ele>
        <time>2024-03-20T15:44:36Z</time>
      </trkpt>
      <trkpt lat="48.95887" lon="0.18055">
        <ele>93.4</ele>
        <time>2024-03-20T15:44:37Z</time>
      </trkpt>
      <trkpt lat="48.95893" lon="0.18048">
        <ele>93.6</ele>
        <time>2024-03-20T15:44:38Z</time>
      </trkpt>
      <trkpt lat="48.95899" lon="0.18041">
        <ele>93.6</ele>
        <time>2024-03-20T15:44:39Z</time>
      </trkpt>
      <trkpt lat="48.95905" lon="0.18034">
        <ele>93.6</ele>
        <time>2024-03-20T15:44:40Z</time>
      </trkpt>
      <trkpt lat="48.95911" lon="0.18027">
        <ele>93.8</ele>
        <time>2024-03-20T15:44:41Z</time>
      </trkpt>
      <trkpt lat="48.95916" lon="0.18019">
        <ele>93.8</ele>
        <time>2024-03-20T15:44:42Z</time>
      </trkpt>
      <trkpt lat="48.95922" lon="0.18012">
        <ele>93.8</ele>
        <time>2024-03-20T15:44:43Z</time>
      </trkpt>
      <trkpt lat="48.95927" lon="0.18006">
        <ele>93.8</ele>
        <time>2024-03-20T15:44:44Z</time>
      </trkpt>
      <trkpt lat="48.95933" lon="0.17999">
        <ele>94</ele>
        <time>2024-03-20T15:44:45Z</time>
      </trkpt>
      <trkpt lat="48.95938" lon="0.17992">
        <ele>94</ele>
        <time>2024-03-20T15:44:46Z</time>
      </trkpt>
      <trkpt lat="48.95943" lon="0.17985">
        <ele>94</ele>
        <time>2024-03-20T15:44:47Z</time>
      </trkpt>
      <trkpt lat="48.95948" lon="0.17977">
        <ele>94</ele>
        <time>2024-03-20T15:44:48Z</time>
      </trkpt>
      <trkpt lat="48.95953" lon="0.1797">
        <ele>94.2</ele>
        <time>2024-03-20T15:44:49Z</time>
      </trkpt>
      <trkpt lat="48.95958" lon="0.17963">
        <ele>94.2</ele>
        <time>2024-03-20T15:44:50Z</time>
      </trkpt>
      <trkpt lat="48.95962" lon="0.17955">
        <ele>94.2</ele>
        <time>2024-03-20T15:44:51Z</time>
      </trkpt>
      <trkpt lat="48.95967" lon="0.17948">
        <ele>94.4</ele>
        <time>2024-03-20T15:44:52Z</time>
      </trkpt>
      <trkpt lat="48.95971" lon="0.1794">
        <ele>94.4</ele>
        <time>2024-03-20T15:44:53Z</time>
      </trkpt>
      <trkpt lat="48.95975" lon="0.17932">
        <ele>94.4</ele>
        <time>2024-03-20T15:44:54Z</time>
      </trkpt>
      <trkpt lat="48.95979" lon="0.17924">
        <ele>94.6</ele>
        <time>2024-03-20T15:44:55Z</time>
      </trkpt>
      <trkpt lat="48.95983" lon="0.17917">
        <ele>94.8</ele>
        <time>2024-03-20T15:44:56Z</time>
      </trkpt>
      <trkpt lat="48.95987" lon="0.17909">
        <ele>94.8</ele>
        <time>2024-03-20T15:44:57Z</time>
      </trkpt>
      <trkpt lat="48.9599" lon="0.17902">
        <ele>95</ele>
        <time>2024-03-20T15:44:58Z</time>
      </trkpt>
      <trkpt lat="48.95994" lon="0.17894">
        <ele>95.2</ele>
        <time>2024-03-20T15:44:59Z</time>
      </trkpt>
      <trkpt lat="48.95997" lon="0.17886">
        <ele>95.4</ele>
        <time>2024-03-20T15:45:00Z</time>
      </trkpt>
      <trkpt lat="48.96001" lon="0.17878">
        <ele>95.4</ele>
        <time>2024-03-20T15:45:01Z</time>
      </trkpt>
      <trkpt lat="48.96004" lon="0.1787">
        <ele>95.4</ele>
        <time>2024-03-20T15:45:02Z</time>
      </trkpt>
      <trkpt lat="48.96006" lon="0.17862">
        <ele>95.4</ele>
        <time>2024-03-20T15:45:03Z</time>
      </trkpt>
      <trkpt lat="48.96009" lon="0.17855">
        <ele>95.4</ele>
        <time>2024-03-20T15:45:04Z</time>
      </trkpt>
      <trkpt lat="48.96012" lon="0.17847">
        <ele>95.6</ele>
        <time>2024-03-20T15:45:05Z</time>
      </trkpt>
      <trkpt lat="48.96015" lon="0.1784">
        <ele>95.8</ele>
        <time>2024-03-20T15:45:06Z</time>
      </trkpt>
      <trkpt lat="48.96018" lon="0.17833">
        <ele>96</ele>
        <time>2024-03-20T15:45:07Z</time>
      </trkpt>
      <trkpt lat="48.96021" lon="0.17827">
        <ele>96</ele>
        <time>2024-03-20T15:45:08Z</time>
      </trkpt>
      <trkpt lat="48.96024" lon="0.17823">
        <ele>96</ele>
        <time>2024-03-20T15:45:09Z</time>
      </trkpt>
      <trkpt lat="48.96027" lon="0.17821">
        <ele>96.2</ele>
        <time>2024-03-20T15:45:10Z</time>
      </trkpt>
      <trkpt lat="48.9603" lon="0.17821">
        <ele>96.2</ele>
        <time>2024-03-20T15:45:11Z</time>
      </trkpt>
      <trkpt lat="48.96033" lon="0.17822">
        <ele>96.2</ele>
        <time>2024-03-20T15:45:12Z</time>
      </trkpt>
      <trkpt lat="48.96035" lon="0.17824">
        <ele>96.4</ele>
        <time>2024-03-20T15:45:13Z</time>
      </trkpt>
      <trkpt lat="48.96037" lon="0.17826">
        <ele>96.4</ele>
        <time>2024-03-20T15:45:14Z</time>
      </trkpt>
      <trkpt lat="48.96038" lon="0.17829">
        <ele>96.4</ele>
        <time>2024-03-20T15:45:15Z</time>
      </trkpt>
      <trkpt lat="48.96039" lon="0.17831">
        <ele>96.4</ele>
        <time>2024-03-20T15:45:16Z</time>
      </trkpt>
      <trkpt lat="48.9604" lon="0.17834">
        <ele>96.6</ele>
        <time>2024-03-20T15:45:17Z</time>
      </trkpt>
      <trkpt lat="48.96041" lon="0.17836">
        <ele>96.8</ele>
        <time>2024-03-20T15:45:18Z</time>
      </trkpt>
      <trkpt lat="48.96042" lon="0.17838">
        <ele>97</ele>
        <time>2024-03-20T15:45:19Z</time>
      </trkpt>
      <trkpt lat="48.96043" lon="0.1784">
        <ele>97.2</ele>
        <time>2024-03-20T15:45:20Z</time>
      </trkpt>
      <trkpt lat="48.96044" lon="0.17842">
        <ele>97.4</ele>
        <time>2024-03-20T15:45:21Z</time>
      </trkpt>
      <trkpt lat="48.96045" lon="0.17845">
        <ele>97.4</ele>
        <time>2024-03-20T15:45:22Z</time>
      </trkpt>
      <trkpt lat="48.96046" lon="0.17847">
        <ele>97.4</ele>
        <time>2024-03-20T15:45:23Z</time>
      </trkpt>
      <trkpt lat="48.96047" lon="0.1785">
        <ele>97.6</ele>
        <time>2024-03-20T15:45:24Z</time>
      </trkpt>
      <trkpt lat="48.96047" lon="0.17853">
        <ele>97.6</ele>
        <time>2024-03-20T15:45:25Z</time>
      </trkpt>
      <trkpt lat="48.96049" lon="0.17856">
        <ele>97.6</ele>
        <time>2024-03-20T15:45:26Z</time>
      </trkpt>
      <trkpt lat="48.9605" lon="0.17859">
        <ele>97.6</ele>
        <time>2024-03-20T15:45:27Z</time>
      </trkpt>
      <trkpt lat="48.96051" lon="0.17862">
        <ele>97.6</ele>
        <time>2024-03-20T15:45:28Z</time>
      </trkpt>
      <trkpt lat="48.96052" lon="0.17866">
        <ele>97.6</ele>
        <time>2024-03-20T15:45:29Z</time>
      </trkpt>
      <trkpt lat="48.96053" lon="0.17869">
        <ele>97.6</ele>
        <time>2024-03-20T15:45:30Z</time>
      </trkpt>
      <trkpt lat="48.96054" lon="0.17873">
        <ele>97.6</ele>
        <time>2024-03-20T15:45:31Z</time>
      </trkpt>
      <trkpt lat="48.96055" lon="0.17877">
        <ele>97.6</ele>
        <time>2024-03-20T15:45:32Z</time>
      </trkpt>
      <trkpt lat="48.96056" lon="0.17881">
        <ele>97.6</ele>
        <time>2024-03-20T15:45:33Z</time>
      </trkpt>
      <trkpt lat="48.96057" lon="0.17885">
        <ele>97.6</ele>
        <time>2024-03-20T15:45:34Z</time>
      </trkpt>
      <trkpt lat="48.96059" lon="0.17889">
        <ele>97.6</ele>
        <time>2024-03-20T15:45:35Z</time>
      </trkpt>
      <trkpt lat="48.9606" lon="0.17894">
        <ele>97.6</ele>
        <time>2024-03-20T15:45:36Z</time>
      </trkpt>
      <trkpt lat="48.96062" lon="0.17898">
        <ele>97.6</ele>
        <time>2024-03-20T15:45:37Z</time>
      </trkpt>
      <trkpt lat="48.96063" lon="0.17903">
        <ele>97.6</ele>
        <time>2024-03-20T15:45:38Z</time>
      </trkpt>
      <trkpt lat="48.96065" lon="0.17908">
        <ele>97.8</ele>
        <time>2024-03-20T15:45:39Z</time>
      </trkpt>
      <trkpt lat="48.96067" lon="0.17913">
        <ele>97.8</ele>
        <time>2024-03-20T15:45:40Z</time>
      </trkpt>
      <trkpt lat="48.96068" lon="0.17918">
        <ele>98</ele>
        <time>2024-03-20T15:45:41Z</time>
      </trkpt>
      <trkpt lat="48.9607" lon="0.17924">
        <ele>98.2</ele>
        <time>2024-03-20T15:45:42Z</time>
      </trkpt>
      <trkpt lat="48.96071" lon="0.17929">
        <ele>98.4</ele>
        <time>2024-03-20T15:45:43Z</time>
      </trkpt>
      <trkpt lat="48.96072" lon="0.17935">
        <ele>98.4</ele>
        <time>2024-03-20T15:45:44Z</time>
      </trkpt>
      <trkpt lat="48.96072" lon="0.1794">
        <ele>98.6</ele>
        <time>2024-03-20T15:45:45Z</time>
      </trkpt>
      <trkpt lat="48.96073" lon="0.17946">
        <ele>98.8</ele>
        <time>2024-03-20T15:45:46Z</time>
      </trkpt>
      <trkpt lat="48.96074" lon="0.17952">
        <ele>99</ele>
        <time>2024-03-20T15:45:47Z</time>
      </trkpt>
      <trkpt lat="48.96074" lon="0.17958">
        <ele>99.2</ele>
        <time>2024-03-20T15:45:48Z</time>
      </trkpt>
      <trkpt lat="48.96074" lon="0.17964">
        <ele>99.4</ele>
        <time>2024-03-20T15:45:49Z</time>
      </trkpt>
      <trkpt lat="48.96075" lon="0.1797">
        <ele>99.4</ele>
        <time>2024-03-20T15:45:50Z</time>
      </trkpt>
      <trkpt lat="48.96075" lon="0.17976">
        <ele>99.6</ele>
        <time>2024-03-20T15:45:51Z</time>
      </trkpt>
      <trkpt lat="48.96075" lon="0.17982">
        <ele>99.8</ele>
        <time>2024-03-20T15:45:52Z</time>
      </trkpt>
      <trkpt lat="48.96075" lon="0.17988">
        <ele>99.8</ele>
        <time>2024-03-20T15:45:53Z</time>
      </trkpt>
      <trkpt lat="48.96076" lon="0.17994">
        <ele>100</ele>
        <time>2024-03-20T15:45:54Z</time>
      </trkpt>
      <trkpt lat="48.96077" lon="0.18">
        <ele>100</ele>
        <time>2024-03-20T15:45:55Z</time>
      </trkpt>
      <trkpt lat="48.96079" lon="0.18006">
        <ele>100.2</ele>
        <time>2024-03-20T15:45:56Z</time>
      </trkpt>
      <trkpt lat="48.96081" lon="0.18012">
        <ele>100.4</ele>
        <time>2024-03-20T15:45:57Z</time>
      </trkpt>
      <trkpt lat="48.96083" lon="0.18017">
        <ele>100.6</ele>
        <time>2024-03-20T15:45:58Z</time>
      </trkpt>
      <trkpt lat="48.96085" lon="0.18023">
        <ele>100.8</ele>
        <time>2024-03-20T15:45:59Z</time>
      </trkpt>
      <trkpt lat="48.96087" lon="0.18027">
        <ele>101</ele>
        <time>2024-03-20T15:46:00Z</time>
      </trkpt>
      <trkpt lat="48.9609" lon="0.18032">
        <ele>101.2</ele>
        <time>2024-03-20T15:46:01Z</time>
      </trkpt>
      <trkpt lat="48.96093" lon="0.18036">
        <ele>101.6</ele>
        <time>2024-03-20T15:46:02Z</time>
      </trkpt>
      <trkpt lat="48.96096" lon="0.18041">
        <ele>101.8</ele>
        <time>2024-03-20T15:46:03Z</time>
      </trkpt>
      <trkpt lat="48.96098" lon="0.18045">
        <ele>102</ele>
        <time>2024-03-20T15:46:04Z</time>
      </trkpt>
      <trkpt lat="48.96101" lon="0.1805">
        <ele>102.2</ele>
        <time>2024-03-20T15:46:05Z</time>
      </trkpt>
      <trkpt lat="48.96104" lon="0.18054">
        <ele>102.4</ele>
        <time>2024-03-20T15:46:06Z</time>
      </trkpt>
      <trkpt lat="48.96107" lon="0.18058">
        <ele>102.6</ele>
        <time>2024-03-20T15:46:07Z</time>
      </trkpt>
      <trkpt lat="48.96109" lon="0.18062">
        <ele>102.6</ele>
        <time>2024-03-20T15:46:08Z</time>
      </trkpt>
      <trkpt lat="48.96112" lon="0.18067">
        <ele>102.8</ele>
        <time>2024-03-20T15:46:09Z</time>
      </trkpt>
      <trkpt lat="48.96114" lon="0.18071">
        <ele>103</ele>
        <time>2024-03-20T15:46:10Z</time>
      </trkpt>
      <trkpt lat="48.96117" lon="0.18075">
        <ele>103.2</ele>
        <time>2024-03-20T15:46:11Z</time>
      </trkpt>
      <trkpt lat="48.96119" lon="0.18079">
        <ele>103.4</ele>
        <time>2024-03-20T15:46:12Z</time>
      </trkpt>
      <trkpt lat="48.96122" lon="0.18084">
        <ele>103.6</ele>
        <time>2024-03-20T15:46:13Z</time>
      </trkpt>
      <trkpt lat="48.96124" lon="0.18089">
        <ele>103.6</ele>
        <time>2024-03-20T15:46:14Z</time>
      </trkpt>
      <trkpt lat="48.96126" lon="0.18093">
        <ele>103.8</ele>
        <time>2024-03-20T15:46:15Z</time>
      </trkpt>
      <trkpt lat="48.96128" lon="0.18098">
        <ele>104</ele>
        <time>2024-03-20T15:46:16Z</time>
      </trkpt>
      <trkpt lat="48.9613" lon="0.18103">
        <ele>104.2</ele>
        <time>2024-03-20T15:46:17Z</time>
      </trkpt>
      <trkpt lat="48.96132" lon="0.18108">
        <ele>104.2</ele>
        <time>2024-03-20T15:46:18Z</time>
      </trkpt>
      <trkpt lat="48.96134" lon="0.18113">
        <ele>104.6</ele>
        <time>2024-03-20T15:46:19Z</time>
      </trkpt>
      <trkpt lat="48.96136" lon="0.18119">
        <ele>104.8</ele>
        <time>2024-03-20T15:46:20Z</time>
      </trkpt>
      <trkpt lat="48.96138" lon="0.18124">
        <ele>105</ele>
        <time>2024-03-20T15:46:21Z</time>
      </trkpt>
      <trkpt lat="48.96139" lon="0.1813">
        <ele>105.2</ele>
        <time>2024-03-20T15:46:22Z</time>
      </trkpt>
      <trkpt lat="48.9614" lon="0.18135">
        <ele>105.4</ele>
        <time>2024-03-20T15:46:23Z</time>
      </trkpt>
      <trkpt lat="48.96141" lon="0.1814">
        <ele>105.8</ele>
        <time>2024-03-20T15:46:24Z</time>
      </trkpt>
      <trkpt lat="48.96142" lon="0.18145">
        <ele>106</ele>
        <time>2024-03-20T15:46:25Z</time>
      </trkpt>
      <trkpt lat="48.96142" lon="0.1815">
        <ele>106.2</ele>
        <time>2024-03-20T15:46:26Z</time>
      </trkpt>
      <trkpt lat="48.96143" lon="0.18155">
        <ele>106.6</ele>
        <time>2024-03-20T15:46:27Z</time>
      </trkpt>
      <trkpt lat="48.96143" lon="0.18159">
        <ele>106.8</ele>
        <time>2024-03-20T15:46:28Z</time>
      </trkpt>
      <trkpt lat="48.96143" lon="0.18164">
        <ele>107.2</ele>
        <time>2024-03-20T15:46:29Z</time>
      </trkpt>
      <trkpt lat="48.96144" lon="0.18169">
        <ele>107.4</ele>
        <time>2024-03-20T15:46:30Z</time>
      </trkpt>
      <trkpt lat="48.96144" lon="0.18174">
        <ele>107.8</ele>
        <time>2024-03-20T15:46:31Z</time>
      </trkpt>
      <trkpt lat="48.96144" lon="0.18179">
        <ele>108.2</ele>
        <time>2024-03-20T15:46:32Z</time>
      </trkpt>
      <trkpt lat="48.96144" lon="0.18184">
        <ele>108.4</ele>
        <time>2024-03-20T15:46:33Z</time>
      </trkpt>
      <trkpt lat="48.96144" lon="0.18189">
        <ele>108.8</ele>
        <time>2024-03-20T15:46:34Z</time>
      </trkpt>
      <trkpt lat="48.96144" lon="0.18194">
        <ele>109.2</ele>
        <time>2024-03-20T15:46:35Z</time>
      </trkpt>
      <trkpt lat="48.96145" lon="0.18198">
        <ele>109.6</ele>
        <time>2024-03-20T15:46:36Z</time>
      </trkpt>
      <trkpt lat="48.96145" lon="0.18203">
        <ele>109.8</ele>
        <time>2024-03-20T15:46:37Z</time>
      </trkpt>
      <trkpt lat="48.96145" lon="0.18208">
        <ele>109.8</ele>
        <time>2024-03-20T15:46:38Z</time>
      </trkpt>
      <trkpt lat="48.96146" lon="0.18212">
        <ele>110.2</ele>
        <time>2024-03-20T15:46:39Z</time>
      </trkpt>
      <trkpt lat="48.96146" lon="0.18217">
        <ele>110.4</ele>
        <time>2024-03-20T15:46:40Z</time>
      </trkpt>
      <trkpt lat="48.96146" lon="0.18222">
        <ele>110.8</ele>
        <time>2024-03-20T15:46:41Z</time>
      </trkpt>
      <trkpt lat="48.96147" lon="0.18226">
        <ele>111</ele>
        <time>2024-03-20T15:46:42Z</time>
      </trkpt>
      <trkpt lat="48.96147" lon="0.18231">
        <ele>111.2</ele>
        <time>2024-03-20T15:46:43Z</time>
      </trkpt>
      <trkpt lat="48.96148" lon="0.18235">
        <ele>111.4</ele>
        <time>2024-03-20T15:46:44Z</time>
      </trkpt>
      <trkpt lat="48.96148" lon="0.1824">
        <ele>111.8</ele>
        <time>2024-03-20T15:46:45Z</time>
      </trkpt>
      <trkpt lat="48.96149" lon="0.18245">
        <ele>112.2</ele>
        <time>2024-03-20T15:46:46Z</time>
      </trkpt>
      <trkpt lat="48.96149" lon="0.18249">
        <ele>112.6</ele>
        <time>2024-03-20T15:46:47Z</time>
      </trkpt>
      <trkpt lat="48.96149" lon="0.18254">
        <ele>112.8</ele>
        <time>2024-03-20T15:46:48Z</time>
      </trkpt>
      <trkpt lat="48.9615" lon="0.18258">
        <ele>113.2</ele>
        <time>2024-03-20T15:46:49Z</time>
      </trkpt>
      <trkpt lat="48.9615" lon="0.18263">
        <ele>113.4</ele>
        <time>2024-03-20T15:46:50Z</time>
      </trkpt>
      <trkpt lat="48.9615" lon="0.18268">
        <ele>113.8</ele>
        <time>2024-03-20T15:46:51Z</time>
      </trkpt>
      <trkpt lat="48.96151" lon="0.18273">
        <ele>114</ele>
        <time>2024-03-20T15:46:52Z</time>
      </trkpt>
      <trkpt lat="48.96151" lon="0.18278">
        <ele>114.2</ele>
        <time>2024-03-20T15:46:53Z</time>
      </trkpt>
      <trkpt lat="48.96152" lon="0.18282">
        <ele>114.4</ele>
        <time>2024-03-20T15:46:54Z</time>
      </trkpt>
      <trkpt lat="48.96152" lon="0.18287">
        <ele>114.6</ele>
        <time>2024-03-20T15:46:55Z</time>
      </trkpt>
      <trkpt lat="48.96152" lon="0.18292">
        <ele>114.8</ele>
        <time>2024-03-20T15:46:56Z</time>
      </trkpt>
      <trkpt lat="48.96153" lon="0.18296">
        <ele>115.2</ele>
        <time>2024-03-20T15:46:57Z</time>
      </trkpt>
      <trkpt lat="48.96153" lon="0.18301">
        <ele>115.4</ele>
        <time>2024-03-20T15:46:58Z</time>
      </trkpt>
      <trkpt lat="48.96154" lon="0.18306">
        <ele>115.6</ele>
        <time>2024-03-20T15:46:59Z</time>
      </trkpt>
      <trkpt lat="48.96154" lon="0.18311">
        <ele>115.8</ele>
        <time>2024-03-20T15:47:00Z</time>
      </trkpt>
      <trkpt lat="48.96154" lon="0.18317">
        <ele>115.8</ele>
        <time>2024-03-20T15:47:01Z</time>
      </trkpt>
      <trkpt lat="48.96154" lon="0.18322">
        <ele>116</ele>
        <time>2024-03-20T15:47:02Z</time>
      </trkpt>
      <trkpt lat="48.96155" lon="0.18327">
        <ele>116.2</ele>
        <time>2024-03-20T15:47:03Z</time>
      </trkpt>
      <trkpt lat="48.96155" lon="0.18332">
        <ele>116.4</ele>
        <time>2024-03-20T15:47:04Z</time>
      </trkpt>
      <trkpt lat="48.96155" lon="0.18337">
        <ele>116.6</ele>
        <time>2024-03-20T15:47:05Z</time>
      </trkpt>
      <trkpt lat="48.96156" lon="0.18342">
        <ele>117</ele>
        <time>2024-03-20T15:47:06Z</time>
      </trkpt>
      <trkpt lat="48.96157" lon="0.18347">
        <ele>117.2</ele>
        <time>2024-03-20T15:47:07Z</time>
      </trkpt>
      <trkpt lat="48.96157" lon="0.18352">
        <ele>117.4</ele>
        <time>2024-03-20T15:47:08Z</time>
      </trkpt>
      <trkpt lat="48.96158" lon="0.18357">
        <ele>117.6</ele>
        <time>2024-03-20T15:47:09Z</time>
      </trkpt>
      <trkpt lat="48.96159" lon="0.18362">
        <ele>117.8</ele>
        <time>2024-03-20T15:47:10Z</time>
      </trkpt>
      <trkpt lat="48.9616" lon="0.18367">
        <ele>118</ele>
        <time>2024-03-20T15:47:11Z</time>
      </trkpt>
      <trkpt lat="48.96161" lon="0.18372">
        <ele>118.4</ele>
        <time>2024-03-20T15:47:12Z</time>
      </trkpt>
      <trkpt lat="48.96162" lon="0.18377">
        <ele>118.6</ele>
        <time>2024-03-20T15:47:13Z</time>
      </trkpt>
      <trkpt lat="48.96162" lon="0.18382">
        <ele>118.8</ele>
        <time>2024-03-20T15:47:14Z</time>
      </trkpt>
      <trkpt lat="48.96163" lon="0.18386">
        <ele>119</ele>
        <time>2024-03-20T15:47:15Z</time>
      </trkpt>
      <trkpt lat="48.96164" lon="0.18391">
        <ele>119.2</ele>
        <time>2024-03-20T15:47:16Z</time>
      </trkpt>
      <trkpt lat="48.96165" lon="0.18396">
        <ele>119.4</ele>
        <time>2024-03-20T15:47:17Z</time>
      </trkpt>
      <trkpt lat="48.96165" lon="0.18401">
        <ele>119.6</ele>
        <time>2024-03-20T15:47:18Z</time>
      </trkpt>
      <trkpt lat="48.96166" lon="0.18406">
        <ele>119.8</ele>
        <time>2024-03-20T15:47:19Z</time>
      </trkpt>
      <trkpt lat="48.96167" lon="0.18411">
        <ele>120</ele>
        <time>2024-03-20T15:47:20Z</time>
      </trkpt>
      <trkpt lat="48.96167" lon="0.18416">
        <ele>120.2</ele>
        <time>2024-03-20T15:47:21Z</time>
      </trkpt>
      <trkpt lat="48.96168" lon="0.18421">
        <ele>120.2</ele>
        <time>2024-03-20T15:47:22Z</time>
      </trkpt>
      <trkpt lat="48.96168" lon="0.18426">
        <ele>120.4</ele>
        <time>2024-03-20T15:47:23Z</time>
      </trkpt>
      <trkpt lat="48.96168" lon="0.18432">
        <ele>120.4</ele>
        <time>2024-03-20T15:47:24Z</time>
      </trkpt>
      <trkpt lat="48.96169" lon="0.18437">
        <ele>120.6</ele>
        <time>2024-03-20T15:47:25Z</time>
      </trkpt>
      <trkpt lat="48.96169" lon="0.18442">
        <ele>120.8</ele>
        <time>2024-03-20T15:47:26Z</time>
      </trkpt>
      <trkpt lat="48.96169" lon="0.18446">
        <ele>121</ele>
        <time>2024-03-20T15:47:27Z</time>
      </trkpt>
      <trkpt lat="48.96169" lon="0.18451">
        <ele>121.2</ele>
        <time>2024-03-20T15:47:28Z</time>
      </trkpt>
      <trkpt lat="48.9617" lon="0.18456">
        <ele>121.4</ele>
        <time>2024-03-20T15:47:29Z</time>
      </trkpt>
      <trkpt lat="48.96169" lon="0.18461">
        <ele>121.4</ele>
        <time>2024-03-20T15:47:30Z</time>
      </trkpt>
      <trkpt lat="48.96169" lon="0.18466">
        <ele>121.6</ele>
        <time>2024-03-20T15:47:31Z</time>
      </trkpt>
      <trkpt lat="48.96168" lon="0.1847">
        <ele>121.8</ele>
        <time>2024-03-20T15:47:32Z</time>
      </trkpt>
      <trkpt lat="48.96168" lon="0.18475">
        <ele>122</ele>
        <time>2024-03-20T15:47:33Z</time>
      </trkpt>
      <trkpt lat="48.96167" lon="0.18479">
        <ele>122.2</ele>
        <time>2024-03-20T15:47:34Z</time>
      </trkpt>
      <trkpt lat="48.96166" lon="0.18484">
        <ele>122.4</ele>
        <time>2024-03-20T15:47:35Z</time>
      </trkpt>
      <trkpt lat="48.96165" lon="0.18489">
        <ele>122.8</ele>
        <time>2024-03-20T15:47:36Z</time>
      </trkpt>
      <trkpt lat="48.96164" lon="0.18494">
        <ele>123</ele>
        <time>2024-03-20T15:47:37Z</time>
      </trkpt>
      <trkpt lat="48.96163" lon="0.18499">
        <ele>123.4</ele>
        <time>2024-03-20T15:47:38Z</time>
      </trkpt>
      <trkpt lat="48.96162" lon="0.18504">
        <ele>123.6</ele>
        <time>2024-03-20T15:47:39Z</time>
      </trkpt>
      <trkpt lat="48.96161" lon="0.18509">
        <ele>123.8</ele>
        <time>2024-03-20T15:47:40Z</time>
      </trkpt>
      <trkpt lat="48.9616" lon="0.18513">
        <ele>124</ele>
        <time>2024-03-20T15:47:41Z</time>
      </trkpt>
      <trkpt lat="48.96159" lon="0.18518">
        <ele>124.2</ele>
        <time>2024-03-20T15:47:42Z</time>
      </trkpt>
      <trkpt lat="48.96158" lon="0.18523">
        <ele>124.4</ele>
        <time>2024-03-20T15:47:43Z</time>
      </trkpt>
      <trkpt lat="48.96156" lon="0.18527">
        <ele>124.6</ele>
        <time>2024-03-20T15:47:44Z</time>
      </trkpt>
      <trkpt lat="48.96155" lon="0.18532">
        <ele>124.8</ele>
        <time>2024-03-20T15:47:45Z</time>
      </trkpt>
      <trkpt lat="48.96154" lon="0.18537">
        <ele>125</ele>
        <time>2024-03-20T15:47:46Z</time>
      </trkpt>
      <trkpt lat="48.96152" lon="0.18541">
        <ele>125.2</ele>
        <time>2024-03-20T15:47:47Z</time>
      </trkpt>
      <trkpt lat="48.9615" lon="0.18545">
        <ele>125.2</ele>
        <time>2024-03-20T15:47:48Z</time>
      </trkpt>
      <trkpt lat="48.96148" lon="0.1855">
        <ele>125.4</ele>
        <time>2024-03-20T15:47:49Z</time>
      </trkpt>
      <trkpt lat="48.96147" lon="0.18554">
        <ele>125.8</ele>
        <time>2024-03-20T15:47:50Z</time>
      </trkpt>
      <trkpt lat="48.96145" lon="0.18558">
        <ele>126</ele>
        <time>2024-03-20T15:47:51Z</time>
      </trkpt>
      <trkpt lat="48.96144" lon="0.18562">
        <ele>126.2</ele>
        <time>2024-03-20T15:47:52Z</time>
      </trkpt>
      <trkpt lat="48.96142" lon="0.18566">
        <ele>126.6</ele>
        <time>2024-03-20T15:47:53Z</time>
      </trkpt>
      <trkpt lat="48.9614" lon="0.1857">
        <ele>126.8</ele>
        <time>2024-03-20T15:47:54Z</time>
      </trkpt>
      <trkpt lat="48.96138" lon="0.18574">
        <ele>127</ele>
        <time>2024-03-20T15:47:55Z</time>
      </trkpt>
      <trkpt lat="48.96135" lon="0.18577">
        <ele>127.2</ele>
        <time>2024-03-20T15:47:56Z</time>
      </trkpt>
      <trkpt lat="48.96133" lon="0.18581">
        <ele>127.4</ele>
        <time>2024-03-20T15:47:57Z</time>
      </trkpt>
      <trkpt lat="48.96131" lon="0.18585">
        <ele>127.4</ele>
        <time>2024-03-20T15:47:58Z</time>
      </trkpt>
      <trkpt lat="48.96129" lon="0.18589">
        <ele>127.8</ele>
        <time>2024-03-20T15:47:59Z</time>
      </trkpt>
      <trkpt lat="48.96127" lon="0.18593">
        <ele>128</ele>
        <time>2024-03-20T15:48:00Z</time>
      </trkpt>
      <trkpt lat="48.96125" lon="0.18597">
        <ele>128.2</ele>
        <time>2024-03-20T15:48:01Z</time>
      </trkpt>
      <trkpt lat="48.96122" lon="0.18601">
        <ele>128.4</ele>
        <time>2024-03-20T15:48:02Z</time>
      </trkpt>
      <trkpt lat="48.9612" lon="0.18604">
        <ele>128.6</ele>
        <time>2024-03-20T15:48:03Z</time>
      </trkpt>
      <trkpt lat="48.96118" lon="0.18608">
        <ele>128.8</ele>
        <time>2024-03-20T15:48:04Z</time>
      </trkpt>
      <trkpt lat="48.96116" lon="0.18611">
        <ele>129</ele>
        <time>2024-03-20T15:48:05Z</time>
      </trkpt>
      <trkpt lat="48.96113" lon="0.18615">
        <ele>129.4</ele>
        <time>2024-03-20T15:48:06Z</time>
      </trkpt>
      <trkpt lat="48.96111" lon="0.18618">
        <ele>129.4</ele>
        <time>2024-03-20T15:48:07Z</time>
      </trkpt>
      <trkpt lat="48.96108" lon="0.18621">
        <ele>129.8</ele>
        <time>2024-03-20T15:48:08Z</time>
      </trkpt>
      <trkpt lat="48.96105" lon="0.18624">
        <ele>130</ele>
        <time>2024-03-20T15:48:09Z</time>
      </trkpt>
      <trkpt lat="48.96103" lon="0.18627">
        <ele>130.2</ele>
        <time>2024-03-20T15:48:10Z</time>
      </trkpt>
      <trkpt lat="48.961" lon="0.1863">
        <ele>130.2</ele>
        <time>2024-03-20T15:48:11Z</time>
      </trkpt>
      <trkpt lat="48.96098" lon="0.18633">
        <ele>130.6</ele>
        <time>2024-03-20T15:48:12Z</time>
      </trkpt>
      <trkpt lat="48.96095" lon="0.18636">
        <ele>131</ele>
        <time>2024-03-20T15:48:13Z</time>
      </trkpt>
      <trkpt lat="48.96093" lon="0.18639">
        <ele>131.2</ele>
        <time>2024-03-20T15:48:14Z</time>
      </trkpt>
      <trkpt lat="48.96091" lon="0.18641">
        <ele>131.4</ele>
        <time>2024-03-20T15:48:15Z</time>
      </trkpt>
      <trkpt lat="48.96089" lon="0.18644">
        <ele>131.6</ele>
        <time>2024-03-20T15:48:16Z</time>
      </trkpt>
      <trkpt lat="48.96087" lon="0.18647">
        <ele>131.6</ele>
        <time>2024-03-20T15:48:17Z</time>
      </trkpt>
      <trkpt lat="48.96085" lon="0.18651">
        <ele>132</ele>
        <time>2024-03-20T15:48:18Z</time>
      </trkpt>
      <trkpt lat="48.96082" lon="0.18654">
        <ele>132.4</ele>
        <time>2024-03-20T15:48:19Z</time>
      </trkpt>
      <trkpt lat="48.9608" lon="0.18658">
        <ele>132.8</ele>
        <time>2024-03-20T15:48:20Z</time>
      </trkpt>
      <trkpt lat="48.96077" lon="0.18661">
        <ele>133</ele>
        <time>2024-03-20T15:48:21Z</time>
      </trkpt>
      <trkpt lat="48.96075" lon="0.18665">
        <ele>133.4</ele>
        <time>2024-03-20T15:48:22Z</time>
      </trkpt>
      <trkpt lat="48.96073" lon="0.18669">
        <ele>133.8</ele>
        <time>2024-03-20T15:48:23Z</time>
      </trkpt>
      <trkpt lat="48.96071" lon="0.18673">
        <ele>134</ele>
        <time>2024-03-20T15:48:24Z</time>
      </trkpt>
      <trkpt lat="48.9607" lon="0.18678">
        <ele>134.2</ele>
        <time>2024-03-20T15:48:25Z</time>
      </trkpt>
      <trkpt lat="48.96068" lon="0.18682">
        <ele>134.6</ele>
        <time>2024-03-20T15:48:26Z</time>
      </trkpt>
      <trkpt lat="48.96067" lon="0.18687">
        <ele>135</ele>
        <time>2024-03-20T15:48:27Z</time>
      </trkpt>
      <trkpt lat="48.96066" lon="0.18692">
        <ele>135.4</ele>
        <time>2024-03-20T15:48:28Z</time>
      </trkpt>
      <trkpt lat="48.96065" lon="0.18698">
        <ele>135.4</ele>
        <time>2024-03-20T15:48:29Z</time>
      </trkpt>
      <trkpt lat="48.96065" lon="0.18704">
        <ele>135.8</ele>
        <time>2024-03-20T15:48:30Z</time>
      </trkpt>
      <trkpt lat="48.96064" lon="0.18709">
        <ele>136</ele>
        <time>2024-03-20T15:48:31Z</time>
      </trkpt>
      <trkpt lat="48.96064" lon="0.18716">
        <ele>136.2</ele>
        <time>2024-03-20T15:48:32Z</time>
      </trkpt>
      <trkpt lat="48.96063" lon="0.18722">
        <ele>136.4</ele>
        <time>2024-03-20T15:48:33Z</time>
      </trkpt>
      <trkpt lat="48.96063" lon="0.18728">
        <ele>136.4</ele>
        <time>2024-03-20T15:48:34Z</time>
      </trkpt>
      <trkpt lat="48.96062" lon="0.18734">
        <ele>136.8</ele>
        <time>2024-03-20T15:48:35Z</time>
      </trkpt>
      <trkpt lat="48.96062" lon="0.1874">
        <ele>137</ele>
        <time>2024-03-20T15:48:36Z</time>
      </trkpt>
      <trkpt lat="48.96061" lon="0.18746">
        <ele>137.2</ele>
        <time>2024-03-20T15:48:37Z</time>
      </trkpt>
      <trkpt lat="48.96061" lon="0.18752">
        <ele>137.4</ele>
        <time>2024-03-20T15:48:38Z</time>
      </trkpt>
      <trkpt lat="48.96061" lon="0.18758">
        <ele>137.4</ele>
        <time>2024-03-20T15:48:39Z</time>
      </trkpt>
      <trkpt lat="48.9606" lon="0.18765">
        <ele>137.8</ele>
        <time>2024-03-20T15:48:40Z</time>
      </trkpt>
      <trkpt lat="48.9606" lon="0.18771">
        <ele>138</ele>
        <time>2024-03-20T15:48:41Z</time>
      </trkpt>
      <trkpt lat="48.9606" lon="0.18778">
        <ele>138</ele>
        <time>2024-03-20T15:48:42Z</time>
      </trkpt>
      <trkpt lat="48.96059" lon="0.18784">
        <ele>138.4</ele>
        <time>2024-03-20T15:48:43Z</time>
      </trkpt>
      <trkpt lat="48.96059" lon="0.1879">
        <ele>138.6</ele>
        <time>2024-03-20T15:48:44Z</time>
      </trkpt>
      <trkpt lat="48.96058" lon="0.18797">
        <ele>139</ele>
        <time>2024-03-20T15:48:45Z</time>
      </trkpt>
      <trkpt lat="48.96058" lon="0.18804">
        <ele>139.2</ele>
        <time>2024-03-20T15:48:46Z</time>
      </trkpt>
      <trkpt lat="48.96057" lon="0.1881">
        <ele>139.4</ele>
        <time>2024-03-20T15:48:47Z</time>
      </trkpt>
      <trkpt lat="48.96057" lon="0.18817">
        <ele>139.6</ele>
        <time>2024-03-20T15:48:48Z</time>
      </trkpt>
      <trkpt lat="48.96056" lon="0.18823">
        <ele>139.8</ele>
        <time>2024-03-20T15:48:49Z</time>
      </trkpt>
      <trkpt lat="48.96055" lon="0.1883">
        <ele>139.8</ele>
        <time>2024-03-20T15:48:50Z</time>
      </trkpt>
      <trkpt lat="48.96055" lon="0.18837">
        <ele>139.8</ele>
        <time>2024-03-20T15:48:51Z</time>
      </trkpt>
      <trkpt lat="48.96054" lon="0.18843">
        <ele>140</ele>
        <time>2024-03-20T15:48:52Z</time>
      </trkpt>
      <trkpt lat="48.96053" lon="0.18849">
        <ele>140</ele>
        <time>2024-03-20T15:48:53Z</time>
      </trkpt>
      <trkpt lat="48.96052" lon="0.18856">
        <ele>140.2</ele>
        <time>2024-03-20T15:48:54Z</time>
      </trkpt>
      <trkpt lat="48.96051" lon="0.18863">
        <ele>140.2</ele>
        <time>2024-03-20T15:48:55Z</time>
      </trkpt>
      <trkpt lat="48.9605" lon="0.1887">
        <ele>140.4</ele>
        <time>2024-03-20T15:48:56Z</time>
      </trkpt>
      <trkpt lat="48.96049" lon="0.18877">
        <ele>140.4</ele>
        <time>2024-03-20T15:48:57Z</time>
      </trkpt>
      <trkpt lat="48.96048" lon="0.18885">
        <ele>140.6</ele>
        <time>2024-03-20T15:48:58Z</time>
      </trkpt>
      <trkpt lat="48.96046" lon="0.18893">
        <ele>140.6</ele>
        <time>2024-03-20T15:48:59Z</time>
      </trkpt>
      <trkpt lat="48.96044" lon="0.18901">
        <ele>140.8</ele>
        <time>2024-03-20T15:49:00Z</time>
      </trkpt>
      <trkpt lat="48.96043" lon="0.18909">
        <ele>140.8</ele>
        <time>2024-03-20T15:49:01Z</time>
      </trkpt>
      <trkpt lat="48.96041" lon="0.18918">
        <ele>141</ele>
        <time>2024-03-20T15:49:02Z</time>
      </trkpt>
      <trkpt lat="48.96039" lon="0.18927">
        <ele>141.2</ele>
        <time>2024-03-20T15:49:03Z</time>
      </trkpt>
      <trkpt lat="48.96037" lon="0.18935">
        <ele>141.2</ele>
        <time>2024-03-20T15:49:04Z</time>
      </trkpt>
      <trkpt lat="48.96035" lon="0.18943">
        <ele>141.2</ele>
        <time>2024-03-20T15:49:05Z</time>
      </trkpt>
      <trkpt lat="48.96033" lon="0.18951">
        <ele>141.4</ele>
        <time>2024-03-20T15:49:06Z</time>
      </trkpt>
      <trkpt lat="48.9603" lon="0.18959">
        <ele>141.4</ele>
        <time>2024-03-20T15:49:07Z</time>
      </trkpt>
      <trkpt lat="48.96027" lon="0.18966">
        <ele>141.4</ele>
        <time>2024-03-20T15:49:08Z</time>
      </trkpt>
      <trkpt lat="48.96025" lon="0.18973">
        <ele>141.6</ele>
        <time>2024-03-20T15:49:09Z</time>
      </trkpt>
      <trkpt lat="48.96022" lon="0.1898">
        <ele>141.6</ele>
        <time>2024-03-20T15:49:10Z</time>
      </trkpt>
      <trkpt lat="48.96019" lon="0.18986">
        <ele>141.6</ele>
        <time>2024-03-20T15:49:11Z</time>
      </trkpt>
      <trkpt lat="48.96016" lon="0.18993">
        <ele>141.6</ele>
        <time>2024-03-20T15:49:12Z</time>
      </trkpt>
      <trkpt lat="48.96014" lon="0.19">
        <ele>141.8</ele>
        <time>2024-03-20T15:49:13Z</time>
      </trkpt>
      <trkpt lat="48.96012" lon="0.19007">
        <ele>141.8</ele>
        <time>2024-03-20T15:49:14Z</time>
      </trkpt>
      <trkpt lat="48.9601" lon="0.19015">
        <ele>142</ele>
        <time>2024-03-20T15:49:15Z</time>
      </trkpt>
      <trkpt lat="48.96008" lon="0.19022">
        <ele>142</ele>
        <time>2024-03-20T15:49:16Z</time>
      </trkpt>
      <trkpt lat="48.96006" lon="0.1903">
        <ele>142.2</ele>
        <time>2024-03-20T15:49:17Z</time>
      </trkpt>
      <trkpt lat="48.96003" lon="0.19037">
        <ele>142.4</ele>
        <time>2024-03-20T15:49:18Z</time>
      </trkpt>
      <trkpt lat="48.96001" lon="0.19044">
        <ele>142.6</ele>
        <time>2024-03-20T15:49:19Z</time>
      </trkpt>
      <trkpt lat="48.95999" lon="0.19051">
        <ele>142.6</ele>
        <time>2024-03-20T15:49:20Z</time>
      </trkpt>
      <trkpt lat="48.95997" lon="0.19058">
        <ele>142.8</ele>
        <time>2024-03-20T15:49:21Z</time>
      </trkpt>
      <trkpt lat="48.95995" lon="0.19065">
        <ele>142.8</ele>
        <time>2024-03-20T15:49:22Z</time>
      </trkpt>
      <trkpt lat="48.95992" lon="0.19072">
        <ele>143</ele>
        <time>2024-03-20T15:49:23Z</time>
      </trkpt>
      <trkpt lat="48.9599" lon="0.19079">
        <ele>143.2</ele>
        <time>2024-03-20T15:49:24Z</time>
      </trkpt>
      <trkpt lat="48.95987" lon="0.19086">
        <ele>143.4</ele>
        <time>2024-03-20T15:49:25Z</time>
      </trkpt>
      <trkpt lat="48.95984" lon="0.19093">
        <ele>143.6</ele>
        <time>2024-03-20T15:49:26Z</time>
      </trkpt>
      <trkpt lat="48.95982" lon="0.19099">
        <ele>143.6</ele>
        <time>2024-03-20T15:49:27Z</time>
      </trkpt>
      <trkpt lat="48.95979" lon="0.19106">
        <ele>143.8</ele>
        <time>2024-03-20T15:49:28Z</time>
      </trkpt>
      <trkpt lat="48.95976" lon="0.19112">
        <ele>144</ele>
        <time>2024-03-20T15:49:29Z</time>
      </trkpt>
      <trkpt lat="48.95973" lon="0.19119">
        <ele>144.2</ele>
        <time>2024-03-20T15:49:30Z</time>
      </trkpt>
      <trkpt lat="48.9597" lon="0.19125">
        <ele>144.4</ele>
        <time>2024-03-20T15:49:31Z</time>
      </trkpt>
      <trkpt lat="48.95967" lon="0.19131">
        <ele>144.6</ele>
        <time>2024-03-20T15:49:32Z</time>
      </trkpt>
      <trkpt lat="48.95963" lon="0.19137">
        <ele>144.6</ele>
        <time>2024-03-20T15:49:33Z</time>
      </trkpt>
      <trkpt lat="48.9596" lon="0.19144">
        <ele>144.6</ele>
        <time>2024-03-20T15:49:34Z</time>
      </trkpt>
      <trkpt lat="48.95957" lon="0.19151">
        <ele>144.8</ele>
        <time>2024-03-20T15:49:35Z</time>
      </trkpt>
      <trkpt lat="48.95954" lon="0.19158">
        <ele>144.8</ele>
        <time>2024-03-20T15:49:36Z</time>
      </trkpt>
      <trkpt lat="48.9595" lon="0.19165">
        <ele>144.8</ele>
        <time>2024-03-20T15:49:37Z</time>
      </trkpt>
      <trkpt lat="48.95947" lon="0.19172">
        <ele>145</ele>
        <time>2024-03-20T15:49:38Z</time>
      </trkpt>
      <trkpt lat="48.95945" lon="0.19179">
        <ele>145.4</ele>
        <time>2024-03-20T15:49:39Z</time>
      </trkpt>
      <trkpt lat="48.95942" lon="0.19187">
        <ele>145.6</ele>
        <time>2024-03-20T15:49:40Z</time>
      </trkpt>
      <trkpt lat="48.9594" lon="0.19194">
        <ele>145.6</ele>
        <time>2024-03-20T15:49:41Z</time>
      </trkpt>
      <trkpt lat="48.95937" lon="0.19201">
        <ele>145.6</ele>
        <time>2024-03-20T15:49:42Z</time>
      </trkpt>
      <trkpt lat="48.95935" lon="0.19209">
        <ele>145.6</ele>
        <time>2024-03-20T15:49:43Z</time>
      </trkpt>
      <trkpt lat="48.95933" lon="0.19217">
        <ele>145.8</ele>
        <time>2024-03-20T15:49:44Z</time>
      </trkpt>
      <trkpt lat="48.95931" lon="0.19224">
        <ele>145.8</ele>
        <time>2024-03-20T15:49:45Z</time>
      </trkpt>
      <trkpt lat="48.95929" lon="0.19231">
        <ele>145.8</ele>
        <time>2024-03-20T15:49:46Z</time>
      </trkpt>
      <trkpt lat="48.95927" lon="0.19237">
        <ele>145.8</ele>
        <time>2024-03-20T15:49:47Z</time>
      </trkpt>
      <trkpt lat="48.95926" lon="0.19243">
        <ele>145.8</ele>
        <time>2024-03-20T15:49:48Z</time>
      </trkpt>
      <trkpt lat="48.95924" lon="0.19247">
        <ele>145.8</ele>
        <time>2024-03-20T15:49:49Z</time>
      </trkpt>
      <trkpt lat="48.95924" lon="0.1925">
        <ele>145.8</ele>
        <time>2024-03-20T15:49:50Z</time>
      </trkpt>
      <trkpt lat="48.95923" lon="0.19251">
        <ele>145.8</ele>
        <time>2024-03-20T15:49:51Z</time>
      </trkpt>
      <trkpt lat="48.95923" lon="0.19251">
        <ele>145.8</ele>
        <time>2024-03-20T15:49:52Z</time>
      </trkpt>
      <trkpt lat="48.95923" lon="0.19258">
        <ele>146.2</ele>
        <time>2024-03-20T15:50:10Z</time>
      </trkpt>
      <trkpt lat="48.95922" lon="0.19261">
        <ele>146.2</ele>
        <time>2024-03-20T15:50:11Z</time>
      </trkpt>
      <trkpt lat="48.95922" lon="0.19263">
        <ele>146.2</ele>
        <time>2024-03-20T15:50:12Z</time>
      </trkpt>
      <trkpt lat="48.95921" lon="0.19266">
        <ele>146.2</ele>
        <time>2024-03-20T15:50:13Z</time>
      </trkpt>
      <trkpt lat="48.9592" lon="0.19269">
        <ele>146.2</ele>
        <time>2024-03-20T15:50:14Z</time>
      </trkpt>
      <trkpt lat="48.95919" lon="0.19272">
        <ele>146.2</ele>
        <time>2024-03-20T15:50:15Z</time>
      </trkpt>
      <trkpt lat="48.95918" lon="0.19276">
        <ele>146.2</ele>
        <time>2024-03-20T15:50:16Z</time>
      </trkpt>
      <trkpt lat="48.95918" lon="0.19279">
        <ele>146</ele>
        <time>2024-03-20T15:50:17Z</time>
      </trkpt>
      <trkpt lat="48.95916" lon="0.19282">
        <ele>146</ele>
        <time>2024-03-20T15:50:18Z</time>
      </trkpt>
      <trkpt lat="48.95915" lon="0.19284">
        <ele>146</ele>
        <time>2024-03-20T15:50:19Z</time>
      </trkpt>
      <trkpt lat="48.95914" lon="0.19287">
        <ele>146</ele>
        <time>2024-03-20T15:50:20Z</time>
      </trkpt>
      <trkpt lat="48.95913" lon="0.1929">
        <ele>146</ele>
        <time>2024-03-20T15:50:21Z</time>
      </trkpt>
      <trkpt lat="48.95913" lon="0.19293">
        <ele>146</ele>
        <time>2024-03-20T15:50:22Z</time>
      </trkpt>
      <trkpt lat="48.95912" lon="0.19295">
        <ele>146</ele>
        <time>2024-03-20T15:50:23Z</time>
      </trkpt>
      <trkpt lat="48.95911" lon="0.19298">
        <ele>146</ele>
        <time>2024-03-20T15:50:24Z</time>
      </trkpt>
      <trkpt lat="48.9591" lon="0.193">
        <ele>146</ele>
        <time>2024-03-20T15:50:25Z</time>
      </trkpt>
      <trkpt lat="48.9591" lon="0.19302">
        <ele>146</ele>
        <time>2024-03-20T15:50:26Z</time>
      </trkpt>
      <trkpt lat="48.95909" lon="0.19305">
        <ele>146</ele>
        <time>2024-03-20T15:50:27Z</time>
      </trkpt>
      <trkpt lat="48.95908" lon="0.19309">
        <ele>146</ele>
        <time>2024-03-20T15:50:28Z</time>
      </trkpt>
      <trkpt lat="48.95908" lon="0.19312">
        <ele>146.2</ele>
        <time>2024-03-20T15:50:29Z</time>
      </trkpt>
      <trkpt lat="48.95906" lon="0.19316">
        <ele>146.2</ele>
        <time>2024-03-20T15:50:30Z</time>
      </trkpt>
      <trkpt lat="48.95905" lon="0.19321">
        <ele>146.2</ele>
        <time>2024-03-20T15:50:31Z</time>
      </trkpt>
      <trkpt lat="48.95904" lon="0.19325">
        <ele>146.2</ele>
        <time>2024-03-20T15:50:32Z</time>
      </trkpt>
      <trkpt lat="48.95903" lon="0.1933">
        <ele>146.2</ele>
        <time>2024-03-20T15:50:33Z</time>
      </trkpt>
      <trkpt lat="48.95902" lon="0.19335">
        <ele>146.2</ele>
        <time>2024-03-20T15:50:34Z</time>
      </trkpt>
      <trkpt lat="48.95901" lon="0.1934">
        <ele>146.2</ele>
        <time>2024-03-20T15:50:35Z</time>
      </trkpt>
      <trkpt lat="48.959" lon="0.19344">
        <ele>146.2</ele>
        <time>2024-03-20T15:50:36Z</time>
      </trkpt>
      <trkpt lat="48.95899" lon="0.1935">
        <ele>146.2</ele>
        <time>2024-03-20T15:50:37Z</time>
      </trkpt>
      <trkpt lat="48.95898" lon="0.19355">
        <ele>146.2</ele>
        <time>2024-03-20T15:50:38Z</time>
      </trkpt>
      <trkpt lat="48.95896" lon="0.19361">
        <ele>146.2</ele>
        <time>2024-03-20T15:50:39Z</time>
      </trkpt>
      <trkpt lat="48.95895" lon="0.19367">
        <ele>146.2</ele>
        <time>2024-03-20T15:50:40Z</time>
      </trkpt>
      <trkpt lat="48.95893" lon="0.19374">
        <ele>146.2</ele>
        <time>2024-03-20T15:50:41Z</time>
      </trkpt>
      <trkpt lat="48.95892" lon="0.19381">
        <ele>146.2</ele>
        <time>2024-03-20T15:50:42Z</time>
      </trkpt>
      <trkpt lat="48.9589" lon="0.19388">
        <ele>146.2</ele>
        <time>2024-03-20T15:50:43Z</time>
      </trkpt>
      <trkpt lat="48.95888" lon="0.19395">
        <ele>146.2</ele>
        <time>2024-03-20T15:50:44Z</time>
      </trkpt>
      <trkpt lat="48.95886" lon="0.19403">
        <ele>146.4</ele>
        <time>2024-03-20T15:50:45Z</time>
      </trkpt>
      <trkpt lat="48.95884" lon="0.1941">
        <ele>146.4</ele>
        <time>2024-03-20T15:50:46Z</time>
      </trkpt>
      <trkpt lat="48.95882" lon="0.19417">
        <ele>146.2</ele>
        <time>2024-03-20T15:50:47Z</time>
      </trkpt>
      <trkpt lat="48.9588" lon="0.19425">
        <ele>146.2</ele>
        <time>2024-03-20T15:50:48Z</time>
      </trkpt>
      <trkpt lat="48.95878" lon="0.19432">
        <ele>146.2</ele>
        <time>2024-03-20T15:50:49Z</time>
      </trkpt>
      <trkpt lat="48.95876" lon="0.1944">
        <ele>146.2</ele>
        <time>2024-03-20T15:50:50Z</time>
      </trkpt>
      <trkpt lat="48.95874" lon="0.19448">
        <ele>146.2</ele>
        <time>2024-03-20T15:50:51Z</time>
      </trkpt>
      <trkpt lat="48.95872" lon="0.19456">
        <ele>146.2</ele>
        <time>2024-03-20T15:50:52Z</time>
      </trkpt>
      <trkpt lat="48.9587" lon="0.19464">
        <ele>146.2</ele>
        <time>2024-03-20T15:50:53Z</time>
      </trkpt>
      <trkpt lat="48.95868" lon="0.19472">
        <ele>146.2</ele>
        <time>2024-03-20T15:50:54Z</time>
      </trkpt>
      <trkpt lat="48.95866" lon="0.19479">
        <ele>146.2</ele>
        <time>2024-03-20T15:50:55Z</time>
      </trkpt>
      <trkpt lat="48.95865" lon="0.19487">
        <ele>146.2</ele>
        <time>2024-03-20T15:50:56Z</time>
      </trkpt>
      <trkpt lat="48.95863" lon="0.19495">
        <ele>146.2</ele>
        <time>2024-03-20T15:50:57Z</time>
      </trkpt>
      <trkpt lat="48.95862" lon="0.19503">
        <ele>146.2</ele>
        <time>2024-03-20T15:50:58Z</time>
      </trkpt>
      <trkpt lat="48.9586" lon="0.19511">
        <ele>146.2</ele>
        <time>2024-03-20T15:50:59Z</time>
      </trkpt>
      <trkpt lat="48.95859" lon="0.19519">
        <ele>146.2</ele>
        <time>2024-03-20T15:51:00Z</time>
      </trkpt>
      <trkpt lat="48.95857" lon="0.19527">
        <ele>146.2</ele>
        <time>2024-03-20T15:51:01Z</time>
      </trkpt>
      <trkpt lat="48.95855" lon="0.19535">
        <ele>146.2</ele>
        <time>2024-03-20T15:51:02Z</time>
      </trkpt>
      <trkpt lat="48.95854" lon="0.19543">
        <ele>146.4</ele>
        <time>2024-03-20T15:51:03Z</time>
      </trkpt>
      <trkpt lat="48.95852" lon="0.19551">
        <ele>146.4</ele>
        <time>2024-03-20T15:51:04Z</time>
      </trkpt>
      <trkpt lat="48.95851" lon="0.19559">
        <ele>146.4</ele>
        <time>2024-03-20T15:51:05Z</time>
      </trkpt>
      <trkpt lat="48.95849" lon="0.19567">
        <ele>146.6</ele>
        <time>2024-03-20T15:51:06Z</time>
      </trkpt>
      <trkpt lat="48.95847" lon="0.19575">
        <ele>146.8</ele>
        <time>2024-03-20T15:51:07Z</time>
      </trkpt>
      <trkpt lat="48.95845" lon="0.19583">
        <ele>147</ele>
        <time>2024-03-20T15:51:08Z</time>
      </trkpt>
      <trkpt lat="48.95843" lon="0.19591">
        <ele>147.2</ele>
        <time>2024-03-20T15:51:09Z</time>
      </trkpt>
      <trkpt lat="48.95841" lon="0.19598">
        <ele>147.2</ele>
        <time>2024-03-20T15:51:10Z</time>
      </trkpt>
      <trkpt lat="48.95839" lon="0.19606">
        <ele>147.2</ele>
        <time>2024-03-20T15:51:11Z</time>
      </trkpt>
      <trkpt lat="48.95837" lon="0.19614">
        <ele>147.4</ele>
        <time>2024-03-20T15:51:12Z</time>
      </trkpt>
      <trkpt lat="48.95835" lon="0.19621">
        <ele>147.4</ele>
        <time>2024-03-20T15:51:13Z</time>
      </trkpt>
      <trkpt lat="48.95833" lon="0.19628">
        <ele>147.4</ele>
        <time>2024-03-20T15:51:14Z</time>
      </trkpt>
      <trkpt lat="48.9583" lon="0.19636">
        <ele>147.6</ele>
        <time>2024-03-20T15:51:15Z</time>
      </trkpt>
      <trkpt lat="48.95828" lon="0.19643">
        <ele>147.6</ele>
        <time>2024-03-20T15:51:16Z</time>
      </trkpt>
      <trkpt lat="48.95826" lon="0.1965">
        <ele>147.8</ele>
        <time>2024-03-20T15:51:17Z</time>
      </trkpt>
      <trkpt lat="48.95823" lon="0.19657">
        <ele>147.8</ele>
        <time>2024-03-20T15:51:18Z</time>
      </trkpt>
      <trkpt lat="48.9582" lon="0.19664">
        <ele>148</ele>
        <time>2024-03-20T15:51:19Z</time>
      </trkpt>
      <trkpt lat="48.95818" lon="0.19671">
        <ele>148</ele>
        <time>2024-03-20T15:51:20Z</time>
      </trkpt>
      <trkpt lat="48.95815" lon="0.19678">
        <ele>148</ele>
        <time>2024-03-20T15:51:21Z</time>
      </trkpt>
      <trkpt lat="48.95813" lon="0.19685">
        <ele>148.2</ele>
        <time>2024-03-20T15:51:22Z</time>
      </trkpt>
      <trkpt lat="48.9581" lon="0.19692">
        <ele>148.2</ele>
        <time>2024-03-20T15:51:23Z</time>
      </trkpt>
      <trkpt lat="48.95808" lon="0.19698">
        <ele>148.4</ele>
        <time>2024-03-20T15:51:24Z</time>
      </trkpt>
      <trkpt lat="48.95805" lon="0.19706">
        <ele>148.6</ele>
        <time>2024-03-20T15:51:25Z</time>
      </trkpt>
      <trkpt lat="48.95803" lon="0.19712">
        <ele>148.6</ele>
        <time>2024-03-20T15:51:26Z</time>
      </trkpt>
      <trkpt lat="48.95801" lon="0.19719">
        <ele>148.8</ele>
        <time>2024-03-20T15:51:27Z</time>
      </trkpt>
      <trkpt lat="48.95798" lon="0.19726">
        <ele>149</ele>
        <time>2024-03-20T15:51:28Z</time>
      </trkpt>
      <trkpt lat="48.95796" lon="0.19732">
        <ele>149</ele>
        <time>2024-03-20T15:51:29Z</time>
      </trkpt>
      <trkpt lat="48.95795" lon="0.19739">
        <ele>149.4</ele>
        <time>2024-03-20T15:51:30Z</time>
      </trkpt>
      <trkpt lat="48.95793" lon="0.19746">
        <ele>149.6</ele>
        <time>2024-03-20T15:51:31Z</time>
      </trkpt>
      <trkpt lat="48.95791" lon="0.19754">
        <ele>149.8</ele>
        <time>2024-03-20T15:51:32Z</time>
      </trkpt>
      <trkpt lat="48.9579" lon="0.19761">
        <ele>150.2</ele>
        <time>2024-03-20T15:51:33Z</time>
      </trkpt>
      <trkpt lat="48.95788" lon="0.19768">
        <ele>150.4</ele>
        <time>2024-03-20T15:51:34Z</time>
      </trkpt>
      <trkpt lat="48.95787" lon="0.19775">
        <ele>150.8</ele>
        <time>2024-03-20T15:51:35Z</time>
      </trkpt>
      <trkpt lat="48.95786" lon="0.19783">
        <ele>150.8</ele>
        <time>2024-03-20T15:51:36Z</time>
      </trkpt>
      <trkpt lat="48.95785" lon="0.1979">
        <ele>151</ele>
        <time>2024-03-20T15:51:37Z</time>
      </trkpt>
      <trkpt lat="48.95784" lon="0.19798">
        <ele>151</ele>
        <time>2024-03-20T15:51:38Z</time>
      </trkpt>
      <trkpt lat="48.95783" lon="0.19805">
        <ele>151.2</ele>
        <time>2024-03-20T15:51:39Z</time>
      </trkpt>
      <trkpt lat="48.95782" lon="0.19813">
        <ele>151.4</ele>
        <time>2024-03-20T15:51:40Z</time>
      </trkpt>
      <trkpt lat="48.95781" lon="0.1982">
        <ele>151.6</ele>
        <time>2024-03-20T15:51:41Z</time>
      </trkpt>
      <trkpt lat="48.95779" lon="0.19828">
        <ele>151.6</ele>
        <time>2024-03-20T15:51:42Z</time>
      </trkpt>
      <trkpt lat="48.95778" lon="0.19835">
        <ele>151.8</ele>
        <time>2024-03-20T15:51:43Z</time>
      </trkpt>
      <trkpt lat="48.95777" lon="0.19843">
        <ele>151.8</ele>
        <time>2024-03-20T15:51:44Z</time>
      </trkpt>
      <trkpt lat="48.95776" lon="0.19851">
        <ele>152.2</ele>
        <time>2024-03-20T15:51:45Z</time>
      </trkpt>
      <trkpt lat="48.95775" lon="0.19858">
        <ele>152.4</ele>
        <time>2024-03-20T15:51:46Z</time>
      </trkpt>
      <trkpt lat="48.95774" lon="0.19866">
        <ele>152.8</ele>
        <time>2024-03-20T15:51:47Z</time>
      </trkpt>
      <trkpt lat="48.95773" lon="0.19873">
        <ele>153</ele>
        <time>2024-03-20T15:51:48Z</time>
      </trkpt>
      <trkpt lat="48.95771" lon="0.19881">
        <ele>153</ele>
        <time>2024-03-20T15:51:49Z</time>
      </trkpt>
      <trkpt lat="48.9577" lon="0.19888">
        <ele>153.2</ele>
        <time>2024-03-20T15:51:50Z</time>
      </trkpt>
      <trkpt lat="48.95768" lon="0.19896">
        <ele>153.2</ele>
        <time>2024-03-20T15:51:51Z</time>
      </trkpt>
      <trkpt lat="48.95766" lon="0.19904">
        <ele>153.2</ele>
        <time>2024-03-20T15:51:52Z</time>
      </trkpt>
      <trkpt lat="48.95764" lon="0.19911">
        <ele>153.4</ele>
        <time>2024-03-20T15:51:53Z</time>
      </trkpt>
      <trkpt lat="48.95762" lon="0.1992">
        <ele>153.4</ele>
        <time>2024-03-20T15:51:54Z</time>
      </trkpt>
      <trkpt lat="48.9576" lon="0.19928">
        <ele>153.4</ele>
        <time>2024-03-20T15:51:55Z</time>
      </trkpt>
      <trkpt lat="48.95758" lon="0.19936">
        <ele>153.4</ele>
        <time>2024-03-20T15:51:56Z</time>
      </trkpt>
      <trkpt lat="48.95755" lon="0.19944">
        <ele>153.4</ele>
        <time>2024-03-20T15:51:57Z</time>
      </trkpt>
      <trkpt lat="48.95753" lon="0.19952">
        <ele>153.4</ele>
        <time>2024-03-20T15:51:58Z</time>
      </trkpt>
      <trkpt lat="48.9575" lon="0.19961">
        <ele>153.4</ele>
        <time>2024-03-20T15:51:59Z</time>
      </trkpt>
      <trkpt lat="48.95747" lon="0.1997">
        <ele>153.4</ele>
        <time>2024-03-20T15:52:00Z</time>
      </trkpt>
      <trkpt lat="48.95745" lon="0.19979">
        <ele>153.4</ele>
        <time>2024-03-20T15:52:01Z</time>
      </trkpt>
      <trkpt lat="48.95742" lon="0.19988">
        <ele>153.4</ele>
        <time>2024-03-20T15:52:02Z</time>
      </trkpt>
      <trkpt lat="48.95739" lon="0.19997">
        <ele>153.4</ele>
        <time>2024-03-20T15:52:03Z</time>
      </trkpt>
      <trkpt lat="48.95736" lon="0.20007">
        <ele>153.4</ele>
        <time>2024-03-20T15:52:04Z</time>
      </trkpt>
      <trkpt lat="48.95733" lon="0.20017">
        <ele>153.2</ele>
        <time>2024-03-20T15:52:05Z</time>
      </trkpt>
      <trkpt lat="48.9573" lon="0.20027">
        <ele>153.2</ele>
        <time>2024-03-20T15:52:06Z</time>
      </trkpt>
      <trkpt lat="48.95727" lon="0.20037">
        <ele>153</ele>
        <time>2024-03-20T15:52:07Z</time>
      </trkpt>
      <trkpt lat="48.95725" lon="0.20047">
        <ele>152.8</ele>
        <time>2024-03-20T15:52:08Z</time>
      </trkpt>
      <trkpt lat="48.95722" lon="0.20057">
        <ele>152.8</ele>
        <time>2024-03-20T15:52:09Z</time>
      </trkpt>
      <trkpt lat="48.95719" lon="0.20068">
        <ele>152.4</ele>
        <time>2024-03-20T15:52:10Z</time>
      </trkpt>
      <trkpt lat="48.95716" lon="0.20079">
        <ele>152.2</ele>
        <time>2024-03-20T15:52:11Z</time>
      </trkpt>
      <trkpt lat="48.95713" lon="0.2009">
        <ele>152</ele>
        <time>2024-03-20T15:52:12Z</time>
      </trkpt>
      <trkpt lat="48.9571" lon="0.20102">
        <ele>151.6</ele>
        <time>2024-03-20T15:52:13Z</time>
      </trkpt>
      <trkpt lat="48.95708" lon="0.20113">
        <ele>151</ele>
        <time>2024-03-20T15:52:14Z</time>
      </trkpt>
      <trkpt lat="48.95705" lon="0.20124">
        <ele>150.6</ele>
        <time>2024-03-20T15:52:15Z</time>
      </trkpt>
      <trkpt lat="48.95702" lon="0.20135">
        <ele>150.4</ele>
        <time>2024-03-20T15:52:16Z</time>
      </trkpt>
      <trkpt lat="48.95699" lon="0.20145">
        <ele>150</ele>
        <time>2024-03-20T15:52:17Z</time>
      </trkpt>
      <trkpt lat="48.95696" lon="0.20155">
        <ele>149.6</ele>
        <time>2024-03-20T15:52:18Z</time>
      </trkpt>
      <trkpt lat="48.95692" lon="0.20165">
        <ele>149.4</ele>
        <time>2024-03-20T15:52:19Z</time>
      </trkpt>
      <trkpt lat="48.95689" lon="0.20175">
        <ele>149.2</ele>
        <time>2024-03-20T15:52:20Z</time>
      </trkpt>
      <trkpt lat="48.95685" lon="0.20184">
        <ele>149.2</ele>
        <time>2024-03-20T15:52:21Z</time>
      </trkpt>
      <trkpt lat="48.95681" lon="0.20192">
        <ele>148.8</ele>
        <time>2024-03-20T15:52:22Z</time>
      </trkpt>
      <trkpt lat="48.95676" lon="0.20199">
        <ele>148.4</ele>
        <time>2024-03-20T15:52:23Z</time>
      </trkpt>
      <trkpt lat="48.95672" lon="0.20206">
        <ele>148.4</ele>
        <time>2024-03-20T15:52:24Z</time>
      </trkpt>
      <trkpt lat="48.95667" lon="0.20213">
        <ele>148.2</ele>
        <time>2024-03-20T15:52:25Z</time>
      </trkpt>
      <trkpt lat="48.95661" lon="0.2022">
        <ele>148.2</ele>
        <time>2024-03-20T15:52:26Z</time>
      </trkpt>
      <trkpt lat="48.95656" lon="0.20226">
        <ele>148.2</ele>
        <time>2024-03-20T15:52:27Z</time>
      </trkpt>
      <trkpt lat="48.95651" lon="0.20233">
        <ele>148.2</ele>
        <time>2024-03-20T15:52:28Z</time>
      </trkpt>
      <trkpt lat="48.95646" lon="0.20239">
        <ele>148.2</ele>
        <time>2024-03-20T15:52:29Z</time>
      </trkpt>
      <trkpt lat="48.95642" lon="0.20246">
        <ele>148.2</ele>
        <time>2024-03-20T15:52:30Z</time>
      </trkpt>
      <trkpt lat="48.95638" lon="0.20254">
        <ele>148.2</ele>
        <time>2024-03-20T15:52:31Z</time>
      </trkpt>
      <trkpt lat="48.95633" lon="0.20262">
        <ele>148.2</ele>
        <time>2024-03-20T15:52:32Z</time>
      </trkpt>
      <trkpt lat="48.9563" lon="0.20271">
        <ele>148.2</ele>
        <time>2024-03-20T15:52:33Z</time>
      </trkpt>
      <trkpt lat="48.95627" lon="0.20281">
        <ele>148.2</ele>
        <time>2024-03-20T15:52:34Z</time>
      </trkpt>
      <trkpt lat="48.95625" lon="0.20292">
        <ele>148.4</ele>
        <time>2024-03-20T15:52:35Z</time>
      </trkpt>
      <trkpt lat="48.95624" lon="0.20302">
        <ele>148.4</ele>
        <time>2024-03-20T15:52:36Z</time>
      </trkpt>
      <trkpt lat="48.95623" lon="0.20313">
        <ele>148.4</ele>
        <time>2024-03-20T15:52:37Z</time>
      </trkpt>
      <trkpt lat="48.95623" lon="0.20323">
        <ele>148.6</ele>
        <time>2024-03-20T15:52:38Z</time>
      </trkpt>
      <trkpt lat="48.95623" lon="0.20333">
        <ele>148.6</ele>
        <time>2024-03-20T15:52:39Z</time>
      </trkpt>
      <trkpt lat="48.95624" lon="0.20343">
        <ele>148.6</ele>
        <time>2024-03-20T15:52:40Z</time>
      </trkpt>
      <trkpt lat="48.95625" lon="0.20353">
        <ele>148.6</ele>
        <time>2024-03-20T15:52:41Z</time>
      </trkpt>
      <trkpt lat="48.95625" lon="0.20363">
        <ele>148.8</ele>
        <time>2024-03-20T15:52:42Z</time>
      </trkpt>
      <trkpt lat="48.95626" lon="0.20372">
        <ele>148.8</ele>
        <time>2024-03-20T15:52:43Z</time>
      </trkpt>
      <trkpt lat="48.95627" lon="0.20381">
        <ele>148.8</ele>
        <time>2024-03-20T15:52:44Z</time>
      </trkpt>
      <trkpt lat="48.95628" lon="0.20391">
        <ele>148.8</ele>
        <time>2024-03-20T15:52:45Z</time>
      </trkpt>
      <trkpt lat="48.95629" lon="0.204">
        <ele>148.8</ele>
        <time>2024-03-20T15:52:46Z</time>
      </trkpt>
      <trkpt lat="48.9563" lon="0.2041">
        <ele>149</ele>
        <time>2024-03-20T15:52:47Z</time>
      </trkpt>
      <trkpt lat="48.95631" lon="0.20419">
        <ele>149.2</ele>
        <time>2024-03-20T15:52:48Z</time>
      </trkpt>
      <trkpt lat="48.95632" lon="0.20428">
        <ele>149.6</ele>
        <time>2024-03-20T15:52:49Z</time>
      </trkpt>
      <trkpt lat="48.95632" lon="0.20437">
        <ele>149.8</ele>
        <time>2024-03-20T15:52:50Z</time>
      </trkpt>
      <trkpt lat="48.95632" lon="0.20446">
        <ele>150</ele>
        <time>2024-03-20T15:52:51Z</time>
      </trkpt>
      <trkpt lat="48.95633" lon="0.20455">
        <ele>150.2</ele>
        <time>2024-03-20T15:52:52Z</time>
      </trkpt>
      <trkpt lat="48.95634" lon="0.20463">
        <ele>150.6</ele>
        <time>2024-03-20T15:52:53Z</time>
      </trkpt>
      <trkpt lat="48.95635" lon="0.2047">
        <ele>150.8</ele>
        <time>2024-03-20T15:52:54Z</time>
      </trkpt>
      <trkpt lat="48.95636" lon="0.20476">
        <ele>151.2</ele>
        <time>2024-03-20T15:52:55Z</time>
      </trkpt>
      <trkpt lat="48.95637" lon="0.20482">
        <ele>151.4</ele>
        <time>2024-03-20T15:52:56Z</time>
      </trkpt>
      <trkpt lat="48.95638" lon="0.20489">
        <ele>151.6</ele>
        <time>2024-03-20T15:52:57Z</time>
      </trkpt>
      <trkpt lat="48.95639" lon="0.20496">
        <ele>151.6</ele>
        <time>2024-03-20T15:52:58Z</time>
      </trkpt>
      <trkpt lat="48.95641" lon="0.20504">
        <ele>151.8</ele>
        <time>2024-03-20T15:52:59Z</time>
      </trkpt>
      <trkpt lat="48.95642" lon="0.20514">
        <ele>151.8</ele>
        <time>2024-03-20T15:53:00Z</time>
      </trkpt>
      <trkpt lat="48.95643" lon="0.20524">
        <ele>151.8</ele>
        <time>2024-03-20T15:53:01Z</time>
      </trkpt>
      <trkpt lat="48.95643" lon="0.20536">
        <ele>151.8</ele>
        <time>2024-03-20T15:53:02Z</time>
      </trkpt>
      <trkpt lat="48.95643" lon="0.20549">
        <ele>151.8</ele>
        <time>2024-03-20T15:53:03Z</time>
      </trkpt>
      <trkpt lat="48.95642" lon="0.20561">
        <ele>151.8</ele>
        <time>2024-03-20T15:53:04Z</time>
      </trkpt>
      <trkpt lat="48.9564" lon="0.20573">
        <ele>151.6</ele>
        <time>2024-03-20T15:53:05Z</time>
      </trkpt>
      <trkpt lat="48.95637" lon="0.20585">
        <ele>151.6</ele>
        <time>2024-03-20T15:53:06Z</time>
      </trkpt>
      <trkpt lat="48.95635" lon="0.20597">
        <ele>151.4</ele>
        <time>2024-03-20T15:53:07Z</time>
      </trkpt>
      <trkpt lat="48.95634" lon="0.20608">
        <ele>150.8</ele>
        <time>2024-03-20T15:53:08Z</time>
      </trkpt>
      <trkpt lat="48.95633" lon="0.20619">
        <ele>150.2</ele>
        <time>2024-03-20T15:53:09Z</time>
      </trkpt>
      <trkpt lat="48.95632" lon="0.20629">
        <ele>149.2</ele>
        <time>2024-03-20T15:53:10Z</time>
      </trkpt>
      <trkpt lat="48.95632" lon="0.20639">
        <ele>148.6</ele>
        <time>2024-03-20T15:53:11Z</time>
      </trkpt>
      <trkpt lat="48.95632" lon="0.20649">
        <ele>147.8</ele>
        <time>2024-03-20T15:53:12Z</time>
      </trkpt>
      <trkpt lat="48.95632" lon="0.20658">
        <ele>147.6</ele>
        <time>2024-03-20T15:53:13Z</time>
      </trkpt>
      <trkpt lat="48.95633" lon="0.20667">
        <ele>147.2</ele>
        <time>2024-03-20T15:53:14Z</time>
      </trkpt>
      <trkpt lat="48.95634" lon="0.20677">
        <ele>147.2</ele>
        <time>2024-03-20T15:53:15Z</time>
      </trkpt>
      <trkpt lat="48.95636" lon="0.20686">
        <ele>147</ele>
        <time>2024-03-20T15:53:16Z</time>
      </trkpt>
      <trkpt lat="48.95638" lon="0.20695">
        <ele>147</ele>
        <time>2024-03-20T15:53:17Z</time>
      </trkpt>
      <trkpt lat="48.9564" lon="0.20704">
        <ele>147</ele>
        <time>2024-03-20T15:53:18Z</time>
      </trkpt>
      <trkpt lat="48.95642" lon="0.20714">
        <ele>147</ele>
        <time>2024-03-20T15:53:19Z</time>
      </trkpt>
      <trkpt lat="48.95644" lon="0.20723">
        <ele>147</ele>
        <time>2024-03-20T15:53:20Z</time>
      </trkpt>
      <trkpt lat="48.95647" lon="0.20732">
        <ele>146.8</ele>
        <time>2024-03-20T15:53:21Z</time>
      </trkpt>
      <trkpt lat="48.95649" lon="0.20741">
        <ele>146.8</ele>
        <time>2024-03-20T15:53:22Z</time>
      </trkpt>
      <trkpt lat="48.95652" lon="0.2075">
        <ele>146.8</ele>
        <time>2024-03-20T15:53:23Z</time>
      </trkpt>
      <trkpt lat="48.95653" lon="0.2076">
        <ele>146.8</ele>
        <time>2024-03-20T15:53:24Z</time>
      </trkpt>
      <trkpt lat="48.95655" lon="0.20769">
        <ele>146.8</ele>
        <time>2024-03-20T15:53:25Z</time>
      </trkpt>
      <trkpt lat="48.95656" lon="0.20779">
        <ele>146.8</ele>
        <time>2024-03-20T15:53:26Z</time>
      </trkpt>
      <trkpt lat="48.95656" lon="0.20788">
        <ele>146.8</ele>
        <time>2024-03-20T15:53:27Z</time>
      </trkpt>
      <trkpt lat="48.95657" lon="0.20798">
        <ele>146.8</ele>
        <time>2024-03-20T15:53:28Z</time>
      </trkpt>
      <trkpt lat="48.95658" lon="0.20808">
        <ele>146.8</ele>
        <time>2024-03-20T15:53:29Z</time>
      </trkpt>
      <trkpt lat="48.95658" lon="0.20818">
        <ele>146.8</ele>
        <time>2024-03-20T15:53:30Z</time>
      </trkpt>
      <trkpt lat="48.95658" lon="0.20828">
        <ele>146.8</ele>
        <time>2024-03-20T15:53:31Z</time>
      </trkpt>
      <trkpt lat="48.95658" lon="0.20838">
        <ele>146.8</ele>
        <time>2024-03-20T15:53:32Z</time>
      </trkpt>
      <trkpt lat="48.95658" lon="0.20847">
        <ele>146.8</ele>
        <time>2024-03-20T15:53:33Z</time>
      </trkpt>
      <trkpt lat="48.95657" lon="0.20857">
        <ele>146.8</ele>
        <time>2024-03-20T15:53:34Z</time>
      </trkpt>
      <trkpt lat="48.95655" lon="0.20867">
        <ele>147</ele>
        <time>2024-03-20T15:53:35Z</time>
      </trkpt>
      <trkpt lat="48.95654" lon="0.20876">
        <ele>147</ele>
        <time>2024-03-20T15:53:36Z</time>
      </trkpt>
      <trkpt lat="48.95652" lon="0.20885">
        <ele>147</ele>
        <time>2024-03-20T15:53:37Z</time>
      </trkpt>
      <trkpt lat="48.9565" lon="0.20895">
        <ele>147.2</ele>
        <time>2024-03-20T15:53:38Z</time>
      </trkpt>
      <trkpt lat="48.95648" lon="0.20904">
        <ele>147.4</ele>
        <time>2024-03-20T15:53:39Z</time>
      </trkpt>
      <trkpt lat="48.95646" lon="0.20913">
        <ele>147.6</ele>
        <time>2024-03-20T15:53:40Z</time>
      </trkpt>
      <trkpt lat="48.95644" lon="0.20922">
        <ele>147.8</ele>
        <time>2024-03-20T15:53:41Z</time>
      </trkpt>
      <trkpt lat="48.95643" lon="0.20931">
        <ele>148</ele>
        <time>2024-03-20T15:53:42Z</time>
      </trkpt>
      <trkpt lat="48.95642" lon="0.20941">
        <ele>148.2</ele>
        <time>2024-03-20T15:53:43Z</time>
      </trkpt>
      <trkpt lat="48.95643" lon="0.2095">
        <ele>148.6</ele>
        <time>2024-03-20T15:53:44Z</time>
      </trkpt>
      <trkpt lat="48.95644" lon="0.20959">
        <ele>148.6</ele>
        <time>2024-03-20T15:53:45Z</time>
      </trkpt>
      <trkpt lat="48.95646" lon="0.20967">
        <ele>148.8</ele>
        <time>2024-03-20T15:53:46Z</time>
      </trkpt>
      <trkpt lat="48.95647" lon="0.20975">
        <ele>148.8</ele>
        <time>2024-03-20T15:53:47Z</time>
      </trkpt>
      <trkpt lat="48.95648" lon="0.20982">
        <ele>149</ele>
        <time>2024-03-20T15:53:48Z</time>
      </trkpt>
      <trkpt lat="48.9565" lon="0.20989">
        <ele>149</ele>
        <time>2024-03-20T15:53:49Z</time>
      </trkpt>
      <trkpt lat="48.95652" lon="0.20995">
        <ele>149.2</ele>
        <time>2024-03-20T15:53:50Z</time>
      </trkpt>
      <trkpt lat="48.95654" lon="0.21001">
        <ele>149.2</ele>
        <time>2024-03-20T15:53:51Z</time>
      </trkpt>
      <trkpt lat="48.95656" lon="0.21007">
        <ele>149.2</ele>
        <time>2024-03-20T15:53:52Z</time>
      </trkpt>
      <trkpt lat="48.95658" lon="0.21013">
        <ele>149.2</ele>
        <time>2024-03-20T15:53:53Z</time>
      </trkpt>
      <trkpt lat="48.95659" lon="0.21019">
        <ele>149.4</ele>
        <time>2024-03-20T15:53:54Z</time>
      </trkpt>
      <trkpt lat="48.95661" lon="0.21024">
        <ele>149.6</ele>
        <time>2024-03-20T15:53:55Z</time>
      </trkpt>
      <trkpt lat="48.95663" lon="0.2103">
        <ele>149.6</ele>
        <time>2024-03-20T15:53:56Z</time>
      </trkpt>
      <trkpt lat="48.95665" lon="0.21036">
        <ele>149.8</ele>
        <time>2024-03-20T15:53:57Z</time>
      </trkpt>
      <trkpt lat="48.95666" lon="0.21042">
        <ele>150.2</ele>
        <time>2024-03-20T15:53:58Z</time>
      </trkpt>
      <trkpt lat="48.95667" lon="0.21047">
        <ele>150.6</ele>
        <time>2024-03-20T15:53:59Z</time>
      </trkpt>
      <trkpt lat="48.95668" lon="0.21052">
        <ele>151</ele>
        <time>2024-03-20T15:54:00Z</time>
      </trkpt>
      <trkpt lat="48.95669" lon="0.21058">
        <ele>151.2</ele>
        <time>2024-03-20T15:54:01Z</time>
      </trkpt>
      <trkpt lat="48.95671" lon="0.21063">
        <ele>151.4</ele>
        <time>2024-03-20T15:54:02Z</time>
      </trkpt>
      <trkpt lat="48.95672" lon="0.21068">
        <ele>151.6</ele>
        <time>2024-03-20T15:54:03Z</time>
      </trkpt>
      <trkpt lat="48.95672" lon="0.21074">
        <ele>151.6</ele>
        <time>2024-03-20T15:54:04Z</time>
      </trkpt>
      <trkpt lat="48.95673" lon="0.21079">
        <ele>152</ele>
        <time>2024-03-20T15:54:05Z</time>
      </trkpt>
      <trkpt lat="48.95672" lon="0.21085">
        <ele>152.4</ele>
        <time>2024-03-20T15:54:06Z</time>
      </trkpt>
      <trkpt lat="48.95673" lon="0.2109">
        <ele>152.8</ele>
        <time>2024-03-20T15:54:07Z</time>
      </trkpt>
      <trkpt lat="48.95673" lon="0.21095">
        <ele>153.2</ele>
        <time>2024-03-20T15:54:08Z</time>
      </trkpt>
      <trkpt lat="48.95673" lon="0.21101">
        <ele>153.4</ele>
        <time>2024-03-20T15:54:09Z</time>
      </trkpt>
      <trkpt lat="48.95673" lon="0.21106">
        <ele>153.8</ele>
        <time>2024-03-20T15:54:10Z</time>
      </trkpt>
      <trkpt lat="48.95673" lon="0.21111">
        <ele>153.8</ele>
        <time>2024-03-20T15:54:11Z</time>
      </trkpt>
      <trkpt lat="48.95672" lon="0.21116">
        <ele>154.2</ele>
        <time>2024-03-20T15:54:12Z</time>
      </trkpt>
      <trkpt lat="48.95672" lon="0.21122">
        <ele>154.2</ele>
        <time>2024-03-20T15:54:13Z</time>
      </trkpt>
      <trkpt lat="48.95671" lon="0.21127">
        <ele>154.4</ele>
        <time>2024-03-20T15:54:14Z</time>
      </trkpt>
      <trkpt lat="48.9567" lon="0.21133">
        <ele>154.6</ele>
        <time>2024-03-20T15:54:15Z</time>
      </trkpt>
      <trkpt lat="48.95669" lon="0.21139">
        <ele>154.8</ele>
        <time>2024-03-20T15:54:16Z</time>
      </trkpt>
      <trkpt lat="48.95669" lon="0.21146">
        <ele>155.2</ele>
        <time>2024-03-20T15:54:17Z</time>
      </trkpt>
      <trkpt lat="48.95668" lon="0.21152">
        <ele>155.4</ele>
        <time>2024-03-20T15:54:18Z</time>
      </trkpt>
      <trkpt lat="48.95667" lon="0.21157">
        <ele>155.6</ele>
        <time>2024-03-20T15:54:19Z</time>
      </trkpt>
      <trkpt lat="48.95667" lon="0.21164">
        <ele>155.8</ele>
        <time>2024-03-20T15:54:20Z</time>
      </trkpt>
      <trkpt lat="48.95666" lon="0.2117">
        <ele>156</ele>
        <time>2024-03-20T15:54:21Z</time>
      </trkpt>
      <trkpt lat="48.95666" lon="0.21176">
        <ele>156.2</ele>
        <time>2024-03-20T15:54:22Z</time>
      </trkpt>
      <trkpt lat="48.95666" lon="0.21182">
        <ele>156.4</ele>
        <time>2024-03-20T15:54:23Z</time>
      </trkpt>
      <trkpt lat="48.95666" lon="0.21189">
        <ele>156.4</ele>
        <time>2024-03-20T15:54:24Z</time>
      </trkpt>
      <trkpt lat="48.95667" lon="0.21196">
        <ele>156.6</ele>
        <time>2024-03-20T15:54:25Z</time>
      </trkpt>
      <trkpt lat="48.95668" lon="0.21203">
        <ele>156.8</ele>
        <time>2024-03-20T15:54:26Z</time>
      </trkpt>
      <trkpt lat="48.95669" lon="0.21209">
        <ele>157.2</ele>
        <time>2024-03-20T15:54:27Z</time>
      </trkpt>
      <trkpt lat="48.95671" lon="0.21216">
        <ele>157.2</ele>
        <time>2024-03-20T15:54:28Z</time>
      </trkpt>
      <trkpt lat="48.95674" lon="0.21223">
        <ele>157.4</ele>
        <time>2024-03-20T15:54:29Z</time>
      </trkpt>
      <trkpt lat="48.95677" lon="0.21229">
        <ele>157.6</ele>
        <time>2024-03-20T15:54:30Z</time>
      </trkpt>
      <trkpt lat="48.95681" lon="0.21235">
        <ele>157.6</ele>
        <time>2024-03-20T15:54:31Z</time>
      </trkpt>
      <trkpt lat="48.95685" lon="0.21241">
        <ele>157.6</ele>
        <time>2024-03-20T15:54:32Z</time>
      </trkpt>
      <trkpt lat="48.95689" lon="0.21247">
        <ele>157.6</ele>
        <time>2024-03-20T15:54:33Z</time>
      </trkpt>
      <trkpt lat="48.95694" lon="0.21252">
        <ele>157.6</ele>
        <time>2024-03-20T15:54:34Z</time>
      </trkpt>
      <trkpt lat="48.95699" lon="0.21256">
        <ele>157.6</ele>
        <time>2024-03-20T15:54:35Z</time>
      </trkpt>
      <trkpt lat="48.95703" lon="0.21261">
        <ele>157.6</ele>
        <time>2024-03-20T15:54:36Z</time>
      </trkpt>
      <trkpt lat="48.95708" lon="0.21266">
        <ele>157.6</ele>
        <time>2024-03-20T15:54:37Z</time>
      </trkpt>
      <trkpt lat="48.95712" lon="0.21271">
        <ele>157.6</ele>
        <time>2024-03-20T15:54:38Z</time>
      </trkpt>
      <trkpt lat="48.95716" lon="0.21277">
        <ele>157.6</ele>
        <time>2024-03-20T15:54:39Z</time>
      </trkpt>
      <trkpt lat="48.9572" lon="0.21283">
        <ele>157.6</ele>
        <time>2024-03-20T15:54:40Z</time>
      </trkpt>
      <trkpt lat="48.95724" lon="0.21289">
        <ele>157.4</ele>
        <time>2024-03-20T15:54:41Z</time>
      </trkpt>
      <trkpt lat="48.95727" lon="0.21295">
        <ele>157.4</ele>
        <time>2024-03-20T15:54:42Z</time>
      </trkpt>
      <trkpt lat="48.95729" lon="0.21302">
        <ele>157.2</ele>
        <time>2024-03-20T15:54:43Z</time>
      </trkpt>
      <trkpt lat="48.95731" lon="0.21308">
        <ele>157.2</ele>
        <time>2024-03-20T15:54:44Z</time>
      </trkpt>
      <trkpt lat="48.95734" lon="0.21315">
        <ele>157.2</ele>
        <time>2024-03-20T15:54:45Z</time>
      </trkpt>
      <trkpt lat="48.95736" lon="0.21322">
        <ele>157.2</ele>
        <time>2024-03-20T15:54:46Z</time>
      </trkpt>
      <trkpt lat="48.95738" lon="0.21328">
        <ele>157.2</ele>
        <time>2024-03-20T15:54:47Z</time>
      </trkpt>
      <trkpt lat="48.9574" lon="0.21335">
        <ele>157.2</ele>
        <time>2024-03-20T15:54:48Z</time>
      </trkpt>
      <trkpt lat="48.95742" lon="0.21341">
        <ele>157.2</ele>
        <time>2024-03-20T15:54:49Z</time>
      </trkpt>
      <trkpt lat="48.95745" lon="0.21348">
        <ele>157.2</ele>
        <time>2024-03-20T15:54:50Z</time>
      </trkpt>
      <trkpt lat="48.95747" lon="0.21355">
        <ele>157.2</ele>
        <time>2024-03-20T15:54:51Z</time>
      </trkpt>
      <trkpt lat="48.95749" lon="0.21361">
        <ele>157.4</ele>
        <time>2024-03-20T15:54:52Z</time>
      </trkpt>
      <trkpt lat="48.95752" lon="0.21368">
        <ele>157.4</ele>
        <time>2024-03-20T15:54:53Z</time>
      </trkpt>
      <trkpt lat="48.95755" lon="0.21377">
        <ele>157.6</ele>
        <time>2024-03-20T15:54:54Z</time>
      </trkpt>
      <trkpt lat="48.95758" lon="0.21386">
        <ele>157.6</ele>
        <time>2024-03-20T15:54:55Z</time>
      </trkpt>
      <trkpt lat="48.9576" lon="0.21395">
        <ele>157.6</ele>
        <time>2024-03-20T15:54:56Z</time>
      </trkpt>
      <trkpt lat="48.95763" lon="0.21406">
        <ele>157.6</ele>
        <time>2024-03-20T15:54:57Z</time>
      </trkpt>
      <trkpt lat="48.95765" lon="0.21417">
        <ele>157.6</ele>
        <time>2024-03-20T15:54:58Z</time>
      </trkpt>
      <trkpt lat="48.95767" lon="0.21428">
        <ele>157.6</ele>
        <time>2024-03-20T15:54:59Z</time>
      </trkpt>
      <trkpt lat="48.95769" lon="0.2144">
        <ele>157.6</ele>
        <time>2024-03-20T15:55:00Z</time>
      </trkpt>
      <trkpt lat="48.95772" lon="0.21451">
        <ele>157.6</ele>
        <time>2024-03-20T15:55:01Z</time>
      </trkpt>
      <trkpt lat="48.95774" lon="0.21463">
        <ele>157.6</ele>
        <time>2024-03-20T15:55:02Z</time>
      </trkpt>
      <trkpt lat="48.95776" lon="0.21474">
        <ele>157.6</ele>
        <time>2024-03-20T15:55:03Z</time>
      </trkpt>
      <trkpt lat="48.95779" lon="0.21486">
        <ele>157.4</ele>
        <time>2024-03-20T15:55:04Z</time>
      </trkpt>
      <trkpt lat="48.95781" lon="0.21497">
        <ele>156.8</ele>
        <time>2024-03-20T15:55:05Z</time>
      </trkpt>
      <trkpt lat="48.95783" lon="0.21509">
        <ele>156.4</ele>
        <time>2024-03-20T15:55:06Z</time>
      </trkpt>
      <trkpt lat="48.95786" lon="0.2152">
        <ele>155.8</ele>
        <time>2024-03-20T15:55:07Z</time>
      </trkpt>
      <trkpt lat="48.95788" lon="0.2153">
        <ele>155.4</ele>
        <time>2024-03-20T15:55:08Z</time>
      </trkpt>
      <trkpt lat="48.9579" lon="0.21541">
        <ele>155</ele>
        <time>2024-03-20T15:55:09Z</time>
      </trkpt>
      <trkpt lat="48.95793" lon="0.21552">
        <ele>154.4</ele>
        <time>2024-03-20T15:55:10Z</time>
      </trkpt>
      <trkpt lat="48.95795" lon="0.21562">
        <ele>154</ele>
        <time>2024-03-20T15:55:11Z</time>
      </trkpt>
      <trkpt lat="48.95798" lon="0.21572">
        <ele>153.8</ele>
        <time>2024-03-20T15:55:12Z</time>
      </trkpt>
      <trkpt lat="48.958" lon="0.21581">
        <ele>153.8</ele>
        <time>2024-03-20T15:55:13Z</time>
      </trkpt>
      <trkpt lat="48.95802" lon="0.21591">
        <ele>153.8</ele>
        <time>2024-03-20T15:55:14Z</time>
      </trkpt>
      <trkpt lat="48.95804" lon="0.21601">
        <ele>153.8</ele>
        <time>2024-03-20T15:55:15Z</time>
      </trkpt>
      <trkpt lat="48.95806" lon="0.2161">
        <ele>153.8</ele>
        <time>2024-03-20T15:55:16Z</time>
      </trkpt>
      <trkpt lat="48.95808" lon="0.21618">
        <ele>153.8</ele>
        <time>2024-03-20T15:55:17Z</time>
      </trkpt>
      <trkpt lat="48.9581" lon="0.21627">
        <ele>153.8</ele>
        <time>2024-03-20T15:55:18Z</time>
      </trkpt>
      <trkpt lat="48.95812" lon="0.21636">
        <ele>153.8</ele>
        <time>2024-03-20T15:55:19Z</time>
      </trkpt>
      <trkpt lat="48.95814" lon="0.21644">
        <ele>153.8</ele>
        <time>2024-03-20T15:55:20Z</time>
      </trkpt>
      <trkpt lat="48.95816" lon="0.21653">
        <ele>154</ele>
        <time>2024-03-20T15:55:21Z</time>
      </trkpt>
      <trkpt lat="48.95818" lon="0.21661">
        <ele>154.2</ele>
        <time>2024-03-20T15:55:22Z</time>
      </trkpt>
      <trkpt lat="48.9582" lon="0.21669">
        <ele>154.4</ele>
        <time>2024-03-20T15:55:23Z</time>
      </trkpt>
      <trkpt lat="48.95823" lon="0.21677">
        <ele>154.8</ele>
        <time>2024-03-20T15:55:24Z</time>
      </trkpt>
      <trkpt lat="48.95825" lon="0.21686">
        <ele>155</ele>
        <time>2024-03-20T15:55:25Z</time>
      </trkpt>
      <trkpt lat="48.95827" lon="0.21694">
        <ele>155.4</ele>
        <time>2024-03-20T15:55:26Z</time>
      </trkpt>
      <trkpt lat="48.95829" lon="0.21702">
        <ele>155.6</ele>
        <time>2024-03-20T15:55:27Z</time>
      </trkpt>
      <trkpt lat="48.95832" lon="0.21709">
        <ele>155.8</ele>
        <time>2024-03-20T15:55:28Z</time>
      </trkpt>
      <trkpt lat="48.95833" lon="0.21717">
        <ele>156</ele>
        <time>2024-03-20T15:55:29Z</time>
      </trkpt>
      <trkpt lat="48.95835" lon="0.21725">
        <ele>156.2</ele>
        <time>2024-03-20T15:55:30Z</time>
      </trkpt>
      <trkpt lat="48.95836" lon="0.21733">
        <ele>156.4</ele>
        <time>2024-03-20T15:55:31Z</time>
      </trkpt>
      <trkpt lat="48.95838" lon="0.21741">
        <ele>156.8</ele>
        <time>2024-03-20T15:55:32Z</time>
      </trkpt>
      <trkpt lat="48.9584" lon="0.21749">
        <ele>157</ele>
        <time>2024-03-20T15:55:33Z</time>
      </trkpt>
      <trkpt lat="48.95841" lon="0.21757">
        <ele>157.2</ele>
        <time>2024-03-20T15:55:34Z</time>
      </trkpt>
      <trkpt lat="48.95843" lon="0.21765">
        <ele>157.4</ele>
        <time>2024-03-20T15:55:35Z</time>
      </trkpt>
      <trkpt lat="48.95844" lon="0.21773">
        <ele>157.6</ele>
        <time>2024-03-20T15:55:36Z</time>
      </trkpt>
      <trkpt lat="48.95846" lon="0.2178">
        <ele>158</ele>
        <time>2024-03-20T15:55:37Z</time>
      </trkpt>
      <trkpt lat="48.95848" lon="0.21788">
        <ele>158.2</ele>
        <time>2024-03-20T15:55:38Z</time>
      </trkpt>
      <trkpt lat="48.95849" lon="0.21796">
        <ele>158.4</ele>
        <time>2024-03-20T15:55:39Z</time>
      </trkpt>
      <trkpt lat="48.9585" lon="0.21804">
        <ele>158.6</ele>
        <time>2024-03-20T15:55:40Z</time>
      </trkpt>
      <trkpt lat="48.95851" lon="0.21811">
        <ele>158.6</ele>
        <time>2024-03-20T15:55:41Z</time>
      </trkpt>
      <trkpt lat="48.95852" lon="0.21819">
        <ele>158.6</ele>
        <time>2024-03-20T15:55:42Z</time>
      </trkpt>
      <trkpt lat="48.95852" lon="0.21826">
        <ele>158.8</ele>
        <time>2024-03-20T15:55:43Z</time>
      </trkpt>
      <trkpt lat="48.95852" lon="0.21833">
        <ele>158.8</ele>
        <time>2024-03-20T15:55:44Z</time>
      </trkpt>
      <trkpt lat="48.95852" lon="0.2184">
        <ele>159.4</ele>
        <time>2024-03-20T15:55:45Z</time>
      </trkpt>
      <trkpt lat="48.95851" lon="0.21848">
        <ele>159.4</ele>
        <time>2024-03-20T15:55:46Z</time>
      </trkpt>
      <trkpt lat="48.9585" lon="0.21856">
        <ele>159.6</ele>
        <time>2024-03-20T15:55:47Z</time>
      </trkpt>
      <trkpt lat="48.9585" lon="0.21861">
        <ele>160</ele>
        <time>2024-03-20T15:55:48Z</time>
      </trkpt>
      <trkpt lat="48.95849" lon="0.21868">
        <ele>160.4</ele>
        <time>2024-03-20T15:55:49Z</time>
      </trkpt>
      <trkpt lat="48.95848" lon="0.21875">
        <ele>160.6</ele>
        <time>2024-03-20T15:55:50Z</time>
      </trkpt>
      <trkpt lat="48.95846" lon="0.21883">
        <ele>161</ele>
        <time>2024-03-20T15:55:51Z</time>
      </trkpt>
      <trkpt lat="48.95844" lon="0.2189">
        <ele>161</ele>
        <time>2024-03-20T15:55:52Z</time>
      </trkpt>
      <trkpt lat="48.95842" lon="0.21897">
        <ele>161.4</ele>
        <time>2024-03-20T15:55:53Z</time>
      </trkpt>
      <trkpt lat="48.9584" lon="0.21904">
        <ele>161.6</ele>
        <time>2024-03-20T15:55:54Z</time>
      </trkpt>
      <trkpt lat="48.95838" lon="0.2191">
        <ele>161.8</ele>
        <time>2024-03-20T15:55:55Z</time>
      </trkpt>
      <trkpt lat="48.95836" lon="0.21917">
        <ele>162</ele>
        <time>2024-03-20T15:55:56Z</time>
      </trkpt>
      <trkpt lat="48.95833" lon="0.21925">
        <ele>162.2</ele>
        <time>2024-03-20T15:55:57Z</time>
      </trkpt>
      <trkpt lat="48.95831" lon="0.21932">
        <ele>162.2</ele>
        <time>2024-03-20T15:55:58Z</time>
      </trkpt>
      <trkpt lat="48.95829" lon="0.21939">
        <ele>162.6</ele>
        <time>2024-03-20T15:55:59Z</time>
      </trkpt>
      <trkpt lat="48.95828" lon="0.21947">
        <ele>162.8</ele>
        <time>2024-03-20T15:56:00Z</time>
      </trkpt>
      <trkpt lat="48.95827" lon="0.21955">
        <ele>163</ele>
        <time>2024-03-20T15:56:01Z</time>
      </trkpt>
      <trkpt lat="48.95827" lon="0.21963">
        <ele>163</ele>
        <time>2024-03-20T15:56:02Z</time>
      </trkpt>
      <trkpt lat="48.95827" lon="0.21971">
        <ele>163</ele>
        <time>2024-03-20T15:56:03Z</time>
      </trkpt>
      <trkpt lat="48.95827" lon="0.21979">
        <ele>163.2</ele>
        <time>2024-03-20T15:56:04Z</time>
      </trkpt>
      <trkpt lat="48.95828" lon="0.21986">
        <ele>163.2</ele>
        <time>2024-03-20T15:56:05Z</time>
      </trkpt>
      <trkpt lat="48.95828" lon="0.21994">
        <ele>163.4</ele>
        <time>2024-03-20T15:56:06Z</time>
      </trkpt>
      <trkpt lat="48.95828" lon="0.22002">
        <ele>163.4</ele>
        <time>2024-03-20T15:56:07Z</time>
      </trkpt>
      <trkpt lat="48.95828" lon="0.2201">
        <ele>163.4</ele>
        <time>2024-03-20T15:56:08Z</time>
      </trkpt>
      <trkpt lat="48.95828" lon="0.22018">
        <ele>163.6</ele>
        <time>2024-03-20T15:56:09Z</time>
      </trkpt>
      <trkpt lat="48.95828" lon="0.22026">
        <ele>163.6</ele>
        <time>2024-03-20T15:56:10Z</time>
      </trkpt>
      <trkpt lat="48.95827" lon="0.22034">
        <ele>163.8</ele>
        <time>2024-03-20T15:56:11Z</time>
      </trkpt>
      <trkpt lat="48.95827" lon="0.22042">
        <ele>164</ele>
        <time>2024-03-20T15:56:12Z</time>
      </trkpt>
      <trkpt lat="48.95826" lon="0.2205">
        <ele>164</ele>
        <time>2024-03-20T15:56:13Z</time>
      </trkpt>
      <trkpt lat="48.95826" lon="0.22058">
        <ele>164.2</ele>
        <time>2024-03-20T15:56:14Z</time>
      </trkpt>
      <trkpt lat="48.95825" lon="0.22065">
        <ele>164.2</ele>
        <time>2024-03-20T15:56:15Z</time>
      </trkpt>
      <trkpt lat="48.95823" lon="0.22073">
        <ele>164.4</ele>
        <time>2024-03-20T15:56:16Z</time>
      </trkpt>
      <trkpt lat="48.95822" lon="0.2208">
        <ele>164.6</ele>
        <time>2024-03-20T15:56:17Z</time>
      </trkpt>
      <trkpt lat="48.95821" lon="0.22087">
        <ele>164.6</ele>
        <time>2024-03-20T15:56:18Z</time>
      </trkpt>
      <trkpt lat="48.95819" lon="0.22093">
        <ele>164.8</ele>
        <time>2024-03-20T15:56:19Z</time>
      </trkpt>
      <trkpt lat="48.95818" lon="0.22099">
        <ele>164.8</ele>
        <time>2024-03-20T15:56:20Z</time>
      </trkpt>
      <trkpt lat="48.95817" lon="0.22106">
        <ele>164.8</ele>
        <time>2024-03-20T15:56:21Z</time>
      </trkpt>
      <trkpt lat="48.95816" lon="0.22113">
        <ele>165</ele>
        <time>2024-03-20T15:56:22Z</time>
      </trkpt>
      <trkpt lat="48.95814" lon="0.22119">
        <ele>165.2</ele>
        <time>2024-03-20T15:56:23Z</time>
      </trkpt>
      <trkpt lat="48.95813" lon="0.22126">
        <ele>165.2</ele>
        <time>2024-03-20T15:56:24Z</time>
      </trkpt>
      <trkpt lat="48.95811" lon="0.22133">
        <ele>165.4</ele>
        <time>2024-03-20T15:56:25Z</time>
      </trkpt>
      <trkpt lat="48.9581" lon="0.22139">
        <ele>165.4</ele>
        <time>2024-03-20T15:56:26Z</time>
      </trkpt>
      <trkpt lat="48.95808" lon="0.22145">
        <ele>165.4</ele>
        <time>2024-03-20T15:56:27Z</time>
      </trkpt>
      <trkpt lat="48.95807" lon="0.22152">
        <ele>165.6</ele>
        <time>2024-03-20T15:56:28Z</time>
      </trkpt>
      <trkpt lat="48.95805" lon="0.22158">
        <ele>165.6</ele>
        <time>2024-03-20T15:56:29Z</time>
      </trkpt>
      <trkpt lat="48.95804" lon="0.22165">
        <ele>165.8</ele>
        <time>2024-03-20T15:56:30Z</time>
      </trkpt>
      <trkpt lat="48.95802" lon="0.22172">
        <ele>166</ele>
        <time>2024-03-20T15:56:31Z</time>
      </trkpt>
      <trkpt lat="48.958" lon="0.22178">
        <ele>166.2</ele>
        <time>2024-03-20T15:56:32Z</time>
      </trkpt>
      <trkpt lat="48.95798" lon="0.22185">
        <ele>166.4</ele>
        <time>2024-03-20T15:56:33Z</time>
      </trkpt>
      <trkpt lat="48.95796" lon="0.22192">
        <ele>166.6</ele>
        <time>2024-03-20T15:56:34Z</time>
      </trkpt>
      <trkpt lat="48.95794" lon="0.22199">
        <ele>166.8</ele>
        <time>2024-03-20T15:56:35Z</time>
      </trkpt>
      <trkpt lat="48.95791" lon="0.22205">
        <ele>167</ele>
        <time>2024-03-20T15:56:36Z</time>
      </trkpt>
      <trkpt lat="48.95789" lon="0.22212">
        <ele>167.2</ele>
        <time>2024-03-20T15:56:37Z</time>
      </trkpt>
      <trkpt lat="48.95786" lon="0.22219">
        <ele>167.4</ele>
        <time>2024-03-20T15:56:38Z</time>
      </trkpt>
      <trkpt lat="48.95784" lon="0.22225">
        <ele>167.6</ele>
        <time>2024-03-20T15:56:39Z</time>
      </trkpt>
      <trkpt lat="48.95781" lon="0.22232">
        <ele>167.8</ele>
        <time>2024-03-20T15:56:40Z</time>
      </trkpt>
      <trkpt lat="48.95779" lon="0.22239">
        <ele>168</ele>
        <time>2024-03-20T15:56:41Z</time>
      </trkpt>
      <trkpt lat="48.95776" lon="0.22246">
        <ele>168.2</ele>
        <time>2024-03-20T15:56:42Z</time>
      </trkpt>
      <trkpt lat="48.95774" lon="0.22252">
        <ele>168.4</ele>
        <time>2024-03-20T15:56:43Z</time>
      </trkpt>
      <trkpt lat="48.95771" lon="0.22259">
        <ele>168.6</ele>
        <time>2024-03-20T15:56:44Z</time>
      </trkpt>
      <trkpt lat="48.95768" lon="0.22265">
        <ele>168.6</ele>
        <time>2024-03-20T15:56:45Z</time>
      </trkpt>
      <trkpt lat="48.95766" lon="0.22272">
        <ele>168.6</ele>
        <time>2024-03-20T15:56:46Z</time>
      </trkpt>
      <trkpt lat="48.95763" lon="0.22278">
        <ele>168.6</ele>
        <time>2024-03-20T15:56:47Z</time>
      </trkpt>
      <trkpt lat="48.9576" lon="0.22284">
        <ele>168.8</ele>
        <time>2024-03-20T15:56:48Z</time>
      </trkpt>
      <trkpt lat="48.95757" lon="0.22291">
        <ele>168.8</ele>
        <time>2024-03-20T15:56:49Z</time>
      </trkpt>
      <trkpt lat="48.95754" lon="0.22298">
        <ele>169</ele>
        <time>2024-03-20T15:56:50Z</time>
      </trkpt>
      <trkpt lat="48.95751" lon="0.22304">
        <ele>169</ele>
        <time>2024-03-20T15:56:51Z</time>
      </trkpt>
      <trkpt lat="48.95749" lon="0.22311">
        <ele>169</ele>
        <time>2024-03-20T15:56:52Z</time>
      </trkpt>
      <trkpt lat="48.95746" lon="0.22318">
        <ele>169</ele>
        <time>2024-03-20T15:56:53Z</time>
      </trkpt>
      <trkpt lat="48.95743" lon="0.22324">
        <ele>169</ele>
        <time>2024-03-20T15:56:54Z</time>
      </trkpt>
      <trkpt lat="48.95741" lon="0.22331">
        <ele>169</ele>
        <time>2024-03-20T15:56:55Z</time>
      </trkpt>
      <trkpt lat="48.95738" lon="0.22338">
        <ele>169</ele>
        <time>2024-03-20T15:56:56Z</time>
      </trkpt>
      <trkpt lat="48.95736" lon="0.22345">
        <ele>169</ele>
        <time>2024-03-20T15:56:57Z</time>
      </trkpt>
      <trkpt lat="48.95733" lon="0.22351">
        <ele>169</ele>
        <time>2024-03-20T15:56:58Z</time>
      </trkpt>
      <trkpt lat="48.9573" lon="0.22358">
        <ele>169.2</ele>
        <time>2024-03-20T15:56:59Z</time>
      </trkpt>
      <trkpt lat="48.95727" lon="0.22364">
        <ele>169.2</ele>
        <time>2024-03-20T15:57:00Z</time>
      </trkpt>
      <trkpt lat="48.95724" lon="0.22371">
        <ele>169.2</ele>
        <time>2024-03-20T15:57:01Z</time>
      </trkpt>
      <trkpt lat="48.95722" lon="0.22377">
        <ele>169.6</ele>
        <time>2024-03-20T15:57:02Z</time>
      </trkpt>
      <trkpt lat="48.95719" lon="0.22384">
        <ele>169.6</ele>
        <time>2024-03-20T15:57:03Z</time>
      </trkpt>
      <trkpt lat="48.95717" lon="0.22391">
        <ele>169.6</ele>
        <time>2024-03-20T15:57:04Z</time>
      </trkpt>
      <trkpt lat="48.95714" lon="0.22398">
        <ele>169.6</ele>
        <time>2024-03-20T15:57:05Z</time>
      </trkpt>
      <trkpt lat="48.95712" lon="0.22405">
        <ele>169.6</ele>
        <time>2024-03-20T15:57:06Z</time>
      </trkpt>
      <trkpt lat="48.95711" lon="0.22413">
        <ele>169.6</ele>
        <time>2024-03-20T15:57:07Z</time>
      </trkpt>
      <trkpt lat="48.95709" lon="0.2242">
        <ele>169.6</ele>
        <time>2024-03-20T15:57:08Z</time>
      </trkpt>
      <trkpt lat="48.95707" lon="0.22428">
        <ele>169.8</ele>
        <time>2024-03-20T15:57:09Z</time>
      </trkpt>
      <trkpt lat="48.95706" lon="0.22436">
        <ele>170.2</ele>
        <time>2024-03-20T15:57:10Z</time>
      </trkpt>
      <trkpt lat="48.95705" lon="0.22443">
        <ele>170.4</ele>
        <time>2024-03-20T15:57:11Z</time>
      </trkpt>
      <trkpt lat="48.95705" lon="0.22451">
        <ele>170.4</ele>
        <time>2024-03-20T15:57:12Z</time>
      </trkpt>
      <trkpt lat="48.95704" lon="0.22459">
        <ele>170.4</ele>
        <time>2024-03-20T15:57:13Z</time>
      </trkpt>
      <trkpt lat="48.95703" lon="0.22467">
        <ele>170.8</ele>
        <time>2024-03-20T15:57:14Z</time>
      </trkpt>
      <trkpt lat="48.95703" lon="0.22475">
        <ele>170.8</ele>
        <time>2024-03-20T15:57:15Z</time>
      </trkpt>
      <trkpt lat="48.95702" lon="0.22483">
        <ele>170.8</ele>
        <time>2024-03-20T15:57:16Z</time>
      </trkpt>
      <trkpt lat="48.95701" lon="0.22491">
        <ele>170.8</ele>
        <time>2024-03-20T15:57:17Z</time>
      </trkpt>
      <trkpt lat="48.95701" lon="0.225">
        <ele>170.8</ele>
        <time>2024-03-20T15:57:18Z</time>
      </trkpt>
      <trkpt lat="48.957" lon="0.22508">
        <ele>171</ele>
        <time>2024-03-20T15:57:19Z</time>
      </trkpt>
      <trkpt lat="48.95699" lon="0.22516">
        <ele>170.8</ele>
        <time>2024-03-20T15:57:20Z</time>
      </trkpt>
      <trkpt lat="48.95699" lon="0.22524">
        <ele>171</ele>
        <time>2024-03-20T15:57:21Z</time>
      </trkpt>
      <trkpt lat="48.95698" lon="0.22532">
        <ele>171</ele>
        <time>2024-03-20T15:57:22Z</time>
      </trkpt>
      <trkpt lat="48.95699" lon="0.22541">
        <ele>171</ele>
        <time>2024-03-20T15:57:23Z</time>
      </trkpt>
      <trkpt lat="48.95698" lon="0.22549">
        <ele>171</ele>
        <time>2024-03-20T15:57:24Z</time>
      </trkpt>
      <trkpt lat="48.95697" lon="0.22558">
        <ele>171</ele>
        <time>2024-03-20T15:57:25Z</time>
      </trkpt>
      <trkpt lat="48.95697" lon="0.22566">
        <ele>171.2</ele>
        <time>2024-03-20T15:57:26Z</time>
      </trkpt>
      <trkpt lat="48.95696" lon="0.22574">
        <ele>171.2</ele>
        <time>2024-03-20T15:57:27Z</time>
      </trkpt>
      <trkpt lat="48.95696" lon="0.22582">
        <ele>171.2</ele>
        <time>2024-03-20T15:57:28Z</time>
      </trkpt>
      <trkpt lat="48.95695" lon="0.2259">
        <ele>171.2</ele>
        <time>2024-03-20T15:57:29Z</time>
      </trkpt>
      <trkpt lat="48.95695" lon="0.22597">
        <ele>171.2</ele>
        <time>2024-03-20T15:57:30Z</time>
      </trkpt>
      <trkpt lat="48.95695" lon="0.22605">
        <ele>171.2</ele>
        <time>2024-03-20T15:57:31Z</time>
      </trkpt>
      <trkpt lat="48.95694" lon="0.22613">
        <ele>171.2</ele>
        <time>2024-03-20T15:57:32Z</time>
      </trkpt>
      <trkpt lat="48.95694" lon="0.22621">
        <ele>171.2</ele>
        <time>2024-03-20T15:57:33Z</time>
      </trkpt>
      <trkpt lat="48.95694" lon="0.22628">
        <ele>171.2</ele>
        <time>2024-03-20T15:57:34Z</time>
      </trkpt>
      <trkpt lat="48.95694" lon="0.22635">
        <ele>171.2</ele>
        <time>2024-03-20T15:57:35Z</time>
      </trkpt>
      <trkpt lat="48.95695" lon="0.22642">
        <ele>171.4</ele>
        <time>2024-03-20T15:57:36Z</time>
      </trkpt>
      <trkpt lat="48.95696" lon="0.22648">
        <ele>171.4</ele>
        <time>2024-03-20T15:57:37Z</time>
      </trkpt>
      <trkpt lat="48.95696" lon="0.22655">
        <ele>171.8</ele>
        <time>2024-03-20T15:57:38Z</time>
      </trkpt>
      <trkpt lat="48.95695" lon="0.22662">
        <ele>172</ele>
        <time>2024-03-20T15:57:39Z</time>
      </trkpt>
      <trkpt lat="48.95695" lon="0.22668">
        <ele>172.2</ele>
        <time>2024-03-20T15:57:40Z</time>
      </trkpt>
      <trkpt lat="48.95695" lon="0.22676">
        <ele>172.4</ele>
        <time>2024-03-20T15:57:41Z</time>
      </trkpt>
      <trkpt lat="48.95694" lon="0.22683">
        <ele>172.6</ele>
        <time>2024-03-20T15:57:42Z</time>
      </trkpt>
      <trkpt lat="48.95694" lon="0.2269">
        <ele>172.8</ele>
        <time>2024-03-20T15:57:43Z</time>
      </trkpt>
      <trkpt lat="48.95693" lon="0.22697">
        <ele>173</ele>
        <time>2024-03-20T15:57:44Z</time>
      </trkpt>
      <trkpt lat="48.95693" lon="0.22704">
        <ele>173.2</ele>
        <time>2024-03-20T15:57:45Z</time>
      </trkpt>
      <trkpt lat="48.95693" lon="0.2271">
        <ele>173.6</ele>
        <time>2024-03-20T15:57:46Z</time>
      </trkpt>
      <trkpt lat="48.95692" lon="0.22717">
        <ele>173.8</ele>
        <time>2024-03-20T15:57:47Z</time>
      </trkpt>
      <trkpt lat="48.95692" lon="0.22723">
        <ele>174.2</ele>
        <time>2024-03-20T15:57:48Z</time>
      </trkpt>
      <trkpt lat="48.95692" lon="0.22729">
        <ele>174.2</ele>
        <time>2024-03-20T15:57:49Z</time>
      </trkpt>
      <trkpt lat="48.95692" lon="0.22736">
        <ele>174.4</ele>
        <time>2024-03-20T15:57:50Z</time>
      </trkpt>
      <trkpt lat="48.95691" lon="0.22742">
        <ele>174.4</ele>
        <time>2024-03-20T15:57:51Z</time>
      </trkpt>
      <trkpt lat="48.95691" lon="0.22748">
        <ele>174.8</ele>
        <time>2024-03-20T15:57:52Z</time>
      </trkpt>
      <trkpt lat="48.95691" lon="0.22754">
        <ele>174.8</ele>
        <time>2024-03-20T15:57:53Z</time>
      </trkpt>
      <trkpt lat="48.9569" lon="0.2276">
        <ele>175.2</ele>
        <time>2024-03-20T15:57:54Z</time>
      </trkpt>
      <trkpt lat="48.9569" lon="0.22766">
        <ele>175.2</ele>
        <time>2024-03-20T15:57:55Z</time>
      </trkpt>
      <trkpt lat="48.9569" lon="0.22772">
        <ele>175.4</ele>
        <time>2024-03-20T15:57:56Z</time>
      </trkpt>
      <trkpt lat="48.95689" lon="0.22778">
        <ele>175.6</ele>
        <time>2024-03-20T15:57:57Z</time>
      </trkpt>
      <trkpt lat="48.95689" lon="0.22784">
        <ele>175.8</ele>
        <time>2024-03-20T15:57:58Z</time>
      </trkpt>
      <trkpt lat="48.95688" lon="0.2279">
        <ele>176</ele>
        <time>2024-03-20T15:57:59Z</time>
      </trkpt>
      <trkpt lat="48.95687" lon="0.22797">
        <ele>176.2</ele>
        <time>2024-03-20T15:58:00Z</time>
      </trkpt>
      <trkpt lat="48.95687" lon="0.22802">
        <ele>176.4</ele>
        <time>2024-03-20T15:58:01Z</time>
      </trkpt>
      <trkpt lat="48.95686" lon="0.22809">
        <ele>176.6</ele>
        <time>2024-03-20T15:58:02Z</time>
      </trkpt>
      <trkpt lat="48.95685" lon="0.22815">
        <ele>176.8</ele>
        <time>2024-03-20T15:58:03Z</time>
      </trkpt>
      <trkpt lat="48.95683" lon="0.22821">
        <ele>177</ele>
        <time>2024-03-20T15:58:04Z</time>
      </trkpt>
      <trkpt lat="48.95682" lon="0.22827">
        <ele>177.2</ele>
        <time>2024-03-20T15:58:05Z</time>
      </trkpt>
      <trkpt lat="48.9568" lon="0.22833">
        <ele>177.6</ele>
        <time>2024-03-20T15:58:06Z</time>
      </trkpt>
      <trkpt lat="48.95679" lon="0.22838">
        <ele>177.8</ele>
        <time>2024-03-20T15:58:07Z</time>
      </trkpt>
      <trkpt lat="48.95677" lon="0.22844">
        <ele>178</ele>
        <time>2024-03-20T15:58:08Z</time>
      </trkpt>
      <trkpt lat="48.95675" lon="0.22849">
        <ele>178</ele>
        <time>2024-03-20T15:58:09Z</time>
      </trkpt>
      <trkpt lat="48.95673" lon="0.22855">
        <ele>178.2</ele>
        <time>2024-03-20T15:58:10Z</time>
      </trkpt>
      <trkpt lat="48.95671" lon="0.22859">
        <ele>178.4</ele>
        <time>2024-03-20T15:58:11Z</time>
      </trkpt>
      <trkpt lat="48.95668" lon="0.22864">
        <ele>178.6</ele>
        <time>2024-03-20T15:58:12Z</time>
      </trkpt>
      <trkpt lat="48.95665" lon="0.22868">
        <ele>178.6</ele>
        <time>2024-03-20T15:58:13Z</time>
      </trkpt>
      <trkpt lat="48.95662" lon="0.22872">
        <ele>179</ele>
        <time>2024-03-20T15:58:14Z</time>
      </trkpt>
      <trkpt lat="48.95659" lon="0.22877">
        <ele>179.2</ele>
        <time>2024-03-20T15:58:15Z</time>
      </trkpt>
      <trkpt lat="48.95655" lon="0.22881">
        <ele>179.6</ele>
        <time>2024-03-20T15:58:16Z</time>
      </trkpt>
      <trkpt lat="48.95652" lon="0.22885">
        <ele>179.8</ele>
        <time>2024-03-20T15:58:17Z</time>
      </trkpt>
      <trkpt lat="48.95648" lon="0.2289">
        <ele>180</ele>
        <time>2024-03-20T15:58:18Z</time>
      </trkpt>
      <trkpt lat="48.95644" lon="0.22895">
        <ele>180.2</ele>
        <time>2024-03-20T15:58:19Z</time>
      </trkpt>
      <trkpt lat="48.9564" lon="0.22899">
        <ele>180.4</ele>
        <time>2024-03-20T15:58:20Z</time>
      </trkpt>
      <trkpt lat="48.95636" lon="0.22904">
        <ele>180.4</ele>
        <time>2024-03-20T15:58:21Z</time>
      </trkpt>
      <trkpt lat="48.95633" lon="0.22909">
        <ele>180.6</ele>
        <time>2024-03-20T15:58:22Z</time>
      </trkpt>
      <trkpt lat="48.95629" lon="0.22913">
        <ele>180.6</ele>
        <time>2024-03-20T15:58:23Z</time>
      </trkpt>
      <trkpt lat="48.95625" lon="0.22918">
        <ele>180.8</ele>
        <time>2024-03-20T15:58:24Z</time>
      </trkpt>
      <trkpt lat="48.95621" lon="0.22922">
        <ele>181</ele>
        <time>2024-03-20T15:58:25Z</time>
      </trkpt>
      <trkpt lat="48.95618" lon="0.22927">
        <ele>181.2</ele>
        <time>2024-03-20T15:58:26Z</time>
      </trkpt>
      <trkpt lat="48.95614" lon="0.22932">
        <ele>181.4</ele>
        <time>2024-03-20T15:58:27Z</time>
      </trkpt>
      <trkpt lat="48.9561" lon="0.22937">
        <ele>181.4</ele>
        <time>2024-03-20T15:58:28Z</time>
      </trkpt>
      <trkpt lat="48.95606" lon="0.22942">
        <ele>181.4</ele>
        <time>2024-03-20T15:58:29Z</time>
      </trkpt>
      <trkpt lat="48.95602" lon="0.22947">
        <ele>181.6</ele>
        <time>2024-03-20T15:58:30Z</time>
      </trkpt>
      <trkpt lat="48.95598" lon="0.22952">
        <ele>181.6</ele>
        <time>2024-03-20T15:58:31Z</time>
      </trkpt>
      <trkpt lat="48.95594" lon="0.22957">
        <ele>181.6</ele>
        <time>2024-03-20T15:58:32Z</time>
      </trkpt>
      <trkpt lat="48.9559" lon="0.22962">
        <ele>181.6</ele>
        <time>2024-03-20T15:58:33Z</time>
      </trkpt>
      <trkpt lat="48.95586" lon="0.22967">
        <ele>181.6</ele>
        <time>2024-03-20T15:58:34Z</time>
      </trkpt>
      <trkpt lat="48.95581" lon="0.22973">
        <ele>181.8</ele>
        <time>2024-03-20T15:58:35Z</time>
      </trkpt>
      <trkpt lat="48.95577" lon="0.22977">
        <ele>181.8</ele>
        <time>2024-03-20T15:58:36Z</time>
      </trkpt>
      <trkpt lat="48.95573" lon="0.22982">
        <ele>182</ele>
        <time>2024-03-20T15:58:37Z</time>
      </trkpt>
      <trkpt lat="48.95568" lon="0.22987">
        <ele>182</ele>
        <time>2024-03-20T15:58:38Z</time>
      </trkpt>
      <trkpt lat="48.95564" lon="0.22992">
        <ele>182</ele>
        <time>2024-03-20T15:58:39Z</time>
      </trkpt>
      <trkpt lat="48.95559" lon="0.22998">
        <ele>182</ele>
        <time>2024-03-20T15:58:40Z</time>
      </trkpt>
      <trkpt lat="48.95554" lon="0.23004">
        <ele>182</ele>
        <time>2024-03-20T15:58:41Z</time>
      </trkpt>
      <trkpt lat="48.9555" lon="0.23009">
        <ele>182.2</ele>
        <time>2024-03-20T15:58:42Z</time>
      </trkpt>
      <trkpt lat="48.95546" lon="0.23015">
        <ele>182.2</ele>
        <time>2024-03-20T15:58:43Z</time>
      </trkpt>
      <trkpt lat="48.95541" lon="0.2302">
        <ele>182.2</ele>
        <time>2024-03-20T15:58:44Z</time>
      </trkpt>
      <trkpt lat="48.95536" lon="0.23026">
        <ele>182.2</ele>
        <time>2024-03-20T15:58:45Z</time>
      </trkpt>
      <trkpt lat="48.95532" lon="0.23032">
        <ele>182.2</ele>
        <time>2024-03-20T15:58:46Z</time>
      </trkpt>
      <trkpt lat="48.95527" lon="0.23038">
        <ele>182.2</ele>
        <time>2024-03-20T15:58:47Z</time>
      </trkpt>
      <trkpt lat="48.95523" lon="0.23043">
        <ele>182.2</ele>
        <time>2024-03-20T15:58:48Z</time>
      </trkpt>
      <trkpt lat="48.95518" lon="0.23048">
        <ele>182.2</ele>
        <time>2024-03-20T15:58:49Z</time>
      </trkpt>
      <trkpt lat="48.95514" lon="0.23053">
        <ele>182.4</ele>
        <time>2024-03-20T15:58:50Z</time>
      </trkpt>
      <trkpt lat="48.95509" lon="0.23058">
        <ele>182.4</ele>
        <time>2024-03-20T15:58:51Z</time>
      </trkpt>
      <trkpt lat="48.95505" lon="0.23063">
        <ele>182.6</ele>
        <time>2024-03-20T15:58:52Z</time>
      </trkpt>
      <trkpt lat="48.95501" lon="0.23068">
        <ele>182.6</ele>
        <time>2024-03-20T15:58:53Z</time>
      </trkpt>
      <trkpt lat="48.95496" lon="0.23074">
        <ele>182.8</ele>
        <time>2024-03-20T15:58:54Z</time>
      </trkpt>
      <trkpt lat="48.95492" lon="0.23079">
        <ele>182.8</ele>
        <time>2024-03-20T15:58:55Z</time>
      </trkpt>
      <trkpt lat="48.95489" lon="0.23084">
        <ele>182.8</ele>
        <time>2024-03-20T15:58:56Z</time>
      </trkpt>
      <trkpt lat="48.95485" lon="0.2309">
        <ele>182.8</ele>
        <time>2024-03-20T15:58:57Z</time>
      </trkpt>
      <trkpt lat="48.95481" lon="0.23095">
        <ele>183</ele>
        <time>2024-03-20T15:58:58Z</time>
      </trkpt>
      <trkpt lat="48.95478" lon="0.23101">
        <ele>183</ele>
        <time>2024-03-20T15:58:59Z</time>
      </trkpt>
      <trkpt lat="48.95475" lon="0.23107">
        <ele>183</ele>
        <time>2024-03-20T15:59:00Z</time>
      </trkpt>
      <trkpt lat="48.95472" lon="0.23113">
        <ele>183.2</ele>
        <time>2024-03-20T15:59:01Z</time>
      </trkpt>
      <trkpt lat="48.9547" lon="0.2312">
        <ele>183.4</ele>
        <time>2024-03-20T15:59:02Z</time>
      </trkpt>
      <trkpt lat="48.95468" lon="0.23126">
        <ele>183.4</ele>
        <time>2024-03-20T15:59:03Z</time>
      </trkpt>
      <trkpt lat="48.95467" lon="0.23132">
        <ele>183.6</ele>
        <time>2024-03-20T15:59:04Z</time>
      </trkpt>
      <trkpt lat="48.95466" lon="0.23138">
        <ele>183.6</ele>
        <time>2024-03-20T15:59:05Z</time>
      </trkpt>
      <trkpt lat="48.95466" lon="0.23143">
        <ele>183.8</ele>
        <time>2024-03-20T15:59:06Z</time>
      </trkpt>
      <trkpt lat="48.95465" lon="0.23149">
        <ele>183.6</ele>
        <time>2024-03-20T15:59:07Z</time>
      </trkpt>
      <trkpt lat="48.95465" lon="0.23154">
        <ele>183.8</ele>
        <time>2024-03-20T15:59:08Z</time>
      </trkpt>
      <trkpt lat="48.95464" lon="0.23159">
        <ele>184</ele>
        <time>2024-03-20T15:59:09Z</time>
      </trkpt>
      <trkpt lat="48.95464" lon="0.23163">
        <ele>184.2</ele>
        <time>2024-03-20T15:59:10Z</time>
      </trkpt>
      <trkpt lat="48.95464" lon="0.23168">
        <ele>184.4</ele>
        <time>2024-03-20T15:59:11Z</time>
      </trkpt>
      <trkpt lat="48.95465" lon="0.23172">
        <ele>184.4</ele>
        <time>2024-03-20T15:59:12Z</time>
      </trkpt>
      <trkpt lat="48.95465" lon="0.23177">
        <ele>185</ele>
        <time>2024-03-20T15:59:13Z</time>
      </trkpt>
      <trkpt lat="48.95465" lon="0.23181">
        <ele>185.4</ele>
        <time>2024-03-20T15:59:14Z</time>
      </trkpt>
      <trkpt lat="48.95466" lon="0.23185">
        <ele>185.8</ele>
        <time>2024-03-20T15:59:15Z</time>
      </trkpt>
      <trkpt lat="48.95466" lon="0.23188">
        <ele>186</ele>
        <time>2024-03-20T15:59:16Z</time>
      </trkpt>
      <trkpt lat="48.95467" lon="0.23192">
        <ele>186</ele>
        <time>2024-03-20T15:59:17Z</time>
      </trkpt>
      <trkpt lat="48.95467" lon="0.23196">
        <ele>186.4</ele>
        <time>2024-03-20T15:59:18Z</time>
      </trkpt>
      <trkpt lat="48.95467" lon="0.232">
        <ele>186.8</ele>
        <time>2024-03-20T15:59:19Z</time>
      </trkpt>
      <trkpt lat="48.95467" lon="0.23204">
        <ele>187.4</ele>
        <time>2024-03-20T15:59:20Z</time>
      </trkpt>
      <trkpt lat="48.95468" lon="0.23208">
        <ele>187.8</ele>
        <time>2024-03-20T15:59:21Z</time>
      </trkpt>
      <trkpt lat="48.95468" lon="0.23213">
        <ele>188</ele>
        <time>2024-03-20T15:59:22Z</time>
      </trkpt>
      <trkpt lat="48.95469" lon="0.23217">
        <ele>188.4</ele>
        <time>2024-03-20T15:59:23Z</time>
      </trkpt>
      <trkpt lat="48.95469" lon="0.2322">
        <ele>188.6</ele>
        <time>2024-03-20T15:59:24Z</time>
      </trkpt>
      <trkpt lat="48.9547" lon="0.23224">
        <ele>188.8</ele>
        <time>2024-03-20T15:59:25Z</time>
      </trkpt>
      <trkpt lat="48.9547" lon="0.23227">
        <ele>189</ele>
        <time>2024-03-20T15:59:26Z</time>
      </trkpt>
      <trkpt lat="48.9547" lon="0.23231">
        <ele>189.4</ele>
        <time>2024-03-20T15:59:27Z</time>
      </trkpt>
      <trkpt lat="48.95471" lon="0.23235">
        <ele>189.6</ele>
        <time>2024-03-20T15:59:28Z</time>
      </trkpt>
      <trkpt lat="48.95471" lon="0.23239">
        <ele>190</ele>
        <time>2024-03-20T15:59:29Z</time>
      </trkpt>
      <trkpt lat="48.9547" lon="0.23241">
        <ele>190.2</ele>
        <time>2024-03-20T15:59:30Z</time>
      </trkpt>
      <trkpt lat="48.9547" lon="0.23245">
        <ele>190.6</ele>
        <time>2024-03-20T15:59:31Z</time>
      </trkpt>
      <trkpt lat="48.9547" lon="0.23248">
        <ele>190.8</ele>
        <time>2024-03-20T15:59:32Z</time>
      </trkpt>
      <trkpt lat="48.95469" lon="0.23252">
        <ele>190.8</ele>
        <time>2024-03-20T15:59:33Z</time>
      </trkpt>
      <trkpt lat="48.95469" lon="0.23256">
        <ele>191.2</ele>
        <time>2024-03-20T15:59:34Z</time>
      </trkpt>
      <trkpt lat="48.95469" lon="0.23261">
        <ele>191.4</ele>
        <time>2024-03-20T15:59:35Z</time>
      </trkpt>
      <trkpt lat="48.95468" lon="0.23265">
        <ele>191.8</ele>
        <time>2024-03-20T15:59:36Z</time>
      </trkpt>
      <trkpt lat="48.95468" lon="0.2327">
        <ele>192</ele>
        <time>2024-03-20T15:59:37Z</time>
      </trkpt>
      <trkpt lat="48.95468" lon="0.23274">
        <ele>192.4</ele>
        <time>2024-03-20T15:59:38Z</time>
      </trkpt>
      <trkpt lat="48.95468" lon="0.23278">
        <ele>192.4</ele>
        <time>2024-03-20T15:59:39Z</time>
      </trkpt>
      <trkpt lat="48.95468" lon="0.23281">
        <ele>192.8</ele>
        <time>2024-03-20T15:59:40Z</time>
      </trkpt>
      <trkpt lat="48.95468" lon="0.23285">
        <ele>193</ele>
        <time>2024-03-20T15:59:41Z</time>
      </trkpt>
      <trkpt lat="48.95468" lon="0.23289">
        <ele>193.2</ele>
        <time>2024-03-20T15:59:42Z</time>
      </trkpt>
      <trkpt lat="48.95468" lon="0.23292">
        <ele>193.4</ele>
        <time>2024-03-20T15:59:43Z</time>
      </trkpt>
      <trkpt lat="48.95468" lon="0.23296">
        <ele>193.8</ele>
        <time>2024-03-20T15:59:44Z</time>
      </trkpt>
      <trkpt lat="48.95468" lon="0.233">
        <ele>194</ele>
        <time>2024-03-20T15:59:45Z</time>
      </trkpt>
      <trkpt lat="48.95467" lon="0.23305">
        <ele>194.2</ele>
        <time>2024-03-20T15:59:46Z</time>
      </trkpt>
      <trkpt lat="48.95466" lon="0.23309">
        <ele>194.6</ele>
        <time>2024-03-20T15:59:47Z</time>
      </trkpt>
      <trkpt lat="48.95466" lon="0.23313">
        <ele>194.8</ele>
        <time>2024-03-20T15:59:48Z</time>
      </trkpt>
      <trkpt lat="48.95465" lon="0.23317">
        <ele>195.2</ele>
        <time>2024-03-20T15:59:49Z</time>
      </trkpt>
      <trkpt lat="48.95464" lon="0.23321">
        <ele>195.4</ele>
        <time>2024-03-20T15:59:50Z</time>
      </trkpt>
      <trkpt lat="48.95463" lon="0.23325">
        <ele>195.8</ele>
        <time>2024-03-20T15:59:51Z</time>
      </trkpt>
      <trkpt lat="48.95463" lon="0.23329">
        <ele>196</ele>
        <time>2024-03-20T15:59:52Z</time>
      </trkpt>
      <trkpt lat="48.95462" lon="0.23333">
        <ele>196.2</ele>
        <time>2024-03-20T15:59:53Z</time>
      </trkpt>
      <trkpt lat="48.9546" lon="0.23337">
        <ele>196.6</ele>
        <time>2024-03-20T15:59:54Z</time>
      </trkpt>
      <trkpt lat="48.95459" lon="0.2334">
        <ele>196.8</ele>
        <time>2024-03-20T15:59:55Z</time>
      </trkpt>
      <trkpt lat="48.95458" lon="0.23344">
        <ele>197.2</ele>
        <time>2024-03-20T15:59:56Z</time>
      </trkpt>
      <trkpt lat="48.95458" lon="0.23348">
        <ele>197.4</ele>
        <time>2024-03-20T15:59:57Z</time>
      </trkpt>
      <trkpt lat="48.95457" lon="0.23353">
        <ele>197.8</ele>
        <time>2024-03-20T15:59:58Z</time>
      </trkpt>
      <trkpt lat="48.95456" lon="0.23357">
        <ele>198</ele>
        <time>2024-03-20T15:59:59Z</time>
      </trkpt>
      <trkpt lat="48.95456" lon="0.2336">
        <ele>198</ele>
        <time>2024-03-20T16:00:00Z</time>
      </trkpt>
      <trkpt lat="48.95455" lon="0.23364">
        <ele>198</ele>
        <time>2024-03-20T16:00:01Z</time>
      </trkpt>
      <trkpt lat="48.95453" lon="0.23368">
        <ele>198.4</ele>
        <time>2024-03-20T16:00:02Z</time>
      </trkpt>
      <trkpt lat="48.95452" lon="0.23372">
        <ele>198.6</ele>
        <time>2024-03-20T16:00:03Z</time>
      </trkpt>
      <trkpt lat="48.95451" lon="0.23375">
        <ele>199</ele>
        <time>2024-03-20T16:00:04Z</time>
      </trkpt>
      <trkpt lat="48.95451" lon="0.23379">
        <ele>199.2</ele>
        <time>2024-03-20T16:00:05Z</time>
      </trkpt>
      <trkpt lat="48.95451" lon="0.23383">
        <ele>199.4</ele>
        <time>2024-03-20T16:00:06Z</time>
      </trkpt>
      <trkpt lat="48.9545" lon="0.23387">
        <ele>199.6</ele>
        <time>2024-03-20T16:00:07Z</time>
      </trkpt>
      <trkpt lat="48.9545" lon="0.23391">
        <ele>200</ele>
        <time>2024-03-20T16:00:08Z</time>
      </trkpt>
      <trkpt lat="48.95449" lon="0.23395">
        <ele>200.2</ele>
        <time>2024-03-20T16:00:09Z</time>
      </trkpt>
      <trkpt lat="48.95448" lon="0.23399">
        <ele>200.4</ele>
        <time>2024-03-20T16:00:10Z</time>
      </trkpt>
      <trkpt lat="48.95448" lon="0.23403">
        <ele>200.6</ele>
        <time>2024-03-20T16:00:11Z</time>
      </trkpt>
      <trkpt lat="48.95446" lon="0.23408">
        <ele>201</ele>
        <time>2024-03-20T16:00:12Z</time>
      </trkpt>
      <trkpt lat="48.95445" lon="0.23412">
        <ele>201.2</ele>
        <time>2024-03-20T16:00:13Z</time>
      </trkpt>
      <trkpt lat="48.95444" lon="0.23417">
        <ele>201.4</ele>
        <time>2024-03-20T16:00:14Z</time>
      </trkpt>
      <trkpt lat="48.95442" lon="0.23421">
        <ele>201.6</ele>
        <time>2024-03-20T16:00:15Z</time>
      </trkpt>
      <trkpt lat="48.95441" lon="0.23426">
        <ele>202</ele>
        <time>2024-03-20T16:00:16Z</time>
      </trkpt>
      <trkpt lat="48.9544" lon="0.2343">
        <ele>202.2</ele>
        <time>2024-03-20T16:00:17Z</time>
      </trkpt>
      <trkpt lat="48.95438" lon="0.23435">
        <ele>202.6</ele>
        <time>2024-03-20T16:00:18Z</time>
      </trkpt>
      <trkpt lat="48.95435" lon="0.23439">
        <ele>202.8</ele>
        <time>2024-03-20T16:00:19Z</time>
      </trkpt>
      <trkpt lat="48.95432" lon="0.23443">
        <ele>203.2</ele>
        <time>2024-03-20T16:00:20Z</time>
      </trkpt>
      <trkpt lat="48.9543" lon="0.23447">
        <ele>203.4</ele>
        <time>2024-03-20T16:00:21Z</time>
      </trkpt>
      <trkpt lat="48.95427" lon="0.23451">
        <ele>203.4</ele>
        <time>2024-03-20T16:00:22Z</time>
      </trkpt>
      <trkpt lat="48.95424" lon="0.23454">
        <ele>203.6</ele>
        <time>2024-03-20T16:00:23Z</time>
      </trkpt>
      <trkpt lat="48.95421" lon="0.23458">
        <ele>203.8</ele>
        <time>2024-03-20T16:00:24Z</time>
      </trkpt>
      <trkpt lat="48.95418" lon="0.23462">
        <ele>204</ele>
        <time>2024-03-20T16:00:25Z</time>
      </trkpt>
      <trkpt lat="48.95415" lon="0.23466">
        <ele>204.2</ele>
        <time>2024-03-20T16:00:26Z</time>
      </trkpt>
      <trkpt lat="48.95412" lon="0.23471">
        <ele>204.4</ele>
        <time>2024-03-20T16:00:27Z</time>
      </trkpt>
      <trkpt lat="48.9541" lon="0.23475">
        <ele>204.6</ele>
        <time>2024-03-20T16:00:28Z</time>
      </trkpt>
      <trkpt lat="48.95407" lon="0.23479">
        <ele>204.8</ele>
        <time>2024-03-20T16:00:29Z</time>
      </trkpt>
      <trkpt lat="48.95405" lon="0.23484">
        <ele>205</ele>
        <time>2024-03-20T16:00:30Z</time>
      </trkpt>
      <trkpt lat="48.95403" lon="0.23488">
        <ele>205</ele>
        <time>2024-03-20T16:00:31Z</time>
      </trkpt>
      <trkpt lat="48.95402" lon="0.23493">
        <ele>205</ele>
        <time>2024-03-20T16:00:32Z</time>
      </trkpt>
      <trkpt lat="48.95401" lon="0.23498">
        <ele>205.2</ele>
        <time>2024-03-20T16:00:33Z</time>
      </trkpt>
      <trkpt lat="48.954" lon="0.23503">
        <ele>205.2</ele>
        <time>2024-03-20T16:00:34Z</time>
      </trkpt>
      <trkpt lat="48.954" lon="0.23508">
        <ele>205.2</ele>
        <time>2024-03-20T16:00:35Z</time>
      </trkpt>
      <trkpt lat="48.954" lon="0.23514">
        <ele>205.4</ele>
        <time>2024-03-20T16:00:36Z</time>
      </trkpt>
      <trkpt lat="48.954" lon="0.23519">
        <ele>205.4</ele>
        <time>2024-03-20T16:00:37Z</time>
      </trkpt>
      <trkpt lat="48.954" lon="0.23524">
        <ele>205.4</ele>
        <time>2024-03-20T16:00:38Z</time>
      </trkpt>
      <trkpt lat="48.954" lon="0.23529">
        <ele>205.6</ele>
        <time>2024-03-20T16:00:39Z</time>
      </trkpt>
      <trkpt lat="48.954" lon="0.23535">
        <ele>205.8</ele>
        <time>2024-03-20T16:00:40Z</time>
      </trkpt>
      <trkpt lat="48.95399" lon="0.2354">
        <ele>205.8</ele>
        <time>2024-03-20T16:00:41Z</time>
      </trkpt>
      <trkpt lat="48.95399" lon="0.23546">
        <ele>206</ele>
        <time>2024-03-20T16:00:42Z</time>
      </trkpt>
      <trkpt lat="48.95399" lon="0.23551">
        <ele>206</ele>
        <time>2024-03-20T16:00:43Z</time>
      </trkpt>
      <trkpt lat="48.95398" lon="0.23556">
        <ele>206</ele>
        <time>2024-03-20T16:00:44Z</time>
      </trkpt>
      <trkpt lat="48.95396" lon="0.23561">
        <ele>206.2</ele>
        <time>2024-03-20T16:00:45Z</time>
      </trkpt>
      <trkpt lat="48.95394" lon="0.23566">
        <ele>206.4</ele>
        <time>2024-03-20T16:00:46Z</time>
      </trkpt>
      <trkpt lat="48.95392" lon="0.2357">
        <ele>206.4</ele>
        <time>2024-03-20T16:00:47Z</time>
      </trkpt>
      <trkpt lat="48.9539" lon="0.23575">
        <ele>206.6</ele>
        <time>2024-03-20T16:00:48Z</time>
      </trkpt>
      <trkpt lat="48.95387" lon="0.23579">
        <ele>206.6</ele>
        <time>2024-03-20T16:00:49Z</time>
      </trkpt>
      <trkpt lat="48.95385" lon="0.23583">
        <ele>206.6</ele>
        <time>2024-03-20T16:00:50Z</time>
      </trkpt>
      <trkpt lat="48.95382" lon="0.23587">
        <ele>206.8</ele>
        <time>2024-03-20T16:00:51Z</time>
      </trkpt>
      <trkpt lat="48.95379" lon="0.23591">
        <ele>207</ele>
        <time>2024-03-20T16:00:52Z</time>
      </trkpt>
      <trkpt lat="48.95376" lon="0.23595">
        <ele>207.2</ele>
        <time>2024-03-20T16:00:53Z</time>
      </trkpt>
      <trkpt lat="48.95373" lon="0.23598">
        <ele>207.2</ele>
        <time>2024-03-20T16:00:54Z</time>
      </trkpt>
      <trkpt lat="48.9537" lon="0.23602">
        <ele>207.2</ele>
        <time>2024-03-20T16:00:55Z</time>
      </trkpt>
      <trkpt lat="48.95368" lon="0.23606">
        <ele>207.2</ele>
        <time>2024-03-20T16:00:56Z</time>
      </trkpt>
      <trkpt lat="48.95365" lon="0.23611">
        <ele>207.4</ele>
        <time>2024-03-20T16:00:57Z</time>
      </trkpt>
      <trkpt lat="48.95362" lon="0.23615">
        <ele>207.4</ele>
        <time>2024-03-20T16:00:58Z</time>
      </trkpt>
      <trkpt lat="48.95359" lon="0.23619">
        <ele>207.4</ele>
        <time>2024-03-20T16:00:59Z</time>
      </trkpt>
      <trkpt lat="48.95356" lon="0.23623">
        <ele>207.4</ele>
        <time>2024-03-20T16:01:00Z</time>
      </trkpt>
      <trkpt lat="48.95354" lon="0.23627">
        <ele>207.4</ele>
        <time>2024-03-20T16:01:01Z</time>
      </trkpt>
      <trkpt lat="48.95351" lon="0.23632">
        <ele>207.6</ele>
        <time>2024-03-20T16:01:02Z</time>
      </trkpt>
      <trkpt lat="48.95348" lon="0.23635">
        <ele>207.6</ele>
        <time>2024-03-20T16:01:03Z</time>
      </trkpt>
      <trkpt lat="48.95345" lon="0.23639">
        <ele>207.6</ele>
        <time>2024-03-20T16:01:04Z</time>
      </trkpt>
      <trkpt lat="48.95342" lon="0.23643">
        <ele>207.6</ele>
        <time>2024-03-20T16:01:05Z</time>
      </trkpt>
      <trkpt lat="48.95339" lon="0.23647">
        <ele>207.6</ele>
        <time>2024-03-20T16:01:06Z</time>
      </trkpt>
      <trkpt lat="48.95336" lon="0.23652">
        <ele>207.8</ele>
        <time>2024-03-20T16:01:07Z</time>
      </trkpt>
      <trkpt lat="48.95333" lon="0.23656">
        <ele>207.8</ele>
        <time>2024-03-20T16:01:08Z</time>
      </trkpt>
      <trkpt lat="48.9533" lon="0.2366">
        <ele>207.8</ele>
        <time>2024-03-20T16:01:09Z</time>
      </trkpt>
      <trkpt lat="48.95327" lon="0.23665">
        <ele>208</ele>
        <time>2024-03-20T16:01:10Z</time>
      </trkpt>
      <trkpt lat="48.95324" lon="0.2367">
        <ele>208</ele>
        <time>2024-03-20T16:01:11Z</time>
      </trkpt>
      <trkpt lat="48.9532" lon="0.23675">
        <ele>208</ele>
        <time>2024-03-20T16:01:12Z</time>
      </trkpt>
      <trkpt lat="48.95317" lon="0.2368">
        <ele>208</ele>
        <time>2024-03-20T16:01:13Z</time>
      </trkpt>
      <trkpt lat="48.95314" lon="0.23685">
        <ele>208</ele>
        <time>2024-03-20T16:01:14Z</time>
      </trkpt>
      <trkpt lat="48.95311" lon="0.2369">
        <ele>208</ele>
        <time>2024-03-20T16:01:15Z</time>
      </trkpt>
      <trkpt lat="48.95308" lon="0.23696">
        <ele>208</ele>
        <time>2024-03-20T16:01:16Z</time>
      </trkpt>
      <trkpt lat="48.95305" lon="0.23701">
        <ele>208</ele>
        <time>2024-03-20T16:01:17Z</time>
      </trkpt>
      <trkpt lat="48.95303" lon="0.23706">
        <ele>208</ele>
        <time>2024-03-20T16:01:18Z</time>
      </trkpt>
      <trkpt lat="48.953" lon="0.23711">
        <ele>208.2</ele>
        <time>2024-03-20T16:01:19Z</time>
      </trkpt>
      <trkpt lat="48.95298" lon="0.23717">
        <ele>208.2</ele>
        <time>2024-03-20T16:01:20Z</time>
      </trkpt>
      <trkpt lat="48.95296" lon="0.23722">
        <ele>208.2</ele>
        <time>2024-03-20T16:01:21Z</time>
      </trkpt>
      <trkpt lat="48.95294" lon="0.23728">
        <ele>208.2</ele>
        <time>2024-03-20T16:01:22Z</time>
      </trkpt>
      <trkpt lat="48.95292" lon="0.23733">
        <ele>208</ele>
        <time>2024-03-20T16:01:23Z</time>
      </trkpt>
      <trkpt lat="48.95289" lon="0.23738">
        <ele>208</ele>
        <time>2024-03-20T16:01:24Z</time>
      </trkpt>
      <trkpt lat="48.95287" lon="0.23743">
        <ele>208</ele>
        <time>2024-03-20T16:01:25Z</time>
      </trkpt>
      <trkpt lat="48.95285" lon="0.23748">
        <ele>208</ele>
        <time>2024-03-20T16:01:26Z</time>
      </trkpt>
      <trkpt lat="48.95283" lon="0.23753">
        <ele>208</ele>
        <time>2024-03-20T16:01:27Z</time>
      </trkpt>
      <trkpt lat="48.95281" lon="0.23758">
        <ele>208</ele>
        <time>2024-03-20T16:01:28Z</time>
      </trkpt>
      <trkpt lat="48.95279" lon="0.23764">
        <ele>208</ele>
        <time>2024-03-20T16:01:29Z</time>
      </trkpt>
      <trkpt lat="48.95277" lon="0.23769">
        <ele>208</ele>
        <time>2024-03-20T16:01:30Z</time>
      </trkpt>
      <trkpt lat="48.95275" lon="0.23775">
        <ele>208</ele>
        <time>2024-03-20T16:01:31Z</time>
      </trkpt>
      <trkpt lat="48.95273" lon="0.2378">
        <ele>208</ele>
        <time>2024-03-20T16:01:32Z</time>
      </trkpt>
      <trkpt lat="48.95271" lon="0.23785">
        <ele>208</ele>
        <time>2024-03-20T16:01:33Z</time>
      </trkpt>
      <trkpt lat="48.95269" lon="0.23791">
        <ele>208</ele>
        <time>2024-03-20T16:01:34Z</time>
      </trkpt>
      <trkpt lat="48.95266" lon="0.23796">
        <ele>208</ele>
        <time>2024-03-20T16:01:35Z</time>
      </trkpt>
      <trkpt lat="48.95264" lon="0.23802">
        <ele>208</ele>
        <time>2024-03-20T16:01:36Z</time>
      </trkpt>
      <trkpt lat="48.95262" lon="0.23807">
        <ele>208</ele>
        <time>2024-03-20T16:01:37Z</time>
      </trkpt>
      <trkpt lat="48.9526" lon="0.23813">
        <ele>208</ele>
        <time>2024-03-20T16:01:38Z</time>
      </trkpt>
      <trkpt lat="48.95258" lon="0.23818">
        <ele>208</ele>
        <time>2024-03-20T16:01:39Z</time>
      </trkpt>
      <trkpt lat="48.95256" lon="0.23824">
        <ele>208</ele>
        <time>2024-03-20T16:01:40Z</time>
      </trkpt>
      <trkpt lat="48.95254" lon="0.23829">
        <ele>208</ele>
        <time>2024-03-20T16:01:41Z</time>
      </trkpt>
      <trkpt lat="48.95252" lon="0.23835">
        <ele>208</ele>
        <time>2024-03-20T16:01:42Z</time>
      </trkpt>
      <trkpt lat="48.9525" lon="0.23841">
        <ele>208</ele>
        <time>2024-03-20T16:01:43Z</time>
      </trkpt>
      <trkpt lat="48.95248" lon="0.23846">
        <ele>208</ele>
        <time>2024-03-20T16:01:44Z</time>
      </trkpt>
      <trkpt lat="48.95245" lon="0.23852">
        <ele>208</ele>
        <time>2024-03-20T16:01:45Z</time>
      </trkpt>
      <trkpt lat="48.95243" lon="0.23857">
        <ele>208</ele>
        <time>2024-03-20T16:01:46Z</time>
      </trkpt>
      <trkpt lat="48.95241" lon="0.23863">
        <ele>208</ele>
        <time>2024-03-20T16:01:47Z</time>
      </trkpt>
      <trkpt lat="48.95238" lon="0.23868">
        <ele>208</ele>
        <time>2024-03-20T16:01:48Z</time>
      </trkpt>
      <trkpt lat="48.95235" lon="0.23872">
        <ele>207.8</ele>
        <time>2024-03-20T16:01:49Z</time>
      </trkpt>
      <trkpt lat="48.95233" lon="0.23877">
        <ele>207.8</ele>
        <time>2024-03-20T16:01:50Z</time>
      </trkpt>
      <trkpt lat="48.95231" lon="0.23882">
        <ele>207.8</ele>
        <time>2024-03-20T16:01:51Z</time>
      </trkpt>
      <trkpt lat="48.95228" lon="0.23886">
        <ele>207.8</ele>
        <time>2024-03-20T16:01:52Z</time>
      </trkpt>
      <trkpt lat="48.95226" lon="0.23889">
        <ele>207.8</ele>
        <time>2024-03-20T16:01:53Z</time>
      </trkpt>
      <trkpt lat="48.95223" lon="0.23892">
        <ele>207.8</ele>
        <time>2024-03-20T16:01:54Z</time>
      </trkpt>
      <trkpt lat="48.95221" lon="0.23896">
        <ele>207.8</ele>
        <time>2024-03-20T16:01:55Z</time>
      </trkpt>
      <trkpt lat="48.95218" lon="0.23899">
        <ele>207.8</ele>
        <time>2024-03-20T16:01:56Z</time>
      </trkpt>
      <trkpt lat="48.95216" lon="0.23903">
        <ele>207.8</ele>
        <time>2024-03-20T16:01:57Z</time>
      </trkpt>
      <trkpt lat="48.95214" lon="0.23906">
        <ele>207.8</ele>
        <time>2024-03-20T16:01:58Z</time>
      </trkpt>
      <trkpt lat="48.95212" lon="0.23909">
        <ele>207.8</ele>
        <time>2024-03-20T16:01:59Z</time>
      </trkpt>
      <trkpt lat="48.9521" lon="0.23912">
        <ele>207.8</ele>
        <time>2024-03-20T16:02:00Z</time>
      </trkpt>
      <trkpt lat="48.95208" lon="0.23914">
        <ele>207.8</ele>
        <time>2024-03-20T16:02:01Z</time>
      </trkpt>
      <trkpt lat="48.95206" lon="0.23917">
        <ele>207.8</ele>
        <time>2024-03-20T16:02:02Z</time>
      </trkpt>
      <trkpt lat="48.95204" lon="0.23919">
        <ele>207.8</ele>
        <time>2024-03-20T16:02:03Z</time>
      </trkpt>
      <trkpt lat="48.95202" lon="0.23921">
        <ele>208</ele>
        <time>2024-03-20T16:02:04Z</time>
      </trkpt>
      <trkpt lat="48.95201" lon="0.23923">
        <ele>208</ele>
        <time>2024-03-20T16:02:05Z</time>
      </trkpt>
      <trkpt lat="48.952" lon="0.23925">
        <ele>208</ele>
        <time>2024-03-20T16:02:06Z</time>
      </trkpt>
      <trkpt lat="48.952" lon="0.23925">
        <ele>208</ele>
        <time>2024-03-20T16:02:07Z</time>
      </trkpt>
      <trkpt lat="48.952" lon="0.23925">
        <ele>208</ele>
        <time>2024-03-20T16:02:08Z</time>
      </trkpt>
      <trkpt lat="48.95195" lon="0.23927">
        <ele>208</ele>
        <time>2024-03-20T16:03:32Z</time>
      </trkpt>
      <trkpt lat="48.95194" lon="0.23929">
        <ele>208</ele>
        <time>2024-03-20T16:03:33Z</time>
      </trkpt>
      <trkpt lat="48.95192" lon="0.2393">
        <ele>208</ele>
        <time>2024-03-20T16:03:34Z</time>
      </trkpt>
      <trkpt lat="48.9519" lon="0.23931">
        <ele>207.8</ele>
        <time>2024-03-20T16:03:35Z</time>
      </trkpt>
      <trkpt lat="48.95187" lon="0.23933">
        <ele>207.8</ele>
        <time>2024-03-20T16:03:36Z</time>
      </trkpt>
      <trkpt lat="48.95185" lon="0.23936">
        <ele>207.8</ele>
        <time>2024-03-20T16:03:37Z</time>
      </trkpt>
      <trkpt lat="48.95182" lon="0.23938">
        <ele>207.8</ele>
        <time>2024-03-20T16:03:38Z</time>
      </trkpt>
      <trkpt lat="48.95179" lon="0.23941">
        <ele>207.8</ele>
        <time>2024-03-20T16:03:39Z</time>
      </trkpt>
      <trkpt lat="48.95176" lon="0.23944">
        <ele>207.8</ele>
        <time>2024-03-20T16:03:40Z</time>
      </trkpt>
      <trkpt lat="48.95173" lon="0.23947">
        <ele>207.8</ele>
        <time>2024-03-20T16:03:41Z</time>
      </trkpt>
      <trkpt lat="48.9517" lon="0.23949">
        <ele>207.8</ele>
        <time>2024-03-20T16:03:42Z</time>
      </trkpt>
      <trkpt lat="48.95167" lon="0.23951">
        <ele>207.8</ele>
        <time>2024-03-20T16:03:43Z</time>
      </trkpt>
      <trkpt lat="48.95164" lon="0.23954">
        <ele>207.8</ele>
        <time>2024-03-20T16:03:44Z</time>
      </trkpt>
      <trkpt lat="48.9516" lon="0.23956">
        <ele>208</ele>
        <time>2024-03-20T16:03:45Z</time>
      </trkpt>
      <trkpt lat="48.95156" lon="0.23958">
        <ele>208</ele>
        <time>2024-03-20T16:03:46Z</time>
      </trkpt>
      <trkpt lat="48.95151" lon="0.23961">
        <ele>208</ele>
        <time>2024-03-20T16:03:47Z</time>
      </trkpt>
      <trkpt lat="48.95147" lon="0.23964">
        <ele>208</ele>
        <time>2024-03-20T16:03:48Z</time>
      </trkpt>
      <trkpt lat="48.95142" lon="0.23967">
        <ele>208.2</ele>
        <time>2024-03-20T16:03:49Z</time>
      </trkpt>
      <trkpt lat="48.95137" lon="0.23969">
        <ele>208.2</ele>
        <time>2024-03-20T16:03:50Z</time>
      </trkpt>
      <trkpt lat="48.95132" lon="0.23972">
        <ele>208.2</ele>
        <time>2024-03-20T16:03:51Z</time>
      </trkpt>
      <trkpt lat="48.95126" lon="0.23974">
        <ele>208.2</ele>
        <time>2024-03-20T16:03:52Z</time>
      </trkpt>
      <trkpt lat="48.95121" lon="0.23976">
        <ele>208.2</ele>
        <time>2024-03-20T16:03:53Z</time>
      </trkpt>
      <trkpt lat="48.95116" lon="0.23978">
        <ele>208.4</ele>
        <time>2024-03-20T16:03:54Z</time>
      </trkpt>
      <trkpt lat="48.9511" lon="0.2398">
        <ele>208.4</ele>
        <time>2024-03-20T16:03:55Z</time>
      </trkpt>
      <trkpt lat="48.95104" lon="0.23981">
        <ele>208.4</ele>
        <time>2024-03-20T16:03:56Z</time>
      </trkpt>
      <trkpt lat="48.95098" lon="0.23983">
        <ele>208.4</ele>
        <time>2024-03-20T16:03:57Z</time>
      </trkpt>
      <trkpt lat="48.95093" lon="0.23984">
        <ele>208.4</ele>
        <time>2024-03-20T16:03:58Z</time>
      </trkpt>
      <trkpt lat="48.95087" lon="0.23985">
        <ele>208.4</ele>
        <time>2024-03-20T16:03:59Z</time>
      </trkpt>
      <trkpt lat="48.95081" lon="0.23987">
        <ele>208.4</ele>
        <time>2024-03-20T16:04:00Z</time>
      </trkpt>
      <trkpt lat="48.95075" lon="0.23988">
        <ele>208.8</ele>
        <time>2024-03-20T16:04:01Z</time>
      </trkpt>
      <trkpt lat="48.95069" lon="0.2399">
        <ele>209</ele>
        <time>2024-03-20T16:04:02Z</time>
      </trkpt>
      <trkpt lat="48.95063" lon="0.23991">
        <ele>209.2</ele>
        <time>2024-03-20T16:04:03Z</time>
      </trkpt>
      <trkpt lat="48.95057" lon="0.23991">
        <ele>209.4</ele>
        <time>2024-03-20T16:04:04Z</time>
      </trkpt>
      <trkpt lat="48.95051" lon="0.23992">
        <ele>209.4</ele>
        <time>2024-03-20T16:04:05Z</time>
      </trkpt>
      <trkpt lat="48.95045" lon="0.23993">
        <ele>209.4</ele>
        <time>2024-03-20T16:04:06Z</time>
      </trkpt>
      <trkpt lat="48.95039" lon="0.23994">
        <ele>209.6</ele>
        <time>2024-03-20T16:04:07Z</time>
      </trkpt>
      <trkpt lat="48.95033" lon="0.23996">
        <ele>209.6</ele>
        <time>2024-03-20T16:04:08Z</time>
      </trkpt>
      <trkpt lat="48.95026" lon="0.23997">
        <ele>209.8</ele>
        <time>2024-03-20T16:04:09Z</time>
      </trkpt>
      <trkpt lat="48.9502" lon="0.23999">
        <ele>209.8</ele>
        <time>2024-03-20T16:04:10Z</time>
      </trkpt>
      <trkpt lat="48.95013" lon="0.24">
        <ele>209.8</ele>
        <time>2024-03-20T16:04:11Z</time>
      </trkpt>
      <trkpt lat="48.95006" lon="0.24001">
        <ele>210</ele>
        <time>2024-03-20T16:04:12Z</time>
      </trkpt>
      <trkpt lat="48.95" lon="0.24001">
        <ele>210</ele>
        <time>2024-03-20T16:04:13Z</time>
      </trkpt>
      <trkpt lat="48.94993" lon="0.24002">
        <ele>210</ele>
        <time>2024-03-20T16:04:14Z</time>
      </trkpt>
      <trkpt lat="48.94987" lon="0.24002">
        <ele>210</ele>
        <time>2024-03-20T16:04:15Z</time>
      </trkpt>
      <trkpt lat="48.9498" lon="0.24003">
        <ele>210</ele>
        <time>2024-03-20T16:04:16Z</time>
      </trkpt>
      <trkpt lat="48.94974" lon="0.24004">
        <ele>210.2</ele>
        <time>2024-03-20T16:04:17Z</time>
      </trkpt>
      <trkpt lat="48.94967" lon="0.24005">
        <ele>210.2</ele>
        <time>2024-03-20T16:04:18Z</time>
      </trkpt>
      <trkpt lat="48.94961" lon="0.24005">
        <ele>210.2</ele>
        <time>2024-03-20T16:04:19Z</time>
      </trkpt>
      <trkpt lat="48.94954" lon="0.24006">
        <ele>210.2</ele>
        <time>2024-03-20T16:04:20Z</time>
      </trkpt>
      <trkpt lat="48.94948" lon="0.24006">
        <ele>210.2</ele>
        <time>2024-03-20T16:04:21Z</time>
      </trkpt>
      <trkpt lat="48.94942" lon="0.24007">
        <ele>210.4</ele>
        <time>2024-03-20T16:04:22Z</time>
      </trkpt>
      <trkpt lat="48.94936" lon="0.24007">
        <ele>210.4</ele>
        <time>2024-03-20T16:04:23Z</time>
      </trkpt>
      <trkpt lat="48.94929" lon="0.24008">
        <ele>210.4</ele>
        <time>2024-03-20T16:04:24Z</time>
      </trkpt>
      <trkpt lat="48.94923" lon="0.24008">
        <ele>210.4</ele>
        <time>2024-03-20T16:04:25Z</time>
      </trkpt>
      <trkpt lat="48.94917" lon="0.24009">
        <ele>210.4</ele>
        <time>2024-03-20T16:04:26Z</time>
      </trkpt>
      <trkpt lat="48.94911" lon="0.24009">
        <ele>210.4</ele>
        <time>2024-03-20T16:04:27Z</time>
      </trkpt>
      <trkpt lat="48.94905" lon="0.2401">
        <ele>210.4</ele>
        <time>2024-03-20T16:04:28Z</time>
      </trkpt>
      <trkpt lat="48.94899" lon="0.24011">
        <ele>210.4</ele>
        <time>2024-03-20T16:04:29Z</time>
      </trkpt>
      <trkpt lat="48.94893" lon="0.24012">
        <ele>210.6</ele>
        <time>2024-03-20T16:04:30Z</time>
      </trkpt>
      <trkpt lat="48.94887" lon="0.24013">
        <ele>210.8</ele>
        <time>2024-03-20T16:04:31Z</time>
      </trkpt>
      <trkpt lat="48.94881" lon="0.24015">
        <ele>210.8</ele>
        <time>2024-03-20T16:04:32Z</time>
      </trkpt>
      <trkpt lat="48.94875" lon="0.24016">
        <ele>211</ele>
        <time>2024-03-20T16:04:33Z</time>
      </trkpt>
      <trkpt lat="48.94869" lon="0.24017">
        <ele>211</ele>
        <time>2024-03-20T16:04:34Z</time>
      </trkpt>
      <trkpt lat="48.94863" lon="0.24019">
        <ele>211</ele>
        <time>2024-03-20T16:04:35Z</time>
      </trkpt>
      <trkpt lat="48.94857" lon="0.24021">
        <ele>211.2</ele>
        <time>2024-03-20T16:04:36Z</time>
      </trkpt>
      <trkpt lat="48.94851" lon="0.24022">
        <ele>211.2</ele>
        <time>2024-03-20T16:04:37Z</time>
      </trkpt>
      <trkpt lat="48.94845" lon="0.24024">
        <ele>211.4</ele>
        <time>2024-03-20T16:04:38Z</time>
      </trkpt>
      <trkpt lat="48.94839" lon="0.24026">
        <ele>211.4</ele>
        <time>2024-03-20T16:04:39Z</time>
      </trkpt>
      <trkpt lat="48.94833" lon="0.24027">
        <ele>211.4</ele>
        <time>2024-03-20T16:04:40Z</time>
      </trkpt>
      <trkpt lat="48.94827" lon="0.2403">
        <ele>211.6</ele>
        <time>2024-03-20T16:04:41Z</time>
      </trkpt>
      <trkpt lat="48.94821" lon="0.24032">
        <ele>211.6</ele>
        <time>2024-03-20T16:04:42Z</time>
      </trkpt>
      <trkpt lat="48.94816" lon="0.24034">
        <ele>211.6</ele>
        <time>2024-03-20T16:04:43Z</time>
      </trkpt>
      <trkpt lat="48.9481" lon="0.24036">
        <ele>211.6</ele>
        <time>2024-03-20T16:04:44Z</time>
      </trkpt>
      <trkpt lat="48.94804" lon="0.24038">
        <ele>211.6</ele>
        <time>2024-03-20T16:04:45Z</time>
      </trkpt>
      <trkpt lat="48.94798" lon="0.2404">
        <ele>211.6</ele>
        <time>2024-03-20T16:04:46Z</time>
      </trkpt>
      <trkpt lat="48.94793" lon="0.24042">
        <ele>211.6</ele>
        <time>2024-03-20T16:04:47Z</time>
      </trkpt>
      <trkpt lat="48.94787" lon="0.24045">
        <ele>211.8</ele>
        <time>2024-03-20T16:04:48Z</time>
      </trkpt>
      <trkpt lat="48.94782" lon="0.24048">
        <ele>211.8</ele>
        <time>2024-03-20T16:04:49Z</time>
      </trkpt>
      <trkpt lat="48.94776" lon="0.24051">
        <ele>211.8</ele>
        <time>2024-03-20T16:04:50Z</time>
      </trkpt>
      <trkpt lat="48.94771" lon="0.24053">
        <ele>211.8</ele>
        <time>2024-03-20T16:04:51Z</time>
      </trkpt>
      <trkpt lat="48.94765" lon="0.24056">
        <ele>211.8</ele>
        <time>2024-03-20T16:04:52Z</time>
      </trkpt>
      <trkpt lat="48.9476" lon="0.24058">
        <ele>212</ele>
        <time>2024-03-20T16:04:53Z</time>
      </trkpt>
      <trkpt lat="48.94754" lon="0.24061">
        <ele>212.2</ele>
        <time>2024-03-20T16:04:54Z</time>
      </trkpt>
      <trkpt lat="48.94748" lon="0.24063">
        <ele>212.2</ele>
        <time>2024-03-20T16:04:55Z</time>
      </trkpt>
      <trkpt lat="48.94743" lon="0.24066">
        <ele>212.2</ele>
        <time>2024-03-20T16:04:56Z</time>
      </trkpt>
      <trkpt lat="48.94737" lon="0.24069">
        <ele>212.6</ele>
        <time>2024-03-20T16:04:57Z</time>
      </trkpt>
      <trkpt lat="48.94731" lon="0.24072">
        <ele>212.8</ele>
        <time>2024-03-20T16:04:58Z</time>
      </trkpt>
      <trkpt lat="48.94725" lon="0.24075">
        <ele>212.8</ele>
        <time>2024-03-20T16:04:59Z</time>
      </trkpt>
      <trkpt lat="48.94719" lon="0.24077">
        <ele>213</ele>
        <time>2024-03-20T16:05:00Z</time>
      </trkpt>
      <trkpt lat="48.94713" lon="0.2408">
        <ele>213</ele>
        <time>2024-03-20T16:05:01Z</time>
      </trkpt>
      <trkpt lat="48.94708" lon="0.24083">
        <ele>213.2</ele>
        <time>2024-03-20T16:05:02Z</time>
      </trkpt>
      <trkpt lat="48.94702" lon="0.24086">
        <ele>213.2</ele>
        <time>2024-03-20T16:05:03Z</time>
      </trkpt>
      <trkpt lat="48.94696" lon="0.24089">
        <ele>213.2</ele>
        <time>2024-03-20T16:05:04Z</time>
      </trkpt>
      <trkpt lat="48.94691" lon="0.24091">
        <ele>213.2</ele>
        <time>2024-03-20T16:05:05Z</time>
      </trkpt>
      <trkpt lat="48.94685" lon="0.24094">
        <ele>213.4</ele>
        <time>2024-03-20T16:05:06Z</time>
      </trkpt>
      <trkpt lat="48.94679" lon="0.24096">
        <ele>213.6</ele>
        <time>2024-03-20T16:05:07Z</time>
      </trkpt>
      <trkpt lat="48.94673" lon="0.24099">
        <ele>213.8</ele>
        <time>2024-03-20T16:05:08Z</time>
      </trkpt>
      <trkpt lat="48.94667" lon="0.24101">
        <ele>214</ele>
        <time>2024-03-20T16:05:09Z</time>
      </trkpt>
      <trkpt lat="48.94662" lon="0.24103">
        <ele>214</ele>
        <time>2024-03-20T16:05:10Z</time>
      </trkpt>
      <trkpt lat="48.94656" lon="0.24105">
        <ele>214.2</ele>
        <time>2024-03-20T16:05:11Z</time>
      </trkpt>
      <trkpt lat="48.94651" lon="0.24107">
        <ele>214.2</ele>
        <time>2024-03-20T16:05:12Z</time>
      </trkpt>
      <trkpt lat="48.94645" lon="0.24108">
        <ele>214.2</ele>
        <time>2024-03-20T16:05:13Z</time>
      </trkpt>
      <trkpt lat="48.9464" lon="0.24109">
        <ele>214.2</ele>
        <time>2024-03-20T16:05:14Z</time>
      </trkpt>
      <trkpt lat="48.94634" lon="0.24111">
        <ele>214.4</ele>
        <time>2024-03-20T16:05:15Z</time>
      </trkpt>
      <trkpt lat="48.94629" lon="0.24112">
        <ele>214.4</ele>
        <time>2024-03-20T16:05:16Z</time>
      </trkpt>
      <trkpt lat="48.94623" lon="0.24114">
        <ele>214.6</ele>
        <time>2024-03-20T16:05:17Z</time>
      </trkpt>
      <trkpt lat="48.94617" lon="0.24115">
        <ele>214.6</ele>
        <time>2024-03-20T16:05:18Z</time>
      </trkpt>
      <trkpt lat="48.94612" lon="0.24117">
        <ele>214.8</ele>
        <time>2024-03-20T16:05:19Z</time>
      </trkpt>
      <trkpt lat="48.94606" lon="0.24118">
        <ele>214.8</ele>
        <time>2024-03-20T16:05:20Z</time>
      </trkpt>
      <trkpt lat="48.946" lon="0.2412">
        <ele>215</ele>
        <time>2024-03-20T16:05:21Z</time>
      </trkpt>
      <trkpt lat="48.94595" lon="0.24122">
        <ele>215</ele>
        <time>2024-03-20T16:05:22Z</time>
      </trkpt>
      <trkpt lat="48.9459" lon="0.24123">
        <ele>215.2</ele>
        <time>2024-03-20T16:05:23Z</time>
      </trkpt>
      <trkpt lat="48.94584" lon="0.24125">
        <ele>215.2</ele>
        <time>2024-03-20T16:05:24Z</time>
      </trkpt>
      <trkpt lat="48.94579" lon="0.24127">
        <ele>215.2</ele>
        <time>2024-03-20T16:05:25Z</time>
      </trkpt>
      <trkpt lat="48.94574" lon="0.2413">
        <ele>215.2</ele>
        <time>2024-03-20T16:05:26Z</time>
      </trkpt>
      <trkpt lat="48.94569" lon="0.24131">
        <ele>215.2</ele>
        <time>2024-03-20T16:05:27Z</time>
      </trkpt>
      <trkpt lat="48.94563" lon="0.24133">
        <ele>215.4</ele>
        <time>2024-03-20T16:05:28Z</time>
      </trkpt>
      <trkpt lat="48.94558" lon="0.24135">
        <ele>215.4</ele>
        <time>2024-03-20T16:05:29Z</time>
      </trkpt>
      <trkpt lat="48.94553" lon="0.24138">
        <ele>215.4</ele>
        <time>2024-03-20T16:05:30Z</time>
      </trkpt>
      <trkpt lat="48.94548" lon="0.2414">
        <ele>215.6</ele>
        <time>2024-03-20T16:05:31Z</time>
      </trkpt>
      <trkpt lat="48.94543" lon="0.24142">
        <ele>215.6</ele>
        <time>2024-03-20T16:05:32Z</time>
      </trkpt>
      <trkpt lat="48.94538" lon="0.24144">
        <ele>215.8</ele>
        <time>2024-03-20T16:05:33Z</time>
      </trkpt>
      <trkpt lat="48.94533" lon="0.24147">
        <ele>215.8</ele>
        <time>2024-03-20T16:05:34Z</time>
      </trkpt>
      <trkpt lat="48.94528" lon="0.24149">
        <ele>216</ele>
        <time>2024-03-20T16:05:35Z</time>
      </trkpt>
      <trkpt lat="48.94523" lon="0.24151">
        <ele>216</ele>
        <time>2024-03-20T16:05:36Z</time>
      </trkpt>
      <trkpt lat="48.94518" lon="0.24154">
        <ele>216</ele>
        <time>2024-03-20T16:05:37Z</time>
      </trkpt>
      <trkpt lat="48.94513" lon="0.24157">
        <ele>216.2</ele>
        <time>2024-03-20T16:05:38Z</time>
      </trkpt>
      <trkpt lat="48.94508" lon="0.2416">
        <ele>216.2</ele>
        <time>2024-03-20T16:05:39Z</time>
      </trkpt>
      <trkpt lat="48.94503" lon="0.24162">
        <ele>216.4</ele>
        <time>2024-03-20T16:05:40Z</time>
      </trkpt>
      <trkpt lat="48.94498" lon="0.24165">
        <ele>216.4</ele>
        <time>2024-03-20T16:05:41Z</time>
      </trkpt>
      <trkpt lat="48.94493" lon="0.24168">
        <ele>216.6</ele>
        <time>2024-03-20T16:05:42Z</time>
      </trkpt>
      <trkpt lat="48.94488" lon="0.24171">
        <ele>216.6</ele>
        <time>2024-03-20T16:05:43Z</time>
      </trkpt>
      <trkpt lat="48.94484" lon="0.24174">
        <ele>216.8</ele>
        <time>2024-03-20T16:05:44Z</time>
      </trkpt>
      <trkpt lat="48.94479" lon="0.24177">
        <ele>216.8</ele>
        <time>2024-03-20T16:05:45Z</time>
      </trkpt>
      <trkpt lat="48.94475" lon="0.24179">
        <ele>216.8</ele>
        <time>2024-03-20T16:05:46Z</time>
      </trkpt>
      <trkpt lat="48.9447" lon="0.24182">
        <ele>216.8</ele>
        <time>2024-03-20T16:05:47Z</time>
      </trkpt>
      <trkpt lat="48.94466" lon="0.24186">
        <ele>216.8</ele>
        <time>2024-03-20T16:05:48Z</time>
      </trkpt>
      <trkpt lat="48.94462" lon="0.24189">
        <ele>217</ele>
        <time>2024-03-20T16:05:49Z</time>
      </trkpt>
      <trkpt lat="48.94459" lon="0.24192">
        <ele>217</ele>
        <time>2024-03-20T16:05:50Z</time>
      </trkpt>
      <trkpt lat="48.94455" lon="0.24195">
        <ele>217</ele>
        <time>2024-03-20T16:05:51Z</time>
      </trkpt>
      <trkpt lat="48.94452" lon="0.24198">
        <ele>217</ele>
        <time>2024-03-20T16:05:52Z</time>
      </trkpt>
      <trkpt lat="48.94449" lon="0.24201">
        <ele>217.2</ele>
        <time>2024-03-20T16:05:53Z</time>
      </trkpt>
      <trkpt lat="48.94446" lon="0.24204">
        <ele>217.2</ele>
        <time>2024-03-20T16:05:54Z</time>
      </trkpt>
      <trkpt lat="48.94444" lon="0.24206">
        <ele>217.4</ele>
        <time>2024-03-20T16:05:55Z</time>
      </trkpt>
      <trkpt lat="48.94442" lon="0.24207">
        <ele>217.6</ele>
        <time>2024-03-20T16:05:56Z</time>
      </trkpt>
      <trkpt lat="48.9444" lon="0.24209">
        <ele>217.8</ele>
        <time>2024-03-20T16:05:57Z</time>
      </trkpt>
      <trkpt lat="48.94439" lon="0.24211">
        <ele>218</ele>
        <time>2024-03-20T16:05:58Z</time>
      </trkpt>
      <trkpt lat="48.94439" lon="0.24214">
        <ele>218</ele>
        <time>2024-03-20T16:05:59Z</time>
      </trkpt>
      <trkpt lat="48.94439" lon="0.24218">
        <ele>218.2</ele>
        <time>2024-03-20T16:06:00Z</time>
      </trkpt>
      <trkpt lat="48.94441" lon="0.24222">
        <ele>218.4</ele>
        <time>2024-03-20T16:06:01Z</time>
      </trkpt>
      <trkpt lat="48.94443" lon="0.24225">
        <ele>218.6</ele>
        <time>2024-03-20T16:06:02Z</time>
      </trkpt>
      <trkpt lat="48.94446" lon="0.24229">
        <ele>218.6</ele>
        <time>2024-03-20T16:06:03Z</time>
      </trkpt>
      <trkpt lat="48.94449" lon="0.24233">
        <ele>218.8</ele>
        <time>2024-03-20T16:06:04Z</time>
      </trkpt>
      <trkpt lat="48.94452" lon="0.24238">
        <ele>218.8</ele>
        <time>2024-03-20T16:06:05Z</time>
      </trkpt>
      <trkpt lat="48.94456" lon="0.24243">
        <ele>219</ele>
        <time>2024-03-20T16:06:06Z</time>
      </trkpt>
      <trkpt lat="48.94459" lon="0.24249">
        <ele>219</ele>
        <time>2024-03-20T16:06:07Z</time>
      </trkpt>
      <trkpt lat="48.94463" lon="0.24255">
        <ele>219</ele>
        <time>2024-03-20T16:06:08Z</time>
      </trkpt>
      <trkpt lat="48.94468" lon="0.24262">
        <ele>219</ele>
        <time>2024-03-20T16:06:09Z</time>
      </trkpt>
      <trkpt lat="48.94472" lon="0.24269">
        <ele>219</ele>
        <time>2024-03-20T16:06:10Z</time>
      </trkpt>
      <trkpt lat="48.94477" lon="0.24276">
        <ele>219</ele>
        <time>2024-03-20T16:06:11Z</time>
      </trkpt>
      <trkpt lat="48.94482" lon="0.24283">
        <ele>219</ele>
        <time>2024-03-20T16:06:12Z</time>
      </trkpt>
      <trkpt lat="48.94486" lon="0.24291">
        <ele>219</ele>
        <time>2024-03-20T16:06:13Z</time>
      </trkpt>
      <trkpt lat="48.94491" lon="0.24298">
        <ele>219</ele>
        <time>2024-03-20T16:06:14Z</time>
      </trkpt>
      <trkpt lat="48.94495" lon="0.24306">
        <ele>219</ele>
        <time>2024-03-20T16:06:15Z</time>
      </trkpt>
      <trkpt lat="48.945" lon="0.24313">
        <ele>219</ele>
        <time>2024-03-20T16:06:16Z</time>
      </trkpt>
      <trkpt lat="48.94505" lon="0.24321">
        <ele>219</ele>
        <time>2024-03-20T16:06:17Z</time>
      </trkpt>
      <trkpt lat="48.94509" lon="0.24328">
        <ele>218.8</ele>
        <time>2024-03-20T16:06:18Z</time>
      </trkpt>
      <trkpt lat="48.94514" lon="0.24336">
        <ele>218.8</ele>
        <time>2024-03-20T16:06:19Z</time>
      </trkpt>
      <trkpt lat="48.94518" lon="0.24343">
        <ele>218.8</ele>
        <time>2024-03-20T16:06:20Z</time>
      </trkpt>
      <trkpt lat="48.94523" lon="0.24351">
        <ele>218.8</ele>
        <time>2024-03-20T16:06:21Z</time>
      </trkpt>
      <trkpt lat="48.94528" lon="0.24358">
        <ele>218.8</ele>
        <time>2024-03-20T16:06:22Z</time>
      </trkpt>
      <trkpt lat="48.94532" lon="0.24366">
        <ele>218.8</ele>
        <time>2024-03-20T16:06:23Z</time>
      </trkpt>
      <trkpt lat="48.94537" lon="0.24374">
        <ele>218.8</ele>
        <time>2024-03-20T16:06:24Z</time>
      </trkpt>
      <trkpt lat="48.94542" lon="0.24382">
        <ele>218.8</ele>
        <time>2024-03-20T16:06:25Z</time>
      </trkpt>
      <trkpt lat="48.94547" lon="0.24391">
        <ele>218.8</ele>
        <time>2024-03-20T16:06:26Z</time>
      </trkpt>
      <trkpt lat="48.94551" lon="0.24399">
        <ele>218.8</ele>
        <time>2024-03-20T16:06:27Z</time>
      </trkpt>
      <trkpt lat="48.94556" lon="0.24407">
        <ele>218.8</ele>
        <time>2024-03-20T16:06:28Z</time>
      </trkpt>
      <trkpt lat="48.94561" lon="0.24415">
        <ele>218.8</ele>
        <time>2024-03-20T16:06:29Z</time>
      </trkpt>
      <trkpt lat="48.94566" lon="0.24423">
        <ele>219</ele>
        <time>2024-03-20T16:06:30Z</time>
      </trkpt>
      <trkpt lat="48.94571" lon="0.24431">
        <ele>219</ele>
        <time>2024-03-20T16:06:31Z</time>
      </trkpt>
      <trkpt lat="48.94575" lon="0.24439">
        <ele>219</ele>
        <time>2024-03-20T16:06:32Z</time>
      </trkpt>
      <trkpt lat="48.9458" lon="0.24448">
        <ele>219</ele>
        <time>2024-03-20T16:06:33Z</time>
      </trkpt>
      <trkpt lat="48.94585" lon="0.24456">
        <ele>219</ele>
        <time>2024-03-20T16:06:34Z</time>
      </trkpt>
      <trkpt lat="48.9459" lon="0.24464">
        <ele>219</ele>
        <time>2024-03-20T16:06:35Z</time>
      </trkpt>
      <trkpt lat="48.94595" lon="0.24472">
        <ele>219</ele>
        <time>2024-03-20T16:06:36Z</time>
      </trkpt>
      <trkpt lat="48.946" lon="0.2448">
        <ele>219</ele>
        <time>2024-03-20T16:06:37Z</time>
      </trkpt>
      <trkpt lat="48.94605" lon="0.24489">
        <ele>219</ele>
        <time>2024-03-20T16:06:38Z</time>
      </trkpt>
      <trkpt lat="48.9461" lon="0.24497">
        <ele>219</ele>
        <time>2024-03-20T16:06:39Z</time>
      </trkpt>
      <trkpt lat="48.94615" lon="0.24506">
        <ele>219</ele>
        <time>2024-03-20T16:06:40Z</time>
      </trkpt>
      <trkpt lat="48.94619" lon="0.24515">
        <ele>219.2</ele>
        <time>2024-03-20T16:06:41Z</time>
      </trkpt>
      <trkpt lat="48.94624" lon="0.24523">
        <ele>219.2</ele>
        <time>2024-03-20T16:06:42Z</time>
      </trkpt>
      <trkpt lat="48.94629" lon="0.24532">
        <ele>219.2</ele>
        <time>2024-03-20T16:06:43Z</time>
      </trkpt>
      <trkpt lat="48.94633" lon="0.24541">
        <ele>219.2</ele>
        <time>2024-03-20T16:06:44Z</time>
      </trkpt>
      <trkpt lat="48.94638" lon="0.2455">
        <ele>219.2</ele>
        <time>2024-03-20T16:06:45Z</time>
      </trkpt>
      <trkpt lat="48.94641" lon="0.2456">
        <ele>219.2</ele>
        <time>2024-03-20T16:06:46Z</time>
      </trkpt>
      <trkpt lat="48.94645" lon="0.2457">
        <ele>219.2</ele>
        <time>2024-03-20T16:06:47Z</time>
      </trkpt>
      <trkpt lat="48.94649" lon="0.2458">
        <ele>219.4</ele>
        <time>2024-03-20T16:06:48Z</time>
      </trkpt>
      <trkpt lat="48.94652" lon="0.2459">
        <ele>219.4</ele>
        <time>2024-03-20T16:06:49Z</time>
      </trkpt>
      <trkpt lat="48.94656" lon="0.24601">
        <ele>219.4</ele>
        <time>2024-03-20T16:06:50Z</time>
      </trkpt>
      <trkpt lat="48.9466" lon="0.24611">
        <ele>219.4</ele>
        <time>2024-03-20T16:06:51Z</time>
      </trkpt>
      <trkpt lat="48.94663" lon="0.24621">
        <ele>219.4</ele>
        <time>2024-03-20T16:06:52Z</time>
      </trkpt>
      <trkpt lat="48.94667" lon="0.2463">
        <ele>219.4</ele>
        <time>2024-03-20T16:06:53Z</time>
      </trkpt>
      <trkpt lat="48.9467" lon="0.2464">
        <ele>219.4</ele>
        <time>2024-03-20T16:06:54Z</time>
      </trkpt>
      <trkpt lat="48.94673" lon="0.2465">
        <ele>219.6</ele>
        <time>2024-03-20T16:06:55Z</time>
      </trkpt>
      <trkpt lat="48.94676" lon="0.24659">
        <ele>219.6</ele>
        <time>2024-03-20T16:06:56Z</time>
      </trkpt>
      <trkpt lat="48.94679" lon="0.24669">
        <ele>219.6</ele>
        <time>2024-03-20T16:06:57Z</time>
      </trkpt>
      <trkpt lat="48.94682" lon="0.24679">
        <ele>219.6</ele>
        <time>2024-03-20T16:06:58Z</time>
      </trkpt>
      <trkpt lat="48.94686" lon="0.24689">
        <ele>219.6</ele>
        <time>2024-03-20T16:06:59Z</time>
      </trkpt>
      <trkpt lat="48.94689" lon="0.24699">
        <ele>219.6</ele>
        <time>2024-03-20T16:07:00Z</time>
      </trkpt>
      <trkpt lat="48.94692" lon="0.24708">
        <ele>219.6</ele>
        <time>2024-03-20T16:07:01Z</time>
      </trkpt>
      <trkpt lat="48.94695" lon="0.24718">
        <ele>219.6</ele>
        <time>2024-03-20T16:07:02Z</time>
      </trkpt>
      <trkpt lat="48.94698" lon="0.24727">
        <ele>219.8</ele>
        <time>2024-03-20T16:07:03Z</time>
      </trkpt>
      <trkpt lat="48.947" lon="0.24737">
        <ele>219.8</ele>
        <time>2024-03-20T16:07:04Z</time>
      </trkpt>
      <trkpt lat="48.94703" lon="0.24747">
        <ele>219.8</ele>
        <time>2024-03-20T16:07:05Z</time>
      </trkpt>
      <trkpt lat="48.94705" lon="0.24757">
        <ele>220</ele>
        <time>2024-03-20T16:07:06Z</time>
      </trkpt>
      <trkpt lat="48.94708" lon="0.24767">
        <ele>220</ele>
        <time>2024-03-20T16:07:07Z</time>
      </trkpt>
      <trkpt lat="48.9471" lon="0.24777">
        <ele>220.2</ele>
        <time>2024-03-20T16:07:08Z</time>
      </trkpt>
      <trkpt lat="48.94712" lon="0.24787">
        <ele>220.2</ele>
        <time>2024-03-20T16:07:09Z</time>
      </trkpt>
      <trkpt lat="48.94713" lon="0.24797">
        <ele>220.2</ele>
        <time>2024-03-20T16:07:10Z</time>
      </trkpt>
      <trkpt lat="48.94715" lon="0.24807">
        <ele>220.2</ele>
        <time>2024-03-20T16:07:11Z</time>
      </trkpt>
      <trkpt lat="48.94717" lon="0.24817">
        <ele>220.2</ele>
        <time>2024-03-20T16:07:12Z</time>
      </trkpt>
      <trkpt lat="48.94718" lon="0.24827">
        <ele>220.4</ele>
        <time>2024-03-20T16:07:13Z</time>
      </trkpt>
      <trkpt lat="48.9472" lon="0.24837">
        <ele>220.4</ele>
        <time>2024-03-20T16:07:14Z</time>
      </trkpt>
      <trkpt lat="48.94722" lon="0.24847">
        <ele>220.4</ele>
        <time>2024-03-20T16:07:15Z</time>
      </trkpt>
      <trkpt lat="48.94724" lon="0.24857">
        <ele>220.4</ele>
        <time>2024-03-20T16:07:16Z</time>
      </trkpt>
      <trkpt lat="48.94726" lon="0.24866">
        <ele>220.4</ele>
        <time>2024-03-20T16:07:17Z</time>
      </trkpt>
      <trkpt lat="48.94727" lon="0.24876">
        <ele>220.6</ele>
        <time>2024-03-20T16:07:18Z</time>
      </trkpt>
      <trkpt lat="48.94728" lon="0.24885">
        <ele>220.6</ele>
        <time>2024-03-20T16:07:19Z</time>
      </trkpt>
      <trkpt lat="48.9473" lon="0.24895">
        <ele>220.6</ele>
        <time>2024-03-20T16:07:20Z</time>
      </trkpt>
      <trkpt lat="48.94732" lon="0.24904">
        <ele>220.8</ele>
        <time>2024-03-20T16:07:21Z</time>
      </trkpt>
      <trkpt lat="48.94733" lon="0.24913">
        <ele>220.8</ele>
        <time>2024-03-20T16:07:22Z</time>
      </trkpt>
      <trkpt lat="48.94735" lon="0.24923">
        <ele>220.8</ele>
        <time>2024-03-20T16:07:23Z</time>
      </trkpt>
      <trkpt lat="48.94738" lon="0.24932">
        <ele>220.8</ele>
        <time>2024-03-20T16:07:24Z</time>
      </trkpt>
      <trkpt lat="48.9474" lon="0.24942">
        <ele>220.8</ele>
        <time>2024-03-20T16:07:25Z</time>
      </trkpt>
      <trkpt lat="48.94741" lon="0.24951">
        <ele>220.8</ele>
        <time>2024-03-20T16:07:26Z</time>
      </trkpt>
      <trkpt lat="48.94744" lon="0.24961">
        <ele>220.8</ele>
        <time>2024-03-20T16:07:27Z</time>
      </trkpt>
      <trkpt lat="48.94746" lon="0.2497">
        <ele>220.8</ele>
        <time>2024-03-20T16:07:28Z</time>
      </trkpt>
      <trkpt lat="48.94749" lon="0.2498">
        <ele>220.8</ele>
        <time>2024-03-20T16:07:29Z</time>
      </trkpt>
      <trkpt lat="48.94752" lon="0.24989">
        <ele>220.8</ele>
        <time>2024-03-20T16:07:30Z</time>
      </trkpt>
      <trkpt lat="48.94755" lon="0.24998">
        <ele>220.8</ele>
        <time>2024-03-20T16:07:31Z</time>
      </trkpt>
      <trkpt lat="48.94759" lon="0.25006">
        <ele>220.6</ele>
        <time>2024-03-20T16:07:32Z</time>
      </trkpt>
      <trkpt lat="48.94762" lon="0.25015">
        <ele>220.6</ele>
        <time>2024-03-20T16:07:33Z</time>
      </trkpt>
      <trkpt lat="48.94766" lon="0.25023">
        <ele>220.6</ele>
        <time>2024-03-20T16:07:34Z</time>
      </trkpt>
      <trkpt lat="48.94771" lon="0.25031">
        <ele>220.6</ele>
        <time>2024-03-20T16:07:35Z</time>
      </trkpt>
      <trkpt lat="48.94776" lon="0.25039">
        <ele>220.6</ele>
        <time>2024-03-20T16:07:36Z</time>
      </trkpt>
      <trkpt lat="48.94781" lon="0.25047">
        <ele>220.6</ele>
        <time>2024-03-20T16:07:37Z</time>
      </trkpt>
      <trkpt lat="48.94786" lon="0.25054">
        <ele>220.4</ele>
        <time>2024-03-20T16:07:38Z</time>
      </trkpt>
      <trkpt lat="48.94791" lon="0.25062">
        <ele>220.2</ele>
        <time>2024-03-20T16:07:39Z</time>
      </trkpt>
      <trkpt lat="48.94796" lon="0.25069">
        <ele>220.2</ele>
        <time>2024-03-20T16:07:40Z</time>
      </trkpt>
      <trkpt lat="48.94801" lon="0.25077">
        <ele>220.2</ele>
        <time>2024-03-20T16:07:41Z</time>
      </trkpt>
      <trkpt lat="48.94806" lon="0.25084">
        <ele>220</ele>
        <time>2024-03-20T16:07:42Z</time>
      </trkpt>
      <trkpt lat="48.94811" lon="0.25091">
        <ele>219.6</ele>
        <time>2024-03-20T16:07:43Z</time>
      </trkpt>
      <trkpt lat="48.94816" lon="0.25099">
        <ele>219.4</ele>
        <time>2024-03-20T16:07:44Z</time>
      </trkpt>
      <trkpt lat="48.94822" lon="0.25107">
        <ele>219</ele>
        <time>2024-03-20T16:07:45Z</time>
      </trkpt>
      <trkpt lat="48.94827" lon="0.25114">
        <ele>218.8</ele>
        <time>2024-03-20T16:07:46Z</time>
      </trkpt>
      <trkpt lat="48.94832" lon="0.25122">
        <ele>218.6</ele>
        <time>2024-03-20T16:07:47Z</time>
      </trkpt>
      <trkpt lat="48.94836" lon="0.2513">
        <ele>218.4</ele>
        <time>2024-03-20T16:07:48Z</time>
      </trkpt>
      <trkpt lat="48.94841" lon="0.25139">
        <ele>218.4</ele>
        <time>2024-03-20T16:07:49Z</time>
      </trkpt>
      <trkpt lat="48.94845" lon="0.25147">
        <ele>218</ele>
        <time>2024-03-20T16:07:50Z</time>
      </trkpt>
      <trkpt lat="48.94849" lon="0.25156">
        <ele>217.6</ele>
        <time>2024-03-20T16:07:51Z</time>
      </trkpt>
      <trkpt lat="48.94853" lon="0.25165">
        <ele>217.6</ele>
        <time>2024-03-20T16:07:52Z</time>
      </trkpt>
      <trkpt lat="48.94857" lon="0.25174">
        <ele>217.4</ele>
        <time>2024-03-20T16:07:53Z</time>
      </trkpt>
      <trkpt lat="48.9486" lon="0.25184">
        <ele>217.4</ele>
        <time>2024-03-20T16:07:54Z</time>
      </trkpt>
      <trkpt lat="48.94863" lon="0.25195">
        <ele>217.2</ele>
        <time>2024-03-20T16:07:55Z</time>
      </trkpt>
      <trkpt lat="48.94866" lon="0.25206">
        <ele>217.2</ele>
        <time>2024-03-20T16:07:56Z</time>
      </trkpt>
      <trkpt lat="48.94869" lon="0.25218">
        <ele>216.8</ele>
        <time>2024-03-20T16:07:57Z</time>
      </trkpt>
      <trkpt lat="48.94873" lon="0.2523">
        <ele>216.8</ele>
        <time>2024-03-20T16:07:58Z</time>
      </trkpt>
      <trkpt lat="48.94876" lon="0.25242">
        <ele>216.8</ele>
        <time>2024-03-20T16:07:59Z</time>
      </trkpt>
      <trkpt lat="48.9488" lon="0.25255">
        <ele>216.4</ele>
        <time>2024-03-20T16:08:00Z</time>
      </trkpt>
      <trkpt lat="48.94883" lon="0.25267">
        <ele>216.4</ele>
        <time>2024-03-20T16:08:01Z</time>
      </trkpt>
      <trkpt lat="48.94887" lon="0.25279">
        <ele>216.2</ele>
        <time>2024-03-20T16:08:02Z</time>
      </trkpt>
      <trkpt lat="48.9489" lon="0.25291">
        <ele>216</ele>
        <time>2024-03-20T16:08:03Z</time>
      </trkpt>
      <trkpt lat="48.94894" lon="0.25304">
        <ele>215.8</ele>
        <time>2024-03-20T16:08:04Z</time>
      </trkpt>
      <trkpt lat="48.94897" lon="0.25316">
        <ele>215.6</ele>
        <time>2024-03-20T16:08:05Z</time>
      </trkpt>
      <trkpt lat="48.94901" lon="0.25328">
        <ele>215.4</ele>
        <time>2024-03-20T16:08:06Z</time>
      </trkpt>
      <trkpt lat="48.94904" lon="0.25341">
        <ele>215.2</ele>
        <time>2024-03-20T16:08:07Z</time>
      </trkpt>
      <trkpt lat="48.94908" lon="0.25353">
        <ele>215</ele>
        <time>2024-03-20T16:08:08Z</time>
      </trkpt>
      <trkpt lat="48.94912" lon="0.25366">
        <ele>215</ele>
        <time>2024-03-20T16:08:09Z</time>
      </trkpt>
      <trkpt lat="48.94916" lon="0.25378">
        <ele>215</ele>
        <time>2024-03-20T16:08:10Z</time>
      </trkpt>
      <trkpt lat="48.94921" lon="0.2539">
        <ele>214.8</ele>
        <time>2024-03-20T16:08:11Z</time>
      </trkpt>
      <trkpt lat="48.94926" lon="0.25402">
        <ele>214.6</ele>
        <time>2024-03-20T16:08:12Z</time>
      </trkpt>
      <trkpt lat="48.94931" lon="0.25413">
        <ele>214.4</ele>
        <time>2024-03-20T16:08:13Z</time>
      </trkpt>
      <trkpt lat="48.94937" lon="0.25423">
        <ele>214.2</ele>
        <time>2024-03-20T16:08:14Z</time>
      </trkpt>
      <trkpt lat="48.94944" lon="0.25433">
        <ele>214</ele>
        <time>2024-03-20T16:08:15Z</time>
      </trkpt>
      <trkpt lat="48.9495" lon="0.25442">
        <ele>213.8</ele>
        <time>2024-03-20T16:08:16Z</time>
      </trkpt>
      <trkpt lat="48.94958" lon="0.25452">
        <ele>213.8</ele>
        <time>2024-03-20T16:08:17Z</time>
      </trkpt>
      <trkpt lat="48.94965" lon="0.2546">
        <ele>213.4</ele>
        <time>2024-03-20T16:08:18Z</time>
      </trkpt>
      <trkpt lat="48.94972" lon="0.25469">
        <ele>213.4</ele>
        <time>2024-03-20T16:08:19Z</time>
      </trkpt>
      <trkpt lat="48.9498" lon="0.25476">
        <ele>213</ele>
        <time>2024-03-20T16:08:20Z</time>
      </trkpt>
      <trkpt lat="48.94989" lon="0.25483">
        <ele>213</ele>
        <time>2024-03-20T16:08:21Z</time>
      </trkpt>
      <trkpt lat="48.94998" lon="0.2549">
        <ele>212.6</ele>
        <time>2024-03-20T16:08:22Z</time>
      </trkpt>
      <trkpt lat="48.95006" lon="0.25496">
        <ele>212.4</ele>
        <time>2024-03-20T16:08:23Z</time>
      </trkpt>
      <trkpt lat="48.95016" lon="0.25502">
        <ele>212.2</ele>
        <time>2024-03-20T16:08:24Z</time>
      </trkpt>
      <trkpt lat="48.95026" lon="0.25506">
        <ele>212</ele>
        <time>2024-03-20T16:08:25Z</time>
      </trkpt>
      <trkpt lat="48.95036" lon="0.2551">
        <ele>211.6</ele>
        <time>2024-03-20T16:08:26Z</time>
      </trkpt>
      <trkpt lat="48.95046" lon="0.25514">
        <ele>211.4</ele>
        <time>2024-03-20T16:08:27Z</time>
      </trkpt>
      <trkpt lat="48.95056" lon="0.25516">
        <ele>211.2</ele>
        <time>2024-03-20T16:08:28Z</time>
      </trkpt>
      <trkpt lat="48.95067" lon="0.25517">
        <ele>210.8</ele>
        <time>2024-03-20T16:08:29Z</time>
      </trkpt>
      <trkpt lat="48.95077" lon="0.25518">
        <ele>210.4</ele>
        <time>2024-03-20T16:08:30Z</time>
      </trkpt>
      <trkpt lat="48.95087" lon="0.25517">
        <ele>210</ele>
        <time>2024-03-20T16:08:31Z</time>
      </trkpt>
      <trkpt lat="48.95097" lon="0.25514">
        <ele>209.6</ele>
        <time>2024-03-20T16:08:32Z</time>
      </trkpt>
      <trkpt lat="48.95107" lon="0.25511">
        <ele>209.2</ele>
        <time>2024-03-20T16:08:33Z</time>
      </trkpt>
      <trkpt lat="48.95117" lon="0.25506">
        <ele>208.6</ele>
        <time>2024-03-20T16:08:34Z</time>
      </trkpt>
      <trkpt lat="48.95126" lon="0.255">
        <ele>208</ele>
        <time>2024-03-20T16:08:35Z</time>
      </trkpt>
      <trkpt lat="48.95135" lon="0.25493">
        <ele>207.4</ele>
        <time>2024-03-20T16:08:36Z</time>
      </trkpt>
      <trkpt lat="48.95144" lon="0.25485">
        <ele>207</ele>
        <time>2024-03-20T16:08:37Z</time>
      </trkpt>
      <trkpt lat="48.95153" lon="0.25476">
        <ele>206.4</ele>
        <time>2024-03-20T16:08:38Z</time>
      </trkpt>
      <trkpt lat="48.95162" lon="0.25466">
        <ele>206</ele>
        <time>2024-03-20T16:08:39Z</time>
      </trkpt>
      <trkpt lat="48.9517" lon="0.25455">
        <ele>205.6</ele>
        <time>2024-03-20T16:08:40Z</time>
      </trkpt>
      <trkpt lat="48.95178" lon="0.25444">
        <ele>205.2</ele>
        <time>2024-03-20T16:08:41Z</time>
      </trkpt>
      <trkpt lat="48.95186" lon="0.25433">
        <ele>204.6</ele>
        <time>2024-03-20T16:08:42Z</time>
      </trkpt>
      <trkpt lat="48.95193" lon="0.25422">
        <ele>204.6</ele>
        <time>2024-03-20T16:08:43Z</time>
      </trkpt>
      <trkpt lat="48.95201" lon="0.25411">
        <ele>204</ele>
        <time>2024-03-20T16:08:44Z</time>
      </trkpt>
      <trkpt lat="48.9521" lon="0.25401">
        <ele>203.2</ele>
        <time>2024-03-20T16:08:45Z</time>
      </trkpt>
      <trkpt lat="48.95219" lon="0.25392">
        <ele>202.8</ele>
        <time>2024-03-20T16:08:46Z</time>
      </trkpt>
      <trkpt lat="48.95228" lon="0.25382">
        <ele>202.2</ele>
        <time>2024-03-20T16:08:47Z</time>
      </trkpt>
      <trkpt lat="48.95237" lon="0.25373">
        <ele>201.4</ele>
        <time>2024-03-20T16:08:48Z</time>
      </trkpt>
      <trkpt lat="48.95248" lon="0.25365">
        <ele>200.6</ele>
        <time>2024-03-20T16:08:49Z</time>
      </trkpt>
      <trkpt lat="48.95258" lon="0.25358">
        <ele>200</ele>
        <time>2024-03-20T16:08:50Z</time>
      </trkpt>
      <trkpt lat="48.95268" lon="0.2535">
        <ele>199.4</ele>
        <time>2024-03-20T16:08:51Z</time>
      </trkpt>
      <trkpt lat="48.95278" lon="0.25343">
        <ele>198.8</ele>
        <time>2024-03-20T16:08:52Z</time>
      </trkpt>
      <trkpt lat="48.95288" lon="0.25336">
        <ele>198</ele>
        <time>2024-03-20T16:08:53Z</time>
      </trkpt>
      <trkpt lat="48.95299" lon="0.2533">
        <ele>197.4</ele>
        <time>2024-03-20T16:08:54Z</time>
      </trkpt>
      <trkpt lat="48.9531" lon="0.25325">
        <ele>196.8</ele>
        <time>2024-03-20T16:08:55Z</time>
      </trkpt>
      <trkpt lat="48.95322" lon="0.25321">
        <ele>196</ele>
        <time>2024-03-20T16:08:56Z</time>
      </trkpt>
      <trkpt lat="48.95333" lon="0.25318">
        <ele>195</ele>
        <time>2024-03-20T16:08:57Z</time>
      </trkpt>
      <trkpt lat="48.95345" lon="0.25317">
        <ele>194.2</ele>
        <time>2024-03-20T16:08:58Z</time>
      </trkpt>
      <trkpt lat="48.95357" lon="0.25317">
        <ele>193.8</ele>
        <time>2024-03-20T16:08:59Z</time>
      </trkpt>
      <trkpt lat="48.95368" lon="0.25319">
        <ele>193</ele>
        <time>2024-03-20T16:09:00Z</time>
      </trkpt>
      <trkpt lat="48.9538" lon="0.25323">
        <ele>192.4</ele>
        <time>2024-03-20T16:09:01Z</time>
      </trkpt>
      <trkpt lat="48.95391" lon="0.25328">
        <ele>191.4</ele>
        <time>2024-03-20T16:09:02Z</time>
      </trkpt>
      <trkpt lat="48.95403" lon="0.25336">
        <ele>190.8</ele>
        <time>2024-03-20T16:09:03Z</time>
      </trkpt>
      <trkpt lat="48.95414" lon="0.25345">
        <ele>189.6</ele>
        <time>2024-03-20T16:09:04Z</time>
      </trkpt>
      <trkpt lat="48.95425" lon="0.25357">
        <ele>189.6</ele>
        <time>2024-03-20T16:09:05Z</time>
      </trkpt>
      <trkpt lat="48.95435" lon="0.25369">
        <ele>188.8</ele>
        <time>2024-03-20T16:09:06Z</time>
      </trkpt>
      <trkpt lat="48.95445" lon="0.25383">
        <ele>187.8</ele>
        <time>2024-03-20T16:09:07Z</time>
      </trkpt>
      <trkpt lat="48.95453" lon="0.25399">
        <ele>186.8</ele>
        <time>2024-03-20T16:09:08Z</time>
      </trkpt>
      <trkpt lat="48.95461" lon="0.25415">
        <ele>186.2</ele>
        <time>2024-03-20T16:09:09Z</time>
      </trkpt>
      <trkpt lat="48.95468" lon="0.25431">
        <ele>185</ele>
        <time>2024-03-20T16:09:10Z</time>
      </trkpt>
      <trkpt lat="48.95474" lon="0.25448">
        <ele>184.4</ele>
        <time>2024-03-20T16:09:11Z</time>
      </trkpt>
      <trkpt lat="48.95481" lon="0.25464">
        <ele>183.4</ele>
        <time>2024-03-20T16:09:12Z</time>
      </trkpt>
      <trkpt lat="48.95488" lon="0.25481">
        <ele>182.6</ele>
        <time>2024-03-20T16:09:13Z</time>
      </trkpt>
      <trkpt lat="48.95495" lon="0.25496">
        <ele>181.8</ele>
        <time>2024-03-20T16:09:14Z</time>
      </trkpt>
      <trkpt lat="48.95503" lon="0.25512">
        <ele>180.8</ele>
        <time>2024-03-20T16:09:15Z</time>
      </trkpt>
      <trkpt lat="48.95512" lon="0.25526">
        <ele>180</ele>
        <time>2024-03-20T16:09:16Z</time>
      </trkpt>
      <trkpt lat="48.95522" lon="0.2554">
        <ele>179.4</ele>
        <time>2024-03-20T16:09:17Z</time>
      </trkpt>
      <trkpt lat="48.95534" lon="0.25555">
        <ele>178.4</ele>
        <time>2024-03-20T16:09:18Z</time>
      </trkpt>
      <trkpt lat="48.95543" lon="0.25563">
        <ele>177.2</ele>
        <time>2024-03-20T16:09:19Z</time>
      </trkpt>
      <trkpt lat="48.95554" lon="0.25574">
        <ele>176.2</ele>
        <time>2024-03-20T16:09:20Z</time>
      </trkpt>
      <trkpt lat="48.95565" lon="0.25582">
        <ele>175.2</ele>
        <time>2024-03-20T16:09:21Z</time>
      </trkpt>
      <trkpt lat="48.95577" lon="0.2559">
        <ele>174.6</ele>
        <time>2024-03-20T16:09:22Z</time>
      </trkpt>
      <trkpt lat="48.95589" lon="0.25597">
        <ele>173.6</ele>
        <time>2024-03-20T16:09:23Z</time>
      </trkpt>
      <trkpt lat="48.95602" lon="0.25605">
        <ele>173.2</ele>
        <time>2024-03-20T16:09:24Z</time>
      </trkpt>
      <trkpt lat="48.95611" lon="0.25611">
        <ele>172.4</ele>
        <time>2024-03-20T16:09:25Z</time>
      </trkpt>
      <trkpt lat="48.9562" lon="0.25616">
        <ele>171.6</ele>
        <time>2024-03-20T16:09:26Z</time>
      </trkpt>
      <trkpt lat="48.95631" lon="0.25623">
        <ele>171.6</ele>
        <time>2024-03-20T16:09:27Z</time>
      </trkpt>
      <trkpt lat="48.95641" lon="0.25631">
        <ele>170.6</ele>
        <time>2024-03-20T16:09:28Z</time>
      </trkpt>
      <trkpt lat="48.95654" lon="0.25641">
        <ele>169.2</ele>
        <time>2024-03-20T16:09:29Z</time>
      </trkpt>
      <trkpt lat="48.95664" lon="0.25651">
        <ele>168</ele>
        <time>2024-03-20T16:09:30Z</time>
      </trkpt>
      <trkpt lat="48.95673" lon="0.25661">
        <ele>166.6</ele>
        <time>2024-03-20T16:09:31Z</time>
      </trkpt>
      <trkpt lat="48.95682" lon="0.25673">
        <ele>165.8</ele>
        <time>2024-03-20T16:09:32Z</time>
      </trkpt>
      <trkpt lat="48.95691" lon="0.25686">
        <ele>165.2</ele>
        <time>2024-03-20T16:09:33Z</time>
      </trkpt>
      <trkpt lat="48.95697" lon="0.25697">
        <ele>164.6</ele>
        <time>2024-03-20T16:09:34Z</time>
      </trkpt>
      <trkpt lat="48.95706" lon="0.25714">
        <ele>164.4</ele>
        <time>2024-03-20T16:09:35Z</time>
      </trkpt>
      <trkpt lat="48.95713" lon="0.25728">
        <ele>164</ele>
        <time>2024-03-20T16:09:36Z</time>
      </trkpt>
      <trkpt lat="48.95719" lon="0.25743">
        <ele>163.6</ele>
        <time>2024-03-20T16:09:37Z</time>
      </trkpt>
      <trkpt lat="48.95726" lon="0.25759">
        <ele>163</ele>
        <time>2024-03-20T16:09:38Z</time>
      </trkpt>
      <trkpt lat="48.95733" lon="0.25774">
        <ele>162.4</ele>
        <time>2024-03-20T16:09:39Z</time>
      </trkpt>
      <trkpt lat="48.9574" lon="0.25789">
        <ele>161.8</ele>
        <time>2024-03-20T16:09:40Z</time>
      </trkpt>
      <trkpt lat="48.95748" lon="0.25805">
        <ele>161.4</ele>
        <time>2024-03-20T16:09:41Z</time>
      </trkpt>
      <trkpt lat="48.95755" lon="0.2582">
        <ele>160.8</ele>
        <time>2024-03-20T16:09:42Z</time>
      </trkpt>
      <trkpt lat="48.95762" lon="0.25835">
        <ele>160.2</ele>
        <time>2024-03-20T16:09:43Z</time>
      </trkpt>
      <trkpt lat="48.95769" lon="0.25849">
        <ele>159.6</ele>
        <time>2024-03-20T16:09:44Z</time>
      </trkpt>
      <trkpt lat="48.95777" lon="0.25864">
        <ele>159</ele>
        <time>2024-03-20T16:09:45Z</time>
      </trkpt>
      <trkpt lat="48.95784" lon="0.25878">
        <ele>158.6</ele>
        <time>2024-03-20T16:09:46Z</time>
      </trkpt>
      <trkpt lat="48.95792" lon="0.25892">
        <ele>158</ele>
        <time>2024-03-20T16:09:47Z</time>
      </trkpt>
      <trkpt lat="48.958" lon="0.25905">
        <ele>157.4</ele>
        <time>2024-03-20T16:09:48Z</time>
      </trkpt>
      <trkpt lat="48.95808" lon="0.25918">
        <ele>157.4</ele>
        <time>2024-03-20T16:09:49Z</time>
      </trkpt>
      <trkpt lat="48.95816" lon="0.2593">
        <ele>156.8</ele>
        <time>2024-03-20T16:09:50Z</time>
      </trkpt>
      <trkpt lat="48.95824" lon="0.25943">
        <ele>156</ele>
        <time>2024-03-20T16:09:51Z</time>
      </trkpt>
      <trkpt lat="48.95832" lon="0.25955">
        <ele>155.4</ele>
        <time>2024-03-20T16:09:52Z</time>
      </trkpt>
      <trkpt lat="48.9584" lon="0.25967">
        <ele>154.6</ele>
        <time>2024-03-20T16:09:53Z</time>
      </trkpt>
      <trkpt lat="48.95848" lon="0.25979">
        <ele>153.8</ele>
        <time>2024-03-20T16:09:54Z</time>
      </trkpt>
      <trkpt lat="48.95855" lon="0.25991">
        <ele>152.8</ele>
        <time>2024-03-20T16:09:55Z</time>
      </trkpt>
      <trkpt lat="48.95862" lon="0.26003">
        <ele>150.8</ele>
        <time>2024-03-20T16:09:56Z</time>
      </trkpt>
      <trkpt lat="48.95869" lon="0.26016">
        <ele>149.4</ele>
        <time>2024-03-20T16:09:57Z</time>
      </trkpt>
      <trkpt lat="48.95875" lon="0.2603">
        <ele>148.4</ele>
        <time>2024-03-20T16:09:58Z</time>
      </trkpt>
      <trkpt lat="48.9588" lon="0.26046">
        <ele>147.8</ele>
        <time>2024-03-20T16:09:59Z</time>
      </trkpt>
      <trkpt lat="48.95882" lon="0.26062">
        <ele>147.2</ele>
        <time>2024-03-20T16:10:00Z</time>
      </trkpt>
      <trkpt lat="48.95884" lon="0.26079">
        <ele>146.8</ele>
        <time>2024-03-20T16:10:01Z</time>
      </trkpt>
      <trkpt lat="48.95883" lon="0.26097">
        <ele>146.6</ele>
        <time>2024-03-20T16:10:02Z</time>
      </trkpt>
      <trkpt lat="48.95881" lon="0.26114">
        <ele>146.4</ele>
        <time>2024-03-20T16:10:03Z</time>
      </trkpt>
      <trkpt lat="48.95878" lon="0.26131">
        <ele>146</ele>
        <time>2024-03-20T16:10:04Z</time>
      </trkpt>
      <trkpt lat="48.95874" lon="0.26147">
        <ele>145.4</ele>
        <time>2024-03-20T16:10:05Z</time>
      </trkpt>
      <trkpt lat="48.95869" lon="0.26163">
        <ele>144.6</ele>
        <time>2024-03-20T16:10:06Z</time>
      </trkpt>
      <trkpt lat="48.95861" lon="0.26178">
        <ele>143.6</ele>
        <time>2024-03-20T16:10:07Z</time>
      </trkpt>
      <trkpt lat="48.9585" lon="0.26193">
        <ele>142.6</ele>
        <time>2024-03-20T16:10:08Z</time>
      </trkpt>
      <trkpt lat="48.95842" lon="0.26202">
        <ele>142.2</ele>
        <time>2024-03-20T16:10:09Z</time>
      </trkpt>
      <trkpt lat="48.9583" lon="0.26211">
        <ele>142.2</ele>
        <time>2024-03-20T16:10:10Z</time>
      </trkpt>
      <trkpt lat="48.95816" lon="0.26218">
        <ele>141.6</ele>
        <time>2024-03-20T16:10:11Z</time>
      </trkpt>
      <trkpt lat="48.95806" lon="0.26221">
        <ele>140.6</ele>
        <time>2024-03-20T16:10:12Z</time>
      </trkpt>
      <trkpt lat="48.95793" lon="0.26224">
        <ele>139.8</ele>
        <time>2024-03-20T16:10:13Z</time>
      </trkpt>
      <trkpt lat="48.95779" lon="0.26226">
        <ele>138.8</ele>
        <time>2024-03-20T16:10:14Z</time>
      </trkpt>
      <trkpt lat="48.95769" lon="0.26226">
        <ele>137.8</ele>
        <time>2024-03-20T16:10:15Z</time>
      </trkpt>
      <trkpt lat="48.95757" lon="0.26226">
        <ele>136.8</ele>
        <time>2024-03-20T16:10:16Z</time>
      </trkpt>
      <trkpt lat="48.95745" lon="0.26226">
        <ele>135.6</ele>
        <time>2024-03-20T16:10:17Z</time>
      </trkpt>
      <trkpt lat="48.95733" lon="0.26226">
        <ele>134.6</ele>
        <time>2024-03-20T16:10:18Z</time>
      </trkpt>
      <trkpt lat="48.95722" lon="0.26226">
        <ele>133.8</ele>
        <time>2024-03-20T16:10:19Z</time>
      </trkpt>
      <trkpt lat="48.9571" lon="0.26225">
        <ele>133.4</ele>
        <time>2024-03-20T16:10:20Z</time>
      </trkpt>
      <trkpt lat="48.95698" lon="0.26226">
        <ele>133</ele>
        <time>2024-03-20T16:10:21Z</time>
      </trkpt>
      <trkpt lat="48.95687" lon="0.26228">
        <ele>132.2</ele>
        <time>2024-03-20T16:10:22Z</time>
      </trkpt>
      <trkpt lat="48.95676" lon="0.26232">
        <ele>131.4</ele>
        <time>2024-03-20T16:10:23Z</time>
      </trkpt>
      <trkpt lat="48.95663" lon="0.26237">
        <ele>131</ele>
        <time>2024-03-20T16:10:24Z</time>
      </trkpt>
      <trkpt lat="48.95654" lon="0.26242">
        <ele>130.4</ele>
        <time>2024-03-20T16:10:25Z</time>
      </trkpt>
      <trkpt lat="48.95644" lon="0.26249">
        <ele>129.8</ele>
        <time>2024-03-20T16:10:26Z</time>
      </trkpt>
      <trkpt lat="48.95634" lon="0.26257">
        <ele>129.4</ele>
        <time>2024-03-20T16:10:27Z</time>
      </trkpt>
      <trkpt lat="48.95623" lon="0.26268">
        <ele>129.2</ele>
        <time>2024-03-20T16:10:28Z</time>
      </trkpt>
      <trkpt lat="48.95616" lon="0.26275">
        <ele>129</ele>
        <time>2024-03-20T16:10:29Z</time>
      </trkpt>
      <trkpt lat="48.95608" lon="0.26285">
        <ele>128.8</ele>
        <time>2024-03-20T16:10:30Z</time>
      </trkpt>
      <trkpt lat="48.956" lon="0.26295">
        <ele>128.8</ele>
        <time>2024-03-20T16:10:31Z</time>
      </trkpt>
      <trkpt lat="48.95594" lon="0.26307">
        <ele>128.8</ele>
        <time>2024-03-20T16:10:32Z</time>
      </trkpt>
      <trkpt lat="48.95588" lon="0.26321">
        <ele>128.6</ele>
        <time>2024-03-20T16:10:33Z</time>
      </trkpt>
      <trkpt lat="48.95584" lon="0.26332">
        <ele>128.6</ele>
        <time>2024-03-20T16:10:34Z</time>
      </trkpt>
      <trkpt lat="48.9558" lon="0.26345">
        <ele>128.6</ele>
        <time>2024-03-20T16:10:35Z</time>
      </trkpt>
      <trkpt lat="48.95577" lon="0.26357">
        <ele>128.4</ele>
        <time>2024-03-20T16:10:36Z</time>
      </trkpt>
      <trkpt lat="48.95574" lon="0.26368">
        <ele>128.4</ele>
        <time>2024-03-20T16:10:37Z</time>
      </trkpt>
      <trkpt lat="48.95573" lon="0.26378">
        <ele>128.4</ele>
        <time>2024-03-20T16:10:38Z</time>
      </trkpt>
      <trkpt lat="48.95572" lon="0.26388">
        <ele>128.2</ele>
        <time>2024-03-20T16:10:39Z</time>
      </trkpt>
      <trkpt lat="48.95571" lon="0.26397">
        <ele>128</ele>
        <time>2024-03-20T16:10:40Z</time>
      </trkpt>
      <trkpt lat="48.95571" lon="0.26408">
        <ele>127.8</ele>
        <time>2024-03-20T16:10:41Z</time>
      </trkpt>
      <trkpt lat="48.95571" lon="0.26418">
        <ele>127.6</ele>
        <time>2024-03-20T16:10:42Z</time>
      </trkpt>
      <trkpt lat="48.95572" lon="0.26429">
        <ele>127.4</ele>
        <time>2024-03-20T16:10:43Z</time>
      </trkpt>
      <trkpt lat="48.95574" lon="0.2644">
        <ele>127.2</ele>
        <time>2024-03-20T16:10:44Z</time>
      </trkpt>
      <trkpt lat="48.95576" lon="0.2645">
        <ele>127</ele>
        <time>2024-03-20T16:10:45Z</time>
      </trkpt>
      <trkpt lat="48.95579" lon="0.26461">
        <ele>126.8</ele>
        <time>2024-03-20T16:10:46Z</time>
      </trkpt>
      <trkpt lat="48.95582" lon="0.26471">
        <ele>126.6</ele>
        <time>2024-03-20T16:10:47Z</time>
      </trkpt>
      <trkpt lat="48.95585" lon="0.26481">
        <ele>126.6</ele>
        <time>2024-03-20T16:10:48Z</time>
      </trkpt>
      <trkpt lat="48.95589" lon="0.26491">
        <ele>126.2</ele>
        <time>2024-03-20T16:10:49Z</time>
      </trkpt>
      <trkpt lat="48.95593" lon="0.26501">
        <ele>126</ele>
        <time>2024-03-20T16:10:50Z</time>
      </trkpt>
      <trkpt lat="48.95596" lon="0.26511">
        <ele>125.6</ele>
        <time>2024-03-20T16:10:51Z</time>
      </trkpt>
      <trkpt lat="48.95599" lon="0.26521">
        <ele>125.2</ele>
        <time>2024-03-20T16:10:52Z</time>
      </trkpt>
      <trkpt lat="48.95602" lon="0.26531">
        <ele>125</ele>
        <time>2024-03-20T16:10:53Z</time>
      </trkpt>
      <trkpt lat="48.95604" lon="0.26541">
        <ele>125</ele>
        <time>2024-03-20T16:10:54Z</time>
      </trkpt>
      <trkpt lat="48.95606" lon="0.2655">
        <ele>125</ele>
        <time>2024-03-20T16:10:55Z</time>
      </trkpt>
      <trkpt lat="48.95608" lon="0.26558">
        <ele>124.8</ele>
        <time>2024-03-20T16:10:56Z</time>
      </trkpt>
      <trkpt lat="48.95609" lon="0.26565">
        <ele>124.8</ele>
        <time>2024-03-20T16:10:57Z</time>
      </trkpt>
      <trkpt lat="48.9561" lon="0.26573">
        <ele>124.8</ele>
        <time>2024-03-20T16:10:58Z</time>
      </trkpt>
      <trkpt lat="48.9561" lon="0.2658">
        <ele>124.8</ele>
        <time>2024-03-20T16:10:59Z</time>
      </trkpt>
      <trkpt lat="48.95611" lon="0.26586">
        <ele>124.8</ele>
        <time>2024-03-20T16:11:00Z</time>
      </trkpt>
      <trkpt lat="48.95612" lon="0.26592">
        <ele>124.8</ele>
        <time>2024-03-20T16:11:01Z</time>
      </trkpt>
      <trkpt lat="48.95613" lon="0.26597">
        <ele>124.8</ele>
        <time>2024-03-20T16:11:02Z</time>
      </trkpt>
      <trkpt lat="48.95613" lon="0.26602">
        <ele>124.8</ele>
        <time>2024-03-20T16:11:03Z</time>
      </trkpt>
      <trkpt lat="48.95613" lon="0.26606">
        <ele>124.8</ele>
        <time>2024-03-20T16:11:04Z</time>
      </trkpt>
      <trkpt lat="48.95613" lon="0.2661">
        <ele>125</ele>
        <time>2024-03-20T16:11:05Z</time>
      </trkpt>
      <trkpt lat="48.95614" lon="0.26613">
        <ele>125</ele>
        <time>2024-03-20T16:11:06Z</time>
      </trkpt>
      <trkpt lat="48.95614" lon="0.26617">
        <ele>125</ele>
        <time>2024-03-20T16:11:07Z</time>
      </trkpt>
      <trkpt lat="48.95614" lon="0.2662">
        <ele>125.2</ele>
        <time>2024-03-20T16:11:08Z</time>
      </trkpt>
      <trkpt lat="48.95615" lon="0.26624">
        <ele>125.4</ele>
        <time>2024-03-20T16:11:09Z</time>
      </trkpt>
      <trkpt lat="48.95615" lon="0.26628">
        <ele>125.6</ele>
        <time>2024-03-20T16:11:10Z</time>
      </trkpt>
      <trkpt lat="48.95616" lon="0.26633">
        <ele>125.8</ele>
        <time>2024-03-20T16:11:11Z</time>
      </trkpt>
      <trkpt lat="48.95616" lon="0.26638">
        <ele>126</ele>
        <time>2024-03-20T16:11:12Z</time>
      </trkpt>
      <trkpt lat="48.95617" lon="0.26644">
        <ele>126</ele>
        <time>2024-03-20T16:11:13Z</time>
      </trkpt>
      <trkpt lat="48.95617" lon="0.2665">
        <ele>126.2</ele>
        <time>2024-03-20T16:11:14Z</time>
      </trkpt>
      <trkpt lat="48.95618" lon="0.26655">
        <ele>126.2</ele>
        <time>2024-03-20T16:11:15Z</time>
      </trkpt>
      <trkpt lat="48.95618" lon="0.26662">
        <ele>126.2</ele>
        <time>2024-03-20T16:11:16Z</time>
      </trkpt>
      <trkpt lat="48.95618" lon="0.26669">
        <ele>126.2</ele>
        <time>2024-03-20T16:11:17Z</time>
      </trkpt>
      <trkpt lat="48.95619" lon="0.26677">
        <ele>126.4</ele>
        <time>2024-03-20T16:11:18Z</time>
      </trkpt>
      <trkpt lat="48.95619" lon="0.26685">
        <ele>126.4</ele>
        <time>2024-03-20T16:11:19Z</time>
      </trkpt>
      <trkpt lat="48.9562" lon="0.26692">
        <ele>126.4</ele>
        <time>2024-03-20T16:11:20Z</time>
      </trkpt>
      <trkpt lat="48.95621" lon="0.267">
        <ele>126.6</ele>
        <time>2024-03-20T16:11:21Z</time>
      </trkpt>
      <trkpt lat="48.95622" lon="0.26708">
        <ele>126.6</ele>
        <time>2024-03-20T16:11:22Z</time>
      </trkpt>
      <trkpt lat="48.95622" lon="0.26716">
        <ele>126.6</ele>
        <time>2024-03-20T16:11:23Z</time>
      </trkpt>
      <trkpt lat="48.95623" lon="0.26724">
        <ele>126.6</ele>
        <time>2024-03-20T16:11:24Z</time>
      </trkpt>
      <trkpt lat="48.95624" lon="0.26732">
        <ele>126.6</ele>
        <time>2024-03-20T16:11:25Z</time>
      </trkpt>
      <trkpt lat="48.95625" lon="0.2674">
        <ele>126.6</ele>
        <time>2024-03-20T16:11:26Z</time>
      </trkpt>
      <trkpt lat="48.95626" lon="0.26749">
        <ele>126.8</ele>
        <time>2024-03-20T16:11:27Z</time>
      </trkpt>
      <trkpt lat="48.95627" lon="0.26757">
        <ele>126.8</ele>
        <time>2024-03-20T16:11:28Z</time>
      </trkpt>
      <trkpt lat="48.95629" lon="0.26765">
        <ele>127</ele>
        <time>2024-03-20T16:11:29Z</time>
      </trkpt>
      <trkpt lat="48.9563" lon="0.26773">
        <ele>127</ele>
        <time>2024-03-20T16:11:30Z</time>
      </trkpt>
      <trkpt lat="48.95631" lon="0.26781">
        <ele>127.2</ele>
        <time>2024-03-20T16:11:31Z</time>
      </trkpt>
      <trkpt lat="48.95631" lon="0.26788">
        <ele>127.4</ele>
        <time>2024-03-20T16:11:32Z</time>
      </trkpt>
      <trkpt lat="48.95632" lon="0.26795">
        <ele>127.4</ele>
        <time>2024-03-20T16:11:33Z</time>
      </trkpt>
      <trkpt lat="48.95633" lon="0.26803">
        <ele>127.6</ele>
        <time>2024-03-20T16:11:34Z</time>
      </trkpt>
      <trkpt lat="48.95634" lon="0.2681">
        <ele>127.6</ele>
        <time>2024-03-20T16:11:35Z</time>
      </trkpt>
      <trkpt lat="48.95634" lon="0.26817">
        <ele>127.8</ele>
        <time>2024-03-20T16:11:36Z</time>
      </trkpt>
      <trkpt lat="48.95635" lon="0.26824">
        <ele>127.8</ele>
        <time>2024-03-20T16:11:37Z</time>
      </trkpt>
      <trkpt lat="48.95635" lon="0.2683">
        <ele>127.8</ele>
        <time>2024-03-20T16:11:38Z</time>
      </trkpt>
      <trkpt lat="48.95636" lon="0.26835">
        <ele>128</ele>
        <time>2024-03-20T16:11:39Z</time>
      </trkpt>
      <trkpt lat="48.95637" lon="0.2684">
        <ele>128.2</ele>
        <time>2024-03-20T16:11:40Z</time>
      </trkpt>
      <trkpt lat="48.95637" lon="0.26845">
        <ele>128.2</ele>
        <time>2024-03-20T16:11:41Z</time>
      </trkpt>
      <trkpt lat="48.95638" lon="0.26849">
        <ele>128.6</ele>
        <time>2024-03-20T16:11:42Z</time>
      </trkpt>
      <trkpt lat="48.95638" lon="0.26853">
        <ele>128.6</ele>
        <time>2024-03-20T16:11:43Z</time>
      </trkpt>
      <trkpt lat="48.95638" lon="0.26856">
        <ele>128.8</ele>
        <time>2024-03-20T16:11:44Z</time>
      </trkpt>
      <trkpt lat="48.95639" lon="0.26859">
        <ele>128.8</ele>
        <time>2024-03-20T16:11:45Z</time>
      </trkpt>
      <trkpt lat="48.9564" lon="0.26862">
        <ele>129</ele>
        <time>2024-03-20T16:11:46Z</time>
      </trkpt>
      <trkpt lat="48.95641" lon="0.26865">
        <ele>129.2</ele>
        <time>2024-03-20T16:11:47Z</time>
      </trkpt>
      <trkpt lat="48.95642" lon="0.26868">
        <ele>129.4</ele>
        <time>2024-03-20T16:11:48Z</time>
      </trkpt>
      <trkpt lat="48.95644" lon="0.2687">
        <ele>129.6</ele>
        <time>2024-03-20T16:11:49Z</time>
      </trkpt>
      <trkpt lat="48.95647" lon="0.26872">
        <ele>129.8</ele>
        <time>2024-03-20T16:11:50Z</time>
      </trkpt>
      <trkpt lat="48.95649" lon="0.26874">
        <ele>130</ele>
        <time>2024-03-20T16:11:51Z</time>
      </trkpt>
      <trkpt lat="48.95652" lon="0.26875">
        <ele>130</ele>
        <time>2024-03-20T16:11:52Z</time>
      </trkpt>
      <trkpt lat="48.95655" lon="0.26877">
        <ele>130.2</ele>
        <time>2024-03-20T16:11:53Z</time>
      </trkpt>
      <trkpt lat="48.95659" lon="0.26878">
        <ele>130.4</ele>
        <time>2024-03-20T16:11:54Z</time>
      </trkpt>
      <trkpt lat="48.95663" lon="0.2688">
        <ele>130.4</ele>
        <time>2024-03-20T16:11:55Z</time>
      </trkpt>
      <trkpt lat="48.95666" lon="0.26881">
        <ele>130.4</ele>
        <time>2024-03-20T16:11:56Z</time>
      </trkpt>
      <trkpt lat="48.9567" lon="0.26883">
        <ele>130.4</ele>
        <time>2024-03-20T16:11:57Z</time>
      </trkpt>
      <trkpt lat="48.95674" lon="0.26884">
        <ele>130.6</ele>
        <time>2024-03-20T16:11:58Z</time>
      </trkpt>
      <trkpt lat="48.95679" lon="0.26885">
        <ele>130.6</ele>
        <time>2024-03-20T16:11:59Z</time>
      </trkpt>
      <trkpt lat="48.95684" lon="0.26885">
        <ele>130.6</ele>
        <time>2024-03-20T16:12:00Z</time>
      </trkpt>
      <trkpt lat="48.95688" lon="0.26886">
        <ele>130.6</ele>
        <time>2024-03-20T16:12:01Z</time>
      </trkpt>
      <trkpt lat="48.95692" lon="0.26886">
        <ele>130.6</ele>
        <time>2024-03-20T16:12:02Z</time>
      </trkpt>
      <trkpt lat="48.95696" lon="0.26887">
        <ele>130.6</ele>
        <time>2024-03-20T16:12:03Z</time>
      </trkpt>
      <trkpt lat="48.957" lon="0.26889">
        <ele>130.6</ele>
        <time>2024-03-20T16:12:04Z</time>
      </trkpt>
      <trkpt lat="48.95704" lon="0.2689">
        <ele>130.6</ele>
        <time>2024-03-20T16:12:05Z</time>
      </trkpt>
      <trkpt lat="48.95709" lon="0.26891">
        <ele>130.8</ele>
        <time>2024-03-20T16:12:06Z</time>
      </trkpt>
      <trkpt lat="48.95713" lon="0.26892">
        <ele>131</ele>
        <time>2024-03-20T16:12:07Z</time>
      </trkpt>
      <trkpt lat="48.95717" lon="0.26893">
        <ele>131</ele>
        <time>2024-03-20T16:12:08Z</time>
      </trkpt>
      <trkpt lat="48.95722" lon="0.26894">
        <ele>131</ele>
        <time>2024-03-20T16:12:09Z</time>
      </trkpt>
      <trkpt lat="48.95726" lon="0.26895">
        <ele>131</ele>
        <time>2024-03-20T16:12:10Z</time>
      </trkpt>
      <trkpt lat="48.9573" lon="0.26896">
        <ele>131</ele>
        <time>2024-03-20T16:12:11Z</time>
      </trkpt>
      <trkpt lat="48.95734" lon="0.26897">
        <ele>131</ele>
        <time>2024-03-20T16:12:12Z</time>
      </trkpt>
      <trkpt lat="48.95739" lon="0.26898">
        <ele>131</ele>
        <time>2024-03-20T16:12:13Z</time>
      </trkpt>
      <trkpt lat="48.95743" lon="0.26899">
        <ele>131</ele>
        <time>2024-03-20T16:12:14Z</time>
      </trkpt>
      <trkpt lat="48.95748" lon="0.269">
        <ele>131</ele>
        <time>2024-03-20T16:12:15Z</time>
      </trkpt>
      <trkpt lat="48.95752" lon="0.26901">
        <ele>131</ele>
        <time>2024-03-20T16:12:16Z</time>
      </trkpt>
      <trkpt lat="48.95758" lon="0.26902">
        <ele>131.2</ele>
        <time>2024-03-20T16:12:17Z</time>
      </trkpt>
      <trkpt lat="48.95763" lon="0.26903">
        <ele>131.2</ele>
        <time>2024-03-20T16:12:18Z</time>
      </trkpt>
      <trkpt lat="48.95768" lon="0.26904">
        <ele>131.2</ele>
        <time>2024-03-20T16:12:19Z</time>
      </trkpt>
      <trkpt lat="48.95773" lon="0.26905">
        <ele>131.2</ele>
        <time>2024-03-20T16:12:20Z</time>
      </trkpt>
      <trkpt lat="48.95778" lon="0.26907">
        <ele>131.2</ele>
        <time>2024-03-20T16:12:21Z</time>
      </trkpt>
      <trkpt lat="48.95783" lon="0.26908">
        <ele>131.2</ele>
        <time>2024-03-20T16:12:22Z</time>
      </trkpt>
      <trkpt lat="48.95788" lon="0.2691">
        <ele>131.2</ele>
        <time>2024-03-20T16:12:23Z</time>
      </trkpt>
      <trkpt lat="48.95794" lon="0.26911">
        <ele>131.4</ele>
        <time>2024-03-20T16:12:24Z</time>
      </trkpt>
      <trkpt lat="48.95799" lon="0.26913">
        <ele>131.4</ele>
        <time>2024-03-20T16:12:25Z</time>
      </trkpt>
      <trkpt lat="48.95804" lon="0.26914">
        <ele>131.4</ele>
        <time>2024-03-20T16:12:26Z</time>
      </trkpt>
      <trkpt lat="48.95809" lon="0.26915">
        <ele>131.4</ele>
        <time>2024-03-20T16:12:27Z</time>
      </trkpt>
      <trkpt lat="48.95814" lon="0.26915">
        <ele>131.6</ele>
        <time>2024-03-20T16:12:28Z</time>
      </trkpt>
      <trkpt lat="48.9582" lon="0.26916">
        <ele>131.6</ele>
        <time>2024-03-20T16:12:29Z</time>
      </trkpt>
      <trkpt lat="48.95825" lon="0.26917">
        <ele>131.6</ele>
        <time>2024-03-20T16:12:30Z</time>
      </trkpt>
      <trkpt lat="48.9583" lon="0.26918">
        <ele>131.8</ele>
        <time>2024-03-20T16:12:31Z</time>
      </trkpt>
      <trkpt lat="48.95835" lon="0.2692">
        <ele>131.8</ele>
        <time>2024-03-20T16:12:32Z</time>
      </trkpt>
      <trkpt lat="48.9584" lon="0.26921">
        <ele>131.8</ele>
        <time>2024-03-20T16:12:33Z</time>
      </trkpt>
      <trkpt lat="48.95847" lon="0.26922">
        <ele>132</ele>
        <time>2024-03-20T16:12:34Z</time>
      </trkpt>
      <trkpt lat="48.95851" lon="0.26923">
        <ele>132</ele>
        <time>2024-03-20T16:12:35Z</time>
      </trkpt>
      <trkpt lat="48.95856" lon="0.26924">
        <ele>132</ele>
        <time>2024-03-20T16:12:36Z</time>
      </trkpt>
      <trkpt lat="48.95861" lon="0.26925">
        <ele>132</ele>
        <time>2024-03-20T16:12:37Z</time>
      </trkpt>
      <trkpt lat="48.95867" lon="0.26927">
        <ele>132</ele>
        <time>2024-03-20T16:12:38Z</time>
      </trkpt>
      <trkpt lat="48.95871" lon="0.26928">
        <ele>132.2</ele>
        <time>2024-03-20T16:12:39Z</time>
      </trkpt>
      <trkpt lat="48.95876" lon="0.2693">
        <ele>132.2</ele>
        <time>2024-03-20T16:12:40Z</time>
      </trkpt>
      <trkpt lat="48.95882" lon="0.26932">
        <ele>132.4</ele>
        <time>2024-03-20T16:12:41Z</time>
      </trkpt>
      <trkpt lat="48.95886" lon="0.26932">
        <ele>132.4</ele>
        <time>2024-03-20T16:12:42Z</time>
      </trkpt>
      <trkpt lat="48.95893" lon="0.26934">
        <ele>132.4</ele>
        <time>2024-03-20T16:12:43Z</time>
      </trkpt>
      <trkpt lat="48.95897" lon="0.26935">
        <ele>132.6</ele>
        <time>2024-03-20T16:12:44Z</time>
      </trkpt>
      <trkpt lat="48.95902" lon="0.26936">
        <ele>132.8</ele>
        <time>2024-03-20T16:12:45Z</time>
      </trkpt>
      <trkpt lat="48.95909" lon="0.26937">
        <ele>133</ele>
        <time>2024-03-20T16:12:46Z</time>
      </trkpt>
      <trkpt lat="48.95914" lon="0.26938">
        <ele>133</ele>
        <time>2024-03-20T16:12:47Z</time>
      </trkpt>
      <trkpt lat="48.95918" lon="0.26938">
        <ele>133.2</ele>
        <time>2024-03-20T16:12:48Z</time>
      </trkpt>
      <trkpt lat="48.95924" lon="0.26939">
        <ele>133.2</ele>
        <time>2024-03-20T16:12:49Z</time>
      </trkpt>
      <trkpt lat="48.95929" lon="0.2694">
        <ele>133.4</ele>
        <time>2024-03-20T16:12:50Z</time>
      </trkpt>
      <trkpt lat="48.95934" lon="0.26941">
        <ele>133.4</ele>
        <time>2024-03-20T16:12:51Z</time>
      </trkpt>
      <trkpt lat="48.95941" lon="0.26942">
        <ele>133.6</ele>
        <time>2024-03-20T16:12:52Z</time>
      </trkpt>
      <trkpt lat="48.95946" lon="0.26943">
        <ele>133.6</ele>
        <time>2024-03-20T16:12:53Z</time>
      </trkpt>
      <trkpt lat="48.9595" lon="0.26943">
        <ele>133.8</ele>
        <time>2024-03-20T16:12:54Z</time>
      </trkpt>
      <trkpt lat="48.95957" lon="0.26944">
        <ele>134</ele>
        <time>2024-03-20T16:12:55Z</time>
      </trkpt>
      <trkpt lat="48.95961" lon="0.26944">
        <ele>134</ele>
        <time>2024-03-20T16:12:56Z</time>
      </trkpt>
      <trkpt lat="48.95967" lon="0.26944">
        <ele>134.2</ele>
        <time>2024-03-20T16:12:57Z</time>
      </trkpt>
      <trkpt lat="48.95974" lon="0.26945">
        <ele>134.2</ele>
        <time>2024-03-20T16:12:58Z</time>
      </trkpt>
      <trkpt lat="48.95978" lon="0.26945">
        <ele>134.4</ele>
        <time>2024-03-20T16:12:59Z</time>
      </trkpt>
      <trkpt lat="48.95984" lon="0.26946">
        <ele>134.4</ele>
        <time>2024-03-20T16:13:00Z</time>
      </trkpt>
      <trkpt lat="48.95991" lon="0.26946">
        <ele>134.6</ele>
        <time>2024-03-20T16:13:01Z</time>
      </trkpt>
      <trkpt lat="48.95996" lon="0.26946">
        <ele>134.8</ele>
        <time>2024-03-20T16:13:02Z</time>
      </trkpt>
      <trkpt lat="48.96001" lon="0.26946">
        <ele>134.8</ele>
        <time>2024-03-20T16:13:03Z</time>
      </trkpt>
      <trkpt lat="48.96007" lon="0.26947">
        <ele>135</ele>
        <time>2024-03-20T16:13:04Z</time>
      </trkpt>
      <trkpt lat="48.96013" lon="0.26947">
        <ele>135</ele>
        <time>2024-03-20T16:13:05Z</time>
      </trkpt>
      <trkpt lat="48.96019" lon="0.26947">
        <ele>135.2</ele>
        <time>2024-03-20T16:13:06Z</time>
      </trkpt>
      <trkpt lat="48.96026" lon="0.26947">
        <ele>135.2</ele>
        <time>2024-03-20T16:13:07Z</time>
      </trkpt>
      <trkpt lat="48.96033" lon="0.26947">
        <ele>135.2</ele>
        <time>2024-03-20T16:13:08Z</time>
      </trkpt>
      <trkpt lat="48.96038" lon="0.26947">
        <ele>135.4</ele>
        <time>2024-03-20T16:13:09Z</time>
      </trkpt>
      <trkpt lat="48.96046" lon="0.26946">
        <ele>135.6</ele>
        <time>2024-03-20T16:13:10Z</time>
      </trkpt>
      <trkpt lat="48.96051" lon="0.26946">
        <ele>135.8</ele>
        <time>2024-03-20T16:13:11Z</time>
      </trkpt>
      <trkpt lat="48.96057" lon="0.26946">
        <ele>136</ele>
        <time>2024-03-20T16:13:12Z</time>
      </trkpt>
      <trkpt lat="48.96064" lon="0.26946">
        <ele>136.2</ele>
        <time>2024-03-20T16:13:13Z</time>
      </trkpt>
      <trkpt lat="48.96071" lon="0.26945">
        <ele>136.6</ele>
        <time>2024-03-20T16:13:14Z</time>
      </trkpt>
      <trkpt lat="48.96078" lon="0.26944">
        <ele>136.8</ele>
        <time>2024-03-20T16:13:15Z</time>
      </trkpt>
      <trkpt lat="48.96084" lon="0.26944">
        <ele>137</ele>
        <time>2024-03-20T16:13:16Z</time>
      </trkpt>
      <trkpt lat="48.96092" lon="0.26943">
        <ele>137</ele>
        <time>2024-03-20T16:13:17Z</time>
      </trkpt>
      <trkpt lat="48.96099" lon="0.26942">
        <ele>137</ele>
        <time>2024-03-20T16:13:18Z</time>
      </trkpt>
      <trkpt lat="48.96104" lon="0.26941">
        <ele>137</ele>
        <time>2024-03-20T16:13:19Z</time>
      </trkpt>
      <trkpt lat="48.96111" lon="0.2694">
        <ele>137.2</ele>
        <time>2024-03-20T16:13:20Z</time>
      </trkpt>
      <trkpt lat="48.96118" lon="0.26938">
        <ele>137.2</ele>
        <time>2024-03-20T16:13:21Z</time>
      </trkpt>
      <trkpt lat="48.96125" lon="0.26936">
        <ele>137.2</ele>
        <time>2024-03-20T16:13:22Z</time>
      </trkpt>
      <trkpt lat="48.96133" lon="0.26935">
        <ele>137.2</ele>
        <time>2024-03-20T16:13:23Z</time>
      </trkpt>
      <trkpt lat="48.96138" lon="0.26934">
        <ele>137.2</ele>
        <time>2024-03-20T16:13:24Z</time>
      </trkpt>
      <trkpt lat="48.96145" lon="0.26932">
        <ele>137.2</ele>
        <time>2024-03-20T16:13:25Z</time>
      </trkpt>
      <trkpt lat="48.96151" lon="0.2693">
        <ele>137.2</ele>
        <time>2024-03-20T16:13:26Z</time>
      </trkpt>
      <trkpt lat="48.96158" lon="0.26929">
        <ele>137.2</ele>
        <time>2024-03-20T16:13:27Z</time>
      </trkpt>
      <trkpt lat="48.96166" lon="0.26926">
        <ele>137.2</ele>
        <time>2024-03-20T16:13:28Z</time>
      </trkpt>
      <trkpt lat="48.96173" lon="0.26924">
        <ele>137.2</ele>
        <time>2024-03-20T16:13:29Z</time>
      </trkpt>
      <trkpt lat="48.96178" lon="0.26923">
        <ele>137.2</ele>
        <time>2024-03-20T16:13:30Z</time>
      </trkpt>
      <trkpt lat="48.96184" lon="0.26921">
        <ele>137.2</ele>
        <time>2024-03-20T16:13:31Z</time>
      </trkpt>
      <trkpt lat="48.9619" lon="0.26919">
        <ele>137.2</ele>
        <time>2024-03-20T16:13:32Z</time>
      </trkpt>
      <trkpt lat="48.96197" lon="0.26917">
        <ele>137.2</ele>
        <time>2024-03-20T16:13:33Z</time>
      </trkpt>
      <trkpt lat="48.96203" lon="0.26916">
        <ele>137</ele>
        <time>2024-03-20T16:13:34Z</time>
      </trkpt>
      <trkpt lat="48.96211" lon="0.26914">
        <ele>137</ele>
        <time>2024-03-20T16:13:35Z</time>
      </trkpt>
      <trkpt lat="48.96216" lon="0.26912">
        <ele>137</ele>
        <time>2024-03-20T16:13:36Z</time>
      </trkpt>
      <trkpt lat="48.96224" lon="0.2691">
        <ele>137</ele>
        <time>2024-03-20T16:13:37Z</time>
      </trkpt>
      <trkpt lat="48.96231" lon="0.26908">
        <ele>137</ele>
        <time>2024-03-20T16:13:38Z</time>
      </trkpt>
      <trkpt lat="48.96237" lon="0.26907">
        <ele>137</ele>
        <time>2024-03-20T16:13:39Z</time>
      </trkpt>
      <trkpt lat="48.96244" lon="0.26904">
        <ele>137</ele>
        <time>2024-03-20T16:13:40Z</time>
      </trkpt>
      <trkpt lat="48.96251" lon="0.26902">
        <ele>137</ele>
        <time>2024-03-20T16:13:41Z</time>
      </trkpt>
      <trkpt lat="48.96259" lon="0.26899">
        <ele>137</ele>
        <time>2024-03-20T16:13:42Z</time>
      </trkpt>
      <trkpt lat="48.96266" lon="0.26897">
        <ele>137</ele>
        <time>2024-03-20T16:13:43Z</time>
      </trkpt>
      <trkpt lat="48.96274" lon="0.26895">
        <ele>136.8</ele>
        <time>2024-03-20T16:13:44Z</time>
      </trkpt>
      <trkpt lat="48.96282" lon="0.26893">
        <ele>136.8</ele>
        <time>2024-03-20T16:13:45Z</time>
      </trkpt>
      <trkpt lat="48.96292" lon="0.2689">
        <ele>136.8</ele>
        <time>2024-03-20T16:13:46Z</time>
      </trkpt>
      <trkpt lat="48.96299" lon="0.26888">
        <ele>136.6</ele>
        <time>2024-03-20T16:13:47Z</time>
      </trkpt>
      <trkpt lat="48.96308" lon="0.26885">
        <ele>136.4</ele>
        <time>2024-03-20T16:13:48Z</time>
      </trkpt>
      <trkpt lat="48.96317" lon="0.26883">
        <ele>136.4</ele>
        <time>2024-03-20T16:13:49Z</time>
      </trkpt>
      <trkpt lat="48.96326" lon="0.26881">
        <ele>136.2</ele>
        <time>2024-03-20T16:13:50Z</time>
      </trkpt>
      <trkpt lat="48.96335" lon="0.26878">
        <ele>135.6</ele>
        <time>2024-03-20T16:13:51Z</time>
      </trkpt>
      <trkpt lat="48.96344" lon="0.26875">
        <ele>135.2</ele>
        <time>2024-03-20T16:13:52Z</time>
      </trkpt>
      <trkpt lat="48.96353" lon="0.26873">
        <ele>134.8</ele>
        <time>2024-03-20T16:13:53Z</time>
      </trkpt>
      <trkpt lat="48.96362" lon="0.2687">
        <ele>134.4</ele>
        <time>2024-03-20T16:13:54Z</time>
      </trkpt>
      <trkpt lat="48.96371" lon="0.26867">
        <ele>134</ele>
        <time>2024-03-20T16:13:55Z</time>
      </trkpt>
      <trkpt lat="48.96381" lon="0.26864">
        <ele>133.6</ele>
        <time>2024-03-20T16:13:56Z</time>
      </trkpt>
      <trkpt lat="48.9639" lon="0.26862">
        <ele>133.2</ele>
        <time>2024-03-20T16:13:57Z</time>
      </trkpt>
      <trkpt lat="48.964" lon="0.26859">
        <ele>132.8</ele>
        <time>2024-03-20T16:13:58Z</time>
      </trkpt>
      <trkpt lat="48.9641" lon="0.26856">
        <ele>132.4</ele>
        <time>2024-03-20T16:13:59Z</time>
      </trkpt>
      <trkpt lat="48.96419" lon="0.26853">
        <ele>132</ele>
        <time>2024-03-20T16:14:00Z</time>
      </trkpt>
      <trkpt lat="48.96429" lon="0.2685">
        <ele>131.4</ele>
        <time>2024-03-20T16:14:01Z</time>
      </trkpt>
      <trkpt lat="48.96439" lon="0.26848">
        <ele>130.8</ele>
        <time>2024-03-20T16:14:02Z</time>
      </trkpt>
      <trkpt lat="48.96451" lon="0.26845">
        <ele>130.2</ele>
        <time>2024-03-20T16:14:03Z</time>
      </trkpt>
      <trkpt lat="48.96458" lon="0.26843">
        <ele>129.6</ele>
        <time>2024-03-20T16:14:04Z</time>
      </trkpt>
      <trkpt lat="48.96467" lon="0.26841">
        <ele>129</ele>
        <time>2024-03-20T16:14:05Z</time>
      </trkpt>
      <trkpt lat="48.96477" lon="0.26839">
        <ele>128.4</ele>
        <time>2024-03-20T16:14:06Z</time>
      </trkpt>
      <trkpt lat="48.96483" lon="0.26837">
        <ele>128</ele>
        <time>2024-03-20T16:14:07Z</time>
      </trkpt>
      <trkpt lat="48.96491" lon="0.26835">
        <ele>127.8</ele>
        <time>2024-03-20T16:14:08Z</time>
      </trkpt>
      <trkpt lat="48.96499" lon="0.26832">
        <ele>127.8</ele>
        <time>2024-03-20T16:14:09Z</time>
      </trkpt>
      <trkpt lat="48.96505" lon="0.2683">
        <ele>127.8</ele>
        <time>2024-03-20T16:14:10Z</time>
      </trkpt>
      <trkpt lat="48.96512" lon="0.26828">
        <ele>127.6</ele>
        <time>2024-03-20T16:14:11Z</time>
      </trkpt>
      <trkpt lat="48.9652" lon="0.26826">
        <ele>127.6</ele>
        <time>2024-03-20T16:14:12Z</time>
      </trkpt>
      <trkpt lat="48.96526" lon="0.26825">
        <ele>127.6</ele>
        <time>2024-03-20T16:14:13Z</time>
      </trkpt>
      <trkpt lat="48.96533" lon="0.26823">
        <ele>127.6</ele>
        <time>2024-03-20T16:14:14Z</time>
      </trkpt>
      <trkpt lat="48.9654" lon="0.26821">
        <ele>127.6</ele>
        <time>2024-03-20T16:14:15Z</time>
      </trkpt>
      <trkpt lat="48.96546" lon="0.26818">
        <ele>127.6</ele>
        <time>2024-03-20T16:14:16Z</time>
      </trkpt>
      <trkpt lat="48.96553" lon="0.26816">
        <ele>127.6</ele>
        <time>2024-03-20T16:14:17Z</time>
      </trkpt>
      <trkpt lat="48.96562" lon="0.26813">
        <ele>128</ele>
        <time>2024-03-20T16:14:18Z</time>
      </trkpt>
      <trkpt lat="48.96568" lon="0.26811">
        <ele>128.4</ele>
        <time>2024-03-20T16:14:19Z</time>
      </trkpt>
      <trkpt lat="48.96574" lon="0.26809">
        <ele>128.8</ele>
        <time>2024-03-20T16:14:20Z</time>
      </trkpt>
      <trkpt lat="48.96582" lon="0.26807">
        <ele>129.2</ele>
        <time>2024-03-20T16:14:21Z</time>
      </trkpt>
      <trkpt lat="48.96589" lon="0.26806">
        <ele>129.8</ele>
        <time>2024-03-20T16:14:22Z</time>
      </trkpt>
      <trkpt lat="48.96596" lon="0.26805">
        <ele>130.4</ele>
        <time>2024-03-20T16:14:23Z</time>
      </trkpt>
      <trkpt lat="48.96604" lon="0.26804">
        <ele>130.6</ele>
        <time>2024-03-20T16:14:24Z</time>
      </trkpt>
      <trkpt lat="48.96611" lon="0.26802">
        <ele>130.8</ele>
        <time>2024-03-20T16:14:25Z</time>
      </trkpt>
      <trkpt lat="48.96618" lon="0.26801">
        <ele>131</ele>
        <time>2024-03-20T16:14:26Z</time>
      </trkpt>
      <trkpt lat="48.96627" lon="0.268">
        <ele>131</ele>
        <time>2024-03-20T16:14:27Z</time>
      </trkpt>
      <trkpt lat="48.96634" lon="0.26798">
        <ele>131.2</ele>
        <time>2024-03-20T16:14:28Z</time>
      </trkpt>
      <trkpt lat="48.9664" lon="0.26797">
        <ele>131.4</ele>
        <time>2024-03-20T16:14:29Z</time>
      </trkpt>
      <trkpt lat="48.96649" lon="0.26795">
        <ele>131.4</ele>
        <time>2024-03-20T16:14:30Z</time>
      </trkpt>
      <trkpt lat="48.96655" lon="0.26794">
        <ele>131.4</ele>
        <time>2024-03-20T16:14:31Z</time>
      </trkpt>
      <trkpt lat="48.96662" lon="0.26793">
        <ele>131.6</ele>
        <time>2024-03-20T16:14:32Z</time>
      </trkpt>
      <trkpt lat="48.96671" lon="0.26791">
        <ele>131.6</ele>
        <time>2024-03-20T16:14:33Z</time>
      </trkpt>
      <trkpt lat="48.96677" lon="0.26789">
        <ele>131.6</ele>
        <time>2024-03-20T16:14:34Z</time>
      </trkpt>
      <trkpt lat="48.96686" lon="0.26787">
        <ele>131.6</ele>
        <time>2024-03-20T16:14:35Z</time>
      </trkpt>
      <trkpt lat="48.96693" lon="0.26786">
        <ele>131.6</ele>
        <time>2024-03-20T16:14:36Z</time>
      </trkpt>
      <trkpt lat="48.96699" lon="0.26785">
        <ele>131.6</ele>
        <time>2024-03-20T16:14:37Z</time>
      </trkpt>
      <trkpt lat="48.96707" lon="0.26783">
        <ele>131.6</ele>
        <time>2024-03-20T16:14:38Z</time>
      </trkpt>
      <trkpt lat="48.96716" lon="0.26781">
        <ele>131.6</ele>
        <time>2024-03-20T16:14:39Z</time>
      </trkpt>
      <trkpt lat="48.96722" lon="0.26779">
        <ele>131.6</ele>
        <time>2024-03-20T16:14:40Z</time>
      </trkpt>
      <trkpt lat="48.96729" lon="0.26778">
        <ele>131.6</ele>
        <time>2024-03-20T16:14:41Z</time>
      </trkpt>
      <trkpt lat="48.96737" lon="0.26776">
        <ele>131.4</ele>
        <time>2024-03-20T16:14:42Z</time>
      </trkpt>
      <trkpt lat="48.96744" lon="0.26775">
        <ele>131.4</ele>
        <time>2024-03-20T16:14:43Z</time>
      </trkpt>
      <trkpt lat="48.96752" lon="0.26773">
        <ele>131.2</ele>
        <time>2024-03-20T16:14:44Z</time>
      </trkpt>
      <trkpt lat="48.9676" lon="0.26772">
        <ele>131.2</ele>
        <time>2024-03-20T16:14:45Z</time>
      </trkpt>
      <trkpt lat="48.96767" lon="0.26771">
        <ele>131</ele>
        <time>2024-03-20T16:14:46Z</time>
      </trkpt>
      <trkpt lat="48.96774" lon="0.26769">
        <ele>131</ele>
        <time>2024-03-20T16:14:47Z</time>
      </trkpt>
      <trkpt lat="48.96783" lon="0.26769">
        <ele>131</ele>
        <time>2024-03-20T16:14:48Z</time>
      </trkpt>
      <trkpt lat="48.96789" lon="0.26768">
        <ele>130.6</ele>
        <time>2024-03-20T16:14:49Z</time>
      </trkpt>
      <trkpt lat="48.96797" lon="0.26768">
        <ele>130.4</ele>
        <time>2024-03-20T16:14:50Z</time>
      </trkpt>
      <trkpt lat="48.96805" lon="0.26768">
        <ele>130.2</ele>
        <time>2024-03-20T16:14:51Z</time>
      </trkpt>
      <trkpt lat="48.96812" lon="0.26768">
        <ele>130.2</ele>
        <time>2024-03-20T16:14:52Z</time>
      </trkpt>
      <trkpt lat="48.9682" lon="0.26768">
        <ele>130.2</ele>
        <time>2024-03-20T16:14:53Z</time>
      </trkpt>
      <trkpt lat="48.96827" lon="0.26768">
        <ele>130.2</ele>
        <time>2024-03-20T16:14:54Z</time>
      </trkpt>
      <trkpt lat="48.96835" lon="0.26769">
        <ele>130.2</ele>
        <time>2024-03-20T16:14:55Z</time>
      </trkpt>
      <trkpt lat="48.96843" lon="0.2677">
        <ele>130.2</ele>
        <time>2024-03-20T16:14:56Z</time>
      </trkpt>
      <trkpt lat="48.96851" lon="0.26772">
        <ele>130.2</ele>
        <time>2024-03-20T16:14:57Z</time>
      </trkpt>
      <trkpt lat="48.96858" lon="0.26772">
        <ele>130.2</ele>
        <time>2024-03-20T16:14:58Z</time>
      </trkpt>
      <trkpt lat="48.96865" lon="0.26773">
        <ele>130</ele>
        <time>2024-03-20T16:14:59Z</time>
      </trkpt>
      <trkpt lat="48.96874" lon="0.26774">
        <ele>130</ele>
        <time>2024-03-20T16:15:00Z</time>
      </trkpt>
      <trkpt lat="48.9688" lon="0.26775">
        <ele>130</ele>
        <time>2024-03-20T16:15:01Z</time>
      </trkpt>
      <trkpt lat="48.96888" lon="0.26776">
        <ele>130</ele>
        <time>2024-03-20T16:15:02Z</time>
      </trkpt>
      <trkpt lat="48.96895" lon="0.26776">
        <ele>130</ele>
        <time>2024-03-20T16:15:03Z</time>
      </trkpt>
      <trkpt lat="48.96903" lon="0.26777">
        <ele>130.2</ele>
        <time>2024-03-20T16:15:04Z</time>
      </trkpt>
      <trkpt lat="48.96909" lon="0.26778">
        <ele>130.2</ele>
        <time>2024-03-20T16:15:05Z</time>
      </trkpt>
      <trkpt lat="48.96918" lon="0.26779">
        <ele>130.2</ele>
        <time>2024-03-20T16:15:06Z</time>
      </trkpt>
      <trkpt lat="48.96924" lon="0.26779">
        <ele>130.2</ele>
        <time>2024-03-20T16:15:07Z</time>
      </trkpt>
      <trkpt lat="48.96931" lon="0.2678">
        <ele>130.2</ele>
        <time>2024-03-20T16:15:08Z</time>
      </trkpt>
      <trkpt lat="48.96939" lon="0.26781">
        <ele>130.2</ele>
        <time>2024-03-20T16:15:09Z</time>
      </trkpt>
      <trkpt lat="48.96946" lon="0.26781">
        <ele>130.2</ele>
        <time>2024-03-20T16:15:10Z</time>
      </trkpt>
      <trkpt lat="48.96953" lon="0.26782">
        <ele>130.2</ele>
        <time>2024-03-20T16:15:11Z</time>
      </trkpt>
      <trkpt lat="48.9696" lon="0.26783">
        <ele>130.2</ele>
        <time>2024-03-20T16:15:12Z</time>
      </trkpt>
      <trkpt lat="48.96968" lon="0.26784">
        <ele>130.2</ele>
        <time>2024-03-20T16:15:13Z</time>
      </trkpt>
      <trkpt lat="48.96975" lon="0.26784">
        <ele>130.2</ele>
        <time>2024-03-20T16:15:14Z</time>
      </trkpt>
      <trkpt lat="48.96982" lon="0.26785">
        <ele>130.2</ele>
        <time>2024-03-20T16:15:15Z</time>
      </trkpt>
      <trkpt lat="48.96989" lon="0.26786">
        <ele>130.2</ele>
        <time>2024-03-20T16:15:16Z</time>
      </trkpt>
      <trkpt lat="48.96997" lon="0.26787">
        <ele>130.2</ele>
        <time>2024-03-20T16:15:17Z</time>
      </trkpt>
      <trkpt lat="48.97004" lon="0.26787">
        <ele>130.2</ele>
        <time>2024-03-20T16:15:18Z</time>
      </trkpt>
      <trkpt lat="48.97011" lon="0.26788">
        <ele>130.2</ele>
        <time>2024-03-20T16:15:19Z</time>
      </trkpt>
      <trkpt lat="48.97018" lon="0.26789">
        <ele>130.2</ele>
        <time>2024-03-20T16:15:20Z</time>
      </trkpt>
      <trkpt lat="48.97026" lon="0.2679">
        <ele>130.2</ele>
        <time>2024-03-20T16:15:21Z</time>
      </trkpt>
      <trkpt lat="48.97033" lon="0.2679">
        <ele>130.2</ele>
        <time>2024-03-20T16:15:22Z</time>
      </trkpt>
      <trkpt lat="48.9704" lon="0.2679">
        <ele>130.2</ele>
        <time>2024-03-20T16:15:23Z</time>
      </trkpt>
      <trkpt lat="48.97048" lon="0.26791">
        <ele>130.2</ele>
        <time>2024-03-20T16:15:24Z</time>
      </trkpt>
      <trkpt lat="48.97055" lon="0.26791">
        <ele>130.2</ele>
        <time>2024-03-20T16:15:25Z</time>
      </trkpt>
      <trkpt lat="48.97064" lon="0.26791">
        <ele>130.2</ele>
        <time>2024-03-20T16:15:26Z</time>
      </trkpt>
      <trkpt lat="48.97069" lon="0.26791">
        <ele>130.2</ele>
        <time>2024-03-20T16:15:27Z</time>
      </trkpt>
      <trkpt lat="48.97078" lon="0.26791">
        <ele>130.2</ele>
        <time>2024-03-20T16:15:28Z</time>
      </trkpt>
      <trkpt lat="48.97083" lon="0.2679">
        <ele>130.2</ele>
        <time>2024-03-20T16:15:29Z</time>
      </trkpt>
      <trkpt lat="48.97091" lon="0.2679">
        <ele>130.4</ele>
        <time>2024-03-20T16:15:30Z</time>
      </trkpt>
      <trkpt lat="48.97099" lon="0.26789">
        <ele>130.4</ele>
        <time>2024-03-20T16:15:31Z</time>
      </trkpt>
      <trkpt lat="48.97104" lon="0.26789">
        <ele>130.4</ele>
        <time>2024-03-20T16:15:32Z</time>
      </trkpt>
      <trkpt lat="48.97111" lon="0.26789">
        <ele>130.6</ele>
        <time>2024-03-20T16:15:33Z</time>
      </trkpt>
      <trkpt lat="48.97118" lon="0.26788">
        <ele>130.6</ele>
        <time>2024-03-20T16:15:34Z</time>
      </trkpt>
      <trkpt lat="48.97125" lon="0.26787">
        <ele>130.8</ele>
        <time>2024-03-20T16:15:35Z</time>
      </trkpt>
      <trkpt lat="48.97132" lon="0.26787">
        <ele>130.8</ele>
        <time>2024-03-20T16:15:36Z</time>
      </trkpt>
      <trkpt lat="48.97141" lon="0.26786">
        <ele>130.8</ele>
        <time>2024-03-20T16:15:37Z</time>
      </trkpt>
      <trkpt lat="48.97146" lon="0.26785">
        <ele>130.8</ele>
        <time>2024-03-20T16:15:38Z</time>
      </trkpt>
      <trkpt lat="48.97153" lon="0.26784">
        <ele>130.8</ele>
        <time>2024-03-20T16:15:39Z</time>
      </trkpt>
      <trkpt lat="48.97162" lon="0.26783">
        <ele>130.8</ele>
        <time>2024-03-20T16:15:40Z</time>
      </trkpt>
      <trkpt lat="48.97168" lon="0.26782">
        <ele>130.8</ele>
        <time>2024-03-20T16:15:41Z</time>
      </trkpt>
      <trkpt lat="48.97175" lon="0.26781">
        <ele>131</ele>
        <time>2024-03-20T16:15:42Z</time>
      </trkpt>
      <trkpt lat="48.97182" lon="0.2678">
        <ele>131</ele>
        <time>2024-03-20T16:15:43Z</time>
      </trkpt>
      <trkpt lat="48.97189" lon="0.26779">
        <ele>131</ele>
        <time>2024-03-20T16:15:44Z</time>
      </trkpt>
      <trkpt lat="48.97196" lon="0.26777">
        <ele>131</ele>
        <time>2024-03-20T16:15:45Z</time>
      </trkpt>
      <trkpt lat="48.97204" lon="0.26775">
        <ele>131</ele>
        <time>2024-03-20T16:15:46Z</time>
      </trkpt>
      <trkpt lat="48.9721" lon="0.26774">
        <ele>131.2</ele>
        <time>2024-03-20T16:15:47Z</time>
      </trkpt>
      <trkpt lat="48.97216" lon="0.26772">
        <ele>131.2</ele>
        <time>2024-03-20T16:15:48Z</time>
      </trkpt>
      <trkpt lat="48.97223" lon="0.2677">
        <ele>131.2</ele>
        <time>2024-03-20T16:15:49Z</time>
      </trkpt>
      <trkpt lat="48.9723" lon="0.26769">
        <ele>131.2</ele>
        <time>2024-03-20T16:15:50Z</time>
      </trkpt>
      <trkpt lat="48.97236" lon="0.26767">
        <ele>131.2</ele>
        <time>2024-03-20T16:15:51Z</time>
      </trkpt>
      <trkpt lat="48.97243" lon="0.26765">
        <ele>131.2</ele>
        <time>2024-03-20T16:15:52Z</time>
      </trkpt>
      <trkpt lat="48.9725" lon="0.26764">
        <ele>131.2</ele>
        <time>2024-03-20T16:15:53Z</time>
      </trkpt>
      <trkpt lat="48.97257" lon="0.26762">
        <ele>131.2</ele>
        <time>2024-03-20T16:15:54Z</time>
      </trkpt>
      <trkpt lat="48.97263" lon="0.26759">
        <ele>131.4</ele>
        <time>2024-03-20T16:15:55Z</time>
      </trkpt>
      <trkpt lat="48.9727" lon="0.26758">
        <ele>131.4</ele>
        <time>2024-03-20T16:15:56Z</time>
      </trkpt>
      <trkpt lat="48.97276" lon="0.26756">
        <ele>131.4</ele>
        <time>2024-03-20T16:15:57Z</time>
      </trkpt>
      <trkpt lat="48.97283" lon="0.26754">
        <ele>131.4</ele>
        <time>2024-03-20T16:15:58Z</time>
      </trkpt>
      <trkpt lat="48.97289" lon="0.26752">
        <ele>131.4</ele>
        <time>2024-03-20T16:15:59Z</time>
      </trkpt>
      <trkpt lat="48.97296" lon="0.2675">
        <ele>131.2</ele>
        <time>2024-03-20T16:16:00Z</time>
      </trkpt>
      <trkpt lat="48.97302" lon="0.26749">
        <ele>131.2</ele>
        <time>2024-03-20T16:16:01Z</time>
      </trkpt>
      <trkpt lat="48.97309" lon="0.26748">
        <ele>131.2</ele>
        <time>2024-03-20T16:16:02Z</time>
      </trkpt>
      <trkpt lat="48.97315" lon="0.26746">
        <ele>131.2</ele>
        <time>2024-03-20T16:16:03Z</time>
      </trkpt>
      <trkpt lat="48.97323" lon="0.26745">
        <ele>131.2</ele>
        <time>2024-03-20T16:16:04Z</time>
      </trkpt>
      <trkpt lat="48.97329" lon="0.26744">
        <ele>131.2</ele>
        <time>2024-03-20T16:16:05Z</time>
      </trkpt>
      <trkpt lat="48.97335" lon="0.26742">
        <ele>131.2</ele>
        <time>2024-03-20T16:16:06Z</time>
      </trkpt>
      <trkpt lat="48.97342" lon="0.26741">
        <ele>131.2</ele>
        <time>2024-03-20T16:16:07Z</time>
      </trkpt>
      <trkpt lat="48.97348" lon="0.2674">
        <ele>131.2</ele>
        <time>2024-03-20T16:16:08Z</time>
      </trkpt>
      <trkpt lat="48.97355" lon="0.26738">
        <ele>131.2</ele>
        <time>2024-03-20T16:16:09Z</time>
      </trkpt>
      <trkpt lat="48.97362" lon="0.26737">
        <ele>131.4</ele>
        <time>2024-03-20T16:16:10Z</time>
      </trkpt>
      <trkpt lat="48.97369" lon="0.26736">
        <ele>131.4</ele>
        <time>2024-03-20T16:16:11Z</time>
      </trkpt>
      <trkpt lat="48.97376" lon="0.26736">
        <ele>131.4</ele>
        <time>2024-03-20T16:16:12Z</time>
      </trkpt>
      <trkpt lat="48.97382" lon="0.26735">
        <ele>131.4</ele>
        <time>2024-03-20T16:16:13Z</time>
      </trkpt>
      <trkpt lat="48.97389" lon="0.26735">
        <ele>131.6</ele>
        <time>2024-03-20T16:16:14Z</time>
      </trkpt>
      <trkpt lat="48.97396" lon="0.26734">
        <ele>131.6</ele>
        <time>2024-03-20T16:16:15Z</time>
      </trkpt>
      <trkpt lat="48.97403" lon="0.26734">
        <ele>131.8</ele>
        <time>2024-03-20T16:16:16Z</time>
      </trkpt>
      <trkpt lat="48.9741" lon="0.26733">
        <ele>132</ele>
        <time>2024-03-20T16:16:17Z</time>
      </trkpt>
      <trkpt lat="48.97416" lon="0.26733">
        <ele>132</ele>
        <time>2024-03-20T16:16:18Z</time>
      </trkpt>
      <trkpt lat="48.97425" lon="0.26733">
        <ele>132</ele>
        <time>2024-03-20T16:16:19Z</time>
      </trkpt>
      <trkpt lat="48.9743" lon="0.26733">
        <ele>132.2</ele>
        <time>2024-03-20T16:16:20Z</time>
      </trkpt>
      <trkpt lat="48.97437" lon="0.26733">
        <ele>132.4</ele>
        <time>2024-03-20T16:16:21Z</time>
      </trkpt>
      <trkpt lat="48.97444" lon="0.26733">
        <ele>132.6</ele>
        <time>2024-03-20T16:16:22Z</time>
      </trkpt>
      <trkpt lat="48.97452" lon="0.26733">
        <ele>132.8</ele>
        <time>2024-03-20T16:16:23Z</time>
      </trkpt>
      <trkpt lat="48.97459" lon="0.26733">
        <ele>133</ele>
        <time>2024-03-20T16:16:24Z</time>
      </trkpt>
      <trkpt lat="48.97466" lon="0.26733">
        <ele>133</ele>
        <time>2024-03-20T16:16:25Z</time>
      </trkpt>
      <trkpt lat="48.97473" lon="0.26733">
        <ele>133</ele>
        <time>2024-03-20T16:16:26Z</time>
      </trkpt>
      <trkpt lat="48.97481" lon="0.26733">
        <ele>133</ele>
        <time>2024-03-20T16:16:27Z</time>
      </trkpt>
      <trkpt lat="48.97488" lon="0.26733">
        <ele>133</ele>
        <time>2024-03-20T16:16:28Z</time>
      </trkpt>
      <trkpt lat="48.97497" lon="0.26734">
        <ele>133.2</ele>
        <time>2024-03-20T16:16:29Z</time>
      </trkpt>
      <trkpt lat="48.97503" lon="0.26734">
        <ele>133.2</ele>
        <time>2024-03-20T16:16:30Z</time>
      </trkpt>
      <trkpt lat="48.97513" lon="0.26734">
        <ele>133.2</ele>
        <time>2024-03-20T16:16:31Z</time>
      </trkpt>
      <trkpt lat="48.97518" lon="0.26734">
        <ele>133.2</ele>
        <time>2024-03-20T16:16:32Z</time>
      </trkpt>
      <trkpt lat="48.97526" lon="0.26734">
        <ele>133.2</ele>
        <time>2024-03-20T16:16:33Z</time>
      </trkpt>
      <trkpt lat="48.97534" lon="0.26734">
        <ele>133.2</ele>
        <time>2024-03-20T16:16:34Z</time>
      </trkpt>
      <trkpt lat="48.97542" lon="0.26735">
        <ele>133.2</ele>
        <time>2024-03-20T16:16:35Z</time>
      </trkpt>
      <trkpt lat="48.9755" lon="0.26735">
        <ele>133.2</ele>
        <time>2024-03-20T16:16:36Z</time>
      </trkpt>
      <trkpt lat="48.9756" lon="0.26735">
        <ele>133</ele>
        <time>2024-03-20T16:16:37Z</time>
      </trkpt>
      <trkpt lat="48.97567" lon="0.26734">
        <ele>133</ele>
        <time>2024-03-20T16:16:38Z</time>
      </trkpt>
      <trkpt lat="48.97576" lon="0.26733">
        <ele>133</ele>
        <time>2024-03-20T16:16:39Z</time>
      </trkpt>
      <trkpt lat="48.97587" lon="0.2673">
        <ele>133</ele>
        <time>2024-03-20T16:16:40Z</time>
      </trkpt>
      <trkpt lat="48.97595" lon="0.26727">
        <ele>132.6</ele>
        <time>2024-03-20T16:16:41Z</time>
      </trkpt>
      <trkpt lat="48.97605" lon="0.26723">
        <ele>132.4</ele>
        <time>2024-03-20T16:16:42Z</time>
      </trkpt>
      <trkpt lat="48.97616" lon="0.26717">
        <ele>132.2</ele>
        <time>2024-03-20T16:16:43Z</time>
      </trkpt>
      <trkpt lat="48.97624" lon="0.26712">
        <ele>132</ele>
        <time>2024-03-20T16:16:44Z</time>
      </trkpt>
      <trkpt lat="48.97633" lon="0.26707">
        <ele>131.6</ele>
        <time>2024-03-20T16:16:45Z</time>
      </trkpt>
      <trkpt lat="48.97644" lon="0.26701">
        <ele>131</ele>
        <time>2024-03-20T16:16:46Z</time>
      </trkpt>
      <trkpt lat="48.97654" lon="0.26695">
        <ele>130.2</ele>
        <time>2024-03-20T16:16:47Z</time>
      </trkpt>
      <trkpt lat="48.97663" lon="0.26689">
        <ele>130.2</ele>
        <time>2024-03-20T16:16:48Z</time>
      </trkpt>
      <trkpt lat="48.97672" lon="0.26684">
        <ele>129.2</ele>
        <time>2024-03-20T16:16:49Z</time>
      </trkpt>
      <trkpt lat="48.97681" lon="0.26679">
        <ele>128.2</ele>
        <time>2024-03-20T16:16:50Z</time>
      </trkpt>
      <trkpt lat="48.97689" lon="0.26674">
        <ele>127.4</ele>
        <time>2024-03-20T16:16:51Z</time>
      </trkpt>
      <trkpt lat="48.97697" lon="0.2667">
        <ele>126.6</ele>
        <time>2024-03-20T16:16:52Z</time>
      </trkpt>
      <trkpt lat="48.97704" lon="0.26665">
        <ele>126</ele>
        <time>2024-03-20T16:16:53Z</time>
      </trkpt>
      <trkpt lat="48.97712" lon="0.26661">
        <ele>125.4</ele>
        <time>2024-03-20T16:16:54Z</time>
      </trkpt>
      <trkpt lat="48.97718" lon="0.26657">
        <ele>125.2</ele>
        <time>2024-03-20T16:16:55Z</time>
      </trkpt>
      <trkpt lat="48.97725" lon="0.26653">
        <ele>125</ele>
        <time>2024-03-20T16:16:56Z</time>
      </trkpt>
      <trkpt lat="48.97731" lon="0.26649">
        <ele>125</ele>
        <time>2024-03-20T16:16:57Z</time>
      </trkpt>
      <trkpt lat="48.97737" lon="0.26646">
        <ele>125</ele>
        <time>2024-03-20T16:16:58Z</time>
      </trkpt>
      <trkpt lat="48.97744" lon="0.26642">
        <ele>125</ele>
        <time>2024-03-20T16:16:59Z</time>
      </trkpt>
      <trkpt lat="48.9775" lon="0.26639">
        <ele>125</ele>
        <time>2024-03-20T16:17:00Z</time>
      </trkpt>
      <trkpt lat="48.97756" lon="0.26635">
        <ele>125</ele>
        <time>2024-03-20T16:17:01Z</time>
      </trkpt>
      <trkpt lat="48.97761" lon="0.26632">
        <ele>125</ele>
        <time>2024-03-20T16:17:02Z</time>
      </trkpt>
      <trkpt lat="48.97766" lon="0.26628">
        <ele>125</ele>
        <time>2024-03-20T16:17:03Z</time>
      </trkpt>
      <trkpt lat="48.97772" lon="0.26625">
        <ele>125.2</ele>
        <time>2024-03-20T16:17:04Z</time>
      </trkpt>
      <trkpt lat="48.97778" lon="0.26622">
        <ele>125.8</ele>
        <time>2024-03-20T16:17:05Z</time>
      </trkpt>
      <trkpt lat="48.97783" lon="0.26619">
        <ele>126.2</ele>
        <time>2024-03-20T16:17:06Z</time>
      </trkpt>
      <trkpt lat="48.97788" lon="0.26616">
        <ele>126.6</ele>
        <time>2024-03-20T16:17:07Z</time>
      </trkpt>
      <trkpt lat="48.97793" lon="0.26613">
        <ele>127</ele>
        <time>2024-03-20T16:17:08Z</time>
      </trkpt>
      <trkpt lat="48.97799" lon="0.2661">
        <ele>127.4</ele>
        <time>2024-03-20T16:17:09Z</time>
      </trkpt>
      <trkpt lat="48.97805" lon="0.26607">
        <ele>127.8</ele>
        <time>2024-03-20T16:17:10Z</time>
      </trkpt>
      <trkpt lat="48.97809" lon="0.26605">
        <ele>127.8</ele>
        <time>2024-03-20T16:17:11Z</time>
      </trkpt>
      <trkpt lat="48.97815" lon="0.26602">
        <ele>128.2</ele>
        <time>2024-03-20T16:17:12Z</time>
      </trkpt>
      <trkpt lat="48.97819" lon="0.266">
        <ele>128.8</ele>
        <time>2024-03-20T16:17:13Z</time>
      </trkpt>
      <trkpt lat="48.97825" lon="0.26597">
        <ele>129.2</ele>
        <time>2024-03-20T16:17:14Z</time>
      </trkpt>
      <trkpt lat="48.9783" lon="0.26594">
        <ele>129.6</ele>
        <time>2024-03-20T16:17:15Z</time>
      </trkpt>
      <trkpt lat="48.97836" lon="0.26591">
        <ele>129.8</ele>
        <time>2024-03-20T16:17:16Z</time>
      </trkpt>
      <trkpt lat="48.97841" lon="0.26588">
        <ele>130.4</ele>
        <time>2024-03-20T16:17:17Z</time>
      </trkpt>
      <trkpt lat="48.97848" lon="0.26585">
        <ele>130.8</ele>
        <time>2024-03-20T16:17:18Z</time>
      </trkpt>
      <trkpt lat="48.97852" lon="0.26583">
        <ele>131.2</ele>
        <time>2024-03-20T16:17:19Z</time>
      </trkpt>
      <trkpt lat="48.97858" lon="0.26581">
        <ele>131.8</ele>
        <time>2024-03-20T16:17:20Z</time>
      </trkpt>
      <trkpt lat="48.97863" lon="0.26579">
        <ele>132.2</ele>
        <time>2024-03-20T16:17:21Z</time>
      </trkpt>
      <trkpt lat="48.97869" lon="0.26577">
        <ele>132.8</ele>
        <time>2024-03-20T16:17:22Z</time>
      </trkpt>
      <trkpt lat="48.97874" lon="0.26574">
        <ele>133.2</ele>
        <time>2024-03-20T16:17:23Z</time>
      </trkpt>
      <trkpt lat="48.97881" lon="0.26571">
        <ele>133.6</ele>
        <time>2024-03-20T16:17:24Z</time>
      </trkpt>
      <trkpt lat="48.97886" lon="0.26569">
        <ele>133.8</ele>
        <time>2024-03-20T16:17:25Z</time>
      </trkpt>
      <trkpt lat="48.97892" lon="0.26567">
        <ele>134</ele>
        <time>2024-03-20T16:17:26Z</time>
      </trkpt>
      <trkpt lat="48.97898" lon="0.26564">
        <ele>134.2</ele>
        <time>2024-03-20T16:17:27Z</time>
      </trkpt>
      <trkpt lat="48.97904" lon="0.26561">
        <ele>134.4</ele>
        <time>2024-03-20T16:17:28Z</time>
      </trkpt>
      <trkpt lat="48.97911" lon="0.26559">
        <ele>134.4</ele>
        <time>2024-03-20T16:17:29Z</time>
      </trkpt>
      <trkpt lat="48.97917" lon="0.26556">
        <ele>134.6</ele>
        <time>2024-03-20T16:17:30Z</time>
      </trkpt>
      <trkpt lat="48.97923" lon="0.26553">
        <ele>134.6</ele>
        <time>2024-03-20T16:17:31Z</time>
      </trkpt>
      <trkpt lat="48.97929" lon="0.2655">
        <ele>134.6</ele>
        <time>2024-03-20T16:17:32Z</time>
      </trkpt>
      <trkpt lat="48.97936" lon="0.26548">
        <ele>134.6</ele>
        <time>2024-03-20T16:17:33Z</time>
      </trkpt>
      <trkpt lat="48.97943" lon="0.26546">
        <ele>134.6</ele>
        <time>2024-03-20T16:17:34Z</time>
      </trkpt>
      <trkpt lat="48.9795" lon="0.26543">
        <ele>134.6</ele>
        <time>2024-03-20T16:17:35Z</time>
      </trkpt>
      <trkpt lat="48.97957" lon="0.2654">
        <ele>134.6</ele>
        <time>2024-03-20T16:17:36Z</time>
      </trkpt>
      <trkpt lat="48.97964" lon="0.26537">
        <ele>134.6</ele>
        <time>2024-03-20T16:17:37Z</time>
      </trkpt>
      <trkpt lat="48.97971" lon="0.26534">
        <ele>134.6</ele>
        <time>2024-03-20T16:17:38Z</time>
      </trkpt>
      <trkpt lat="48.97979" lon="0.26531">
        <ele>134.4</ele>
        <time>2024-03-20T16:17:39Z</time>
      </trkpt>
      <trkpt lat="48.97986" lon="0.26528">
        <ele>134.2</ele>
        <time>2024-03-20T16:17:40Z</time>
      </trkpt>
      <trkpt lat="48.97994" lon="0.26524">
        <ele>134.2</ele>
        <time>2024-03-20T16:17:41Z</time>
      </trkpt>
      <trkpt lat="48.98002" lon="0.26521">
        <ele>134</ele>
        <time>2024-03-20T16:17:42Z</time>
      </trkpt>
      <trkpt lat="48.9801" lon="0.26517">
        <ele>134</ele>
        <time>2024-03-20T16:17:43Z</time>
      </trkpt>
      <trkpt lat="48.98018" lon="0.26514">
        <ele>133.8</ele>
        <time>2024-03-20T16:17:44Z</time>
      </trkpt>
      <trkpt lat="48.98027" lon="0.2651">
        <ele>133.8</ele>
        <time>2024-03-20T16:17:45Z</time>
      </trkpt>
      <trkpt lat="48.98035" lon="0.26506">
        <ele>133.8</ele>
        <time>2024-03-20T16:17:46Z</time>
      </trkpt>
      <trkpt lat="48.98044" lon="0.26503">
        <ele>133.8</ele>
        <time>2024-03-20T16:17:47Z</time>
      </trkpt>
      <trkpt lat="48.98053" lon="0.26499">
        <ele>133.6</ele>
        <time>2024-03-20T16:17:48Z</time>
      </trkpt>
      <trkpt lat="48.98062" lon="0.26495">
        <ele>133.4</ele>
        <time>2024-03-20T16:17:49Z</time>
      </trkpt>
      <trkpt lat="48.98072" lon="0.26491">
        <ele>133</ele>
        <time>2024-03-20T16:17:50Z</time>
      </trkpt>
      <trkpt lat="48.98081" lon="0.26487">
        <ele>132.4</ele>
        <time>2024-03-20T16:17:51Z</time>
      </trkpt>
      <trkpt lat="48.9809" lon="0.26483">
        <ele>131.8</ele>
        <time>2024-03-20T16:17:52Z</time>
      </trkpt>
      <trkpt lat="48.98099" lon="0.26479">
        <ele>131.2</ele>
        <time>2024-03-20T16:17:53Z</time>
      </trkpt>
      <trkpt lat="48.98109" lon="0.26475">
        <ele>130.6</ele>
        <time>2024-03-20T16:17:54Z</time>
      </trkpt>
      <trkpt lat="48.98118" lon="0.26471">
        <ele>129.8</ele>
        <time>2024-03-20T16:17:55Z</time>
      </trkpt>
      <trkpt lat="48.98128" lon="0.26467">
        <ele>129.8</ele>
        <time>2024-03-20T16:17:56Z</time>
      </trkpt>
      <trkpt lat="48.98138" lon="0.26463">
        <ele>129.2</ele>
        <time>2024-03-20T16:17:57Z</time>
      </trkpt>
      <trkpt lat="48.98148" lon="0.26459">
        <ele>128.6</ele>
        <time>2024-03-20T16:17:58Z</time>
      </trkpt>
      <trkpt lat="48.98158" lon="0.26455">
        <ele>128</ele>
        <time>2024-03-20T16:17:59Z</time>
      </trkpt>
      <trkpt lat="48.98167" lon="0.26452">
        <ele>127.4</ele>
        <time>2024-03-20T16:18:00Z</time>
      </trkpt>
      <trkpt lat="48.98176" lon="0.26448">
        <ele>126.8</ele>
        <time>2024-03-20T16:18:01Z</time>
      </trkpt>
      <trkpt lat="48.98185" lon="0.26444">
        <ele>126.2</ele>
        <time>2024-03-20T16:18:02Z</time>
      </trkpt>
      <trkpt lat="48.98194" lon="0.2644">
        <ele>125.6</ele>
        <time>2024-03-20T16:18:03Z</time>
      </trkpt>
      <trkpt lat="48.98202" lon="0.26437">
        <ele>125</ele>
        <time>2024-03-20T16:18:04Z</time>
      </trkpt>
      <trkpt lat="48.98211" lon="0.26434">
        <ele>124.6</ele>
        <time>2024-03-20T16:18:05Z</time>
      </trkpt>
      <trkpt lat="48.98219" lon="0.2643">
        <ele>124.2</ele>
        <time>2024-03-20T16:18:06Z</time>
      </trkpt>
      <trkpt lat="48.98227" lon="0.26427">
        <ele>124</ele>
        <time>2024-03-20T16:18:07Z</time>
      </trkpt>
      <trkpt lat="48.98234" lon="0.26424">
        <ele>124</ele>
        <time>2024-03-20T16:18:08Z</time>
      </trkpt>
      <trkpt lat="48.98242" lon="0.2642">
        <ele>124</ele>
        <time>2024-03-20T16:18:09Z</time>
      </trkpt>
      <trkpt lat="48.9825" lon="0.26417">
        <ele>123.8</ele>
        <time>2024-03-20T16:18:10Z</time>
      </trkpt>
      <trkpt lat="48.98257" lon="0.26414">
        <ele>123.8</ele>
        <time>2024-03-20T16:18:11Z</time>
      </trkpt>
      <trkpt lat="48.98264" lon="0.26411">
        <ele>123.8</ele>
        <time>2024-03-20T16:18:12Z</time>
      </trkpt>
      <trkpt lat="48.98271" lon="0.26408">
        <ele>123.8</ele>
        <time>2024-03-20T16:18:13Z</time>
      </trkpt>
      <trkpt lat="48.98278" lon="0.26405">
        <ele>123.8</ele>
        <time>2024-03-20T16:18:14Z</time>
      </trkpt>
      <trkpt lat="48.98285" lon="0.26402">
        <ele>123.8</ele>
        <time>2024-03-20T16:18:15Z</time>
      </trkpt>
      <trkpt lat="48.98292" lon="0.26399">
        <ele>124</ele>
        <time>2024-03-20T16:18:16Z</time>
      </trkpt>
      <trkpt lat="48.98299" lon="0.26397">
        <ele>124</ele>
        <time>2024-03-20T16:18:17Z</time>
      </trkpt>
      <trkpt lat="48.98305" lon="0.26395">
        <ele>124</ele>
        <time>2024-03-20T16:18:18Z</time>
      </trkpt>
      <trkpt lat="48.98312" lon="0.26392">
        <ele>124</ele>
        <time>2024-03-20T16:18:19Z</time>
      </trkpt>
      <trkpt lat="48.98319" lon="0.26389">
        <ele>124.2</ele>
        <time>2024-03-20T16:18:20Z</time>
      </trkpt>
      <trkpt lat="48.98325" lon="0.26386">
        <ele>124.4</ele>
        <time>2024-03-20T16:18:21Z</time>
      </trkpt>
      <trkpt lat="48.98333" lon="0.26383">
        <ele>124.6</ele>
        <time>2024-03-20T16:18:22Z</time>
      </trkpt>
      <trkpt lat="48.9834" lon="0.2638">
        <ele>125</ele>
        <time>2024-03-20T16:18:23Z</time>
      </trkpt>
      <trkpt lat="48.98348" lon="0.26377">
        <ele>125.2</ele>
        <time>2024-03-20T16:18:24Z</time>
      </trkpt>
      <trkpt lat="48.98355" lon="0.26374">
        <ele>125.4</ele>
        <time>2024-03-20T16:18:25Z</time>
      </trkpt>
      <trkpt lat="48.98363" lon="0.26371">
        <ele>125.4</ele>
        <time>2024-03-20T16:18:26Z</time>
      </trkpt>
      <trkpt lat="48.98371" lon="0.26368">
        <ele>125.4</ele>
        <time>2024-03-20T16:18:27Z</time>
      </trkpt>
      <trkpt lat="48.98379" lon="0.26365">
        <ele>125.4</ele>
        <time>2024-03-20T16:18:28Z</time>
      </trkpt>
      <trkpt lat="48.98387" lon="0.26362">
        <ele>125.4</ele>
        <time>2024-03-20T16:18:29Z</time>
      </trkpt>
      <trkpt lat="48.98395" lon="0.26358">
        <ele>125.4</ele>
        <time>2024-03-20T16:18:30Z</time>
      </trkpt>
      <trkpt lat="48.98402" lon="0.26355">
        <ele>125.4</ele>
        <time>2024-03-20T16:18:31Z</time>
      </trkpt>
      <trkpt lat="48.9841" lon="0.26352">
        <ele>125.4</ele>
        <time>2024-03-20T16:18:32Z</time>
      </trkpt>
      <trkpt lat="48.98418" lon="0.26348">
        <ele>125.4</ele>
        <time>2024-03-20T16:18:33Z</time>
      </trkpt>
      <trkpt lat="48.98426" lon="0.26345">
        <ele>125.4</ele>
        <time>2024-03-20T16:18:34Z</time>
      </trkpt>
      <trkpt lat="48.98434" lon="0.26341">
        <ele>125.4</ele>
        <time>2024-03-20T16:18:35Z</time>
      </trkpt>
      <trkpt lat="48.98442" lon="0.26338">
        <ele>125.2</ele>
        <time>2024-03-20T16:18:36Z</time>
      </trkpt>
      <trkpt lat="48.9845" lon="0.26335">
        <ele>125.2</ele>
        <time>2024-03-20T16:18:37Z</time>
      </trkpt>
      <trkpt lat="48.98458" lon="0.26332">
        <ele>125.2</ele>
        <time>2024-03-20T16:18:38Z</time>
      </trkpt>
      <trkpt lat="48.98466" lon="0.26328">
        <ele>125</ele>
        <time>2024-03-20T16:18:39Z</time>
      </trkpt>
      <trkpt lat="48.98474" lon="0.26325">
        <ele>124.8</ele>
        <time>2024-03-20T16:18:40Z</time>
      </trkpt>
      <trkpt lat="48.98482" lon="0.26322">
        <ele>124.8</ele>
        <time>2024-03-20T16:18:41Z</time>
      </trkpt>
      <trkpt lat="48.98491" lon="0.26318">
        <ele>124.4</ele>
        <time>2024-03-20T16:18:42Z</time>
      </trkpt>
      <trkpt lat="48.98499" lon="0.26315">
        <ele>124.2</ele>
        <time>2024-03-20T16:18:43Z</time>
      </trkpt>
      <trkpt lat="48.98507" lon="0.26312">
        <ele>124</ele>
        <time>2024-03-20T16:18:44Z</time>
      </trkpt>
      <trkpt lat="48.98515" lon="0.26308">
        <ele>124</ele>
        <time>2024-03-20T16:18:45Z</time>
      </trkpt>
      <trkpt lat="48.98523" lon="0.26305">
        <ele>123.8</ele>
        <time>2024-03-20T16:18:46Z</time>
      </trkpt>
      <trkpt lat="48.98531" lon="0.26302">
        <ele>123.8</ele>
        <time>2024-03-20T16:18:47Z</time>
      </trkpt>
      <trkpt lat="48.98539" lon="0.26298">
        <ele>123.6</ele>
        <time>2024-03-20T16:18:48Z</time>
      </trkpt>
      <trkpt lat="48.98547" lon="0.26295">
        <ele>123.2</ele>
        <time>2024-03-20T16:18:49Z</time>
      </trkpt>
      <trkpt lat="48.98555" lon="0.26292">
        <ele>122.8</ele>
        <time>2024-03-20T16:18:50Z</time>
      </trkpt>
      <trkpt lat="48.98563" lon="0.26289">
        <ele>122.8</ele>
        <time>2024-03-20T16:18:51Z</time>
      </trkpt>
      <trkpt lat="48.98571" lon="0.26285">
        <ele>123</ele>
        <time>2024-03-20T16:18:52Z</time>
      </trkpt>
      <trkpt lat="48.9858" lon="0.26282">
        <ele>122.8</ele>
        <time>2024-03-20T16:18:53Z</time>
      </trkpt>
      <trkpt lat="48.98588" lon="0.26279">
        <ele>122.6</ele>
        <time>2024-03-20T16:18:54Z</time>
      </trkpt>
      <trkpt lat="48.98596" lon="0.26275">
        <ele>122.6</ele>
        <time>2024-03-20T16:18:55Z</time>
      </trkpt>
      <trkpt lat="48.98604" lon="0.26272">
        <ele>122.4</ele>
        <time>2024-03-20T16:18:56Z</time>
      </trkpt>
      <trkpt lat="48.98612" lon="0.26269">
        <ele>121.6</ele>
        <time>2024-03-20T16:18:57Z</time>
      </trkpt>
      <trkpt lat="48.9862" lon="0.26265">
        <ele>121.4</ele>
        <time>2024-03-20T16:18:58Z</time>
      </trkpt>
      <trkpt lat="48.98629" lon="0.26262">
        <ele>121.2</ele>
        <time>2024-03-20T16:18:59Z</time>
      </trkpt>
      <trkpt lat="48.98637" lon="0.26259">
        <ele>121</ele>
        <time>2024-03-20T16:19:00Z</time>
      </trkpt>
      <trkpt lat="48.98646" lon="0.26255">
        <ele>120.8</ele>
        <time>2024-03-20T16:19:01Z</time>
      </trkpt>
      <trkpt lat="48.98654" lon="0.26251">
        <ele>120.6</ele>
        <time>2024-03-20T16:19:02Z</time>
      </trkpt>
      <trkpt lat="48.98662" lon="0.26248">
        <ele>120.4</ele>
        <time>2024-03-20T16:19:03Z</time>
      </trkpt>
      <trkpt lat="48.98671" lon="0.26244">
        <ele>120.4</ele>
        <time>2024-03-20T16:19:04Z</time>
      </trkpt>
      <trkpt lat="48.9868" lon="0.26241">
        <ele>120.4</ele>
        <time>2024-03-20T16:19:05Z</time>
      </trkpt>
      <trkpt lat="48.98688" lon="0.26237">
        <ele>120.4</ele>
        <time>2024-03-20T16:19:06Z</time>
      </trkpt>
      <trkpt lat="48.98697" lon="0.26234">
        <ele>120.4</ele>
        <time>2024-03-20T16:19:07Z</time>
      </trkpt>
      <trkpt lat="48.98705" lon="0.26231">
        <ele>120.2</ele>
        <time>2024-03-20T16:19:08Z</time>
      </trkpt>
      <trkpt lat="48.98714" lon="0.26227">
        <ele>120.2</ele>
        <time>2024-03-20T16:19:09Z</time>
      </trkpt>
      <trkpt lat="48.98723" lon="0.26224">
        <ele>119.8</ele>
        <time>2024-03-20T16:19:10Z</time>
      </trkpt>
      <trkpt lat="48.98732" lon="0.2622">
        <ele>119.4</ele>
        <time>2024-03-20T16:19:11Z</time>
      </trkpt>
      <trkpt lat="48.98742" lon="0.26216">
        <ele>119</ele>
        <time>2024-03-20T16:19:12Z</time>
      </trkpt>
      <trkpt lat="48.98749" lon="0.26213">
        <ele>118.6</ele>
        <time>2024-03-20T16:19:13Z</time>
      </trkpt>
      <trkpt lat="48.98758" lon="0.2621">
        <ele>118.4</ele>
        <time>2024-03-20T16:19:14Z</time>
      </trkpt>
      <trkpt lat="48.98766" lon="0.26207">
        <ele>118.4</ele>
        <time>2024-03-20T16:19:15Z</time>
      </trkpt>
      <trkpt lat="48.98775" lon="0.26204">
        <ele>118.2</ele>
        <time>2024-03-20T16:19:16Z</time>
      </trkpt>
      <trkpt lat="48.98783" lon="0.26202">
        <ele>117.8</ele>
        <time>2024-03-20T16:19:17Z</time>
      </trkpt>
      <trkpt lat="48.98792" lon="0.262">
        <ele>117.4</ele>
        <time>2024-03-20T16:19:18Z</time>
      </trkpt>
      <trkpt lat="48.988" lon="0.26199">
        <ele>117.2</ele>
        <time>2024-03-20T16:19:19Z</time>
      </trkpt>
      <trkpt lat="48.98808" lon="0.26199">
        <ele>116.8</ele>
        <time>2024-03-20T16:19:20Z</time>
      </trkpt>
      <trkpt lat="48.98815" lon="0.26198">
        <ele>116.6</ele>
        <time>2024-03-20T16:19:21Z</time>
      </trkpt>
      <trkpt lat="48.98823" lon="0.26197">
        <ele>116.6</ele>
        <time>2024-03-20T16:19:22Z</time>
      </trkpt>
      <trkpt lat="48.98831" lon="0.26197">
        <ele>116.4</ele>
        <time>2024-03-20T16:19:23Z</time>
      </trkpt>
      <trkpt lat="48.9884" lon="0.26196">
        <ele>116.4</ele>
        <time>2024-03-20T16:19:24Z</time>
      </trkpt>
      <trkpt lat="48.98846" lon="0.26196">
        <ele>116.4</ele>
        <time>2024-03-20T16:19:25Z</time>
      </trkpt>
      <trkpt lat="48.98854" lon="0.26195">
        <ele>116.4</ele>
        <time>2024-03-20T16:19:26Z</time>
      </trkpt>
      <trkpt lat="48.98862" lon="0.26195">
        <ele>116.4</ele>
        <time>2024-03-20T16:19:27Z</time>
      </trkpt>
      <trkpt lat="48.98868" lon="0.26196">
        <ele>116.4</ele>
        <time>2024-03-20T16:19:28Z</time>
      </trkpt>
      <trkpt lat="48.98875" lon="0.26196">
        <ele>116.4</ele>
        <time>2024-03-20T16:19:29Z</time>
      </trkpt>
      <trkpt lat="48.98883" lon="0.26196">
        <ele>116.4</ele>
        <time>2024-03-20T16:19:30Z</time>
      </trkpt>
      <trkpt lat="48.9889" lon="0.26195">
        <ele>116.4</ele>
        <time>2024-03-20T16:19:31Z</time>
      </trkpt>
      <trkpt lat="48.98897" lon="0.26195">
        <ele>116.4</ele>
        <time>2024-03-20T16:19:32Z</time>
      </trkpt>
      <trkpt lat="48.98904" lon="0.26194">
        <ele>116.4</ele>
        <time>2024-03-20T16:19:33Z</time>
      </trkpt>
      <trkpt lat="48.98911" lon="0.26194">
        <ele>116.6</ele>
        <time>2024-03-20T16:19:34Z</time>
      </trkpt>
      <trkpt lat="48.98917" lon="0.26193">
        <ele>116.8</ele>
        <time>2024-03-20T16:19:35Z</time>
      </trkpt>
      <trkpt lat="48.98924" lon="0.26193">
        <ele>117</ele>
        <time>2024-03-20T16:19:36Z</time>
      </trkpt>
      <trkpt lat="48.9893" lon="0.26193">
        <ele>117.2</ele>
        <time>2024-03-20T16:19:37Z</time>
      </trkpt>
      <trkpt lat="48.98937" lon="0.26193">
        <ele>117.2</ele>
        <time>2024-03-20T16:19:38Z</time>
      </trkpt>
      <trkpt lat="48.98944" lon="0.26194">
        <ele>117.4</ele>
        <time>2024-03-20T16:19:39Z</time>
      </trkpt>
      <trkpt lat="48.98951" lon="0.26194">
        <ele>117.4</ele>
        <time>2024-03-20T16:19:40Z</time>
      </trkpt>
      <trkpt lat="48.98958" lon="0.26194">
        <ele>117.6</ele>
        <time>2024-03-20T16:19:41Z</time>
      </trkpt>
      <trkpt lat="48.98965" lon="0.26194">
        <ele>117.4</ele>
        <time>2024-03-20T16:19:42Z</time>
      </trkpt>
      <trkpt lat="48.98972" lon="0.26194">
        <ele>117.6</ele>
        <time>2024-03-20T16:19:43Z</time>
      </trkpt>
      <trkpt lat="48.98979" lon="0.26194">
        <ele>117.8</ele>
        <time>2024-03-20T16:19:44Z</time>
      </trkpt>
      <trkpt lat="48.98986" lon="0.26193">
        <ele>118</ele>
        <time>2024-03-20T16:19:45Z</time>
      </trkpt>
      <trkpt lat="48.98993" lon="0.26193">
        <ele>118.2</ele>
        <time>2024-03-20T16:19:46Z</time>
      </trkpt>
      <trkpt lat="48.99" lon="0.26193">
        <ele>118.2</ele>
        <time>2024-03-20T16:19:47Z</time>
      </trkpt>
      <trkpt lat="48.99007" lon="0.26192">
        <ele>118.4</ele>
        <time>2024-03-20T16:19:48Z</time>
      </trkpt>
      <trkpt lat="48.99015" lon="0.26192">
        <ele>118.4</ele>
        <time>2024-03-20T16:19:49Z</time>
      </trkpt>
      <trkpt lat="48.9902" lon="0.26192">
        <ele>118.4</ele>
        <time>2024-03-20T16:19:50Z</time>
      </trkpt>
      <trkpt lat="48.99028" lon="0.26192">
        <ele>118.4</ele>
        <time>2024-03-20T16:19:51Z</time>
      </trkpt>
      <trkpt lat="48.99033" lon="0.26192">
        <ele>118.6</ele>
        <time>2024-03-20T16:19:52Z</time>
      </trkpt>
      <trkpt lat="48.9904" lon="0.26192">
        <ele>118.6</ele>
        <time>2024-03-20T16:19:53Z</time>
      </trkpt>
      <trkpt lat="48.99047" lon="0.26192">
        <ele>118.6</ele>
        <time>2024-03-20T16:19:54Z</time>
      </trkpt>
      <trkpt lat="48.99052" lon="0.26192">
        <ele>118.6</ele>
        <time>2024-03-20T16:19:55Z</time>
      </trkpt>
      <trkpt lat="48.99055" lon="0.26191">
        <ele>118.6</ele>
        <time>2024-03-20T16:19:56Z</time>
      </trkpt>
      <trkpt lat="48.99059" lon="0.26191">
        <ele>118.6</ele>
        <time>2024-03-20T16:19:57Z</time>
      </trkpt>
      <trkpt lat="48.99062" lon="0.26191">
        <ele>118.6</ele>
        <time>2024-03-20T16:19:58Z</time>
      </trkpt>
      <trkpt lat="48.99065" lon="0.2619">
        <ele>118.8</ele>
        <time>2024-03-20T16:19:59Z</time>
      </trkpt>
      <trkpt lat="48.99067" lon="0.2619">
        <ele>118.8</ele>
        <time>2024-03-20T16:20:00Z</time>
      </trkpt>
      <trkpt lat="48.99069" lon="0.26189">
        <ele>118.8</ele>
        <time>2024-03-20T16:20:01Z</time>
      </trkpt>
      <trkpt lat="48.99071" lon="0.26188">
        <ele>118.8</ele>
        <time>2024-03-20T16:20:02Z</time>
      </trkpt>
      <trkpt lat="48.99073" lon="0.26186">
        <ele>118.8</ele>
        <time>2024-03-20T16:20:03Z</time>
      </trkpt>
      <trkpt lat="48.99075" lon="0.26184">
        <ele>119</ele>
        <time>2024-03-20T16:20:04Z</time>
      </trkpt>
      <trkpt lat="48.99077" lon="0.26182">
        <ele>119</ele>
        <time>2024-03-20T16:20:05Z</time>
      </trkpt>
      <trkpt lat="48.9908" lon="0.2618">
        <ele>119.2</ele>
        <time>2024-03-20T16:20:06Z</time>
      </trkpt>
      <trkpt lat="48.99082" lon="0.26178">
        <ele>119.2</ele>
        <time>2024-03-20T16:20:07Z</time>
      </trkpt>
      <trkpt lat="48.99085" lon="0.26175">
        <ele>119.4</ele>
        <time>2024-03-20T16:20:08Z</time>
      </trkpt>
      <trkpt lat="48.99089" lon="0.26172">
        <ele>119.4</ele>
        <time>2024-03-20T16:20:09Z</time>
      </trkpt>
      <trkpt lat="48.99092" lon="0.2617">
        <ele>119.4</ele>
        <time>2024-03-20T16:20:10Z</time>
      </trkpt>
      <trkpt lat="48.99096" lon="0.26167">
        <ele>119.4</ele>
        <time>2024-03-20T16:20:11Z</time>
      </trkpt>
      <trkpt lat="48.991" lon="0.26166">
        <ele>119.4</ele>
        <time>2024-03-20T16:20:12Z</time>
      </trkpt>
      <trkpt lat="48.99106" lon="0.26163">
        <ele>119.4</ele>
        <time>2024-03-20T16:20:13Z</time>
      </trkpt>
      <trkpt lat="48.99109" lon="0.26162">
        <ele>119.4</ele>
        <time>2024-03-20T16:20:14Z</time>
      </trkpt>
      <trkpt lat="48.99114" lon="0.26161">
        <ele>119.4</ele>
        <time>2024-03-20T16:20:15Z</time>
      </trkpt>
      <trkpt lat="48.99119" lon="0.26159">
        <ele>119.4</ele>
        <time>2024-03-20T16:20:16Z</time>
      </trkpt>
      <trkpt lat="48.99124" lon="0.26158">
        <ele>119.4</ele>
        <time>2024-03-20T16:20:17Z</time>
      </trkpt>
      <trkpt lat="48.9913" lon="0.26156">
        <ele>119.4</ele>
        <time>2024-03-20T16:20:18Z</time>
      </trkpt>
      <trkpt lat="48.99136" lon="0.26154">
        <ele>119.4</ele>
        <time>2024-03-20T16:20:19Z</time>
      </trkpt>
      <trkpt lat="48.9914" lon="0.26153">
        <ele>119.4</ele>
        <time>2024-03-20T16:20:20Z</time>
      </trkpt>
      <trkpt lat="48.99145" lon="0.2615">
        <ele>119.4</ele>
        <time>2024-03-20T16:20:21Z</time>
      </trkpt>
      <trkpt lat="48.9915" lon="0.26147">
        <ele>119.4</ele>
        <time>2024-03-20T16:20:22Z</time>
      </trkpt>
      <trkpt lat="48.99155" lon="0.26145">
        <ele>119.4</ele>
        <time>2024-03-20T16:20:23Z</time>
      </trkpt>
      <trkpt lat="48.9916" lon="0.26142">
        <ele>119.4</ele>
        <time>2024-03-20T16:20:24Z</time>
      </trkpt>
      <trkpt lat="48.99165" lon="0.26138">
        <ele>119.4</ele>
        <time>2024-03-20T16:20:25Z</time>
      </trkpt>
      <trkpt lat="48.99171" lon="0.26134">
        <ele>119.4</ele>
        <time>2024-03-20T16:20:26Z</time>
      </trkpt>
      <trkpt lat="48.99175" lon="0.26131">
        <ele>119.6</ele>
        <time>2024-03-20T16:20:27Z</time>
      </trkpt>
      <trkpt lat="48.99182" lon="0.26127">
        <ele>119.6</ele>
        <time>2024-03-20T16:20:28Z</time>
      </trkpt>
      <trkpt lat="48.99187" lon="0.26124">
        <ele>119.8</ele>
        <time>2024-03-20T16:20:29Z</time>
      </trkpt>
      <trkpt lat="48.99192" lon="0.26122">
        <ele>119.8</ele>
        <time>2024-03-20T16:20:30Z</time>
      </trkpt>
      <trkpt lat="48.99199" lon="0.26119">
        <ele>119.8</ele>
        <time>2024-03-20T16:20:31Z</time>
      </trkpt>
      <trkpt lat="48.99204" lon="0.26117">
        <ele>119.8</ele>
        <time>2024-03-20T16:20:32Z</time>
      </trkpt>
      <trkpt lat="48.9921" lon="0.26115">
        <ele>119.8</ele>
        <time>2024-03-20T16:20:33Z</time>
      </trkpt>
      <trkpt lat="48.99218" lon="0.26113">
        <ele>119.8</ele>
        <time>2024-03-20T16:20:34Z</time>
      </trkpt>
      <trkpt lat="48.99223" lon="0.26111">
        <ele>119.8</ele>
        <time>2024-03-20T16:20:35Z</time>
      </trkpt>
      <trkpt lat="48.9923" lon="0.26109">
        <ele>119.8</ele>
        <time>2024-03-20T16:20:36Z</time>
      </trkpt>
      <trkpt lat="48.99237" lon="0.26106">
        <ele>119.8</ele>
        <time>2024-03-20T16:20:37Z</time>
      </trkpt>
      <trkpt lat="48.99245" lon="0.26103">
        <ele>119.8</ele>
        <time>2024-03-20T16:20:38Z</time>
      </trkpt>
      <trkpt lat="48.99252" lon="0.26101">
        <ele>119.8</ele>
        <time>2024-03-20T16:20:39Z</time>
      </trkpt>
      <trkpt lat="48.99262" lon="0.26098">
        <ele>119.8</ele>
        <time>2024-03-20T16:20:40Z</time>
      </trkpt>
      <trkpt lat="48.99269" lon="0.26097">
        <ele>119.6</ele>
        <time>2024-03-20T16:20:41Z</time>
      </trkpt>
      <trkpt lat="48.99277" lon="0.26094">
        <ele>119.4</ele>
        <time>2024-03-20T16:20:42Z</time>
      </trkpt>
      <trkpt lat="48.99286" lon="0.26092">
        <ele>119.2</ele>
        <time>2024-03-20T16:20:43Z</time>
      </trkpt>
      <trkpt lat="48.99296" lon="0.26089">
        <ele>118.8</ele>
        <time>2024-03-20T16:20:44Z</time>
      </trkpt>
      <trkpt lat="48.99302" lon="0.26087">
        <ele>118.4</ele>
        <time>2024-03-20T16:20:45Z</time>
      </trkpt>
      <trkpt lat="48.9931" lon="0.26084">
        <ele>118</ele>
        <time>2024-03-20T16:20:46Z</time>
      </trkpt>
      <trkpt lat="48.99317" lon="0.26081">
        <ele>117.8</ele>
        <time>2024-03-20T16:20:47Z</time>
      </trkpt>
      <trkpt lat="48.99326" lon="0.26077">
        <ele>117.6</ele>
        <time>2024-03-20T16:20:48Z</time>
      </trkpt>
      <trkpt lat="48.99334" lon="0.26074">
        <ele>117.4</ele>
        <time>2024-03-20T16:20:49Z</time>
      </trkpt>
      <trkpt lat="48.99342" lon="0.26072">
        <ele>117.2</ele>
        <time>2024-03-20T16:20:50Z</time>
      </trkpt>
      <trkpt lat="48.9935" lon="0.2607">
        <ele>116.6</ele>
        <time>2024-03-20T16:20:51Z</time>
      </trkpt>
      <trkpt lat="48.99358" lon="0.26069">
        <ele>116.2</ele>
        <time>2024-03-20T16:20:52Z</time>
      </trkpt>
      <trkpt lat="48.99366" lon="0.26068">
        <ele>115.8</ele>
        <time>2024-03-20T16:20:53Z</time>
      </trkpt>
      <trkpt lat="48.99374" lon="0.26066">
        <ele>115.6</ele>
        <time>2024-03-20T16:20:54Z</time>
      </trkpt>
      <trkpt lat="48.99382" lon="0.26065">
        <ele>115.4</ele>
        <time>2024-03-20T16:20:55Z</time>
      </trkpt>
      <trkpt lat="48.99389" lon="0.26064">
        <ele>115.4</ele>
        <time>2024-03-20T16:20:56Z</time>
      </trkpt>
      <trkpt lat="48.99397" lon="0.26063">
        <ele>115.4</ele>
        <time>2024-03-20T16:20:57Z</time>
      </trkpt>
      <trkpt lat="48.99405" lon="0.26061">
        <ele>115.4</ele>
        <time>2024-03-20T16:20:58Z</time>
      </trkpt>
      <trkpt lat="48.99413" lon="0.2606">
        <ele>115.4</ele>
        <time>2024-03-20T16:20:59Z</time>
      </trkpt>
      <trkpt lat="48.9942" lon="0.26059">
        <ele>115.4</ele>
        <time>2024-03-20T16:21:00Z</time>
      </trkpt>
      <trkpt lat="48.9943" lon="0.26058">
        <ele>115.4</ele>
        <time>2024-03-20T16:21:01Z</time>
      </trkpt>
      <trkpt lat="48.99436" lon="0.26057">
        <ele>115.4</ele>
        <time>2024-03-20T16:21:02Z</time>
      </trkpt>
      <trkpt lat="48.99443" lon="0.26056">
        <ele>115.4</ele>
        <time>2024-03-20T16:21:03Z</time>
      </trkpt>
      <trkpt lat="48.99451" lon="0.26055">
        <ele>115.4</ele>
        <time>2024-03-20T16:21:04Z</time>
      </trkpt>
      <trkpt lat="48.99459" lon="0.26054">
        <ele>115.4</ele>
        <time>2024-03-20T16:21:05Z</time>
      </trkpt>
      <trkpt lat="48.99466" lon="0.26054">
        <ele>115.4</ele>
        <time>2024-03-20T16:21:06Z</time>
      </trkpt>
      <trkpt lat="48.99474" lon="0.26053">
        <ele>115.4</ele>
        <time>2024-03-20T16:21:07Z</time>
      </trkpt>
      <trkpt lat="48.99481" lon="0.26051">
        <ele>115.6</ele>
        <time>2024-03-20T16:21:08Z</time>
      </trkpt>
      <trkpt lat="48.99489" lon="0.2605">
        <ele>115.8</ele>
        <time>2024-03-20T16:21:09Z</time>
      </trkpt>
      <trkpt lat="48.99496" lon="0.2605">
        <ele>115.8</ele>
        <time>2024-03-20T16:21:10Z</time>
      </trkpt>
      <trkpt lat="48.99504" lon="0.26049">
        <ele>115.8</ele>
        <time>2024-03-20T16:21:11Z</time>
      </trkpt>
      <trkpt lat="48.99511" lon="0.26048">
        <ele>116</ele>
        <time>2024-03-20T16:21:12Z</time>
      </trkpt>
      <trkpt lat="48.99519" lon="0.26047">
        <ele>116</ele>
        <time>2024-03-20T16:21:13Z</time>
      </trkpt>
      <trkpt lat="48.99528" lon="0.26046">
        <ele>116</ele>
        <time>2024-03-20T16:21:14Z</time>
      </trkpt>
      <trkpt lat="48.99534" lon="0.26045">
        <ele>116</ele>
        <time>2024-03-20T16:21:15Z</time>
      </trkpt>
      <trkpt lat="48.99541" lon="0.26044">
        <ele>116</ele>
        <time>2024-03-20T16:21:16Z</time>
      </trkpt>
      <trkpt lat="48.99549" lon="0.26043">
        <ele>116</ele>
        <time>2024-03-20T16:21:17Z</time>
      </trkpt>
      <trkpt lat="48.99556" lon="0.26042">
        <ele>116.2</ele>
        <time>2024-03-20T16:21:18Z</time>
      </trkpt>
      <trkpt lat="48.99564" lon="0.26041">
        <ele>116.2</ele>
        <time>2024-03-20T16:21:19Z</time>
      </trkpt>
      <trkpt lat="48.99571" lon="0.2604">
        <ele>116.2</ele>
        <time>2024-03-20T16:21:20Z</time>
      </trkpt>
      <trkpt lat="48.99578" lon="0.26039">
        <ele>116.2</ele>
        <time>2024-03-20T16:21:21Z</time>
      </trkpt>
      <trkpt lat="48.99586" lon="0.26038">
        <ele>116.2</ele>
        <time>2024-03-20T16:21:22Z</time>
      </trkpt>
      <trkpt lat="48.99593" lon="0.26037">
        <ele>116.2</ele>
        <time>2024-03-20T16:21:23Z</time>
      </trkpt>
      <trkpt lat="48.996" lon="0.26036">
        <ele>116.2</ele>
        <time>2024-03-20T16:21:24Z</time>
      </trkpt>
      <trkpt lat="48.99608" lon="0.26035">
        <ele>116</ele>
        <time>2024-03-20T16:21:25Z</time>
      </trkpt>
      <trkpt lat="48.99615" lon="0.26034">
        <ele>116</ele>
        <time>2024-03-20T16:21:26Z</time>
      </trkpt>
      <trkpt lat="48.99622" lon="0.26033">
        <ele>116</ele>
        <time>2024-03-20T16:21:27Z</time>
      </trkpt>
      <trkpt lat="48.99629" lon="0.26032">
        <ele>116</ele>
        <time>2024-03-20T16:21:28Z</time>
      </trkpt>
      <trkpt lat="48.99638" lon="0.26032">
        <ele>116</ele>
        <time>2024-03-20T16:21:29Z</time>
      </trkpt>
      <trkpt lat="48.99644" lon="0.26031">
        <ele>116</ele>
        <time>2024-03-20T16:21:30Z</time>
      </trkpt>
      <trkpt lat="48.99651" lon="0.2603">
        <ele>115.8</ele>
        <time>2024-03-20T16:21:31Z</time>
      </trkpt>
      <trkpt lat="48.9966" lon="0.26029">
        <ele>115.8</ele>
        <time>2024-03-20T16:21:32Z</time>
      </trkpt>
      <trkpt lat="48.99666" lon="0.26029">
        <ele>115.8</ele>
        <time>2024-03-20T16:21:33Z</time>
      </trkpt>
      <trkpt lat="48.99673" lon="0.26028">
        <ele>115.8</ele>
        <time>2024-03-20T16:21:34Z</time>
      </trkpt>
      <trkpt lat="48.99681" lon="0.26027">
        <ele>115.8</ele>
        <time>2024-03-20T16:21:35Z</time>
      </trkpt>
      <trkpt lat="48.99687" lon="0.26026">
        <ele>115.8</ele>
        <time>2024-03-20T16:21:36Z</time>
      </trkpt>
      <trkpt lat="48.99694" lon="0.26025">
        <ele>115.6</ele>
        <time>2024-03-20T16:21:37Z</time>
      </trkpt>
      <trkpt lat="48.99703" lon="0.26024">
        <ele>115.6</ele>
        <time>2024-03-20T16:21:38Z</time>
      </trkpt>
      <trkpt lat="48.99708" lon="0.26023">
        <ele>115.6</ele>
        <time>2024-03-20T16:21:39Z</time>
      </trkpt>
      <trkpt lat="48.99716" lon="0.26023">
        <ele>115.6</ele>
        <time>2024-03-20T16:21:40Z</time>
      </trkpt>
      <trkpt lat="48.99724" lon="0.26022">
        <ele>115.6</ele>
        <time>2024-03-20T16:21:41Z</time>
      </trkpt>
      <trkpt lat="48.9973" lon="0.26021">
        <ele>115.6</ele>
        <time>2024-03-20T16:21:42Z</time>
      </trkpt>
      <trkpt lat="48.99737" lon="0.2602">
        <ele>115.6</ele>
        <time>2024-03-20T16:21:43Z</time>
      </trkpt>
      <trkpt lat="48.99744" lon="0.26018">
        <ele>115.6</ele>
        <time>2024-03-20T16:21:44Z</time>
      </trkpt>
      <trkpt lat="48.99751" lon="0.26017">
        <ele>115.4</ele>
        <time>2024-03-20T16:21:45Z</time>
      </trkpt>
      <trkpt lat="48.99758" lon="0.26016">
        <ele>115.2</ele>
        <time>2024-03-20T16:21:46Z</time>
      </trkpt>
      <trkpt lat="48.99765" lon="0.26015">
        <ele>115.2</ele>
        <time>2024-03-20T16:21:47Z</time>
      </trkpt>
      <trkpt lat="48.99774" lon="0.26013">
        <ele>115.2</ele>
        <time>2024-03-20T16:21:48Z</time>
      </trkpt>
      <trkpt lat="48.9978" lon="0.26012">
        <ele>115.2</ele>
        <time>2024-03-20T16:21:49Z</time>
      </trkpt>
      <trkpt lat="48.99787" lon="0.2601">
        <ele>115.2</ele>
        <time>2024-03-20T16:21:50Z</time>
      </trkpt>
      <trkpt lat="48.99796" lon="0.26007">
        <ele>115</ele>
        <time>2024-03-20T16:21:51Z</time>
      </trkpt>
      <trkpt lat="48.99801" lon="0.26004">
        <ele>115</ele>
        <time>2024-03-20T16:21:52Z</time>
      </trkpt>
      <trkpt lat="48.9981" lon="0.26001">
        <ele>115</ele>
        <time>2024-03-20T16:21:53Z</time>
      </trkpt>
      <trkpt lat="48.99815" lon="0.25999">
        <ele>115</ele>
        <time>2024-03-20T16:21:54Z</time>
      </trkpt>
      <trkpt lat="48.99822" lon="0.25996">
        <ele>115</ele>
        <time>2024-03-20T16:21:55Z</time>
      </trkpt>
      <trkpt lat="48.99831" lon="0.25993">
        <ele>115</ele>
        <time>2024-03-20T16:21:56Z</time>
      </trkpt>
      <trkpt lat="48.99837" lon="0.2599">
        <ele>115</ele>
        <time>2024-03-20T16:21:57Z</time>
      </trkpt>
      <trkpt lat="48.99844" lon="0.25988">
        <ele>115</ele>
        <time>2024-03-20T16:21:58Z</time>
      </trkpt>
      <trkpt lat="48.99852" lon="0.25984">
        <ele>115</ele>
        <time>2024-03-20T16:21:59Z</time>
      </trkpt>
      <trkpt lat="48.99858" lon="0.25983">
        <ele>115</ele>
        <time>2024-03-20T16:22:00Z</time>
      </trkpt>
      <trkpt lat="48.99865" lon="0.2598">
        <ele>115</ele>
        <time>2024-03-20T16:22:01Z</time>
      </trkpt>
      <trkpt lat="48.99873" lon="0.25977">
        <ele>115.2</ele>
        <time>2024-03-20T16:22:02Z</time>
      </trkpt>
      <trkpt lat="48.99879" lon="0.25975">
        <ele>115.2</ele>
        <time>2024-03-20T16:22:03Z</time>
      </trkpt>
      <trkpt lat="48.99885" lon="0.25972">
        <ele>115.2</ele>
        <time>2024-03-20T16:22:04Z</time>
      </trkpt>
      <trkpt lat="48.99892" lon="0.25969">
        <ele>115.2</ele>
        <time>2024-03-20T16:22:05Z</time>
      </trkpt>
      <trkpt lat="48.99899" lon="0.25967">
        <ele>115.2</ele>
        <time>2024-03-20T16:22:06Z</time>
      </trkpt>
      <trkpt lat="48.99906" lon="0.25964">
        <ele>115.2</ele>
        <time>2024-03-20T16:22:07Z</time>
      </trkpt>
      <trkpt lat="48.99913" lon="0.25961">
        <ele>115.2</ele>
        <time>2024-03-20T16:22:08Z</time>
      </trkpt>
      <trkpt lat="48.99919" lon="0.25958">
        <ele>115.2</ele>
        <time>2024-03-20T16:22:09Z</time>
      </trkpt>
      <trkpt lat="48.99926" lon="0.25956">
        <ele>115.2</ele>
        <time>2024-03-20T16:22:10Z</time>
      </trkpt>
      <trkpt lat="48.99934" lon="0.25952">
        <ele>115.2</ele>
        <time>2024-03-20T16:22:11Z</time>
      </trkpt>
      <trkpt lat="48.99939" lon="0.2595">
        <ele>115.2</ele>
        <time>2024-03-20T16:22:12Z</time>
      </trkpt>
      <trkpt lat="48.99945" lon="0.25948">
        <ele>115.2</ele>
        <time>2024-03-20T16:22:13Z</time>
      </trkpt>
      <trkpt lat="48.99953" lon="0.25944">
        <ele>115.2</ele>
        <time>2024-03-20T16:22:14Z</time>
      </trkpt>
      <trkpt lat="48.99959" lon="0.25942">
        <ele>115.2</ele>
        <time>2024-03-20T16:22:15Z</time>
      </trkpt>
      <trkpt lat="48.99965" lon="0.2594">
        <ele>115.2</ele>
        <time>2024-03-20T16:22:16Z</time>
      </trkpt>
      <trkpt lat="48.99972" lon="0.25937">
        <ele>115.2</ele>
        <time>2024-03-20T16:22:17Z</time>
      </trkpt>
      <trkpt lat="48.99979" lon="0.25935">
        <ele>115.2</ele>
        <time>2024-03-20T16:22:18Z</time>
      </trkpt>
      <trkpt lat="48.99986" lon="0.25932">
        <ele>115</ele>
        <time>2024-03-20T16:22:19Z</time>
      </trkpt>
      <trkpt lat="48.99994" lon="0.25928">
        <ele>115</ele>
        <time>2024-03-20T16:22:20Z</time>
      </trkpt>
      <trkpt lat="49" lon="0.25926">
        <ele>115</ele>
        <time>2024-03-20T16:22:21Z</time>
      </trkpt>
      <trkpt lat="49.00006" lon="0.25924">
        <ele>115</ele>
        <time>2024-03-20T16:22:22Z</time>
      </trkpt>
      <trkpt lat="49.00014" lon="0.25921">
        <ele>115</ele>
        <time>2024-03-20T16:22:23Z</time>
      </trkpt>
      <trkpt lat="49.00019" lon="0.25919">
        <ele>115</ele>
        <time>2024-03-20T16:22:24Z</time>
      </trkpt>
      <trkpt lat="49.00026" lon="0.25916">
        <ele>115</ele>
        <time>2024-03-20T16:22:25Z</time>
      </trkpt>
      <trkpt lat="49.00034" lon="0.25913">
        <ele>115</ele>
        <time>2024-03-20T16:22:26Z</time>
      </trkpt>
      <trkpt lat="49.00039" lon="0.25911">
        <ele>115</ele>
        <time>2024-03-20T16:22:27Z</time>
      </trkpt>
      <trkpt lat="49.00046" lon="0.25909">
        <ele>115.2</ele>
        <time>2024-03-20T16:22:28Z</time>
      </trkpt>
      <trkpt lat="49.00052" lon="0.25906">
        <ele>115.2</ele>
        <time>2024-03-20T16:22:29Z</time>
      </trkpt>
      <trkpt lat="49.00058" lon="0.25904">
        <ele>115.2</ele>
        <time>2024-03-20T16:22:30Z</time>
      </trkpt>
      <trkpt lat="49.00065" lon="0.25901">
        <ele>115.2</ele>
        <time>2024-03-20T16:22:31Z</time>
      </trkpt>
      <trkpt lat="49.00071" lon="0.25898">
        <ele>115.2</ele>
        <time>2024-03-20T16:22:32Z</time>
      </trkpt>
      <trkpt lat="49.00077" lon="0.25896">
        <ele>115.2</ele>
        <time>2024-03-20T16:22:33Z</time>
      </trkpt>
      <trkpt lat="49.00084" lon="0.25893">
        <ele>115.4</ele>
        <time>2024-03-20T16:22:34Z</time>
      </trkpt>
      <trkpt lat="49.0009" lon="0.25891">
        <ele>115.4</ele>
        <time>2024-03-20T16:22:35Z</time>
      </trkpt>
      <trkpt lat="49.00096" lon="0.25889">
        <ele>115.6</ele>
        <time>2024-03-20T16:22:36Z</time>
      </trkpt>
      <trkpt lat="49.00102" lon="0.25887">
        <ele>115.6</ele>
        <time>2024-03-20T16:22:37Z</time>
      </trkpt>
      <trkpt lat="49.00108" lon="0.25884">
        <ele>115.8</ele>
        <time>2024-03-20T16:22:38Z</time>
      </trkpt>
      <trkpt lat="49.00114" lon="0.25882">
        <ele>116</ele>
        <time>2024-03-20T16:22:39Z</time>
      </trkpt>
      <trkpt lat="49.0012" lon="0.2588">
        <ele>116.2</ele>
        <time>2024-03-20T16:22:40Z</time>
      </trkpt>
      <trkpt lat="49.00126" lon="0.25878">
        <ele>116.4</ele>
        <time>2024-03-20T16:22:41Z</time>
      </trkpt>
      <trkpt lat="49.00132" lon="0.25875">
        <ele>116.4</ele>
        <time>2024-03-20T16:22:42Z</time>
      </trkpt>
      <trkpt lat="49.00138" lon="0.25873">
        <ele>116.6</ele>
        <time>2024-03-20T16:22:43Z</time>
      </trkpt>
      <trkpt lat="49.00144" lon="0.25871">
        <ele>116.8</ele>
        <time>2024-03-20T16:22:44Z</time>
      </trkpt>
      <trkpt lat="49.0015" lon="0.25869">
        <ele>116.8</ele>
        <time>2024-03-20T16:22:45Z</time>
      </trkpt>
      <trkpt lat="49.00156" lon="0.25866">
        <ele>117</ele>
        <time>2024-03-20T16:22:46Z</time>
      </trkpt>
      <trkpt lat="49.00162" lon="0.25863">
        <ele>117.2</ele>
        <time>2024-03-20T16:22:47Z</time>
      </trkpt>
      <trkpt lat="49.00168" lon="0.25861">
        <ele>117.4</ele>
        <time>2024-03-20T16:22:48Z</time>
      </trkpt>
      <trkpt lat="49.00174" lon="0.25858">
        <ele>117.6</ele>
        <time>2024-03-20T16:22:49Z</time>
      </trkpt>
      <trkpt lat="49.0018" lon="0.25856">
        <ele>118</ele>
        <time>2024-03-20T16:22:50Z</time>
      </trkpt>
      <trkpt lat="49.00186" lon="0.25854">
        <ele>118</ele>
        <time>2024-03-20T16:22:51Z</time>
      </trkpt>
      <trkpt lat="49.00192" lon="0.25852">
        <ele>118.2</ele>
        <time>2024-03-20T16:22:52Z</time>
      </trkpt>
      <trkpt lat="49.00198" lon="0.2585">
        <ele>118.4</ele>
        <time>2024-03-20T16:22:53Z</time>
      </trkpt>
      <trkpt lat="49.00204" lon="0.25848">
        <ele>118.4</ele>
        <time>2024-03-20T16:22:54Z</time>
      </trkpt>
      <trkpt lat="49.00211" lon="0.25846">
        <ele>118.6</ele>
        <time>2024-03-20T16:22:55Z</time>
      </trkpt>
      <trkpt lat="49.00217" lon="0.25844">
        <ele>118.6</ele>
        <time>2024-03-20T16:22:56Z</time>
      </trkpt>
      <trkpt lat="49.00224" lon="0.25842">
        <ele>118.8</ele>
        <time>2024-03-20T16:22:57Z</time>
      </trkpt>
      <trkpt lat="49.0023" lon="0.25841">
        <ele>118.8</ele>
        <time>2024-03-20T16:22:58Z</time>
      </trkpt>
      <trkpt lat="49.00237" lon="0.2584">
        <ele>118.8</ele>
        <time>2024-03-20T16:22:59Z</time>
      </trkpt>
      <trkpt lat="49.00243" lon="0.25839">
        <ele>118.8</ele>
        <time>2024-03-20T16:23:00Z</time>
      </trkpt>
      <trkpt lat="49.0025" lon="0.25838">
        <ele>119</ele>
        <time>2024-03-20T16:23:01Z</time>
      </trkpt>
      <trkpt lat="49.00256" lon="0.25838">
        <ele>119</ele>
        <time>2024-03-20T16:23:02Z</time>
      </trkpt>
      <trkpt lat="49.00262" lon="0.25838">
        <ele>119</ele>
        <time>2024-03-20T16:23:03Z</time>
      </trkpt>
      <trkpt lat="49.00269" lon="0.25837">
        <ele>119</ele>
        <time>2024-03-20T16:23:04Z</time>
      </trkpt>
      <trkpt lat="49.00275" lon="0.25837">
        <ele>119.4</ele>
        <time>2024-03-20T16:23:05Z</time>
      </trkpt>
      <trkpt lat="49.00282" lon="0.25837">
        <ele>119.6</ele>
        <time>2024-03-20T16:23:06Z</time>
      </trkpt>
      <trkpt lat="49.00288" lon="0.25837">
        <ele>119.8</ele>
        <time>2024-03-20T16:23:07Z</time>
      </trkpt>
      <trkpt lat="49.00295" lon="0.25836">
        <ele>119.8</ele>
        <time>2024-03-20T16:23:08Z</time>
      </trkpt>
      <trkpt lat="49.00301" lon="0.25836">
        <ele>120</ele>
        <time>2024-03-20T16:23:09Z</time>
      </trkpt>
      <trkpt lat="49.00308" lon="0.25835">
        <ele>120.2</ele>
        <time>2024-03-20T16:23:10Z</time>
      </trkpt>
      <trkpt lat="49.00315" lon="0.25835">
        <ele>120.4</ele>
        <time>2024-03-20T16:23:11Z</time>
      </trkpt>
      <trkpt lat="49.00321" lon="0.25835">
        <ele>120.6</ele>
        <time>2024-03-20T16:23:12Z</time>
      </trkpt>
      <trkpt lat="49.00328" lon="0.25835">
        <ele>120.8</ele>
        <time>2024-03-20T16:23:13Z</time>
      </trkpt>
      <trkpt lat="49.00334" lon="0.25835">
        <ele>120.8</ele>
        <time>2024-03-20T16:23:14Z</time>
      </trkpt>
      <trkpt lat="49.0034" lon="0.25835">
        <ele>121</ele>
        <time>2024-03-20T16:23:15Z</time>
      </trkpt>
      <trkpt lat="49.00347" lon="0.25835">
        <ele>121.2</ele>
        <time>2024-03-20T16:23:16Z</time>
      </trkpt>
      <trkpt lat="49.00353" lon="0.25835">
        <ele>121.2</ele>
        <time>2024-03-20T16:23:17Z</time>
      </trkpt>
      <trkpt lat="49.0036" lon="0.25835">
        <ele>121.2</ele>
        <time>2024-03-20T16:23:18Z</time>
      </trkpt>
      <trkpt lat="49.00366" lon="0.25835">
        <ele>121.4</ele>
        <time>2024-03-20T16:23:19Z</time>
      </trkpt>
      <trkpt lat="49.00373" lon="0.25835">
        <ele>121.4</ele>
        <time>2024-03-20T16:23:20Z</time>
      </trkpt>
      <trkpt lat="49.00379" lon="0.25835">
        <ele>121.8</ele>
        <time>2024-03-20T16:23:21Z</time>
      </trkpt>
      <trkpt lat="49.00386" lon="0.25835">
        <ele>121.8</ele>
        <time>2024-03-20T16:23:22Z</time>
      </trkpt>
      <trkpt lat="49.00392" lon="0.25835">
        <ele>122</ele>
        <time>2024-03-20T16:23:23Z</time>
      </trkpt>
      <trkpt lat="49.00399" lon="0.25834">
        <ele>122</ele>
        <time>2024-03-20T16:23:24Z</time>
      </trkpt>
      <trkpt lat="49.00405" lon="0.25833">
        <ele>122</ele>
        <time>2024-03-20T16:23:25Z</time>
      </trkpt>
      <trkpt lat="49.00412" lon="0.25832">
        <ele>122.2</ele>
        <time>2024-03-20T16:23:26Z</time>
      </trkpt>
      <trkpt lat="49.00418" lon="0.25832">
        <ele>122.2</ele>
        <time>2024-03-20T16:23:27Z</time>
      </trkpt>
      <trkpt lat="49.00425" lon="0.2583">
        <ele>122.2</ele>
        <time>2024-03-20T16:23:28Z</time>
      </trkpt>
      <trkpt lat="49.00432" lon="0.25829">
        <ele>122.2</ele>
        <time>2024-03-20T16:23:29Z</time>
      </trkpt>
      <trkpt lat="49.00438" lon="0.25828">
        <ele>122.2</ele>
        <time>2024-03-20T16:23:30Z</time>
      </trkpt>
      <trkpt lat="49.00444" lon="0.25827">
        <ele>122.2</ele>
        <time>2024-03-20T16:23:31Z</time>
      </trkpt>
      <trkpt lat="49.00451" lon="0.25826">
        <ele>122.2</ele>
        <time>2024-03-20T16:23:32Z</time>
      </trkpt>
      <trkpt lat="49.00457" lon="0.25825">
        <ele>122.2</ele>
        <time>2024-03-20T16:23:33Z</time>
      </trkpt>
      <trkpt lat="49.00464" lon="0.25824">
        <ele>122.2</ele>
        <time>2024-03-20T16:23:34Z</time>
      </trkpt>
      <trkpt lat="49.00471" lon="0.25823">
        <ele>122.2</ele>
        <time>2024-03-20T16:23:35Z</time>
      </trkpt>
      <trkpt lat="49.00477" lon="0.25822">
        <ele>122.2</ele>
        <time>2024-03-20T16:23:36Z</time>
      </trkpt>
      <trkpt lat="49.00484" lon="0.25821">
        <ele>122.2</ele>
        <time>2024-03-20T16:23:37Z</time>
      </trkpt>
      <trkpt lat="49.0049" lon="0.2582">
        <ele>122.2</ele>
        <time>2024-03-20T16:23:38Z</time>
      </trkpt>
      <trkpt lat="49.00497" lon="0.25819">
        <ele>122.2</ele>
        <time>2024-03-20T16:23:39Z</time>
      </trkpt>
      <trkpt lat="49.00503" lon="0.25818">
        <ele>122.2</ele>
        <time>2024-03-20T16:23:40Z</time>
      </trkpt>
      <trkpt lat="49.0051" lon="0.25817">
        <ele>122.2</ele>
        <time>2024-03-20T16:23:41Z</time>
      </trkpt>
      <trkpt lat="49.00516" lon="0.25816">
        <ele>122.2</ele>
        <time>2024-03-20T16:23:42Z</time>
      </trkpt>
      <trkpt lat="49.00523" lon="0.25815">
        <ele>122.4</ele>
        <time>2024-03-20T16:23:43Z</time>
      </trkpt>
      <trkpt lat="49.00529" lon="0.25813">
        <ele>122.4</ele>
        <time>2024-03-20T16:23:44Z</time>
      </trkpt>
      <trkpt lat="49.00535" lon="0.25812">
        <ele>122.8</ele>
        <time>2024-03-20T16:23:45Z</time>
      </trkpt>
      <trkpt lat="49.00542" lon="0.25811">
        <ele>123</ele>
        <time>2024-03-20T16:23:46Z</time>
      </trkpt>
      <trkpt lat="49.00548" lon="0.2581">
        <ele>123</ele>
        <time>2024-03-20T16:23:47Z</time>
      </trkpt>
      <trkpt lat="49.00554" lon="0.25808">
        <ele>123</ele>
        <time>2024-03-20T16:23:48Z</time>
      </trkpt>
      <trkpt lat="49.0056" lon="0.25807">
        <ele>123.2</ele>
        <time>2024-03-20T16:23:49Z</time>
      </trkpt>
      <trkpt lat="49.00567" lon="0.25806">
        <ele>123.2</ele>
        <time>2024-03-20T16:23:50Z</time>
      </trkpt>
      <trkpt lat="49.00573" lon="0.25805">
        <ele>123.2</ele>
        <time>2024-03-20T16:23:51Z</time>
      </trkpt>
      <trkpt lat="49.00579" lon="0.25803">
        <ele>123.4</ele>
        <time>2024-03-20T16:23:52Z</time>
      </trkpt>
      <trkpt lat="49.00584" lon="0.25802">
        <ele>123.4</ele>
        <time>2024-03-20T16:23:53Z</time>
      </trkpt>
      <trkpt lat="49.0059" lon="0.25802">
        <ele>123.6</ele>
        <time>2024-03-20T16:23:54Z</time>
      </trkpt>
      <trkpt lat="49.00596" lon="0.25801">
        <ele>123.6</ele>
        <time>2024-03-20T16:23:55Z</time>
      </trkpt>
      <trkpt lat="49.00602" lon="0.25799">
        <ele>123.6</ele>
        <time>2024-03-20T16:23:56Z</time>
      </trkpt>
      <trkpt lat="49.00607" lon="0.25798">
        <ele>123.8</ele>
        <time>2024-03-20T16:23:57Z</time>
      </trkpt>
      <trkpt lat="49.00613" lon="0.25797">
        <ele>123.8</ele>
        <time>2024-03-20T16:23:58Z</time>
      </trkpt>
      <trkpt lat="49.00619" lon="0.25796">
        <ele>123.8</ele>
        <time>2024-03-20T16:23:59Z</time>
      </trkpt>
      <trkpt lat="49.00624" lon="0.25795">
        <ele>124</ele>
        <time>2024-03-20T16:24:00Z</time>
      </trkpt>
      <trkpt lat="49.0063" lon="0.25794">
        <ele>124.4</ele>
        <time>2024-03-20T16:24:01Z</time>
      </trkpt>
      <trkpt lat="49.00636" lon="0.25793">
        <ele>124.6</ele>
        <time>2024-03-20T16:24:02Z</time>
      </trkpt>
      <trkpt lat="49.00641" lon="0.25792">
        <ele>124.8</ele>
        <time>2024-03-20T16:24:03Z</time>
      </trkpt>
      <trkpt lat="49.00647" lon="0.25791">
        <ele>125</ele>
        <time>2024-03-20T16:24:04Z</time>
      </trkpt>
      <trkpt lat="49.00653" lon="0.2579">
        <ele>125.2</ele>
        <time>2024-03-20T16:24:05Z</time>
      </trkpt>
      <trkpt lat="49.00658" lon="0.25789">
        <ele>125.4</ele>
        <time>2024-03-20T16:24:06Z</time>
      </trkpt>
      <trkpt lat="49.00663" lon="0.25787">
        <ele>125.6</ele>
        <time>2024-03-20T16:24:07Z</time>
      </trkpt>
      <trkpt lat="49.00669" lon="0.25786">
        <ele>125.6</ele>
        <time>2024-03-20T16:24:08Z</time>
      </trkpt>
      <trkpt lat="49.00675" lon="0.25786">
        <ele>126</ele>
        <time>2024-03-20T16:24:09Z</time>
      </trkpt>
      <trkpt lat="49.0068" lon="0.25785">
        <ele>126.2</ele>
        <time>2024-03-20T16:24:10Z</time>
      </trkpt>
      <trkpt lat="49.00686" lon="0.25784">
        <ele>126.6</ele>
        <time>2024-03-20T16:24:11Z</time>
      </trkpt>
      <trkpt lat="49.00691" lon="0.25783">
        <ele>126.8</ele>
        <time>2024-03-20T16:24:12Z</time>
      </trkpt>
      <trkpt lat="49.00697" lon="0.25783">
        <ele>127.2</ele>
        <time>2024-03-20T16:24:13Z</time>
      </trkpt>
      <trkpt lat="49.00702" lon="0.25782">
        <ele>127.4</ele>
        <time>2024-03-20T16:24:14Z</time>
      </trkpt>
      <trkpt lat="49.00708" lon="0.25781">
        <ele>127.6</ele>
        <time>2024-03-20T16:24:15Z</time>
      </trkpt>
      <trkpt lat="49.00713" lon="0.25779">
        <ele>127.6</ele>
        <time>2024-03-20T16:24:16Z</time>
      </trkpt>
      <trkpt lat="49.00719" lon="0.25778">
        <ele>127.8</ele>
        <time>2024-03-20T16:24:17Z</time>
      </trkpt>
      <trkpt lat="49.00725" lon="0.25776">
        <ele>127.8</ele>
        <time>2024-03-20T16:24:18Z</time>
      </trkpt>
      <trkpt lat="49.00731" lon="0.25775">
        <ele>128</ele>
        <time>2024-03-20T16:24:19Z</time>
      </trkpt>
      <trkpt lat="49.00737" lon="0.25773">
        <ele>128.2</ele>
        <time>2024-03-20T16:24:20Z</time>
      </trkpt>
      <trkpt lat="49.00743" lon="0.25772">
        <ele>128.4</ele>
        <time>2024-03-20T16:24:21Z</time>
      </trkpt>
      <trkpt lat="49.00749" lon="0.2577">
        <ele>128.4</ele>
        <time>2024-03-20T16:24:22Z</time>
      </trkpt>
      <trkpt lat="49.00756" lon="0.25767">
        <ele>128.8</ele>
        <time>2024-03-20T16:24:23Z</time>
      </trkpt>
      <trkpt lat="49.00763" lon="0.25765">
        <ele>129</ele>
        <time>2024-03-20T16:24:24Z</time>
      </trkpt>
      <trkpt lat="49.0077" lon="0.25762">
        <ele>129</ele>
        <time>2024-03-20T16:24:25Z</time>
      </trkpt>
      <trkpt lat="49.00778" lon="0.25758">
        <ele>129</ele>
        <time>2024-03-20T16:24:26Z</time>
      </trkpt>
      <trkpt lat="49.00785" lon="0.25755">
        <ele>129</ele>
        <time>2024-03-20T16:24:27Z</time>
      </trkpt>
      <trkpt lat="49.00793" lon="0.25752">
        <ele>129</ele>
        <time>2024-03-20T16:24:28Z</time>
      </trkpt>
      <trkpt lat="49.00801" lon="0.25749">
        <ele>129</ele>
        <time>2024-03-20T16:24:29Z</time>
      </trkpt>
      <trkpt lat="49.00809" lon="0.25746">
        <ele>129</ele>
        <time>2024-03-20T16:24:30Z</time>
      </trkpt>
      <trkpt lat="49.00817" lon="0.25742">
        <ele>129</ele>
        <time>2024-03-20T16:24:31Z</time>
      </trkpt>
      <trkpt lat="49.00826" lon="0.25739">
        <ele>129</ele>
        <time>2024-03-20T16:24:32Z</time>
      </trkpt>
      <trkpt lat="49.00834" lon="0.25736">
        <ele>129</ele>
        <time>2024-03-20T16:24:33Z</time>
      </trkpt>
      <trkpt lat="49.00843" lon="0.25732">
        <ele>128.4</ele>
        <time>2024-03-20T16:24:34Z</time>
      </trkpt>
      <trkpt lat="49.00851" lon="0.25728">
        <ele>127.6</ele>
        <time>2024-03-20T16:24:35Z</time>
      </trkpt>
      <trkpt lat="49.0086" lon="0.25725">
        <ele>126.8</ele>
        <time>2024-03-20T16:24:36Z</time>
      </trkpt>
      <trkpt lat="49.00869" lon="0.25721">
        <ele>126</ele>
        <time>2024-03-20T16:24:37Z</time>
      </trkpt>
      <trkpt lat="49.00878" lon="0.25717">
        <ele>125.2</ele>
        <time>2024-03-20T16:24:38Z</time>
      </trkpt>
      <trkpt lat="49.00888" lon="0.25713">
        <ele>124.2</ele>
        <time>2024-03-20T16:24:39Z</time>
      </trkpt>
      <trkpt lat="49.00897" lon="0.25709">
        <ele>123</ele>
        <time>2024-03-20T16:24:40Z</time>
      </trkpt>
      <trkpt lat="49.00906" lon="0.25705">
        <ele>122.2</ele>
        <time>2024-03-20T16:24:41Z</time>
      </trkpt>
      <trkpt lat="49.00915" lon="0.25701">
        <ele>121.4</ele>
        <time>2024-03-20T16:24:42Z</time>
      </trkpt>
      <trkpt lat="49.00925" lon="0.25697">
        <ele>120.4</ele>
        <time>2024-03-20T16:24:43Z</time>
      </trkpt>
      <trkpt lat="49.00934" lon="0.25693">
        <ele>119.8</ele>
        <time>2024-03-20T16:24:44Z</time>
      </trkpt>
      <trkpt lat="49.00943" lon="0.2569">
        <ele>119.8</ele>
        <time>2024-03-20T16:24:45Z</time>
      </trkpt>
      <trkpt lat="49.00952" lon="0.25686">
        <ele>119</ele>
        <time>2024-03-20T16:24:46Z</time>
      </trkpt>
      <trkpt lat="49.00961" lon="0.25683">
        <ele>118.2</ele>
        <time>2024-03-20T16:24:47Z</time>
      </trkpt>
      <trkpt lat="49.00969" lon="0.25679">
        <ele>117.4</ele>
        <time>2024-03-20T16:24:48Z</time>
      </trkpt>
      <trkpt lat="49.00977" lon="0.25674">
        <ele>116.6</ele>
        <time>2024-03-20T16:24:49Z</time>
      </trkpt>
      <trkpt lat="49.00985" lon="0.25669">
        <ele>115.8</ele>
        <time>2024-03-20T16:24:50Z</time>
      </trkpt>
      <trkpt lat="49.00991" lon="0.25664">
        <ele>115</ele>
        <time>2024-03-20T16:24:51Z</time>
      </trkpt>
      <trkpt lat="49.00997" lon="0.25659">
        <ele>114.4</ele>
        <time>2024-03-20T16:24:52Z</time>
      </trkpt>
      <trkpt lat="49.01003" lon="0.25653">
        <ele>114</ele>
        <time>2024-03-20T16:24:53Z</time>
      </trkpt>
      <trkpt lat="49.01009" lon="0.25648">
        <ele>114</ele>
        <time>2024-03-20T16:24:54Z</time>
      </trkpt>
      <trkpt lat="49.01015" lon="0.25642">
        <ele>113.8</ele>
        <time>2024-03-20T16:24:55Z</time>
      </trkpt>
      <trkpt lat="49.0102" lon="0.25637">
        <ele>113.8</ele>
        <time>2024-03-20T16:24:56Z</time>
      </trkpt>
      <trkpt lat="49.01025" lon="0.25631">
        <ele>113.8</ele>
        <time>2024-03-20T16:24:57Z</time>
      </trkpt>
      <trkpt lat="49.0103" lon="0.25625">
        <ele>113.8</ele>
        <time>2024-03-20T16:24:58Z</time>
      </trkpt>
      <trkpt lat="49.01035" lon="0.2562">
        <ele>113.8</ele>
        <time>2024-03-20T16:24:59Z</time>
      </trkpt>
      <trkpt lat="49.0104" lon="0.25615">
        <ele>113.8</ele>
        <time>2024-03-20T16:25:00Z</time>
      </trkpt>
      <trkpt lat="49.01045" lon="0.2561">
        <ele>113.8</ele>
        <time>2024-03-20T16:25:01Z</time>
      </trkpt>
      <trkpt lat="49.01051" lon="0.25604">
        <ele>114</ele>
        <time>2024-03-20T16:25:02Z</time>
      </trkpt>
      <trkpt lat="49.01056" lon="0.25599">
        <ele>114.6</ele>
        <time>2024-03-20T16:25:03Z</time>
      </trkpt>
      <trkpt lat="49.01061" lon="0.25594">
        <ele>114.8</ele>
        <time>2024-03-20T16:25:04Z</time>
      </trkpt>
      <trkpt lat="49.01067" lon="0.2559">
        <ele>115.6</ele>
        <time>2024-03-20T16:25:05Z</time>
      </trkpt>
      <trkpt lat="49.01073" lon="0.25586">
        <ele>116</ele>
        <time>2024-03-20T16:25:06Z</time>
      </trkpt>
      <trkpt lat="49.01079" lon="0.25582">
        <ele>116</ele>
        <time>2024-03-20T16:25:07Z</time>
      </trkpt>
      <trkpt lat="49.01086" lon="0.2558">
        <ele>116.2</ele>
        <time>2024-03-20T16:25:08Z</time>
      </trkpt>
      <trkpt lat="49.01093" lon="0.25578">
        <ele>116.4</ele>
        <time>2024-03-20T16:25:09Z</time>
      </trkpt>
      <trkpt lat="49.011" lon="0.25576">
        <ele>116.6</ele>
        <time>2024-03-20T16:25:10Z</time>
      </trkpt>
      <trkpt lat="49.01107" lon="0.25575">
        <ele>116.6</ele>
        <time>2024-03-20T16:25:11Z</time>
      </trkpt>
      <trkpt lat="49.01115" lon="0.25575">
        <ele>116.6</ele>
        <time>2024-03-20T16:25:12Z</time>
      </trkpt>
      <trkpt lat="49.01122" lon="0.25575">
        <ele>116.6</ele>
        <time>2024-03-20T16:25:13Z</time>
      </trkpt>
      <trkpt lat="49.0113" lon="0.25575">
        <ele>116.8</ele>
        <time>2024-03-20T16:25:14Z</time>
      </trkpt>
      <trkpt lat="49.01138" lon="0.25576">
        <ele>116.8</ele>
        <time>2024-03-20T16:25:15Z</time>
      </trkpt>
      <trkpt lat="49.01146" lon="0.25577">
        <ele>116.8</ele>
        <time>2024-03-20T16:25:16Z</time>
      </trkpt>
      <trkpt lat="49.01153" lon="0.25578">
        <ele>116.8</ele>
        <time>2024-03-20T16:25:17Z</time>
      </trkpt>
      <trkpt lat="49.01161" lon="0.25579">
        <ele>116.8</ele>
        <time>2024-03-20T16:25:18Z</time>
      </trkpt>
      <trkpt lat="49.01169" lon="0.2558">
        <ele>116.8</ele>
        <time>2024-03-20T16:25:19Z</time>
      </trkpt>
      <trkpt lat="49.01177" lon="0.25581">
        <ele>116.8</ele>
        <time>2024-03-20T16:25:20Z</time>
      </trkpt>
      <trkpt lat="49.01186" lon="0.25582">
        <ele>116.8</ele>
        <time>2024-03-20T16:25:21Z</time>
      </trkpt>
      <trkpt lat="49.01194" lon="0.25582">
        <ele>116.6</ele>
        <time>2024-03-20T16:25:22Z</time>
      </trkpt>
      <trkpt lat="49.01203" lon="0.25583">
        <ele>116</ele>
        <time>2024-03-20T16:25:23Z</time>
      </trkpt>
      <trkpt lat="49.01212" lon="0.25584">
        <ele>115.2</ele>
        <time>2024-03-20T16:25:24Z</time>
      </trkpt>
      <trkpt lat="49.01221" lon="0.25584">
        <ele>114.6</ele>
        <time>2024-03-20T16:25:25Z</time>
      </trkpt>
      <trkpt lat="49.0123" lon="0.25584">
        <ele>114.2</ele>
        <time>2024-03-20T16:25:26Z</time>
      </trkpt>
      <trkpt lat="49.01239" lon="0.25585">
        <ele>114</ele>
        <time>2024-03-20T16:25:27Z</time>
      </trkpt>
      <trkpt lat="49.01247" lon="0.25585">
        <ele>113.8</ele>
        <time>2024-03-20T16:25:28Z</time>
      </trkpt>
      <trkpt lat="49.01255" lon="0.25585">
        <ele>113.8</ele>
        <time>2024-03-20T16:25:29Z</time>
      </trkpt>
      <trkpt lat="49.01264" lon="0.25585">
        <ele>113.6</ele>
        <time>2024-03-20T16:25:30Z</time>
      </trkpt>
      <trkpt lat="49.01272" lon="0.25585">
        <ele>113</ele>
        <time>2024-03-20T16:25:31Z</time>
      </trkpt>
      <trkpt lat="49.0128" lon="0.25585">
        <ele>112.4</ele>
        <time>2024-03-20T16:25:32Z</time>
      </trkpt>
      <trkpt lat="49.01287" lon="0.25585">
        <ele>111.6</ele>
        <time>2024-03-20T16:25:33Z</time>
      </trkpt>
      <trkpt lat="49.01295" lon="0.25585">
        <ele>111.2</ele>
        <time>2024-03-20T16:25:34Z</time>
      </trkpt>
      <trkpt lat="49.01303" lon="0.25585">
        <ele>110.6</ele>
        <time>2024-03-20T16:25:35Z</time>
      </trkpt>
      <trkpt lat="49.0131" lon="0.25585">
        <ele>110.4</ele>
        <time>2024-03-20T16:25:36Z</time>
      </trkpt>
      <trkpt lat="49.01318" lon="0.25586">
        <ele>110.2</ele>
        <time>2024-03-20T16:25:37Z</time>
      </trkpt>
      <trkpt lat="49.01325" lon="0.25586">
        <ele>110.2</ele>
        <time>2024-03-20T16:25:38Z</time>
      </trkpt>
      <trkpt lat="49.01332" lon="0.25587">
        <ele>110.2</ele>
        <time>2024-03-20T16:25:39Z</time>
      </trkpt>
      <trkpt lat="49.01339" lon="0.25589">
        <ele>110.2</ele>
        <time>2024-03-20T16:25:40Z</time>
      </trkpt>
      <trkpt lat="49.01346" lon="0.2559">
        <ele>110.2</ele>
        <time>2024-03-20T16:25:41Z</time>
      </trkpt>
      <trkpt lat="49.01353" lon="0.25593">
        <ele>110.2</ele>
        <time>2024-03-20T16:25:42Z</time>
      </trkpt>
      <trkpt lat="49.0136" lon="0.25596">
        <ele>110.2</ele>
        <time>2024-03-20T16:25:43Z</time>
      </trkpt>
      <trkpt lat="49.01366" lon="0.25599">
        <ele>110.2</ele>
        <time>2024-03-20T16:25:44Z</time>
      </trkpt>
      <trkpt lat="49.01372" lon="0.25602">
        <ele>110.4</ele>
        <time>2024-03-20T16:25:45Z</time>
      </trkpt>
      <trkpt lat="49.01379" lon="0.25604">
        <ele>110.4</ele>
        <time>2024-03-20T16:25:46Z</time>
      </trkpt>
      <trkpt lat="49.01386" lon="0.25606">
        <ele>110.6</ele>
        <time>2024-03-20T16:25:47Z</time>
      </trkpt>
      <trkpt lat="49.01393" lon="0.25606">
        <ele>110.6</ele>
        <time>2024-03-20T16:25:48Z</time>
      </trkpt>
      <trkpt lat="49.01401" lon="0.25606">
        <ele>110.6</ele>
        <time>2024-03-20T16:25:49Z</time>
      </trkpt>
      <trkpt lat="49.01407" lon="0.25606">
        <ele>110.8</ele>
        <time>2024-03-20T16:25:50Z</time>
      </trkpt>
      <trkpt lat="49.01414" lon="0.25604">
        <ele>110.8</ele>
        <time>2024-03-20T16:25:51Z</time>
      </trkpt>
      <trkpt lat="49.01422" lon="0.25602">
        <ele>110.8</ele>
        <time>2024-03-20T16:25:52Z</time>
      </trkpt>
      <trkpt lat="49.01429" lon="0.256">
        <ele>110.8</ele>
        <time>2024-03-20T16:25:53Z</time>
      </trkpt>
      <trkpt lat="49.01435" lon="0.25597">
        <ele>110.8</ele>
        <time>2024-03-20T16:25:54Z</time>
      </trkpt>
      <trkpt lat="49.01441" lon="0.25595">
        <ele>111</ele>
        <time>2024-03-20T16:25:55Z</time>
      </trkpt>
      <trkpt lat="49.01448" lon="0.25593">
        <ele>111</ele>
        <time>2024-03-20T16:25:56Z</time>
      </trkpt>
      <trkpt lat="49.01455" lon="0.2559">
        <ele>111.2</ele>
        <time>2024-03-20T16:25:57Z</time>
      </trkpt>
      <trkpt lat="49.01461" lon="0.25587">
        <ele>111.2</ele>
        <time>2024-03-20T16:25:58Z</time>
      </trkpt>
      <trkpt lat="49.01468" lon="0.25584">
        <ele>111.2</ele>
        <time>2024-03-20T16:25:59Z</time>
      </trkpt>
      <trkpt lat="49.01474" lon="0.25581">
        <ele>111.2</ele>
        <time>2024-03-20T16:26:00Z</time>
      </trkpt>
      <trkpt lat="49.0148" lon="0.25578">
        <ele>111.4</ele>
        <time>2024-03-20T16:26:01Z</time>
      </trkpt>
      <trkpt lat="49.01487" lon="0.25575">
        <ele>111.4</ele>
        <time>2024-03-20T16:26:02Z</time>
      </trkpt>
      <trkpt lat="49.01493" lon="0.25572">
        <ele>111.6</ele>
        <time>2024-03-20T16:26:03Z</time>
      </trkpt>
      <trkpt lat="49.01499" lon="0.25569">
        <ele>111.8</ele>
        <time>2024-03-20T16:26:04Z</time>
      </trkpt>
      <trkpt lat="49.01506" lon="0.25565">
        <ele>112</ele>
        <time>2024-03-20T16:26:05Z</time>
      </trkpt>
      <trkpt lat="49.01512" lon="0.25562">
        <ele>112</ele>
        <time>2024-03-20T16:26:06Z</time>
      </trkpt>
      <trkpt lat="49.01519" lon="0.25558">
        <ele>112.2</ele>
        <time>2024-03-20T16:26:07Z</time>
      </trkpt>
      <trkpt lat="49.01526" lon="0.25554">
        <ele>112.2</ele>
        <time>2024-03-20T16:26:08Z</time>
      </trkpt>
      <trkpt lat="49.01534" lon="0.25551">
        <ele>112.4</ele>
        <time>2024-03-20T16:26:09Z</time>
      </trkpt>
      <trkpt lat="49.01541" lon="0.25547">
        <ele>112.4</ele>
        <time>2024-03-20T16:26:10Z</time>
      </trkpt>
      <trkpt lat="49.01549" lon="0.25544">
        <ele>112.6</ele>
        <time>2024-03-20T16:26:11Z</time>
      </trkpt>
      <trkpt lat="49.01556" lon="0.2554">
        <ele>113</ele>
        <time>2024-03-20T16:26:12Z</time>
      </trkpt>
      <trkpt lat="49.01564" lon="0.25537">
        <ele>113.2</ele>
        <time>2024-03-20T16:26:13Z</time>
      </trkpt>
      <trkpt lat="49.01572" lon="0.25535">
        <ele>113.4</ele>
        <time>2024-03-20T16:26:14Z</time>
      </trkpt>
      <trkpt lat="49.01579" lon="0.25533">
        <ele>113.4</ele>
        <time>2024-03-20T16:26:15Z</time>
      </trkpt>
      <trkpt lat="49.01587" lon="0.25531">
        <ele>113.6</ele>
        <time>2024-03-20T16:26:16Z</time>
      </trkpt>
      <trkpt lat="49.01594" lon="0.25529">
        <ele>113.6</ele>
        <time>2024-03-20T16:26:17Z</time>
      </trkpt>
      <trkpt lat="49.01601" lon="0.25528">
        <ele>113.6</ele>
        <time>2024-03-20T16:26:18Z</time>
      </trkpt>
      <trkpt lat="49.01608" lon="0.25527">
        <ele>113.6</ele>
        <time>2024-03-20T16:26:19Z</time>
      </trkpt>
      <trkpt lat="49.01615" lon="0.25526">
        <ele>113.6</ele>
        <time>2024-03-20T16:26:20Z</time>
      </trkpt>
      <trkpt lat="49.01623" lon="0.25525">
        <ele>113.6</ele>
        <time>2024-03-20T16:26:21Z</time>
      </trkpt>
      <trkpt lat="49.0163" lon="0.25523">
        <ele>113.6</ele>
        <time>2024-03-20T16:26:22Z</time>
      </trkpt>
      <trkpt lat="49.01638" lon="0.25522">
        <ele>113.6</ele>
        <time>2024-03-20T16:26:23Z</time>
      </trkpt>
      <trkpt lat="49.01646" lon="0.2552">
        <ele>113.6</ele>
        <time>2024-03-20T16:26:24Z</time>
      </trkpt>
      <trkpt lat="49.01654" lon="0.25518">
        <ele>113.6</ele>
        <time>2024-03-20T16:26:25Z</time>
      </trkpt>
      <trkpt lat="49.01662" lon="0.25516">
        <ele>113.6</ele>
        <time>2024-03-20T16:26:26Z</time>
      </trkpt>
      <trkpt lat="49.0167" lon="0.25514">
        <ele>113.6</ele>
        <time>2024-03-20T16:26:27Z</time>
      </trkpt>
      <trkpt lat="49.01677" lon="0.25512">
        <ele>113.6</ele>
        <time>2024-03-20T16:26:28Z</time>
      </trkpt>
      <trkpt lat="49.01684" lon="0.2551">
        <ele>113.6</ele>
        <time>2024-03-20T16:26:29Z</time>
      </trkpt>
      <trkpt lat="49.01691" lon="0.25507">
        <ele>113.6</ele>
        <time>2024-03-20T16:26:30Z</time>
      </trkpt>
      <trkpt lat="49.01698" lon="0.25504">
        <ele>113.6</ele>
        <time>2024-03-20T16:26:31Z</time>
      </trkpt>
      <trkpt lat="49.01704" lon="0.25502">
        <ele>113.6</ele>
        <time>2024-03-20T16:26:32Z</time>
      </trkpt>
      <trkpt lat="49.01711" lon="0.255">
        <ele>113.4</ele>
        <time>2024-03-20T16:26:33Z</time>
      </trkpt>
      <trkpt lat="49.01719" lon="0.25498">
        <ele>113.4</ele>
        <time>2024-03-20T16:26:34Z</time>
      </trkpt>
      <trkpt lat="49.01726" lon="0.25495">
        <ele>113.4</ele>
        <time>2024-03-20T16:26:35Z</time>
      </trkpt>
      <trkpt lat="49.01733" lon="0.25493">
        <ele>113.4</ele>
        <time>2024-03-20T16:26:36Z</time>
      </trkpt>
      <trkpt lat="49.01739" lon="0.25491">
        <ele>113.4</ele>
        <time>2024-03-20T16:26:37Z</time>
      </trkpt>
      <trkpt lat="49.01746" lon="0.25489">
        <ele>113.4</ele>
        <time>2024-03-20T16:26:38Z</time>
      </trkpt>
      <trkpt lat="49.01753" lon="0.25487">
        <ele>113.4</ele>
        <time>2024-03-20T16:26:39Z</time>
      </trkpt>
      <trkpt lat="49.0176" lon="0.25485">
        <ele>113.6</ele>
        <time>2024-03-20T16:26:40Z</time>
      </trkpt>
      <trkpt lat="49.01767" lon="0.25483">
        <ele>113.6</ele>
        <time>2024-03-20T16:26:41Z</time>
      </trkpt>
      <trkpt lat="49.01774" lon="0.25481">
        <ele>113.6</ele>
        <time>2024-03-20T16:26:42Z</time>
      </trkpt>
      <trkpt lat="49.0178" lon="0.25479">
        <ele>113.6</ele>
        <time>2024-03-20T16:26:43Z</time>
      </trkpt>
      <trkpt lat="49.01787" lon="0.25477">
        <ele>113.6</ele>
        <time>2024-03-20T16:26:44Z</time>
      </trkpt>
      <trkpt lat="49.01794" lon="0.25475">
        <ele>113.8</ele>
        <time>2024-03-20T16:26:45Z</time>
      </trkpt>
      <trkpt lat="49.01801" lon="0.25473">
        <ele>114</ele>
        <time>2024-03-20T16:26:46Z</time>
      </trkpt>
      <trkpt lat="49.01808" lon="0.25471">
        <ele>114</ele>
        <time>2024-03-20T16:26:47Z</time>
      </trkpt>
      <trkpt lat="49.01815" lon="0.25468">
        <ele>114.2</ele>
        <time>2024-03-20T16:26:48Z</time>
      </trkpt>
      <trkpt lat="49.01822" lon="0.25466">
        <ele>114.2</ele>
        <time>2024-03-20T16:26:49Z</time>
      </trkpt>
      <trkpt lat="49.01829" lon="0.25465">
        <ele>114.2</ele>
        <time>2024-03-20T16:26:50Z</time>
      </trkpt>
      <trkpt lat="49.01837" lon="0.25463">
        <ele>114.2</ele>
        <time>2024-03-20T16:26:51Z</time>
      </trkpt>
      <trkpt lat="49.01845" lon="0.25461">
        <ele>114.2</ele>
        <time>2024-03-20T16:26:52Z</time>
      </trkpt>
      <trkpt lat="49.01852" lon="0.25459">
        <ele>114.2</ele>
        <time>2024-03-20T16:26:53Z</time>
      </trkpt>
      <trkpt lat="49.01861" lon="0.25457">
        <ele>114.2</ele>
        <time>2024-03-20T16:26:54Z</time>
      </trkpt>
      <trkpt lat="49.01869" lon="0.25455">
        <ele>114.2</ele>
        <time>2024-03-20T16:26:55Z</time>
      </trkpt>
      <trkpt lat="49.01877" lon="0.25454">
        <ele>114.2</ele>
        <time>2024-03-20T16:26:56Z</time>
      </trkpt>
      <trkpt lat="49.01885" lon="0.25454">
        <ele>114.2</ele>
        <time>2024-03-20T16:26:57Z</time>
      </trkpt>
      <trkpt lat="49.01893" lon="0.25453">
        <ele>114.2</ele>
        <time>2024-03-20T16:26:58Z</time>
      </trkpt>
      <trkpt lat="49.01902" lon="0.25453">
        <ele>114.2</ele>
        <time>2024-03-20T16:26:59Z</time>
      </trkpt>
      <trkpt lat="49.0191" lon="0.25453">
        <ele>114.2</ele>
        <time>2024-03-20T16:27:00Z</time>
      </trkpt>
      <trkpt lat="49.01919" lon="0.25453">
        <ele>114</ele>
        <time>2024-03-20T16:27:01Z</time>
      </trkpt>
      <trkpt lat="49.01928" lon="0.25453">
        <ele>114</ele>
        <time>2024-03-20T16:27:02Z</time>
      </trkpt>
      <trkpt lat="49.01936" lon="0.25454">
        <ele>113.8</ele>
        <time>2024-03-20T16:27:03Z</time>
      </trkpt>
      <trkpt lat="49.01946" lon="0.25455">
        <ele>113.6</ele>
        <time>2024-03-20T16:27:04Z</time>
      </trkpt>
      <trkpt lat="49.01955" lon="0.25457">
        <ele>113.2</ele>
        <time>2024-03-20T16:27:05Z</time>
      </trkpt>
      <trkpt lat="49.01964" lon="0.25459">
        <ele>113</ele>
        <time>2024-03-20T16:27:06Z</time>
      </trkpt>
      <trkpt lat="49.01972" lon="0.25462">
        <ele>112.8</ele>
        <time>2024-03-20T16:27:07Z</time>
      </trkpt>
      <trkpt lat="49.01981" lon="0.25466">
        <ele>112.4</ele>
        <time>2024-03-20T16:27:08Z</time>
      </trkpt>
      <trkpt lat="49.01989" lon="0.2547">
        <ele>111.8</ele>
        <time>2024-03-20T16:27:09Z</time>
      </trkpt>
      <trkpt lat="49.01997" lon="0.25474">
        <ele>111.2</ele>
        <time>2024-03-20T16:27:10Z</time>
      </trkpt>
      <trkpt lat="49.02005" lon="0.25477">
        <ele>111</ele>
        <time>2024-03-20T16:27:11Z</time>
      </trkpt>
      <trkpt lat="49.02012" lon="0.2548">
        <ele>110.6</ele>
        <time>2024-03-20T16:27:12Z</time>
      </trkpt>
      <trkpt lat="49.0202" lon="0.25483">
        <ele>110.4</ele>
        <time>2024-03-20T16:27:13Z</time>
      </trkpt>
      <trkpt lat="49.02028" lon="0.25485">
        <ele>110</ele>
        <time>2024-03-20T16:27:14Z</time>
      </trkpt>
      <trkpt lat="49.02036" lon="0.25486">
        <ele>109.4</ele>
        <time>2024-03-20T16:27:15Z</time>
      </trkpt>
      <trkpt lat="49.02044" lon="0.25486">
        <ele>108.8</ele>
        <time>2024-03-20T16:27:16Z</time>
      </trkpt>
      <trkpt lat="49.02051" lon="0.25486">
        <ele>108.6</ele>
        <time>2024-03-20T16:27:17Z</time>
      </trkpt>
      <trkpt lat="49.02059" lon="0.25485">
        <ele>108.4</ele>
        <time>2024-03-20T16:27:18Z</time>
      </trkpt>
      <trkpt lat="49.02066" lon="0.25483">
        <ele>108.4</ele>
        <time>2024-03-20T16:27:19Z</time>
      </trkpt>
      <trkpt lat="49.02073" lon="0.25482">
        <ele>108.4</ele>
        <time>2024-03-20T16:27:20Z</time>
      </trkpt>
      <trkpt lat="49.02079" lon="0.2548">
        <ele>108.2</ele>
        <time>2024-03-20T16:27:21Z</time>
      </trkpt>
      <trkpt lat="49.02086" lon="0.25478">
        <ele>108.2</ele>
        <time>2024-03-20T16:27:22Z</time>
      </trkpt>
      <trkpt lat="49.02093" lon="0.25477">
        <ele>108.2</ele>
        <time>2024-03-20T16:27:23Z</time>
      </trkpt>
      <trkpt lat="49.021" lon="0.25475">
        <ele>108.2</ele>
        <time>2024-03-20T16:27:24Z</time>
      </trkpt>
      <trkpt lat="49.02107" lon="0.25474">
        <ele>108.2</ele>
        <time>2024-03-20T16:27:25Z</time>
      </trkpt>
      <trkpt lat="49.02114" lon="0.25472">
        <ele>108.2</ele>
        <time>2024-03-20T16:27:26Z</time>
      </trkpt>
      <trkpt lat="49.02121" lon="0.2547">
        <ele>108.6</ele>
        <time>2024-03-20T16:27:27Z</time>
      </trkpt>
      <trkpt lat="49.02128" lon="0.25468">
        <ele>108.6</ele>
        <time>2024-03-20T16:27:28Z</time>
      </trkpt>
      <trkpt lat="49.02136" lon="0.25467">
        <ele>109</ele>
        <time>2024-03-20T16:27:29Z</time>
      </trkpt>
      <trkpt lat="49.02143" lon="0.25465">
        <ele>109.4</ele>
        <time>2024-03-20T16:27:30Z</time>
      </trkpt>
      <trkpt lat="49.0215" lon="0.25463">
        <ele>109.6</ele>
        <time>2024-03-20T16:27:31Z</time>
      </trkpt>
      <trkpt lat="49.02157" lon="0.25461">
        <ele>109.8</ele>
        <time>2024-03-20T16:27:32Z</time>
      </trkpt>
      <trkpt lat="49.02164" lon="0.2546">
        <ele>110</ele>
        <time>2024-03-20T16:27:33Z</time>
      </trkpt>
      <trkpt lat="49.02171" lon="0.25458">
        <ele>110</ele>
        <time>2024-03-20T16:27:34Z</time>
      </trkpt>
      <trkpt lat="49.02178" lon="0.25457">
        <ele>110</ele>
        <time>2024-03-20T16:27:35Z</time>
      </trkpt>
      <trkpt lat="49.02185" lon="0.25455">
        <ele>110</ele>
        <time>2024-03-20T16:27:36Z</time>
      </trkpt>
      <trkpt lat="49.02192" lon="0.25453">
        <ele>110</ele>
        <time>2024-03-20T16:27:37Z</time>
      </trkpt>
      <trkpt lat="49.022" lon="0.25452">
        <ele>110</ele>
        <time>2024-03-20T16:27:38Z</time>
      </trkpt>
      <trkpt lat="49.02207" lon="0.2545">
        <ele>110</ele>
        <time>2024-03-20T16:27:39Z</time>
      </trkpt>
      <trkpt lat="49.02214" lon="0.25448">
        <ele>110.2</ele>
        <time>2024-03-20T16:27:40Z</time>
      </trkpt>
      <trkpt lat="49.02221" lon="0.25446">
        <ele>110.2</ele>
        <time>2024-03-20T16:27:41Z</time>
      </trkpt>
      <trkpt lat="49.02228" lon="0.25445">
        <ele>110.2</ele>
        <time>2024-03-20T16:27:42Z</time>
      </trkpt>
      <trkpt lat="49.02235" lon="0.25443">
        <ele>110.2</ele>
        <time>2024-03-20T16:27:43Z</time>
      </trkpt>
      <trkpt lat="49.02243" lon="0.25442">
        <ele>110.2</ele>
        <time>2024-03-20T16:27:44Z</time>
      </trkpt>
      <trkpt lat="49.0225" lon="0.2544">
        <ele>110.2</ele>
        <time>2024-03-20T16:27:45Z</time>
      </trkpt>
      <trkpt lat="49.02258" lon="0.25438">
        <ele>110.2</ele>
        <time>2024-03-20T16:27:46Z</time>
      </trkpt>
      <trkpt lat="49.02265" lon="0.25436">
        <ele>110.2</ele>
        <time>2024-03-20T16:27:47Z</time>
      </trkpt>
      <trkpt lat="49.02273" lon="0.25434">
        <ele>110.2</ele>
        <time>2024-03-20T16:27:48Z</time>
      </trkpt>
      <trkpt lat="49.0228" lon="0.25432">
        <ele>110.2</ele>
        <time>2024-03-20T16:27:49Z</time>
      </trkpt>
      <trkpt lat="49.02287" lon="0.2543">
        <ele>110</ele>
        <time>2024-03-20T16:27:50Z</time>
      </trkpt>
      <trkpt lat="49.02294" lon="0.25429">
        <ele>110</ele>
        <time>2024-03-20T16:27:51Z</time>
      </trkpt>
      <trkpt lat="49.02302" lon="0.25427">
        <ele>110</ele>
        <time>2024-03-20T16:27:52Z</time>
      </trkpt>
      <trkpt lat="49.02309" lon="0.25425">
        <ele>110</ele>
        <time>2024-03-20T16:27:53Z</time>
      </trkpt>
      <trkpt lat="49.02316" lon="0.25424">
        <ele>110.2</ele>
        <time>2024-03-20T16:27:54Z</time>
      </trkpt>
      <trkpt lat="49.02324" lon="0.25422">
        <ele>110.2</ele>
        <time>2024-03-20T16:27:55Z</time>
      </trkpt>
      <trkpt lat="49.02331" lon="0.2542">
        <ele>110.2</ele>
        <time>2024-03-20T16:27:56Z</time>
      </trkpt>
      <trkpt lat="49.02338" lon="0.25419">
        <ele>110.2</ele>
        <time>2024-03-20T16:27:57Z</time>
      </trkpt>
      <trkpt lat="49.02345" lon="0.25417">
        <ele>110.2</ele>
        <time>2024-03-20T16:27:58Z</time>
      </trkpt>
      <trkpt lat="49.02353" lon="0.25415">
        <ele>110.2</ele>
        <time>2024-03-20T16:27:59Z</time>
      </trkpt>
      <trkpt lat="49.0236" lon="0.25414">
        <ele>110.2</ele>
        <time>2024-03-20T16:28:00Z</time>
      </trkpt>
      <trkpt lat="49.02367" lon="0.25412">
        <ele>110.2</ele>
        <time>2024-03-20T16:28:01Z</time>
      </trkpt>
      <trkpt lat="49.02375" lon="0.2541">
        <ele>110.2</ele>
        <time>2024-03-20T16:28:02Z</time>
      </trkpt>
      <trkpt lat="49.02382" lon="0.25408">
        <ele>110.2</ele>
        <time>2024-03-20T16:28:03Z</time>
      </trkpt>
      <trkpt lat="49.02389" lon="0.25407">
        <ele>110.2</ele>
        <time>2024-03-20T16:28:04Z</time>
      </trkpt>
      <trkpt lat="49.02397" lon="0.25405">
        <ele>110.4</ele>
        <time>2024-03-20T16:28:05Z</time>
      </trkpt>
      <trkpt lat="49.02404" lon="0.25403">
        <ele>110.4</ele>
        <time>2024-03-20T16:28:06Z</time>
      </trkpt>
      <trkpt lat="49.02412" lon="0.25401">
        <ele>110.4</ele>
        <time>2024-03-20T16:28:07Z</time>
      </trkpt>
      <trkpt lat="49.02419" lon="0.25399">
        <ele>110.4</ele>
        <time>2024-03-20T16:28:08Z</time>
      </trkpt>
      <trkpt lat="49.02426" lon="0.25398">
        <ele>110.4</ele>
        <time>2024-03-20T16:28:09Z</time>
      </trkpt>
      <trkpt lat="49.02434" lon="0.25396">
        <ele>110.4</ele>
        <time>2024-03-20T16:28:10Z</time>
      </trkpt>
      <trkpt lat="49.02441" lon="0.25394">
        <ele>110.2</ele>
        <time>2024-03-20T16:28:11Z</time>
      </trkpt>
      <trkpt lat="49.02449" lon="0.25392">
        <ele>110.2</ele>
        <time>2024-03-20T16:28:12Z</time>
      </trkpt>
      <trkpt lat="49.02456" lon="0.25391">
        <ele>110.2</ele>
        <time>2024-03-20T16:28:13Z</time>
      </trkpt>
      <trkpt lat="49.02464" lon="0.25389">
        <ele>110.2</ele>
        <time>2024-03-20T16:28:14Z</time>
      </trkpt>
      <trkpt lat="49.02472" lon="0.25387">
        <ele>110.4</ele>
        <time>2024-03-20T16:28:15Z</time>
      </trkpt>
      <trkpt lat="49.02479" lon="0.25385">
        <ele>110</ele>
        <time>2024-03-20T16:28:16Z</time>
      </trkpt>
      <trkpt lat="49.02487" lon="0.25383">
        <ele>110</ele>
        <time>2024-03-20T16:28:17Z</time>
      </trkpt>
      <trkpt lat="49.02494" lon="0.25382">
        <ele>110</ele>
        <time>2024-03-20T16:28:18Z</time>
      </trkpt>
      <trkpt lat="49.02502" lon="0.2538">
        <ele>110.2</ele>
        <time>2024-03-20T16:28:19Z</time>
      </trkpt>
      <trkpt lat="49.02509" lon="0.25378">
        <ele>110</ele>
        <time>2024-03-20T16:28:20Z</time>
      </trkpt>
      <trkpt lat="49.02517" lon="0.25377">
        <ele>109.8</ele>
        <time>2024-03-20T16:28:21Z</time>
      </trkpt>
      <trkpt lat="49.02525" lon="0.25375">
        <ele>109.6</ele>
        <time>2024-03-20T16:28:22Z</time>
      </trkpt>
      <trkpt lat="49.02532" lon="0.25373">
        <ele>109.4</ele>
        <time>2024-03-20T16:28:23Z</time>
      </trkpt>
      <trkpt lat="49.0254" lon="0.25371">
        <ele>109</ele>
        <time>2024-03-20T16:28:24Z</time>
      </trkpt>
      <trkpt lat="49.02547" lon="0.25369">
        <ele>108.8</ele>
        <time>2024-03-20T16:28:25Z</time>
      </trkpt>
      <trkpt lat="49.02555" lon="0.25367">
        <ele>108.6</ele>
        <time>2024-03-20T16:28:26Z</time>
      </trkpt>
      <trkpt lat="49.02562" lon="0.25365">
        <ele>108.4</ele>
        <time>2024-03-20T16:28:27Z</time>
      </trkpt>
      <trkpt lat="49.0257" lon="0.25363">
        <ele>108.2</ele>
        <time>2024-03-20T16:28:28Z</time>
      </trkpt>
      <trkpt lat="49.02577" lon="0.25361">
        <ele>108.2</ele>
        <time>2024-03-20T16:28:29Z</time>
      </trkpt>
      <trkpt lat="49.02585" lon="0.25359">
        <ele>108</ele>
        <time>2024-03-20T16:28:30Z</time>
      </trkpt>
      <trkpt lat="49.02592" lon="0.25357">
        <ele>107.8</ele>
        <time>2024-03-20T16:28:31Z</time>
      </trkpt>
      <trkpt lat="49.026" lon="0.25355">
        <ele>107.6</ele>
        <time>2024-03-20T16:28:32Z</time>
      </trkpt>
      <trkpt lat="49.02608" lon="0.25354">
        <ele>107.6</ele>
        <time>2024-03-20T16:28:33Z</time>
      </trkpt>
      <trkpt lat="49.02616" lon="0.25352">
        <ele>107.4</ele>
        <time>2024-03-20T16:28:34Z</time>
      </trkpt>
      <trkpt lat="49.02624" lon="0.2535">
        <ele>107.2</ele>
        <time>2024-03-20T16:28:35Z</time>
      </trkpt>
      <trkpt lat="49.02631" lon="0.25348">
        <ele>107.2</ele>
        <time>2024-03-20T16:28:36Z</time>
      </trkpt>
      <trkpt lat="49.0264" lon="0.25346">
        <ele>107.4</ele>
        <time>2024-03-20T16:28:37Z</time>
      </trkpt>
      <trkpt lat="49.02648" lon="0.25344">
        <ele>107.4</ele>
        <time>2024-03-20T16:28:38Z</time>
      </trkpt>
      <trkpt lat="49.02656" lon="0.25342">
        <ele>107.2</ele>
        <time>2024-03-20T16:28:39Z</time>
      </trkpt>
      <trkpt lat="49.02665" lon="0.2534">
        <ele>107.2</ele>
        <time>2024-03-20T16:28:40Z</time>
      </trkpt>
      <trkpt lat="49.02673" lon="0.25338">
        <ele>107</ele>
        <time>2024-03-20T16:28:41Z</time>
      </trkpt>
      <trkpt lat="49.02681" lon="0.25336">
        <ele>107</ele>
        <time>2024-03-20T16:28:42Z</time>
      </trkpt>
      <trkpt lat="49.0269" lon="0.25334">
        <ele>106.8</ele>
        <time>2024-03-20T16:28:43Z</time>
      </trkpt>
      <trkpt lat="49.02698" lon="0.25332">
        <ele>106.4</ele>
        <time>2024-03-20T16:28:44Z</time>
      </trkpt>
      <trkpt lat="49.02707" lon="0.2533">
        <ele>106.2</ele>
        <time>2024-03-20T16:28:45Z</time>
      </trkpt>
      <trkpt lat="49.02716" lon="0.25328">
        <ele>105.8</ele>
        <time>2024-03-20T16:28:46Z</time>
      </trkpt>
      <trkpt lat="49.02724" lon="0.25326">
        <ele>105.6</ele>
        <time>2024-03-20T16:28:47Z</time>
      </trkpt>
      <trkpt lat="49.02733" lon="0.25325">
        <ele>105.2</ele>
        <time>2024-03-20T16:28:48Z</time>
      </trkpt>
      <trkpt lat="49.02742" lon="0.25323">
        <ele>104.8</ele>
        <time>2024-03-20T16:28:49Z</time>
      </trkpt>
      <trkpt lat="49.02751" lon="0.25322">
        <ele>104.4</ele>
        <time>2024-03-20T16:28:50Z</time>
      </trkpt>
      <trkpt lat="49.0276" lon="0.25321">
        <ele>104.4</ele>
        <time>2024-03-20T16:28:51Z</time>
      </trkpt>
      <trkpt lat="49.02769" lon="0.25321">
        <ele>104.2</ele>
        <time>2024-03-20T16:28:52Z</time>
      </trkpt>
      <trkpt lat="49.02778" lon="0.25322">
        <ele>104</ele>
        <time>2024-03-20T16:28:53Z</time>
      </trkpt>
      <trkpt lat="49.02787" lon="0.25324">
        <ele>104</ele>
        <time>2024-03-20T16:28:54Z</time>
      </trkpt>
      <trkpt lat="49.02796" lon="0.25325">
        <ele>103.8</ele>
        <time>2024-03-20T16:28:55Z</time>
      </trkpt>
      <trkpt lat="49.02804" lon="0.25327">
        <ele>103.4</ele>
        <time>2024-03-20T16:28:56Z</time>
      </trkpt>
      <trkpt lat="49.02812" lon="0.2533">
        <ele>103</ele>
        <time>2024-03-20T16:28:57Z</time>
      </trkpt>
      <trkpt lat="49.0282" lon="0.25332">
        <ele>102.2</ele>
        <time>2024-03-20T16:28:58Z</time>
      </trkpt>
      <trkpt lat="49.02828" lon="0.25334">
        <ele>101.8</ele>
        <time>2024-03-20T16:28:59Z</time>
      </trkpt>
      <trkpt lat="49.02837" lon="0.25337">
        <ele>101.4</ele>
        <time>2024-03-20T16:29:00Z</time>
      </trkpt>
      <trkpt lat="49.02845" lon="0.25339">
        <ele>100.8</ele>
        <time>2024-03-20T16:29:01Z</time>
      </trkpt>
      <trkpt lat="49.02853" lon="0.25341">
        <ele>100.4</ele>
        <time>2024-03-20T16:29:02Z</time>
      </trkpt>
      <trkpt lat="49.02861" lon="0.25343">
        <ele>100.4</ele>
        <time>2024-03-20T16:29:03Z</time>
      </trkpt>
      <trkpt lat="49.0287" lon="0.25345">
        <ele>100</ele>
        <time>2024-03-20T16:29:04Z</time>
      </trkpt>
      <trkpt lat="49.02878" lon="0.25347">
        <ele>99.6</ele>
        <time>2024-03-20T16:29:05Z</time>
      </trkpt>
      <trkpt lat="49.02886" lon="0.25349">
        <ele>99.4</ele>
        <time>2024-03-20T16:29:06Z</time>
      </trkpt>
      <trkpt lat="49.02894" lon="0.25351">
        <ele>99.2</ele>
        <time>2024-03-20T16:29:07Z</time>
      </trkpt>
      <trkpt lat="49.02903" lon="0.25353">
        <ele>99.2</ele>
        <time>2024-03-20T16:29:08Z</time>
      </trkpt>
      <trkpt lat="49.02911" lon="0.25355">
        <ele>99.2</ele>
        <time>2024-03-20T16:29:09Z</time>
      </trkpt>
      <trkpt lat="49.02919" lon="0.25357">
        <ele>99.2</ele>
        <time>2024-03-20T16:29:10Z</time>
      </trkpt>
      <trkpt lat="49.02927" lon="0.25359">
        <ele>99.2</ele>
        <time>2024-03-20T16:29:11Z</time>
      </trkpt>
      <trkpt lat="49.02935" lon="0.25361">
        <ele>99.2</ele>
        <time>2024-03-20T16:29:12Z</time>
      </trkpt>
      <trkpt lat="49.02942" lon="0.25363">
        <ele>99.2</ele>
        <time>2024-03-20T16:29:13Z</time>
      </trkpt>
      <trkpt lat="49.0295" lon="0.25365">
        <ele>99.2</ele>
        <time>2024-03-20T16:29:14Z</time>
      </trkpt>
      <trkpt lat="49.02957" lon="0.25366">
        <ele>99.2</ele>
        <time>2024-03-20T16:29:15Z</time>
      </trkpt>
      <trkpt lat="49.02964" lon="0.25368">
        <ele>99.4</ele>
        <time>2024-03-20T16:29:16Z</time>
      </trkpt>
      <trkpt lat="49.0297" lon="0.2537">
        <ele>99.4</ele>
        <time>2024-03-20T16:29:17Z</time>
      </trkpt>
      <trkpt lat="49.02977" lon="0.25371">
        <ele>99.4</ele>
        <time>2024-03-20T16:29:18Z</time>
      </trkpt>
      <trkpt lat="49.02983" lon="0.25372">
        <ele>99.8</ele>
        <time>2024-03-20T16:29:19Z</time>
      </trkpt>
      <trkpt lat="49.02989" lon="0.25373">
        <ele>100</ele>
        <time>2024-03-20T16:29:20Z</time>
      </trkpt>
      <trkpt lat="49.02995" lon="0.25375">
        <ele>100.2</ele>
        <time>2024-03-20T16:29:21Z</time>
      </trkpt>
      <trkpt lat="49.03001" lon="0.25376">
        <ele>100.4</ele>
        <time>2024-03-20T16:29:22Z</time>
      </trkpt>
      <trkpt lat="49.03007" lon="0.25378">
        <ele>100.6</ele>
        <time>2024-03-20T16:29:23Z</time>
      </trkpt>
      <trkpt lat="49.03013" lon="0.2538">
        <ele>101</ele>
        <time>2024-03-20T16:29:24Z</time>
      </trkpt>
      <trkpt lat="49.03018" lon="0.25383">
        <ele>101.4</ele>
        <time>2024-03-20T16:29:25Z</time>
      </trkpt>
      <trkpt lat="49.03024" lon="0.25385">
        <ele>101.8</ele>
        <time>2024-03-20T16:29:26Z</time>
      </trkpt>
      <trkpt lat="49.03029" lon="0.25387">
        <ele>102.2</ele>
        <time>2024-03-20T16:29:27Z</time>
      </trkpt>
      <trkpt lat="49.03035" lon="0.25388">
        <ele>102.4</ele>
        <time>2024-03-20T16:29:28Z</time>
      </trkpt>
      <trkpt lat="49.0304" lon="0.2539">
        <ele>103</ele>
        <time>2024-03-20T16:29:29Z</time>
      </trkpt>
      <trkpt lat="49.03046" lon="0.25391">
        <ele>103.6</ele>
        <time>2024-03-20T16:29:30Z</time>
      </trkpt>
      <trkpt lat="49.03052" lon="0.25393">
        <ele>104</ele>
        <time>2024-03-20T16:29:31Z</time>
      </trkpt>
      <trkpt lat="49.03058" lon="0.25394">
        <ele>104.2</ele>
        <time>2024-03-20T16:29:32Z</time>
      </trkpt>
      <trkpt lat="49.03063" lon="0.25395">
        <ele>104.4</ele>
        <time>2024-03-20T16:29:33Z</time>
      </trkpt>
      <trkpt lat="49.03069" lon="0.25396">
        <ele>104.8</ele>
        <time>2024-03-20T16:29:34Z</time>
      </trkpt>
      <trkpt lat="49.03075" lon="0.25397">
        <ele>105.2</ele>
        <time>2024-03-20T16:29:35Z</time>
      </trkpt>
      <trkpt lat="49.03081" lon="0.25398">
        <ele>105.2</ele>
        <time>2024-03-20T16:29:36Z</time>
      </trkpt>
      <trkpt lat="49.03086" lon="0.254">
        <ele>105.6</ele>
        <time>2024-03-20T16:29:37Z</time>
      </trkpt>
      <trkpt lat="49.03091" lon="0.25402">
        <ele>106</ele>
        <time>2024-03-20T16:29:38Z</time>
      </trkpt>
      <trkpt lat="49.03097" lon="0.25403">
        <ele>106.2</ele>
        <time>2024-03-20T16:29:39Z</time>
      </trkpt>
      <trkpt lat="49.03102" lon="0.25405">
        <ele>106.6</ele>
        <time>2024-03-20T16:29:40Z</time>
      </trkpt>
      <trkpt lat="49.03108" lon="0.25406">
        <ele>106.8</ele>
        <time>2024-03-20T16:29:41Z</time>
      </trkpt>
      <trkpt lat="49.03114" lon="0.25407">
        <ele>107</ele>
        <time>2024-03-20T16:29:42Z</time>
      </trkpt>
      <trkpt lat="49.0312" lon="0.25409">
        <ele>107.4</ele>
        <time>2024-03-20T16:29:43Z</time>
      </trkpt>
      <trkpt lat="49.03125" lon="0.25411">
        <ele>107.8</ele>
        <time>2024-03-20T16:29:44Z</time>
      </trkpt>
      <trkpt lat="49.03131" lon="0.25414">
        <ele>108</ele>
        <time>2024-03-20T16:29:45Z</time>
      </trkpt>
      <trkpt lat="49.03136" lon="0.25415">
        <ele>108.4</ele>
        <time>2024-03-20T16:29:46Z</time>
      </trkpt>
      <trkpt lat="49.03142" lon="0.25416">
        <ele>108.6</ele>
        <time>2024-03-20T16:29:47Z</time>
      </trkpt>
      <trkpt lat="49.03147" lon="0.25418">
        <ele>108.8</ele>
        <time>2024-03-20T16:29:48Z</time>
      </trkpt>
      <trkpt lat="49.03152" lon="0.25419">
        <ele>109.2</ele>
        <time>2024-03-20T16:29:49Z</time>
      </trkpt>
      <trkpt lat="49.03157" lon="0.25421">
        <ele>109.6</ele>
        <time>2024-03-20T16:29:50Z</time>
      </trkpt>
      <trkpt lat="49.03162" lon="0.25422">
        <ele>109.8</ele>
        <time>2024-03-20T16:29:51Z</time>
      </trkpt>
      <trkpt lat="49.03167" lon="0.25424">
        <ele>110.2</ele>
        <time>2024-03-20T16:29:52Z</time>
      </trkpt>
      <trkpt lat="49.03172" lon="0.25425">
        <ele>110.4</ele>
        <time>2024-03-20T16:29:53Z</time>
      </trkpt>
      <trkpt lat="49.03177" lon="0.25426">
        <ele>110.8</ele>
        <time>2024-03-20T16:29:54Z</time>
      </trkpt>
      <trkpt lat="49.03182" lon="0.25427">
        <ele>111.2</ele>
        <time>2024-03-20T16:29:55Z</time>
      </trkpt>
      <trkpt lat="49.03187" lon="0.25429">
        <ele>111.4</ele>
        <time>2024-03-20T16:29:56Z</time>
      </trkpt>
      <trkpt lat="49.03192" lon="0.25431">
        <ele>111.4</ele>
        <time>2024-03-20T16:29:57Z</time>
      </trkpt>
      <trkpt lat="49.03197" lon="0.25432">
        <ele>111.8</ele>
        <time>2024-03-20T16:29:58Z</time>
      </trkpt>
      <trkpt lat="49.03201" lon="0.25433">
        <ele>112</ele>
        <time>2024-03-20T16:29:59Z</time>
      </trkpt>
      <trkpt lat="49.03206" lon="0.25434">
        <ele>112.2</ele>
        <time>2024-03-20T16:30:00Z</time>
      </trkpt>
      <trkpt lat="49.03212" lon="0.25435">
        <ele>112.6</ele>
        <time>2024-03-20T16:30:01Z</time>
      </trkpt>
      <trkpt lat="49.03217" lon="0.25436">
        <ele>112.8</ele>
        <time>2024-03-20T16:30:02Z</time>
      </trkpt>
      <trkpt lat="49.03222" lon="0.25437">
        <ele>113</ele>
        <time>2024-03-20T16:30:03Z</time>
      </trkpt>
      <trkpt lat="49.03227" lon="0.25439">
        <ele>113.2</ele>
        <time>2024-03-20T16:30:04Z</time>
      </trkpt>
      <trkpt lat="49.03232" lon="0.2544">
        <ele>113.2</ele>
        <time>2024-03-20T16:30:05Z</time>
      </trkpt>
      <trkpt lat="49.03237" lon="0.25442">
        <ele>113.4</ele>
        <time>2024-03-20T16:30:06Z</time>
      </trkpt>
      <trkpt lat="49.03243" lon="0.25443">
        <ele>113.6</ele>
        <time>2024-03-20T16:30:07Z</time>
      </trkpt>
      <trkpt lat="49.03248" lon="0.25445">
        <ele>113.8</ele>
        <time>2024-03-20T16:30:08Z</time>
      </trkpt>
      <trkpt lat="49.03254" lon="0.25446">
        <ele>113.8</ele>
        <time>2024-03-20T16:30:09Z</time>
      </trkpt>
      <trkpt lat="49.0326" lon="0.25448">
        <ele>114</ele>
        <time>2024-03-20T16:30:10Z</time>
      </trkpt>
      <trkpt lat="49.03266" lon="0.25449">
        <ele>114</ele>
        <time>2024-03-20T16:30:11Z</time>
      </trkpt>
      <trkpt lat="49.03272" lon="0.25451">
        <ele>114</ele>
        <time>2024-03-20T16:30:12Z</time>
      </trkpt>
      <trkpt lat="49.03278" lon="0.25453">
        <ele>114.2</ele>
        <time>2024-03-20T16:30:13Z</time>
      </trkpt>
      <trkpt lat="49.03284" lon="0.25454">
        <ele>114.2</ele>
        <time>2024-03-20T16:30:14Z</time>
      </trkpt>
      <trkpt lat="49.0329" lon="0.25456">
        <ele>114.2</ele>
        <time>2024-03-20T16:30:15Z</time>
      </trkpt>
      <trkpt lat="49.03296" lon="0.25458">
        <ele>114.2</ele>
        <time>2024-03-20T16:30:16Z</time>
      </trkpt>
      <trkpt lat="49.03303" lon="0.25459">
        <ele>114.2</ele>
        <time>2024-03-20T16:30:17Z</time>
      </trkpt>
      <trkpt lat="49.0331" lon="0.25461">
        <ele>114.2</ele>
        <time>2024-03-20T16:30:18Z</time>
      </trkpt>
      <trkpt lat="49.03316" lon="0.25463">
        <ele>114.2</ele>
        <time>2024-03-20T16:30:19Z</time>
      </trkpt>
      <trkpt lat="49.03322" lon="0.25464">
        <ele>114.2</ele>
        <time>2024-03-20T16:30:20Z</time>
      </trkpt>
      <trkpt lat="49.03329" lon="0.25466">
        <ele>114.2</ele>
        <time>2024-03-20T16:30:21Z</time>
      </trkpt>
      <trkpt lat="49.03335" lon="0.25468">
        <ele>114.2</ele>
        <time>2024-03-20T16:30:22Z</time>
      </trkpt>
      <trkpt lat="49.03341" lon="0.2547">
        <ele>114.2</ele>
        <time>2024-03-20T16:30:23Z</time>
      </trkpt>
      <trkpt lat="49.03348" lon="0.25472">
        <ele>114</ele>
        <time>2024-03-20T16:30:24Z</time>
      </trkpt>
      <trkpt lat="49.03355" lon="0.25473">
        <ele>114</ele>
        <time>2024-03-20T16:30:25Z</time>
      </trkpt>
      <trkpt lat="49.03361" lon="0.25475">
        <ele>114</ele>
        <time>2024-03-20T16:30:26Z</time>
      </trkpt>
      <trkpt lat="49.03367" lon="0.25477">
        <ele>113.8</ele>
        <time>2024-03-20T16:30:27Z</time>
      </trkpt>
      <trkpt lat="49.03374" lon="0.25479">
        <ele>113.8</ele>
        <time>2024-03-20T16:30:28Z</time>
      </trkpt>
      <trkpt lat="49.03381" lon="0.2548">
        <ele>113.6</ele>
        <time>2024-03-20T16:30:29Z</time>
      </trkpt>
      <trkpt lat="49.03388" lon="0.25482">
        <ele>113.6</ele>
        <time>2024-03-20T16:30:30Z</time>
      </trkpt>
      <trkpt lat="49.03394" lon="0.25483">
        <ele>113.4</ele>
        <time>2024-03-20T16:30:31Z</time>
      </trkpt>
      <trkpt lat="49.03401" lon="0.25485">
        <ele>113.4</ele>
        <time>2024-03-20T16:30:32Z</time>
      </trkpt>
      <trkpt lat="49.03408" lon="0.25486">
        <ele>113.4</ele>
        <time>2024-03-20T16:30:33Z</time>
      </trkpt>
      <trkpt lat="49.03415" lon="0.25488">
        <ele>113.4</ele>
        <time>2024-03-20T16:30:34Z</time>
      </trkpt>
      <trkpt lat="49.03422" lon="0.2549">
        <ele>113.4</ele>
        <time>2024-03-20T16:30:35Z</time>
      </trkpt>
      <trkpt lat="49.03429" lon="0.25492">
        <ele>113.4</ele>
        <time>2024-03-20T16:30:36Z</time>
      </trkpt>
      <trkpt lat="49.03436" lon="0.25495">
        <ele>113.4</ele>
        <time>2024-03-20T16:30:37Z</time>
      </trkpt>
      <trkpt lat="49.03443" lon="0.25497">
        <ele>113.4</ele>
        <time>2024-03-20T16:30:38Z</time>
      </trkpt>
      <trkpt lat="49.03449" lon="0.25499">
        <ele>113.4</ele>
        <time>2024-03-20T16:30:39Z</time>
      </trkpt>
      <trkpt lat="49.03457" lon="0.25501">
        <ele>113.4</ele>
        <time>2024-03-20T16:30:40Z</time>
      </trkpt>
      <trkpt lat="49.03464" lon="0.25503">
        <ele>113.4</ele>
        <time>2024-03-20T16:30:41Z</time>
      </trkpt>
      <trkpt lat="49.03471" lon="0.25504">
        <ele>113.4</ele>
        <time>2024-03-20T16:30:42Z</time>
      </trkpt>
      <trkpt lat="49.03479" lon="0.25506">
        <ele>113.4</ele>
        <time>2024-03-20T16:30:43Z</time>
      </trkpt>
      <trkpt lat="49.03486" lon="0.25508">
        <ele>113.4</ele>
        <time>2024-03-20T16:30:44Z</time>
      </trkpt>
      <trkpt lat="49.03494" lon="0.2551">
        <ele>113.4</ele>
        <time>2024-03-20T16:30:45Z</time>
      </trkpt>
      <trkpt lat="49.03501" lon="0.25511">
        <ele>113.4</ele>
        <time>2024-03-20T16:30:46Z</time>
      </trkpt>
      <trkpt lat="49.03509" lon="0.25513">
        <ele>113.4</ele>
        <time>2024-03-20T16:30:47Z</time>
      </trkpt>
      <trkpt lat="49.03516" lon="0.25515">
        <ele>113.4</ele>
        <time>2024-03-20T16:30:48Z</time>
      </trkpt>
      <trkpt lat="49.03523" lon="0.25517">
        <ele>113.4</ele>
        <time>2024-03-20T16:30:49Z</time>
      </trkpt>
      <trkpt lat="49.03531" lon="0.25519">
        <ele>113.4</ele>
        <time>2024-03-20T16:30:50Z</time>
      </trkpt>
      <trkpt lat="49.03538" lon="0.25521">
        <ele>113.4</ele>
        <time>2024-03-20T16:30:51Z</time>
      </trkpt>
      <trkpt lat="49.03545" lon="0.25523">
        <ele>113.2</ele>
        <time>2024-03-20T16:30:52Z</time>
      </trkpt>
      <trkpt lat="49.03553" lon="0.25526">
        <ele>112.8</ele>
        <time>2024-03-20T16:30:53Z</time>
      </trkpt>
      <trkpt lat="49.03561" lon="0.25528">
        <ele>112.6</ele>
        <time>2024-03-20T16:30:54Z</time>
      </trkpt>
      <trkpt lat="49.03568" lon="0.2553">
        <ele>112.6</ele>
        <time>2024-03-20T16:30:55Z</time>
      </trkpt>
      <trkpt lat="49.03576" lon="0.25532">
        <ele>112.4</ele>
        <time>2024-03-20T16:30:56Z</time>
      </trkpt>
      <trkpt lat="49.03584" lon="0.25534">
        <ele>112.2</ele>
        <time>2024-03-20T16:30:57Z</time>
      </trkpt>
      <trkpt lat="49.03591" lon="0.25536">
        <ele>112</ele>
        <time>2024-03-20T16:30:58Z</time>
      </trkpt>
      <trkpt lat="49.03599" lon="0.25538">
        <ele>111.8</ele>
        <time>2024-03-20T16:30:59Z</time>
      </trkpt>
      <trkpt lat="49.03607" lon="0.2554">
        <ele>111.4</ele>
        <time>2024-03-20T16:31:00Z</time>
      </trkpt>
      <trkpt lat="49.03615" lon="0.25542">
        <ele>111.2</ele>
        <time>2024-03-20T16:31:01Z</time>
      </trkpt>
      <trkpt lat="49.03624" lon="0.25543">
        <ele>111</ele>
        <time>2024-03-20T16:31:02Z</time>
      </trkpt>
      <trkpt lat="49.03632" lon="0.25543">
        <ele>111</ele>
        <time>2024-03-20T16:31:03Z</time>
      </trkpt>
      <trkpt lat="49.03641" lon="0.25544">
        <ele>110.6</ele>
        <time>2024-03-20T16:31:04Z</time>
      </trkpt>
      <trkpt lat="49.0365" lon="0.25544">
        <ele>110.2</ele>
        <time>2024-03-20T16:31:05Z</time>
      </trkpt>
      <trkpt lat="49.0366" lon="0.25543">
        <ele>109.8</ele>
        <time>2024-03-20T16:31:06Z</time>
      </trkpt>
      <trkpt lat="49.03669" lon="0.25542">
        <ele>109.6</ele>
        <time>2024-03-20T16:31:07Z</time>
      </trkpt>
      <trkpt lat="49.03679" lon="0.25541">
        <ele>109.6</ele>
        <time>2024-03-20T16:31:08Z</time>
      </trkpt>
      <trkpt lat="49.03689" lon="0.2554">
        <ele>109.4</ele>
        <time>2024-03-20T16:31:09Z</time>
      </trkpt>
      <trkpt lat="49.03699" lon="0.25538">
        <ele>109.4</ele>
        <time>2024-03-20T16:31:10Z</time>
      </trkpt>
      <trkpt lat="49.03709" lon="0.25536">
        <ele>109.2</ele>
        <time>2024-03-20T16:31:11Z</time>
      </trkpt>
      <trkpt lat="49.03719" lon="0.25533">
        <ele>109</ele>
        <time>2024-03-20T16:31:12Z</time>
      </trkpt>
      <trkpt lat="49.03729" lon="0.2553">
        <ele>109</ele>
        <time>2024-03-20T16:31:13Z</time>
      </trkpt>
      <trkpt lat="49.03739" lon="0.25526">
        <ele>108.4</ele>
        <time>2024-03-20T16:31:14Z</time>
      </trkpt>
      <trkpt lat="49.03749" lon="0.25523">
        <ele>108</ele>
        <time>2024-03-20T16:31:15Z</time>
      </trkpt>
      <trkpt lat="49.0376" lon="0.25519">
        <ele>107.8</ele>
        <time>2024-03-20T16:31:16Z</time>
      </trkpt>
      <trkpt lat="49.0377" lon="0.25516">
        <ele>107.4</ele>
        <time>2024-03-20T16:31:17Z</time>
      </trkpt>
      <trkpt lat="49.03779" lon="0.25513">
        <ele>107</ele>
        <time>2024-03-20T16:31:18Z</time>
      </trkpt>
      <trkpt lat="49.03788" lon="0.25509">
        <ele>106.8</ele>
        <time>2024-03-20T16:31:19Z</time>
      </trkpt>
      <trkpt lat="49.03797" lon="0.25506">
        <ele>106.6</ele>
        <time>2024-03-20T16:31:20Z</time>
      </trkpt>
      <trkpt lat="49.03806" lon="0.25502">
        <ele>106.2</ele>
        <time>2024-03-20T16:31:21Z</time>
      </trkpt>
      <trkpt lat="49.03815" lon="0.25498">
        <ele>105.8</ele>
        <time>2024-03-20T16:31:22Z</time>
      </trkpt>
      <trkpt lat="49.03824" lon="0.25494">
        <ele>105.4</ele>
        <time>2024-03-20T16:31:23Z</time>
      </trkpt>
      <trkpt lat="49.03833" lon="0.25491">
        <ele>104.4</ele>
        <time>2024-03-20T16:31:24Z</time>
      </trkpt>
      <trkpt lat="49.03841" lon="0.25487">
        <ele>104.4</ele>
        <time>2024-03-20T16:31:25Z</time>
      </trkpt>
      <trkpt lat="49.0385" lon="0.25481">
        <ele>103.4</ele>
        <time>2024-03-20T16:31:26Z</time>
      </trkpt>
      <trkpt lat="49.03858" lon="0.25476">
        <ele>102.6</ele>
        <time>2024-03-20T16:31:27Z</time>
      </trkpt>
      <trkpt lat="49.03866" lon="0.25471">
        <ele>102.2</ele>
        <time>2024-03-20T16:31:28Z</time>
      </trkpt>
      <trkpt lat="49.03874" lon="0.25465">
        <ele>101.8</ele>
        <time>2024-03-20T16:31:29Z</time>
      </trkpt>
      <trkpt lat="49.03882" lon="0.2546">
        <ele>101.2</ele>
        <time>2024-03-20T16:31:30Z</time>
      </trkpt>
      <trkpt lat="49.0389" lon="0.25455">
        <ele>100.8</ele>
        <time>2024-03-20T16:31:31Z</time>
      </trkpt>
      <trkpt lat="49.03898" lon="0.25449">
        <ele>100.2</ele>
        <time>2024-03-20T16:31:32Z</time>
      </trkpt>
      <trkpt lat="49.03907" lon="0.25443">
        <ele>99.6</ele>
        <time>2024-03-20T16:31:33Z</time>
      </trkpt>
      <trkpt lat="49.03916" lon="0.25437">
        <ele>98.8</ele>
        <time>2024-03-20T16:31:34Z</time>
      </trkpt>
      <trkpt lat="49.03924" lon="0.2543">
        <ele>98.2</ele>
        <time>2024-03-20T16:31:35Z</time>
      </trkpt>
      <trkpt lat="49.03933" lon="0.25424">
        <ele>97.6</ele>
        <time>2024-03-20T16:31:36Z</time>
      </trkpt>
      <trkpt lat="49.03941" lon="0.25416">
        <ele>97.2</ele>
        <time>2024-03-20T16:31:37Z</time>
      </trkpt>
      <trkpt lat="49.0395" lon="0.2541">
        <ele>96.4</ele>
        <time>2024-03-20T16:31:38Z</time>
      </trkpt>
      <trkpt lat="49.03958" lon="0.25403">
        <ele>96</ele>
        <time>2024-03-20T16:31:39Z</time>
      </trkpt>
      <trkpt lat="49.03967" lon="0.25397">
        <ele>95.4</ele>
        <time>2024-03-20T16:31:40Z</time>
      </trkpt>
      <trkpt lat="49.03975" lon="0.25391">
        <ele>94.8</ele>
        <time>2024-03-20T16:31:41Z</time>
      </trkpt>
      <trkpt lat="49.03983" lon="0.25384">
        <ele>94.2</ele>
        <time>2024-03-20T16:31:42Z</time>
      </trkpt>
      <trkpt lat="49.03991" lon="0.25378">
        <ele>93.6</ele>
        <time>2024-03-20T16:31:43Z</time>
      </trkpt>
      <trkpt lat="49.03999" lon="0.25371">
        <ele>93.2</ele>
        <time>2024-03-20T16:31:44Z</time>
      </trkpt>
      <trkpt lat="49.04006" lon="0.25364">
        <ele>92.8</ele>
        <time>2024-03-20T16:31:45Z</time>
      </trkpt>
      <trkpt lat="49.04012" lon="0.25359">
        <ele>92.2</ele>
        <time>2024-03-20T16:31:46Z</time>
      </trkpt>
      <trkpt lat="49.04017" lon="0.25353">
        <ele>92.2</ele>
        <time>2024-03-20T16:31:47Z</time>
      </trkpt>
      <trkpt lat="49.04023" lon="0.25348">
        <ele>91.8</ele>
        <time>2024-03-20T16:31:48Z</time>
      </trkpt>
      <trkpt lat="49.04028" lon="0.25344">
        <ele>91.4</ele>
        <time>2024-03-20T16:31:49Z</time>
      </trkpt>
      <trkpt lat="49.04034" lon="0.25341">
        <ele>91.2</ele>
        <time>2024-03-20T16:31:50Z</time>
      </trkpt>
      <trkpt lat="49.04039" lon="0.25339">
        <ele>91.2</ele>
        <time>2024-03-20T16:31:51Z</time>
      </trkpt>
      <trkpt lat="49.04043" lon="0.25338">
        <ele>91.2</ele>
        <time>2024-03-20T16:31:52Z</time>
      </trkpt>
      <trkpt lat="49.04047" lon="0.25338">
        <ele>91.2</ele>
        <time>2024-03-20T16:31:53Z</time>
      </trkpt>
      <trkpt lat="49.04052" lon="0.25339">
        <ele>91.2</ele>
        <time>2024-03-20T16:31:54Z</time>
      </trkpt>
      <trkpt lat="49.04057" lon="0.25341">
        <ele>91.2</ele>
        <time>2024-03-20T16:31:55Z</time>
      </trkpt>
      <trkpt lat="49.0406" lon="0.25345">
        <ele>91.2</ele>
        <time>2024-03-20T16:31:56Z</time>
      </trkpt>
      <trkpt lat="49.04063" lon="0.25351">
        <ele>91.2</ele>
        <time>2024-03-20T16:31:57Z</time>
      </trkpt>
      <trkpt lat="49.04065" lon="0.25358">
        <ele>91.2</ele>
        <time>2024-03-20T16:31:58Z</time>
      </trkpt>
      <trkpt lat="49.04066" lon="0.25365">
        <ele>91.2</ele>
        <time>2024-03-20T16:31:59Z</time>
      </trkpt>
      <trkpt lat="49.04067" lon="0.25373">
        <ele>91.4</ele>
        <time>2024-03-20T16:32:00Z</time>
      </trkpt>
      <trkpt lat="49.04068" lon="0.2538">
        <ele>91.4</ele>
        <time>2024-03-20T16:32:01Z</time>
      </trkpt>
      <trkpt lat="49.04069" lon="0.25388">
        <ele>91.6</ele>
        <time>2024-03-20T16:32:02Z</time>
      </trkpt>
      <trkpt lat="49.04071" lon="0.25395">
        <ele>91.6</ele>
        <time>2024-03-20T16:32:03Z</time>
      </trkpt>
      <trkpt lat="49.04072" lon="0.25401">
        <ele>91.6</ele>
        <time>2024-03-20T16:32:04Z</time>
      </trkpt>
      <trkpt lat="49.04073" lon="0.25406">
        <ele>91.6</ele>
        <time>2024-03-20T16:32:05Z</time>
      </trkpt>
      <trkpt lat="49.04075" lon="0.25409">
        <ele>91.8</ele>
        <time>2024-03-20T16:32:06Z</time>
      </trkpt>
      <trkpt lat="49.04075" lon="0.2541">
        <ele>91.8</ele>
        <time>2024-03-20T16:32:07Z</time>
      </trkpt>
      <trkpt lat="49.04076" lon="0.25411">
        <ele>92</ele>
        <time>2024-03-20T16:32:08Z</time>
      </trkpt>
      <trkpt lat="49.04076" lon="0.25411">
        <ele>92</ele>
        <time>2024-03-20T16:32:09Z</time>
      </trkpt>
      <trkpt lat="49.04074" lon="0.25406">
        <ele>92.8</ele>
        <time>2024-03-20T16:41:00Z</time>
      </trkpt>
      <trkpt lat="49.04073" lon="0.25403">
        <ele>93</ele>
        <time>2024-03-20T16:41:01Z</time>
      </trkpt>
      <trkpt lat="49.04073" lon="0.254">
        <ele>93</ele>
        <time>2024-03-20T16:41:02Z</time>
      </trkpt>
      <trkpt lat="49.04073" lon="0.25396">
        <ele>93</ele>
        <time>2024-03-20T16:41:03Z</time>
      </trkpt>
      <trkpt lat="49.04072" lon="0.25392">
        <ele>93</ele>
        <time>2024-03-20T16:41:04Z</time>
      </trkpt>
      <trkpt lat="49.04071" lon="0.25387">
        <ele>93</ele>
        <time>2024-03-20T16:41:05Z</time>
      </trkpt>
      <trkpt lat="49.0407" lon="0.25381">
        <ele>93</ele>
        <time>2024-03-20T16:41:06Z</time>
      </trkpt>
      <trkpt lat="49.0407" lon="0.25376">
        <ele>93</ele>
        <time>2024-03-20T16:41:07Z</time>
      </trkpt>
      <trkpt lat="49.04069" lon="0.2537">
        <ele>93</ele>
        <time>2024-03-20T16:41:08Z</time>
      </trkpt>
      <trkpt lat="49.04069" lon="0.25364">
        <ele>93</ele>
        <time>2024-03-20T16:41:09Z</time>
      </trkpt>
      <trkpt lat="49.04068" lon="0.25357">
        <ele>93</ele>
        <time>2024-03-20T16:41:10Z</time>
      </trkpt>
      <trkpt lat="49.04068" lon="0.2535">
        <ele>93</ele>
        <time>2024-03-20T16:41:11Z</time>
      </trkpt>
      <trkpt lat="49.0407" lon="0.25344">
        <ele>92.8</ele>
        <time>2024-03-20T16:41:12Z</time>
      </trkpt>
      <trkpt lat="49.04071" lon="0.25337">
        <ele>92.6</ele>
        <time>2024-03-20T16:41:13Z</time>
      </trkpt>
      <trkpt lat="49.04074" lon="0.25332">
        <ele>92.6</ele>
        <time>2024-03-20T16:41:14Z</time>
      </trkpt>
      <trkpt lat="49.04078" lon="0.25328">
        <ele>92.4</ele>
        <time>2024-03-20T16:41:15Z</time>
      </trkpt>
      <trkpt lat="49.04082" lon="0.25326">
        <ele>92.2</ele>
        <time>2024-03-20T16:41:16Z</time>
      </trkpt>
      <trkpt lat="49.04088" lon="0.25324">
        <ele>92.2</ele>
        <time>2024-03-20T16:41:17Z</time>
      </trkpt>
      <trkpt lat="49.04092" lon="0.25324">
        <ele>91.8</ele>
        <time>2024-03-20T16:41:18Z</time>
      </trkpt>
      <trkpt lat="49.04096" lon="0.25324">
        <ele>91.8</ele>
        <time>2024-03-20T16:41:19Z</time>
      </trkpt>
      <trkpt lat="49.041" lon="0.25325">
        <ele>91.6</ele>
        <time>2024-03-20T16:41:20Z</time>
      </trkpt>
      <trkpt lat="49.04105" lon="0.25326">
        <ele>91.2</ele>
        <time>2024-03-20T16:41:21Z</time>
      </trkpt>
      <trkpt lat="49.04111" lon="0.25326">
        <ele>90.8</ele>
        <time>2024-03-20T16:41:22Z</time>
      </trkpt>
      <trkpt lat="49.04117" lon="0.25327">
        <ele>90.6</ele>
        <time>2024-03-20T16:41:23Z</time>
      </trkpt>
      <trkpt lat="49.04123" lon="0.25329">
        <ele>90.4</ele>
        <time>2024-03-20T16:41:24Z</time>
      </trkpt>
      <trkpt lat="49.04129" lon="0.2533">
        <ele>90.2</ele>
        <time>2024-03-20T16:41:25Z</time>
      </trkpt>
      <trkpt lat="49.04135" lon="0.25331">
        <ele>90</ele>
        <time>2024-03-20T16:41:26Z</time>
      </trkpt>
      <trkpt lat="49.04141" lon="0.25331">
        <ele>89.8</ele>
        <time>2024-03-20T16:41:27Z</time>
      </trkpt>
      <trkpt lat="49.04148" lon="0.25332">
        <ele>89.8</ele>
        <time>2024-03-20T16:41:28Z</time>
      </trkpt>
      <trkpt lat="49.04154" lon="0.25332">
        <ele>89.8</ele>
        <time>2024-03-20T16:41:29Z</time>
      </trkpt>
      <trkpt lat="49.0416" lon="0.25333">
        <ele>89.8</ele>
        <time>2024-03-20T16:41:30Z</time>
      </trkpt>
      <trkpt lat="49.04167" lon="0.25333">
        <ele>89.6</ele>
        <time>2024-03-20T16:41:31Z</time>
      </trkpt>
      <trkpt lat="49.04173" lon="0.25334">
        <ele>89.6</ele>
        <time>2024-03-20T16:41:32Z</time>
      </trkpt>
      <trkpt lat="49.04179" lon="0.25335">
        <ele>89.6</ele>
        <time>2024-03-20T16:41:33Z</time>
      </trkpt>
      <trkpt lat="49.04185" lon="0.25336">
        <ele>89.4</ele>
        <time>2024-03-20T16:41:34Z</time>
      </trkpt>
      <trkpt lat="49.04192" lon="0.25336">
        <ele>89.4</ele>
        <time>2024-03-20T16:41:35Z</time>
      </trkpt>
      <trkpt lat="49.04198" lon="0.25336">
        <ele>89.2</ele>
        <time>2024-03-20T16:41:36Z</time>
      </trkpt>
      <trkpt lat="49.04205" lon="0.25337">
        <ele>89.2</ele>
        <time>2024-03-20T16:41:37Z</time>
      </trkpt>
      <trkpt lat="49.04212" lon="0.25338">
        <ele>89</ele>
        <time>2024-03-20T16:41:38Z</time>
      </trkpt>
      <trkpt lat="49.04219" lon="0.25338">
        <ele>89</ele>
        <time>2024-03-20T16:41:39Z</time>
      </trkpt>
      <trkpt lat="49.04226" lon="0.25339">
        <ele>89</ele>
        <time>2024-03-20T16:41:40Z</time>
      </trkpt>
      <trkpt lat="49.04234" lon="0.25339">
        <ele>89</ele>
        <time>2024-03-20T16:41:41Z</time>
      </trkpt>
      <trkpt lat="49.04241" lon="0.2534">
        <ele>89</ele>
        <time>2024-03-20T16:41:42Z</time>
      </trkpt>
      <trkpt lat="49.04248" lon="0.25342">
        <ele>89</ele>
        <time>2024-03-20T16:41:43Z</time>
      </trkpt>
      <trkpt lat="49.04256" lon="0.25342">
        <ele>88.8</ele>
        <time>2024-03-20T16:41:44Z</time>
      </trkpt>
      <trkpt lat="49.04263" lon="0.25342">
        <ele>88.6</ele>
        <time>2024-03-20T16:41:45Z</time>
      </trkpt>
      <trkpt lat="49.04271" lon="0.25341">
        <ele>88.4</ele>
        <time>2024-03-20T16:41:46Z</time>
      </trkpt>
      <trkpt lat="49.04278" lon="0.25338">
        <ele>88.2</ele>
        <time>2024-03-20T16:41:47Z</time>
      </trkpt>
      <trkpt lat="49.04285" lon="0.25335">
        <ele>87.8</ele>
        <time>2024-03-20T16:41:48Z</time>
      </trkpt>
      <trkpt lat="49.04292" lon="0.25331">
        <ele>87.2</ele>
        <time>2024-03-20T16:41:49Z</time>
      </trkpt>
      <trkpt lat="49.04299" lon="0.25326">
        <ele>87</ele>
        <time>2024-03-20T16:41:50Z</time>
      </trkpt>
      <trkpt lat="49.04305" lon="0.2532">
        <ele>86.6</ele>
        <time>2024-03-20T16:41:51Z</time>
      </trkpt>
      <trkpt lat="49.04311" lon="0.25312">
        <ele>86.6</ele>
        <time>2024-03-20T16:41:52Z</time>
      </trkpt>
      <trkpt lat="49.04316" lon="0.25304">
        <ele>86.2</ele>
        <time>2024-03-20T16:41:53Z</time>
      </trkpt>
      <trkpt lat="49.04321" lon="0.25295">
        <ele>86.4</ele>
        <time>2024-03-20T16:41:54Z</time>
      </trkpt>
      <trkpt lat="49.04324" lon="0.25285">
        <ele>86.4</ele>
        <time>2024-03-20T16:41:55Z</time>
      </trkpt>
      <trkpt lat="49.04327" lon="0.25274">
        <ele>86.2</ele>
        <time>2024-03-20T16:41:56Z</time>
      </trkpt>
      <trkpt lat="49.0433" lon="0.25263">
        <ele>86</ele>
        <time>2024-03-20T16:41:57Z</time>
      </trkpt>
      <trkpt lat="49.04332" lon="0.25252">
        <ele>85.8</ele>
        <time>2024-03-20T16:41:58Z</time>
      </trkpt>
      <trkpt lat="49.04334" lon="0.25241">
        <ele>86</ele>
        <time>2024-03-20T16:41:59Z</time>
      </trkpt>
      <trkpt lat="49.04335" lon="0.2523">
        <ele>85.6</ele>
        <time>2024-03-20T16:42:00Z</time>
      </trkpt>
      <trkpt lat="49.04336" lon="0.25219">
        <ele>85.6</ele>
        <time>2024-03-20T16:42:01Z</time>
      </trkpt>
      <trkpt lat="49.04337" lon="0.25208">
        <ele>85.4</ele>
        <time>2024-03-20T16:42:02Z</time>
      </trkpt>
      <trkpt lat="49.04338" lon="0.25197">
        <ele>85.4</ele>
        <time>2024-03-20T16:42:03Z</time>
      </trkpt>
      <trkpt lat="49.04338" lon="0.25186">
        <ele>85.2</ele>
        <time>2024-03-20T16:42:04Z</time>
      </trkpt>
      <trkpt lat="49.04338" lon="0.25175">
        <ele>85</ele>
        <time>2024-03-20T16:42:05Z</time>
      </trkpt>
      <trkpt lat="49.04337" lon="0.25164">
        <ele>84.8</ele>
        <time>2024-03-20T16:42:06Z</time>
      </trkpt>
      <trkpt lat="49.04337" lon="0.25153">
        <ele>84.8</ele>
        <time>2024-03-20T16:42:07Z</time>
      </trkpt>
      <trkpt lat="49.04336" lon="0.25142">
        <ele>84.8</ele>
        <time>2024-03-20T16:42:08Z</time>
      </trkpt>
      <trkpt lat="49.04335" lon="0.25131">
        <ele>84.6</ele>
        <time>2024-03-20T16:42:09Z</time>
      </trkpt>
      <trkpt lat="49.04334" lon="0.2512">
        <ele>84.6</ele>
        <time>2024-03-20T16:42:10Z</time>
      </trkpt>
      <trkpt lat="49.04333" lon="0.25109">
        <ele>84.6</ele>
        <time>2024-03-20T16:42:11Z</time>
      </trkpt>
      <trkpt lat="49.04332" lon="0.25098">
        <ele>84.6</ele>
        <time>2024-03-20T16:42:12Z</time>
      </trkpt>
      <trkpt lat="49.04331" lon="0.25088">
        <ele>84.6</ele>
        <time>2024-03-20T16:42:13Z</time>
      </trkpt>
      <trkpt lat="49.0433" lon="0.25077">
        <ele>84.6</ele>
        <time>2024-03-20T16:42:14Z</time>
      </trkpt>
      <trkpt lat="49.04329" lon="0.25066">
        <ele>84.8</ele>
        <time>2024-03-20T16:42:15Z</time>
      </trkpt>
      <trkpt lat="49.04328" lon="0.25055">
        <ele>84.6</ele>
        <time>2024-03-20T16:42:16Z</time>
      </trkpt>
      <trkpt lat="49.04328" lon="0.25044">
        <ele>84.8</ele>
        <time>2024-03-20T16:42:17Z</time>
      </trkpt>
      <trkpt lat="49.04327" lon="0.25033">
        <ele>84.8</ele>
        <time>2024-03-20T16:42:18Z</time>
      </trkpt>
      <trkpt lat="49.04326" lon="0.25022">
        <ele>84.8</ele>
        <time>2024-03-20T16:42:19Z</time>
      </trkpt>
      <trkpt lat="49.04326" lon="0.25011">
        <ele>84.6</ele>
        <time>2024-03-20T16:42:20Z</time>
      </trkpt>
      <trkpt lat="49.04325" lon="0.25001">
        <ele>84.6</ele>
        <time>2024-03-20T16:42:21Z</time>
      </trkpt>
      <trkpt lat="49.04324" lon="0.2499">
        <ele>84.8</ele>
        <time>2024-03-20T16:42:22Z</time>
      </trkpt>
      <trkpt lat="49.04323" lon="0.24979">
        <ele>84.8</ele>
        <time>2024-03-20T16:42:23Z</time>
      </trkpt>
      <trkpt lat="49.04323" lon="0.24969">
        <ele>84.8</ele>
        <time>2024-03-20T16:42:24Z</time>
      </trkpt>
      <trkpt lat="49.04322" lon="0.24959">
        <ele>84.8</ele>
        <time>2024-03-20T16:42:25Z</time>
      </trkpt>
      <trkpt lat="49.04322" lon="0.24948">
        <ele>85</ele>
        <time>2024-03-20T16:42:26Z</time>
      </trkpt>
      <trkpt lat="49.04322" lon="0.24938">
        <ele>85</ele>
        <time>2024-03-20T16:42:27Z</time>
      </trkpt>
      <trkpt lat="49.04322" lon="0.24928">
        <ele>85</ele>
        <time>2024-03-20T16:42:28Z</time>
      </trkpt>
      <trkpt lat="49.04322" lon="0.24918">
        <ele>85.2</ele>
        <time>2024-03-20T16:42:29Z</time>
      </trkpt>
      <trkpt lat="49.04323" lon="0.24908">
        <ele>85</ele>
        <time>2024-03-20T16:42:30Z</time>
      </trkpt>
      <trkpt lat="49.04324" lon="0.24899">
        <ele>85.2</ele>
        <time>2024-03-20T16:42:31Z</time>
      </trkpt>
      <trkpt lat="49.04325" lon="0.24891">
        <ele>85.2</ele>
        <time>2024-03-20T16:42:32Z</time>
      </trkpt>
      <trkpt lat="49.04326" lon="0.24883">
        <ele>85.4</ele>
        <time>2024-03-20T16:42:33Z</time>
      </trkpt>
      <trkpt lat="49.04328" lon="0.24875">
        <ele>85.6</ele>
        <time>2024-03-20T16:42:34Z</time>
      </trkpt>
      <trkpt lat="49.04329" lon="0.24869">
        <ele>85.8</ele>
        <time>2024-03-20T16:42:35Z</time>
      </trkpt>
      <trkpt lat="49.04331" lon="0.24862">
        <ele>85.8</ele>
        <time>2024-03-20T16:42:36Z</time>
      </trkpt>
      <trkpt lat="49.04332" lon="0.24856">
        <ele>86</ele>
        <time>2024-03-20T16:42:37Z</time>
      </trkpt>
      <trkpt lat="49.04335" lon="0.2485">
        <ele>86</ele>
        <time>2024-03-20T16:42:38Z</time>
      </trkpt>
      <trkpt lat="49.04337" lon="0.24844">
        <ele>86</ele>
        <time>2024-03-20T16:42:39Z</time>
      </trkpt>
      <trkpt lat="49.04339" lon="0.24839">
        <ele>86.2</ele>
        <time>2024-03-20T16:42:40Z</time>
      </trkpt>
      <trkpt lat="49.04342" lon="0.24834">
        <ele>86.2</ele>
        <time>2024-03-20T16:42:41Z</time>
      </trkpt>
      <trkpt lat="49.04344" lon="0.24829">
        <ele>86.4</ele>
        <time>2024-03-20T16:42:42Z</time>
      </trkpt>
      <trkpt lat="49.04347" lon="0.24824">
        <ele>87</ele>
        <time>2024-03-20T16:42:43Z</time>
      </trkpt>
      <trkpt lat="49.04349" lon="0.2482">
        <ele>87.2</ele>
        <time>2024-03-20T16:42:44Z</time>
      </trkpt>
      <trkpt lat="49.04352" lon="0.24816">
        <ele>87.6</ele>
        <time>2024-03-20T16:42:45Z</time>
      </trkpt>
      <trkpt lat="49.04355" lon="0.24812">
        <ele>88</ele>
        <time>2024-03-20T16:42:46Z</time>
      </trkpt>
      <trkpt lat="49.04358" lon="0.24808">
        <ele>88.4</ele>
        <time>2024-03-20T16:42:47Z</time>
      </trkpt>
      <trkpt lat="49.04361" lon="0.24805">
        <ele>88.6</ele>
        <time>2024-03-20T16:42:48Z</time>
      </trkpt>
      <trkpt lat="49.04364" lon="0.24801">
        <ele>88.8</ele>
        <time>2024-03-20T16:42:49Z</time>
      </trkpt>
      <trkpt lat="49.04366" lon="0.24799">
        <ele>89.4</ele>
        <time>2024-03-20T16:42:50Z</time>
      </trkpt>
      <trkpt lat="49.04369" lon="0.24796">
        <ele>89.6</ele>
        <time>2024-03-20T16:42:51Z</time>
      </trkpt>
      <trkpt lat="49.04373" lon="0.24793">
        <ele>90</ele>
        <time>2024-03-20T16:42:52Z</time>
      </trkpt>
      <trkpt lat="49.04376" lon="0.2479">
        <ele>90.4</ele>
        <time>2024-03-20T16:42:53Z</time>
      </trkpt>
      <trkpt lat="49.04379" lon="0.24788">
        <ele>90.8</ele>
        <time>2024-03-20T16:42:54Z</time>
      </trkpt>
      <trkpt lat="49.04382" lon="0.24786">
        <ele>91</ele>
        <time>2024-03-20T16:42:55Z</time>
      </trkpt>
      <trkpt lat="49.04386" lon="0.24785">
        <ele>91.4</ele>
        <time>2024-03-20T16:42:56Z</time>
      </trkpt>
      <trkpt lat="49.04389" lon="0.24783">
        <ele>91.6</ele>
        <time>2024-03-20T16:42:57Z</time>
      </trkpt>
      <trkpt lat="49.04393" lon="0.24781">
        <ele>91.6</ele>
        <time>2024-03-20T16:42:58Z</time>
      </trkpt>
      <trkpt lat="49.04398" lon="0.24779">
        <ele>91.8</ele>
        <time>2024-03-20T16:42:59Z</time>
      </trkpt>
      <trkpt lat="49.04402" lon="0.24777">
        <ele>92.2</ele>
        <time>2024-03-20T16:43:00Z</time>
      </trkpt>
      <trkpt lat="49.04406" lon="0.24775">
        <ele>92.4</ele>
        <time>2024-03-20T16:43:01Z</time>
      </trkpt>
      <trkpt lat="49.0441" lon="0.24774">
        <ele>92.6</ele>
        <time>2024-03-20T16:43:02Z</time>
      </trkpt>
      <trkpt lat="49.04415" lon="0.24773">
        <ele>92.6</ele>
        <time>2024-03-20T16:43:03Z</time>
      </trkpt>
      <trkpt lat="49.04419" lon="0.24772">
        <ele>92.6</ele>
        <time>2024-03-20T16:43:04Z</time>
      </trkpt>
      <trkpt lat="49.04423" lon="0.24771">
        <ele>92.8</ele>
        <time>2024-03-20T16:43:05Z</time>
      </trkpt>
      <trkpt lat="49.04428" lon="0.2477">
        <ele>92.8</ele>
        <time>2024-03-20T16:43:06Z</time>
      </trkpt>
      <trkpt lat="49.04432" lon="0.24769">
        <ele>93</ele>
        <time>2024-03-20T16:43:07Z</time>
      </trkpt>
      <trkpt lat="49.04437" lon="0.24768">
        <ele>93.4</ele>
        <time>2024-03-20T16:43:08Z</time>
      </trkpt>
      <trkpt lat="49.04441" lon="0.24766">
        <ele>93.6</ele>
        <time>2024-03-20T16:43:09Z</time>
      </trkpt>
      <trkpt lat="49.04446" lon="0.24765">
        <ele>93.6</ele>
        <time>2024-03-20T16:43:10Z</time>
      </trkpt>
      <trkpt lat="49.0445" lon="0.24765">
        <ele>93.8</ele>
        <time>2024-03-20T16:43:11Z</time>
      </trkpt>
      <trkpt lat="49.04455" lon="0.24764">
        <ele>94</ele>
        <time>2024-03-20T16:43:12Z</time>
      </trkpt>
      <trkpt lat="49.04459" lon="0.24763">
        <ele>94.2</ele>
        <time>2024-03-20T16:43:13Z</time>
      </trkpt>
      <trkpt lat="49.04463" lon="0.24762">
        <ele>94.2</ele>
        <time>2024-03-20T16:43:14Z</time>
      </trkpt>
      <trkpt lat="49.04468" lon="0.24761">
        <ele>94.4</ele>
        <time>2024-03-20T16:43:15Z</time>
      </trkpt>
      <trkpt lat="49.04472" lon="0.2476">
        <ele>94.6</ele>
        <time>2024-03-20T16:43:16Z</time>
      </trkpt>
      <trkpt lat="49.04476" lon="0.24759">
        <ele>94.8</ele>
        <time>2024-03-20T16:43:17Z</time>
      </trkpt>
      <trkpt lat="49.04481" lon="0.24758">
        <ele>95</ele>
        <time>2024-03-20T16:43:18Z</time>
      </trkpt>
      <trkpt lat="49.04485" lon="0.24757">
        <ele>95</ele>
        <time>2024-03-20T16:43:19Z</time>
      </trkpt>
      <trkpt lat="49.0449" lon="0.24756">
        <ele>95.2</ele>
        <time>2024-03-20T16:43:20Z</time>
      </trkpt>
      <trkpt lat="49.04494" lon="0.24755">
        <ele>95.4</ele>
        <time>2024-03-20T16:43:21Z</time>
      </trkpt>
      <trkpt lat="49.04499" lon="0.24754">
        <ele>95.6</ele>
        <time>2024-03-20T16:43:22Z</time>
      </trkpt>
      <trkpt lat="49.04503" lon="0.24753">
        <ele>95.6</ele>
        <time>2024-03-20T16:43:23Z</time>
      </trkpt>
      <trkpt lat="49.04508" lon="0.24752">
        <ele>95.8</ele>
        <time>2024-03-20T16:43:24Z</time>
      </trkpt>
      <trkpt lat="49.04512" lon="0.24751">
        <ele>95.8</ele>
        <time>2024-03-20T16:43:25Z</time>
      </trkpt>
      <trkpt lat="49.04516" lon="0.2475">
        <ele>95.8</ele>
        <time>2024-03-20T16:43:26Z</time>
      </trkpt>
      <trkpt lat="49.04521" lon="0.24749">
        <ele>96</ele>
        <time>2024-03-20T16:43:27Z</time>
      </trkpt>
      <trkpt lat="49.04525" lon="0.24748">
        <ele>96</ele>
        <time>2024-03-20T16:43:28Z</time>
      </trkpt>
      <trkpt lat="49.04529" lon="0.24747">
        <ele>96.2</ele>
        <time>2024-03-20T16:43:29Z</time>
      </trkpt>
      <trkpt lat="49.04534" lon="0.24746">
        <ele>96.2</ele>
        <time>2024-03-20T16:43:30Z</time>
      </trkpt>
      <trkpt lat="49.04538" lon="0.24745">
        <ele>96.4</ele>
        <time>2024-03-20T16:43:31Z</time>
      </trkpt>
      <trkpt lat="49.04542" lon="0.24744">
        <ele>96.4</ele>
        <time>2024-03-20T16:43:32Z</time>
      </trkpt>
      <trkpt lat="49.04547" lon="0.24743">
        <ele>96.4</ele>
        <time>2024-03-20T16:43:33Z</time>
      </trkpt>
      <trkpt lat="49.04551" lon="0.24742">
        <ele>96.6</ele>
        <time>2024-03-20T16:43:34Z</time>
      </trkpt>
      <trkpt lat="49.04555" lon="0.24741">
        <ele>96.6</ele>
        <time>2024-03-20T16:43:35Z</time>
      </trkpt>
      <trkpt lat="49.04559" lon="0.2474">
        <ele>96.8</ele>
        <time>2024-03-20T16:43:36Z</time>
      </trkpt>
      <trkpt lat="49.04564" lon="0.24739">
        <ele>96.8</ele>
        <time>2024-03-20T16:43:37Z</time>
      </trkpt>
      <trkpt lat="49.04568" lon="0.24738">
        <ele>96.8</ele>
        <time>2024-03-20T16:43:38Z</time>
      </trkpt>
      <trkpt lat="49.04572" lon="0.24737">
        <ele>97</ele>
        <time>2024-03-20T16:43:39Z</time>
      </trkpt>
      <trkpt lat="49.04576" lon="0.24735">
        <ele>97</ele>
        <time>2024-03-20T16:43:40Z</time>
      </trkpt>
      <trkpt lat="49.0458" lon="0.24734">
        <ele>97</ele>
        <time>2024-03-20T16:43:41Z</time>
      </trkpt>
      <trkpt lat="49.04584" lon="0.24733">
        <ele>97.2</ele>
        <time>2024-03-20T16:43:42Z</time>
      </trkpt>
      <trkpt lat="49.04589" lon="0.24732">
        <ele>97.2</ele>
        <time>2024-03-20T16:43:43Z</time>
      </trkpt>
      <trkpt lat="49.04593" lon="0.24731">
        <ele>97.2</ele>
        <time>2024-03-20T16:43:44Z</time>
      </trkpt>
      <trkpt lat="49.04597" lon="0.2473">
        <ele>97.2</ele>
        <time>2024-03-20T16:43:45Z</time>
      </trkpt>
      <trkpt lat="49.04601" lon="0.24728">
        <ele>97.2</ele>
        <time>2024-03-20T16:43:46Z</time>
      </trkpt>
      <trkpt lat="49.04604" lon="0.24726">
        <ele>97.4</ele>
        <time>2024-03-20T16:43:47Z</time>
      </trkpt>
      <trkpt lat="49.04608" lon="0.24723">
        <ele>97.4</ele>
        <time>2024-03-20T16:43:48Z</time>
      </trkpt>
      <trkpt lat="49.04612" lon="0.24721">
        <ele>97.6</ele>
        <time>2024-03-20T16:43:49Z</time>
      </trkpt>
      <trkpt lat="49.04616" lon="0.24719">
        <ele>97.6</ele>
        <time>2024-03-20T16:43:50Z</time>
      </trkpt>
      <trkpt lat="49.04619" lon="0.24716">
        <ele>97.8</ele>
        <time>2024-03-20T16:43:51Z</time>
      </trkpt>
      <trkpt lat="49.04623" lon="0.24713">
        <ele>97.8</ele>
        <time>2024-03-20T16:43:52Z</time>
      </trkpt>
      <trkpt lat="49.04626" lon="0.2471">
        <ele>98</ele>
        <time>2024-03-20T16:43:53Z</time>
      </trkpt>
      <trkpt lat="49.0463" lon="0.24707">
        <ele>98</ele>
        <time>2024-03-20T16:43:54Z</time>
      </trkpt>
      <trkpt lat="49.04634" lon="0.24704">
        <ele>98.2</ele>
        <time>2024-03-20T16:43:55Z</time>
      </trkpt>
      <trkpt lat="49.04638" lon="0.247">
        <ele>98.4</ele>
        <time>2024-03-20T16:43:56Z</time>
      </trkpt>
      <trkpt lat="49.04641" lon="0.24696">
        <ele>98.6</ele>
        <time>2024-03-20T16:43:57Z</time>
      </trkpt>
      <trkpt lat="49.04644" lon="0.24692">
        <ele>98.8</ele>
        <time>2024-03-20T16:43:58Z</time>
      </trkpt>
      <trkpt lat="49.04647" lon="0.24687">
        <ele>99</ele>
        <time>2024-03-20T16:43:59Z</time>
      </trkpt>
      <trkpt lat="49.0465" lon="0.24683">
        <ele>99.2</ele>
        <time>2024-03-20T16:44:00Z</time>
      </trkpt>
      <trkpt lat="49.04653" lon="0.24678">
        <ele>99.4</ele>
        <time>2024-03-20T16:44:01Z</time>
      </trkpt>
      <trkpt lat="49.04655" lon="0.24673">
        <ele>99.4</ele>
        <time>2024-03-20T16:44:02Z</time>
      </trkpt>
      <trkpt lat="49.04657" lon="0.24668">
        <ele>99.8</ele>
        <time>2024-03-20T16:44:03Z</time>
      </trkpt>
      <trkpt lat="49.04659" lon="0.24663">
        <ele>99.8</ele>
        <time>2024-03-20T16:44:04Z</time>
      </trkpt>
      <trkpt lat="49.04661" lon="0.24657">
        <ele>100</ele>
        <time>2024-03-20T16:44:05Z</time>
      </trkpt>
      <trkpt lat="49.04662" lon="0.24652">
        <ele>100.2</ele>
        <time>2024-03-20T16:44:06Z</time>
      </trkpt>
      <trkpt lat="49.04663" lon="0.24647">
        <ele>100.4</ele>
        <time>2024-03-20T16:44:07Z</time>
      </trkpt>
      <trkpt lat="49.04665" lon="0.24642">
        <ele>100.6</ele>
        <time>2024-03-20T16:44:08Z</time>
      </trkpt>
      <trkpt lat="49.04666" lon="0.24636">
        <ele>100.8</ele>
        <time>2024-03-20T16:44:09Z</time>
      </trkpt>
      <trkpt lat="49.04666" lon="0.24631">
        <ele>100.8</ele>
        <time>2024-03-20T16:44:10Z</time>
      </trkpt>
      <trkpt lat="49.04667" lon="0.24625">
        <ele>101</ele>
        <time>2024-03-20T16:44:11Z</time>
      </trkpt>
      <trkpt lat="49.04667" lon="0.24619">
        <ele>101.2</ele>
        <time>2024-03-20T16:44:12Z</time>
      </trkpt>
      <trkpt lat="49.04667" lon="0.24614">
        <ele>101.6</ele>
        <time>2024-03-20T16:44:13Z</time>
      </trkpt>
      <trkpt lat="49.04668" lon="0.24608">
        <ele>102</ele>
        <time>2024-03-20T16:44:14Z</time>
      </trkpt>
      <trkpt lat="49.04667" lon="0.24603">
        <ele>102</ele>
        <time>2024-03-20T16:44:15Z</time>
      </trkpt>
      <trkpt lat="49.04667" lon="0.24597">
        <ele>102.4</ele>
        <time>2024-03-20T16:44:16Z</time>
      </trkpt>
      <trkpt lat="49.04667" lon="0.24591">
        <ele>102.8</ele>
        <time>2024-03-20T16:44:17Z</time>
      </trkpt>
      <trkpt lat="49.04666" lon="0.24586">
        <ele>102.8</ele>
        <time>2024-03-20T16:44:18Z</time>
      </trkpt>
      <trkpt lat="49.04665" lon="0.24581">
        <ele>103.2</ele>
        <time>2024-03-20T16:44:19Z</time>
      </trkpt>
      <trkpt lat="49.04665" lon="0.24576">
        <ele>103.4</ele>
        <time>2024-03-20T16:44:20Z</time>
      </trkpt>
      <trkpt lat="49.04663" lon="0.24571">
        <ele>103.6</ele>
        <time>2024-03-20T16:44:21Z</time>
      </trkpt>
      <trkpt lat="49.04662" lon="0.24566">
        <ele>103.8</ele>
        <time>2024-03-20T16:44:22Z</time>
      </trkpt>
      <trkpt lat="49.04661" lon="0.24561">
        <ele>104.2</ele>
        <time>2024-03-20T16:44:23Z</time>
      </trkpt>
      <trkpt lat="49.0466" lon="0.24556">
        <ele>104.4</ele>
        <time>2024-03-20T16:44:24Z</time>
      </trkpt>
      <trkpt lat="49.04659" lon="0.24551">
        <ele>104.6</ele>
        <time>2024-03-20T16:44:25Z</time>
      </trkpt>
      <trkpt lat="49.04657" lon="0.24546">
        <ele>104.8</ele>
        <time>2024-03-20T16:44:26Z</time>
      </trkpt>
      <trkpt lat="49.04655" lon="0.24542">
        <ele>105</ele>
        <time>2024-03-20T16:44:27Z</time>
      </trkpt>
      <trkpt lat="49.04653" lon="0.24537">
        <ele>105.4</ele>
        <time>2024-03-20T16:44:28Z</time>
      </trkpt>
      <trkpt lat="49.04651" lon="0.24532">
        <ele>105.4</ele>
        <time>2024-03-20T16:44:29Z</time>
      </trkpt>
      <trkpt lat="49.04648" lon="0.24528">
        <ele>105.6</ele>
        <time>2024-03-20T16:44:30Z</time>
      </trkpt>
      <trkpt lat="49.04646" lon="0.24524">
        <ele>105.8</ele>
        <time>2024-03-20T16:44:31Z</time>
      </trkpt>
      <trkpt lat="49.04643" lon="0.2452">
        <ele>105.8</ele>
        <time>2024-03-20T16:44:32Z</time>
      </trkpt>
      <trkpt lat="49.04641" lon="0.24517">
        <ele>106</ele>
        <time>2024-03-20T16:44:33Z</time>
      </trkpt>
      <trkpt lat="49.04638" lon="0.24514">
        <ele>106.4</ele>
        <time>2024-03-20T16:44:34Z</time>
      </trkpt>
      <trkpt lat="49.04635" lon="0.2451">
        <ele>106.4</ele>
        <time>2024-03-20T16:44:35Z</time>
      </trkpt>
      <trkpt lat="49.04632" lon="0.24507">
        <ele>106.6</ele>
        <time>2024-03-20T16:44:36Z</time>
      </trkpt>
      <trkpt lat="49.04629" lon="0.24504">
        <ele>107</ele>
        <time>2024-03-20T16:44:37Z</time>
      </trkpt>
      <trkpt lat="49.04626" lon="0.24501">
        <ele>107.2</ele>
        <time>2024-03-20T16:44:38Z</time>
      </trkpt>
      <trkpt lat="49.04623" lon="0.24498">
        <ele>107.4</ele>
        <time>2024-03-20T16:44:39Z</time>
      </trkpt>
      <trkpt lat="49.0462" lon="0.24496">
        <ele>107.4</ele>
        <time>2024-03-20T16:44:40Z</time>
      </trkpt>
      <trkpt lat="49.04617" lon="0.24494">
        <ele>107.6</ele>
        <time>2024-03-20T16:44:41Z</time>
      </trkpt>
      <trkpt lat="49.04614" lon="0.24492">
        <ele>108</ele>
        <time>2024-03-20T16:44:42Z</time>
      </trkpt>
      <trkpt lat="49.0461" lon="0.2449">
        <ele>108.2</ele>
        <time>2024-03-20T16:44:43Z</time>
      </trkpt>
      <trkpt lat="49.04607" lon="0.24488">
        <ele>108.6</ele>
        <time>2024-03-20T16:44:44Z</time>
      </trkpt>
      <trkpt lat="49.04604" lon="0.24487">
        <ele>108.8</ele>
        <time>2024-03-20T16:44:45Z</time>
      </trkpt>
      <trkpt lat="49.046" lon="0.24485">
        <ele>109.2</ele>
        <time>2024-03-20T16:44:46Z</time>
      </trkpt>
      <trkpt lat="49.04597" lon="0.24484">
        <ele>109.4</ele>
        <time>2024-03-20T16:44:47Z</time>
      </trkpt>
      <trkpt lat="49.04594" lon="0.24484">
        <ele>109.6</ele>
        <time>2024-03-20T16:44:48Z</time>
      </trkpt>
      <trkpt lat="49.0459" lon="0.24483">
        <ele>109.8</ele>
        <time>2024-03-20T16:44:49Z</time>
      </trkpt>
      <trkpt lat="49.04587" lon="0.24483">
        <ele>110.2</ele>
        <time>2024-03-20T16:44:50Z</time>
      </trkpt>
      <trkpt lat="49.04583" lon="0.24483">
        <ele>110.4</ele>
        <time>2024-03-20T16:44:51Z</time>
      </trkpt>
      <trkpt lat="49.0458" lon="0.24483">
        <ele>110.6</ele>
        <time>2024-03-20T16:44:52Z</time>
      </trkpt>
      <trkpt lat="49.04576" lon="0.24483">
        <ele>110.6</ele>
        <time>2024-03-20T16:44:53Z</time>
      </trkpt>
      <trkpt lat="49.04573" lon="0.24483">
        <ele>110.8</ele>
        <time>2024-03-20T16:44:54Z</time>
      </trkpt>
      <trkpt lat="49.04569" lon="0.24483">
        <ele>111.2</ele>
        <time>2024-03-20T16:44:55Z</time>
      </trkpt>
      <trkpt lat="49.04565" lon="0.24484">
        <ele>111.4</ele>
        <time>2024-03-20T16:44:56Z</time>
      </trkpt>
      <trkpt lat="49.04562" lon="0.24484">
        <ele>111.8</ele>
        <time>2024-03-20T16:44:57Z</time>
      </trkpt>
      <trkpt lat="49.04558" lon="0.24484">
        <ele>112</ele>
        <time>2024-03-20T16:44:58Z</time>
      </trkpt>
      <trkpt lat="49.04555" lon="0.24484">
        <ele>112.2</ele>
        <time>2024-03-20T16:44:59Z</time>
      </trkpt>
      <trkpt lat="49.04551" lon="0.24485">
        <ele>112.4</ele>
        <time>2024-03-20T16:45:00Z</time>
      </trkpt>
      <trkpt lat="49.04547" lon="0.24485">
        <ele>112.6</ele>
        <time>2024-03-20T16:45:01Z</time>
      </trkpt>
      <trkpt lat="49.04544" lon="0.24485">
        <ele>112.8</ele>
        <time>2024-03-20T16:45:02Z</time>
      </trkpt>
      <trkpt lat="49.0454" lon="0.24485">
        <ele>112.8</ele>
        <time>2024-03-20T16:45:03Z</time>
      </trkpt>
      <trkpt lat="49.04536" lon="0.24485">
        <ele>113</ele>
        <time>2024-03-20T16:45:04Z</time>
      </trkpt>
      <trkpt lat="49.04533" lon="0.24485">
        <ele>113.2</ele>
        <time>2024-03-20T16:45:05Z</time>
      </trkpt>
      <trkpt lat="49.04529" lon="0.24486">
        <ele>113.4</ele>
        <time>2024-03-20T16:45:06Z</time>
      </trkpt>
      <trkpt lat="49.04526" lon="0.24486">
        <ele>113.6</ele>
        <time>2024-03-20T16:45:07Z</time>
      </trkpt>
      <trkpt lat="49.04522" lon="0.24486">
        <ele>113.6</ele>
        <time>2024-03-20T16:45:08Z</time>
      </trkpt>
      <trkpt lat="49.04518" lon="0.24486">
        <ele>114</ele>
        <time>2024-03-20T16:45:09Z</time>
      </trkpt>
      <trkpt lat="49.04514" lon="0.24487">
        <ele>114.2</ele>
        <time>2024-03-20T16:45:10Z</time>
      </trkpt>
      <trkpt lat="49.04511" lon="0.24487">
        <ele>114.2</ele>
        <time>2024-03-20T16:45:11Z</time>
      </trkpt>
      <trkpt lat="49.04507" lon="0.24487">
        <ele>114.4</ele>
        <time>2024-03-20T16:45:12Z</time>
      </trkpt>
      <trkpt lat="49.04503" lon="0.24487">
        <ele>114.6</ele>
        <time>2024-03-20T16:45:13Z</time>
      </trkpt>
      <trkpt lat="49.04499" lon="0.24487">
        <ele>114.8</ele>
        <time>2024-03-20T16:45:14Z</time>
      </trkpt>
      <trkpt lat="49.04495" lon="0.24487">
        <ele>114.8</ele>
        <time>2024-03-20T16:45:15Z</time>
      </trkpt>
      <trkpt lat="49.04492" lon="0.24487">
        <ele>115.2</ele>
        <time>2024-03-20T16:45:16Z</time>
      </trkpt>
      <trkpt lat="49.04488" lon="0.24487">
        <ele>115.4</ele>
        <time>2024-03-20T16:45:17Z</time>
      </trkpt>
      <trkpt lat="49.04484" lon="0.24487">
        <ele>115.6</ele>
        <time>2024-03-20T16:45:18Z</time>
      </trkpt>
      <trkpt lat="49.0448" lon="0.24487">
        <ele>115.8</ele>
        <time>2024-03-20T16:45:19Z</time>
      </trkpt>
      <trkpt lat="49.04476" lon="0.24487">
        <ele>116</ele>
        <time>2024-03-20T16:45:20Z</time>
      </trkpt>
      <trkpt lat="49.04472" lon="0.24486">
        <ele>116.2</ele>
        <time>2024-03-20T16:45:21Z</time>
      </trkpt>
      <trkpt lat="49.04468" lon="0.24486">
        <ele>116.4</ele>
        <time>2024-03-20T16:45:22Z</time>
      </trkpt>
      <trkpt lat="49.04464" lon="0.24485">
        <ele>116.4</ele>
        <time>2024-03-20T16:45:23Z</time>
      </trkpt>
      <trkpt lat="49.0446" lon="0.24485">
        <ele>116.8</ele>
        <time>2024-03-20T16:45:24Z</time>
      </trkpt>
      <trkpt lat="49.04456" lon="0.24484">
        <ele>117</ele>
        <time>2024-03-20T16:45:25Z</time>
      </trkpt>
      <trkpt lat="49.04452" lon="0.24482">
        <ele>117.2</ele>
        <time>2024-03-20T16:45:26Z</time>
      </trkpt>
      <trkpt lat="49.04448" lon="0.24481">
        <ele>117.2</ele>
        <time>2024-03-20T16:45:27Z</time>
      </trkpt>
      <trkpt lat="49.04444" lon="0.2448">
        <ele>117.6</ele>
        <time>2024-03-20T16:45:28Z</time>
      </trkpt>
      <trkpt lat="49.0444" lon="0.24478">
        <ele>117.8</ele>
        <time>2024-03-20T16:45:29Z</time>
      </trkpt>
      <trkpt lat="49.04436" lon="0.24477">
        <ele>117.8</ele>
        <time>2024-03-20T16:45:30Z</time>
      </trkpt>
      <trkpt lat="49.04433" lon="0.24475">
        <ele>118</ele>
        <time>2024-03-20T16:45:31Z</time>
      </trkpt>
      <trkpt lat="49.04429" lon="0.24473">
        <ele>118.2</ele>
        <time>2024-03-20T16:45:32Z</time>
      </trkpt>
      <trkpt lat="49.04426" lon="0.24471">
        <ele>118.4</ele>
        <time>2024-03-20T16:45:33Z</time>
      </trkpt>
      <trkpt lat="49.04422" lon="0.24469">
        <ele>118.4</ele>
        <time>2024-03-20T16:45:34Z</time>
      </trkpt>
      <trkpt lat="49.04419" lon="0.24466">
        <ele>118.6</ele>
        <time>2024-03-20T16:45:35Z</time>
      </trkpt>
      <trkpt lat="49.04415" lon="0.24463">
        <ele>119</ele>
        <time>2024-03-20T16:45:36Z</time>
      </trkpt>
      <trkpt lat="49.04412" lon="0.2446">
        <ele>119</ele>
        <time>2024-03-20T16:45:37Z</time>
      </trkpt>
      <trkpt lat="49.04409" lon="0.24457">
        <ele>119.2</ele>
        <time>2024-03-20T16:45:38Z</time>
      </trkpt>
      <trkpt lat="49.04405" lon="0.24455">
        <ele>119.2</ele>
        <time>2024-03-20T16:45:39Z</time>
      </trkpt>
      <trkpt lat="49.04402" lon="0.24452">
        <ele>119.4</ele>
        <time>2024-03-20T16:45:40Z</time>
      </trkpt>
      <trkpt lat="49.04399" lon="0.24449">
        <ele>119.6</ele>
        <time>2024-03-20T16:45:41Z</time>
      </trkpt>
      <trkpt lat="49.04396" lon="0.24445">
        <ele>119.8</ele>
        <time>2024-03-20T16:45:42Z</time>
      </trkpt>
      <trkpt lat="49.04393" lon="0.24442">
        <ele>119.8</ele>
        <time>2024-03-20T16:45:43Z</time>
      </trkpt>
      <trkpt lat="49.0439" lon="0.24438">
        <ele>120</ele>
        <time>2024-03-20T16:45:44Z</time>
      </trkpt>
      <trkpt lat="49.04387" lon="0.24435">
        <ele>120.2</ele>
        <time>2024-03-20T16:45:45Z</time>
      </trkpt>
      <trkpt lat="49.04384" lon="0.24431">
        <ele>120.4</ele>
        <time>2024-03-20T16:45:46Z</time>
      </trkpt>
      <trkpt lat="49.04382" lon="0.24427">
        <ele>120.6</ele>
        <time>2024-03-20T16:45:47Z</time>
      </trkpt>
      <trkpt lat="49.04379" lon="0.24422">
        <ele>120.6</ele>
        <time>2024-03-20T16:45:48Z</time>
      </trkpt>
      <trkpt lat="49.04376" lon="0.24418">
        <ele>120.8</ele>
        <time>2024-03-20T16:45:49Z</time>
      </trkpt>
      <trkpt lat="49.04374" lon="0.24413">
        <ele>121</ele>
        <time>2024-03-20T16:45:50Z</time>
      </trkpt>
      <trkpt lat="49.04372" lon="0.24409">
        <ele>121.2</ele>
        <time>2024-03-20T16:45:51Z</time>
      </trkpt>
      <trkpt lat="49.0437" lon="0.24405">
        <ele>121.6</ele>
        <time>2024-03-20T16:45:52Z</time>
      </trkpt>
      <trkpt lat="49.04368" lon="0.244">
        <ele>121.8</ele>
        <time>2024-03-20T16:45:53Z</time>
      </trkpt>
      <trkpt lat="49.04366" lon="0.24395">
        <ele>122</ele>
        <time>2024-03-20T16:45:54Z</time>
      </trkpt>
      <trkpt lat="49.04365" lon="0.2439">
        <ele>122.2</ele>
        <time>2024-03-20T16:45:55Z</time>
      </trkpt>
      <trkpt lat="49.04363" lon="0.24385">
        <ele>122.4</ele>
        <time>2024-03-20T16:45:56Z</time>
      </trkpt>
      <trkpt lat="49.04362" lon="0.2438">
        <ele>122.6</ele>
        <time>2024-03-20T16:45:57Z</time>
      </trkpt>
      <trkpt lat="49.04361" lon="0.24375">
        <ele>123</ele>
        <time>2024-03-20T16:45:58Z</time>
      </trkpt>
      <trkpt lat="49.04359" lon="0.2437">
        <ele>123</ele>
        <time>2024-03-20T16:45:59Z</time>
      </trkpt>
      <trkpt lat="49.04358" lon="0.24365">
        <ele>123.2</ele>
        <time>2024-03-20T16:46:00Z</time>
      </trkpt>
      <trkpt lat="49.04357" lon="0.24359">
        <ele>123.4</ele>
        <time>2024-03-20T16:46:01Z</time>
      </trkpt>
      <trkpt lat="49.04356" lon="0.24354">
        <ele>123.6</ele>
        <time>2024-03-20T16:46:02Z</time>
      </trkpt>
      <trkpt lat="49.04355" lon="0.24349">
        <ele>124</ele>
        <time>2024-03-20T16:46:03Z</time>
      </trkpt>
      <trkpt lat="49.04354" lon="0.24344">
        <ele>124.2</ele>
        <time>2024-03-20T16:46:04Z</time>
      </trkpt>
      <trkpt lat="49.04353" lon="0.2434">
        <ele>124.6</ele>
        <time>2024-03-20T16:46:05Z</time>
      </trkpt>
      <trkpt lat="49.04352" lon="0.24335">
        <ele>124.8</ele>
        <time>2024-03-20T16:46:06Z</time>
      </trkpt>
      <trkpt lat="49.0435" lon="0.2433">
        <ele>125.2</ele>
        <time>2024-03-20T16:46:07Z</time>
      </trkpt>
      <trkpt lat="49.04349" lon="0.24325">
        <ele>125.2</ele>
        <time>2024-03-20T16:46:08Z</time>
      </trkpt>
      <trkpt lat="49.04348" lon="0.2432">
        <ele>125.4</ele>
        <time>2024-03-20T16:46:09Z</time>
      </trkpt>
      <trkpt lat="49.04347" lon="0.24315">
        <ele>125.6</ele>
        <time>2024-03-20T16:46:10Z</time>
      </trkpt>
      <trkpt lat="49.04346" lon="0.2431">
        <ele>126</ele>
        <time>2024-03-20T16:46:11Z</time>
      </trkpt>
      <trkpt lat="49.04345" lon="0.24304">
        <ele>126.2</ele>
        <time>2024-03-20T16:46:12Z</time>
      </trkpt>
      <trkpt lat="49.04344" lon="0.24299">
        <ele>126.6</ele>
        <time>2024-03-20T16:46:13Z</time>
      </trkpt>
      <trkpt lat="49.04343" lon="0.24294">
        <ele>126.8</ele>
        <time>2024-03-20T16:46:14Z</time>
      </trkpt>
      <trkpt lat="49.04342" lon="0.24289">
        <ele>127</ele>
        <time>2024-03-20T16:46:15Z</time>
      </trkpt>
      <trkpt lat="49.04341" lon="0.24284">
        <ele>127.2</ele>
        <time>2024-03-20T16:46:16Z</time>
      </trkpt>
      <trkpt lat="49.0434" lon="0.24279">
        <ele>127.6</ele>
        <time>2024-03-20T16:46:17Z</time>
      </trkpt>
      <trkpt lat="49.04338" lon="0.24274">
        <ele>127.8</ele>
        <time>2024-03-20T16:46:18Z</time>
      </trkpt>
      <trkpt lat="49.04337" lon="0.24269">
        <ele>128.2</ele>
        <time>2024-03-20T16:46:19Z</time>
      </trkpt>
      <trkpt lat="49.04336" lon="0.24264">
        <ele>128.2</ele>
        <time>2024-03-20T16:46:20Z</time>
      </trkpt>
      <trkpt lat="49.04335" lon="0.24259">
        <ele>128.4</ele>
        <time>2024-03-20T16:46:21Z</time>
      </trkpt>
      <trkpt lat="49.04334" lon="0.24254">
        <ele>128.6</ele>
        <time>2024-03-20T16:46:22Z</time>
      </trkpt>
      <trkpt lat="49.04333" lon="0.24249">
        <ele>129</ele>
        <time>2024-03-20T16:46:23Z</time>
      </trkpt>
      <trkpt lat="49.04332" lon="0.24244">
        <ele>129.2</ele>
        <time>2024-03-20T16:46:24Z</time>
      </trkpt>
      <trkpt lat="49.04331" lon="0.24239">
        <ele>129.4</ele>
        <time>2024-03-20T16:46:25Z</time>
      </trkpt>
      <trkpt lat="49.0433" lon="0.24233">
        <ele>129.6</ele>
        <time>2024-03-20T16:46:26Z</time>
      </trkpt>
      <trkpt lat="49.04329" lon="0.24228">
        <ele>129.8</ele>
        <time>2024-03-20T16:46:27Z</time>
      </trkpt>
      <trkpt lat="49.04328" lon="0.24223">
        <ele>130</ele>
        <time>2024-03-20T16:46:28Z</time>
      </trkpt>
      <trkpt lat="49.04327" lon="0.24218">
        <ele>130.2</ele>
        <time>2024-03-20T16:46:29Z</time>
      </trkpt>
      <trkpt lat="49.04326" lon="0.24213">
        <ele>130.6</ele>
        <time>2024-03-20T16:46:30Z</time>
      </trkpt>
      <trkpt lat="49.04325" lon="0.24208">
        <ele>130.8</ele>
        <time>2024-03-20T16:46:31Z</time>
      </trkpt>
      <trkpt lat="49.04324" lon="0.24203">
        <ele>131</ele>
        <time>2024-03-20T16:46:32Z</time>
      </trkpt>
      <trkpt lat="49.04323" lon="0.24198">
        <ele>131.2</ele>
        <time>2024-03-20T16:46:33Z</time>
      </trkpt>
      <trkpt lat="49.04322" lon="0.24193">
        <ele>131.4</ele>
        <time>2024-03-20T16:46:34Z</time>
      </trkpt>
      <trkpt lat="49.04321" lon="0.24189">
        <ele>131.6</ele>
        <time>2024-03-20T16:46:35Z</time>
      </trkpt>
      <trkpt lat="49.0432" lon="0.24184">
        <ele>131.8</ele>
        <time>2024-03-20T16:46:36Z</time>
      </trkpt>
      <trkpt lat="49.04319" lon="0.24179">
        <ele>132</ele>
        <time>2024-03-20T16:46:37Z</time>
      </trkpt>
      <trkpt lat="49.04318" lon="0.24173">
        <ele>132.2</ele>
        <time>2024-03-20T16:46:38Z</time>
      </trkpt>
      <trkpt lat="49.04317" lon="0.24168">
        <ele>132.4</ele>
        <time>2024-03-20T16:46:39Z</time>
      </trkpt>
      <trkpt lat="49.04316" lon="0.24163">
        <ele>132.6</ele>
        <time>2024-03-20T16:46:40Z</time>
      </trkpt>
      <trkpt lat="49.04315" lon="0.24158">
        <ele>132.6</ele>
        <time>2024-03-20T16:46:41Z</time>
      </trkpt>
      <trkpt lat="49.04314" lon="0.24154">
        <ele>132.8</ele>
        <time>2024-03-20T16:46:42Z</time>
      </trkpt>
      <trkpt lat="49.04313" lon="0.24149">
        <ele>133</ele>
        <time>2024-03-20T16:46:43Z</time>
      </trkpt>
      <trkpt lat="49.04312" lon="0.24145">
        <ele>133.2</ele>
        <time>2024-03-20T16:46:44Z</time>
      </trkpt>
      <trkpt lat="49.04311" lon="0.2414">
        <ele>133.6</ele>
        <time>2024-03-20T16:46:45Z</time>
      </trkpt>
      <trkpt lat="49.0431" lon="0.24136">
        <ele>133.8</ele>
        <time>2024-03-20T16:46:46Z</time>
      </trkpt>
      <trkpt lat="49.04309" lon="0.24131">
        <ele>134</ele>
        <time>2024-03-20T16:46:47Z</time>
      </trkpt>
      <trkpt lat="49.04308" lon="0.24126">
        <ele>134.2</ele>
        <time>2024-03-20T16:46:48Z</time>
      </trkpt>
      <trkpt lat="49.04307" lon="0.24121">
        <ele>134.4</ele>
        <time>2024-03-20T16:46:49Z</time>
      </trkpt>
      <trkpt lat="49.04306" lon="0.24116">
        <ele>134.4</ele>
        <time>2024-03-20T16:46:50Z</time>
      </trkpt>
      <trkpt lat="49.04305" lon="0.24111">
        <ele>134.6</ele>
        <time>2024-03-20T16:46:51Z</time>
      </trkpt>
      <trkpt lat="49.04304" lon="0.24107">
        <ele>134.8</ele>
        <time>2024-03-20T16:46:52Z</time>
      </trkpt>
      <trkpt lat="49.04303" lon="0.24102">
        <ele>135</ele>
        <time>2024-03-20T16:46:53Z</time>
      </trkpt>
      <trkpt lat="49.04302" lon="0.24097">
        <ele>135.2</ele>
        <time>2024-03-20T16:46:54Z</time>
      </trkpt>
      <trkpt lat="49.04301" lon="0.24092">
        <ele>135.4</ele>
        <time>2024-03-20T16:46:55Z</time>
      </trkpt>
      <trkpt lat="49.043" lon="0.24086">
        <ele>135.6</ele>
        <time>2024-03-20T16:46:56Z</time>
      </trkpt>
      <trkpt lat="49.04299" lon="0.24081">
        <ele>135.8</ele>
        <time>2024-03-20T16:46:57Z</time>
      </trkpt>
      <trkpt lat="49.04298" lon="0.24076">
        <ele>136</ele>
        <time>2024-03-20T16:46:58Z</time>
      </trkpt>
      <trkpt lat="49.04297" lon="0.24071">
        <ele>136.2</ele>
        <time>2024-03-20T16:46:59Z</time>
      </trkpt>
      <trkpt lat="49.04297" lon="0.24066">
        <ele>136.4</ele>
        <time>2024-03-20T16:47:00Z</time>
      </trkpt>
      <trkpt lat="49.04296" lon="0.2406">
        <ele>136.6</ele>
        <time>2024-03-20T16:47:01Z</time>
      </trkpt>
      <trkpt lat="49.04294" lon="0.24055">
        <ele>136.8</ele>
        <time>2024-03-20T16:47:02Z</time>
      </trkpt>
      <trkpt lat="49.04293" lon="0.2405">
        <ele>136.8</ele>
        <time>2024-03-20T16:47:03Z</time>
      </trkpt>
      <trkpt lat="49.04293" lon="0.24045">
        <ele>137</ele>
        <time>2024-03-20T16:47:04Z</time>
      </trkpt>
      <trkpt lat="49.04292" lon="0.2404">
        <ele>137.2</ele>
        <time>2024-03-20T16:47:05Z</time>
      </trkpt>
      <trkpt lat="49.04291" lon="0.24035">
        <ele>137.4</ele>
        <time>2024-03-20T16:47:06Z</time>
      </trkpt>
      <trkpt lat="49.0429" lon="0.2403">
        <ele>137.6</ele>
        <time>2024-03-20T16:47:07Z</time>
      </trkpt>
      <trkpt lat="49.04288" lon="0.24025">
        <ele>137.8</ele>
        <time>2024-03-20T16:47:08Z</time>
      </trkpt>
      <trkpt lat="49.04288" lon="0.2402">
        <ele>138</ele>
        <time>2024-03-20T16:47:09Z</time>
      </trkpt>
      <trkpt lat="49.04287" lon="0.24015">
        <ele>138.2</ele>
        <time>2024-03-20T16:47:10Z</time>
      </trkpt>
      <trkpt lat="49.04286" lon="0.24009">
        <ele>138.4</ele>
        <time>2024-03-20T16:47:11Z</time>
      </trkpt>
      <trkpt lat="49.04286" lon="0.24004">
        <ele>138.4</ele>
        <time>2024-03-20T16:47:12Z</time>
      </trkpt>
      <trkpt lat="49.04285" lon="0.23998">
        <ele>138.6</ele>
        <time>2024-03-20T16:47:13Z</time>
      </trkpt>
      <trkpt lat="49.04284" lon="0.23993">
        <ele>139</ele>
        <time>2024-03-20T16:47:14Z</time>
      </trkpt>
      <trkpt lat="49.04284" lon="0.23987">
        <ele>139.2</ele>
        <time>2024-03-20T16:47:15Z</time>
      </trkpt>
      <trkpt lat="49.04283" lon="0.23982">
        <ele>139.4</ele>
        <time>2024-03-20T16:47:16Z</time>
      </trkpt>
      <trkpt lat="49.04282" lon="0.23977">
        <ele>139.6</ele>
        <time>2024-03-20T16:47:17Z</time>
      </trkpt>
      <trkpt lat="49.04282" lon="0.23972">
        <ele>139.8</ele>
        <time>2024-03-20T16:47:18Z</time>
      </trkpt>
      <trkpt lat="49.04281" lon="0.23967">
        <ele>140</ele>
        <time>2024-03-20T16:47:19Z</time>
      </trkpt>
      <trkpt lat="49.0428" lon="0.23962">
        <ele>140.2</ele>
        <time>2024-03-20T16:47:20Z</time>
      </trkpt>
      <trkpt lat="49.0428" lon="0.23956">
        <ele>140.4</ele>
        <time>2024-03-20T16:47:21Z</time>
      </trkpt>
      <trkpt lat="49.0428" lon="0.23951">
        <ele>140.6</ele>
        <time>2024-03-20T16:47:22Z</time>
      </trkpt>
      <trkpt lat="49.04279" lon="0.23945">
        <ele>140.8</ele>
        <time>2024-03-20T16:47:23Z</time>
      </trkpt>
      <trkpt lat="49.04279" lon="0.2394">
        <ele>140.8</ele>
        <time>2024-03-20T16:47:24Z</time>
      </trkpt>
      <trkpt lat="49.04279" lon="0.23934">
        <ele>141.2</ele>
        <time>2024-03-20T16:47:25Z</time>
      </trkpt>
      <trkpt lat="49.04278" lon="0.23929">
        <ele>141.4</ele>
        <time>2024-03-20T16:47:26Z</time>
      </trkpt>
      <trkpt lat="49.04278" lon="0.23924">
        <ele>141.4</ele>
        <time>2024-03-20T16:47:27Z</time>
      </trkpt>
      <trkpt lat="49.04278" lon="0.23918">
        <ele>141.6</ele>
        <time>2024-03-20T16:47:28Z</time>
      </trkpt>
      <trkpt lat="49.04277" lon="0.23913">
        <ele>141.8</ele>
        <time>2024-03-20T16:47:29Z</time>
      </trkpt>
      <trkpt lat="49.04277" lon="0.23908">
        <ele>142.2</ele>
        <time>2024-03-20T16:47:30Z</time>
      </trkpt>
      <trkpt lat="49.04277" lon="0.23902">
        <ele>142.4</ele>
        <time>2024-03-20T16:47:31Z</time>
      </trkpt>
      <trkpt lat="49.04277" lon="0.23897">
        <ele>142.6</ele>
        <time>2024-03-20T16:47:32Z</time>
      </trkpt>
      <trkpt lat="49.04278" lon="0.23892">
        <ele>143</ele>
        <time>2024-03-20T16:47:33Z</time>
      </trkpt>
      <trkpt lat="49.04278" lon="0.23887">
        <ele>143.2</ele>
        <time>2024-03-20T16:47:34Z</time>
      </trkpt>
      <trkpt lat="49.04278" lon="0.23882">
        <ele>143.6</ele>
        <time>2024-03-20T16:47:35Z</time>
      </trkpt>
      <trkpt lat="49.04278" lon="0.23876">
        <ele>143.8</ele>
        <time>2024-03-20T16:47:36Z</time>
      </trkpt>
      <trkpt lat="49.04278" lon="0.23871">
        <ele>144.2</ele>
        <time>2024-03-20T16:47:37Z</time>
      </trkpt>
      <trkpt lat="49.04279" lon="0.23865">
        <ele>144.4</ele>
        <time>2024-03-20T16:47:38Z</time>
      </trkpt>
      <trkpt lat="49.04279" lon="0.2386">
        <ele>144.8</ele>
        <time>2024-03-20T16:47:39Z</time>
      </trkpt>
      <trkpt lat="49.0428" lon="0.23855">
        <ele>145</ele>
        <time>2024-03-20T16:47:40Z</time>
      </trkpt>
      <trkpt lat="49.0428" lon="0.23849">
        <ele>145.2</ele>
        <time>2024-03-20T16:47:41Z</time>
      </trkpt>
      <trkpt lat="49.0428" lon="0.23843">
        <ele>145.4</ele>
        <time>2024-03-20T16:47:42Z</time>
      </trkpt>
      <trkpt lat="49.04281" lon="0.23838">
        <ele>145.4</ele>
        <time>2024-03-20T16:47:43Z</time>
      </trkpt>
      <trkpt lat="49.04282" lon="0.23833">
        <ele>145.8</ele>
        <time>2024-03-20T16:47:44Z</time>
      </trkpt>
      <trkpt lat="49.04282" lon="0.23828">
        <ele>145.8</ele>
        <time>2024-03-20T16:47:45Z</time>
      </trkpt>
      <trkpt lat="49.04283" lon="0.23822">
        <ele>146</ele>
        <time>2024-03-20T16:47:46Z</time>
      </trkpt>
      <trkpt lat="49.04283" lon="0.23817">
        <ele>146.2</ele>
        <time>2024-03-20T16:47:47Z</time>
      </trkpt>
      <trkpt lat="49.04284" lon="0.23812">
        <ele>146.4</ele>
        <time>2024-03-20T16:47:48Z</time>
      </trkpt>
      <trkpt lat="49.04285" lon="0.23807">
        <ele>146.8</ele>
        <time>2024-03-20T16:47:49Z</time>
      </trkpt>
      <trkpt lat="49.04285" lon="0.23802">
        <ele>146.8</ele>
        <time>2024-03-20T16:47:50Z</time>
      </trkpt>
      <trkpt lat="49.04286" lon="0.23797">
        <ele>147</ele>
        <time>2024-03-20T16:47:51Z</time>
      </trkpt>
      <trkpt lat="49.04287" lon="0.23793">
        <ele>147.2</ele>
        <time>2024-03-20T16:47:52Z</time>
      </trkpt>
      <trkpt lat="49.04287" lon="0.23788">
        <ele>147.4</ele>
        <time>2024-03-20T16:47:53Z</time>
      </trkpt>
      <trkpt lat="49.04288" lon="0.23783">
        <ele>147.6</ele>
        <time>2024-03-20T16:47:54Z</time>
      </trkpt>
      <trkpt lat="49.04289" lon="0.23778">
        <ele>147.8</ele>
        <time>2024-03-20T16:47:55Z</time>
      </trkpt>
      <trkpt lat="49.04289" lon="0.23773">
        <ele>148</ele>
        <time>2024-03-20T16:47:56Z</time>
      </trkpt>
      <trkpt lat="49.0429" lon="0.23768">
        <ele>148.2</ele>
        <time>2024-03-20T16:47:57Z</time>
      </trkpt>
      <trkpt lat="49.04291" lon="0.23763">
        <ele>148.4</ele>
        <time>2024-03-20T16:47:58Z</time>
      </trkpt>
      <trkpt lat="49.04291" lon="0.23758">
        <ele>148.6</ele>
        <time>2024-03-20T16:47:59Z</time>
      </trkpt>
      <trkpt lat="49.04292" lon="0.23753">
        <ele>148.8</ele>
        <time>2024-03-20T16:48:00Z</time>
      </trkpt>
      <trkpt lat="49.04293" lon="0.23748">
        <ele>149</ele>
        <time>2024-03-20T16:48:01Z</time>
      </trkpt>
      <trkpt lat="49.04294" lon="0.23743">
        <ele>149.2</ele>
        <time>2024-03-20T16:48:02Z</time>
      </trkpt>
      <trkpt lat="49.04294" lon="0.23738">
        <ele>149.4</ele>
        <time>2024-03-20T16:48:03Z</time>
      </trkpt>
      <trkpt lat="49.04295" lon="0.23733">
        <ele>149.6</ele>
        <time>2024-03-20T16:48:04Z</time>
      </trkpt>
      <trkpt lat="49.04295" lon="0.23728">
        <ele>150</ele>
        <time>2024-03-20T16:48:05Z</time>
      </trkpt>
      <trkpt lat="49.04296" lon="0.23723">
        <ele>150.4</ele>
        <time>2024-03-20T16:48:06Z</time>
      </trkpt>
      <trkpt lat="49.04296" lon="0.23718">
        <ele>150.4</ele>
        <time>2024-03-20T16:48:07Z</time>
      </trkpt>
      <trkpt lat="49.04296" lon="0.23713">
        <ele>150.6</ele>
        <time>2024-03-20T16:48:08Z</time>
      </trkpt>
      <trkpt lat="49.04297" lon="0.23708">
        <ele>150.8</ele>
        <time>2024-03-20T16:48:09Z</time>
      </trkpt>
      <trkpt lat="49.04297" lon="0.23703">
        <ele>150.8</ele>
        <time>2024-03-20T16:48:10Z</time>
      </trkpt>
      <trkpt lat="49.04298" lon="0.23697">
        <ele>151.2</ele>
        <time>2024-03-20T16:48:11Z</time>
      </trkpt>
      <trkpt lat="49.04298" lon="0.23692">
        <ele>151.4</ele>
        <time>2024-03-20T16:48:12Z</time>
      </trkpt>
      <trkpt lat="49.04299" lon="0.23687">
        <ele>151.6</ele>
        <time>2024-03-20T16:48:13Z</time>
      </trkpt>
      <trkpt lat="49.04299" lon="0.23681">
        <ele>151.8</ele>
        <time>2024-03-20T16:48:14Z</time>
      </trkpt>
      <trkpt lat="49.04299" lon="0.23676">
        <ele>152</ele>
        <time>2024-03-20T16:48:15Z</time>
      </trkpt>
      <trkpt lat="49.04299" lon="0.23671">
        <ele>152.2</ele>
        <time>2024-03-20T16:48:16Z</time>
      </trkpt>
      <trkpt lat="49.043" lon="0.23665">
        <ele>152.4</ele>
        <time>2024-03-20T16:48:17Z</time>
      </trkpt>
      <trkpt lat="49.043" lon="0.2366">
        <ele>152.6</ele>
        <time>2024-03-20T16:48:18Z</time>
      </trkpt>
      <trkpt lat="49.043" lon="0.23655">
        <ele>152.8</ele>
        <time>2024-03-20T16:48:19Z</time>
      </trkpt>
      <trkpt lat="49.043" lon="0.23649">
        <ele>153.2</ele>
        <time>2024-03-20T16:48:20Z</time>
      </trkpt>
      <trkpt lat="49.043" lon="0.23643">
        <ele>153.2</ele>
        <time>2024-03-20T16:48:21Z</time>
      </trkpt>
      <trkpt lat="49.04299" lon="0.23638">
        <ele>153.6</ele>
        <time>2024-03-20T16:48:22Z</time>
      </trkpt>
      <trkpt lat="49.04299" lon="0.23632">
        <ele>153.8</ele>
        <time>2024-03-20T16:48:23Z</time>
      </trkpt>
      <trkpt lat="49.04299" lon="0.23626">
        <ele>154</ele>
        <time>2024-03-20T16:48:24Z</time>
      </trkpt>
      <trkpt lat="49.04298" lon="0.2362">
        <ele>154.2</ele>
        <time>2024-03-20T16:48:25Z</time>
      </trkpt>
      <trkpt lat="49.04298" lon="0.23614">
        <ele>154.4</ele>
        <time>2024-03-20T16:48:26Z</time>
      </trkpt>
      <trkpt lat="49.04298" lon="0.23608">
        <ele>154.6</ele>
        <time>2024-03-20T16:48:27Z</time>
      </trkpt>
      <trkpt lat="49.04297" lon="0.23603">
        <ele>154.6</ele>
        <time>2024-03-20T16:48:28Z</time>
      </trkpt>
      <trkpt lat="49.04296" lon="0.23597">
        <ele>154.6</ele>
        <time>2024-03-20T16:48:29Z</time>
      </trkpt>
      <trkpt lat="49.04295" lon="0.23591">
        <ele>154.8</ele>
        <time>2024-03-20T16:48:30Z</time>
      </trkpt>
      <trkpt lat="49.04295" lon="0.23585">
        <ele>154.6</ele>
        <time>2024-03-20T16:48:31Z</time>
      </trkpt>
      <trkpt lat="49.04294" lon="0.23579">
        <ele>155</ele>
        <time>2024-03-20T16:48:32Z</time>
      </trkpt>
      <trkpt lat="49.04293" lon="0.23573">
        <ele>155</ele>
        <time>2024-03-20T16:48:33Z</time>
      </trkpt>
      <trkpt lat="49.04292" lon="0.23567">
        <ele>155</ele>
        <time>2024-03-20T16:48:34Z</time>
      </trkpt>
      <trkpt lat="49.04292" lon="0.23561">
        <ele>155.4</ele>
        <time>2024-03-20T16:48:35Z</time>
      </trkpt>
      <trkpt lat="49.04291" lon="0.23556">
        <ele>155.8</ele>
        <time>2024-03-20T16:48:36Z</time>
      </trkpt>
      <trkpt lat="49.04291" lon="0.23549">
        <ele>155.8</ele>
        <time>2024-03-20T16:48:37Z</time>
      </trkpt>
      <trkpt lat="49.0429" lon="0.23544">
        <ele>155.8</ele>
        <time>2024-03-20T16:48:38Z</time>
      </trkpt>
      <trkpt lat="49.04289" lon="0.23538">
        <ele>156</ele>
        <time>2024-03-20T16:48:39Z</time>
      </trkpt>
      <trkpt lat="49.04289" lon="0.23532">
        <ele>156.2</ele>
        <time>2024-03-20T16:48:40Z</time>
      </trkpt>
      <trkpt lat="49.04288" lon="0.23526">
        <ele>156.4</ele>
        <time>2024-03-20T16:48:41Z</time>
      </trkpt>
      <trkpt lat="49.04287" lon="0.2352">
        <ele>156.4</ele>
        <time>2024-03-20T16:48:42Z</time>
      </trkpt>
      <trkpt lat="49.04287" lon="0.23514">
        <ele>156.8</ele>
        <time>2024-03-20T16:48:43Z</time>
      </trkpt>
      <trkpt lat="49.04286" lon="0.23508">
        <ele>156.8</ele>
        <time>2024-03-20T16:48:44Z</time>
      </trkpt>
      <trkpt lat="49.04285" lon="0.23502">
        <ele>156.8</ele>
        <time>2024-03-20T16:48:45Z</time>
      </trkpt>
      <trkpt lat="49.04285" lon="0.23496">
        <ele>156.8</ele>
        <time>2024-03-20T16:48:46Z</time>
      </trkpt>
      <trkpt lat="49.04284" lon="0.2349">
        <ele>157</ele>
        <time>2024-03-20T16:48:47Z</time>
      </trkpt>
      <trkpt lat="49.04283" lon="0.23484">
        <ele>157.2</ele>
        <time>2024-03-20T16:48:48Z</time>
      </trkpt>
      <trkpt lat="49.04283" lon="0.23477">
        <ele>157.2</ele>
        <time>2024-03-20T16:48:49Z</time>
      </trkpt>
      <trkpt lat="49.04282" lon="0.23471">
        <ele>157.4</ele>
        <time>2024-03-20T16:48:50Z</time>
      </trkpt>
      <trkpt lat="49.04281" lon="0.23465">
        <ele>157.6</ele>
        <time>2024-03-20T16:48:51Z</time>
      </trkpt>
      <trkpt lat="49.0428" lon="0.23459">
        <ele>157.8</ele>
        <time>2024-03-20T16:48:52Z</time>
      </trkpt>
      <trkpt lat="49.0428" lon="0.23453">
        <ele>157.8</ele>
        <time>2024-03-20T16:48:53Z</time>
      </trkpt>
      <trkpt lat="49.04279" lon="0.23447">
        <ele>158</ele>
        <time>2024-03-20T16:48:54Z</time>
      </trkpt>
      <trkpt lat="49.04278" lon="0.23441">
        <ele>158.2</ele>
        <time>2024-03-20T16:48:55Z</time>
      </trkpt>
      <trkpt lat="49.04278" lon="0.23435">
        <ele>158.2</ele>
        <time>2024-03-20T16:48:56Z</time>
      </trkpt>
      <trkpt lat="49.04278" lon="0.23429">
        <ele>158.4</ele>
        <time>2024-03-20T16:48:57Z</time>
      </trkpt>
      <trkpt lat="49.04277" lon="0.23423">
        <ele>158.6</ele>
        <time>2024-03-20T16:48:58Z</time>
      </trkpt>
      <trkpt lat="49.04277" lon="0.23417">
        <ele>158.8</ele>
        <time>2024-03-20T16:48:59Z</time>
      </trkpt>
      <trkpt lat="49.04276" lon="0.23412">
        <ele>159</ele>
        <time>2024-03-20T16:49:00Z</time>
      </trkpt>
      <trkpt lat="49.04276" lon="0.23406">
        <ele>159.2</ele>
        <time>2024-03-20T16:49:01Z</time>
      </trkpt>
      <trkpt lat="49.04275" lon="0.234">
        <ele>159.4</ele>
        <time>2024-03-20T16:49:02Z</time>
      </trkpt>
      <trkpt lat="49.04274" lon="0.23394">
        <ele>159.6</ele>
        <time>2024-03-20T16:49:03Z</time>
      </trkpt>
      <trkpt lat="49.04273" lon="0.23388">
        <ele>159.8</ele>
        <time>2024-03-20T16:49:04Z</time>
      </trkpt>
      <trkpt lat="49.04273" lon="0.23382">
        <ele>160</ele>
        <time>2024-03-20T16:49:05Z</time>
      </trkpt>
      <trkpt lat="49.04272" lon="0.23376">
        <ele>160.2</ele>
        <time>2024-03-20T16:49:06Z</time>
      </trkpt>
      <trkpt lat="49.04271" lon="0.2337">
        <ele>160.8</ele>
        <time>2024-03-20T16:49:07Z</time>
      </trkpt>
      <trkpt lat="49.0427" lon="0.23364">
        <ele>160.8</ele>
        <time>2024-03-20T16:49:08Z</time>
      </trkpt>
      <trkpt lat="49.0427" lon="0.23358">
        <ele>161</ele>
        <time>2024-03-20T16:49:09Z</time>
      </trkpt>
      <trkpt lat="49.04269" lon="0.23352">
        <ele>161</ele>
        <time>2024-03-20T16:49:10Z</time>
      </trkpt>
      <trkpt lat="49.04269" lon="0.23346">
        <ele>161.2</ele>
        <time>2024-03-20T16:49:11Z</time>
      </trkpt>
      <trkpt lat="49.04268" lon="0.2334">
        <ele>161.4</ele>
        <time>2024-03-20T16:49:12Z</time>
      </trkpt>
      <trkpt lat="49.04268" lon="0.23334">
        <ele>161.6</ele>
        <time>2024-03-20T16:49:13Z</time>
      </trkpt>
      <trkpt lat="49.04267" lon="0.23328">
        <ele>161.8</ele>
        <time>2024-03-20T16:49:14Z</time>
      </trkpt>
      <trkpt lat="49.04266" lon="0.23322">
        <ele>162.2</ele>
        <time>2024-03-20T16:49:15Z</time>
      </trkpt>
      <trkpt lat="49.04265" lon="0.23316">
        <ele>162.4</ele>
        <time>2024-03-20T16:49:16Z</time>
      </trkpt>
      <trkpt lat="49.04265" lon="0.2331">
        <ele>162.8</ele>
        <time>2024-03-20T16:49:17Z</time>
      </trkpt>
      <trkpt lat="49.04264" lon="0.23303">
        <ele>162.8</ele>
        <time>2024-03-20T16:49:18Z</time>
      </trkpt>
      <trkpt lat="49.04263" lon="0.23297">
        <ele>163</ele>
        <time>2024-03-20T16:49:19Z</time>
      </trkpt>
      <trkpt lat="49.04262" lon="0.23291">
        <ele>163.2</ele>
        <time>2024-03-20T16:49:20Z</time>
      </trkpt>
      <trkpt lat="49.04262" lon="0.23284">
        <ele>163.2</ele>
        <time>2024-03-20T16:49:21Z</time>
      </trkpt>
      <trkpt lat="49.04261" lon="0.23278">
        <ele>163.6</ele>
        <time>2024-03-20T16:49:22Z</time>
      </trkpt>
      <trkpt lat="49.0426" lon="0.23273">
        <ele>163.6</ele>
        <time>2024-03-20T16:49:23Z</time>
      </trkpt>
      <trkpt lat="49.04259" lon="0.23267">
        <ele>163.8</ele>
        <time>2024-03-20T16:49:24Z</time>
      </trkpt>
      <trkpt lat="49.04259" lon="0.23261">
        <ele>164.2</ele>
        <time>2024-03-20T16:49:25Z</time>
      </trkpt>
      <trkpt lat="49.04258" lon="0.23255">
        <ele>164.4</ele>
        <time>2024-03-20T16:49:26Z</time>
      </trkpt>
      <trkpt lat="49.04257" lon="0.23249">
        <ele>164.6</ele>
        <time>2024-03-20T16:49:27Z</time>
      </trkpt>
      <trkpt lat="49.04256" lon="0.23243">
        <ele>164.6</ele>
        <time>2024-03-20T16:49:28Z</time>
      </trkpt>
      <trkpt lat="49.04256" lon="0.23237">
        <ele>164.8</ele>
        <time>2024-03-20T16:49:29Z</time>
      </trkpt>
      <trkpt lat="49.04255" lon="0.23231">
        <ele>164.8</ele>
        <time>2024-03-20T16:49:30Z</time>
      </trkpt>
      <trkpt lat="49.04254" lon="0.23225">
        <ele>164.8</ele>
        <time>2024-03-20T16:49:31Z</time>
      </trkpt>
      <trkpt lat="49.04254" lon="0.23219">
        <ele>164.8</ele>
        <time>2024-03-20T16:49:32Z</time>
      </trkpt>
      <trkpt lat="49.04253" lon="0.23213">
        <ele>165</ele>
        <time>2024-03-20T16:49:33Z</time>
      </trkpt>
      <trkpt lat="49.04253" lon="0.23207">
        <ele>165</ele>
        <time>2024-03-20T16:49:34Z</time>
      </trkpt>
      <trkpt lat="49.04252" lon="0.23201">
        <ele>165.2</ele>
        <time>2024-03-20T16:49:35Z</time>
      </trkpt>
      <trkpt lat="49.04252" lon="0.23195">
        <ele>165.2</ele>
        <time>2024-03-20T16:49:36Z</time>
      </trkpt>
      <trkpt lat="49.04252" lon="0.23189">
        <ele>165.6</ele>
        <time>2024-03-20T16:49:37Z</time>
      </trkpt>
      <trkpt lat="49.04251" lon="0.23183">
        <ele>165.6</ele>
        <time>2024-03-20T16:49:38Z</time>
      </trkpt>
      <trkpt lat="49.0425" lon="0.23177">
        <ele>166</ele>
        <time>2024-03-20T16:49:39Z</time>
      </trkpt>
      <trkpt lat="49.0425" lon="0.23171">
        <ele>166.6</ele>
        <time>2024-03-20T16:49:40Z</time>
      </trkpt>
      <trkpt lat="49.04249" lon="0.23165">
        <ele>166.8</ele>
        <time>2024-03-20T16:49:41Z</time>
      </trkpt>
      <trkpt lat="49.04248" lon="0.23158">
        <ele>167</ele>
        <time>2024-03-20T16:49:42Z</time>
      </trkpt>
      <trkpt lat="49.04248" lon="0.23152">
        <ele>167.4</ele>
        <time>2024-03-20T16:49:43Z</time>
      </trkpt>
      <trkpt lat="49.04247" lon="0.23146">
        <ele>167.6</ele>
        <time>2024-03-20T16:49:44Z</time>
      </trkpt>
      <trkpt lat="49.04246" lon="0.2314">
        <ele>168</ele>
        <time>2024-03-20T16:49:45Z</time>
      </trkpt>
      <trkpt lat="49.04245" lon="0.23134">
        <ele>168.2</ele>
        <time>2024-03-20T16:49:46Z</time>
      </trkpt>
      <trkpt lat="49.04245" lon="0.23128">
        <ele>168.4</ele>
        <time>2024-03-20T16:49:47Z</time>
      </trkpt>
      <trkpt lat="49.04244" lon="0.23122">
        <ele>168.8</ele>
        <time>2024-03-20T16:49:48Z</time>
      </trkpt>
      <trkpt lat="49.04243" lon="0.23116">
        <ele>169</ele>
        <time>2024-03-20T16:49:49Z</time>
      </trkpt>
      <trkpt lat="49.04243" lon="0.2311">
        <ele>169.4</ele>
        <time>2024-03-20T16:49:50Z</time>
      </trkpt>
      <trkpt lat="49.04242" lon="0.23104">
        <ele>169.6</ele>
        <time>2024-03-20T16:49:51Z</time>
      </trkpt>
      <trkpt lat="49.04242" lon="0.23098">
        <ele>169.6</ele>
        <time>2024-03-20T16:49:52Z</time>
      </trkpt>
      <trkpt lat="49.04241" lon="0.23092">
        <ele>170</ele>
        <time>2024-03-20T16:49:53Z</time>
      </trkpt>
      <trkpt lat="49.0424" lon="0.23087">
        <ele>170.2</ele>
        <time>2024-03-20T16:49:54Z</time>
      </trkpt>
      <trkpt lat="49.0424" lon="0.23081">
        <ele>170.2</ele>
        <time>2024-03-20T16:49:55Z</time>
      </trkpt>
      <trkpt lat="49.04239" lon="0.23076">
        <ele>170.4</ele>
        <time>2024-03-20T16:49:56Z</time>
      </trkpt>
      <trkpt lat="49.04238" lon="0.23071">
        <ele>170.6</ele>
        <time>2024-03-20T16:49:57Z</time>
      </trkpt>
      <trkpt lat="49.04238" lon="0.23067">
        <ele>170.8</ele>
        <time>2024-03-20T16:49:58Z</time>
      </trkpt>
      <trkpt lat="49.04237" lon="0.23062">
        <ele>171</ele>
        <time>2024-03-20T16:49:59Z</time>
      </trkpt>
      <trkpt lat="49.04237" lon="0.23058">
        <ele>171.2</ele>
        <time>2024-03-20T16:50:00Z</time>
      </trkpt>
      <trkpt lat="49.04236" lon="0.23054">
        <ele>171.4</ele>
        <time>2024-03-20T16:50:01Z</time>
      </trkpt>
      <trkpt lat="49.04236" lon="0.23049">
        <ele>171.6</ele>
        <time>2024-03-20T16:50:02Z</time>
      </trkpt>
      <trkpt lat="49.04235" lon="0.23044">
        <ele>171.8</ele>
        <time>2024-03-20T16:50:03Z</time>
      </trkpt>
      <trkpt lat="49.04235" lon="0.2304">
        <ele>172</ele>
        <time>2024-03-20T16:50:04Z</time>
      </trkpt>
      <trkpt lat="49.04235" lon="0.23035">
        <ele>172.2</ele>
        <time>2024-03-20T16:50:05Z</time>
      </trkpt>
      <trkpt lat="49.04234" lon="0.2303">
        <ele>172.4</ele>
        <time>2024-03-20T16:50:06Z</time>
      </trkpt>
      <trkpt lat="49.04234" lon="0.23025">
        <ele>172.6</ele>
        <time>2024-03-20T16:50:07Z</time>
      </trkpt>
      <trkpt lat="49.04233" lon="0.2302">
        <ele>172.6</ele>
        <time>2024-03-20T16:50:08Z</time>
      </trkpt>
      <trkpt lat="49.04233" lon="0.23016">
        <ele>172.8</ele>
        <time>2024-03-20T16:50:09Z</time>
      </trkpt>
      <trkpt lat="49.04233" lon="0.23011">
        <ele>172.8</ele>
        <time>2024-03-20T16:50:10Z</time>
      </trkpt>
      <trkpt lat="49.04233" lon="0.23006">
        <ele>173</ele>
        <time>2024-03-20T16:50:11Z</time>
      </trkpt>
      <trkpt lat="49.04232" lon="0.23001">
        <ele>173</ele>
        <time>2024-03-20T16:50:12Z</time>
      </trkpt>
      <trkpt lat="49.04232" lon="0.22996">
        <ele>173</ele>
        <time>2024-03-20T16:50:13Z</time>
      </trkpt>
      <trkpt lat="49.04232" lon="0.22991">
        <ele>173.2</ele>
        <time>2024-03-20T16:50:14Z</time>
      </trkpt>
      <trkpt lat="49.04232" lon="0.22986">
        <ele>173.4</ele>
        <time>2024-03-20T16:50:15Z</time>
      </trkpt>
      <trkpt lat="49.04232" lon="0.22982">
        <ele>173.6</ele>
        <time>2024-03-20T16:50:16Z</time>
      </trkpt>
      <trkpt lat="49.04232" lon="0.22977">
        <ele>173.8</ele>
        <time>2024-03-20T16:50:17Z</time>
      </trkpt>
      <trkpt lat="49.04232" lon="0.22972">
        <ele>173.8</ele>
        <time>2024-03-20T16:50:18Z</time>
      </trkpt>
      <trkpt lat="49.04232" lon="0.22968">
        <ele>173.8</ele>
        <time>2024-03-20T16:50:19Z</time>
      </trkpt>
      <trkpt lat="49.04232" lon="0.22963">
        <ele>174</ele>
        <time>2024-03-20T16:50:20Z</time>
      </trkpt>
      <trkpt lat="49.04232" lon="0.22959">
        <ele>174</ele>
        <time>2024-03-20T16:50:21Z</time>
      </trkpt>
      <trkpt lat="49.04232" lon="0.22955">
        <ele>174</ele>
        <time>2024-03-20T16:50:22Z</time>
      </trkpt>
      <trkpt lat="49.04232" lon="0.22951">
        <ele>174</ele>
        <time>2024-03-20T16:50:23Z</time>
      </trkpt>
      <trkpt lat="49.04232" lon="0.22948">
        <ele>174.2</ele>
        <time>2024-03-20T16:50:24Z</time>
      </trkpt>
      <trkpt lat="49.04232" lon="0.22945">
        <ele>174.4</ele>
        <time>2024-03-20T16:50:25Z</time>
      </trkpt>
      <trkpt lat="49.04232" lon="0.22943">
        <ele>174.4</ele>
        <time>2024-03-20T16:50:26Z</time>
      </trkpt>
      <trkpt lat="49.04231" lon="0.22941">
        <ele>174.6</ele>
        <time>2024-03-20T16:50:27Z</time>
      </trkpt>
      <trkpt lat="49.0423" lon="0.2294">
        <ele>174.8</ele>
        <time>2024-03-20T16:50:28Z</time>
      </trkpt>
      <trkpt lat="49.04229" lon="0.2294">
        <ele>174.8</ele>
        <time>2024-03-20T16:50:29Z</time>
      </trkpt>
      <trkpt lat="49.04227" lon="0.2294">
        <ele>175</ele>
        <time>2024-03-20T16:50:30Z</time>
      </trkpt>
      <trkpt lat="49.04226" lon="0.22941">
        <ele>175</ele>
        <time>2024-03-20T16:50:31Z</time>
      </trkpt>
      <trkpt lat="49.04226" lon="0.22943">
        <ele>175.2</ele>
        <time>2024-03-20T16:50:32Z</time>
      </trkpt>
      <trkpt lat="49.04227" lon="0.22944">
        <ele>175.2</ele>
        <time>2024-03-20T16:50:33Z</time>
      </trkpt>
      <trkpt lat="49.04227" lon="0.22944">
        <ele>175.4</ele>
        <time>2024-03-20T16:50:34Z</time>
      </trkpt>
      <trkpt lat="49.04228" lon="0.22944">
        <ele>175.4</ele>
        <time>2024-03-20T16:50:35Z</time>
      </trkpt>
      <trkpt lat="49.04232" lon="0.22937">
        <ele>175.6</ele>
        <time>2024-03-20T16:51:02Z</time>
      </trkpt>
      <trkpt lat="49.04232" lon="0.22934">
        <ele>175.4</ele>
        <time>2024-03-20T16:51:03Z</time>
      </trkpt>
      <trkpt lat="49.04233" lon="0.2293">
        <ele>175.4</ele>
        <time>2024-03-20T16:51:04Z</time>
      </trkpt>
      <trkpt lat="49.04233" lon="0.22927">
        <ele>175.4</ele>
        <time>2024-03-20T16:51:05Z</time>
      </trkpt>
      <trkpt lat="49.04233" lon="0.22922">
        <ele>175.4</ele>
        <time>2024-03-20T16:51:06Z</time>
      </trkpt>
      <trkpt lat="49.04234" lon="0.22917">
        <ele>175.4</ele>
        <time>2024-03-20T16:51:07Z</time>
      </trkpt>
      <trkpt lat="49.04235" lon="0.22912">
        <ele>175.4</ele>
        <time>2024-03-20T16:51:08Z</time>
      </trkpt>
      <trkpt lat="49.04235" lon="0.22907">
        <ele>175.4</ele>
        <time>2024-03-20T16:51:09Z</time>
      </trkpt>
      <trkpt lat="49.04236" lon="0.22901">
        <ele>175.4</ele>
        <time>2024-03-20T16:51:10Z</time>
      </trkpt>
      <trkpt lat="49.04236" lon="0.22895">
        <ele>175.4</ele>
        <time>2024-03-20T16:51:11Z</time>
      </trkpt>
      <trkpt lat="49.04237" lon="0.22889">
        <ele>175.4</ele>
        <time>2024-03-20T16:51:12Z</time>
      </trkpt>
      <trkpt lat="49.04238" lon="0.22883">
        <ele>175.4</ele>
        <time>2024-03-20T16:51:13Z</time>
      </trkpt>
      <trkpt lat="49.04238" lon="0.22877">
        <ele>175.4</ele>
        <time>2024-03-20T16:51:14Z</time>
      </trkpt>
      <trkpt lat="49.04239" lon="0.22871">
        <ele>175.4</ele>
        <time>2024-03-20T16:51:15Z</time>
      </trkpt>
      <trkpt lat="49.0424" lon="0.22865">
        <ele>175.4</ele>
        <time>2024-03-20T16:51:16Z</time>
      </trkpt>
      <trkpt lat="49.0424" lon="0.22859">
        <ele>175.4</ele>
        <time>2024-03-20T16:51:17Z</time>
      </trkpt>
      <trkpt lat="49.04241" lon="0.22853">
        <ele>175.4</ele>
        <time>2024-03-20T16:51:18Z</time>
      </trkpt>
      <trkpt lat="49.04242" lon="0.22847">
        <ele>175.4</ele>
        <time>2024-03-20T16:51:19Z</time>
      </trkpt>
      <trkpt lat="49.04243" lon="0.22841">
        <ele>175.6</ele>
        <time>2024-03-20T16:51:20Z</time>
      </trkpt>
      <trkpt lat="49.04244" lon="0.22835">
        <ele>175.6</ele>
        <time>2024-03-20T16:51:21Z</time>
      </trkpt>
      <trkpt lat="49.04244" lon="0.22829">
        <ele>175.6</ele>
        <time>2024-03-20T16:51:22Z</time>
      </trkpt>
      <trkpt lat="49.04245" lon="0.22823">
        <ele>175.8</ele>
        <time>2024-03-20T16:51:23Z</time>
      </trkpt>
      <trkpt lat="49.04247" lon="0.22817">
        <ele>175.8</ele>
        <time>2024-03-20T16:51:24Z</time>
      </trkpt>
      <trkpt lat="49.04248" lon="0.2281">
        <ele>176</ele>
        <time>2024-03-20T16:51:25Z</time>
      </trkpt>
      <trkpt lat="49.04249" lon="0.22804">
        <ele>176</ele>
        <time>2024-03-20T16:51:26Z</time>
      </trkpt>
      <trkpt lat="49.0425" lon="0.22798">
        <ele>176.2</ele>
        <time>2024-03-20T16:51:27Z</time>
      </trkpt>
      <trkpt lat="49.04252" lon="0.22792">
        <ele>176.2</ele>
        <time>2024-03-20T16:51:28Z</time>
      </trkpt>
      <trkpt lat="49.04253" lon="0.22786">
        <ele>176.4</ele>
        <time>2024-03-20T16:51:29Z</time>
      </trkpt>
      <trkpt lat="49.04255" lon="0.2278">
        <ele>176.4</ele>
        <time>2024-03-20T16:51:30Z</time>
      </trkpt>
      <trkpt lat="49.04256" lon="0.22774">
        <ele>176.6</ele>
        <time>2024-03-20T16:51:31Z</time>
      </trkpt>
      <trkpt lat="49.04257" lon="0.22768">
        <ele>176.6</ele>
        <time>2024-03-20T16:51:32Z</time>
      </trkpt>
      <trkpt lat="49.04259" lon="0.22761">
        <ele>176.6</ele>
        <time>2024-03-20T16:51:33Z</time>
      </trkpt>
      <trkpt lat="49.0426" lon="0.22755">
        <ele>176.8</ele>
        <time>2024-03-20T16:51:34Z</time>
      </trkpt>
      <trkpt lat="49.04262" lon="0.22749">
        <ele>176.8</ele>
        <time>2024-03-20T16:51:35Z</time>
      </trkpt>
      <trkpt lat="49.04264" lon="0.22742">
        <ele>177</ele>
        <time>2024-03-20T16:51:36Z</time>
      </trkpt>
      <trkpt lat="49.04265" lon="0.22736">
        <ele>177</ele>
        <time>2024-03-20T16:51:37Z</time>
      </trkpt>
      <trkpt lat="49.04267" lon="0.2273">
        <ele>177</ele>
        <time>2024-03-20T16:51:38Z</time>
      </trkpt>
      <trkpt lat="49.04269" lon="0.22723">
        <ele>177</ele>
        <time>2024-03-20T16:51:39Z</time>
      </trkpt>
      <trkpt lat="49.04271" lon="0.22716">
        <ele>177.2</ele>
        <time>2024-03-20T16:51:40Z</time>
      </trkpt>
      <trkpt lat="49.04273" lon="0.2271">
        <ele>177.2</ele>
        <time>2024-03-20T16:51:41Z</time>
      </trkpt>
      <trkpt lat="49.04274" lon="0.22704">
        <ele>177.4</ele>
        <time>2024-03-20T16:51:42Z</time>
      </trkpt>
      <trkpt lat="49.04276" lon="0.22697">
        <ele>177.4</ele>
        <time>2024-03-20T16:51:43Z</time>
      </trkpt>
      <trkpt lat="49.04278" lon="0.2269">
        <ele>177.4</ele>
        <time>2024-03-20T16:51:44Z</time>
      </trkpt>
      <trkpt lat="49.0428" lon="0.22684">
        <ele>177.6</ele>
        <time>2024-03-20T16:51:45Z</time>
      </trkpt>
      <trkpt lat="49.04282" lon="0.22677">
        <ele>177.6</ele>
        <time>2024-03-20T16:51:46Z</time>
      </trkpt>
      <trkpt lat="49.04284" lon="0.2267">
        <ele>177.6</ele>
        <time>2024-03-20T16:51:47Z</time>
      </trkpt>
      <trkpt lat="49.04286" lon="0.22662">
        <ele>177.6</ele>
        <time>2024-03-20T16:51:48Z</time>
      </trkpt>
      <trkpt lat="49.04288" lon="0.22654">
        <ele>177.8</ele>
        <time>2024-03-20T16:51:49Z</time>
      </trkpt>
      <trkpt lat="49.0429" lon="0.22646">
        <ele>177.8</ele>
        <time>2024-03-20T16:51:50Z</time>
      </trkpt>
      <trkpt lat="49.04291" lon="0.22638">
        <ele>177.8</ele>
        <time>2024-03-20T16:51:51Z</time>
      </trkpt>
      <trkpt lat="49.04293" lon="0.2263">
        <ele>177.8</ele>
        <time>2024-03-20T16:51:52Z</time>
      </trkpt>
      <trkpt lat="49.04295" lon="0.22622">
        <ele>177.8</ele>
        <time>2024-03-20T16:51:53Z</time>
      </trkpt>
      <trkpt lat="49.04297" lon="0.22614">
        <ele>178</ele>
        <time>2024-03-20T16:51:54Z</time>
      </trkpt>
      <trkpt lat="49.04298" lon="0.22605">
        <ele>178</ele>
        <time>2024-03-20T16:51:55Z</time>
      </trkpt>
      <trkpt lat="49.043" lon="0.22597">
        <ele>178.2</ele>
        <time>2024-03-20T16:51:56Z</time>
      </trkpt>
      <trkpt lat="49.04301" lon="0.22588">
        <ele>178.4</ele>
        <time>2024-03-20T16:51:57Z</time>
      </trkpt>
      <trkpt lat="49.04302" lon="0.22579">
        <ele>178.4</ele>
        <time>2024-03-20T16:51:58Z</time>
      </trkpt>
      <trkpt lat="49.04303" lon="0.2257">
        <ele>178.4</ele>
        <time>2024-03-20T16:51:59Z</time>
      </trkpt>
      <trkpt lat="49.04304" lon="0.22562">
        <ele>178.6</ele>
        <time>2024-03-20T16:52:00Z</time>
      </trkpt>
      <trkpt lat="49.04305" lon="0.22553">
        <ele>178.6</ele>
        <time>2024-03-20T16:52:01Z</time>
      </trkpt>
      <trkpt lat="49.04305" lon="0.22544">
        <ele>178.8</ele>
        <time>2024-03-20T16:52:02Z</time>
      </trkpt>
      <trkpt lat="49.04306" lon="0.22535">
        <ele>178.8</ele>
        <time>2024-03-20T16:52:03Z</time>
      </trkpt>
      <trkpt lat="49.04307" lon="0.22526">
        <ele>178.8</ele>
        <time>2024-03-20T16:52:04Z</time>
      </trkpt>
      <trkpt lat="49.04308" lon="0.22518">
        <ele>179</ele>
        <time>2024-03-20T16:52:05Z</time>
      </trkpt>
      <trkpt lat="49.04309" lon="0.22509">
        <ele>179</ele>
        <time>2024-03-20T16:52:06Z</time>
      </trkpt>
      <trkpt lat="49.04309" lon="0.225">
        <ele>179</ele>
        <time>2024-03-20T16:52:07Z</time>
      </trkpt>
      <trkpt lat="49.0431" lon="0.22491">
        <ele>179</ele>
        <time>2024-03-20T16:52:08Z</time>
      </trkpt>
      <trkpt lat="49.04311" lon="0.22482">
        <ele>179.2</ele>
        <time>2024-03-20T16:52:09Z</time>
      </trkpt>
      <trkpt lat="49.04312" lon="0.22473">
        <ele>179.6</ele>
        <time>2024-03-20T16:52:10Z</time>
      </trkpt>
      <trkpt lat="49.04312" lon="0.22465">
        <ele>179.6</ele>
        <time>2024-03-20T16:52:11Z</time>
      </trkpt>
      <trkpt lat="49.04313" lon="0.22456">
        <ele>179.8</ele>
        <time>2024-03-20T16:52:12Z</time>
      </trkpt>
      <trkpt lat="49.04314" lon="0.22447">
        <ele>180</ele>
        <time>2024-03-20T16:52:13Z</time>
      </trkpt>
      <trkpt lat="49.04315" lon="0.22438">
        <ele>180</ele>
        <time>2024-03-20T16:52:14Z</time>
      </trkpt>
      <trkpt lat="49.04315" lon="0.22429">
        <ele>180.2</ele>
        <time>2024-03-20T16:52:15Z</time>
      </trkpt>
      <trkpt lat="49.04316" lon="0.2242">
        <ele>180.4</ele>
        <time>2024-03-20T16:52:16Z</time>
      </trkpt>
      <trkpt lat="49.04316" lon="0.22411">
        <ele>180.6</ele>
        <time>2024-03-20T16:52:17Z</time>
      </trkpt>
      <trkpt lat="49.04317" lon="0.22402">
        <ele>180.6</ele>
        <time>2024-03-20T16:52:18Z</time>
      </trkpt>
      <trkpt lat="49.04318" lon="0.22393">
        <ele>180.6</ele>
        <time>2024-03-20T16:52:19Z</time>
      </trkpt>
      <trkpt lat="49.04318" lon="0.22384">
        <ele>180.6</ele>
        <time>2024-03-20T16:52:20Z</time>
      </trkpt>
      <trkpt lat="49.04319" lon="0.22375">
        <ele>180.8</ele>
        <time>2024-03-20T16:52:21Z</time>
      </trkpt>
      <trkpt lat="49.0432" lon="0.22366">
        <ele>180.8</ele>
        <time>2024-03-20T16:52:22Z</time>
      </trkpt>
      <trkpt lat="49.04321" lon="0.22356">
        <ele>180.8</ele>
        <time>2024-03-20T16:52:23Z</time>
      </trkpt>
      <trkpt lat="49.04322" lon="0.22347">
        <ele>180.8</ele>
        <time>2024-03-20T16:52:24Z</time>
      </trkpt>
      <trkpt lat="49.04322" lon="0.22338">
        <ele>180.8</ele>
        <time>2024-03-20T16:52:25Z</time>
      </trkpt>
      <trkpt lat="49.04323" lon="0.22329">
        <ele>180.8</ele>
        <time>2024-03-20T16:52:26Z</time>
      </trkpt>
      <trkpt lat="49.04324" lon="0.2232">
        <ele>181</ele>
        <time>2024-03-20T16:52:27Z</time>
      </trkpt>
      <trkpt lat="49.04325" lon="0.22311">
        <ele>181.4</ele>
        <time>2024-03-20T16:52:28Z</time>
      </trkpt>
      <trkpt lat="49.04325" lon="0.22301">
        <ele>181.6</ele>
        <time>2024-03-20T16:52:29Z</time>
      </trkpt>
      <trkpt lat="49.04326" lon="0.22292">
        <ele>181.8</ele>
        <time>2024-03-20T16:52:30Z</time>
      </trkpt>
      <trkpt lat="49.04327" lon="0.22283">
        <ele>182</ele>
        <time>2024-03-20T16:52:31Z</time>
      </trkpt>
      <trkpt lat="49.04328" lon="0.22273">
        <ele>182.2</ele>
        <time>2024-03-20T16:52:32Z</time>
      </trkpt>
      <trkpt lat="49.04328" lon="0.22264">
        <ele>182.2</ele>
        <time>2024-03-20T16:52:33Z</time>
      </trkpt>
      <trkpt lat="49.04329" lon="0.22254">
        <ele>182.2</ele>
        <time>2024-03-20T16:52:34Z</time>
      </trkpt>
      <trkpt lat="49.0433" lon="0.22244">
        <ele>182.2</ele>
        <time>2024-03-20T16:52:35Z</time>
      </trkpt>
      <trkpt lat="49.04331" lon="0.22235">
        <ele>182.4</ele>
        <time>2024-03-20T16:52:36Z</time>
      </trkpt>
      <trkpt lat="49.04331" lon="0.22225">
        <ele>182.4</ele>
        <time>2024-03-20T16:52:37Z</time>
      </trkpt>
      <trkpt lat="49.04332" lon="0.22215">
        <ele>182.4</ele>
        <time>2024-03-20T16:52:38Z</time>
      </trkpt>
      <trkpt lat="49.04333" lon="0.22205">
        <ele>182.4</ele>
        <time>2024-03-20T16:52:39Z</time>
      </trkpt>
      <trkpt lat="49.04333" lon="0.22195">
        <ele>182.4</ele>
        <time>2024-03-20T16:52:40Z</time>
      </trkpt>
      <trkpt lat="49.04334" lon="0.22185">
        <ele>182.4</ele>
        <time>2024-03-20T16:52:41Z</time>
      </trkpt>
      <trkpt lat="49.04335" lon="0.22175">
        <ele>182.6</ele>
        <time>2024-03-20T16:52:42Z</time>
      </trkpt>
      <trkpt lat="49.04336" lon="0.22164">
        <ele>182.6</ele>
        <time>2024-03-20T16:52:43Z</time>
      </trkpt>
      <trkpt lat="49.04337" lon="0.22154">
        <ele>182.6</ele>
        <time>2024-03-20T16:52:44Z</time>
      </trkpt>
      <trkpt lat="49.04338" lon="0.22144">
        <ele>182.6</ele>
        <time>2024-03-20T16:52:45Z</time>
      </trkpt>
      <trkpt lat="49.04339" lon="0.22133">
        <ele>182.6</ele>
        <time>2024-03-20T16:52:46Z</time>
      </trkpt>
      <trkpt lat="49.04339" lon="0.22123">
        <ele>182.8</ele>
        <time>2024-03-20T16:52:47Z</time>
      </trkpt>
      <trkpt lat="49.0434" lon="0.22113">
        <ele>182.8</ele>
        <time>2024-03-20T16:52:48Z</time>
      </trkpt>
      <trkpt lat="49.04341" lon="0.22102">
        <ele>182.8</ele>
        <time>2024-03-20T16:52:49Z</time>
      </trkpt>
      <trkpt lat="49.04342" lon="0.22092">
        <ele>182.8</ele>
        <time>2024-03-20T16:52:50Z</time>
      </trkpt>
      <trkpt lat="49.04343" lon="0.22081">
        <ele>182.8</ele>
        <time>2024-03-20T16:52:51Z</time>
      </trkpt>
      <trkpt lat="49.04344" lon="0.22071">
        <ele>182.8</ele>
        <time>2024-03-20T16:52:52Z</time>
      </trkpt>
      <trkpt lat="49.04345" lon="0.2206">
        <ele>182.8</ele>
        <time>2024-03-20T16:52:53Z</time>
      </trkpt>
      <trkpt lat="49.04346" lon="0.2205">
        <ele>182.8</ele>
        <time>2024-03-20T16:52:54Z</time>
      </trkpt>
      <trkpt lat="49.04348" lon="0.22039">
        <ele>182.8</ele>
        <time>2024-03-20T16:52:55Z</time>
      </trkpt>
      <trkpt lat="49.04349" lon="0.22029">
        <ele>182.8</ele>
        <time>2024-03-20T16:52:56Z</time>
      </trkpt>
      <trkpt lat="49.04351" lon="0.22019">
        <ele>183</ele>
        <time>2024-03-20T16:52:57Z</time>
      </trkpt>
      <trkpt lat="49.04352" lon="0.22008">
        <ele>183</ele>
        <time>2024-03-20T16:52:58Z</time>
      </trkpt>
      <trkpt lat="49.04354" lon="0.21998">
        <ele>183</ele>
        <time>2024-03-20T16:52:59Z</time>
      </trkpt>
      <trkpt lat="49.04356" lon="0.21987">
        <ele>183</ele>
        <time>2024-03-20T16:53:00Z</time>
      </trkpt>
      <trkpt lat="49.04358" lon="0.21977">
        <ele>183</ele>
        <time>2024-03-20T16:53:01Z</time>
      </trkpt>
      <trkpt lat="49.0436" lon="0.21966">
        <ele>183.2</ele>
        <time>2024-03-20T16:53:02Z</time>
      </trkpt>
      <trkpt lat="49.04361" lon="0.21956">
        <ele>183.2</ele>
        <time>2024-03-20T16:53:03Z</time>
      </trkpt>
      <trkpt lat="49.04364" lon="0.21945">
        <ele>183.2</ele>
        <time>2024-03-20T16:53:04Z</time>
      </trkpt>
      <trkpt lat="49.04366" lon="0.21935">
        <ele>183.2</ele>
        <time>2024-03-20T16:53:05Z</time>
      </trkpt>
      <trkpt lat="49.04368" lon="0.21925">
        <ele>183.4</ele>
        <time>2024-03-20T16:53:06Z</time>
      </trkpt>
      <trkpt lat="49.0437" lon="0.21916">
        <ele>183.4</ele>
        <time>2024-03-20T16:53:07Z</time>
      </trkpt>
      <trkpt lat="49.04373" lon="0.21905">
        <ele>183.4</ele>
        <time>2024-03-20T16:53:08Z</time>
      </trkpt>
      <trkpt lat="49.04375" lon="0.21895">
        <ele>183.6</ele>
        <time>2024-03-20T16:53:09Z</time>
      </trkpt>
      <trkpt lat="49.04377" lon="0.21885">
        <ele>183.6</ele>
        <time>2024-03-20T16:53:10Z</time>
      </trkpt>
      <trkpt lat="49.0438" lon="0.21875">
        <ele>184</ele>
        <time>2024-03-20T16:53:11Z</time>
      </trkpt>
      <trkpt lat="49.04382" lon="0.21865">
        <ele>184.2</ele>
        <time>2024-03-20T16:53:12Z</time>
      </trkpt>
      <trkpt lat="49.04385" lon="0.21855">
        <ele>184.4</ele>
        <time>2024-03-20T16:53:13Z</time>
      </trkpt>
      <trkpt lat="49.04387" lon="0.21844">
        <ele>184.6</ele>
        <time>2024-03-20T16:53:14Z</time>
      </trkpt>
      <trkpt lat="49.0439" lon="0.21834">
        <ele>184.8</ele>
        <time>2024-03-20T16:53:15Z</time>
      </trkpt>
      <trkpt lat="49.04392" lon="0.21824">
        <ele>184.8</ele>
        <time>2024-03-20T16:53:16Z</time>
      </trkpt>
      <trkpt lat="49.04395" lon="0.21814">
        <ele>185</ele>
        <time>2024-03-20T16:53:17Z</time>
      </trkpt>
      <trkpt lat="49.04397" lon="0.21803">
        <ele>185</ele>
        <time>2024-03-20T16:53:18Z</time>
      </trkpt>
      <trkpt lat="49.04399" lon="0.21793">
        <ele>185</ele>
        <time>2024-03-20T16:53:19Z</time>
      </trkpt>
      <trkpt lat="49.04402" lon="0.21782">
        <ele>185.2</ele>
        <time>2024-03-20T16:53:20Z</time>
      </trkpt>
      <trkpt lat="49.04404" lon="0.21772">
        <ele>185.2</ele>
        <time>2024-03-20T16:53:21Z</time>
      </trkpt>
      <trkpt lat="49.04406" lon="0.21762">
        <ele>185.2</ele>
        <time>2024-03-20T16:53:22Z</time>
      </trkpt>
      <trkpt lat="49.04408" lon="0.21752">
        <ele>185.2</ele>
        <time>2024-03-20T16:53:23Z</time>
      </trkpt>
      <trkpt lat="49.04411" lon="0.21742">
        <ele>185.4</ele>
        <time>2024-03-20T16:53:24Z</time>
      </trkpt>
      <trkpt lat="49.04413" lon="0.21733">
        <ele>185.4</ele>
        <time>2024-03-20T16:53:25Z</time>
      </trkpt>
      <trkpt lat="49.04414" lon="0.21724">
        <ele>185.4</ele>
        <time>2024-03-20T16:53:26Z</time>
      </trkpt>
      <trkpt lat="49.04417" lon="0.21714">
        <ele>185.4</ele>
        <time>2024-03-20T16:53:27Z</time>
      </trkpt>
      <trkpt lat="49.04419" lon="0.21706">
        <ele>185.2</ele>
        <time>2024-03-20T16:53:28Z</time>
      </trkpt>
      <trkpt lat="49.04421" lon="0.21697">
        <ele>185.2</ele>
        <time>2024-03-20T16:53:29Z</time>
      </trkpt>
      <trkpt lat="49.04424" lon="0.21688">
        <ele>185.2</ele>
        <time>2024-03-20T16:53:30Z</time>
      </trkpt>
      <trkpt lat="49.04426" lon="0.21678">
        <ele>185.2</ele>
        <time>2024-03-20T16:53:31Z</time>
      </trkpt>
      <trkpt lat="49.04428" lon="0.21669">
        <ele>185.2</ele>
        <time>2024-03-20T16:53:32Z</time>
      </trkpt>
      <trkpt lat="49.0443" lon="0.21659">
        <ele>185.2</ele>
        <time>2024-03-20T16:53:33Z</time>
      </trkpt>
      <trkpt lat="49.04432" lon="0.2165">
        <ele>185.2</ele>
        <time>2024-03-20T16:53:34Z</time>
      </trkpt>
      <trkpt lat="49.04435" lon="0.2164">
        <ele>185.2</ele>
        <time>2024-03-20T16:53:35Z</time>
      </trkpt>
      <trkpt lat="49.04437" lon="0.21631">
        <ele>185.4</ele>
        <time>2024-03-20T16:53:36Z</time>
      </trkpt>
      <trkpt lat="49.04439" lon="0.21622">
        <ele>185.4</ele>
        <time>2024-03-20T16:53:37Z</time>
      </trkpt>
      <trkpt lat="49.04441" lon="0.21612">
        <ele>185.4</ele>
        <time>2024-03-20T16:53:38Z</time>
      </trkpt>
      <trkpt lat="49.04443" lon="0.21603">
        <ele>185.4</ele>
        <time>2024-03-20T16:53:39Z</time>
      </trkpt>
      <trkpt lat="49.04446" lon="0.21593">
        <ele>185.4</ele>
        <time>2024-03-20T16:53:40Z</time>
      </trkpt>
      <trkpt lat="49.04448" lon="0.21583">
        <ele>185.4</ele>
        <time>2024-03-20T16:53:41Z</time>
      </trkpt>
      <trkpt lat="49.0445" lon="0.21573">
        <ele>185.4</ele>
        <time>2024-03-20T16:53:42Z</time>
      </trkpt>
      <trkpt lat="49.04452" lon="0.21563">
        <ele>185.4</ele>
        <time>2024-03-20T16:53:43Z</time>
      </trkpt>
      <trkpt lat="49.04455" lon="0.21553">
        <ele>185.6</ele>
        <time>2024-03-20T16:53:44Z</time>
      </trkpt>
      <trkpt lat="49.04457" lon="0.21543">
        <ele>185.6</ele>
        <time>2024-03-20T16:53:45Z</time>
      </trkpt>
      <trkpt lat="49.04459" lon="0.21533">
        <ele>185.6</ele>
        <time>2024-03-20T16:53:46Z</time>
      </trkpt>
      <trkpt lat="49.04462" lon="0.21523">
        <ele>185.6</ele>
        <time>2024-03-20T16:53:47Z</time>
      </trkpt>
      <trkpt lat="49.04464" lon="0.21513">
        <ele>185.6</ele>
        <time>2024-03-20T16:53:48Z</time>
      </trkpt>
      <trkpt lat="49.04466" lon="0.21503">
        <ele>185.6</ele>
        <time>2024-03-20T16:53:49Z</time>
      </trkpt>
      <trkpt lat="49.04469" lon="0.21494">
        <ele>185.6</ele>
        <time>2024-03-20T16:53:50Z</time>
      </trkpt>
      <trkpt lat="49.04471" lon="0.21484">
        <ele>185.6</ele>
        <time>2024-03-20T16:53:51Z</time>
      </trkpt>
      <trkpt lat="49.04473" lon="0.21474">
        <ele>185.6</ele>
        <time>2024-03-20T16:53:52Z</time>
      </trkpt>
      <trkpt lat="49.04475" lon="0.21464">
        <ele>185.6</ele>
        <time>2024-03-20T16:53:53Z</time>
      </trkpt>
      <trkpt lat="49.04477" lon="0.21455">
        <ele>185.4</ele>
        <time>2024-03-20T16:53:54Z</time>
      </trkpt>
      <trkpt lat="49.0448" lon="0.21445">
        <ele>185.4</ele>
        <time>2024-03-20T16:53:55Z</time>
      </trkpt>
      <trkpt lat="49.04482" lon="0.21434">
        <ele>185.4</ele>
        <time>2024-03-20T16:53:56Z</time>
      </trkpt>
      <trkpt lat="49.04484" lon="0.21424">
        <ele>185.4</ele>
        <time>2024-03-20T16:53:57Z</time>
      </trkpt>
      <trkpt lat="49.04487" lon="0.21415">
        <ele>185.2</ele>
        <time>2024-03-20T16:53:58Z</time>
      </trkpt>
      <trkpt lat="49.04489" lon="0.21405">
        <ele>185.2</ele>
        <time>2024-03-20T16:53:59Z</time>
      </trkpt>
      <trkpt lat="49.04491" lon="0.21395">
        <ele>185.2</ele>
        <time>2024-03-20T16:54:00Z</time>
      </trkpt>
      <trkpt lat="49.04493" lon="0.21385">
        <ele>185.2</ele>
        <time>2024-03-20T16:54:01Z</time>
      </trkpt>
      <trkpt lat="49.04496" lon="0.21375">
        <ele>185.2</ele>
        <time>2024-03-20T16:54:02Z</time>
      </trkpt>
      <trkpt lat="49.04498" lon="0.21366">
        <ele>185</ele>
        <time>2024-03-20T16:54:03Z</time>
      </trkpt>
      <trkpt lat="49.045" lon="0.21356">
        <ele>185</ele>
        <time>2024-03-20T16:54:04Z</time>
      </trkpt>
      <trkpt lat="49.04503" lon="0.21346">
        <ele>185</ele>
        <time>2024-03-20T16:54:05Z</time>
      </trkpt>
      <trkpt lat="49.04505" lon="0.21336">
        <ele>185</ele>
        <time>2024-03-20T16:54:06Z</time>
      </trkpt>
      <trkpt lat="49.04507" lon="0.21327">
        <ele>185</ele>
        <time>2024-03-20T16:54:07Z</time>
      </trkpt>
      <trkpt lat="49.04509" lon="0.21318">
        <ele>184.8</ele>
        <time>2024-03-20T16:54:08Z</time>
      </trkpt>
      <trkpt lat="49.04512" lon="0.21309">
        <ele>184.8</ele>
        <time>2024-03-20T16:54:09Z</time>
      </trkpt>
      <trkpt lat="49.04514" lon="0.213">
        <ele>184.8</ele>
        <time>2024-03-20T16:54:10Z</time>
      </trkpt>
      <trkpt lat="49.04517" lon="0.21291">
        <ele>184.8</ele>
        <time>2024-03-20T16:54:11Z</time>
      </trkpt>
      <trkpt lat="49.0452" lon="0.21283">
        <ele>184.6</ele>
        <time>2024-03-20T16:54:12Z</time>
      </trkpt>
      <trkpt lat="49.04523" lon="0.21274">
        <ele>184.4</ele>
        <time>2024-03-20T16:54:13Z</time>
      </trkpt>
      <trkpt lat="49.04526" lon="0.21265">
        <ele>184.4</ele>
        <time>2024-03-20T16:54:14Z</time>
      </trkpt>
      <trkpt lat="49.04528" lon="0.21256">
        <ele>184.2</ele>
        <time>2024-03-20T16:54:15Z</time>
      </trkpt>
      <trkpt lat="49.04531" lon="0.21247">
        <ele>184.2</ele>
        <time>2024-03-20T16:54:16Z</time>
      </trkpt>
      <trkpt lat="49.04534" lon="0.21238">
        <ele>184</ele>
        <time>2024-03-20T16:54:17Z</time>
      </trkpt>
      <trkpt lat="49.04536" lon="0.21229">
        <ele>184</ele>
        <time>2024-03-20T16:54:18Z</time>
      </trkpt>
      <trkpt lat="49.04539" lon="0.21221">
        <ele>184</ele>
        <time>2024-03-20T16:54:19Z</time>
      </trkpt>
      <trkpt lat="49.04542" lon="0.21212">
        <ele>183.8</ele>
        <time>2024-03-20T16:54:20Z</time>
      </trkpt>
      <trkpt lat="49.04545" lon="0.21203">
        <ele>183.8</ele>
        <time>2024-03-20T16:54:21Z</time>
      </trkpt>
      <trkpt lat="49.04548" lon="0.21195">
        <ele>183.6</ele>
        <time>2024-03-20T16:54:22Z</time>
      </trkpt>
      <trkpt lat="49.04551" lon="0.21186">
        <ele>183.6</ele>
        <time>2024-03-20T16:54:23Z</time>
      </trkpt>
      <trkpt lat="49.04554" lon="0.21178">
        <ele>183.6</ele>
        <time>2024-03-20T16:54:24Z</time>
      </trkpt>
      <trkpt lat="49.04557" lon="0.21169">
        <ele>183.4</ele>
        <time>2024-03-20T16:54:25Z</time>
      </trkpt>
      <trkpt lat="49.0456" lon="0.2116">
        <ele>183.4</ele>
        <time>2024-03-20T16:54:26Z</time>
      </trkpt>
      <trkpt lat="49.04563" lon="0.21151">
        <ele>183.4</ele>
        <time>2024-03-20T16:54:27Z</time>
      </trkpt>
      <trkpt lat="49.04566" lon="0.21143">
        <ele>183.2</ele>
        <time>2024-03-20T16:54:28Z</time>
      </trkpt>
      <trkpt lat="49.0457" lon="0.21134">
        <ele>183.2</ele>
        <time>2024-03-20T16:54:29Z</time>
      </trkpt>
      <trkpt lat="49.04574" lon="0.21125">
        <ele>183.2</ele>
        <time>2024-03-20T16:54:30Z</time>
      </trkpt>
      <trkpt lat="49.04577" lon="0.21115">
        <ele>183.2</ele>
        <time>2024-03-20T16:54:31Z</time>
      </trkpt>
      <trkpt lat="49.04581" lon="0.21106">
        <ele>183.2</ele>
        <time>2024-03-20T16:54:32Z</time>
      </trkpt>
      <trkpt lat="49.04585" lon="0.21097">
        <ele>183.2</ele>
        <time>2024-03-20T16:54:33Z</time>
      </trkpt>
      <trkpt lat="49.04589" lon="0.21088">
        <ele>183</ele>
        <time>2024-03-20T16:54:34Z</time>
      </trkpt>
      <trkpt lat="49.04593" lon="0.21079">
        <ele>182.8</ele>
        <time>2024-03-20T16:54:35Z</time>
      </trkpt>
      <trkpt lat="49.04597" lon="0.2107">
        <ele>182.8</ele>
        <time>2024-03-20T16:54:36Z</time>
      </trkpt>
      <trkpt lat="49.04601" lon="0.21061">
        <ele>182.6</ele>
        <time>2024-03-20T16:54:37Z</time>
      </trkpt>
      <trkpt lat="49.04605" lon="0.21052">
        <ele>182.6</ele>
        <time>2024-03-20T16:54:38Z</time>
      </trkpt>
      <trkpt lat="49.04609" lon="0.21043">
        <ele>182.4</ele>
        <time>2024-03-20T16:54:39Z</time>
      </trkpt>
      <trkpt lat="49.04613" lon="0.21034">
        <ele>182.2</ele>
        <time>2024-03-20T16:54:40Z</time>
      </trkpt>
      <trkpt lat="49.04618" lon="0.21025">
        <ele>182.2</ele>
        <time>2024-03-20T16:54:41Z</time>
      </trkpt>
      <trkpt lat="49.04622" lon="0.21016">
        <ele>182</ele>
        <time>2024-03-20T16:54:42Z</time>
      </trkpt>
      <trkpt lat="49.04626" lon="0.21007">
        <ele>182</ele>
        <time>2024-03-20T16:54:43Z</time>
      </trkpt>
      <trkpt lat="49.04631" lon="0.20998">
        <ele>182</ele>
        <time>2024-03-20T16:54:44Z</time>
      </trkpt>
      <trkpt lat="49.04636" lon="0.20989">
        <ele>182</ele>
        <time>2024-03-20T16:54:45Z</time>
      </trkpt>
      <trkpt lat="49.04641" lon="0.20979">
        <ele>182</ele>
        <time>2024-03-20T16:54:46Z</time>
      </trkpt>
      <trkpt lat="49.04646" lon="0.2097">
        <ele>181.8</ele>
        <time>2024-03-20T16:54:47Z</time>
      </trkpt>
      <trkpt lat="49.04651" lon="0.20961">
        <ele>181.6</ele>
        <time>2024-03-20T16:54:48Z</time>
      </trkpt>
      <trkpt lat="49.04656" lon="0.20951">
        <ele>181.4</ele>
        <time>2024-03-20T16:54:49Z</time>
      </trkpt>
      <trkpt lat="49.04661" lon="0.20942">
        <ele>181.4</ele>
        <time>2024-03-20T16:54:50Z</time>
      </trkpt>
      <trkpt lat="49.04666" lon="0.20933">
        <ele>181.4</ele>
        <time>2024-03-20T16:54:51Z</time>
      </trkpt>
      <trkpt lat="49.04672" lon="0.20924">
        <ele>181.2</ele>
        <time>2024-03-20T16:54:52Z</time>
      </trkpt>
      <trkpt lat="49.04677" lon="0.20916">
        <ele>181.2</ele>
        <time>2024-03-20T16:54:53Z</time>
      </trkpt>
      <trkpt lat="49.04682" lon="0.20907">
        <ele>181</ele>
        <time>2024-03-20T16:54:54Z</time>
      </trkpt>
      <trkpt lat="49.04687" lon="0.20898">
        <ele>181</ele>
        <time>2024-03-20T16:54:55Z</time>
      </trkpt>
      <trkpt lat="49.04693" lon="0.2089">
        <ele>181</ele>
        <time>2024-03-20T16:54:56Z</time>
      </trkpt>
      <trkpt lat="49.04698" lon="0.20883">
        <ele>181</ele>
        <time>2024-03-20T16:54:57Z</time>
      </trkpt>
      <trkpt lat="49.04703" lon="0.20875">
        <ele>180.8</ele>
        <time>2024-03-20T16:54:58Z</time>
      </trkpt>
      <trkpt lat="49.04709" lon="0.20867">
        <ele>180.8</ele>
        <time>2024-03-20T16:54:59Z</time>
      </trkpt>
      <trkpt lat="49.04714" lon="0.2086">
        <ele>180.8</ele>
        <time>2024-03-20T16:55:00Z</time>
      </trkpt>
      <trkpt lat="49.04719" lon="0.20852">
        <ele>180.6</ele>
        <time>2024-03-20T16:55:01Z</time>
      </trkpt>
      <trkpt lat="49.04725" lon="0.20843">
        <ele>180.6</ele>
        <time>2024-03-20T16:55:02Z</time>
      </trkpt>
      <trkpt lat="49.04731" lon="0.20835">
        <ele>180.6</ele>
        <time>2024-03-20T16:55:03Z</time>
      </trkpt>
      <trkpt lat="49.04737" lon="0.20827">
        <ele>180.6</ele>
        <time>2024-03-20T16:55:04Z</time>
      </trkpt>
      <trkpt lat="49.04743" lon="0.20819">
        <ele>180.4</ele>
        <time>2024-03-20T16:55:05Z</time>
      </trkpt>
      <trkpt lat="49.04748" lon="0.20811">
        <ele>180.4</ele>
        <time>2024-03-20T16:55:06Z</time>
      </trkpt>
      <trkpt lat="49.04754" lon="0.20803">
        <ele>180.2</ele>
        <time>2024-03-20T16:55:07Z</time>
      </trkpt>
      <trkpt lat="49.0476" lon="0.20795">
        <ele>180.2</ele>
        <time>2024-03-20T16:55:08Z</time>
      </trkpt>
      <trkpt lat="49.04766" lon="0.20786">
        <ele>180.2</ele>
        <time>2024-03-20T16:55:09Z</time>
      </trkpt>
      <trkpt lat="49.04772" lon="0.20778">
        <ele>180</ele>
        <time>2024-03-20T16:55:10Z</time>
      </trkpt>
      <trkpt lat="49.04778" lon="0.20769">
        <ele>180</ele>
        <time>2024-03-20T16:55:11Z</time>
      </trkpt>
      <trkpt lat="49.04783" lon="0.20761">
        <ele>179.8</ele>
        <time>2024-03-20T16:55:12Z</time>
      </trkpt>
      <trkpt lat="49.04789" lon="0.20752">
        <ele>179.8</ele>
        <time>2024-03-20T16:55:13Z</time>
      </trkpt>
      <trkpt lat="49.04795" lon="0.20744">
        <ele>179.6</ele>
        <time>2024-03-20T16:55:14Z</time>
      </trkpt>
      <trkpt lat="49.04801" lon="0.20736">
        <ele>179.6</ele>
        <time>2024-03-20T16:55:15Z</time>
      </trkpt>
      <trkpt lat="49.04807" lon="0.20728">
        <ele>179.4</ele>
        <time>2024-03-20T16:55:16Z</time>
      </trkpt>
      <trkpt lat="49.04813" lon="0.20719">
        <ele>179.2</ele>
        <time>2024-03-20T16:55:17Z</time>
      </trkpt>
      <trkpt lat="49.04819" lon="0.20711">
        <ele>179</ele>
        <time>2024-03-20T16:55:18Z</time>
      </trkpt>
      <trkpt lat="49.04825" lon="0.20702">
        <ele>178.8</ele>
        <time>2024-03-20T16:55:19Z</time>
      </trkpt>
      <trkpt lat="49.04831" lon="0.20694">
        <ele>178.8</ele>
        <time>2024-03-20T16:55:20Z</time>
      </trkpt>
      <trkpt lat="49.04837" lon="0.20685">
        <ele>178.6</ele>
        <time>2024-03-20T16:55:21Z</time>
      </trkpt>
      <trkpt lat="49.04842" lon="0.20677">
        <ele>178.4</ele>
        <time>2024-03-20T16:55:22Z</time>
      </trkpt>
      <trkpt lat="49.04848" lon="0.20669">
        <ele>178.4</ele>
        <time>2024-03-20T16:55:23Z</time>
      </trkpt>
      <trkpt lat="49.04854" lon="0.20661">
        <ele>178.2</ele>
        <time>2024-03-20T16:55:24Z</time>
      </trkpt>
      <trkpt lat="49.0486" lon="0.20652">
        <ele>178.2</ele>
        <time>2024-03-20T16:55:25Z</time>
      </trkpt>
      <trkpt lat="49.04866" lon="0.20644">
        <ele>178.2</ele>
        <time>2024-03-20T16:55:26Z</time>
      </trkpt>
      <trkpt lat="49.04872" lon="0.20636">
        <ele>178.2</ele>
        <time>2024-03-20T16:55:27Z</time>
      </trkpt>
      <trkpt lat="49.04878" lon="0.20627">
        <ele>178.2</ele>
        <time>2024-03-20T16:55:28Z</time>
      </trkpt>
      <trkpt lat="49.04883" lon="0.20619">
        <ele>178</ele>
        <time>2024-03-20T16:55:29Z</time>
      </trkpt>
      <trkpt lat="49.04889" lon="0.2061">
        <ele>178</ele>
        <time>2024-03-20T16:55:30Z</time>
      </trkpt>
      <trkpt lat="49.04895" lon="0.20602">
        <ele>178</ele>
        <time>2024-03-20T16:55:31Z</time>
      </trkpt>
      <trkpt lat="49.04901" lon="0.20594">
        <ele>177.8</ele>
        <time>2024-03-20T16:55:32Z</time>
      </trkpt>
      <trkpt lat="49.04907" lon="0.20585">
        <ele>177.8</ele>
        <time>2024-03-20T16:55:33Z</time>
      </trkpt>
      <trkpt lat="49.04913" lon="0.20577">
        <ele>177.6</ele>
        <time>2024-03-20T16:55:34Z</time>
      </trkpt>
      <trkpt lat="49.04919" lon="0.20569">
        <ele>177.6</ele>
        <time>2024-03-20T16:55:35Z</time>
      </trkpt>
      <trkpt lat="49.04925" lon="0.2056">
        <ele>177.2</ele>
        <time>2024-03-20T16:55:36Z</time>
      </trkpt>
      <trkpt lat="49.04931" lon="0.20551">
        <ele>177.2</ele>
        <time>2024-03-20T16:55:37Z</time>
      </trkpt>
      <trkpt lat="49.04937" lon="0.20543">
        <ele>177.2</ele>
        <time>2024-03-20T16:55:38Z</time>
      </trkpt>
      <trkpt lat="49.04943" lon="0.20535">
        <ele>177</ele>
        <time>2024-03-20T16:55:39Z</time>
      </trkpt>
      <trkpt lat="49.04949" lon="0.20527">
        <ele>177</ele>
        <time>2024-03-20T16:55:40Z</time>
      </trkpt>
      <trkpt lat="49.04955" lon="0.20519">
        <ele>176.8</ele>
        <time>2024-03-20T16:55:41Z</time>
      </trkpt>
      <trkpt lat="49.0496" lon="0.2051">
        <ele>176.8</ele>
        <time>2024-03-20T16:55:42Z</time>
      </trkpt>
      <trkpt lat="49.04966" lon="0.20502">
        <ele>176.8</ele>
        <time>2024-03-20T16:55:43Z</time>
      </trkpt>
      <trkpt lat="49.04972" lon="0.20494">
        <ele>176.6</ele>
        <time>2024-03-20T16:55:44Z</time>
      </trkpt>
      <trkpt lat="49.04978" lon="0.20486">
        <ele>176.6</ele>
        <time>2024-03-20T16:55:45Z</time>
      </trkpt>
      <trkpt lat="49.04984" lon="0.20477">
        <ele>176.4</ele>
        <time>2024-03-20T16:55:46Z</time>
      </trkpt>
      <trkpt lat="49.0499" lon="0.20469">
        <ele>176.4</ele>
        <time>2024-03-20T16:55:47Z</time>
      </trkpt>
      <trkpt lat="49.04996" lon="0.20461">
        <ele>176.4</ele>
        <time>2024-03-20T16:55:48Z</time>
      </trkpt>
      <trkpt lat="49.05001" lon="0.20452">
        <ele>176.2</ele>
        <time>2024-03-20T16:55:49Z</time>
      </trkpt>
      <trkpt lat="49.05007" lon="0.20444">
        <ele>176.2</ele>
        <time>2024-03-20T16:55:50Z</time>
      </trkpt>
      <trkpt lat="49.05013" lon="0.20436">
        <ele>176.2</ele>
        <time>2024-03-20T16:55:51Z</time>
      </trkpt>
      <trkpt lat="49.05019" lon="0.20427">
        <ele>176</ele>
        <time>2024-03-20T16:55:52Z</time>
      </trkpt>
      <trkpt lat="49.05024" lon="0.20419">
        <ele>175.8</ele>
        <time>2024-03-20T16:55:53Z</time>
      </trkpt>
      <trkpt lat="49.0503" lon="0.20411">
        <ele>175.8</ele>
        <time>2024-03-20T16:55:54Z</time>
      </trkpt>
      <trkpt lat="49.05036" lon="0.20403">
        <ele>175.6</ele>
        <time>2024-03-20T16:55:55Z</time>
      </trkpt>
      <trkpt lat="49.05042" lon="0.20395">
        <ele>175.4</ele>
        <time>2024-03-20T16:55:56Z</time>
      </trkpt>
      <trkpt lat="49.05048" lon="0.20387">
        <ele>175.4</ele>
        <time>2024-03-20T16:55:57Z</time>
      </trkpt>
      <trkpt lat="49.05053" lon="0.20378">
        <ele>175.2</ele>
        <time>2024-03-20T16:55:58Z</time>
      </trkpt>
      <trkpt lat="49.05059" lon="0.2037">
        <ele>175.2</ele>
        <time>2024-03-20T16:55:59Z</time>
      </trkpt>
      <trkpt lat="49.05065" lon="0.20361">
        <ele>175.2</ele>
        <time>2024-03-20T16:56:00Z</time>
      </trkpt>
      <trkpt lat="49.05071" lon="0.20353">
        <ele>175</ele>
        <time>2024-03-20T16:56:01Z</time>
      </trkpt>
      <trkpt lat="49.05077" lon="0.20345">
        <ele>175</ele>
        <time>2024-03-20T16:56:02Z</time>
      </trkpt>
      <trkpt lat="49.05083" lon="0.20336">
        <ele>175</ele>
        <time>2024-03-20T16:56:03Z</time>
      </trkpt>
      <trkpt lat="49.05089" lon="0.20328">
        <ele>174.8</ele>
        <time>2024-03-20T16:56:04Z</time>
      </trkpt>
      <trkpt lat="49.05094" lon="0.2032">
        <ele>174.8</ele>
        <time>2024-03-20T16:56:05Z</time>
      </trkpt>
      <trkpt lat="49.051" lon="0.20311">
        <ele>174.8</ele>
        <time>2024-03-20T16:56:06Z</time>
      </trkpt>
      <trkpt lat="49.05106" lon="0.20303">
        <ele>174.6</ele>
        <time>2024-03-20T16:56:07Z</time>
      </trkpt>
      <trkpt lat="49.05112" lon="0.20294">
        <ele>174.6</ele>
        <time>2024-03-20T16:56:08Z</time>
      </trkpt>
      <trkpt lat="49.05118" lon="0.20285">
        <ele>174.4</ele>
        <time>2024-03-20T16:56:09Z</time>
      </trkpt>
      <trkpt lat="49.05124" lon="0.20276">
        <ele>174.2</ele>
        <time>2024-03-20T16:56:10Z</time>
      </trkpt>
      <trkpt lat="49.0513" lon="0.20268">
        <ele>174.2</ele>
        <time>2024-03-20T16:56:11Z</time>
      </trkpt>
      <trkpt lat="49.05135" lon="0.20259">
        <ele>174</ele>
        <time>2024-03-20T16:56:12Z</time>
      </trkpt>
      <trkpt lat="49.05141" lon="0.2025">
        <ele>173.8</ele>
        <time>2024-03-20T16:56:13Z</time>
      </trkpt>
      <trkpt lat="49.05146" lon="0.20241">
        <ele>173.8</ele>
        <time>2024-03-20T16:56:14Z</time>
      </trkpt>
      <trkpt lat="49.05151" lon="0.20232">
        <ele>173.6</ele>
        <time>2024-03-20T16:56:15Z</time>
      </trkpt>
      <trkpt lat="49.05155" lon="0.20222">
        <ele>173.6</ele>
        <time>2024-03-20T16:56:16Z</time>
      </trkpt>
      <trkpt lat="49.0516" lon="0.20212">
        <ele>173.4</ele>
        <time>2024-03-20T16:56:17Z</time>
      </trkpt>
      <trkpt lat="49.05164" lon="0.20202">
        <ele>173.4</ele>
        <time>2024-03-20T16:56:18Z</time>
      </trkpt>
      <trkpt lat="49.05168" lon="0.20192">
        <ele>173.4</ele>
        <time>2024-03-20T16:56:19Z</time>
      </trkpt>
      <trkpt lat="49.05172" lon="0.20182">
        <ele>173.4</ele>
        <time>2024-03-20T16:56:20Z</time>
      </trkpt>
      <trkpt lat="49.05176" lon="0.20172">
        <ele>173.4</ele>
        <time>2024-03-20T16:56:21Z</time>
      </trkpt>
      <trkpt lat="49.0518" lon="0.20162">
        <ele>173.4</ele>
        <time>2024-03-20T16:56:22Z</time>
      </trkpt>
      <trkpt lat="49.05185" lon="0.20152">
        <ele>173.4</ele>
        <time>2024-03-20T16:56:23Z</time>
      </trkpt>
      <trkpt lat="49.05189" lon="0.20142">
        <ele>173.4</ele>
        <time>2024-03-20T16:56:24Z</time>
      </trkpt>
      <trkpt lat="49.05194" lon="0.20132">
        <ele>173.4</ele>
        <time>2024-03-20T16:56:25Z</time>
      </trkpt>
      <trkpt lat="49.05199" lon="0.20123">
        <ele>173.4</ele>
        <time>2024-03-20T16:56:26Z</time>
      </trkpt>
      <trkpt lat="49.05204" lon="0.20114">
        <ele>173.4</ele>
        <time>2024-03-20T16:56:27Z</time>
      </trkpt>
      <trkpt lat="49.0521" lon="0.20105">
        <ele>173.4</ele>
        <time>2024-03-20T16:56:28Z</time>
      </trkpt>
      <trkpt lat="49.05215" lon="0.20097">
        <ele>173.4</ele>
        <time>2024-03-20T16:56:29Z</time>
      </trkpt>
      <trkpt lat="49.05221" lon="0.20089">
        <ele>173.4</ele>
        <time>2024-03-20T16:56:30Z</time>
      </trkpt>
      <trkpt lat="49.05226" lon="0.20081">
        <ele>173.4</ele>
        <time>2024-03-20T16:56:31Z</time>
      </trkpt>
      <trkpt lat="49.05232" lon="0.20073">
        <ele>173.6</ele>
        <time>2024-03-20T16:56:32Z</time>
      </trkpt>
      <trkpt lat="49.05238" lon="0.20065">
        <ele>173.6</ele>
        <time>2024-03-20T16:56:33Z</time>
      </trkpt>
      <trkpt lat="49.05244" lon="0.20057">
        <ele>173.6</ele>
        <time>2024-03-20T16:56:34Z</time>
      </trkpt>
      <trkpt lat="49.0525" lon="0.2005">
        <ele>173.6</ele>
        <time>2024-03-20T16:56:35Z</time>
      </trkpt>
      <trkpt lat="49.05256" lon="0.20042">
        <ele>173.6</ele>
        <time>2024-03-20T16:56:36Z</time>
      </trkpt>
      <trkpt lat="49.05262" lon="0.20035">
        <ele>173.6</ele>
        <time>2024-03-20T16:56:37Z</time>
      </trkpt>
      <trkpt lat="49.05268" lon="0.20027">
        <ele>173.6</ele>
        <time>2024-03-20T16:56:38Z</time>
      </trkpt>
      <trkpt lat="49.05274" lon="0.20019">
        <ele>173.6</ele>
        <time>2024-03-20T16:56:39Z</time>
      </trkpt>
      <trkpt lat="49.0528" lon="0.20012">
        <ele>173.6</ele>
        <time>2024-03-20T16:56:40Z</time>
      </trkpt>
      <trkpt lat="49.05285" lon="0.20004">
        <ele>173.6</ele>
        <time>2024-03-20T16:56:41Z</time>
      </trkpt>
      <trkpt lat="49.05291" lon="0.19997">
        <ele>173.6</ele>
        <time>2024-03-20T16:56:42Z</time>
      </trkpt>
      <trkpt lat="49.05297" lon="0.19989">
        <ele>173.6</ele>
        <time>2024-03-20T16:56:43Z</time>
      </trkpt>
      <trkpt lat="49.05303" lon="0.19982">
        <ele>173.6</ele>
        <time>2024-03-20T16:56:44Z</time>
      </trkpt>
      <trkpt lat="49.05309" lon="0.19974">
        <ele>173.2</ele>
        <time>2024-03-20T16:56:45Z</time>
      </trkpt>
      <trkpt lat="49.05315" lon="0.19967">
        <ele>173.2</ele>
        <time>2024-03-20T16:56:46Z</time>
      </trkpt>
      <trkpt lat="49.0532" lon="0.19959">
        <ele>173.2</ele>
        <time>2024-03-20T16:56:47Z</time>
      </trkpt>
      <trkpt lat="49.05326" lon="0.19951">
        <ele>173.2</ele>
        <time>2024-03-20T16:56:48Z</time>
      </trkpt>
      <trkpt lat="49.05332" lon="0.19943">
        <ele>173.2</ele>
        <time>2024-03-20T16:56:49Z</time>
      </trkpt>
      <trkpt lat="49.05338" lon="0.19936">
        <ele>173.2</ele>
        <time>2024-03-20T16:56:50Z</time>
      </trkpt>
      <trkpt lat="49.05343" lon="0.19928">
        <ele>173.2</ele>
        <time>2024-03-20T16:56:51Z</time>
      </trkpt>
      <trkpt lat="49.05349" lon="0.19921">
        <ele>173.2</ele>
        <time>2024-03-20T16:56:52Z</time>
      </trkpt>
      <trkpt lat="49.05354" lon="0.19913">
        <ele>173</ele>
        <time>2024-03-20T16:56:53Z</time>
      </trkpt>
      <trkpt lat="49.0536" lon="0.19906">
        <ele>173</ele>
        <time>2024-03-20T16:56:54Z</time>
      </trkpt>
      <trkpt lat="49.05366" lon="0.19898">
        <ele>173</ele>
        <time>2024-03-20T16:56:55Z</time>
      </trkpt>
      <trkpt lat="49.05371" lon="0.1989">
        <ele>173</ele>
        <time>2024-03-20T16:56:56Z</time>
      </trkpt>
      <trkpt lat="49.05377" lon="0.19883">
        <ele>173</ele>
        <time>2024-03-20T16:56:57Z</time>
      </trkpt>
      <trkpt lat="49.05382" lon="0.19875">
        <ele>172.8</ele>
        <time>2024-03-20T16:56:58Z</time>
      </trkpt>
      <trkpt lat="49.05388" lon="0.19868">
        <ele>172.8</ele>
        <time>2024-03-20T16:56:59Z</time>
      </trkpt>
      <trkpt lat="49.05394" lon="0.19861">
        <ele>172.8</ele>
        <time>2024-03-20T16:57:00Z</time>
      </trkpt>
      <trkpt lat="49.054" lon="0.19853">
        <ele>172.8</ele>
        <time>2024-03-20T16:57:01Z</time>
      </trkpt>
      <trkpt lat="49.05406" lon="0.19846">
        <ele>172.8</ele>
        <time>2024-03-20T16:57:02Z</time>
      </trkpt>
      <trkpt lat="49.05411" lon="0.19838">
        <ele>172.8</ele>
        <time>2024-03-20T16:57:03Z</time>
      </trkpt>
      <trkpt lat="49.05417" lon="0.1983">
        <ele>172.8</ele>
        <time>2024-03-20T16:57:04Z</time>
      </trkpt>
      <trkpt lat="49.05423" lon="0.19823">
        <ele>172.8</ele>
        <time>2024-03-20T16:57:05Z</time>
      </trkpt>
      <trkpt lat="49.05429" lon="0.19815">
        <ele>172.8</ele>
        <time>2024-03-20T16:57:06Z</time>
      </trkpt>
      <trkpt lat="49.05434" lon="0.19807">
        <ele>172.8</ele>
        <time>2024-03-20T16:57:07Z</time>
      </trkpt>
      <trkpt lat="49.0544" lon="0.198">
        <ele>172.8</ele>
        <time>2024-03-20T16:57:08Z</time>
      </trkpt>
      <trkpt lat="49.05446" lon="0.19792">
        <ele>172.8</ele>
        <time>2024-03-20T16:57:09Z</time>
      </trkpt>
      <trkpt lat="49.05452" lon="0.19784">
        <ele>173</ele>
        <time>2024-03-20T16:57:10Z</time>
      </trkpt>
      <trkpt lat="49.05457" lon="0.19777">
        <ele>173.2</ele>
        <time>2024-03-20T16:57:11Z</time>
      </trkpt>
      <trkpt lat="49.05463" lon="0.1977">
        <ele>173.6</ele>
        <time>2024-03-20T16:57:12Z</time>
      </trkpt>
      <trkpt lat="49.05469" lon="0.19763">
        <ele>173.6</ele>
        <time>2024-03-20T16:57:13Z</time>
      </trkpt>
      <trkpt lat="49.05475" lon="0.19755">
        <ele>173.8</ele>
        <time>2024-03-20T16:57:14Z</time>
      </trkpt>
      <trkpt lat="49.05481" lon="0.19749">
        <ele>173.8</ele>
        <time>2024-03-20T16:57:15Z</time>
      </trkpt>
      <trkpt lat="49.05487" lon="0.19742">
        <ele>173.8</ele>
        <time>2024-03-20T16:57:16Z</time>
      </trkpt>
      <trkpt lat="49.05494" lon="0.19736">
        <ele>173.8</ele>
        <time>2024-03-20T16:57:17Z</time>
      </trkpt>
      <trkpt lat="49.055" lon="0.1973">
        <ele>173.8</ele>
        <time>2024-03-20T16:57:18Z</time>
      </trkpt>
      <trkpt lat="49.05506" lon="0.19724">
        <ele>173.8</ele>
        <time>2024-03-20T16:57:19Z</time>
      </trkpt>
      <trkpt lat="49.05513" lon="0.19718">
        <ele>173.8</ele>
        <time>2024-03-20T16:57:20Z</time>
      </trkpt>
      <trkpt lat="49.0552" lon="0.19712">
        <ele>173.8</ele>
        <time>2024-03-20T16:57:21Z</time>
      </trkpt>
      <trkpt lat="49.05526" lon="0.19706">
        <ele>173.8</ele>
        <time>2024-03-20T16:57:22Z</time>
      </trkpt>
      <trkpt lat="49.05533" lon="0.19701">
        <ele>173.8</ele>
        <time>2024-03-20T16:57:23Z</time>
      </trkpt>
      <trkpt lat="49.05539" lon="0.19696">
        <ele>173.8</ele>
        <time>2024-03-20T16:57:24Z</time>
      </trkpt>
      <trkpt lat="49.05546" lon="0.19691">
        <ele>173.8</ele>
        <time>2024-03-20T16:57:25Z</time>
      </trkpt>
      <trkpt lat="49.05553" lon="0.19686">
        <ele>174</ele>
        <time>2024-03-20T16:57:26Z</time>
      </trkpt>
      <trkpt lat="49.0556" lon="0.19681">
        <ele>174</ele>
        <time>2024-03-20T16:57:27Z</time>
      </trkpt>
      <trkpt lat="49.05567" lon="0.19676">
        <ele>174</ele>
        <time>2024-03-20T16:57:28Z</time>
      </trkpt>
      <trkpt lat="49.05573" lon="0.1967">
        <ele>174</ele>
        <time>2024-03-20T16:57:29Z</time>
      </trkpt>
      <trkpt lat="49.0558" lon="0.19665">
        <ele>174</ele>
        <time>2024-03-20T16:57:30Z</time>
      </trkpt>
      <trkpt lat="49.05587" lon="0.19661">
        <ele>174</ele>
        <time>2024-03-20T16:57:31Z</time>
      </trkpt>
      <trkpt lat="49.05593" lon="0.19656">
        <ele>174</ele>
        <time>2024-03-20T16:57:32Z</time>
      </trkpt>
      <trkpt lat="49.056" lon="0.19651">
        <ele>174</ele>
        <time>2024-03-20T16:57:33Z</time>
      </trkpt>
      <trkpt lat="49.05607" lon="0.19645">
        <ele>174</ele>
        <time>2024-03-20T16:57:34Z</time>
      </trkpt>
      <trkpt lat="49.05613" lon="0.1964">
        <ele>174</ele>
        <time>2024-03-20T16:57:35Z</time>
      </trkpt>
      <trkpt lat="49.0562" lon="0.19634">
        <ele>174</ele>
        <time>2024-03-20T16:57:36Z</time>
      </trkpt>
      <trkpt lat="49.05627" lon="0.19629">
        <ele>174</ele>
        <time>2024-03-20T16:57:37Z</time>
      </trkpt>
      <trkpt lat="49.05633" lon="0.19623">
        <ele>174</ele>
        <time>2024-03-20T16:57:38Z</time>
      </trkpt>
      <trkpt lat="49.0564" lon="0.19618">
        <ele>174.2</ele>
        <time>2024-03-20T16:57:39Z</time>
      </trkpt>
      <trkpt lat="49.05647" lon="0.19612">
        <ele>174.2</ele>
        <time>2024-03-20T16:57:40Z</time>
      </trkpt>
      <trkpt lat="49.05653" lon="0.19607">
        <ele>174.2</ele>
        <time>2024-03-20T16:57:41Z</time>
      </trkpt>
      <trkpt lat="49.0566" lon="0.19601">
        <ele>174.2</ele>
        <time>2024-03-20T16:57:42Z</time>
      </trkpt>
      <trkpt lat="49.05666" lon="0.19595">
        <ele>174.2</ele>
        <time>2024-03-20T16:57:43Z</time>
      </trkpt>
      <trkpt lat="49.05672" lon="0.19589">
        <ele>174.2</ele>
        <time>2024-03-20T16:57:44Z</time>
      </trkpt>
      <trkpt lat="49.05678" lon="0.19583">
        <ele>174.2</ele>
        <time>2024-03-20T16:57:45Z</time>
      </trkpt>
      <trkpt lat="49.05684" lon="0.19576">
        <ele>174.2</ele>
        <time>2024-03-20T16:57:46Z</time>
      </trkpt>
      <trkpt lat="49.0569" lon="0.1957">
        <ele>174</ele>
        <time>2024-03-20T16:57:47Z</time>
      </trkpt>
      <trkpt lat="49.05696" lon="0.19563">
        <ele>174</ele>
        <time>2024-03-20T16:57:48Z</time>
      </trkpt>
      <trkpt lat="49.05702" lon="0.19557">
        <ele>174</ele>
        <time>2024-03-20T16:57:49Z</time>
      </trkpt>
      <trkpt lat="49.05708" lon="0.1955">
        <ele>174</ele>
        <time>2024-03-20T16:57:50Z</time>
      </trkpt>
      <trkpt lat="49.05714" lon="0.19542">
        <ele>174</ele>
        <time>2024-03-20T16:57:51Z</time>
      </trkpt>
      <trkpt lat="49.05719" lon="0.19535">
        <ele>173.8</ele>
        <time>2024-03-20T16:57:52Z</time>
      </trkpt>
      <trkpt lat="49.05725" lon="0.19528">
        <ele>173.8</ele>
        <time>2024-03-20T16:57:53Z</time>
      </trkpt>
      <trkpt lat="49.05731" lon="0.19521">
        <ele>173.8</ele>
        <time>2024-03-20T16:57:54Z</time>
      </trkpt>
      <trkpt lat="49.05737" lon="0.19515">
        <ele>173.8</ele>
        <time>2024-03-20T16:57:55Z</time>
      </trkpt>
      <trkpt lat="49.05743" lon="0.19508">
        <ele>173.8</ele>
        <time>2024-03-20T16:57:56Z</time>
      </trkpt>
      <trkpt lat="49.05749" lon="0.19501">
        <ele>173.8</ele>
        <time>2024-03-20T16:57:57Z</time>
      </trkpt>
      <trkpt lat="49.05755" lon="0.19494">
        <ele>173.8</ele>
        <time>2024-03-20T16:57:58Z</time>
      </trkpt>
      <trkpt lat="49.0576" lon="0.19486">
        <ele>173.8</ele>
        <time>2024-03-20T16:57:59Z</time>
      </trkpt>
      <trkpt lat="49.05765" lon="0.19478">
        <ele>173.8</ele>
        <time>2024-03-20T16:58:00Z</time>
      </trkpt>
      <trkpt lat="49.0577" lon="0.19469">
        <ele>173.8</ele>
        <time>2024-03-20T16:58:01Z</time>
      </trkpt>
      <trkpt lat="49.05774" lon="0.1946">
        <ele>173.8</ele>
        <time>2024-03-20T16:58:02Z</time>
      </trkpt>
      <trkpt lat="49.05779" lon="0.19451">
        <ele>173.8</ele>
        <time>2024-03-20T16:58:03Z</time>
      </trkpt>
      <trkpt lat="49.05783" lon="0.19441">
        <ele>174</ele>
        <time>2024-03-20T16:58:04Z</time>
      </trkpt>
      <trkpt lat="49.05787" lon="0.19431">
        <ele>174.2</ele>
        <time>2024-03-20T16:58:05Z</time>
      </trkpt>
      <trkpt lat="49.05791" lon="0.19422">
        <ele>174.2</ele>
        <time>2024-03-20T16:58:06Z</time>
      </trkpt>
      <trkpt lat="49.05795" lon="0.19412">
        <ele>174.2</ele>
        <time>2024-03-20T16:58:07Z</time>
      </trkpt>
      <trkpt lat="49.05799" lon="0.19402">
        <ele>174.2</ele>
        <time>2024-03-20T16:58:08Z</time>
      </trkpt>
      <trkpt lat="49.05803" lon="0.19393">
        <ele>174.4</ele>
        <time>2024-03-20T16:58:09Z</time>
      </trkpt>
      <trkpt lat="49.05808" lon="0.19383">
        <ele>174.4</ele>
        <time>2024-03-20T16:58:10Z</time>
      </trkpt>
      <trkpt lat="49.05812" lon="0.19373">
        <ele>174.6</ele>
        <time>2024-03-20T16:58:11Z</time>
      </trkpt>
      <trkpt lat="49.05816" lon="0.19363">
        <ele>174.6</ele>
        <time>2024-03-20T16:58:12Z</time>
      </trkpt>
      <trkpt lat="49.0582" lon="0.19354">
        <ele>174.6</ele>
        <time>2024-03-20T16:58:13Z</time>
      </trkpt>
      <trkpt lat="49.05824" lon="0.19344">
        <ele>174.6</ele>
        <time>2024-03-20T16:58:14Z</time>
      </trkpt>
      <trkpt lat="49.05828" lon="0.19334">
        <ele>174.6</ele>
        <time>2024-03-20T16:58:15Z</time>
      </trkpt>
      <trkpt lat="49.05832" lon="0.19325">
        <ele>174.6</ele>
        <time>2024-03-20T16:58:16Z</time>
      </trkpt>
      <trkpt lat="49.05836" lon="0.19315">
        <ele>174.6</ele>
        <time>2024-03-20T16:58:17Z</time>
      </trkpt>
      <trkpt lat="49.05841" lon="0.19305">
        <ele>174.6</ele>
        <time>2024-03-20T16:58:18Z</time>
      </trkpt>
      <trkpt lat="49.05845" lon="0.19295">
        <ele>174.6</ele>
        <time>2024-03-20T16:58:19Z</time>
      </trkpt>
      <trkpt lat="49.0585" lon="0.19286">
        <ele>174.6</ele>
        <time>2024-03-20T16:58:20Z</time>
      </trkpt>
      <trkpt lat="49.05854" lon="0.19276">
        <ele>174.6</ele>
        <time>2024-03-20T16:58:21Z</time>
      </trkpt>
      <trkpt lat="49.05858" lon="0.19266">
        <ele>174.6</ele>
        <time>2024-03-20T16:58:22Z</time>
      </trkpt>
      <trkpt lat="49.05862" lon="0.19256">
        <ele>174.6</ele>
        <time>2024-03-20T16:58:23Z</time>
      </trkpt>
      <trkpt lat="49.05866" lon="0.19246">
        <ele>174.6</ele>
        <time>2024-03-20T16:58:24Z</time>
      </trkpt>
      <trkpt lat="49.05871" lon="0.19236">
        <ele>174.6</ele>
        <time>2024-03-20T16:58:25Z</time>
      </trkpt>
      <trkpt lat="49.05874" lon="0.19227">
        <ele>174.6</ele>
        <time>2024-03-20T16:58:26Z</time>
      </trkpt>
      <trkpt lat="49.05878" lon="0.19217">
        <ele>174.6</ele>
        <time>2024-03-20T16:58:27Z</time>
      </trkpt>
      <trkpt lat="49.05882" lon="0.19208">
        <ele>174.4</ele>
        <time>2024-03-20T16:58:28Z</time>
      </trkpt>
      <trkpt lat="49.05887" lon="0.19198">
        <ele>174.4</ele>
        <time>2024-03-20T16:58:29Z</time>
      </trkpt>
      <trkpt lat="49.05891" lon="0.19189">
        <ele>174.4</ele>
        <time>2024-03-20T16:58:30Z</time>
      </trkpt>
      <trkpt lat="49.05895" lon="0.19179">
        <ele>174.4</ele>
        <time>2024-03-20T16:58:31Z</time>
      </trkpt>
      <trkpt lat="49.05899" lon="0.19169">
        <ele>174.2</ele>
        <time>2024-03-20T16:58:32Z</time>
      </trkpt>
      <trkpt lat="49.05903" lon="0.1916">
        <ele>174.2</ele>
        <time>2024-03-20T16:58:33Z</time>
      </trkpt>
      <trkpt lat="49.05907" lon="0.1915">
        <ele>174.2</ele>
        <time>2024-03-20T16:58:34Z</time>
      </trkpt>
      <trkpt lat="49.05911" lon="0.19141">
        <ele>174.2</ele>
        <time>2024-03-20T16:58:35Z</time>
      </trkpt>
      <trkpt lat="49.05915" lon="0.19132">
        <ele>174.2</ele>
        <time>2024-03-20T16:58:36Z</time>
      </trkpt>
      <trkpt lat="49.0592" lon="0.19122">
        <ele>174.2</ele>
        <time>2024-03-20T16:58:37Z</time>
      </trkpt>
      <trkpt lat="49.05924" lon="0.19113">
        <ele>174.2</ele>
        <time>2024-03-20T16:58:38Z</time>
      </trkpt>
      <trkpt lat="49.05929" lon="0.19103">
        <ele>174.2</ele>
        <time>2024-03-20T16:58:39Z</time>
      </trkpt>
      <trkpt lat="49.05933" lon="0.19093">
        <ele>174.2</ele>
        <time>2024-03-20T16:58:40Z</time>
      </trkpt>
      <trkpt lat="49.05938" lon="0.19083">
        <ele>174.2</ele>
        <time>2024-03-20T16:58:41Z</time>
      </trkpt>
      <trkpt lat="49.05942" lon="0.19073">
        <ele>174.2</ele>
        <time>2024-03-20T16:58:42Z</time>
      </trkpt>
      <trkpt lat="49.05946" lon="0.19064">
        <ele>174.2</ele>
        <time>2024-03-20T16:58:43Z</time>
      </trkpt>
      <trkpt lat="49.0595" lon="0.19054">
        <ele>174.2</ele>
        <time>2024-03-20T16:58:44Z</time>
      </trkpt>
      <trkpt lat="49.05955" lon="0.19044">
        <ele>174.2</ele>
        <time>2024-03-20T16:58:45Z</time>
      </trkpt>
      <trkpt lat="49.05959" lon="0.19035">
        <ele>174.2</ele>
        <time>2024-03-20T16:58:46Z</time>
      </trkpt>
      <trkpt lat="49.05963" lon="0.19025">
        <ele>174.2</ele>
        <time>2024-03-20T16:58:47Z</time>
      </trkpt>
      <trkpt lat="49.05967" lon="0.19015">
        <ele>174.2</ele>
        <time>2024-03-20T16:58:48Z</time>
      </trkpt>
      <trkpt lat="49.05971" lon="0.19005">
        <ele>174.2</ele>
        <time>2024-03-20T16:58:49Z</time>
      </trkpt>
      <trkpt lat="49.05976" lon="0.18995">
        <ele>174.2</ele>
        <time>2024-03-20T16:58:50Z</time>
      </trkpt>
      <trkpt lat="49.0598" lon="0.18985">
        <ele>174.2</ele>
        <time>2024-03-20T16:58:51Z</time>
      </trkpt>
      <trkpt lat="49.05984" lon="0.18975">
        <ele>174.2</ele>
        <time>2024-03-20T16:58:52Z</time>
      </trkpt>
      <trkpt lat="49.05988" lon="0.18966">
        <ele>174.2</ele>
        <time>2024-03-20T16:58:53Z</time>
      </trkpt>
      <trkpt lat="49.05992" lon="0.18956">
        <ele>174.4</ele>
        <time>2024-03-20T16:58:54Z</time>
      </trkpt>
      <trkpt lat="49.05996" lon="0.18946">
        <ele>174.4</ele>
        <time>2024-03-20T16:58:55Z</time>
      </trkpt>
      <trkpt lat="49.06" lon="0.18937">
        <ele>174.4</ele>
        <time>2024-03-20T16:58:56Z</time>
      </trkpt>
      <trkpt lat="49.06004" lon="0.18927">
        <ele>174.4</ele>
        <time>2024-03-20T16:58:57Z</time>
      </trkpt>
      <trkpt lat="49.06009" lon="0.18917">
        <ele>174.6</ele>
        <time>2024-03-20T16:58:58Z</time>
      </trkpt>
      <trkpt lat="49.06013" lon="0.18908">
        <ele>174.6</ele>
        <time>2024-03-20T16:58:59Z</time>
      </trkpt>
      <trkpt lat="49.06017" lon="0.18899">
        <ele>174.6</ele>
        <time>2024-03-20T16:59:00Z</time>
      </trkpt>
      <trkpt lat="49.06021" lon="0.18889">
        <ele>174.6</ele>
        <time>2024-03-20T16:59:01Z</time>
      </trkpt>
      <trkpt lat="49.06025" lon="0.18879">
        <ele>174.6</ele>
        <time>2024-03-20T16:59:02Z</time>
      </trkpt>
      <trkpt lat="49.06029" lon="0.1887">
        <ele>174.8</ele>
        <time>2024-03-20T16:59:03Z</time>
      </trkpt>
      <trkpt lat="49.06033" lon="0.1886">
        <ele>174.8</ele>
        <time>2024-03-20T16:59:04Z</time>
      </trkpt>
      <trkpt lat="49.06037" lon="0.1885">
        <ele>175</ele>
        <time>2024-03-20T16:59:05Z</time>
      </trkpt>
      <trkpt lat="49.06042" lon="0.18841">
        <ele>175</ele>
        <time>2024-03-20T16:59:06Z</time>
      </trkpt>
      <trkpt lat="49.06046" lon="0.18832">
        <ele>175</ele>
        <time>2024-03-20T16:59:07Z</time>
      </trkpt>
      <trkpt lat="49.06051" lon="0.18823">
        <ele>175.2</ele>
        <time>2024-03-20T16:59:08Z</time>
      </trkpt>
      <trkpt lat="49.06055" lon="0.18813">
        <ele>175.2</ele>
        <time>2024-03-20T16:59:09Z</time>
      </trkpt>
      <trkpt lat="49.06059" lon="0.18804">
        <ele>175.4</ele>
        <time>2024-03-20T16:59:10Z</time>
      </trkpt>
      <trkpt lat="49.06063" lon="0.18794">
        <ele>175.4</ele>
        <time>2024-03-20T16:59:11Z</time>
      </trkpt>
      <trkpt lat="49.06067" lon="0.18785">
        <ele>175.4</ele>
        <time>2024-03-20T16:59:12Z</time>
      </trkpt>
      <trkpt lat="49.06071" lon="0.18775">
        <ele>175.4</ele>
        <time>2024-03-20T16:59:13Z</time>
      </trkpt>
      <trkpt lat="49.06075" lon="0.18765">
        <ele>175.6</ele>
        <time>2024-03-20T16:59:14Z</time>
      </trkpt>
      <trkpt lat="49.06079" lon="0.18755">
        <ele>175.8</ele>
        <time>2024-03-20T16:59:15Z</time>
      </trkpt>
      <trkpt lat="49.06083" lon="0.18745">
        <ele>175.8</ele>
        <time>2024-03-20T16:59:16Z</time>
      </trkpt>
      <trkpt lat="49.06088" lon="0.18736">
        <ele>176</ele>
        <time>2024-03-20T16:59:17Z</time>
      </trkpt>
      <trkpt lat="49.06092" lon="0.18726">
        <ele>176</ele>
        <time>2024-03-20T16:59:18Z</time>
      </trkpt>
      <trkpt lat="49.06097" lon="0.18716">
        <ele>176</ele>
        <time>2024-03-20T16:59:19Z</time>
      </trkpt>
      <trkpt lat="49.06101" lon="0.18706">
        <ele>176.2</ele>
        <time>2024-03-20T16:59:20Z</time>
      </trkpt>
      <trkpt lat="49.06105" lon="0.18696">
        <ele>176.2</ele>
        <time>2024-03-20T16:59:21Z</time>
      </trkpt>
      <trkpt lat="49.06109" lon="0.18687">
        <ele>176.4</ele>
        <time>2024-03-20T16:59:22Z</time>
      </trkpt>
      <trkpt lat="49.06113" lon="0.18677">
        <ele>176.4</ele>
        <time>2024-03-20T16:59:23Z</time>
      </trkpt>
      <trkpt lat="49.06117" lon="0.18667">
        <ele>176.6</ele>
        <time>2024-03-20T16:59:24Z</time>
      </trkpt>
      <trkpt lat="49.06122" lon="0.18658">
        <ele>176.6</ele>
        <time>2024-03-20T16:59:25Z</time>
      </trkpt>
      <trkpt lat="49.06126" lon="0.18649">
        <ele>176.6</ele>
        <time>2024-03-20T16:59:26Z</time>
      </trkpt>
      <trkpt lat="49.0613" lon="0.1864">
        <ele>176.8</ele>
        <time>2024-03-20T16:59:27Z</time>
      </trkpt>
      <trkpt lat="49.06134" lon="0.1863">
        <ele>176.8</ele>
        <time>2024-03-20T16:59:28Z</time>
      </trkpt>
      <trkpt lat="49.06138" lon="0.18621">
        <ele>176.8</ele>
        <time>2024-03-20T16:59:29Z</time>
      </trkpt>
      <trkpt lat="49.06142" lon="0.18612">
        <ele>176.8</ele>
        <time>2024-03-20T16:59:30Z</time>
      </trkpt>
      <trkpt lat="49.06146" lon="0.18603">
        <ele>176.8</ele>
        <time>2024-03-20T16:59:31Z</time>
      </trkpt>
      <trkpt lat="49.0615" lon="0.18593">
        <ele>176.8</ele>
        <time>2024-03-20T16:59:32Z</time>
      </trkpt>
      <trkpt lat="49.06155" lon="0.18584">
        <ele>177</ele>
        <time>2024-03-20T16:59:33Z</time>
      </trkpt>
      <trkpt lat="49.06159" lon="0.18575">
        <ele>177</ele>
        <time>2024-03-20T16:59:34Z</time>
      </trkpt>
      <trkpt lat="49.06162" lon="0.18566">
        <ele>177</ele>
        <time>2024-03-20T16:59:35Z</time>
      </trkpt>
      <trkpt lat="49.06166" lon="0.18557">
        <ele>177</ele>
        <time>2024-03-20T16:59:36Z</time>
      </trkpt>
      <trkpt lat="49.0617" lon="0.18548">
        <ele>177.2</ele>
        <time>2024-03-20T16:59:37Z</time>
      </trkpt>
      <trkpt lat="49.06174" lon="0.1854">
        <ele>177.2</ele>
        <time>2024-03-20T16:59:38Z</time>
      </trkpt>
      <trkpt lat="49.06178" lon="0.18531">
        <ele>177.2</ele>
        <time>2024-03-20T16:59:39Z</time>
      </trkpt>
      <trkpt lat="49.06181" lon="0.18523">
        <ele>177.2</ele>
        <time>2024-03-20T16:59:40Z</time>
      </trkpt>
      <trkpt lat="49.06185" lon="0.18514">
        <ele>177.2</ele>
        <time>2024-03-20T16:59:41Z</time>
      </trkpt>
      <trkpt lat="49.06189" lon="0.18506">
        <ele>177.4</ele>
        <time>2024-03-20T16:59:42Z</time>
      </trkpt>
      <trkpt lat="49.06193" lon="0.18497">
        <ele>177.4</ele>
        <time>2024-03-20T16:59:43Z</time>
      </trkpt>
      <trkpt lat="49.06196" lon="0.18489">
        <ele>177.4</ele>
        <time>2024-03-20T16:59:44Z</time>
      </trkpt>
      <trkpt lat="49.062" lon="0.18481">
        <ele>177.4</ele>
        <time>2024-03-20T16:59:45Z</time>
      </trkpt>
      <trkpt lat="49.06204" lon="0.18472">
        <ele>177.6</ele>
        <time>2024-03-20T16:59:46Z</time>
      </trkpt>
      <trkpt lat="49.06208" lon="0.18464">
        <ele>177.8</ele>
        <time>2024-03-20T16:59:47Z</time>
      </trkpt>
      <trkpt lat="49.06211" lon="0.18456">
        <ele>177.8</ele>
        <time>2024-03-20T16:59:48Z</time>
      </trkpt>
      <trkpt lat="49.06215" lon="0.18447">
        <ele>177.8</ele>
        <time>2024-03-20T16:59:49Z</time>
      </trkpt>
      <trkpt lat="49.06218" lon="0.18439">
        <ele>177.8</ele>
        <time>2024-03-20T16:59:50Z</time>
      </trkpt>
      <trkpt lat="49.06221" lon="0.18433">
        <ele>178</ele>
        <time>2024-03-20T16:59:51Z</time>
      </trkpt>
      <trkpt lat="49.06225" lon="0.18424">
        <ele>178</ele>
        <time>2024-03-20T16:59:52Z</time>
      </trkpt>
      <trkpt lat="49.06228" lon="0.18417">
        <ele>178</ele>
        <time>2024-03-20T16:59:53Z</time>
      </trkpt>
      <trkpt lat="49.06231" lon="0.1841">
        <ele>178</ele>
        <time>2024-03-20T16:59:54Z</time>
      </trkpt>
      <trkpt lat="49.06234" lon="0.18403">
        <ele>178</ele>
        <time>2024-03-20T16:59:55Z</time>
      </trkpt>
      <trkpt lat="49.06237" lon="0.18397">
        <ele>178</ele>
        <time>2024-03-20T16:59:56Z</time>
      </trkpt>
      <trkpt lat="49.0624" lon="0.18392">
        <ele>178</ele>
        <time>2024-03-20T16:59:57Z</time>
      </trkpt>
      <trkpt lat="49.06242" lon="0.18387">
        <ele>178.2</ele>
        <time>2024-03-20T16:59:58Z</time>
      </trkpt>
      <trkpt lat="49.06244" lon="0.18383">
        <ele>178.2</ele>
        <time>2024-03-20T16:59:59Z</time>
      </trkpt>
      <trkpt lat="49.06246" lon="0.1838">
        <ele>178.2</ele>
        <time>2024-03-20T17:00:00Z</time>
      </trkpt>
      <trkpt lat="49.06247" lon="0.18377">
        <ele>178.2</ele>
        <time>2024-03-20T17:00:01Z</time>
      </trkpt>
      <trkpt lat="49.06247" lon="0.18376">
        <ele>178.2</ele>
        <time>2024-03-20T17:00:02Z</time>
      </trkpt>
      <trkpt lat="49.06248" lon="0.18375">
        <ele>178.2</ele>
        <time>2024-03-20T17:00:03Z</time>
      </trkpt>
      <trkpt lat="49.06248" lon="0.18375">
        <ele>178.2</ele>
        <time>2024-03-20T17:00:04Z</time>
      </trkpt>
      <trkpt lat="49.06252" lon="0.18369">
        <ele>179.6</ele>
        <time>2024-03-20T17:00:27Z</time>
      </trkpt>
      <trkpt lat="49.06254" lon="0.18366">
        <ele>179.6</ele>
        <time>2024-03-20T17:00:28Z</time>
      </trkpt>
      <trkpt lat="49.06256" lon="0.18363">
        <ele>179.4</ele>
        <time>2024-03-20T17:00:29Z</time>
      </trkpt>
      <trkpt lat="49.06258" lon="0.18359">
        <ele>179.4</ele>
        <time>2024-03-20T17:00:30Z</time>
      </trkpt>
      <trkpt lat="49.0626" lon="0.18354">
        <ele>179.4</ele>
        <time>2024-03-20T17:00:31Z</time>
      </trkpt>
      <trkpt lat="49.06262" lon="0.18349">
        <ele>179.4</ele>
        <time>2024-03-20T17:00:32Z</time>
      </trkpt>
      <trkpt lat="49.06265" lon="0.18344">
        <ele>179.4</ele>
        <time>2024-03-20T17:00:33Z</time>
      </trkpt>
      <trkpt lat="49.06268" lon="0.18339">
        <ele>179.2</ele>
        <time>2024-03-20T17:00:34Z</time>
      </trkpt>
      <trkpt lat="49.06272" lon="0.18333">
        <ele>179.2</ele>
        <time>2024-03-20T17:00:35Z</time>
      </trkpt>
      <trkpt lat="49.06276" lon="0.18328">
        <ele>179.2</ele>
        <time>2024-03-20T17:00:36Z</time>
      </trkpt>
      <trkpt lat="49.06281" lon="0.18322">
        <ele>178.8</ele>
        <time>2024-03-20T17:00:37Z</time>
      </trkpt>
      <trkpt lat="49.06286" lon="0.18315">
        <ele>178.8</ele>
        <time>2024-03-20T17:00:38Z</time>
      </trkpt>
      <trkpt lat="49.0629" lon="0.18308">
        <ele>178.6</ele>
        <time>2024-03-20T17:00:39Z</time>
      </trkpt>
      <trkpt lat="49.06295" lon="0.183">
        <ele>178.6</ele>
        <time>2024-03-20T17:00:40Z</time>
      </trkpt>
      <trkpt lat="49.06301" lon="0.18293">
        <ele>178.6</ele>
        <time>2024-03-20T17:00:41Z</time>
      </trkpt>
      <trkpt lat="49.06306" lon="0.18285">
        <ele>178.6</ele>
        <time>2024-03-20T17:00:42Z</time>
      </trkpt>
      <trkpt lat="49.06312" lon="0.18277">
        <ele>178.6</ele>
        <time>2024-03-20T17:00:43Z</time>
      </trkpt>
      <trkpt lat="49.06317" lon="0.18269">
        <ele>178.6</ele>
        <time>2024-03-20T17:00:44Z</time>
      </trkpt>
      <trkpt lat="49.06323" lon="0.18261">
        <ele>178.6</ele>
        <time>2024-03-20T17:00:45Z</time>
      </trkpt>
      <trkpt lat="49.06328" lon="0.18253">
        <ele>178.6</ele>
        <time>2024-03-20T17:00:46Z</time>
      </trkpt>
      <trkpt lat="49.06333" lon="0.18245">
        <ele>178.6</ele>
        <time>2024-03-20T17:00:47Z</time>
      </trkpt>
      <trkpt lat="49.06338" lon="0.18237">
        <ele>178.6</ele>
        <time>2024-03-20T17:00:48Z</time>
      </trkpt>
      <trkpt lat="49.06344" lon="0.1823">
        <ele>178.6</ele>
        <time>2024-03-20T17:00:49Z</time>
      </trkpt>
      <trkpt lat="49.0635" lon="0.18223">
        <ele>178.6</ele>
        <time>2024-03-20T17:00:50Z</time>
      </trkpt>
      <trkpt lat="49.06355" lon="0.18216">
        <ele>178.8</ele>
        <time>2024-03-20T17:00:51Z</time>
      </trkpt>
      <trkpt lat="49.06361" lon="0.18209">
        <ele>178.8</ele>
        <time>2024-03-20T17:00:52Z</time>
      </trkpt>
      <trkpt lat="49.06367" lon="0.18203">
        <ele>178.8</ele>
        <time>2024-03-20T17:00:53Z</time>
      </trkpt>
      <trkpt lat="49.06373" lon="0.18196">
        <ele>179</ele>
        <time>2024-03-20T17:00:54Z</time>
      </trkpt>
      <trkpt lat="49.06379" lon="0.18189">
        <ele>179</ele>
        <time>2024-03-20T17:00:55Z</time>
      </trkpt>
      <trkpt lat="49.06385" lon="0.18182">
        <ele>179</ele>
        <time>2024-03-20T17:00:56Z</time>
      </trkpt>
      <trkpt lat="49.06391" lon="0.18175">
        <ele>179</ele>
        <time>2024-03-20T17:00:57Z</time>
      </trkpt>
      <trkpt lat="49.06397" lon="0.18169">
        <ele>179</ele>
        <time>2024-03-20T17:00:58Z</time>
      </trkpt>
      <trkpt lat="49.06404" lon="0.18162">
        <ele>179</ele>
        <time>2024-03-20T17:00:59Z</time>
      </trkpt>
      <trkpt lat="49.0641" lon="0.18155">
        <ele>179</ele>
        <time>2024-03-20T17:01:00Z</time>
      </trkpt>
      <trkpt lat="49.06416" lon="0.18148">
        <ele>179.2</ele>
        <time>2024-03-20T17:01:01Z</time>
      </trkpt>
      <trkpt lat="49.06422" lon="0.18142">
        <ele>179.2</ele>
        <time>2024-03-20T17:01:02Z</time>
      </trkpt>
      <trkpt lat="49.06428" lon="0.18135">
        <ele>179.2</ele>
        <time>2024-03-20T17:01:03Z</time>
      </trkpt>
      <trkpt lat="49.06434" lon="0.18129">
        <ele>179.4</ele>
        <time>2024-03-20T17:01:04Z</time>
      </trkpt>
      <trkpt lat="49.0644" lon="0.18123">
        <ele>179.4</ele>
        <time>2024-03-20T17:01:05Z</time>
      </trkpt>
      <trkpt lat="49.06447" lon="0.18116">
        <ele>179.6</ele>
        <time>2024-03-20T17:01:06Z</time>
      </trkpt>
      <trkpt lat="49.06453" lon="0.1811">
        <ele>179.6</ele>
        <time>2024-03-20T17:01:07Z</time>
      </trkpt>
      <trkpt lat="49.06459" lon="0.18104">
        <ele>179.6</ele>
        <time>2024-03-20T17:01:08Z</time>
      </trkpt>
      <trkpt lat="49.06466" lon="0.18098">
        <ele>179.8</ele>
        <time>2024-03-20T17:01:09Z</time>
      </trkpt>
      <trkpt lat="49.06472" lon="0.18092">
        <ele>179.8</ele>
        <time>2024-03-20T17:01:10Z</time>
      </trkpt>
      <trkpt lat="49.06479" lon="0.18087">
        <ele>180</ele>
        <time>2024-03-20T17:01:11Z</time>
      </trkpt>
      <trkpt lat="49.06486" lon="0.18082">
        <ele>180</ele>
        <time>2024-03-20T17:01:12Z</time>
      </trkpt>
      <trkpt lat="49.06493" lon="0.18076">
        <ele>180</ele>
        <time>2024-03-20T17:01:13Z</time>
      </trkpt>
      <trkpt lat="49.065" lon="0.18071">
        <ele>180</ele>
        <time>2024-03-20T17:01:14Z</time>
      </trkpt>
      <trkpt lat="49.06507" lon="0.18065">
        <ele>180</ele>
        <time>2024-03-20T17:01:15Z</time>
      </trkpt>
      <trkpt lat="49.06514" lon="0.1806">
        <ele>180</ele>
        <time>2024-03-20T17:01:16Z</time>
      </trkpt>
      <trkpt lat="49.06521" lon="0.18053">
        <ele>180</ele>
        <time>2024-03-20T17:01:17Z</time>
      </trkpt>
      <trkpt lat="49.06528" lon="0.18047">
        <ele>180</ele>
        <time>2024-03-20T17:01:18Z</time>
      </trkpt>
      <trkpt lat="49.06535" lon="0.1804">
        <ele>180</ele>
        <time>2024-03-20T17:01:19Z</time>
      </trkpt>
      <trkpt lat="49.06541" lon="0.18033">
        <ele>180</ele>
        <time>2024-03-20T17:01:20Z</time>
      </trkpt>
      <trkpt lat="49.06548" lon="0.18025">
        <ele>180</ele>
        <time>2024-03-20T17:01:21Z</time>
      </trkpt>
      <trkpt lat="49.06554" lon="0.18018">
        <ele>180</ele>
        <time>2024-03-20T17:01:22Z</time>
      </trkpt>
      <trkpt lat="49.0656" lon="0.1801">
        <ele>180</ele>
        <time>2024-03-20T17:01:23Z</time>
      </trkpt>
      <trkpt lat="49.06566" lon="0.18002">
        <ele>180</ele>
        <time>2024-03-20T17:01:24Z</time>
      </trkpt>
      <trkpt lat="49.06572" lon="0.17994">
        <ele>179.8</ele>
        <time>2024-03-20T17:01:25Z</time>
      </trkpt>
      <trkpt lat="49.06578" lon="0.17985">
        <ele>179.6</ele>
        <time>2024-03-20T17:01:26Z</time>
      </trkpt>
      <trkpt lat="49.06583" lon="0.17975">
        <ele>179.6</ele>
        <time>2024-03-20T17:01:27Z</time>
      </trkpt>
      <trkpt lat="49.06588" lon="0.17966">
        <ele>179.4</ele>
        <time>2024-03-20T17:01:28Z</time>
      </trkpt>
      <trkpt lat="49.06593" lon="0.17955">
        <ele>179.4</ele>
        <time>2024-03-20T17:01:29Z</time>
      </trkpt>
      <trkpt lat="49.06598" lon="0.17945">
        <ele>179.2</ele>
        <time>2024-03-20T17:01:30Z</time>
      </trkpt>
      <trkpt lat="49.06602" lon="0.17934">
        <ele>179.2</ele>
        <time>2024-03-20T17:01:31Z</time>
      </trkpt>
      <trkpt lat="49.06606" lon="0.17923">
        <ele>179.2</ele>
        <time>2024-03-20T17:01:32Z</time>
      </trkpt>
      <trkpt lat="49.0661" lon="0.17913">
        <ele>179</ele>
        <time>2024-03-20T17:01:33Z</time>
      </trkpt>
      <trkpt lat="49.06614" lon="0.17902">
        <ele>179</ele>
        <time>2024-03-20T17:01:34Z</time>
      </trkpt>
      <trkpt lat="49.06618" lon="0.17892">
        <ele>179</ele>
        <time>2024-03-20T17:01:35Z</time>
      </trkpt>
      <trkpt lat="49.06622" lon="0.17882">
        <ele>179</ele>
        <time>2024-03-20T17:01:36Z</time>
      </trkpt>
      <trkpt lat="49.06626" lon="0.17871">
        <ele>179</ele>
        <time>2024-03-20T17:01:37Z</time>
      </trkpt>
      <trkpt lat="49.0663" lon="0.17861">
        <ele>178.8</ele>
        <time>2024-03-20T17:01:38Z</time>
      </trkpt>
      <trkpt lat="49.06633" lon="0.1785">
        <ele>178.8</ele>
        <time>2024-03-20T17:01:39Z</time>
      </trkpt>
      <trkpt lat="49.06637" lon="0.1784">
        <ele>178.8</ele>
        <time>2024-03-20T17:01:40Z</time>
      </trkpt>
      <trkpt lat="49.0664" lon="0.17829">
        <ele>178.8</ele>
        <time>2024-03-20T17:01:41Z</time>
      </trkpt>
      <trkpt lat="49.06644" lon="0.17819">
        <ele>178.8</ele>
        <time>2024-03-20T17:01:42Z</time>
      </trkpt>
      <trkpt lat="49.06647" lon="0.17808">
        <ele>178.8</ele>
        <time>2024-03-20T17:01:43Z</time>
      </trkpt>
      <trkpt lat="49.06651" lon="0.17797">
        <ele>178.8</ele>
        <time>2024-03-20T17:01:44Z</time>
      </trkpt>
      <trkpt lat="49.06654" lon="0.17786">
        <ele>178.8</ele>
        <time>2024-03-20T17:01:45Z</time>
      </trkpt>
      <trkpt lat="49.06657" lon="0.17775">
        <ele>178.8</ele>
        <time>2024-03-20T17:01:46Z</time>
      </trkpt>
      <trkpt lat="49.0666" lon="0.17764">
        <ele>178.8</ele>
        <time>2024-03-20T17:01:47Z</time>
      </trkpt>
      <trkpt lat="49.06663" lon="0.17753">
        <ele>178.8</ele>
        <time>2024-03-20T17:01:48Z</time>
      </trkpt>
      <trkpt lat="49.06666" lon="0.17742">
        <ele>178.8</ele>
        <time>2024-03-20T17:01:49Z</time>
      </trkpt>
      <trkpt lat="49.0667" lon="0.17731">
        <ele>178.8</ele>
        <time>2024-03-20T17:01:50Z</time>
      </trkpt>
      <trkpt lat="49.06673" lon="0.17721">
        <ele>178.8</ele>
        <time>2024-03-20T17:01:51Z</time>
      </trkpt>
      <trkpt lat="49.06677" lon="0.17711">
        <ele>178.8</ele>
        <time>2024-03-20T17:01:52Z</time>
      </trkpt>
      <trkpt lat="49.06681" lon="0.17702">
        <ele>178.8</ele>
        <time>2024-03-20T17:01:53Z</time>
      </trkpt>
      <trkpt lat="49.06685" lon="0.17692">
        <ele>178.8</ele>
        <time>2024-03-20T17:01:54Z</time>
      </trkpt>
      <trkpt lat="49.06689" lon="0.17682">
        <ele>179</ele>
        <time>2024-03-20T17:01:55Z</time>
      </trkpt>
      <trkpt lat="49.06694" lon="0.17672">
        <ele>179</ele>
        <time>2024-03-20T17:01:56Z</time>
      </trkpt>
      <trkpt lat="49.06699" lon="0.17661">
        <ele>179</ele>
        <time>2024-03-20T17:01:57Z</time>
      </trkpt>
      <trkpt lat="49.06703" lon="0.17651">
        <ele>179.2</ele>
        <time>2024-03-20T17:01:58Z</time>
      </trkpt>
      <trkpt lat="49.06708" lon="0.1764">
        <ele>179.4</ele>
        <time>2024-03-20T17:01:59Z</time>
      </trkpt>
      <trkpt lat="49.06712" lon="0.1763">
        <ele>179.4</ele>
        <time>2024-03-20T17:02:00Z</time>
      </trkpt>
      <trkpt lat="49.06717" lon="0.1762">
        <ele>179.4</ele>
        <time>2024-03-20T17:02:01Z</time>
      </trkpt>
      <trkpt lat="49.06722" lon="0.1761">
        <ele>179.6</ele>
        <time>2024-03-20T17:02:02Z</time>
      </trkpt>
      <trkpt lat="49.06727" lon="0.17599">
        <ele>179.6</ele>
        <time>2024-03-20T17:02:03Z</time>
      </trkpt>
      <trkpt lat="49.06732" lon="0.17589">
        <ele>179.4</ele>
        <time>2024-03-20T17:02:04Z</time>
      </trkpt>
      <trkpt lat="49.06737" lon="0.17578">
        <ele>179.4</ele>
        <time>2024-03-20T17:02:05Z</time>
      </trkpt>
      <trkpt lat="49.06741" lon="0.17568">
        <ele>179.2</ele>
        <time>2024-03-20T17:02:06Z</time>
      </trkpt>
      <trkpt lat="49.06746" lon="0.17557">
        <ele>179.2</ele>
        <time>2024-03-20T17:02:07Z</time>
      </trkpt>
      <trkpt lat="49.06751" lon="0.17547">
        <ele>179.2</ele>
        <time>2024-03-20T17:02:08Z</time>
      </trkpt>
      <trkpt lat="49.06756" lon="0.17537">
        <ele>179.2</ele>
        <time>2024-03-20T17:02:09Z</time>
      </trkpt>
      <trkpt lat="49.0676" lon="0.17526">
        <ele>179.2</ele>
        <time>2024-03-20T17:02:10Z</time>
      </trkpt>
      <trkpt lat="49.06765" lon="0.17516">
        <ele>179.2</ele>
        <time>2024-03-20T17:02:11Z</time>
      </trkpt>
      <trkpt lat="49.0677" lon="0.17505">
        <ele>179.2</ele>
        <time>2024-03-20T17:02:12Z</time>
      </trkpt>
      <trkpt lat="49.06774" lon="0.17495">
        <ele>179.2</ele>
        <time>2024-03-20T17:02:13Z</time>
      </trkpt>
      <trkpt lat="49.06779" lon="0.17485">
        <ele>179</ele>
        <time>2024-03-20T17:02:14Z</time>
      </trkpt>
      <trkpt lat="49.06784" lon="0.17475">
        <ele>179</ele>
        <time>2024-03-20T17:02:15Z</time>
      </trkpt>
      <trkpt lat="49.06789" lon="0.17466">
        <ele>179</ele>
        <time>2024-03-20T17:02:16Z</time>
      </trkpt>
      <trkpt lat="49.06794" lon="0.17456">
        <ele>179</ele>
        <time>2024-03-20T17:02:17Z</time>
      </trkpt>
      <trkpt lat="49.068" lon="0.17447">
        <ele>179</ele>
        <time>2024-03-20T17:02:18Z</time>
      </trkpt>
      <trkpt lat="49.06805" lon="0.17438">
        <ele>179</ele>
        <time>2024-03-20T17:02:19Z</time>
      </trkpt>
      <trkpt lat="49.06811" lon="0.1743">
        <ele>178.8</ele>
        <time>2024-03-20T17:02:20Z</time>
      </trkpt>
      <trkpt lat="49.06817" lon="0.17421">
        <ele>178.8</ele>
        <time>2024-03-20T17:02:21Z</time>
      </trkpt>
      <trkpt lat="49.06823" lon="0.17413">
        <ele>178.6</ele>
        <time>2024-03-20T17:02:22Z</time>
      </trkpt>
      <trkpt lat="49.06829" lon="0.17404">
        <ele>178.6</ele>
        <time>2024-03-20T17:02:23Z</time>
      </trkpt>
      <trkpt lat="49.06835" lon="0.17396">
        <ele>178.6</ele>
        <time>2024-03-20T17:02:24Z</time>
      </trkpt>
      <trkpt lat="49.0684" lon="0.17387">
        <ele>178.6</ele>
        <time>2024-03-20T17:02:25Z</time>
      </trkpt>
      <trkpt lat="49.06846" lon="0.17379">
        <ele>178.6</ele>
        <time>2024-03-20T17:02:26Z</time>
      </trkpt>
      <trkpt lat="49.06852" lon="0.1737">
        <ele>178.6</ele>
        <time>2024-03-20T17:02:27Z</time>
      </trkpt>
      <trkpt lat="49.06858" lon="0.17362">
        <ele>178.6</ele>
        <time>2024-03-20T17:02:28Z</time>
      </trkpt>
      <trkpt lat="49.06863" lon="0.17353">
        <ele>178.6</ele>
        <time>2024-03-20T17:02:29Z</time>
      </trkpt>
      <trkpt lat="49.06869" lon="0.17344">
        <ele>178.6</ele>
        <time>2024-03-20T17:02:30Z</time>
      </trkpt>
      <trkpt lat="49.06874" lon="0.17335">
        <ele>178.6</ele>
        <time>2024-03-20T17:02:31Z</time>
      </trkpt>
      <trkpt lat="49.06879" lon="0.17326">
        <ele>178.6</ele>
        <time>2024-03-20T17:02:32Z</time>
      </trkpt>
      <trkpt lat="49.06884" lon="0.17316">
        <ele>178.8</ele>
        <time>2024-03-20T17:02:33Z</time>
      </trkpt>
      <trkpt lat="49.0689" lon="0.17307">
        <ele>178.8</ele>
        <time>2024-03-20T17:02:34Z</time>
      </trkpt>
      <trkpt lat="49.06894" lon="0.17298">
        <ele>178.8</ele>
        <time>2024-03-20T17:02:35Z</time>
      </trkpt>
      <trkpt lat="49.06899" lon="0.17288">
        <ele>179</ele>
        <time>2024-03-20T17:02:36Z</time>
      </trkpt>
      <trkpt lat="49.06904" lon="0.17278">
        <ele>179</ele>
        <time>2024-03-20T17:02:37Z</time>
      </trkpt>
      <trkpt lat="49.06908" lon="0.17268">
        <ele>179</ele>
        <time>2024-03-20T17:02:38Z</time>
      </trkpt>
      <trkpt lat="49.06913" lon="0.17258">
        <ele>179</ele>
        <time>2024-03-20T17:02:39Z</time>
      </trkpt>
      <trkpt lat="49.06917" lon="0.17248">
        <ele>179</ele>
        <time>2024-03-20T17:02:40Z</time>
      </trkpt>
      <trkpt lat="49.06922" lon="0.17238">
        <ele>179</ele>
        <time>2024-03-20T17:02:41Z</time>
      </trkpt>
      <trkpt lat="49.06926" lon="0.17228">
        <ele>179</ele>
        <time>2024-03-20T17:02:42Z</time>
      </trkpt>
      <trkpt lat="49.06931" lon="0.17217">
        <ele>179</ele>
        <time>2024-03-20T17:02:43Z</time>
      </trkpt>
      <trkpt lat="49.06935" lon="0.17207">
        <ele>179</ele>
        <time>2024-03-20T17:02:44Z</time>
      </trkpt>
      <trkpt lat="49.0694" lon="0.17196">
        <ele>179</ele>
        <time>2024-03-20T17:02:45Z</time>
      </trkpt>
      <trkpt lat="49.06945" lon="0.17185">
        <ele>179</ele>
        <time>2024-03-20T17:02:46Z</time>
      </trkpt>
      <trkpt lat="49.06949" lon="0.17175">
        <ele>179</ele>
        <time>2024-03-20T17:02:47Z</time>
      </trkpt>
      <trkpt lat="49.06954" lon="0.17164">
        <ele>179</ele>
        <time>2024-03-20T17:02:48Z</time>
      </trkpt>
      <trkpt lat="49.06958" lon="0.17153">
        <ele>179</ele>
        <time>2024-03-20T17:02:49Z</time>
      </trkpt>
      <trkpt lat="49.06963" lon="0.17142">
        <ele>179</ele>
        <time>2024-03-20T17:02:50Z</time>
      </trkpt>
      <trkpt lat="49.06967" lon="0.17132">
        <ele>179</ele>
        <time>2024-03-20T17:02:51Z</time>
      </trkpt>
      <trkpt lat="49.06972" lon="0.17121">
        <ele>179</ele>
        <time>2024-03-20T17:02:52Z</time>
      </trkpt>
      <trkpt lat="49.06977" lon="0.1711">
        <ele>179</ele>
        <time>2024-03-20T17:02:53Z</time>
      </trkpt>
      <trkpt lat="49.06981" lon="0.171">
        <ele>178.8</ele>
        <time>2024-03-20T17:02:54Z</time>
      </trkpt>
      <trkpt lat="49.06986" lon="0.17089">
        <ele>178.8</ele>
        <time>2024-03-20T17:02:55Z</time>
      </trkpt>
      <trkpt lat="49.06991" lon="0.17079">
        <ele>178.6</ele>
        <time>2024-03-20T17:02:56Z</time>
      </trkpt>
      <trkpt lat="49.06995" lon="0.17068">
        <ele>178.4</ele>
        <time>2024-03-20T17:02:57Z</time>
      </trkpt>
      <trkpt lat="49.07" lon="0.17057">
        <ele>178.4</ele>
        <time>2024-03-20T17:02:58Z</time>
      </trkpt>
      <trkpt lat="49.07004" lon="0.17046">
        <ele>178.4</ele>
        <time>2024-03-20T17:02:59Z</time>
      </trkpt>
      <trkpt lat="49.07009" lon="0.17035">
        <ele>178.2</ele>
        <time>2024-03-20T17:03:00Z</time>
      </trkpt>
      <trkpt lat="49.07014" lon="0.17024">
        <ele>178.2</ele>
        <time>2024-03-20T17:03:01Z</time>
      </trkpt>
      <trkpt lat="49.07018" lon="0.17013">
        <ele>178</ele>
        <time>2024-03-20T17:03:02Z</time>
      </trkpt>
      <trkpt lat="49.07023" lon="0.17002">
        <ele>178</ele>
        <time>2024-03-20T17:03:03Z</time>
      </trkpt>
      <trkpt lat="49.07028" lon="0.16992">
        <ele>178</ele>
        <time>2024-03-20T17:03:04Z</time>
      </trkpt>
      <trkpt lat="49.07032" lon="0.16981">
        <ele>177.8</ele>
        <time>2024-03-20T17:03:05Z</time>
      </trkpt>
      <trkpt lat="49.07037" lon="0.16971">
        <ele>177.8</ele>
        <time>2024-03-20T17:03:06Z</time>
      </trkpt>
      <trkpt lat="49.07041" lon="0.1696">
        <ele>177.6</ele>
        <time>2024-03-20T17:03:07Z</time>
      </trkpt>
      <trkpt lat="49.07045" lon="0.16949">
        <ele>177.6</ele>
        <time>2024-03-20T17:03:08Z</time>
      </trkpt>
      <trkpt lat="49.07049" lon="0.16937">
        <ele>177.4</ele>
        <time>2024-03-20T17:03:09Z</time>
      </trkpt>
      <trkpt lat="49.07053" lon="0.16926">
        <ele>177.4</ele>
        <time>2024-03-20T17:03:10Z</time>
      </trkpt>
      <trkpt lat="49.07056" lon="0.16914">
        <ele>177.2</ele>
        <time>2024-03-20T17:03:11Z</time>
      </trkpt>
      <trkpt lat="49.07059" lon="0.16901">
        <ele>177.2</ele>
        <time>2024-03-20T17:03:12Z</time>
      </trkpt>
      <trkpt lat="49.07062" lon="0.16888">
        <ele>177</ele>
        <time>2024-03-20T17:03:13Z</time>
      </trkpt>
      <trkpt lat="49.07064" lon="0.16875">
        <ele>176.8</ele>
        <time>2024-03-20T17:03:14Z</time>
      </trkpt>
      <trkpt lat="49.07066" lon="0.16863">
        <ele>176.8</ele>
        <time>2024-03-20T17:03:15Z</time>
      </trkpt>
      <trkpt lat="49.07069" lon="0.1685">
        <ele>176.6</ele>
        <time>2024-03-20T17:03:16Z</time>
      </trkpt>
      <trkpt lat="49.07071" lon="0.16837">
        <ele>176.6</ele>
        <time>2024-03-20T17:03:17Z</time>
      </trkpt>
      <trkpt lat="49.07074" lon="0.16824">
        <ele>176.4</ele>
        <time>2024-03-20T17:03:18Z</time>
      </trkpt>
      <trkpt lat="49.07076" lon="0.16811">
        <ele>176.4</ele>
        <time>2024-03-20T17:03:19Z</time>
      </trkpt>
      <trkpt lat="49.07079" lon="0.16799">
        <ele>176.4</ele>
        <time>2024-03-20T17:03:20Z</time>
      </trkpt>
      <trkpt lat="49.07081" lon="0.16786">
        <ele>176.2</ele>
        <time>2024-03-20T17:03:21Z</time>
      </trkpt>
      <trkpt lat="49.07084" lon="0.16773">
        <ele>176</ele>
        <time>2024-03-20T17:03:22Z</time>
      </trkpt>
      <trkpt lat="49.07087" lon="0.16761">
        <ele>176</ele>
        <time>2024-03-20T17:03:23Z</time>
      </trkpt>
      <trkpt lat="49.0709" lon="0.16748">
        <ele>175.6</ele>
        <time>2024-03-20T17:03:24Z</time>
      </trkpt>
      <trkpt lat="49.07094" lon="0.16736">
        <ele>175.4</ele>
        <time>2024-03-20T17:03:25Z</time>
      </trkpt>
      <trkpt lat="49.07098" lon="0.16724">
        <ele>175.4</ele>
        <time>2024-03-20T17:03:26Z</time>
      </trkpt>
      <trkpt lat="49.07101" lon="0.16712">
        <ele>175</ele>
        <time>2024-03-20T17:03:27Z</time>
      </trkpt>
      <trkpt lat="49.07105" lon="0.16701">
        <ele>174.8</ele>
        <time>2024-03-20T17:03:28Z</time>
      </trkpt>
      <trkpt lat="49.0711" lon="0.16689">
        <ele>174.8</ele>
        <time>2024-03-20T17:03:29Z</time>
      </trkpt>
      <trkpt lat="49.07114" lon="0.16678">
        <ele>174.6</ele>
        <time>2024-03-20T17:03:30Z</time>
      </trkpt>
      <trkpt lat="49.07119" lon="0.16667">
        <ele>174.4</ele>
        <time>2024-03-20T17:03:31Z</time>
      </trkpt>
      <trkpt lat="49.07124" lon="0.16657">
        <ele>174.2</ele>
        <time>2024-03-20T17:03:32Z</time>
      </trkpt>
      <trkpt lat="49.07129" lon="0.16647">
        <ele>173.8</ele>
        <time>2024-03-20T17:03:33Z</time>
      </trkpt>
      <trkpt lat="49.07135" lon="0.16638">
        <ele>173.8</ele>
        <time>2024-03-20T17:03:34Z</time>
      </trkpt>
      <trkpt lat="49.07141" lon="0.16629">
        <ele>173.6</ele>
        <time>2024-03-20T17:03:35Z</time>
      </trkpt>
      <trkpt lat="49.07148" lon="0.1662">
        <ele>173.6</ele>
        <time>2024-03-20T17:03:36Z</time>
      </trkpt>
      <trkpt lat="49.07155" lon="0.16612">
        <ele>173.4</ele>
        <time>2024-03-20T17:03:37Z</time>
      </trkpt>
      <trkpt lat="49.07161" lon="0.16605">
        <ele>173.4</ele>
        <time>2024-03-20T17:03:38Z</time>
      </trkpt>
      <trkpt lat="49.07168" lon="0.16598">
        <ele>173.4</ele>
        <time>2024-03-20T17:03:39Z</time>
      </trkpt>
      <trkpt lat="49.07175" lon="0.16591">
        <ele>173.4</ele>
        <time>2024-03-20T17:03:40Z</time>
      </trkpt>
      <trkpt lat="49.07182" lon="0.16585">
        <ele>173.4</ele>
        <time>2024-03-20T17:03:41Z</time>
      </trkpt>
      <trkpt lat="49.07189" lon="0.16579">
        <ele>173.4</ele>
        <time>2024-03-20T17:03:42Z</time>
      </trkpt>
      <trkpt lat="49.07197" lon="0.16574">
        <ele>173.4</ele>
        <time>2024-03-20T17:03:43Z</time>
      </trkpt>
      <trkpt lat="49.07204" lon="0.16569">
        <ele>173.2</ele>
        <time>2024-03-20T17:03:44Z</time>
      </trkpt>
      <trkpt lat="49.07212" lon="0.16564">
        <ele>173.2</ele>
        <time>2024-03-20T17:03:45Z</time>
      </trkpt>
      <trkpt lat="49.0722" lon="0.16559">
        <ele>173.2</ele>
        <time>2024-03-20T17:03:46Z</time>
      </trkpt>
      <trkpt lat="49.07228" lon="0.16554">
        <ele>173.2</ele>
        <time>2024-03-20T17:03:47Z</time>
      </trkpt>
      <trkpt lat="49.07236" lon="0.16549">
        <ele>173.4</ele>
        <time>2024-03-20T17:03:48Z</time>
      </trkpt>
      <trkpt lat="49.07243" lon="0.16544">
        <ele>173.4</ele>
        <time>2024-03-20T17:03:49Z</time>
      </trkpt>
      <trkpt lat="49.07251" lon="0.16539">
        <ele>173.4</ele>
        <time>2024-03-20T17:03:50Z</time>
      </trkpt>
      <trkpt lat="49.07259" lon="0.16534">
        <ele>173.4</ele>
        <time>2024-03-20T17:03:51Z</time>
      </trkpt>
      <trkpt lat="49.07267" lon="0.16528">
        <ele>173.4</ele>
        <time>2024-03-20T17:03:52Z</time>
      </trkpt>
      <trkpt lat="49.07274" lon="0.16522">
        <ele>173.4</ele>
        <time>2024-03-20T17:03:53Z</time>
      </trkpt>
      <trkpt lat="49.07282" lon="0.16515">
        <ele>173.4</ele>
        <time>2024-03-20T17:03:54Z</time>
      </trkpt>
      <trkpt lat="49.0729" lon="0.16509">
        <ele>173.4</ele>
        <time>2024-03-20T17:03:55Z</time>
      </trkpt>
      <trkpt lat="49.07298" lon="0.16502">
        <ele>173.2</ele>
        <time>2024-03-20T17:03:56Z</time>
      </trkpt>
      <trkpt lat="49.07304" lon="0.16494">
        <ele>173.2</ele>
        <time>2024-03-20T17:03:57Z</time>
      </trkpt>
      <trkpt lat="49.07311" lon="0.16486">
        <ele>173.2</ele>
        <time>2024-03-20T17:03:58Z</time>
      </trkpt>
      <trkpt lat="49.07318" lon="0.16478">
        <ele>173.2</ele>
        <time>2024-03-20T17:03:59Z</time>
      </trkpt>
      <trkpt lat="49.07324" lon="0.16469">
        <ele>173.2</ele>
        <time>2024-03-20T17:04:00Z</time>
      </trkpt>
      <trkpt lat="49.07331" lon="0.1646">
        <ele>173.2</ele>
        <time>2024-03-20T17:04:01Z</time>
      </trkpt>
      <trkpt lat="49.07337" lon="0.16451">
        <ele>173</ele>
        <time>2024-03-20T17:04:02Z</time>
      </trkpt>
      <trkpt lat="49.07344" lon="0.16442">
        <ele>172.6</ele>
        <time>2024-03-20T17:04:03Z</time>
      </trkpt>
      <trkpt lat="49.07351" lon="0.16434">
        <ele>172</ele>
        <time>2024-03-20T17:04:04Z</time>
      </trkpt>
      <trkpt lat="49.07357" lon="0.16425">
        <ele>171.8</ele>
        <time>2024-03-20T17:04:05Z</time>
      </trkpt>
      <trkpt lat="49.07364" lon="0.16416">
        <ele>171.4</ele>
        <time>2024-03-20T17:04:06Z</time>
      </trkpt>
      <trkpt lat="49.07371" lon="0.16408">
        <ele>171</ele>
        <time>2024-03-20T17:04:07Z</time>
      </trkpt>
      <trkpt lat="49.07379" lon="0.16401">
        <ele>170.8</ele>
        <time>2024-03-20T17:04:08Z</time>
      </trkpt>
      <trkpt lat="49.07386" lon="0.16393">
        <ele>170.6</ele>
        <time>2024-03-20T17:04:09Z</time>
      </trkpt>
      <trkpt lat="49.07393" lon="0.16386">
        <ele>170.4</ele>
        <time>2024-03-20T17:04:10Z</time>
      </trkpt>
      <trkpt lat="49.074" lon="0.16378">
        <ele>170.4</ele>
        <time>2024-03-20T17:04:11Z</time>
      </trkpt>
      <trkpt lat="49.07407" lon="0.16371">
        <ele>170.2</ele>
        <time>2024-03-20T17:04:12Z</time>
      </trkpt>
      <trkpt lat="49.07414" lon="0.16364">
        <ele>170.2</ele>
        <time>2024-03-20T17:04:13Z</time>
      </trkpt>
      <trkpt lat="49.07421" lon="0.16357">
        <ele>170.2</ele>
        <time>2024-03-20T17:04:14Z</time>
      </trkpt>
      <trkpt lat="49.07428" lon="0.16349">
        <ele>170</ele>
        <time>2024-03-20T17:04:15Z</time>
      </trkpt>
      <trkpt lat="49.07435" lon="0.16342">
        <ele>169.8</ele>
        <time>2024-03-20T17:04:16Z</time>
      </trkpt>
      <trkpt lat="49.07442" lon="0.16335">
        <ele>169.6</ele>
        <time>2024-03-20T17:04:17Z</time>
      </trkpt>
      <trkpt lat="49.07449" lon="0.16327">
        <ele>169.6</ele>
        <time>2024-03-20T17:04:18Z</time>
      </trkpt>
      <trkpt lat="49.07456" lon="0.16321">
        <ele>169.6</ele>
        <time>2024-03-20T17:04:19Z</time>
      </trkpt>
      <trkpt lat="49.07462" lon="0.16314">
        <ele>169.6</ele>
        <time>2024-03-20T17:04:20Z</time>
      </trkpt>
      <trkpt lat="49.07468" lon="0.16306">
        <ele>169.6</ele>
        <time>2024-03-20T17:04:21Z</time>
      </trkpt>
      <trkpt lat="49.07475" lon="0.16299">
        <ele>169.4</ele>
        <time>2024-03-20T17:04:22Z</time>
      </trkpt>
      <trkpt lat="49.07481" lon="0.16291">
        <ele>169.4</ele>
        <time>2024-03-20T17:04:23Z</time>
      </trkpt>
      <trkpt lat="49.07487" lon="0.16283">
        <ele>169.4</ele>
        <time>2024-03-20T17:04:24Z</time>
      </trkpt>
      <trkpt lat="49.07494" lon="0.16274">
        <ele>169.4</ele>
        <time>2024-03-20T17:04:25Z</time>
      </trkpt>
      <trkpt lat="49.075" lon="0.16265">
        <ele>169.2</ele>
        <time>2024-03-20T17:04:26Z</time>
      </trkpt>
      <trkpt lat="49.07506" lon="0.16257">
        <ele>169.2</ele>
        <time>2024-03-20T17:04:27Z</time>
      </trkpt>
      <trkpt lat="49.07513" lon="0.16248">
        <ele>169.2</ele>
        <time>2024-03-20T17:04:28Z</time>
      </trkpt>
      <trkpt lat="49.07519" lon="0.1624">
        <ele>169</ele>
        <time>2024-03-20T17:04:29Z</time>
      </trkpt>
      <trkpt lat="49.07525" lon="0.16232">
        <ele>169</ele>
        <time>2024-03-20T17:04:30Z</time>
      </trkpt>
      <trkpt lat="49.07531" lon="0.16224">
        <ele>169</ele>
        <time>2024-03-20T17:04:31Z</time>
      </trkpt>
      <trkpt lat="49.07537" lon="0.16215">
        <ele>169</ele>
        <time>2024-03-20T17:04:32Z</time>
      </trkpt>
      <trkpt lat="49.07543" lon="0.16207">
        <ele>169</ele>
        <time>2024-03-20T17:04:33Z</time>
      </trkpt>
      <trkpt lat="49.0755" lon="0.16199">
        <ele>169</ele>
        <time>2024-03-20T17:04:34Z</time>
      </trkpt>
      <trkpt lat="49.07556" lon="0.16191">
        <ele>169</ele>
        <time>2024-03-20T17:04:35Z</time>
      </trkpt>
      <trkpt lat="49.07563" lon="0.16183">
        <ele>169</ele>
        <time>2024-03-20T17:04:36Z</time>
      </trkpt>
      <trkpt lat="49.07569" lon="0.16176">
        <ele>169</ele>
        <time>2024-03-20T17:04:37Z</time>
      </trkpt>
      <trkpt lat="49.07576" lon="0.16169">
        <ele>169</ele>
        <time>2024-03-20T17:04:38Z</time>
      </trkpt>
      <trkpt lat="49.07582" lon="0.16162">
        <ele>169</ele>
        <time>2024-03-20T17:04:39Z</time>
      </trkpt>
      <trkpt lat="49.07589" lon="0.16155">
        <ele>169</ele>
        <time>2024-03-20T17:04:40Z</time>
      </trkpt>
      <trkpt lat="49.07596" lon="0.16148">
        <ele>169</ele>
        <time>2024-03-20T17:04:41Z</time>
      </trkpt>
      <trkpt lat="49.07603" lon="0.16141">
        <ele>169</ele>
        <time>2024-03-20T17:04:42Z</time>
      </trkpt>
      <trkpt lat="49.0761" lon="0.16134">
        <ele>169</ele>
        <time>2024-03-20T17:04:43Z</time>
      </trkpt>
      <trkpt lat="49.07616" lon="0.16127">
        <ele>168.8</ele>
        <time>2024-03-20T17:04:44Z</time>
      </trkpt>
      <trkpt lat="49.07622" lon="0.16119">
        <ele>168.8</ele>
        <time>2024-03-20T17:04:45Z</time>
      </trkpt>
      <trkpt lat="49.07629" lon="0.16112">
        <ele>168.8</ele>
        <time>2024-03-20T17:04:46Z</time>
      </trkpt>
      <trkpt lat="49.07635" lon="0.16103">
        <ele>168.8</ele>
        <time>2024-03-20T17:04:47Z</time>
      </trkpt>
      <trkpt lat="49.0764" lon="0.16095">
        <ele>168.8</ele>
        <time>2024-03-20T17:04:48Z</time>
      </trkpt>
      <trkpt lat="49.07646" lon="0.16087">
        <ele>168.8</ele>
        <time>2024-03-20T17:04:49Z</time>
      </trkpt>
      <trkpt lat="49.07652" lon="0.16079">
        <ele>168.8</ele>
        <time>2024-03-20T17:04:50Z</time>
      </trkpt>
      <trkpt lat="49.07658" lon="0.1607">
        <ele>168.8</ele>
        <time>2024-03-20T17:04:51Z</time>
      </trkpt>
      <trkpt lat="49.07664" lon="0.16062">
        <ele>168.8</ele>
        <time>2024-03-20T17:04:52Z</time>
      </trkpt>
      <trkpt lat="49.07668" lon="0.16053">
        <ele>169</ele>
        <time>2024-03-20T17:04:53Z</time>
      </trkpt>
      <trkpt lat="49.07674" lon="0.16044">
        <ele>169</ele>
        <time>2024-03-20T17:04:54Z</time>
      </trkpt>
      <trkpt lat="49.07679" lon="0.16036">
        <ele>169</ele>
        <time>2024-03-20T17:04:55Z</time>
      </trkpt>
      <trkpt lat="49.07685" lon="0.16028">
        <ele>169</ele>
        <time>2024-03-20T17:04:56Z</time>
      </trkpt>
      <trkpt lat="49.0769" lon="0.1602">
        <ele>169.2</ele>
        <time>2024-03-20T17:04:57Z</time>
      </trkpt>
      <trkpt lat="49.07696" lon="0.16011">
        <ele>169.2</ele>
        <time>2024-03-20T17:04:58Z</time>
      </trkpt>
      <trkpt lat="49.07701" lon="0.16003">
        <ele>169.2</ele>
        <time>2024-03-20T17:04:59Z</time>
      </trkpt>
      <trkpt lat="49.07707" lon="0.15994">
        <ele>169.2</ele>
        <time>2024-03-20T17:05:00Z</time>
      </trkpt>
      <trkpt lat="49.07712" lon="0.15985">
        <ele>169.4</ele>
        <time>2024-03-20T17:05:01Z</time>
      </trkpt>
      <trkpt lat="49.07718" lon="0.15976">
        <ele>169.4</ele>
        <time>2024-03-20T17:05:02Z</time>
      </trkpt>
      <trkpt lat="49.07723" lon="0.15968">
        <ele>169.4</ele>
        <time>2024-03-20T17:05:03Z</time>
      </trkpt>
      <trkpt lat="49.07728" lon="0.15959">
        <ele>169.6</ele>
        <time>2024-03-20T17:05:04Z</time>
      </trkpt>
      <trkpt lat="49.07733" lon="0.1595">
        <ele>169.8</ele>
        <time>2024-03-20T17:05:05Z</time>
      </trkpt>
      <trkpt lat="49.07739" lon="0.15942">
        <ele>169.8</ele>
        <time>2024-03-20T17:05:06Z</time>
      </trkpt>
      <trkpt lat="49.07744" lon="0.15933">
        <ele>170</ele>
        <time>2024-03-20T17:05:07Z</time>
      </trkpt>
      <trkpt lat="49.07749" lon="0.15924">
        <ele>170.2</ele>
        <time>2024-03-20T17:05:08Z</time>
      </trkpt>
      <trkpt lat="49.07754" lon="0.15915">
        <ele>170.4</ele>
        <time>2024-03-20T17:05:09Z</time>
      </trkpt>
      <trkpt lat="49.0776" lon="0.15907">
        <ele>170.4</ele>
        <time>2024-03-20T17:05:10Z</time>
      </trkpt>
      <trkpt lat="49.07765" lon="0.15898">
        <ele>170.4</ele>
        <time>2024-03-20T17:05:11Z</time>
      </trkpt>
      <trkpt lat="49.0777" lon="0.15889">
        <ele>170.6</ele>
        <time>2024-03-20T17:05:12Z</time>
      </trkpt>
      <trkpt lat="49.07775" lon="0.1588">
        <ele>170.6</ele>
        <time>2024-03-20T17:05:13Z</time>
      </trkpt>
      <trkpt lat="49.07781" lon="0.15871">
        <ele>170.8</ele>
        <time>2024-03-20T17:05:14Z</time>
      </trkpt>
      <trkpt lat="49.07786" lon="0.15862">
        <ele>171</ele>
        <time>2024-03-20T17:05:15Z</time>
      </trkpt>
      <trkpt lat="49.07791" lon="0.15853">
        <ele>171.2</ele>
        <time>2024-03-20T17:05:16Z</time>
      </trkpt>
      <trkpt lat="49.07796" lon="0.15843">
        <ele>171.2</ele>
        <time>2024-03-20T17:05:17Z</time>
      </trkpt>
      <trkpt lat="49.07801" lon="0.15833">
        <ele>171.4</ele>
        <time>2024-03-20T17:05:18Z</time>
      </trkpt>
      <trkpt lat="49.07807" lon="0.15823">
        <ele>171.4</ele>
        <time>2024-03-20T17:05:19Z</time>
      </trkpt>
      <trkpt lat="49.07812" lon="0.15814">
        <ele>171.4</ele>
        <time>2024-03-20T17:05:20Z</time>
      </trkpt>
      <trkpt lat="49.07817" lon="0.15804">
        <ele>171.4</ele>
        <time>2024-03-20T17:05:21Z</time>
      </trkpt>
      <trkpt lat="49.07822" lon="0.15794">
        <ele>171.4</ele>
        <time>2024-03-20T17:05:22Z</time>
      </trkpt>
      <trkpt lat="49.07827" lon="0.15784">
        <ele>171.4</ele>
        <time>2024-03-20T17:05:23Z</time>
      </trkpt>
      <trkpt lat="49.07832" lon="0.15774">
        <ele>171.4</ele>
        <time>2024-03-20T17:05:24Z</time>
      </trkpt>
      <trkpt lat="49.07836" lon="0.15764">
        <ele>171.4</ele>
        <time>2024-03-20T17:05:25Z</time>
      </trkpt>
      <trkpt lat="49.07841" lon="0.15755">
        <ele>171.4</ele>
        <time>2024-03-20T17:05:26Z</time>
      </trkpt>
      <trkpt lat="49.07846" lon="0.15745">
        <ele>171.4</ele>
        <time>2024-03-20T17:05:27Z</time>
      </trkpt>
      <trkpt lat="49.07851" lon="0.15735">
        <ele>171.4</ele>
        <time>2024-03-20T17:05:28Z</time>
      </trkpt>
      <trkpt lat="49.07856" lon="0.15725">
        <ele>171.4</ele>
        <time>2024-03-20T17:05:29Z</time>
      </trkpt>
      <trkpt lat="49.07861" lon="0.15715">
        <ele>171.4</ele>
        <time>2024-03-20T17:05:30Z</time>
      </trkpt>
      <trkpt lat="49.07866" lon="0.15705">
        <ele>171.4</ele>
        <time>2024-03-20T17:05:31Z</time>
      </trkpt>
      <trkpt lat="49.07871" lon="0.15696">
        <ele>171.2</ele>
        <time>2024-03-20T17:05:32Z</time>
      </trkpt>
      <trkpt lat="49.07875" lon="0.15686">
        <ele>171</ele>
        <time>2024-03-20T17:05:33Z</time>
      </trkpt>
      <trkpt lat="49.07881" lon="0.15676">
        <ele>170.8</ele>
        <time>2024-03-20T17:05:34Z</time>
      </trkpt>
      <trkpt lat="49.07886" lon="0.15666">
        <ele>170.4</ele>
        <time>2024-03-20T17:05:35Z</time>
      </trkpt>
      <trkpt lat="49.0789" lon="0.15656">
        <ele>170.4</ele>
        <time>2024-03-20T17:05:36Z</time>
      </trkpt>
      <trkpt lat="49.07895" lon="0.15646">
        <ele>170.2</ele>
        <time>2024-03-20T17:05:37Z</time>
      </trkpt>
      <trkpt lat="49.07901" lon="0.15637">
        <ele>170</ele>
        <time>2024-03-20T17:05:38Z</time>
      </trkpt>
      <trkpt lat="49.07906" lon="0.15628">
        <ele>169.8</ele>
        <time>2024-03-20T17:05:39Z</time>
      </trkpt>
      <trkpt lat="49.07911" lon="0.15618">
        <ele>169.8</ele>
        <time>2024-03-20T17:05:40Z</time>
      </trkpt>
      <trkpt lat="49.07916" lon="0.15609">
        <ele>169.6</ele>
        <time>2024-03-20T17:05:41Z</time>
      </trkpt>
      <trkpt lat="49.07921" lon="0.156">
        <ele>169.6</ele>
        <time>2024-03-20T17:05:42Z</time>
      </trkpt>
      <trkpt lat="49.07926" lon="0.15591">
        <ele>169.4</ele>
        <time>2024-03-20T17:05:43Z</time>
      </trkpt>
      <trkpt lat="49.07931" lon="0.15582">
        <ele>169.4</ele>
        <time>2024-03-20T17:05:44Z</time>
      </trkpt>
      <trkpt lat="49.07936" lon="0.15573">
        <ele>169.2</ele>
        <time>2024-03-20T17:05:45Z</time>
      </trkpt>
      <trkpt lat="49.07941" lon="0.15564">
        <ele>169.2</ele>
        <time>2024-03-20T17:05:46Z</time>
      </trkpt>
      <trkpt lat="49.07946" lon="0.15555">
        <ele>169.2</ele>
        <time>2024-03-20T17:05:47Z</time>
      </trkpt>
      <trkpt lat="49.07951" lon="0.15546">
        <ele>169</ele>
        <time>2024-03-20T17:05:48Z</time>
      </trkpt>
      <trkpt lat="49.07957" lon="0.15537">
        <ele>169</ele>
        <time>2024-03-20T17:05:49Z</time>
      </trkpt>
      <trkpt lat="49.07962" lon="0.15529">
        <ele>169</ele>
        <time>2024-03-20T17:05:50Z</time>
      </trkpt>
      <trkpt lat="49.07967" lon="0.1552">
        <ele>169</ele>
        <time>2024-03-20T17:05:51Z</time>
      </trkpt>
      <trkpt lat="49.07972" lon="0.1551">
        <ele>169</ele>
        <time>2024-03-20T17:05:52Z</time>
      </trkpt>
      <trkpt lat="49.07977" lon="0.15501">
        <ele>169</ele>
        <time>2024-03-20T17:05:53Z</time>
      </trkpt>
      <trkpt lat="49.07982" lon="0.15493">
        <ele>169</ele>
        <time>2024-03-20T17:05:54Z</time>
      </trkpt>
      <trkpt lat="49.07987" lon="0.15484">
        <ele>169</ele>
        <time>2024-03-20T17:05:55Z</time>
      </trkpt>
      <trkpt lat="49.07992" lon="0.15474">
        <ele>168.8</ele>
        <time>2024-03-20T17:05:56Z</time>
      </trkpt>
      <trkpt lat="49.07997" lon="0.15465">
        <ele>168.8</ele>
        <time>2024-03-20T17:05:57Z</time>
      </trkpt>
      <trkpt lat="49.08003" lon="0.15455">
        <ele>168.8</ele>
        <time>2024-03-20T17:05:58Z</time>
      </trkpt>
      <trkpt lat="49.08008" lon="0.15446">
        <ele>168.8</ele>
        <time>2024-03-20T17:05:59Z</time>
      </trkpt>
      <trkpt lat="49.08014" lon="0.15437">
        <ele>168.8</ele>
        <time>2024-03-20T17:06:00Z</time>
      </trkpt>
      <trkpt lat="49.08019" lon="0.15427">
        <ele>168.8</ele>
        <time>2024-03-20T17:06:01Z</time>
      </trkpt>
      <trkpt lat="49.08025" lon="0.15418">
        <ele>168.8</ele>
        <time>2024-03-20T17:06:02Z</time>
      </trkpt>
      <trkpt lat="49.08031" lon="0.15409">
        <ele>168.6</ele>
        <time>2024-03-20T17:06:03Z</time>
      </trkpt>
      <trkpt lat="49.08037" lon="0.15401">
        <ele>168.6</ele>
        <time>2024-03-20T17:06:04Z</time>
      </trkpt>
      <trkpt lat="49.08044" lon="0.15393">
        <ele>168.6</ele>
        <time>2024-03-20T17:06:05Z</time>
      </trkpt>
      <trkpt lat="49.0805" lon="0.15385">
        <ele>168.6</ele>
        <time>2024-03-20T17:06:06Z</time>
      </trkpt>
      <trkpt lat="49.08057" lon="0.15377">
        <ele>168.4</ele>
        <time>2024-03-20T17:06:07Z</time>
      </trkpt>
      <trkpt lat="49.08063" lon="0.15369">
        <ele>168.4</ele>
        <time>2024-03-20T17:06:08Z</time>
      </trkpt>
      <trkpt lat="49.08069" lon="0.15362">
        <ele>168.4</ele>
        <time>2024-03-20T17:06:09Z</time>
      </trkpt>
      <trkpt lat="49.08076" lon="0.15354">
        <ele>168.4</ele>
        <time>2024-03-20T17:06:10Z</time>
      </trkpt>
      <trkpt lat="49.08082" lon="0.15347">
        <ele>168.4</ele>
        <time>2024-03-20T17:06:11Z</time>
      </trkpt>
      <trkpt lat="49.08089" lon="0.1534">
        <ele>168.4</ele>
        <time>2024-03-20T17:06:12Z</time>
      </trkpt>
      <trkpt lat="49.08095" lon="0.15333">
        <ele>168.4</ele>
        <time>2024-03-20T17:06:13Z</time>
      </trkpt>
      <trkpt lat="49.08102" lon="0.15326">
        <ele>168.4</ele>
        <time>2024-03-20T17:06:14Z</time>
      </trkpt>
      <trkpt lat="49.08109" lon="0.15319">
        <ele>168.4</ele>
        <time>2024-03-20T17:06:15Z</time>
      </trkpt>
      <trkpt lat="49.08116" lon="0.15314">
        <ele>168.4</ele>
        <time>2024-03-20T17:06:16Z</time>
      </trkpt>
      <trkpt lat="49.08123" lon="0.15308">
        <ele>168.4</ele>
        <time>2024-03-20T17:06:17Z</time>
      </trkpt>
      <trkpt lat="49.0813" lon="0.15303">
        <ele>168.4</ele>
        <time>2024-03-20T17:06:18Z</time>
      </trkpt>
      <trkpt lat="49.08137" lon="0.15298">
        <ele>168.4</ele>
        <time>2024-03-20T17:06:19Z</time>
      </trkpt>
      <trkpt lat="49.08144" lon="0.15293">
        <ele>168.4</ele>
        <time>2024-03-20T17:06:20Z</time>
      </trkpt>
      <trkpt lat="49.08152" lon="0.15288">
        <ele>168.4</ele>
        <time>2024-03-20T17:06:21Z</time>
      </trkpt>
      <trkpt lat="49.08159" lon="0.15283">
        <ele>168.4</ele>
        <time>2024-03-20T17:06:22Z</time>
      </trkpt>
      <trkpt lat="49.08167" lon="0.15279">
        <ele>168.4</ele>
        <time>2024-03-20T17:06:23Z</time>
      </trkpt>
      <trkpt lat="49.08175" lon="0.15274">
        <ele>168.4</ele>
        <time>2024-03-20T17:06:24Z</time>
      </trkpt>
      <trkpt lat="49.08183" lon="0.15269">
        <ele>168.4</ele>
        <time>2024-03-20T17:06:25Z</time>
      </trkpt>
      <trkpt lat="49.08191" lon="0.15264">
        <ele>168.4</ele>
        <time>2024-03-20T17:06:26Z</time>
      </trkpt>
      <trkpt lat="49.08199" lon="0.15259">
        <ele>168.4</ele>
        <time>2024-03-20T17:06:27Z</time>
      </trkpt>
      <trkpt lat="49.08208" lon="0.15254">
        <ele>168.2</ele>
        <time>2024-03-20T17:06:28Z</time>
      </trkpt>
      <trkpt lat="49.08216" lon="0.1525">
        <ele>168.2</ele>
        <time>2024-03-20T17:06:29Z</time>
      </trkpt>
      <trkpt lat="49.08224" lon="0.15245">
        <ele>168</ele>
        <time>2024-03-20T17:06:30Z</time>
      </trkpt>
      <trkpt lat="49.08231" lon="0.15241">
        <ele>167.8</ele>
        <time>2024-03-20T17:06:31Z</time>
      </trkpt>
      <trkpt lat="49.08239" lon="0.15236">
        <ele>167.2</ele>
        <time>2024-03-20T17:06:32Z</time>
      </trkpt>
      <trkpt lat="49.08246" lon="0.15232">
        <ele>166.8</ele>
        <time>2024-03-20T17:06:33Z</time>
      </trkpt>
      <trkpt lat="49.08254" lon="0.15227">
        <ele>166.4</ele>
        <time>2024-03-20T17:06:34Z</time>
      </trkpt>
      <trkpt lat="49.08261" lon="0.15223">
        <ele>166</ele>
        <time>2024-03-20T17:06:35Z</time>
      </trkpt>
      <trkpt lat="49.08268" lon="0.15218">
        <ele>165.8</ele>
        <time>2024-03-20T17:06:36Z</time>
      </trkpt>
      <trkpt lat="49.08275" lon="0.15214">
        <ele>165.8</ele>
        <time>2024-03-20T17:06:37Z</time>
      </trkpt>
      <trkpt lat="49.08282" lon="0.15209">
        <ele>165.8</ele>
        <time>2024-03-20T17:06:38Z</time>
      </trkpt>
      <trkpt lat="49.0829" lon="0.15205">
        <ele>165.6</ele>
        <time>2024-03-20T17:06:39Z</time>
      </trkpt>
      <trkpt lat="49.08297" lon="0.15201">
        <ele>165.6</ele>
        <time>2024-03-20T17:06:40Z</time>
      </trkpt>
      <trkpt lat="49.08304" lon="0.15197">
        <ele>165.6</ele>
        <time>2024-03-20T17:06:41Z</time>
      </trkpt>
      <trkpt lat="49.08311" lon="0.15193">
        <ele>165.6</ele>
        <time>2024-03-20T17:06:42Z</time>
      </trkpt>
      <trkpt lat="49.08318" lon="0.15189">
        <ele>165.6</ele>
        <time>2024-03-20T17:06:43Z</time>
      </trkpt>
      <trkpt lat="49.08325" lon="0.15185">
        <ele>165.6</ele>
        <time>2024-03-20T17:06:44Z</time>
      </trkpt>
      <trkpt lat="49.08333" lon="0.15182">
        <ele>165.6</ele>
        <time>2024-03-20T17:06:45Z</time>
      </trkpt>
      <trkpt lat="49.0834" lon="0.15178">
        <ele>165.6</ele>
        <time>2024-03-20T17:06:46Z</time>
      </trkpt>
      <trkpt lat="49.08347" lon="0.15175">
        <ele>165.6</ele>
        <time>2024-03-20T17:06:47Z</time>
      </trkpt>
      <trkpt lat="49.08355" lon="0.15171">
        <ele>165.6</ele>
        <time>2024-03-20T17:06:48Z</time>
      </trkpt>
      <trkpt lat="49.08362" lon="0.15167">
        <ele>165.6</ele>
        <time>2024-03-20T17:06:49Z</time>
      </trkpt>
      <trkpt lat="49.08369" lon="0.15164">
        <ele>165.6</ele>
        <time>2024-03-20T17:06:50Z</time>
      </trkpt>
      <trkpt lat="49.08376" lon="0.1516">
        <ele>165.6</ele>
        <time>2024-03-20T17:06:51Z</time>
      </trkpt>
      <trkpt lat="49.08383" lon="0.15157">
        <ele>165.6</ele>
        <time>2024-03-20T17:06:52Z</time>
      </trkpt>
      <trkpt lat="49.08391" lon="0.15154">
        <ele>165.6</ele>
        <time>2024-03-20T17:06:53Z</time>
      </trkpt>
      <trkpt lat="49.08399" lon="0.1515">
        <ele>165.6</ele>
        <time>2024-03-20T17:06:54Z</time>
      </trkpt>
      <trkpt lat="49.08406" lon="0.15147">
        <ele>165.6</ele>
        <time>2024-03-20T17:06:55Z</time>
      </trkpt>
      <trkpt lat="49.08413" lon="0.15143">
        <ele>165.6</ele>
        <time>2024-03-20T17:06:56Z</time>
      </trkpt>
      <trkpt lat="49.08421" lon="0.15139">
        <ele>165.4</ele>
        <time>2024-03-20T17:06:57Z</time>
      </trkpt>
      <trkpt lat="49.08428" lon="0.15136">
        <ele>165.4</ele>
        <time>2024-03-20T17:06:58Z</time>
      </trkpt>
      <trkpt lat="49.08435" lon="0.15133">
        <ele>165.2</ele>
        <time>2024-03-20T17:06:59Z</time>
      </trkpt>
      <trkpt lat="49.08443" lon="0.1513">
        <ele>165.2</ele>
        <time>2024-03-20T17:07:00Z</time>
      </trkpt>
      <trkpt lat="49.0845" lon="0.15126">
        <ele>165</ele>
        <time>2024-03-20T17:07:01Z</time>
      </trkpt>
      <trkpt lat="49.08458" lon="0.15123">
        <ele>165</ele>
        <time>2024-03-20T17:07:02Z</time>
      </trkpt>
      <trkpt lat="49.08465" lon="0.1512">
        <ele>165</ele>
        <time>2024-03-20T17:07:03Z</time>
      </trkpt>
      <trkpt lat="49.08472" lon="0.15117">
        <ele>164.8</ele>
        <time>2024-03-20T17:07:04Z</time>
      </trkpt>
      <trkpt lat="49.0848" lon="0.15113">
        <ele>164.8</ele>
        <time>2024-03-20T17:07:05Z</time>
      </trkpt>
      <trkpt lat="49.08487" lon="0.1511">
        <ele>164.8</ele>
        <time>2024-03-20T17:07:06Z</time>
      </trkpt>
      <trkpt lat="49.08496" lon="0.15106">
        <ele>164.8</ele>
        <time>2024-03-20T17:07:07Z</time>
      </trkpt>
      <trkpt lat="49.08502" lon="0.15104">
        <ele>164.8</ele>
        <time>2024-03-20T17:07:08Z</time>
      </trkpt>
      <trkpt lat="49.0851" lon="0.15101">
        <ele>164.8</ele>
        <time>2024-03-20T17:07:09Z</time>
      </trkpt>
      <trkpt lat="49.08517" lon="0.15097">
        <ele>164.8</ele>
        <time>2024-03-20T17:07:10Z</time>
      </trkpt>
      <trkpt lat="49.08524" lon="0.15094">
        <ele>164.8</ele>
        <time>2024-03-20T17:07:11Z</time>
      </trkpt>
      <trkpt lat="49.08531" lon="0.1509">
        <ele>164.8</ele>
        <time>2024-03-20T17:07:12Z</time>
      </trkpt>
      <trkpt lat="49.08539" lon="0.15087">
        <ele>164.8</ele>
        <time>2024-03-20T17:07:13Z</time>
      </trkpt>
      <trkpt lat="49.08546" lon="0.15083">
        <ele>164.6</ele>
        <time>2024-03-20T17:07:14Z</time>
      </trkpt>
      <trkpt lat="49.08553" lon="0.15079">
        <ele>164.6</ele>
        <time>2024-03-20T17:07:15Z</time>
      </trkpt>
      <trkpt lat="49.0856" lon="0.15074">
        <ele>164.6</ele>
        <time>2024-03-20T17:07:16Z</time>
      </trkpt>
      <trkpt lat="49.08567" lon="0.15069">
        <ele>164.4</ele>
        <time>2024-03-20T17:07:17Z</time>
      </trkpt>
      <trkpt lat="49.08573" lon="0.15064">
        <ele>164.4</ele>
        <time>2024-03-20T17:07:18Z</time>
      </trkpt>
      <trkpt lat="49.0858" lon="0.15059">
        <ele>164.4</ele>
        <time>2024-03-20T17:07:19Z</time>
      </trkpt>
      <trkpt lat="49.08587" lon="0.15053">
        <ele>164.4</ele>
        <time>2024-03-20T17:07:20Z</time>
      </trkpt>
      <trkpt lat="49.08593" lon="0.15048">
        <ele>164.4</ele>
        <time>2024-03-20T17:07:21Z</time>
      </trkpt>
      <trkpt lat="49.08599" lon="0.15042">
        <ele>164.4</ele>
        <time>2024-03-20T17:07:22Z</time>
      </trkpt>
      <trkpt lat="49.08606" lon="0.15037">
        <ele>164.4</ele>
        <time>2024-03-20T17:07:23Z</time>
      </trkpt>
      <trkpt lat="49.08612" lon="0.15031">
        <ele>164.4</ele>
        <time>2024-03-20T17:07:24Z</time>
      </trkpt>
      <trkpt lat="49.08618" lon="0.15026">
        <ele>164.4</ele>
        <time>2024-03-20T17:07:25Z</time>
      </trkpt>
      <trkpt lat="49.08624" lon="0.15021">
        <ele>164.4</ele>
        <time>2024-03-20T17:07:26Z</time>
      </trkpt>
      <trkpt lat="49.0863" lon="0.15015">
        <ele>164.4</ele>
        <time>2024-03-20T17:07:27Z</time>
      </trkpt>
      <trkpt lat="49.08635" lon="0.1501">
        <ele>164.4</ele>
        <time>2024-03-20T17:07:28Z</time>
      </trkpt>
      <trkpt lat="49.08641" lon="0.15005">
        <ele>164.6</ele>
        <time>2024-03-20T17:07:29Z</time>
      </trkpt>
      <trkpt lat="49.08647" lon="0.15">
        <ele>164.6</ele>
        <time>2024-03-20T17:07:30Z</time>
      </trkpt>
      <trkpt lat="49.08653" lon="0.14995">
        <ele>164.6</ele>
        <time>2024-03-20T17:07:31Z</time>
      </trkpt>
      <trkpt lat="49.08659" lon="0.1499">
        <ele>165</ele>
        <time>2024-03-20T17:07:32Z</time>
      </trkpt>
      <trkpt lat="49.08665" lon="0.14984">
        <ele>165</ele>
        <time>2024-03-20T17:07:33Z</time>
      </trkpt>
      <trkpt lat="49.08671" lon="0.14979">
        <ele>165.2</ele>
        <time>2024-03-20T17:07:34Z</time>
      </trkpt>
      <trkpt lat="49.08677" lon="0.14974">
        <ele>165.2</ele>
        <time>2024-03-20T17:07:35Z</time>
      </trkpt>
      <trkpt lat="49.08683" lon="0.14969">
        <ele>165.6</ele>
        <time>2024-03-20T17:07:36Z</time>
      </trkpt>
      <trkpt lat="49.08689" lon="0.14964">
        <ele>165.8</ele>
        <time>2024-03-20T17:07:37Z</time>
      </trkpt>
      <trkpt lat="49.08695" lon="0.14958">
        <ele>166</ele>
        <time>2024-03-20T17:07:38Z</time>
      </trkpt>
      <trkpt lat="49.08701" lon="0.14953">
        <ele>166.4</ele>
        <time>2024-03-20T17:07:39Z</time>
      </trkpt>
      <trkpt lat="49.08707" lon="0.14948">
        <ele>166.6</ele>
        <time>2024-03-20T17:07:40Z</time>
      </trkpt>
      <trkpt lat="49.08713" lon="0.14943">
        <ele>166.8</ele>
        <time>2024-03-20T17:07:41Z</time>
      </trkpt>
      <trkpt lat="49.08719" lon="0.14938">
        <ele>167</ele>
        <time>2024-03-20T17:07:42Z</time>
      </trkpt>
      <trkpt lat="49.08725" lon="0.14933">
        <ele>167.2</ele>
        <time>2024-03-20T17:07:43Z</time>
      </trkpt>
      <trkpt lat="49.08731" lon="0.14927">
        <ele>167.4</ele>
        <time>2024-03-20T17:07:44Z</time>
      </trkpt>
      <trkpt lat="49.08737" lon="0.14922">
        <ele>168</ele>
        <time>2024-03-20T17:07:45Z</time>
      </trkpt>
      <trkpt lat="49.08743" lon="0.14917">
        <ele>168.4</ele>
        <time>2024-03-20T17:07:46Z</time>
      </trkpt>
      <trkpt lat="49.0875" lon="0.14912">
        <ele>168.8</ele>
        <time>2024-03-20T17:07:47Z</time>
      </trkpt>
      <trkpt lat="49.08756" lon="0.14907">
        <ele>168.8</ele>
        <time>2024-03-20T17:07:48Z</time>
      </trkpt>
      <trkpt lat="49.08763" lon="0.14903">
        <ele>169</ele>
        <time>2024-03-20T17:07:49Z</time>
      </trkpt>
      <trkpt lat="49.08769" lon="0.14898">
        <ele>169.2</ele>
        <time>2024-03-20T17:07:50Z</time>
      </trkpt>
      <trkpt lat="49.08775" lon="0.14894">
        <ele>169.2</ele>
        <time>2024-03-20T17:07:51Z</time>
      </trkpt>
      <trkpt lat="49.08781" lon="0.14889">
        <ele>169.2</ele>
        <time>2024-03-20T17:07:52Z</time>
      </trkpt>
      <trkpt lat="49.08788" lon="0.14885">
        <ele>169.4</ele>
        <time>2024-03-20T17:07:53Z</time>
      </trkpt>
      <trkpt lat="49.08795" lon="0.14881">
        <ele>169.4</ele>
        <time>2024-03-20T17:07:54Z</time>
      </trkpt>
      <trkpt lat="49.08801" lon="0.14876">
        <ele>169.6</ele>
        <time>2024-03-20T17:07:55Z</time>
      </trkpt>
      <trkpt lat="49.08808" lon="0.14872">
        <ele>169.8</ele>
        <time>2024-03-20T17:07:56Z</time>
      </trkpt>
      <trkpt lat="49.08814" lon="0.14868">
        <ele>170</ele>
        <time>2024-03-20T17:07:57Z</time>
      </trkpt>
      <trkpt lat="49.08821" lon="0.14864">
        <ele>170</ele>
        <time>2024-03-20T17:07:58Z</time>
      </trkpt>
      <trkpt lat="49.08827" lon="0.14859">
        <ele>170</ele>
        <time>2024-03-20T17:07:59Z</time>
      </trkpt>
      <trkpt lat="49.08834" lon="0.14855">
        <ele>170.2</ele>
        <time>2024-03-20T17:08:00Z</time>
      </trkpt>
      <trkpt lat="49.0884" lon="0.14851">
        <ele>170.2</ele>
        <time>2024-03-20T17:08:01Z</time>
      </trkpt>
      <trkpt lat="49.08847" lon="0.14846">
        <ele>170.2</ele>
        <time>2024-03-20T17:08:02Z</time>
      </trkpt>
      <trkpt lat="49.08854" lon="0.14842">
        <ele>170.2</ele>
        <time>2024-03-20T17:08:03Z</time>
      </trkpt>
      <trkpt lat="49.0886" lon="0.14838">
        <ele>170.2</ele>
        <time>2024-03-20T17:08:04Z</time>
      </trkpt>
      <trkpt lat="49.08867" lon="0.14833">
        <ele>170.4</ele>
        <time>2024-03-20T17:08:05Z</time>
      </trkpt>
      <trkpt lat="49.08874" lon="0.14829">
        <ele>170.4</ele>
        <time>2024-03-20T17:08:06Z</time>
      </trkpt>
      <trkpt lat="49.0888" lon="0.14826">
        <ele>170.6</ele>
        <time>2024-03-20T17:08:07Z</time>
      </trkpt>
      <trkpt lat="49.08887" lon="0.14822">
        <ele>170.6</ele>
        <time>2024-03-20T17:08:08Z</time>
      </trkpt>
      <trkpt lat="49.08894" lon="0.14817">
        <ele>170.6</ele>
        <time>2024-03-20T17:08:09Z</time>
      </trkpt>
      <trkpt lat="49.089" lon="0.14812">
        <ele>170.8</ele>
        <time>2024-03-20T17:08:10Z</time>
      </trkpt>
      <trkpt lat="49.08906" lon="0.14808">
        <ele>170.8</ele>
        <time>2024-03-20T17:08:11Z</time>
      </trkpt>
      <trkpt lat="49.08912" lon="0.14803">
        <ele>171</ele>
        <time>2024-03-20T17:08:12Z</time>
      </trkpt>
      <trkpt lat="49.08918" lon="0.14798">
        <ele>171</ele>
        <time>2024-03-20T17:08:13Z</time>
      </trkpt>
      <trkpt lat="49.08924" lon="0.14793">
        <ele>171.2</ele>
        <time>2024-03-20T17:08:14Z</time>
      </trkpt>
      <trkpt lat="49.08931" lon="0.14789">
        <ele>171.2</ele>
        <time>2024-03-20T17:08:15Z</time>
      </trkpt>
      <trkpt lat="49.08938" lon="0.14785">
        <ele>171.2</ele>
        <time>2024-03-20T17:08:16Z</time>
      </trkpt>
      <trkpt lat="49.08945" lon="0.1478">
        <ele>171.4</ele>
        <time>2024-03-20T17:08:17Z</time>
      </trkpt>
      <trkpt lat="49.08951" lon="0.14776">
        <ele>171.4</ele>
        <time>2024-03-20T17:08:18Z</time>
      </trkpt>
      <trkpt lat="49.08958" lon="0.14772">
        <ele>171.4</ele>
        <time>2024-03-20T17:08:19Z</time>
      </trkpt>
      <trkpt lat="49.08964" lon="0.14766">
        <ele>171.6</ele>
        <time>2024-03-20T17:08:20Z</time>
      </trkpt>
      <trkpt lat="49.0897" lon="0.14762">
        <ele>171.6</ele>
        <time>2024-03-20T17:08:21Z</time>
      </trkpt>
      <trkpt lat="49.08976" lon="0.14757">
        <ele>171.6</ele>
        <time>2024-03-20T17:08:22Z</time>
      </trkpt>
      <trkpt lat="49.08982" lon="0.14752">
        <ele>171.8</ele>
        <time>2024-03-20T17:08:23Z</time>
      </trkpt>
      <trkpt lat="49.08989" lon="0.14747">
        <ele>171.8</ele>
        <time>2024-03-20T17:08:24Z</time>
      </trkpt>
      <trkpt lat="49.08995" lon="0.14742">
        <ele>171.8</ele>
        <time>2024-03-20T17:08:25Z</time>
      </trkpt>
      <trkpt lat="49.09002" lon="0.14737">
        <ele>171.8</ele>
        <time>2024-03-20T17:08:26Z</time>
      </trkpt>
      <trkpt lat="49.09009" lon="0.14733">
        <ele>171.8</ele>
        <time>2024-03-20T17:08:27Z</time>
      </trkpt>
      <trkpt lat="49.09017" lon="0.14728">
        <ele>171.8</ele>
        <time>2024-03-20T17:08:28Z</time>
      </trkpt>
      <trkpt lat="49.09023" lon="0.14722">
        <ele>171.8</ele>
        <time>2024-03-20T17:08:29Z</time>
      </trkpt>
      <trkpt lat="49.0903" lon="0.14717">
        <ele>171.8</ele>
        <time>2024-03-20T17:08:30Z</time>
      </trkpt>
      <trkpt lat="49.09036" lon="0.14713">
        <ele>171.8</ele>
        <time>2024-03-20T17:08:31Z</time>
      </trkpt>
      <trkpt lat="49.09043" lon="0.14708">
        <ele>171.8</ele>
        <time>2024-03-20T17:08:32Z</time>
      </trkpt>
      <trkpt lat="49.09049" lon="0.14703">
        <ele>171.8</ele>
        <time>2024-03-20T17:08:33Z</time>
      </trkpt>
      <trkpt lat="49.09055" lon="0.14699">
        <ele>171.8</ele>
        <time>2024-03-20T17:08:34Z</time>
      </trkpt>
      <trkpt lat="49.09062" lon="0.14694">
        <ele>171.8</ele>
        <time>2024-03-20T17:08:35Z</time>
      </trkpt>
      <trkpt lat="49.09068" lon="0.14689">
        <ele>171.8</ele>
        <time>2024-03-20T17:08:36Z</time>
      </trkpt>
      <trkpt lat="49.09074" lon="0.14684">
        <ele>171.8</ele>
        <time>2024-03-20T17:08:37Z</time>
      </trkpt>
      <trkpt lat="49.0908" lon="0.14679">
        <ele>172</ele>
        <time>2024-03-20T17:08:38Z</time>
      </trkpt>
      <trkpt lat="49.09087" lon="0.14674">
        <ele>172</ele>
        <time>2024-03-20T17:08:39Z</time>
      </trkpt>
      <trkpt lat="49.09094" lon="0.1467">
        <ele>172</ele>
        <time>2024-03-20T17:08:40Z</time>
      </trkpt>
      <trkpt lat="49.091" lon="0.14666">
        <ele>172</ele>
        <time>2024-03-20T17:08:41Z</time>
      </trkpt>
      <trkpt lat="49.09106" lon="0.14661">
        <ele>172</ele>
        <time>2024-03-20T17:08:42Z</time>
      </trkpt>
      <trkpt lat="49.09113" lon="0.14656">
        <ele>172</ele>
        <time>2024-03-20T17:08:43Z</time>
      </trkpt>
      <trkpt lat="49.0912" lon="0.14652">
        <ele>172.2</ele>
        <time>2024-03-20T17:08:44Z</time>
      </trkpt>
      <trkpt lat="49.09126" lon="0.14647">
        <ele>172.2</ele>
        <time>2024-03-20T17:08:45Z</time>
      </trkpt>
      <trkpt lat="49.09132" lon="0.14641">
        <ele>172.2</ele>
        <time>2024-03-20T17:08:46Z</time>
      </trkpt>
      <trkpt lat="49.09139" lon="0.14636">
        <ele>172</ele>
        <time>2024-03-20T17:08:47Z</time>
      </trkpt>
      <trkpt lat="49.09146" lon="0.14631">
        <ele>172</ele>
        <time>2024-03-20T17:08:48Z</time>
      </trkpt>
      <trkpt lat="49.09153" lon="0.14627">
        <ele>172</ele>
        <time>2024-03-20T17:08:49Z</time>
      </trkpt>
      <trkpt lat="49.0916" lon="0.14623">
        <ele>172.2</ele>
        <time>2024-03-20T17:08:50Z</time>
      </trkpt>
      <trkpt lat="49.09167" lon="0.14619">
        <ele>172.2</ele>
        <time>2024-03-20T17:08:51Z</time>
      </trkpt>
      <trkpt lat="49.09175" lon="0.14615">
        <ele>172.2</ele>
        <time>2024-03-20T17:08:52Z</time>
      </trkpt>
      <trkpt lat="49.09183" lon="0.14612">
        <ele>172.2</ele>
        <time>2024-03-20T17:08:53Z</time>
      </trkpt>
      <trkpt lat="49.0919" lon="0.14608">
        <ele>172.2</ele>
        <time>2024-03-20T17:08:54Z</time>
      </trkpt>
      <trkpt lat="49.09197" lon="0.14605">
        <ele>172.2</ele>
        <time>2024-03-20T17:08:55Z</time>
      </trkpt>
      <trkpt lat="49.09205" lon="0.14602">
        <ele>172.2</ele>
        <time>2024-03-20T17:08:56Z</time>
      </trkpt>
      <trkpt lat="49.09212" lon="0.146">
        <ele>172.2</ele>
        <time>2024-03-20T17:08:57Z</time>
      </trkpt>
      <trkpt lat="49.0922" lon="0.14597">
        <ele>172.2</ele>
        <time>2024-03-20T17:08:58Z</time>
      </trkpt>
      <trkpt lat="49.09227" lon="0.14594">
        <ele>172</ele>
        <time>2024-03-20T17:08:59Z</time>
      </trkpt>
      <trkpt lat="49.09235" lon="0.14592">
        <ele>172</ele>
        <time>2024-03-20T17:09:00Z</time>
      </trkpt>
      <trkpt lat="49.09243" lon="0.14589">
        <ele>172</ele>
        <time>2024-03-20T17:09:01Z</time>
      </trkpt>
      <trkpt lat="49.0925" lon="0.14587">
        <ele>172</ele>
        <time>2024-03-20T17:09:02Z</time>
      </trkpt>
      <trkpt lat="49.09257" lon="0.14584">
        <ele>171.8</ele>
        <time>2024-03-20T17:09:03Z</time>
      </trkpt>
      <trkpt lat="49.09265" lon="0.14582">
        <ele>171.6</ele>
        <time>2024-03-20T17:09:04Z</time>
      </trkpt>
      <trkpt lat="49.09273" lon="0.14579">
        <ele>171.4</ele>
        <time>2024-03-20T17:09:05Z</time>
      </trkpt>
      <trkpt lat="49.0928" lon="0.14577">
        <ele>171.4</ele>
        <time>2024-03-20T17:09:06Z</time>
      </trkpt>
      <trkpt lat="49.09288" lon="0.14574">
        <ele>171.4</ele>
        <time>2024-03-20T17:09:07Z</time>
      </trkpt>
      <trkpt lat="49.09295" lon="0.14572">
        <ele>171.2</ele>
        <time>2024-03-20T17:09:08Z</time>
      </trkpt>
      <trkpt lat="49.09302" lon="0.1457">
        <ele>171.2</ele>
        <time>2024-03-20T17:09:09Z</time>
      </trkpt>
      <trkpt lat="49.0931" lon="0.14568">
        <ele>171.2</ele>
        <time>2024-03-20T17:09:10Z</time>
      </trkpt>
      <trkpt lat="49.09318" lon="0.14566">
        <ele>171.2</ele>
        <time>2024-03-20T17:09:11Z</time>
      </trkpt>
      <trkpt lat="49.09325" lon="0.14565">
        <ele>171.2</ele>
        <time>2024-03-20T17:09:12Z</time>
      </trkpt>
      <trkpt lat="49.09333" lon="0.14564">
        <ele>171.2</ele>
        <time>2024-03-20T17:09:13Z</time>
      </trkpt>
      <trkpt lat="49.09341" lon="0.14563">
        <ele>171.2</ele>
        <time>2024-03-20T17:09:14Z</time>
      </trkpt>
      <trkpt lat="49.09349" lon="0.14563">
        <ele>171.2</ele>
        <time>2024-03-20T17:09:15Z</time>
      </trkpt>
      <trkpt lat="49.09357" lon="0.14563">
        <ele>171.2</ele>
        <time>2024-03-20T17:09:16Z</time>
      </trkpt>
      <trkpt lat="49.09364" lon="0.14565">
        <ele>171.2</ele>
        <time>2024-03-20T17:09:17Z</time>
      </trkpt>
      <trkpt lat="49.09372" lon="0.14566">
        <ele>171.2</ele>
        <time>2024-03-20T17:09:18Z</time>
      </trkpt>
      <trkpt lat="49.09379" lon="0.14567">
        <ele>171.2</ele>
        <time>2024-03-20T17:09:19Z</time>
      </trkpt>
      <trkpt lat="49.09387" lon="0.14569">
        <ele>171.2</ele>
        <time>2024-03-20T17:09:20Z</time>
      </trkpt>
      <trkpt lat="49.09395" lon="0.1457">
        <ele>171.4</ele>
        <time>2024-03-20T17:09:21Z</time>
      </trkpt>
      <trkpt lat="49.09402" lon="0.14571">
        <ele>171.4</ele>
        <time>2024-03-20T17:09:22Z</time>
      </trkpt>
      <trkpt lat="49.0941" lon="0.14571">
        <ele>171.4</ele>
        <time>2024-03-20T17:09:23Z</time>
      </trkpt>
      <trkpt lat="49.09418" lon="0.14571">
        <ele>171.4</ele>
        <time>2024-03-20T17:09:24Z</time>
      </trkpt>
      <trkpt lat="49.09425" lon="0.1457">
        <ele>171.4</ele>
        <time>2024-03-20T17:09:25Z</time>
      </trkpt>
      <trkpt lat="49.09433" lon="0.1457">
        <ele>171.4</ele>
        <time>2024-03-20T17:09:26Z</time>
      </trkpt>
      <trkpt lat="49.0944" lon="0.14569">
        <ele>171.4</ele>
        <time>2024-03-20T17:09:27Z</time>
      </trkpt>
      <trkpt lat="49.09448" lon="0.14569">
        <ele>171.4</ele>
        <time>2024-03-20T17:09:28Z</time>
      </trkpt>
      <trkpt lat="49.09456" lon="0.14568">
        <ele>171.4</ele>
        <time>2024-03-20T17:09:29Z</time>
      </trkpt>
      <trkpt lat="49.09463" lon="0.14567">
        <ele>171.4</ele>
        <time>2024-03-20T17:09:30Z</time>
      </trkpt>
      <trkpt lat="49.09471" lon="0.14566">
        <ele>171.4</ele>
        <time>2024-03-20T17:09:31Z</time>
      </trkpt>
      <trkpt lat="49.09479" lon="0.14566">
        <ele>171.4</ele>
        <time>2024-03-20T17:09:32Z</time>
      </trkpt>
      <trkpt lat="49.09487" lon="0.14565">
        <ele>171.4</ele>
        <time>2024-03-20T17:09:33Z</time>
      </trkpt>
      <trkpt lat="49.09495" lon="0.14565">
        <ele>171.4</ele>
        <time>2024-03-20T17:09:34Z</time>
      </trkpt>
      <trkpt lat="49.09503" lon="0.14564">
        <ele>171.4</ele>
        <time>2024-03-20T17:09:35Z</time>
      </trkpt>
      <trkpt lat="49.09511" lon="0.14563">
        <ele>171.4</ele>
        <time>2024-03-20T17:09:36Z</time>
      </trkpt>
      <trkpt lat="49.0952" lon="0.14563">
        <ele>171.4</ele>
        <time>2024-03-20T17:09:37Z</time>
      </trkpt>
      <trkpt lat="49.09528" lon="0.14562">
        <ele>171</ele>
        <time>2024-03-20T17:09:38Z</time>
      </trkpt>
      <trkpt lat="49.09536" lon="0.1456">
        <ele>171</ele>
        <time>2024-03-20T17:09:39Z</time>
      </trkpt>
      <trkpt lat="49.09544" lon="0.14558">
        <ele>171</ele>
        <time>2024-03-20T17:09:40Z</time>
      </trkpt>
      <trkpt lat="49.09552" lon="0.14555">
        <ele>170.8</ele>
        <time>2024-03-20T17:09:41Z</time>
      </trkpt>
      <trkpt lat="49.0956" lon="0.14552">
        <ele>170.8</ele>
        <time>2024-03-20T17:09:42Z</time>
      </trkpt>
      <trkpt lat="49.09567" lon="0.14549">
        <ele>170.8</ele>
        <time>2024-03-20T17:09:43Z</time>
      </trkpt>
      <trkpt lat="49.09575" lon="0.14545">
        <ele>170.8</ele>
        <time>2024-03-20T17:09:44Z</time>
      </trkpt>
      <trkpt lat="49.09582" lon="0.14542">
        <ele>170.6</ele>
        <time>2024-03-20T17:09:45Z</time>
      </trkpt>
      <trkpt lat="49.0959" lon="0.14538">
        <ele>170.4</ele>
        <time>2024-03-20T17:09:46Z</time>
      </trkpt>
      <trkpt lat="49.09597" lon="0.14534">
        <ele>170.4</ele>
        <time>2024-03-20T17:09:47Z</time>
      </trkpt>
      <trkpt lat="49.09605" lon="0.1453">
        <ele>170.4</ele>
        <time>2024-03-20T17:09:48Z</time>
      </trkpt>
      <trkpt lat="49.09613" lon="0.14526">
        <ele>170.4</ele>
        <time>2024-03-20T17:09:49Z</time>
      </trkpt>
      <trkpt lat="49.09621" lon="0.14521">
        <ele>170.4</ele>
        <time>2024-03-20T17:09:50Z</time>
      </trkpt>
      <trkpt lat="49.09629" lon="0.14516">
        <ele>170.2</ele>
        <time>2024-03-20T17:09:51Z</time>
      </trkpt>
      <trkpt lat="49.09637" lon="0.14511">
        <ele>170</ele>
        <time>2024-03-20T17:09:52Z</time>
      </trkpt>
      <trkpt lat="49.09644" lon="0.14507">
        <ele>169.8</ele>
        <time>2024-03-20T17:09:53Z</time>
      </trkpt>
      <trkpt lat="49.09652" lon="0.14502">
        <ele>169.6</ele>
        <time>2024-03-20T17:09:54Z</time>
      </trkpt>
      <trkpt lat="49.09659" lon="0.14497">
        <ele>169.4</ele>
        <time>2024-03-20T17:09:55Z</time>
      </trkpt>
      <trkpt lat="49.09667" lon="0.14491">
        <ele>169.4</ele>
        <time>2024-03-20T17:09:56Z</time>
      </trkpt>
      <trkpt lat="49.09674" lon="0.14485">
        <ele>169.4</ele>
        <time>2024-03-20T17:09:57Z</time>
      </trkpt>
      <trkpt lat="49.09681" lon="0.14479">
        <ele>169.2</ele>
        <time>2024-03-20T17:09:58Z</time>
      </trkpt>
      <trkpt lat="49.09689" lon="0.14473">
        <ele>169.2</ele>
        <time>2024-03-20T17:09:59Z</time>
      </trkpt>
      <trkpt lat="49.09696" lon="0.14465">
        <ele>169</ele>
        <time>2024-03-20T17:10:00Z</time>
      </trkpt>
      <trkpt lat="49.09703" lon="0.14458">
        <ele>169</ele>
        <time>2024-03-20T17:10:01Z</time>
      </trkpt>
      <trkpt lat="49.0971" lon="0.14451">
        <ele>169</ele>
        <time>2024-03-20T17:10:02Z</time>
      </trkpt>
      <trkpt lat="49.09717" lon="0.14443">
        <ele>169</ele>
        <time>2024-03-20T17:10:03Z</time>
      </trkpt>
      <trkpt lat="49.09724" lon="0.14435">
        <ele>169</ele>
        <time>2024-03-20T17:10:04Z</time>
      </trkpt>
      <trkpt lat="49.0973" lon="0.14427">
        <ele>168.8</ele>
        <time>2024-03-20T17:10:05Z</time>
      </trkpt>
      <trkpt lat="49.09737" lon="0.14419">
        <ele>168.8</ele>
        <time>2024-03-20T17:10:06Z</time>
      </trkpt>
      <trkpt lat="49.09744" lon="0.14411">
        <ele>168.6</ele>
        <time>2024-03-20T17:10:07Z</time>
      </trkpt>
      <trkpt lat="49.09751" lon="0.14403">
        <ele>168.2</ele>
        <time>2024-03-20T17:10:08Z</time>
      </trkpt>
      <trkpt lat="49.09757" lon="0.14395">
        <ele>168</ele>
        <time>2024-03-20T17:10:09Z</time>
      </trkpt>
      <trkpt lat="49.09764" lon="0.14387">
        <ele>168</ele>
        <time>2024-03-20T17:10:10Z</time>
      </trkpt>
      <trkpt lat="49.09771" lon="0.14379">
        <ele>167.8</ele>
        <time>2024-03-20T17:10:11Z</time>
      </trkpt>
      <trkpt lat="49.09778" lon="0.14371">
        <ele>167.8</ele>
        <time>2024-03-20T17:10:12Z</time>
      </trkpt>
      <trkpt lat="49.09785" lon="0.14364">
        <ele>167.6</ele>
        <time>2024-03-20T17:10:13Z</time>
      </trkpt>
      <trkpt lat="49.09792" lon="0.14356">
        <ele>167.4</ele>
        <time>2024-03-20T17:10:14Z</time>
      </trkpt>
      <trkpt lat="49.09799" lon="0.14349">
        <ele>167</ele>
        <time>2024-03-20T17:10:15Z</time>
      </trkpt>
      <trkpt lat="49.09806" lon="0.14342">
        <ele>166.6</ele>
        <time>2024-03-20T17:10:16Z</time>
      </trkpt>
      <trkpt lat="49.09814" lon="0.14336">
        <ele>166.6</ele>
        <time>2024-03-20T17:10:17Z</time>
      </trkpt>
      <trkpt lat="49.09821" lon="0.1433">
        <ele>166.4</ele>
        <time>2024-03-20T17:10:18Z</time>
      </trkpt>
      <trkpt lat="49.09829" lon="0.14325">
        <ele>166.2</ele>
        <time>2024-03-20T17:10:19Z</time>
      </trkpt>
      <trkpt lat="49.09837" lon="0.14322">
        <ele>166.2</ele>
        <time>2024-03-20T17:10:20Z</time>
      </trkpt>
      <trkpt lat="49.09846" lon="0.14319">
        <ele>166</ele>
        <time>2024-03-20T17:10:21Z</time>
      </trkpt>
      <trkpt lat="49.09855" lon="0.14317">
        <ele>166</ele>
        <time>2024-03-20T17:10:22Z</time>
      </trkpt>
      <trkpt lat="49.09863" lon="0.14314">
        <ele>166</ele>
        <time>2024-03-20T17:10:23Z</time>
      </trkpt>
      <trkpt lat="49.09872" lon="0.14312">
        <ele>165.6</ele>
        <time>2024-03-20T17:10:24Z</time>
      </trkpt>
      <trkpt lat="49.0988" lon="0.14309">
        <ele>165.6</ele>
        <time>2024-03-20T17:10:25Z</time>
      </trkpt>
      <trkpt lat="49.09889" lon="0.14307">
        <ele>165.4</ele>
        <time>2024-03-20T17:10:26Z</time>
      </trkpt>
      <trkpt lat="49.09897" lon="0.14304">
        <ele>165.4</ele>
        <time>2024-03-20T17:10:27Z</time>
      </trkpt>
      <trkpt lat="49.09905" lon="0.14301">
        <ele>165.4</ele>
        <time>2024-03-20T17:10:28Z</time>
      </trkpt>
      <trkpt lat="49.09913" lon="0.14299">
        <ele>165.4</ele>
        <time>2024-03-20T17:10:29Z</time>
      </trkpt>
      <trkpt lat="49.09921" lon="0.14296">
        <ele>165.4</ele>
        <time>2024-03-20T17:10:30Z</time>
      </trkpt>
      <trkpt lat="49.09928" lon="0.14293">
        <ele>165.4</ele>
        <time>2024-03-20T17:10:31Z</time>
      </trkpt>
      <trkpt lat="49.09936" lon="0.1429">
        <ele>165.4</ele>
        <time>2024-03-20T17:10:32Z</time>
      </trkpt>
      <trkpt lat="49.09944" lon="0.14288">
        <ele>165.4</ele>
        <time>2024-03-20T17:10:33Z</time>
      </trkpt>
      <trkpt lat="49.09951" lon="0.14286">
        <ele>165.4</ele>
        <time>2024-03-20T17:10:34Z</time>
      </trkpt>
      <trkpt lat="49.09959" lon="0.14283">
        <ele>165.4</ele>
        <time>2024-03-20T17:10:35Z</time>
      </trkpt>
      <trkpt lat="49.09966" lon="0.14281">
        <ele>165.4</ele>
        <time>2024-03-20T17:10:36Z</time>
      </trkpt>
      <trkpt lat="49.09973" lon="0.14279">
        <ele>165.4</ele>
        <time>2024-03-20T17:10:37Z</time>
      </trkpt>
      <trkpt lat="49.0998" lon="0.14276">
        <ele>165.4</ele>
        <time>2024-03-20T17:10:38Z</time>
      </trkpt>
      <trkpt lat="49.09987" lon="0.14273">
        <ele>165.4</ele>
        <time>2024-03-20T17:10:39Z</time>
      </trkpt>
      <trkpt lat="49.09995" lon="0.14271">
        <ele>165.6</ele>
        <time>2024-03-20T17:10:40Z</time>
      </trkpt>
      <trkpt lat="49.10002" lon="0.14268">
        <ele>165.6</ele>
        <time>2024-03-20T17:10:41Z</time>
      </trkpt>
      <trkpt lat="49.10009" lon="0.14265">
        <ele>165.6</ele>
        <time>2024-03-20T17:10:42Z</time>
      </trkpt>
      <trkpt lat="49.10016" lon="0.14263">
        <ele>165.6</ele>
        <time>2024-03-20T17:10:43Z</time>
      </trkpt>
      <trkpt lat="49.10023" lon="0.14261">
        <ele>165.8</ele>
        <time>2024-03-20T17:10:44Z</time>
      </trkpt>
      <trkpt lat="49.1003" lon="0.14259">
        <ele>166</ele>
        <time>2024-03-20T17:10:45Z</time>
      </trkpt>
      <trkpt lat="49.10038" lon="0.14256">
        <ele>166</ele>
        <time>2024-03-20T17:10:46Z</time>
      </trkpt>
      <trkpt lat="49.10045" lon="0.14254">
        <ele>166.2</ele>
        <time>2024-03-20T17:10:47Z</time>
      </trkpt>
      <trkpt lat="49.10052" lon="0.14251">
        <ele>166.4</ele>
        <time>2024-03-20T17:10:48Z</time>
      </trkpt>
      <trkpt lat="49.1006" lon="0.14249">
        <ele>166.6</ele>
        <time>2024-03-20T17:10:49Z</time>
      </trkpt>
      <trkpt lat="49.10068" lon="0.14247">
        <ele>166.8</ele>
        <time>2024-03-20T17:10:50Z</time>
      </trkpt>
      <trkpt lat="49.10075" lon="0.14244">
        <ele>166.8</ele>
        <time>2024-03-20T17:10:51Z</time>
      </trkpt>
      <trkpt lat="49.10084" lon="0.14242">
        <ele>167</ele>
        <time>2024-03-20T17:10:52Z</time>
      </trkpt>
      <trkpt lat="49.10092" lon="0.1424">
        <ele>167.2</ele>
        <time>2024-03-20T17:10:53Z</time>
      </trkpt>
      <trkpt lat="49.101" lon="0.14238">
        <ele>167.2</ele>
        <time>2024-03-20T17:10:54Z</time>
      </trkpt>
      <trkpt lat="49.10107" lon="0.14235">
        <ele>167.4</ele>
        <time>2024-03-20T17:10:55Z</time>
      </trkpt>
      <trkpt lat="49.10115" lon="0.14232">
        <ele>167.4</ele>
        <time>2024-03-20T17:10:56Z</time>
      </trkpt>
      <trkpt lat="49.10122" lon="0.14229">
        <ele>167.4</ele>
        <time>2024-03-20T17:10:57Z</time>
      </trkpt>
      <trkpt lat="49.10129" lon="0.14225">
        <ele>167.6</ele>
        <time>2024-03-20T17:10:58Z</time>
      </trkpt>
      <trkpt lat="49.10136" lon="0.14222">
        <ele>167.6</ele>
        <time>2024-03-20T17:10:59Z</time>
      </trkpt>
      <trkpt lat="49.10143" lon="0.14219">
        <ele>167.6</ele>
        <time>2024-03-20T17:11:00Z</time>
      </trkpt>
      <trkpt lat="49.10151" lon="0.14215">
        <ele>167.6</ele>
        <time>2024-03-20T17:11:01Z</time>
      </trkpt>
      <trkpt lat="49.10158" lon="0.14212">
        <ele>167.8</ele>
        <time>2024-03-20T17:11:02Z</time>
      </trkpt>
      <trkpt lat="49.10165" lon="0.14209">
        <ele>168</ele>
        <time>2024-03-20T17:11:03Z</time>
      </trkpt>
      <trkpt lat="49.10172" lon="0.14206">
        <ele>168</ele>
        <time>2024-03-20T17:11:04Z</time>
      </trkpt>
      <trkpt lat="49.10179" lon="0.14202">
        <ele>167.8</ele>
        <time>2024-03-20T17:11:05Z</time>
      </trkpt>
      <trkpt lat="49.10186" lon="0.14199">
        <ele>167.8</ele>
        <time>2024-03-20T17:11:06Z</time>
      </trkpt>
      <trkpt lat="49.10194" lon="0.14197">
        <ele>168</ele>
        <time>2024-03-20T17:11:07Z</time>
      </trkpt>
      <trkpt lat="49.10201" lon="0.14194">
        <ele>168</ele>
        <time>2024-03-20T17:11:08Z</time>
      </trkpt>
      <trkpt lat="49.10209" lon="0.1419">
        <ele>168.2</ele>
        <time>2024-03-20T17:11:09Z</time>
      </trkpt>
      <trkpt lat="49.10216" lon="0.14187">
        <ele>168.2</ele>
        <time>2024-03-20T17:11:10Z</time>
      </trkpt>
      <trkpt lat="49.10223" lon="0.14183">
        <ele>168.2</ele>
        <time>2024-03-20T17:11:11Z</time>
      </trkpt>
      <trkpt lat="49.10231" lon="0.1418">
        <ele>168.2</ele>
        <time>2024-03-20T17:11:12Z</time>
      </trkpt>
      <trkpt lat="49.10238" lon="0.14177">
        <ele>168.2</ele>
        <time>2024-03-20T17:11:13Z</time>
      </trkpt>
      <trkpt lat="49.10245" lon="0.14173">
        <ele>168.2</ele>
        <time>2024-03-20T17:11:14Z</time>
      </trkpt>
      <trkpt lat="49.10253" lon="0.1417">
        <ele>168.4</ele>
        <time>2024-03-20T17:11:15Z</time>
      </trkpt>
      <trkpt lat="49.10261" lon="0.14168">
        <ele>168.4</ele>
        <time>2024-03-20T17:11:16Z</time>
      </trkpt>
      <trkpt lat="49.10269" lon="0.14165">
        <ele>168.6</ele>
        <time>2024-03-20T17:11:17Z</time>
      </trkpt>
      <trkpt lat="49.10277" lon="0.14163">
        <ele>168.8</ele>
        <time>2024-03-20T17:11:18Z</time>
      </trkpt>
      <trkpt lat="49.10285" lon="0.1416">
        <ele>168.8</ele>
        <time>2024-03-20T17:11:19Z</time>
      </trkpt>
      <trkpt lat="49.10293" lon="0.14158">
        <ele>169</ele>
        <time>2024-03-20T17:11:20Z</time>
      </trkpt>
      <trkpt lat="49.10301" lon="0.14156">
        <ele>169</ele>
        <time>2024-03-20T17:11:21Z</time>
      </trkpt>
      <trkpt lat="49.10308" lon="0.14155">
        <ele>169</ele>
        <time>2024-03-20T17:11:22Z</time>
      </trkpt>
      <trkpt lat="49.10316" lon="0.14153">
        <ele>169</ele>
        <time>2024-03-20T17:11:23Z</time>
      </trkpt>
      <trkpt lat="49.10324" lon="0.14152">
        <ele>169</ele>
        <time>2024-03-20T17:11:24Z</time>
      </trkpt>
      <trkpt lat="49.10332" lon="0.14151">
        <ele>169</ele>
        <time>2024-03-20T17:11:25Z</time>
      </trkpt>
      <trkpt lat="49.10341" lon="0.14149">
        <ele>169</ele>
        <time>2024-03-20T17:11:26Z</time>
      </trkpt>
      <trkpt lat="49.10348" lon="0.14148">
        <ele>169</ele>
        <time>2024-03-20T17:11:27Z</time>
      </trkpt>
      <trkpt lat="49.10356" lon="0.14147">
        <ele>169</ele>
        <time>2024-03-20T17:11:28Z</time>
      </trkpt>
      <trkpt lat="49.10364" lon="0.14146">
        <ele>169</ele>
        <time>2024-03-20T17:11:29Z</time>
      </trkpt>
      <trkpt lat="49.10372" lon="0.14145">
        <ele>169</ele>
        <time>2024-03-20T17:11:30Z</time>
      </trkpt>
      <trkpt lat="49.10379" lon="0.14143">
        <ele>169</ele>
        <time>2024-03-20T17:11:31Z</time>
      </trkpt>
      <trkpt lat="49.10387" lon="0.14142">
        <ele>169</ele>
        <time>2024-03-20T17:11:32Z</time>
      </trkpt>
      <trkpt lat="49.10394" lon="0.1414">
        <ele>169</ele>
        <time>2024-03-20T17:11:33Z</time>
      </trkpt>
      <trkpt lat="49.10402" lon="0.14139">
        <ele>169</ele>
        <time>2024-03-20T17:11:34Z</time>
      </trkpt>
      <trkpt lat="49.10409" lon="0.14139">
        <ele>169</ele>
        <time>2024-03-20T17:11:35Z</time>
      </trkpt>
      <trkpt lat="49.10417" lon="0.14138">
        <ele>169</ele>
        <time>2024-03-20T17:11:36Z</time>
      </trkpt>
      <trkpt lat="49.10424" lon="0.14137">
        <ele>169</ele>
        <time>2024-03-20T17:11:37Z</time>
      </trkpt>
      <trkpt lat="49.10432" lon="0.14136">
        <ele>169</ele>
        <time>2024-03-20T17:11:38Z</time>
      </trkpt>
      <trkpt lat="49.10439" lon="0.14134">
        <ele>169.2</ele>
        <time>2024-03-20T17:11:39Z</time>
      </trkpt>
      <trkpt lat="49.10447" lon="0.14132">
        <ele>169.2</ele>
        <time>2024-03-20T17:11:40Z</time>
      </trkpt>
      <trkpt lat="49.10454" lon="0.14131">
        <ele>169.2</ele>
        <time>2024-03-20T17:11:41Z</time>
      </trkpt>
      <trkpt lat="49.10462" lon="0.1413">
        <ele>169.4</ele>
        <time>2024-03-20T17:11:42Z</time>
      </trkpt>
      <trkpt lat="49.10469" lon="0.14129">
        <ele>169.4</ele>
        <time>2024-03-20T17:11:43Z</time>
      </trkpt>
      <trkpt lat="49.10476" lon="0.14127">
        <ele>169.4</ele>
        <time>2024-03-20T17:11:44Z</time>
      </trkpt>
      <trkpt lat="49.10483" lon="0.14126">
        <ele>169.6</ele>
        <time>2024-03-20T17:11:45Z</time>
      </trkpt>
      <trkpt lat="49.10489" lon="0.14124">
        <ele>169.6</ele>
        <time>2024-03-20T17:11:46Z</time>
      </trkpt>
      <trkpt lat="49.10495" lon="0.14122">
        <ele>169.6</ele>
        <time>2024-03-20T17:11:47Z</time>
      </trkpt>
      <trkpt lat="49.10501" lon="0.1412">
        <ele>169.6</ele>
        <time>2024-03-20T17:11:48Z</time>
      </trkpt>
      <trkpt lat="49.10507" lon="0.14118">
        <ele>169.8</ele>
        <time>2024-03-20T17:11:49Z</time>
      </trkpt>
      <trkpt lat="49.10512" lon="0.14115">
        <ele>169.8</ele>
        <time>2024-03-20T17:11:50Z</time>
      </trkpt>
      <trkpt lat="49.10516" lon="0.14113">
        <ele>169.8</ele>
        <time>2024-03-20T17:11:51Z</time>
      </trkpt>
      <trkpt lat="49.10519" lon="0.14111">
        <ele>170.2</ele>
        <time>2024-03-20T17:11:52Z</time>
      </trkpt>
      <trkpt lat="49.10522" lon="0.14109">
        <ele>170.6</ele>
        <time>2024-03-20T17:11:53Z</time>
      </trkpt>
      <trkpt lat="49.10524" lon="0.14106">
        <ele>170.8</ele>
        <time>2024-03-20T17:11:54Z</time>
      </trkpt>
      <trkpt lat="49.10526" lon="0.14104">
        <ele>171</ele>
        <time>2024-03-20T17:11:55Z</time>
      </trkpt>
      <trkpt lat="49.10527" lon="0.14102">
        <ele>171</ele>
        <time>2024-03-20T17:11:56Z</time>
      </trkpt>
      <trkpt lat="49.10528" lon="0.14099">
        <ele>171.2</ele>
        <time>2024-03-20T17:11:57Z</time>
      </trkpt>
      <trkpt lat="49.10529" lon="0.14096">
        <ele>171.2</ele>
        <time>2024-03-20T17:11:58Z</time>
      </trkpt>
      <trkpt lat="49.10531" lon="0.14093">
        <ele>171.2</ele>
        <time>2024-03-20T17:11:59Z</time>
      </trkpt>
      <trkpt lat="49.10533" lon="0.14089">
        <ele>171.6</ele>
        <time>2024-03-20T17:12:00Z</time>
      </trkpt>
      <trkpt lat="49.10536" lon="0.14085">
        <ele>171.8</ele>
        <time>2024-03-20T17:12:01Z</time>
      </trkpt>
      <trkpt lat="49.1054" lon="0.14081">
        <ele>171.8</ele>
        <time>2024-03-20T17:12:02Z</time>
      </trkpt>
      <trkpt lat="49.10543" lon="0.14076">
        <ele>172</ele>
        <time>2024-03-20T17:12:03Z</time>
      </trkpt>
      <trkpt lat="49.10546" lon="0.14072">
        <ele>172</ele>
        <time>2024-03-20T17:12:04Z</time>
      </trkpt>
      <trkpt lat="49.1055" lon="0.14068">
        <ele>172</ele>
        <time>2024-03-20T17:12:05Z</time>
      </trkpt>
      <trkpt lat="49.10554" lon="0.14063">
        <ele>172.2</ele>
        <time>2024-03-20T17:12:06Z</time>
      </trkpt>
      <trkpt lat="49.10559" lon="0.14058">
        <ele>172.2</ele>
        <time>2024-03-20T17:12:07Z</time>
      </trkpt>
      <trkpt lat="49.10563" lon="0.14053">
        <ele>172.2</ele>
        <time>2024-03-20T17:12:08Z</time>
      </trkpt>
      <trkpt lat="49.10567" lon="0.14047">
        <ele>172.2</ele>
        <time>2024-03-20T17:12:09Z</time>
      </trkpt>
      <trkpt lat="49.10571" lon="0.14041">
        <ele>172.4</ele>
        <time>2024-03-20T17:12:10Z</time>
      </trkpt>
      <trkpt lat="49.10575" lon="0.14036">
        <ele>172.4</ele>
        <time>2024-03-20T17:12:11Z</time>
      </trkpt>
      <trkpt lat="49.10579" lon="0.1403">
        <ele>172.4</ele>
        <time>2024-03-20T17:12:12Z</time>
      </trkpt>
      <trkpt lat="49.10584" lon="0.14024">
        <ele>172.4</ele>
        <time>2024-03-20T17:12:13Z</time>
      </trkpt>
      <trkpt lat="49.10588" lon="0.14018">
        <ele>172.4</ele>
        <time>2024-03-20T17:12:14Z</time>
      </trkpt>
      <trkpt lat="49.10593" lon="0.14012">
        <ele>172.4</ele>
        <time>2024-03-20T17:12:15Z</time>
      </trkpt>
      <trkpt lat="49.10597" lon="0.14005">
        <ele>172.6</ele>
        <time>2024-03-20T17:12:16Z</time>
      </trkpt>
      <trkpt lat="49.10602" lon="0.13999">
        <ele>172.6</ele>
        <time>2024-03-20T17:12:17Z</time>
      </trkpt>
      <trkpt lat="49.10606" lon="0.13993">
        <ele>172.6</ele>
        <time>2024-03-20T17:12:18Z</time>
      </trkpt>
      <trkpt lat="49.10612" lon="0.13987">
        <ele>172.6</ele>
        <time>2024-03-20T17:12:19Z</time>
      </trkpt>
      <trkpt lat="49.10617" lon="0.13982">
        <ele>172.6</ele>
        <time>2024-03-20T17:12:20Z</time>
      </trkpt>
      <trkpt lat="49.10623" lon="0.13977">
        <ele>172.6</ele>
        <time>2024-03-20T17:12:21Z</time>
      </trkpt>
      <trkpt lat="49.10629" lon="0.13972">
        <ele>172.6</ele>
        <time>2024-03-20T17:12:22Z</time>
      </trkpt>
      <trkpt lat="49.10636" lon="0.13966">
        <ele>172.8</ele>
        <time>2024-03-20T17:12:23Z</time>
      </trkpt>
      <trkpt lat="49.10641" lon="0.13961">
        <ele>172.8</ele>
        <time>2024-03-20T17:12:24Z</time>
      </trkpt>
      <trkpt lat="49.10648" lon="0.13957">
        <ele>172.8</ele>
        <time>2024-03-20T17:12:25Z</time>
      </trkpt>
      <trkpt lat="49.10654" lon="0.13952">
        <ele>172.8</ele>
        <time>2024-03-20T17:12:26Z</time>
      </trkpt>
      <trkpt lat="49.1066" lon="0.13947">
        <ele>172.8</ele>
        <time>2024-03-20T17:12:27Z</time>
      </trkpt>
      <trkpt lat="49.10667" lon="0.13942">
        <ele>172.8</ele>
        <time>2024-03-20T17:12:28Z</time>
      </trkpt>
      <trkpt lat="49.10674" lon="0.13938">
        <ele>173</ele>
        <time>2024-03-20T17:12:29Z</time>
      </trkpt>
      <trkpt lat="49.1068" lon="0.13933">
        <ele>173</ele>
        <time>2024-03-20T17:12:30Z</time>
      </trkpt>
      <trkpt lat="49.10687" lon="0.13928">
        <ele>173</ele>
        <time>2024-03-20T17:12:31Z</time>
      </trkpt>
      <trkpt lat="49.10694" lon="0.13923">
        <ele>173</ele>
        <time>2024-03-20T17:12:32Z</time>
      </trkpt>
      <trkpt lat="49.10701" lon="0.13919">
        <ele>173</ele>
        <time>2024-03-20T17:12:33Z</time>
      </trkpt>
      <trkpt lat="49.10708" lon="0.13915">
        <ele>173</ele>
        <time>2024-03-20T17:12:34Z</time>
      </trkpt>
      <trkpt lat="49.10715" lon="0.13911">
        <ele>173.2</ele>
        <time>2024-03-20T17:12:35Z</time>
      </trkpt>
      <trkpt lat="49.10722" lon="0.13908">
        <ele>173.2</ele>
        <time>2024-03-20T17:12:36Z</time>
      </trkpt>
      <trkpt lat="49.10729" lon="0.13905">
        <ele>173.2</ele>
        <time>2024-03-20T17:12:37Z</time>
      </trkpt>
      <trkpt lat="49.10736" lon="0.13901">
        <ele>173.4</ele>
        <time>2024-03-20T17:12:38Z</time>
      </trkpt>
      <trkpt lat="49.10743" lon="0.13898">
        <ele>173.6</ele>
        <time>2024-03-20T17:12:39Z</time>
      </trkpt>
      <trkpt lat="49.1075" lon="0.13895">
        <ele>173.6</ele>
        <time>2024-03-20T17:12:40Z</time>
      </trkpt>
      <trkpt lat="49.10757" lon="0.13893">
        <ele>173.6</ele>
        <time>2024-03-20T17:12:41Z</time>
      </trkpt>
      <trkpt lat="49.10764" lon="0.13889">
        <ele>173.8</ele>
        <time>2024-03-20T17:12:42Z</time>
      </trkpt>
      <trkpt lat="49.10771" lon="0.13886">
        <ele>173.8</ele>
        <time>2024-03-20T17:12:43Z</time>
      </trkpt>
      <trkpt lat="49.10778" lon="0.13882">
        <ele>173.8</ele>
        <time>2024-03-20T17:12:44Z</time>
      </trkpt>
      <trkpt lat="49.10785" lon="0.13878">
        <ele>173.8</ele>
        <time>2024-03-20T17:12:45Z</time>
      </trkpt>
      <trkpt lat="49.10792" lon="0.13874">
        <ele>173.8</ele>
        <time>2024-03-20T17:12:46Z</time>
      </trkpt>
      <trkpt lat="49.10799" lon="0.1387">
        <ele>173.8</ele>
        <time>2024-03-20T17:12:47Z</time>
      </trkpt>
      <trkpt lat="49.10806" lon="0.13864">
        <ele>173.8</ele>
        <time>2024-03-20T17:12:48Z</time>
      </trkpt>
      <trkpt lat="49.10812" lon="0.13857">
        <ele>173.8</ele>
        <time>2024-03-20T17:12:49Z</time>
      </trkpt>
      <trkpt lat="49.10818" lon="0.1385">
        <ele>173.8</ele>
        <time>2024-03-20T17:12:50Z</time>
      </trkpt>
      <trkpt lat="49.10824" lon="0.13843">
        <ele>173.8</ele>
        <time>2024-03-20T17:12:51Z</time>
      </trkpt>
      <trkpt lat="49.1083" lon="0.13836">
        <ele>173.8</ele>
        <time>2024-03-20T17:12:52Z</time>
      </trkpt>
      <trkpt lat="49.10836" lon="0.13828">
        <ele>173.8</ele>
        <time>2024-03-20T17:12:53Z</time>
      </trkpt>
      <trkpt lat="49.10842" lon="0.1382">
        <ele>173.8</ele>
        <time>2024-03-20T17:12:54Z</time>
      </trkpt>
      <trkpt lat="49.10849" lon="0.13813">
        <ele>173.8</ele>
        <time>2024-03-20T17:12:55Z</time>
      </trkpt>
      <trkpt lat="49.10855" lon="0.13805">
        <ele>173.8</ele>
        <time>2024-03-20T17:12:56Z</time>
      </trkpt>
      <trkpt lat="49.10861" lon="0.13796">
        <ele>173.8</ele>
        <time>2024-03-20T17:12:57Z</time>
      </trkpt>
      <trkpt lat="49.10867" lon="0.13788">
        <ele>173.8</ele>
        <time>2024-03-20T17:12:58Z</time>
      </trkpt>
      <trkpt lat="49.10873" lon="0.1378">
        <ele>173.6</ele>
        <time>2024-03-20T17:12:59Z</time>
      </trkpt>
      <trkpt lat="49.1088" lon="0.13772">
        <ele>173.4</ele>
        <time>2024-03-20T17:13:00Z</time>
      </trkpt>
      <trkpt lat="49.10886" lon="0.13763">
        <ele>173.4</ele>
        <time>2024-03-20T17:13:01Z</time>
      </trkpt>
      <trkpt lat="49.10892" lon="0.13755">
        <ele>173.2</ele>
        <time>2024-03-20T17:13:02Z</time>
      </trkpt>
      <trkpt lat="49.10899" lon="0.13748">
        <ele>173.2</ele>
        <time>2024-03-20T17:13:03Z</time>
      </trkpt>
      <trkpt lat="49.10906" lon="0.13741">
        <ele>173</ele>
        <time>2024-03-20T17:13:04Z</time>
      </trkpt>
      <trkpt lat="49.10913" lon="0.13734">
        <ele>173</ele>
        <time>2024-03-20T17:13:05Z</time>
      </trkpt>
      <trkpt lat="49.1092" lon="0.13728">
        <ele>173</ele>
        <time>2024-03-20T17:13:06Z</time>
      </trkpt>
      <trkpt lat="49.10927" lon="0.13721">
        <ele>173</ele>
        <time>2024-03-20T17:13:07Z</time>
      </trkpt>
      <trkpt lat="49.10934" lon="0.13715">
        <ele>172.8</ele>
        <time>2024-03-20T17:13:08Z</time>
      </trkpt>
      <trkpt lat="49.10942" lon="0.13709">
        <ele>172.8</ele>
        <time>2024-03-20T17:13:09Z</time>
      </trkpt>
      <trkpt lat="49.1095" lon="0.13704">
        <ele>172.8</ele>
        <time>2024-03-20T17:13:10Z</time>
      </trkpt>
      <trkpt lat="49.10958" lon="0.137">
        <ele>172.6</ele>
        <time>2024-03-20T17:13:11Z</time>
      </trkpt>
      <trkpt lat="49.10967" lon="0.13696">
        <ele>172.6</ele>
        <time>2024-03-20T17:13:12Z</time>
      </trkpt>
      <trkpt lat="49.10975" lon="0.13693">
        <ele>172.6</ele>
        <time>2024-03-20T17:13:13Z</time>
      </trkpt>
      <trkpt lat="49.10983" lon="0.13691">
        <ele>172.6</ele>
        <time>2024-03-20T17:13:14Z</time>
      </trkpt>
      <trkpt lat="49.10992" lon="0.13689">
        <ele>172.6</ele>
        <time>2024-03-20T17:13:15Z</time>
      </trkpt>
      <trkpt lat="49.11" lon="0.13687">
        <ele>172.4</ele>
        <time>2024-03-20T17:13:16Z</time>
      </trkpt>
      <trkpt lat="49.11009" lon="0.13685">
        <ele>172.4</ele>
        <time>2024-03-20T17:13:17Z</time>
      </trkpt>
      <trkpt lat="49.11017" lon="0.13684">
        <ele>172.2</ele>
        <time>2024-03-20T17:13:18Z</time>
      </trkpt>
      <trkpt lat="49.11025" lon="0.13684">
        <ele>172</ele>
        <time>2024-03-20T17:13:19Z</time>
      </trkpt>
      <trkpt lat="49.11034" lon="0.13684">
        <ele>171.8</ele>
        <time>2024-03-20T17:13:20Z</time>
      </trkpt>
      <trkpt lat="49.11042" lon="0.13684">
        <ele>171.6</ele>
        <time>2024-03-20T17:13:21Z</time>
      </trkpt>
      <trkpt lat="49.11051" lon="0.13686">
        <ele>171.6</ele>
        <time>2024-03-20T17:13:22Z</time>
      </trkpt>
      <trkpt lat="49.11059" lon="0.13687">
        <ele>171.4</ele>
        <time>2024-03-20T17:13:23Z</time>
      </trkpt>
      <trkpt lat="49.11067" lon="0.13689">
        <ele>171.4</ele>
        <time>2024-03-20T17:13:24Z</time>
      </trkpt>
      <trkpt lat="49.11075" lon="0.13691">
        <ele>171.2</ele>
        <time>2024-03-20T17:13:25Z</time>
      </trkpt>
      <trkpt lat="49.11083" lon="0.13694">
        <ele>171.2</ele>
        <time>2024-03-20T17:13:26Z</time>
      </trkpt>
      <trkpt lat="49.11091" lon="0.13697">
        <ele>171.2</ele>
        <time>2024-03-20T17:13:27Z</time>
      </trkpt>
      <trkpt lat="49.11099" lon="0.137">
        <ele>171</ele>
        <time>2024-03-20T17:13:28Z</time>
      </trkpt>
      <trkpt lat="49.11106" lon="0.13704">
        <ele>171</ele>
        <time>2024-03-20T17:13:29Z</time>
      </trkpt>
      <trkpt lat="49.11114" lon="0.13708">
        <ele>171</ele>
        <time>2024-03-20T17:13:30Z</time>
      </trkpt>
      <trkpt lat="49.11122" lon="0.13712">
        <ele>170.8</ele>
        <time>2024-03-20T17:13:31Z</time>
      </trkpt>
      <trkpt lat="49.11129" lon="0.13716">
        <ele>170.8</ele>
        <time>2024-03-20T17:13:32Z</time>
      </trkpt>
      <trkpt lat="49.11137" lon="0.13721">
        <ele>170.8</ele>
        <time>2024-03-20T17:13:33Z</time>
      </trkpt>
      <trkpt lat="49.11144" lon="0.13725">
        <ele>170.8</ele>
        <time>2024-03-20T17:13:34Z</time>
      </trkpt>
      <trkpt lat="49.11152" lon="0.13729">
        <ele>170.8</ele>
        <time>2024-03-20T17:13:35Z</time>
      </trkpt>
      <trkpt lat="49.11159" lon="0.13733">
        <ele>170.8</ele>
        <time>2024-03-20T17:13:36Z</time>
      </trkpt>
      <trkpt lat="49.11167" lon="0.13738">
        <ele>170.6</ele>
        <time>2024-03-20T17:13:37Z</time>
      </trkpt>
      <trkpt lat="49.11175" lon="0.13742">
        <ele>170.6</ele>
        <time>2024-03-20T17:13:38Z</time>
      </trkpt>
      <trkpt lat="49.11183" lon="0.13746">
        <ele>170.6</ele>
        <time>2024-03-20T17:13:39Z</time>
      </trkpt>
      <trkpt lat="49.1119" lon="0.1375">
        <ele>170.4</ele>
        <time>2024-03-20T17:13:40Z</time>
      </trkpt>
      <trkpt lat="49.11198" lon="0.13754">
        <ele>170.4</ele>
        <time>2024-03-20T17:13:41Z</time>
      </trkpt>
      <trkpt lat="49.11205" lon="0.13758">
        <ele>170.4</ele>
        <time>2024-03-20T17:13:42Z</time>
      </trkpt>
      <trkpt lat="49.11213" lon="0.13762">
        <ele>170.4</ele>
        <time>2024-03-20T17:13:43Z</time>
      </trkpt>
      <trkpt lat="49.11221" lon="0.13767">
        <ele>170.4</ele>
        <time>2024-03-20T17:13:44Z</time>
      </trkpt>
      <trkpt lat="49.11228" lon="0.13771">
        <ele>170.4</ele>
        <time>2024-03-20T17:13:45Z</time>
      </trkpt>
      <trkpt lat="49.11236" lon="0.13775">
        <ele>170.4</ele>
        <time>2024-03-20T17:13:46Z</time>
      </trkpt>
      <trkpt lat="49.11244" lon="0.13779">
        <ele>170.4</ele>
        <time>2024-03-20T17:13:47Z</time>
      </trkpt>
      <trkpt lat="49.11252" lon="0.13783">
        <ele>170.4</ele>
        <time>2024-03-20T17:13:48Z</time>
      </trkpt>
      <trkpt lat="49.1126" lon="0.13787">
        <ele>170.4</ele>
        <time>2024-03-20T17:13:49Z</time>
      </trkpt>
      <trkpt lat="49.11267" lon="0.13791">
        <ele>170.4</ele>
        <time>2024-03-20T17:13:50Z</time>
      </trkpt>
      <trkpt lat="49.11275" lon="0.13795">
        <ele>170.4</ele>
        <time>2024-03-20T17:13:51Z</time>
      </trkpt>
      <trkpt lat="49.11283" lon="0.13799">
        <ele>170.4</ele>
        <time>2024-03-20T17:13:52Z</time>
      </trkpt>
      <trkpt lat="49.1129" lon="0.13803">
        <ele>170.4</ele>
        <time>2024-03-20T17:13:53Z</time>
      </trkpt>
      <trkpt lat="49.11298" lon="0.13807">
        <ele>170.4</ele>
        <time>2024-03-20T17:13:54Z</time>
      </trkpt>
      <trkpt lat="49.11306" lon="0.13811">
        <ele>170.4</ele>
        <time>2024-03-20T17:13:55Z</time>
      </trkpt>
      <trkpt lat="49.11314" lon="0.13816">
        <ele>170.2</ele>
        <time>2024-03-20T17:13:56Z</time>
      </trkpt>
      <trkpt lat="49.11321" lon="0.1382">
        <ele>170.2</ele>
        <time>2024-03-20T17:13:57Z</time>
      </trkpt>
      <trkpt lat="49.11329" lon="0.13824">
        <ele>170.2</ele>
        <time>2024-03-20T17:13:58Z</time>
      </trkpt>
      <trkpt lat="49.11336" lon="0.13828">
        <ele>170.2</ele>
        <time>2024-03-20T17:13:59Z</time>
      </trkpt>
      <trkpt lat="49.11344" lon="0.13832">
        <ele>170.2</ele>
        <time>2024-03-20T17:14:00Z</time>
      </trkpt>
      <trkpt lat="49.11352" lon="0.13835">
        <ele>170.4</ele>
        <time>2024-03-20T17:14:01Z</time>
      </trkpt>
      <trkpt lat="49.1136" lon="0.13839">
        <ele>170.4</ele>
        <time>2024-03-20T17:14:02Z</time>
      </trkpt>
      <trkpt lat="49.11368" lon="0.13843">
        <ele>170.4</ele>
        <time>2024-03-20T17:14:03Z</time>
      </trkpt>
      <trkpt lat="49.11376" lon="0.13847">
        <ele>170.4</ele>
        <time>2024-03-20T17:14:04Z</time>
      </trkpt>
      <trkpt lat="49.11383" lon="0.1385">
        <ele>170.4</ele>
        <time>2024-03-20T17:14:05Z</time>
      </trkpt>
      <trkpt lat="49.11391" lon="0.13854">
        <ele>170.4</ele>
        <time>2024-03-20T17:14:06Z</time>
      </trkpt>
      <trkpt lat="49.11398" lon="0.13858">
        <ele>170.4</ele>
        <time>2024-03-20T17:14:07Z</time>
      </trkpt>
      <trkpt lat="49.11405" lon="0.13861">
        <ele>170.4</ele>
        <time>2024-03-20T17:14:08Z</time>
      </trkpt>
      <trkpt lat="49.11412" lon="0.13864">
        <ele>170.6</ele>
        <time>2024-03-20T17:14:09Z</time>
      </trkpt>
      <trkpt lat="49.11419" lon="0.13867">
        <ele>170.6</ele>
        <time>2024-03-20T17:14:10Z</time>
      </trkpt>
      <trkpt lat="49.11427" lon="0.1387">
        <ele>170.6</ele>
        <time>2024-03-20T17:14:11Z</time>
      </trkpt>
      <trkpt lat="49.11434" lon="0.13873">
        <ele>170.6</ele>
        <time>2024-03-20T17:14:12Z</time>
      </trkpt>
      <trkpt lat="49.11441" lon="0.13876">
        <ele>170.6</ele>
        <time>2024-03-20T17:14:13Z</time>
      </trkpt>
      <trkpt lat="49.11449" lon="0.13879">
        <ele>170.6</ele>
        <time>2024-03-20T17:14:14Z</time>
      </trkpt>
      <trkpt lat="49.11456" lon="0.13882">
        <ele>170.8</ele>
        <time>2024-03-20T17:14:15Z</time>
      </trkpt>
      <trkpt lat="49.11464" lon="0.13885">
        <ele>170.8</ele>
        <time>2024-03-20T17:14:16Z</time>
      </trkpt>
      <trkpt lat="49.11471" lon="0.13888">
        <ele>170.8</ele>
        <time>2024-03-20T17:14:17Z</time>
      </trkpt>
      <trkpt lat="49.11478" lon="0.13891">
        <ele>170.8</ele>
        <time>2024-03-20T17:14:18Z</time>
      </trkpt>
      <trkpt lat="49.11485" lon="0.13893">
        <ele>171</ele>
        <time>2024-03-20T17:14:19Z</time>
      </trkpt>
      <trkpt lat="49.11493" lon="0.13896">
        <ele>171.2</ele>
        <time>2024-03-20T17:14:20Z</time>
      </trkpt>
      <trkpt lat="49.115" lon="0.13898">
        <ele>171.2</ele>
        <time>2024-03-20T17:14:21Z</time>
      </trkpt>
      <trkpt lat="49.11507" lon="0.139">
        <ele>171.2</ele>
        <time>2024-03-20T17:14:22Z</time>
      </trkpt>
      <trkpt lat="49.11515" lon="0.13901">
        <ele>171.2</ele>
        <time>2024-03-20T17:14:23Z</time>
      </trkpt>
      <trkpt lat="49.11522" lon="0.13903">
        <ele>171.4</ele>
        <time>2024-03-20T17:14:24Z</time>
      </trkpt>
      <trkpt lat="49.11529" lon="0.13904">
        <ele>171.4</ele>
        <time>2024-03-20T17:14:25Z</time>
      </trkpt>
      <trkpt lat="49.11536" lon="0.13905">
        <ele>171.6</ele>
        <time>2024-03-20T17:14:26Z</time>
      </trkpt>
      <trkpt lat="49.11543" lon="0.13905">
        <ele>171.8</ele>
        <time>2024-03-20T17:14:27Z</time>
      </trkpt>
      <trkpt lat="49.11551" lon="0.13905">
        <ele>171.8</ele>
        <time>2024-03-20T17:14:28Z</time>
      </trkpt>
      <trkpt lat="49.11558" lon="0.13905">
        <ele>171.8</ele>
        <time>2024-03-20T17:14:29Z</time>
      </trkpt>
      <trkpt lat="49.11565" lon="0.13904">
        <ele>172</ele>
        <time>2024-03-20T17:14:30Z</time>
      </trkpt>
      <trkpt lat="49.11572" lon="0.13903">
        <ele>172</ele>
        <time>2024-03-20T17:14:31Z</time>
      </trkpt>
      <trkpt lat="49.11579" lon="0.13901">
        <ele>172</ele>
        <time>2024-03-20T17:14:32Z</time>
      </trkpt>
      <trkpt lat="49.11586" lon="0.13899">
        <ele>172</ele>
        <time>2024-03-20T17:14:33Z</time>
      </trkpt>
      <trkpt lat="49.11594" lon="0.13897">
        <ele>172.2</ele>
        <time>2024-03-20T17:14:34Z</time>
      </trkpt>
      <trkpt lat="49.11602" lon="0.13895">
        <ele>172.2</ele>
        <time>2024-03-20T17:14:35Z</time>
      </trkpt>
      <trkpt lat="49.1161" lon="0.13892">
        <ele>172.4</ele>
        <time>2024-03-20T17:14:36Z</time>
      </trkpt>
      <trkpt lat="49.11617" lon="0.1389">
        <ele>172.6</ele>
        <time>2024-03-20T17:14:37Z</time>
      </trkpt>
      <trkpt lat="49.11625" lon="0.13888">
        <ele>172.8</ele>
        <time>2024-03-20T17:14:38Z</time>
      </trkpt>
      <trkpt lat="49.11632" lon="0.13885">
        <ele>172.8</ele>
        <time>2024-03-20T17:14:39Z</time>
      </trkpt>
      <trkpt lat="49.11639" lon="0.13882">
        <ele>172.8</ele>
        <time>2024-03-20T17:14:40Z</time>
      </trkpt>
      <trkpt lat="49.11646" lon="0.1388">
        <ele>173</ele>
        <time>2024-03-20T17:14:41Z</time>
      </trkpt>
      <trkpt lat="49.11654" lon="0.13878">
        <ele>173</ele>
        <time>2024-03-20T17:14:42Z</time>
      </trkpt>
      <trkpt lat="49.11662" lon="0.13876">
        <ele>173</ele>
        <time>2024-03-20T17:14:43Z</time>
      </trkpt>
      <trkpt lat="49.11669" lon="0.13874">
        <ele>173.2</ele>
        <time>2024-03-20T17:14:44Z</time>
      </trkpt>
      <trkpt lat="49.11677" lon="0.13872">
        <ele>173.2</ele>
        <time>2024-03-20T17:14:45Z</time>
      </trkpt>
      <trkpt lat="49.11685" lon="0.1387">
        <ele>173.2</ele>
        <time>2024-03-20T17:14:46Z</time>
      </trkpt>
      <trkpt lat="49.11693" lon="0.13868">
        <ele>173.4</ele>
        <time>2024-03-20T17:14:47Z</time>
      </trkpt>
      <trkpt lat="49.117" lon="0.13865">
        <ele>173.4</ele>
        <time>2024-03-20T17:14:48Z</time>
      </trkpt>
      <trkpt lat="49.11708" lon="0.13863">
        <ele>173.4</ele>
        <time>2024-03-20T17:14:49Z</time>
      </trkpt>
      <trkpt lat="49.11715" lon="0.13861">
        <ele>173.4</ele>
        <time>2024-03-20T17:14:50Z</time>
      </trkpt>
      <trkpt lat="49.11723" lon="0.13858">
        <ele>173.4</ele>
        <time>2024-03-20T17:14:51Z</time>
      </trkpt>
      <trkpt lat="49.1173" lon="0.13856">
        <ele>173.4</ele>
        <time>2024-03-20T17:14:52Z</time>
      </trkpt>
      <trkpt lat="49.11737" lon="0.13854">
        <ele>173.6</ele>
        <time>2024-03-20T17:14:53Z</time>
      </trkpt>
      <trkpt lat="49.11745" lon="0.13851">
        <ele>173.6</ele>
        <time>2024-03-20T17:14:54Z</time>
      </trkpt>
      <trkpt lat="49.11753" lon="0.13849">
        <ele>173.6</ele>
        <time>2024-03-20T17:14:55Z</time>
      </trkpt>
      <trkpt lat="49.1176" lon="0.13847">
        <ele>173.6</ele>
        <time>2024-03-20T17:14:56Z</time>
      </trkpt>
      <trkpt lat="49.11768" lon="0.13845">
        <ele>173.8</ele>
        <time>2024-03-20T17:14:57Z</time>
      </trkpt>
      <trkpt lat="49.11775" lon="0.13843">
        <ele>174</ele>
        <time>2024-03-20T17:14:58Z</time>
      </trkpt>
      <trkpt lat="49.11783" lon="0.13841">
        <ele>174</ele>
        <time>2024-03-20T17:14:59Z</time>
      </trkpt>
      <trkpt lat="49.11791" lon="0.13838">
        <ele>174.2</ele>
        <time>2024-03-20T17:15:00Z</time>
      </trkpt>
      <trkpt lat="49.11798" lon="0.13836">
        <ele>174</ele>
        <time>2024-03-20T17:15:01Z</time>
      </trkpt>
      <trkpt lat="49.11806" lon="0.13833">
        <ele>174</ele>
        <time>2024-03-20T17:15:02Z</time>
      </trkpt>
      <trkpt lat="49.11813" lon="0.1383">
        <ele>174.2</ele>
        <time>2024-03-20T17:15:03Z</time>
      </trkpt>
      <trkpt lat="49.11821" lon="0.13828">
        <ele>174.2</ele>
        <time>2024-03-20T17:15:04Z</time>
      </trkpt>
      <trkpt lat="49.11829" lon="0.13826">
        <ele>174.2</ele>
        <time>2024-03-20T17:15:05Z</time>
      </trkpt>
      <trkpt lat="49.11837" lon="0.13824">
        <ele>174.2</ele>
        <time>2024-03-20T17:15:06Z</time>
      </trkpt>
      <trkpt lat="49.11844" lon="0.13823">
        <ele>174.2</ele>
        <time>2024-03-20T17:15:07Z</time>
      </trkpt>
      <trkpt lat="49.11853" lon="0.13822">
        <ele>174.4</ele>
        <time>2024-03-20T17:15:08Z</time>
      </trkpt>
      <trkpt lat="49.11861" lon="0.1382">
        <ele>174.4</ele>
        <time>2024-03-20T17:15:09Z</time>
      </trkpt>
      <trkpt lat="49.11869" lon="0.13819">
        <ele>174.6</ele>
        <time>2024-03-20T17:15:10Z</time>
      </trkpt>
      <trkpt lat="49.11877" lon="0.13818">
        <ele>174.6</ele>
        <time>2024-03-20T17:15:11Z</time>
      </trkpt>
      <trkpt lat="49.11885" lon="0.13817">
        <ele>174.6</ele>
        <time>2024-03-20T17:15:12Z</time>
      </trkpt>
      <trkpt lat="49.11893" lon="0.13816">
        <ele>174.6</ele>
        <time>2024-03-20T17:15:13Z</time>
      </trkpt>
      <trkpt lat="49.11902" lon="0.13816">
        <ele>174.6</ele>
        <time>2024-03-20T17:15:14Z</time>
      </trkpt>
      <trkpt lat="49.1191" lon="0.13816">
        <ele>174.6</ele>
        <time>2024-03-20T17:15:15Z</time>
      </trkpt>
      <trkpt lat="49.11918" lon="0.13817">
        <ele>174.6</ele>
        <time>2024-03-20T17:15:16Z</time>
      </trkpt>
      <trkpt lat="49.11926" lon="0.13818">
        <ele>174.6</ele>
        <time>2024-03-20T17:15:17Z</time>
      </trkpt>
      <trkpt lat="49.11935" lon="0.13819">
        <ele>174.6</ele>
        <time>2024-03-20T17:15:18Z</time>
      </trkpt>
      <trkpt lat="49.11943" lon="0.1382">
        <ele>174.6</ele>
        <time>2024-03-20T17:15:19Z</time>
      </trkpt>
      <trkpt lat="49.11952" lon="0.13821">
        <ele>174.4</ele>
        <time>2024-03-20T17:15:20Z</time>
      </trkpt>
      <trkpt lat="49.1196" lon="0.13822">
        <ele>174.4</ele>
        <time>2024-03-20T17:15:21Z</time>
      </trkpt>
      <trkpt lat="49.11968" lon="0.13823">
        <ele>174.2</ele>
        <time>2024-03-20T17:15:22Z</time>
      </trkpt>
      <trkpt lat="49.11976" lon="0.13823">
        <ele>174.2</ele>
        <time>2024-03-20T17:15:23Z</time>
      </trkpt>
      <trkpt lat="49.11985" lon="0.13823">
        <ele>173.8</ele>
        <time>2024-03-20T17:15:24Z</time>
      </trkpt>
      <trkpt lat="49.11993" lon="0.13823">
        <ele>173.6</ele>
        <time>2024-03-20T17:15:25Z</time>
      </trkpt>
      <trkpt lat="49.12001" lon="0.13822">
        <ele>173.6</ele>
        <time>2024-03-20T17:15:26Z</time>
      </trkpt>
      <trkpt lat="49.12009" lon="0.1382">
        <ele>173.2</ele>
        <time>2024-03-20T17:15:27Z</time>
      </trkpt>
      <trkpt lat="49.12017" lon="0.13816">
        <ele>173.2</ele>
        <time>2024-03-20T17:15:28Z</time>
      </trkpt>
      <trkpt lat="49.12025" lon="0.13812">
        <ele>172.8</ele>
        <time>2024-03-20T17:15:29Z</time>
      </trkpt>
      <trkpt lat="49.12032" lon="0.13808">
        <ele>172.8</ele>
        <time>2024-03-20T17:15:30Z</time>
      </trkpt>
      <trkpt lat="49.1204" lon="0.13804">
        <ele>172.6</ele>
        <time>2024-03-20T17:15:31Z</time>
      </trkpt>
      <trkpt lat="49.12048" lon="0.138">
        <ele>172.4</ele>
        <time>2024-03-20T17:15:32Z</time>
      </trkpt>
      <trkpt lat="49.12056" lon="0.13796">
        <ele>172.4</ele>
        <time>2024-03-20T17:15:33Z</time>
      </trkpt>
      <trkpt lat="49.12063" lon="0.13791">
        <ele>172.4</ele>
        <time>2024-03-20T17:15:34Z</time>
      </trkpt>
      <trkpt lat="49.12071" lon="0.13787">
        <ele>172.4</ele>
        <time>2024-03-20T17:15:35Z</time>
      </trkpt>
      <trkpt lat="49.12079" lon="0.13783">
        <ele>172.2</ele>
        <time>2024-03-20T17:15:36Z</time>
      </trkpt>
      <trkpt lat="49.12087" lon="0.13779">
        <ele>172.2</ele>
        <time>2024-03-20T17:15:37Z</time>
      </trkpt>
      <trkpt lat="49.12095" lon="0.13775">
        <ele>172</ele>
        <time>2024-03-20T17:15:38Z</time>
      </trkpt>
      <trkpt lat="49.12104" lon="0.13772">
        <ele>171.6</ele>
        <time>2024-03-20T17:15:39Z</time>
      </trkpt>
      <trkpt lat="49.12112" lon="0.1377">
        <ele>171.6</ele>
        <time>2024-03-20T17:15:40Z</time>
      </trkpt>
      <trkpt lat="49.12121" lon="0.13768">
        <ele>171.4</ele>
        <time>2024-03-20T17:15:41Z</time>
      </trkpt>
      <trkpt lat="49.12129" lon="0.13767">
        <ele>171.4</ele>
        <time>2024-03-20T17:15:42Z</time>
      </trkpt>
      <trkpt lat="49.12138" lon="0.13767">
        <ele>171.2</ele>
        <time>2024-03-20T17:15:43Z</time>
      </trkpt>
      <trkpt lat="49.12146" lon="0.13767">
        <ele>171.2</ele>
        <time>2024-03-20T17:15:44Z</time>
      </trkpt>
      <trkpt lat="49.12154" lon="0.13768">
        <ele>171.2</ele>
        <time>2024-03-20T17:15:45Z</time>
      </trkpt>
      <trkpt lat="49.12163" lon="0.1377">
        <ele>171</ele>
        <time>2024-03-20T17:15:46Z</time>
      </trkpt>
      <trkpt lat="49.12171" lon="0.13771">
        <ele>171</ele>
        <time>2024-03-20T17:15:47Z</time>
      </trkpt>
      <trkpt lat="49.12179" lon="0.13773">
        <ele>170.8</ele>
        <time>2024-03-20T17:15:48Z</time>
      </trkpt>
      <trkpt lat="49.12187" lon="0.13775">
        <ele>170.8</ele>
        <time>2024-03-20T17:15:49Z</time>
      </trkpt>
      <trkpt lat="49.12195" lon="0.13777">
        <ele>170.8</ele>
        <time>2024-03-20T17:15:50Z</time>
      </trkpt>
      <trkpt lat="49.12203" lon="0.13778">
        <ele>170.8</ele>
        <time>2024-03-20T17:15:51Z</time>
      </trkpt>
      <trkpt lat="49.12211" lon="0.13779">
        <ele>170.8</ele>
        <time>2024-03-20T17:15:52Z</time>
      </trkpt>
      <trkpt lat="49.12219" lon="0.1378">
        <ele>170.8</ele>
        <time>2024-03-20T17:15:53Z</time>
      </trkpt>
      <trkpt lat="49.12228" lon="0.13781">
        <ele>170.8</ele>
        <time>2024-03-20T17:15:54Z</time>
      </trkpt>
      <trkpt lat="49.12236" lon="0.13782">
        <ele>170.8</ele>
        <time>2024-03-20T17:15:55Z</time>
      </trkpt>
      <trkpt lat="49.12244" lon="0.13784">
        <ele>170.8</ele>
        <time>2024-03-20T17:15:56Z</time>
      </trkpt>
      <trkpt lat="49.12252" lon="0.13786">
        <ele>170.6</ele>
        <time>2024-03-20T17:15:57Z</time>
      </trkpt>
      <trkpt lat="49.12259" lon="0.13791">
        <ele>170.6</ele>
        <time>2024-03-20T17:15:58Z</time>
      </trkpt>
      <trkpt lat="49.12267" lon="0.13796">
        <ele>170.6</ele>
        <time>2024-03-20T17:15:59Z</time>
      </trkpt>
      <trkpt lat="49.12273" lon="0.13803">
        <ele>170.6</ele>
        <time>2024-03-20T17:16:00Z</time>
      </trkpt>
      <trkpt lat="49.1228" lon="0.13811">
        <ele>170.6</ele>
        <time>2024-03-20T17:16:01Z</time>
      </trkpt>
      <trkpt lat="49.12285" lon="0.13821">
        <ele>170.6</ele>
        <time>2024-03-20T17:16:02Z</time>
      </trkpt>
      <trkpt lat="49.1229" lon="0.1383">
        <ele>170.6</ele>
        <time>2024-03-20T17:16:03Z</time>
      </trkpt>
      <trkpt lat="49.12295" lon="0.1384">
        <ele>170.6</ele>
        <time>2024-03-20T17:16:04Z</time>
      </trkpt>
      <trkpt lat="49.123" lon="0.1385">
        <ele>170.6</ele>
        <time>2024-03-20T17:16:05Z</time>
      </trkpt>
      <trkpt lat="49.12304" lon="0.1386">
        <ele>170.6</ele>
        <time>2024-03-20T17:16:06Z</time>
      </trkpt>
      <trkpt lat="49.12309" lon="0.13869">
        <ele>170.6</ele>
        <time>2024-03-20T17:16:07Z</time>
      </trkpt>
      <trkpt lat="49.12314" lon="0.13879">
        <ele>170.6</ele>
        <time>2024-03-20T17:16:08Z</time>
      </trkpt>
      <trkpt lat="49.12319" lon="0.13888">
        <ele>170.8</ele>
        <time>2024-03-20T17:16:09Z</time>
      </trkpt>
      <trkpt lat="49.12324" lon="0.13898">
        <ele>170.8</ele>
        <time>2024-03-20T17:16:10Z</time>
      </trkpt>
      <trkpt lat="49.12329" lon="0.13906">
        <ele>170.8</ele>
        <time>2024-03-20T17:16:11Z</time>
      </trkpt>
      <trkpt lat="49.12334" lon="0.13915">
        <ele>170.8</ele>
        <time>2024-03-20T17:16:12Z</time>
      </trkpt>
      <trkpt lat="49.1234" lon="0.13924">
        <ele>170.8</ele>
        <time>2024-03-20T17:16:13Z</time>
      </trkpt>
      <trkpt lat="49.12345" lon="0.13932">
        <ele>170.8</ele>
        <time>2024-03-20T17:16:14Z</time>
      </trkpt>
      <trkpt lat="49.1235" lon="0.13939">
        <ele>170.8</ele>
        <time>2024-03-20T17:16:15Z</time>
      </trkpt>
      <trkpt lat="49.12356" lon="0.13947">
        <ele>170.8</ele>
        <time>2024-03-20T17:16:16Z</time>
      </trkpt>
      <trkpt lat="49.12362" lon="0.13954">
        <ele>170.8</ele>
        <time>2024-03-20T17:16:17Z</time>
      </trkpt>
      <trkpt lat="49.12368" lon="0.13961">
        <ele>170.8</ele>
        <time>2024-03-20T17:16:18Z</time>
      </trkpt>
      <trkpt lat="49.12374" lon="0.13967">
        <ele>170.8</ele>
        <time>2024-03-20T17:16:19Z</time>
      </trkpt>
      <trkpt lat="49.1238" lon="0.13974">
        <ele>170.8</ele>
        <time>2024-03-20T17:16:20Z</time>
      </trkpt>
      <trkpt lat="49.12386" lon="0.1398">
        <ele>170.8</ele>
        <time>2024-03-20T17:16:21Z</time>
      </trkpt>
      <trkpt lat="49.12392" lon="0.13987">
        <ele>171</ele>
        <time>2024-03-20T17:16:22Z</time>
      </trkpt>
      <trkpt lat="49.12398" lon="0.13994">
        <ele>171</ele>
        <time>2024-03-20T17:16:23Z</time>
      </trkpt>
      <trkpt lat="49.12403" lon="0.14001">
        <ele>171.2</ele>
        <time>2024-03-20T17:16:24Z</time>
      </trkpt>
      <trkpt lat="49.12409" lon="0.14008">
        <ele>171.2</ele>
        <time>2024-03-20T17:16:25Z</time>
      </trkpt>
      <trkpt lat="49.12415" lon="0.14016">
        <ele>171.2</ele>
        <time>2024-03-20T17:16:26Z</time>
      </trkpt>
      <trkpt lat="49.1242" lon="0.14023">
        <ele>171.2</ele>
        <time>2024-03-20T17:16:27Z</time>
      </trkpt>
      <trkpt lat="49.12426" lon="0.14031">
        <ele>171.4</ele>
        <time>2024-03-20T17:16:28Z</time>
      </trkpt>
      <trkpt lat="49.12432" lon="0.14038">
        <ele>171.6</ele>
        <time>2024-03-20T17:16:29Z</time>
      </trkpt>
      <trkpt lat="49.12438" lon="0.14046">
        <ele>171.6</ele>
        <time>2024-03-20T17:16:30Z</time>
      </trkpt>
      <trkpt lat="49.12443" lon="0.14054">
        <ele>171.8</ele>
        <time>2024-03-20T17:16:31Z</time>
      </trkpt>
      <trkpt lat="49.12449" lon="0.14062">
        <ele>172</ele>
        <time>2024-03-20T17:16:32Z</time>
      </trkpt>
      <trkpt lat="49.12454" lon="0.1407">
        <ele>172.4</ele>
        <time>2024-03-20T17:16:33Z</time>
      </trkpt>
      <trkpt lat="49.1246" lon="0.14077">
        <ele>172.4</ele>
        <time>2024-03-20T17:16:34Z</time>
      </trkpt>
      <trkpt lat="49.12465" lon="0.14085">
        <ele>172.6</ele>
        <time>2024-03-20T17:16:35Z</time>
      </trkpt>
      <trkpt lat="49.12471" lon="0.14092">
        <ele>172.8</ele>
        <time>2024-03-20T17:16:36Z</time>
      </trkpt>
      <trkpt lat="49.12477" lon="0.141">
        <ele>173</ele>
        <time>2024-03-20T17:16:37Z</time>
      </trkpt>
      <trkpt lat="49.12483" lon="0.14107">
        <ele>173.2</ele>
        <time>2024-03-20T17:16:38Z</time>
      </trkpt>
      <trkpt lat="49.12488" lon="0.14114">
        <ele>173.2</ele>
        <time>2024-03-20T17:16:39Z</time>
      </trkpt>
      <trkpt lat="49.12494" lon="0.14121">
        <ele>173.4</ele>
        <time>2024-03-20T17:16:40Z</time>
      </trkpt>
      <trkpt lat="49.125" lon="0.14128">
        <ele>173.4</ele>
        <time>2024-03-20T17:16:41Z</time>
      </trkpt>
      <trkpt lat="49.12506" lon="0.14136">
        <ele>173.6</ele>
        <time>2024-03-20T17:16:42Z</time>
      </trkpt>
      <trkpt lat="49.12512" lon="0.14143">
        <ele>173.6</ele>
        <time>2024-03-20T17:16:43Z</time>
      </trkpt>
      <trkpt lat="49.12518" lon="0.1415">
        <ele>173.6</ele>
        <time>2024-03-20T17:16:44Z</time>
      </trkpt>
      <trkpt lat="49.12525" lon="0.14158">
        <ele>173.8</ele>
        <time>2024-03-20T17:16:45Z</time>
      </trkpt>
      <trkpt lat="49.12531" lon="0.14165">
        <ele>173.8</ele>
        <time>2024-03-20T17:16:46Z</time>
      </trkpt>
      <trkpt lat="49.12537" lon="0.14172">
        <ele>173.8</ele>
        <time>2024-03-20T17:16:47Z</time>
      </trkpt>
      <trkpt lat="49.12543" lon="0.14179">
        <ele>173.8</ele>
        <time>2024-03-20T17:16:48Z</time>
      </trkpt>
      <trkpt lat="49.12549" lon="0.14187">
        <ele>173.8</ele>
        <time>2024-03-20T17:16:49Z</time>
      </trkpt>
      <trkpt lat="49.12556" lon="0.14194">
        <ele>173.8</ele>
        <time>2024-03-20T17:16:50Z</time>
      </trkpt>
      <trkpt lat="49.12562" lon="0.14202">
        <ele>173.8</ele>
        <time>2024-03-20T17:16:51Z</time>
      </trkpt>
      <trkpt lat="49.12568" lon="0.14209">
        <ele>173.8</ele>
        <time>2024-03-20T17:16:52Z</time>
      </trkpt>
      <trkpt lat="49.12575" lon="0.14217">
        <ele>173.8</ele>
        <time>2024-03-20T17:16:53Z</time>
      </trkpt>
      <trkpt lat="49.12581" lon="0.14224">
        <ele>173.8</ele>
        <time>2024-03-20T17:16:54Z</time>
      </trkpt>
      <trkpt lat="49.12588" lon="0.14231">
        <ele>173.8</ele>
        <time>2024-03-20T17:16:55Z</time>
      </trkpt>
      <trkpt lat="49.12594" lon="0.14239">
        <ele>174</ele>
        <time>2024-03-20T17:16:56Z</time>
      </trkpt>
      <trkpt lat="49.12601" lon="0.14246">
        <ele>174</ele>
        <time>2024-03-20T17:16:57Z</time>
      </trkpt>
      <trkpt lat="49.12607" lon="0.14253">
        <ele>174</ele>
        <time>2024-03-20T17:16:58Z</time>
      </trkpt>
      <trkpt lat="49.12613" lon="0.1426">
        <ele>174</ele>
        <time>2024-03-20T17:16:59Z</time>
      </trkpt>
      <trkpt lat="49.12619" lon="0.14267">
        <ele>174</ele>
        <time>2024-03-20T17:17:00Z</time>
      </trkpt>
      <trkpt lat="49.12625" lon="0.14274">
        <ele>174</ele>
        <time>2024-03-20T17:17:01Z</time>
      </trkpt>
      <trkpt lat="49.12631" lon="0.14282">
        <ele>174</ele>
        <time>2024-03-20T17:17:02Z</time>
      </trkpt>
      <trkpt lat="49.12638" lon="0.14289">
        <ele>174</ele>
        <time>2024-03-20T17:17:03Z</time>
      </trkpt>
      <trkpt lat="49.12644" lon="0.14296">
        <ele>174</ele>
        <time>2024-03-20T17:17:04Z</time>
      </trkpt>
      <trkpt lat="49.1265" lon="0.14303">
        <ele>174</ele>
        <time>2024-03-20T17:17:05Z</time>
      </trkpt>
      <trkpt lat="49.12656" lon="0.14311">
        <ele>174</ele>
        <time>2024-03-20T17:17:06Z</time>
      </trkpt>
      <trkpt lat="49.12662" lon="0.14318">
        <ele>174</ele>
        <time>2024-03-20T17:17:07Z</time>
      </trkpt>
      <trkpt lat="49.12668" lon="0.14325">
        <ele>174</ele>
        <time>2024-03-20T17:17:08Z</time>
      </trkpt>
      <trkpt lat="49.12674" lon="0.14333">
        <ele>174</ele>
        <time>2024-03-20T17:17:09Z</time>
      </trkpt>
      <trkpt lat="49.1268" lon="0.1434">
        <ele>174</ele>
        <time>2024-03-20T17:17:10Z</time>
      </trkpt>
      <trkpt lat="49.12685" lon="0.14347">
        <ele>174</ele>
        <time>2024-03-20T17:17:11Z</time>
      </trkpt>
      <trkpt lat="49.12691" lon="0.14355">
        <ele>174</ele>
        <time>2024-03-20T17:17:12Z</time>
      </trkpt>
      <trkpt lat="49.12696" lon="0.14363">
        <ele>174</ele>
        <time>2024-03-20T17:17:13Z</time>
      </trkpt>
      <trkpt lat="49.12702" lon="0.14371">
        <ele>174</ele>
        <time>2024-03-20T17:17:14Z</time>
      </trkpt>
      <trkpt lat="49.12708" lon="0.14379">
        <ele>173.8</ele>
        <time>2024-03-20T17:17:15Z</time>
      </trkpt>
      <trkpt lat="49.12714" lon="0.14387">
        <ele>173.8</ele>
        <time>2024-03-20T17:17:16Z</time>
      </trkpt>
      <trkpt lat="49.12719" lon="0.14395">
        <ele>173.8</ele>
        <time>2024-03-20T17:17:17Z</time>
      </trkpt>
      <trkpt lat="49.12725" lon="0.14403">
        <ele>173.8</ele>
        <time>2024-03-20T17:17:18Z</time>
      </trkpt>
      <trkpt lat="49.12731" lon="0.1441">
        <ele>173.8</ele>
        <time>2024-03-20T17:17:19Z</time>
      </trkpt>
      <trkpt lat="49.12737" lon="0.14418">
        <ele>173.8</ele>
        <time>2024-03-20T17:17:20Z</time>
      </trkpt>
      <trkpt lat="49.12743" lon="0.14426">
        <ele>173.8</ele>
        <time>2024-03-20T17:17:21Z</time>
      </trkpt>
      <trkpt lat="49.12749" lon="0.14433">
        <ele>173.8</ele>
        <time>2024-03-20T17:17:22Z</time>
      </trkpt>
      <trkpt lat="49.12755" lon="0.14439">
        <ele>173.8</ele>
        <time>2024-03-20T17:17:23Z</time>
      </trkpt>
      <trkpt lat="49.12761" lon="0.14446">
        <ele>174</ele>
        <time>2024-03-20T17:17:24Z</time>
      </trkpt>
      <trkpt lat="49.12768" lon="0.14452">
        <ele>174</ele>
        <time>2024-03-20T17:17:25Z</time>
      </trkpt>
      <trkpt lat="49.12774" lon="0.14458">
        <ele>174</ele>
        <time>2024-03-20T17:17:26Z</time>
      </trkpt>
      <trkpt lat="49.12781" lon="0.14463">
        <ele>173.8</ele>
        <time>2024-03-20T17:17:27Z</time>
      </trkpt>
      <trkpt lat="49.12789" lon="0.14468">
        <ele>174</ele>
        <time>2024-03-20T17:17:28Z</time>
      </trkpt>
      <trkpt lat="49.12796" lon="0.14472">
        <ele>174</ele>
        <time>2024-03-20T17:17:29Z</time>
      </trkpt>
      <trkpt lat="49.12803" lon="0.14477">
        <ele>174</ele>
        <time>2024-03-20T17:17:30Z</time>
      </trkpt>
      <trkpt lat="49.12811" lon="0.14481">
        <ele>174</ele>
        <time>2024-03-20T17:17:31Z</time>
      </trkpt>
      <trkpt lat="49.12818" lon="0.14485">
        <ele>174.2</ele>
        <time>2024-03-20T17:17:32Z</time>
      </trkpt>
      <trkpt lat="49.12825" lon="0.14489">
        <ele>174.2</ele>
        <time>2024-03-20T17:17:33Z</time>
      </trkpt>
      <trkpt lat="49.12833" lon="0.14493">
        <ele>174.2</ele>
        <time>2024-03-20T17:17:34Z</time>
      </trkpt>
      <trkpt lat="49.1284" lon="0.14497">
        <ele>174.2</ele>
        <time>2024-03-20T17:17:35Z</time>
      </trkpt>
      <trkpt lat="49.12847" lon="0.14502">
        <ele>174.2</ele>
        <time>2024-03-20T17:17:36Z</time>
      </trkpt>
      <trkpt lat="49.12854" lon="0.14508">
        <ele>174.2</ele>
        <time>2024-03-20T17:17:37Z</time>
      </trkpt>
      <trkpt lat="49.12861" lon="0.14514">
        <ele>174.2</ele>
        <time>2024-03-20T17:17:38Z</time>
      </trkpt>
      <trkpt lat="49.12867" lon="0.1452">
        <ele>174.4</ele>
        <time>2024-03-20T17:17:39Z</time>
      </trkpt>
      <trkpt lat="49.12873" lon="0.14528">
        <ele>174.4</ele>
        <time>2024-03-20T17:17:40Z</time>
      </trkpt>
      <trkpt lat="49.12879" lon="0.14536">
        <ele>174.4</ele>
        <time>2024-03-20T17:17:41Z</time>
      </trkpt>
      <trkpt lat="49.12884" lon="0.14545">
        <ele>174.4</ele>
        <time>2024-03-20T17:17:42Z</time>
      </trkpt>
      <trkpt lat="49.1289" lon="0.14553">
        <ele>174.4</ele>
        <time>2024-03-20T17:17:43Z</time>
      </trkpt>
      <trkpt lat="49.12895" lon="0.14562">
        <ele>174.4</ele>
        <time>2024-03-20T17:17:44Z</time>
      </trkpt>
      <trkpt lat="49.129" lon="0.14572">
        <ele>174.4</ele>
        <time>2024-03-20T17:17:45Z</time>
      </trkpt>
      <trkpt lat="49.12905" lon="0.14581">
        <ele>174.4</ele>
        <time>2024-03-20T17:17:46Z</time>
      </trkpt>
      <trkpt lat="49.1291" lon="0.1459">
        <ele>174.4</ele>
        <time>2024-03-20T17:17:47Z</time>
      </trkpt>
      <trkpt lat="49.12914" lon="0.14599">
        <ele>174.4</ele>
        <time>2024-03-20T17:17:48Z</time>
      </trkpt>
      <trkpt lat="49.12919" lon="0.14608">
        <ele>174.4</ele>
        <time>2024-03-20T17:17:49Z</time>
      </trkpt>
      <trkpt lat="49.12924" lon="0.14617">
        <ele>174.4</ele>
        <time>2024-03-20T17:17:50Z</time>
      </trkpt>
      <trkpt lat="49.12929" lon="0.14626">
        <ele>174.4</ele>
        <time>2024-03-20T17:17:51Z</time>
      </trkpt>
      <trkpt lat="49.12934" lon="0.14635">
        <ele>174.4</ele>
        <time>2024-03-20T17:17:52Z</time>
      </trkpt>
      <trkpt lat="49.12939" lon="0.14645">
        <ele>174.4</ele>
        <time>2024-03-20T17:17:53Z</time>
      </trkpt>
      <trkpt lat="49.12944" lon="0.14655">
        <ele>174.4</ele>
        <time>2024-03-20T17:17:54Z</time>
      </trkpt>
      <trkpt lat="49.1295" lon="0.14665">
        <ele>174.4</ele>
        <time>2024-03-20T17:17:55Z</time>
      </trkpt>
      <trkpt lat="49.12955" lon="0.14675">
        <ele>174.4</ele>
        <time>2024-03-20T17:17:56Z</time>
      </trkpt>
      <trkpt lat="49.12961" lon="0.14684">
        <ele>174.4</ele>
        <time>2024-03-20T17:17:57Z</time>
      </trkpt>
      <trkpt lat="49.12966" lon="0.14694">
        <ele>174.4</ele>
        <time>2024-03-20T17:17:58Z</time>
      </trkpt>
      <trkpt lat="49.12972" lon="0.14703">
        <ele>174.4</ele>
        <time>2024-03-20T17:17:59Z</time>
      </trkpt>
      <trkpt lat="49.12977" lon="0.14713">
        <ele>174.4</ele>
        <time>2024-03-20T17:18:00Z</time>
      </trkpt>
      <trkpt lat="49.12982" lon="0.14723">
        <ele>174.4</ele>
        <time>2024-03-20T17:18:01Z</time>
      </trkpt>
      <trkpt lat="49.12987" lon="0.14733">
        <ele>174.2</ele>
        <time>2024-03-20T17:18:02Z</time>
      </trkpt>
      <trkpt lat="49.12993" lon="0.14742">
        <ele>174.2</ele>
        <time>2024-03-20T17:18:03Z</time>
      </trkpt>
      <trkpt lat="49.12998" lon="0.14751">
        <ele>174.2</ele>
        <time>2024-03-20T17:18:04Z</time>
      </trkpt>
      <trkpt lat="49.13004" lon="0.14761">
        <ele>174.2</ele>
        <time>2024-03-20T17:18:05Z</time>
      </trkpt>
      <trkpt lat="49.13009" lon="0.14769">
        <ele>174.2</ele>
        <time>2024-03-20T17:18:06Z</time>
      </trkpt>
      <trkpt lat="49.13015" lon="0.14779">
        <ele>174.2</ele>
        <time>2024-03-20T17:18:07Z</time>
      </trkpt>
      <trkpt lat="49.1302" lon="0.14787">
        <ele>174.2</ele>
        <time>2024-03-20T17:18:08Z</time>
      </trkpt>
      <trkpt lat="49.13025" lon="0.14796">
        <ele>174</ele>
        <time>2024-03-20T17:18:09Z</time>
      </trkpt>
      <trkpt lat="49.13031" lon="0.14804">
        <ele>174</ele>
        <time>2024-03-20T17:18:10Z</time>
      </trkpt>
      <trkpt lat="49.13036" lon="0.14811">
        <ele>174</ele>
        <time>2024-03-20T17:18:11Z</time>
      </trkpt>
      <trkpt lat="49.13043" lon="0.14817">
        <ele>174</ele>
        <time>2024-03-20T17:18:12Z</time>
      </trkpt>
      <trkpt lat="49.1305" lon="0.14822">
        <ele>174</ele>
        <time>2024-03-20T17:18:13Z</time>
      </trkpt>
      <trkpt lat="49.13057" lon="0.14825">
        <ele>173.8</ele>
        <time>2024-03-20T17:18:14Z</time>
      </trkpt>
      <trkpt lat="49.13065" lon="0.14827">
        <ele>173.8</ele>
        <time>2024-03-20T17:18:15Z</time>
      </trkpt>
      <trkpt lat="49.13073" lon="0.14829">
        <ele>173.8</ele>
        <time>2024-03-20T17:18:16Z</time>
      </trkpt>
      <trkpt lat="49.13081" lon="0.14829">
        <ele>173.8</ele>
        <time>2024-03-20T17:18:17Z</time>
      </trkpt>
      <trkpt lat="49.13089" lon="0.1483">
        <ele>173.8</ele>
        <time>2024-03-20T17:18:18Z</time>
      </trkpt>
      <trkpt lat="49.13097" lon="0.1483">
        <ele>173.8</ele>
        <time>2024-03-20T17:18:19Z</time>
      </trkpt>
      <trkpt lat="49.13105" lon="0.1483">
        <ele>173.8</ele>
        <time>2024-03-20T17:18:20Z</time>
      </trkpt>
      <trkpt lat="49.13113" lon="0.1483">
        <ele>173.8</ele>
        <time>2024-03-20T17:18:21Z</time>
      </trkpt>
      <trkpt lat="49.13121" lon="0.14831">
        <ele>173.8</ele>
        <time>2024-03-20T17:18:22Z</time>
      </trkpt>
      <trkpt lat="49.13128" lon="0.14831">
        <ele>174</ele>
        <time>2024-03-20T17:18:23Z</time>
      </trkpt>
      <trkpt lat="49.13136" lon="0.14831">
        <ele>174</ele>
        <time>2024-03-20T17:18:24Z</time>
      </trkpt>
      <trkpt lat="49.13144" lon="0.14831">
        <ele>174</ele>
        <time>2024-03-20T17:18:25Z</time>
      </trkpt>
      <trkpt lat="49.13152" lon="0.14832">
        <ele>174</ele>
        <time>2024-03-20T17:18:26Z</time>
      </trkpt>
      <trkpt lat="49.1316" lon="0.14832">
        <ele>174</ele>
        <time>2024-03-20T17:18:27Z</time>
      </trkpt>
      <trkpt lat="49.13168" lon="0.14833">
        <ele>174.2</ele>
        <time>2024-03-20T17:18:28Z</time>
      </trkpt>
      <trkpt lat="49.13176" lon="0.14833">
        <ele>174.2</ele>
        <time>2024-03-20T17:18:29Z</time>
      </trkpt>
      <trkpt lat="49.13184" lon="0.14833">
        <ele>174.2</ele>
        <time>2024-03-20T17:18:30Z</time>
      </trkpt>
      <trkpt lat="49.13192" lon="0.14834">
        <ele>174.4</ele>
        <time>2024-03-20T17:18:31Z</time>
      </trkpt>
      <trkpt lat="49.132" lon="0.14834">
        <ele>174.6</ele>
        <time>2024-03-20T17:18:32Z</time>
      </trkpt>
      <trkpt lat="49.13208" lon="0.14835">
        <ele>174.6</ele>
        <time>2024-03-20T17:18:33Z</time>
      </trkpt>
      <trkpt lat="49.13216" lon="0.14835">
        <ele>174.6</ele>
        <time>2024-03-20T17:18:34Z</time>
      </trkpt>
      <trkpt lat="49.13224" lon="0.14836">
        <ele>174.6</ele>
        <time>2024-03-20T17:18:35Z</time>
      </trkpt>
      <trkpt lat="49.13231" lon="0.14836">
        <ele>174.8</ele>
        <time>2024-03-20T17:18:36Z</time>
      </trkpt>
      <trkpt lat="49.13239" lon="0.14837">
        <ele>174.8</ele>
        <time>2024-03-20T17:18:37Z</time>
      </trkpt>
      <trkpt lat="49.13246" lon="0.14837">
        <ele>174.8</ele>
        <time>2024-03-20T17:18:38Z</time>
      </trkpt>
      <trkpt lat="49.13254" lon="0.14837">
        <ele>175</ele>
        <time>2024-03-20T17:18:39Z</time>
      </trkpt>
      <trkpt lat="49.13262" lon="0.14838">
        <ele>175</ele>
        <time>2024-03-20T17:18:40Z</time>
      </trkpt>
      <trkpt lat="49.13269" lon="0.14838">
        <ele>175</ele>
        <time>2024-03-20T17:18:41Z</time>
      </trkpt>
      <trkpt lat="49.13277" lon="0.14839">
        <ele>175</ele>
        <time>2024-03-20T17:18:42Z</time>
      </trkpt>
      <trkpt lat="49.13285" lon="0.14839">
        <ele>175</ele>
        <time>2024-03-20T17:18:43Z</time>
      </trkpt>
      <trkpt lat="49.13293" lon="0.1484">
        <ele>175</ele>
        <time>2024-03-20T17:18:44Z</time>
      </trkpt>
      <trkpt lat="49.13301" lon="0.1484">
        <ele>175</ele>
        <time>2024-03-20T17:18:45Z</time>
      </trkpt>
      <trkpt lat="49.13309" lon="0.1484">
        <ele>175.2</ele>
        <time>2024-03-20T17:18:46Z</time>
      </trkpt>
      <trkpt lat="49.13317" lon="0.1484">
        <ele>175.2</ele>
        <time>2024-03-20T17:18:47Z</time>
      </trkpt>
      <trkpt lat="49.13324" lon="0.14841">
        <ele>175.2</ele>
        <time>2024-03-20T17:18:48Z</time>
      </trkpt>
      <trkpt lat="49.13332" lon="0.14841">
        <ele>175.2</ele>
        <time>2024-03-20T17:18:49Z</time>
      </trkpt>
      <trkpt lat="49.1334" lon="0.14841">
        <ele>175.2</ele>
        <time>2024-03-20T17:18:50Z</time>
      </trkpt>
      <trkpt lat="49.13347" lon="0.14841">
        <ele>175.2</ele>
        <time>2024-03-20T17:18:51Z</time>
      </trkpt>
      <trkpt lat="49.13354" lon="0.14842">
        <ele>175.2</ele>
        <time>2024-03-20T17:18:52Z</time>
      </trkpt>
      <trkpt lat="49.13362" lon="0.14842">
        <ele>175.2</ele>
        <time>2024-03-20T17:18:53Z</time>
      </trkpt>
      <trkpt lat="49.13369" lon="0.14843">
        <ele>175.2</ele>
        <time>2024-03-20T17:18:54Z</time>
      </trkpt>
      <trkpt lat="49.13376" lon="0.14843">
        <ele>175.2</ele>
        <time>2024-03-20T17:18:55Z</time>
      </trkpt>
      <trkpt lat="49.13383" lon="0.14844">
        <ele>175.4</ele>
        <time>2024-03-20T17:18:56Z</time>
      </trkpt>
      <trkpt lat="49.13389" lon="0.14844">
        <ele>175.6</ele>
        <time>2024-03-20T17:18:57Z</time>
      </trkpt>
      <trkpt lat="49.13396" lon="0.14844">
        <ele>175.6</ele>
        <time>2024-03-20T17:18:58Z</time>
      </trkpt>
      <trkpt lat="49.13403" lon="0.14844">
        <ele>175.6</ele>
        <time>2024-03-20T17:18:59Z</time>
      </trkpt>
      <trkpt lat="49.1341" lon="0.14844">
        <ele>175.6</ele>
        <time>2024-03-20T17:19:00Z</time>
      </trkpt>
      <trkpt lat="49.13416" lon="0.14844">
        <ele>175.4</ele>
        <time>2024-03-20T17:19:01Z</time>
      </trkpt>
      <trkpt lat="49.13422" lon="0.14844">
        <ele>175.4</ele>
        <time>2024-03-20T17:19:02Z</time>
      </trkpt>
      <trkpt lat="49.13429" lon="0.14844">
        <ele>175.4</ele>
        <time>2024-03-20T17:19:03Z</time>
      </trkpt>
      <trkpt lat="49.13435" lon="0.14844">
        <ele>175.4</ele>
        <time>2024-03-20T17:19:04Z</time>
      </trkpt>
      <trkpt lat="49.13441" lon="0.14845">
        <ele>175.4</ele>
        <time>2024-03-20T17:19:05Z</time>
      </trkpt>
      <trkpt lat="49.13446" lon="0.14846">
        <ele>175.4</ele>
        <time>2024-03-20T17:19:06Z</time>
      </trkpt>
      <trkpt lat="49.13452" lon="0.14847">
        <ele>175.4</ele>
        <time>2024-03-20T17:19:07Z</time>
      </trkpt>
      <trkpt lat="49.13457" lon="0.14848">
        <ele>175.4</ele>
        <time>2024-03-20T17:19:08Z</time>
      </trkpt>
      <trkpt lat="49.13462" lon="0.14849">
        <ele>175.4</ele>
        <time>2024-03-20T17:19:09Z</time>
      </trkpt>
      <trkpt lat="49.13467" lon="0.1485">
        <ele>175.4</ele>
        <time>2024-03-20T17:19:10Z</time>
      </trkpt>
      <trkpt lat="49.13472" lon="0.1485">
        <ele>175.4</ele>
        <time>2024-03-20T17:19:11Z</time>
      </trkpt>
      <trkpt lat="49.13477" lon="0.14851">
        <ele>175.4</ele>
        <time>2024-03-20T17:19:12Z</time>
      </trkpt>
      <trkpt lat="49.13481" lon="0.14851">
        <ele>175.4</ele>
        <time>2024-03-20T17:19:13Z</time>
      </trkpt>
      <trkpt lat="49.13484" lon="0.14852">
        <ele>175.4</ele>
        <time>2024-03-20T17:19:14Z</time>
      </trkpt>
      <trkpt lat="49.13486" lon="0.14851">
        <ele>175.4</ele>
        <time>2024-03-20T17:19:15Z</time>
      </trkpt>
      <trkpt lat="49.13488" lon="0.14851">
        <ele>175.4</ele>
        <time>2024-03-20T17:19:16Z</time>
      </trkpt>
      <trkpt lat="49.1349" lon="0.14849">
        <ele>175.4</ele>
        <time>2024-03-20T17:19:17Z</time>
      </trkpt>
      <trkpt lat="49.13493" lon="0.14846">
        <ele>175.4</ele>
        <time>2024-03-20T17:19:18Z</time>
      </trkpt>
      <trkpt lat="49.13495" lon="0.14841">
        <ele>175.6</ele>
        <time>2024-03-20T17:19:19Z</time>
      </trkpt>
      <trkpt lat="49.13497" lon="0.14835">
        <ele>175.6</ele>
        <time>2024-03-20T17:19:20Z</time>
      </trkpt>
      <trkpt lat="49.13497" lon="0.14829">
        <ele>175.8</ele>
        <time>2024-03-20T17:19:21Z</time>
      </trkpt>
      <trkpt lat="49.13498" lon="0.14822">
        <ele>176</ele>
        <time>2024-03-20T17:19:22Z</time>
      </trkpt>
      <trkpt lat="49.13498" lon="0.14815">
        <ele>176.2</ele>
        <time>2024-03-20T17:19:23Z</time>
      </trkpt>
      <trkpt lat="49.13498" lon="0.14808">
        <ele>176.2</ele>
        <time>2024-03-20T17:19:24Z</time>
      </trkpt>
      <trkpt lat="49.13498" lon="0.148">
        <ele>176.4</ele>
        <time>2024-03-20T17:19:25Z</time>
      </trkpt>
      <trkpt lat="49.13499" lon="0.14792">
        <ele>176.4</ele>
        <time>2024-03-20T17:19:26Z</time>
      </trkpt>
      <trkpt lat="49.135" lon="0.14782">
        <ele>176.4</ele>
        <time>2024-03-20T17:19:27Z</time>
      </trkpt>
      <trkpt lat="49.13501" lon="0.14772">
        <ele>176.4</ele>
        <time>2024-03-20T17:19:28Z</time>
      </trkpt>
      <trkpt lat="49.13501" lon="0.14761">
        <ele>176.4</ele>
        <time>2024-03-20T17:19:29Z</time>
      </trkpt>
      <trkpt lat="49.13502" lon="0.14749">
        <ele>176.4</ele>
        <time>2024-03-20T17:19:30Z</time>
      </trkpt>
      <trkpt lat="49.13502" lon="0.14737">
        <ele>176.4</ele>
        <time>2024-03-20T17:19:31Z</time>
      </trkpt>
      <trkpt lat="49.13503" lon="0.14725">
        <ele>176.4</ele>
        <time>2024-03-20T17:19:32Z</time>
      </trkpt>
      <trkpt lat="49.13504" lon="0.14713">
        <ele>176.4</ele>
        <time>2024-03-20T17:19:33Z</time>
      </trkpt>
      <trkpt lat="49.13504" lon="0.14701">
        <ele>176.4</ele>
        <time>2024-03-20T17:19:34Z</time>
      </trkpt>
      <trkpt lat="49.13505" lon="0.14689">
        <ele>176.4</ele>
        <time>2024-03-20T17:19:35Z</time>
      </trkpt>
      <trkpt lat="49.13505" lon="0.14677">
        <ele>176.2</ele>
        <time>2024-03-20T17:19:36Z</time>
      </trkpt>
      <trkpt lat="49.13506" lon="0.14665">
        <ele>176.2</ele>
        <time>2024-03-20T17:19:37Z</time>
      </trkpt>
      <trkpt lat="49.13506" lon="0.14653">
        <ele>176</ele>
        <time>2024-03-20T17:19:38Z</time>
      </trkpt>
      <trkpt lat="49.13507" lon="0.1464">
        <ele>176</ele>
        <time>2024-03-20T17:19:39Z</time>
      </trkpt>
      <trkpt lat="49.13508" lon="0.14628">
        <ele>176</ele>
        <time>2024-03-20T17:19:40Z</time>
      </trkpt>
      <trkpt lat="49.13508" lon="0.14616">
        <ele>176</ele>
        <time>2024-03-20T17:19:41Z</time>
      </trkpt>
      <trkpt lat="49.13509" lon="0.14604">
        <ele>176</ele>
        <time>2024-03-20T17:19:42Z</time>
      </trkpt>
      <trkpt lat="49.13509" lon="0.14592">
        <ele>176</ele>
        <time>2024-03-20T17:19:43Z</time>
      </trkpt>
      <trkpt lat="49.1351" lon="0.1458">
        <ele>176</ele>
        <time>2024-03-20T17:19:44Z</time>
      </trkpt>
      <trkpt lat="49.13511" lon="0.14568">
        <ele>175.8</ele>
        <time>2024-03-20T17:19:45Z</time>
      </trkpt>
      <trkpt lat="49.13511" lon="0.14556">
        <ele>175.8</ele>
        <time>2024-03-20T17:19:46Z</time>
      </trkpt>
      <trkpt lat="49.13511" lon="0.14543">
        <ele>175.8</ele>
        <time>2024-03-20T17:19:47Z</time>
      </trkpt>
      <trkpt lat="49.13512" lon="0.14531">
        <ele>175.8</ele>
        <time>2024-03-20T17:19:48Z</time>
      </trkpt>
      <trkpt lat="49.13512" lon="0.14518">
        <ele>175.8</ele>
        <time>2024-03-20T17:19:49Z</time>
      </trkpt>
      <trkpt lat="49.13513" lon="0.14505">
        <ele>175.8</ele>
        <time>2024-03-20T17:19:50Z</time>
      </trkpt>
      <trkpt lat="49.13513" lon="0.14492">
        <ele>175.8</ele>
        <time>2024-03-20T17:19:51Z</time>
      </trkpt>
      <trkpt lat="49.13514" lon="0.14479">
        <ele>175.6</ele>
        <time>2024-03-20T17:19:52Z</time>
      </trkpt>
      <trkpt lat="49.13514" lon="0.14467">
        <ele>175.6</ele>
        <time>2024-03-20T17:19:53Z</time>
      </trkpt>
      <trkpt lat="49.13515" lon="0.14455">
        <ele>175.6</ele>
        <time>2024-03-20T17:19:54Z</time>
      </trkpt>
      <trkpt lat="49.13515" lon="0.14443">
        <ele>175.4</ele>
        <time>2024-03-20T17:19:55Z</time>
      </trkpt>
      <trkpt lat="49.13516" lon="0.1443">
        <ele>175.4</ele>
        <time>2024-03-20T17:19:56Z</time>
      </trkpt>
      <trkpt lat="49.13517" lon="0.14418">
        <ele>175.4</ele>
        <time>2024-03-20T17:19:57Z</time>
      </trkpt>
      <trkpt lat="49.13517" lon="0.14405">
        <ele>175.4</ele>
        <time>2024-03-20T17:19:58Z</time>
      </trkpt>
      <trkpt lat="49.13518" lon="0.14393">
        <ele>175.2</ele>
        <time>2024-03-20T17:19:59Z</time>
      </trkpt>
      <trkpt lat="49.13519" lon="0.14381">
        <ele>175.2</ele>
        <time>2024-03-20T17:20:00Z</time>
      </trkpt>
      <trkpt lat="49.13519" lon="0.14368">
        <ele>175.2</ele>
        <time>2024-03-20T17:20:01Z</time>
      </trkpt>
      <trkpt lat="49.13519" lon="0.14356">
        <ele>175.2</ele>
        <time>2024-03-20T17:20:02Z</time>
      </trkpt>
      <trkpt lat="49.1352" lon="0.14343">
        <ele>175</ele>
        <time>2024-03-20T17:20:03Z</time>
      </trkpt>
      <trkpt lat="49.1352" lon="0.14331">
        <ele>175</ele>
        <time>2024-03-20T17:20:04Z</time>
      </trkpt>
      <trkpt lat="49.13521" lon="0.14318">
        <ele>175</ele>
        <time>2024-03-20T17:20:05Z</time>
      </trkpt>
      <trkpt lat="49.13522" lon="0.14305">
        <ele>175</ele>
        <time>2024-03-20T17:20:06Z</time>
      </trkpt>
      <trkpt lat="49.13523" lon="0.14292">
        <ele>174.8</ele>
        <time>2024-03-20T17:20:07Z</time>
      </trkpt>
      <trkpt lat="49.13523" lon="0.1428">
        <ele>174.8</ele>
        <time>2024-03-20T17:20:08Z</time>
      </trkpt>
      <trkpt lat="49.13524" lon="0.14267">
        <ele>174.6</ele>
        <time>2024-03-20T17:20:09Z</time>
      </trkpt>
      <trkpt lat="49.13525" lon="0.14255">
        <ele>174.6</ele>
        <time>2024-03-20T17:20:10Z</time>
      </trkpt>
      <trkpt lat="49.13525" lon="0.14242">
        <ele>174.4</ele>
        <time>2024-03-20T17:20:11Z</time>
      </trkpt>
      <trkpt lat="49.13526" lon="0.14229">
        <ele>174.2</ele>
        <time>2024-03-20T17:20:12Z</time>
      </trkpt>
      <trkpt lat="49.13526" lon="0.14216">
        <ele>174.2</ele>
        <time>2024-03-20T17:20:13Z</time>
      </trkpt>
      <trkpt lat="49.13527" lon="0.14203">
        <ele>174</ele>
        <time>2024-03-20T17:20:14Z</time>
      </trkpt>
      <trkpt lat="49.13528" lon="0.1419">
        <ele>173.8</ele>
        <time>2024-03-20T17:20:15Z</time>
      </trkpt>
      <trkpt lat="49.13529" lon="0.14177">
        <ele>173.8</ele>
        <time>2024-03-20T17:20:16Z</time>
      </trkpt>
      <trkpt lat="49.13529" lon="0.14164">
        <ele>173.8</ele>
        <time>2024-03-20T17:20:17Z</time>
      </trkpt>
      <trkpt lat="49.1353" lon="0.14151">
        <ele>173.6</ele>
        <time>2024-03-20T17:20:18Z</time>
      </trkpt>
      <trkpt lat="49.13531" lon="0.14137">
        <ele>173.6</ele>
        <time>2024-03-20T17:20:19Z</time>
      </trkpt>
      <trkpt lat="49.13531" lon="0.14123">
        <ele>173.6</ele>
        <time>2024-03-20T17:20:20Z</time>
      </trkpt>
      <trkpt lat="49.13532" lon="0.1411">
        <ele>173.6</ele>
        <time>2024-03-20T17:20:21Z</time>
      </trkpt>
      <trkpt lat="49.13533" lon="0.14096">
        <ele>173.4</ele>
        <time>2024-03-20T17:20:22Z</time>
      </trkpt>
      <trkpt lat="49.13533" lon="0.14082">
        <ele>173.4</ele>
        <time>2024-03-20T17:20:23Z</time>
      </trkpt>
      <trkpt lat="49.13534" lon="0.14068">
        <ele>173.4</ele>
        <time>2024-03-20T17:20:24Z</time>
      </trkpt>
      <trkpt lat="49.13535" lon="0.14054">
        <ele>173</ele>
        <time>2024-03-20T17:20:25Z</time>
      </trkpt>
      <trkpt lat="49.13535" lon="0.1404">
        <ele>173</ele>
        <time>2024-03-20T17:20:26Z</time>
      </trkpt>
      <trkpt lat="49.13536" lon="0.14026">
        <ele>172.8</ele>
        <time>2024-03-20T17:20:27Z</time>
      </trkpt>
      <trkpt lat="49.13537" lon="0.14012">
        <ele>172.6</ele>
        <time>2024-03-20T17:20:28Z</time>
      </trkpt>
      <trkpt lat="49.13538" lon="0.13998">
        <ele>172.2</ele>
        <time>2024-03-20T17:20:29Z</time>
      </trkpt>
      <trkpt lat="49.13538" lon="0.13983">
        <ele>172</ele>
        <time>2024-03-20T17:20:30Z</time>
      </trkpt>
      <trkpt lat="49.13539" lon="0.13969">
        <ele>171.8</ele>
        <time>2024-03-20T17:20:31Z</time>
      </trkpt>
      <trkpt lat="49.1354" lon="0.13954">
        <ele>171.4</ele>
        <time>2024-03-20T17:20:32Z</time>
      </trkpt>
      <trkpt lat="49.1354" lon="0.13939">
        <ele>171.4</ele>
        <time>2024-03-20T17:20:33Z</time>
      </trkpt>
      <trkpt lat="49.13541" lon="0.13925">
        <ele>171.4</ele>
        <time>2024-03-20T17:20:34Z</time>
      </trkpt>
      <trkpt lat="49.13541" lon="0.13911">
        <ele>170.8</ele>
        <time>2024-03-20T17:20:35Z</time>
      </trkpt>
      <trkpt lat="49.13542" lon="0.13897">
        <ele>170</ele>
        <time>2024-03-20T17:20:36Z</time>
      </trkpt>
      <trkpt lat="49.13542" lon="0.13884">
        <ele>169.6</ele>
        <time>2024-03-20T17:20:37Z</time>
      </trkpt>
      <trkpt lat="49.13543" lon="0.1387">
        <ele>169.2</ele>
        <time>2024-03-20T17:20:38Z</time>
      </trkpt>
      <trkpt lat="49.13544" lon="0.13857">
        <ele>169</ele>
        <time>2024-03-20T17:20:39Z</time>
      </trkpt>
      <trkpt lat="49.13544" lon="0.13843">
        <ele>168.6</ele>
        <time>2024-03-20T17:20:40Z</time>
      </trkpt>
      <trkpt lat="49.13545" lon="0.13829">
        <ele>168.4</ele>
        <time>2024-03-20T17:20:41Z</time>
      </trkpt>
      <trkpt lat="49.13546" lon="0.13814">
        <ele>168.2</ele>
        <time>2024-03-20T17:20:42Z</time>
      </trkpt>
      <trkpt lat="49.13546" lon="0.138">
        <ele>168.2</ele>
        <time>2024-03-20T17:20:43Z</time>
      </trkpt>
      <trkpt lat="49.13547" lon="0.13786">
        <ele>168.2</ele>
        <time>2024-03-20T17:20:44Z</time>
      </trkpt>
      <trkpt lat="49.13547" lon="0.13774">
        <ele>168.2</ele>
        <time>2024-03-20T17:20:45Z</time>
      </trkpt>
      <trkpt lat="49.13548" lon="0.13761">
        <ele>168.2</ele>
        <time>2024-03-20T17:20:46Z</time>
      </trkpt>
      <trkpt lat="49.13548" lon="0.13748">
        <ele>168.2</ele>
        <time>2024-03-20T17:20:47Z</time>
      </trkpt>
      <trkpt lat="49.13549" lon="0.13735">
        <ele>168.2</ele>
        <time>2024-03-20T17:20:48Z</time>
      </trkpt>
      <trkpt lat="49.13549" lon="0.13723">
        <ele>168</ele>
        <time>2024-03-20T17:20:49Z</time>
      </trkpt>
      <trkpt lat="49.1355" lon="0.1371">
        <ele>168</ele>
        <time>2024-03-20T17:20:50Z</time>
      </trkpt>
      <trkpt lat="49.13551" lon="0.13698">
        <ele>168</ele>
        <time>2024-03-20T17:20:51Z</time>
      </trkpt>
      <trkpt lat="49.13551" lon="0.13685">
        <ele>168</ele>
        <time>2024-03-20T17:20:52Z</time>
      </trkpt>
      <trkpt lat="49.13552" lon="0.13672">
        <ele>168</ele>
        <time>2024-03-20T17:20:53Z</time>
      </trkpt>
      <trkpt lat="49.13552" lon="0.1366">
        <ele>168</ele>
        <time>2024-03-20T17:20:54Z</time>
      </trkpt>
      <trkpt lat="49.13553" lon="0.13648">
        <ele>168</ele>
        <time>2024-03-20T17:20:55Z</time>
      </trkpt>
      <trkpt lat="49.13553" lon="0.13635">
        <ele>168</ele>
        <time>2024-03-20T17:20:56Z</time>
      </trkpt>
      <trkpt lat="49.13554" lon="0.13623">
        <ele>168.2</ele>
        <time>2024-03-20T17:20:57Z</time>
      </trkpt>
      <trkpt lat="49.13554" lon="0.13611">
        <ele>168.4</ele>
        <time>2024-03-20T17:20:58Z</time>
      </trkpt>
      <trkpt lat="49.13555" lon="0.13598">
        <ele>168.4</ele>
        <time>2024-03-20T17:20:59Z</time>
      </trkpt>
      <trkpt lat="49.13555" lon="0.13586">
        <ele>168.4</ele>
        <time>2024-03-20T17:21:00Z</time>
      </trkpt>
      <trkpt lat="49.13556" lon="0.13573">
        <ele>168.6</ele>
        <time>2024-03-20T17:21:01Z</time>
      </trkpt>
      <trkpt lat="49.13557" lon="0.1356">
        <ele>168.6</ele>
        <time>2024-03-20T17:21:02Z</time>
      </trkpt>
      <trkpt lat="49.13558" lon="0.13547">
        <ele>168.8</ele>
        <time>2024-03-20T17:21:03Z</time>
      </trkpt>
      <trkpt lat="49.13559" lon="0.13534">
        <ele>169</ele>
        <time>2024-03-20T17:21:04Z</time>
      </trkpt>
      <trkpt lat="49.13559" lon="0.13522">
        <ele>169.2</ele>
        <time>2024-03-20T17:21:05Z</time>
      </trkpt>
      <trkpt lat="49.1356" lon="0.13509">
        <ele>169.4</ele>
        <time>2024-03-20T17:21:06Z</time>
      </trkpt>
      <trkpt lat="49.13561" lon="0.13497">
        <ele>169.4</ele>
        <time>2024-03-20T17:21:07Z</time>
      </trkpt>
      <trkpt lat="49.13562" lon="0.13484">
        <ele>169.4</ele>
        <time>2024-03-20T17:21:08Z</time>
      </trkpt>
      <trkpt lat="49.13563" lon="0.13471">
        <ele>169.4</ele>
        <time>2024-03-20T17:21:09Z</time>
      </trkpt>
      <trkpt lat="49.13565" lon="0.13459">
        <ele>169.4</ele>
        <time>2024-03-20T17:21:10Z</time>
      </trkpt>
      <trkpt lat="49.13566" lon="0.13445">
        <ele>169.4</ele>
        <time>2024-03-20T17:21:11Z</time>
      </trkpt>
      <trkpt lat="49.13568" lon="0.13433">
        <ele>169.4</ele>
        <time>2024-03-20T17:21:12Z</time>
      </trkpt>
      <trkpt lat="49.13569" lon="0.13419">
        <ele>169.4</ele>
        <time>2024-03-20T17:21:13Z</time>
      </trkpt>
      <trkpt lat="49.13571" lon="0.13406">
        <ele>169.4</ele>
        <time>2024-03-20T17:21:14Z</time>
      </trkpt>
      <trkpt lat="49.13573" lon="0.13393">
        <ele>169.4</ele>
        <time>2024-03-20T17:21:15Z</time>
      </trkpt>
      <trkpt lat="49.13575" lon="0.1338">
        <ele>169.4</ele>
        <time>2024-03-20T17:21:16Z</time>
      </trkpt>
      <trkpt lat="49.13577" lon="0.13367">
        <ele>169.4</ele>
        <time>2024-03-20T17:21:17Z</time>
      </trkpt>
      <trkpt lat="49.13579" lon="0.13354">
        <ele>169.2</ele>
        <time>2024-03-20T17:21:18Z</time>
      </trkpt>
      <trkpt lat="49.13581" lon="0.13341">
        <ele>169.2</ele>
        <time>2024-03-20T17:21:19Z</time>
      </trkpt>
      <trkpt lat="49.13583" lon="0.13328">
        <ele>169</ele>
        <time>2024-03-20T17:21:20Z</time>
      </trkpt>
      <trkpt lat="49.13586" lon="0.13315">
        <ele>169</ele>
        <time>2024-03-20T17:21:21Z</time>
      </trkpt>
      <trkpt lat="49.13588" lon="0.13302">
        <ele>168.8</ele>
        <time>2024-03-20T17:21:22Z</time>
      </trkpt>
      <trkpt lat="49.13591" lon="0.1329">
        <ele>168.4</ele>
        <time>2024-03-20T17:21:23Z</time>
      </trkpt>
      <trkpt lat="49.13593" lon="0.13277">
        <ele>168.4</ele>
        <time>2024-03-20T17:21:24Z</time>
      </trkpt>
      <trkpt lat="49.13595" lon="0.13264">
        <ele>168.2</ele>
        <time>2024-03-20T17:21:25Z</time>
      </trkpt>
      <trkpt lat="49.13598" lon="0.13252">
        <ele>168</ele>
        <time>2024-03-20T17:21:26Z</time>
      </trkpt>
      <trkpt lat="49.13601" lon="0.1324">
        <ele>167.8</ele>
        <time>2024-03-20T17:21:27Z</time>
      </trkpt>
      <trkpt lat="49.13604" lon="0.13228">
        <ele>167.6</ele>
        <time>2024-03-20T17:21:28Z</time>
      </trkpt>
      <trkpt lat="49.13607" lon="0.13217">
        <ele>167.4</ele>
        <time>2024-03-20T17:21:29Z</time>
      </trkpt>
      <trkpt lat="49.13609" lon="0.13205">
        <ele>167.4</ele>
        <time>2024-03-20T17:21:30Z</time>
      </trkpt>
      <trkpt lat="49.13612" lon="0.13194">
        <ele>167.2</ele>
        <time>2024-03-20T17:21:31Z</time>
      </trkpt>
      <trkpt lat="49.13614" lon="0.13182">
        <ele>167.2</ele>
        <time>2024-03-20T17:21:32Z</time>
      </trkpt>
      <trkpt lat="49.13616" lon="0.13171">
        <ele>167.2</ele>
        <time>2024-03-20T17:21:33Z</time>
      </trkpt>
      <trkpt lat="49.13619" lon="0.1316">
        <ele>167.2</ele>
        <time>2024-03-20T17:21:34Z</time>
      </trkpt>
      <trkpt lat="49.13623" lon="0.13149">
        <ele>167</ele>
        <time>2024-03-20T17:21:35Z</time>
      </trkpt>
      <trkpt lat="49.13626" lon="0.13138">
        <ele>166.8</ele>
        <time>2024-03-20T17:21:36Z</time>
      </trkpt>
      <trkpt lat="49.1363" lon="0.13127">
        <ele>166.8</ele>
        <time>2024-03-20T17:21:37Z</time>
      </trkpt>
      <trkpt lat="49.13633" lon="0.13115">
        <ele>166.8</ele>
        <time>2024-03-20T17:21:38Z</time>
      </trkpt>
      <trkpt lat="49.13636" lon="0.13104">
        <ele>166.8</ele>
        <time>2024-03-20T17:21:39Z</time>
      </trkpt>
      <trkpt lat="49.13638" lon="0.13092">
        <ele>166.8</ele>
        <time>2024-03-20T17:21:40Z</time>
      </trkpt>
      <trkpt lat="49.13641" lon="0.13081">
        <ele>166.8</ele>
        <time>2024-03-20T17:21:41Z</time>
      </trkpt>
      <trkpt lat="49.13643" lon="0.1307">
        <ele>166.8</ele>
        <time>2024-03-20T17:21:42Z</time>
      </trkpt>
      <trkpt lat="49.13646" lon="0.13059">
        <ele>166.8</ele>
        <time>2024-03-20T17:21:43Z</time>
      </trkpt>
      <trkpt lat="49.13648" lon="0.13048">
        <ele>166.8</ele>
        <time>2024-03-20T17:21:44Z</time>
      </trkpt>
      <trkpt lat="49.1365" lon="0.13037">
        <ele>167</ele>
        <time>2024-03-20T17:21:45Z</time>
      </trkpt>
      <trkpt lat="49.13652" lon="0.13026">
        <ele>167</ele>
        <time>2024-03-20T17:21:46Z</time>
      </trkpt>
      <trkpt lat="49.13654" lon="0.13015">
        <ele>167</ele>
        <time>2024-03-20T17:21:47Z</time>
      </trkpt>
      <trkpt lat="49.13655" lon="0.13004">
        <ele>167</ele>
        <time>2024-03-20T17:21:48Z</time>
      </trkpt>
      <trkpt lat="49.13657" lon="0.12993">
        <ele>167.2</ele>
        <time>2024-03-20T17:21:49Z</time>
      </trkpt>
      <trkpt lat="49.13658" lon="0.12981">
        <ele>167.2</ele>
        <time>2024-03-20T17:21:50Z</time>
      </trkpt>
      <trkpt lat="49.1366" lon="0.1297">
        <ele>167.2</ele>
        <time>2024-03-20T17:21:51Z</time>
      </trkpt>
      <trkpt lat="49.13661" lon="0.12959">
        <ele>167.2</ele>
        <time>2024-03-20T17:21:52Z</time>
      </trkpt>
      <trkpt lat="49.13663" lon="0.12947">
        <ele>167.2</ele>
        <time>2024-03-20T17:21:53Z</time>
      </trkpt>
      <trkpt lat="49.13664" lon="0.12936">
        <ele>167.2</ele>
        <time>2024-03-20T17:21:54Z</time>
      </trkpt>
      <trkpt lat="49.13665" lon="0.12925">
        <ele>167.2</ele>
        <time>2024-03-20T17:21:55Z</time>
      </trkpt>
      <trkpt lat="49.13667" lon="0.12913">
        <ele>167.2</ele>
        <time>2024-03-20T17:21:56Z</time>
      </trkpt>
      <trkpt lat="49.13668" lon="0.12901">
        <ele>167.2</ele>
        <time>2024-03-20T17:21:57Z</time>
      </trkpt>
      <trkpt lat="49.13669" lon="0.1289">
        <ele>167.2</ele>
        <time>2024-03-20T17:21:58Z</time>
      </trkpt>
      <trkpt lat="49.13671" lon="0.12879">
        <ele>167</ele>
        <time>2024-03-20T17:21:59Z</time>
      </trkpt>
      <trkpt lat="49.13672" lon="0.12869">
        <ele>166.8</ele>
        <time>2024-03-20T17:22:00Z</time>
      </trkpt>
      <trkpt lat="49.13674" lon="0.12858">
        <ele>166.8</ele>
        <time>2024-03-20T17:22:01Z</time>
      </trkpt>
      <trkpt lat="49.13677" lon="0.1285">
        <ele>166.6</ele>
        <time>2024-03-20T17:22:02Z</time>
      </trkpt>
      <trkpt lat="49.13683" lon="0.12843">
        <ele>166.6</ele>
        <time>2024-03-20T17:22:03Z</time>
      </trkpt>
      <trkpt lat="49.1369" lon="0.12838">
        <ele>166.4</ele>
        <time>2024-03-20T17:22:04Z</time>
      </trkpt>
      <trkpt lat="49.13697" lon="0.12834">
        <ele>166.2</ele>
        <time>2024-03-20T17:22:05Z</time>
      </trkpt>
      <trkpt lat="49.13705" lon="0.1283">
        <ele>166</ele>
        <time>2024-03-20T17:22:06Z</time>
      </trkpt>
      <trkpt lat="49.13714" lon="0.12826">
        <ele>165.6</ele>
        <time>2024-03-20T17:22:07Z</time>
      </trkpt>
      <trkpt lat="49.13721" lon="0.12823">
        <ele>165.4</ele>
        <time>2024-03-20T17:22:08Z</time>
      </trkpt>
      <trkpt lat="49.13729" lon="0.12818">
        <ele>165.2</ele>
        <time>2024-03-20T17:22:09Z</time>
      </trkpt>
      <trkpt lat="49.13737" lon="0.12813">
        <ele>164.8</ele>
        <time>2024-03-20T17:22:10Z</time>
      </trkpt>
      <trkpt lat="49.13745" lon="0.12808">
        <ele>164.6</ele>
        <time>2024-03-20T17:22:11Z</time>
      </trkpt>
      <trkpt lat="49.13753" lon="0.12804">
        <ele>164.4</ele>
        <time>2024-03-20T17:22:12Z</time>
      </trkpt>
      <trkpt lat="49.13762" lon="0.12799">
        <ele>164.2</ele>
        <time>2024-03-20T17:22:13Z</time>
      </trkpt>
      <trkpt lat="49.1377" lon="0.12795">
        <ele>164.2</ele>
        <time>2024-03-20T17:22:14Z</time>
      </trkpt>
      <trkpt lat="49.13777" lon="0.1279">
        <ele>164.2</ele>
        <time>2024-03-20T17:22:15Z</time>
      </trkpt>
      <trkpt lat="49.13785" lon="0.12786">
        <ele>164.2</ele>
        <time>2024-03-20T17:22:16Z</time>
      </trkpt>
      <trkpt lat="49.13792" lon="0.12782">
        <ele>164.2</ele>
        <time>2024-03-20T17:22:17Z</time>
      </trkpt>
      <trkpt lat="49.13799" lon="0.12778">
        <ele>164.2</ele>
        <time>2024-03-20T17:22:18Z</time>
      </trkpt>
      <trkpt lat="49.13806" lon="0.12774">
        <ele>164.2</ele>
        <time>2024-03-20T17:22:19Z</time>
      </trkpt>
      <trkpt lat="49.13812" lon="0.1277">
        <ele>164.2</ele>
        <time>2024-03-20T17:22:20Z</time>
      </trkpt>
      <trkpt lat="49.13819" lon="0.12767">
        <ele>164.2</ele>
        <time>2024-03-20T17:22:21Z</time>
      </trkpt>
      <trkpt lat="49.13825" lon="0.12763">
        <ele>164.2</ele>
        <time>2024-03-20T17:22:22Z</time>
      </trkpt>
      <trkpt lat="49.13832" lon="0.12759">
        <ele>164.2</ele>
        <time>2024-03-20T17:22:23Z</time>
      </trkpt>
      <trkpt lat="49.13839" lon="0.12755">
        <ele>164.2</ele>
        <time>2024-03-20T17:22:24Z</time>
      </trkpt>
      <trkpt lat="49.13846" lon="0.12751">
        <ele>164.4</ele>
        <time>2024-03-20T17:22:25Z</time>
      </trkpt>
      <trkpt lat="49.13853" lon="0.12746">
        <ele>164.4</ele>
        <time>2024-03-20T17:22:26Z</time>
      </trkpt>
      <trkpt lat="49.1386" lon="0.12742">
        <ele>164.6</ele>
        <time>2024-03-20T17:22:27Z</time>
      </trkpt>
      <trkpt lat="49.13867" lon="0.12739">
        <ele>164.8</ele>
        <time>2024-03-20T17:22:28Z</time>
      </trkpt>
      <trkpt lat="49.13874" lon="0.12735">
        <ele>165</ele>
        <time>2024-03-20T17:22:29Z</time>
      </trkpt>
      <trkpt lat="49.13881" lon="0.12731">
        <ele>165.2</ele>
        <time>2024-03-20T17:22:30Z</time>
      </trkpt>
      <trkpt lat="49.13888" lon="0.12727">
        <ele>165.6</ele>
        <time>2024-03-20T17:22:31Z</time>
      </trkpt>
      <trkpt lat="49.13896" lon="0.12724">
        <ele>165.6</ele>
        <time>2024-03-20T17:22:32Z</time>
      </trkpt>
      <trkpt lat="49.13903" lon="0.1272">
        <ele>165.8</ele>
        <time>2024-03-20T17:22:33Z</time>
      </trkpt>
      <trkpt lat="49.1391" lon="0.12716">
        <ele>165.8</ele>
        <time>2024-03-20T17:22:34Z</time>
      </trkpt>
      <trkpt lat="49.13917" lon="0.12712">
        <ele>166</ele>
        <time>2024-03-20T17:22:35Z</time>
      </trkpt>
      <trkpt lat="49.13924" lon="0.12708">
        <ele>166.2</ele>
        <time>2024-03-20T17:22:36Z</time>
      </trkpt>
      <trkpt lat="49.13931" lon="0.12704">
        <ele>166.2</ele>
        <time>2024-03-20T17:22:37Z</time>
      </trkpt>
      <trkpt lat="49.13938" lon="0.12701">
        <ele>166.6</ele>
        <time>2024-03-20T17:22:38Z</time>
      </trkpt>
      <trkpt lat="49.13945" lon="0.12697">
        <ele>166.8</ele>
        <time>2024-03-20T17:22:39Z</time>
      </trkpt>
      <trkpt lat="49.13952" lon="0.12692">
        <ele>167.2</ele>
        <time>2024-03-20T17:22:40Z</time>
      </trkpt>
      <trkpt lat="49.13959" lon="0.12688">
        <ele>167.4</ele>
        <time>2024-03-20T17:22:41Z</time>
      </trkpt>
      <trkpt lat="49.13966" lon="0.12684">
        <ele>167.6</ele>
        <time>2024-03-20T17:22:42Z</time>
      </trkpt>
      <trkpt lat="49.13973" lon="0.12679">
        <ele>167.8</ele>
        <time>2024-03-20T17:22:43Z</time>
      </trkpt>
      <trkpt lat="49.13981" lon="0.12675">
        <ele>168</ele>
        <time>2024-03-20T17:22:44Z</time>
      </trkpt>
      <trkpt lat="49.13988" lon="0.1267">
        <ele>168.2</ele>
        <time>2024-03-20T17:22:45Z</time>
      </trkpt>
      <trkpt lat="49.13995" lon="0.12666">
        <ele>168.4</ele>
        <time>2024-03-20T17:22:46Z</time>
      </trkpt>
      <trkpt lat="49.14003" lon="0.12662">
        <ele>168.6</ele>
        <time>2024-03-20T17:22:47Z</time>
      </trkpt>
      <trkpt lat="49.1401" lon="0.12658">
        <ele>169</ele>
        <time>2024-03-20T17:22:48Z</time>
      </trkpt>
      <trkpt lat="49.14018" lon="0.12654">
        <ele>169.2</ele>
        <time>2024-03-20T17:22:49Z</time>
      </trkpt>
      <trkpt lat="49.14026" lon="0.12649">
        <ele>169.2</ele>
        <time>2024-03-20T17:22:50Z</time>
      </trkpt>
      <trkpt lat="49.14034" lon="0.12645">
        <ele>169.4</ele>
        <time>2024-03-20T17:22:51Z</time>
      </trkpt>
      <trkpt lat="49.14041" lon="0.12641">
        <ele>169.4</ele>
        <time>2024-03-20T17:22:52Z</time>
      </trkpt>
      <trkpt lat="49.14049" lon="0.12636">
        <ele>169.4</ele>
        <time>2024-03-20T17:22:53Z</time>
      </trkpt>
      <trkpt lat="49.14056" lon="0.12632">
        <ele>169.4</ele>
        <time>2024-03-20T17:22:54Z</time>
      </trkpt>
      <trkpt lat="49.14064" lon="0.12627">
        <ele>169.4</ele>
        <time>2024-03-20T17:22:55Z</time>
      </trkpt>
      <trkpt lat="49.14071" lon="0.12623">
        <ele>169.4</ele>
        <time>2024-03-20T17:22:56Z</time>
      </trkpt>
      <trkpt lat="49.14079" lon="0.12619">
        <ele>169.4</ele>
        <time>2024-03-20T17:22:57Z</time>
      </trkpt>
      <trkpt lat="49.14087" lon="0.12614">
        <ele>169.4</ele>
        <time>2024-03-20T17:22:58Z</time>
      </trkpt>
      <trkpt lat="49.14095" lon="0.1261">
        <ele>169.4</ele>
        <time>2024-03-20T17:22:59Z</time>
      </trkpt>
      <trkpt lat="49.14103" lon="0.12605">
        <ele>169.4</ele>
        <time>2024-03-20T17:23:00Z</time>
      </trkpt>
      <trkpt lat="49.14111" lon="0.12601">
        <ele>169.4</ele>
        <time>2024-03-20T17:23:01Z</time>
      </trkpt>
      <trkpt lat="49.1412" lon="0.12597">
        <ele>169.4</ele>
        <time>2024-03-20T17:23:02Z</time>
      </trkpt>
      <trkpt lat="49.14128" lon="0.12592">
        <ele>169.4</ele>
        <time>2024-03-20T17:23:03Z</time>
      </trkpt>
      <trkpt lat="49.14137" lon="0.12588">
        <ele>169.4</ele>
        <time>2024-03-20T17:23:04Z</time>
      </trkpt>
      <trkpt lat="49.14145" lon="0.12583">
        <ele>169.4</ele>
        <time>2024-03-20T17:23:05Z</time>
      </trkpt>
      <trkpt lat="49.14154" lon="0.12578">
        <ele>169.4</ele>
        <time>2024-03-20T17:23:06Z</time>
      </trkpt>
      <trkpt lat="49.14162" lon="0.12572">
        <ele>169.4</ele>
        <time>2024-03-20T17:23:07Z</time>
      </trkpt>
      <trkpt lat="49.14171" lon="0.12567">
        <ele>169.4</ele>
        <time>2024-03-20T17:23:08Z</time>
      </trkpt>
      <trkpt lat="49.1418" lon="0.12562">
        <ele>169.2</ele>
        <time>2024-03-20T17:23:09Z</time>
      </trkpt>
      <trkpt lat="49.14189" lon="0.12558">
        <ele>168.8</ele>
        <time>2024-03-20T17:23:10Z</time>
      </trkpt>
      <trkpt lat="49.14198" lon="0.12553">
        <ele>168.4</ele>
        <time>2024-03-20T17:23:11Z</time>
      </trkpt>
      <trkpt lat="49.14207" lon="0.12548">
        <ele>168.2</ele>
        <time>2024-03-20T17:23:12Z</time>
      </trkpt>
      <trkpt lat="49.14215" lon="0.12543">
        <ele>168.2</ele>
        <time>2024-03-20T17:23:13Z</time>
      </trkpt>
      <trkpt lat="49.14224" lon="0.12537">
        <ele>168</ele>
        <time>2024-03-20T17:23:14Z</time>
      </trkpt>
      <trkpt lat="49.14233" lon="0.12533">
        <ele>167.8</ele>
        <time>2024-03-20T17:23:15Z</time>
      </trkpt>
      <trkpt lat="49.14241" lon="0.12528">
        <ele>167.8</ele>
        <time>2024-03-20T17:23:16Z</time>
      </trkpt>
      <trkpt lat="49.1425" lon="0.12523">
        <ele>167.4</ele>
        <time>2024-03-20T17:23:17Z</time>
      </trkpt>
      <trkpt lat="49.14258" lon="0.12517">
        <ele>167.2</ele>
        <time>2024-03-20T17:23:18Z</time>
      </trkpt>
      <trkpt lat="49.14267" lon="0.12513">
        <ele>166.8</ele>
        <time>2024-03-20T17:23:19Z</time>
      </trkpt>
      <trkpt lat="49.14276" lon="0.12508">
        <ele>166.6</ele>
        <time>2024-03-20T17:23:20Z</time>
      </trkpt>
      <trkpt lat="49.14285" lon="0.12502">
        <ele>166.4</ele>
        <time>2024-03-20T17:23:21Z</time>
      </trkpt>
      <trkpt lat="49.14294" lon="0.12497">
        <ele>166.2</ele>
        <time>2024-03-20T17:23:22Z</time>
      </trkpt>
      <trkpt lat="49.14303" lon="0.12492">
        <ele>165.6</ele>
        <time>2024-03-20T17:23:23Z</time>
      </trkpt>
      <trkpt lat="49.14312" lon="0.12487">
        <ele>165.4</ele>
        <time>2024-03-20T17:23:24Z</time>
      </trkpt>
      <trkpt lat="49.1432" lon="0.12481">
        <ele>165.2</ele>
        <time>2024-03-20T17:23:25Z</time>
      </trkpt>
      <trkpt lat="49.14329" lon="0.12476">
        <ele>164.8</ele>
        <time>2024-03-20T17:23:26Z</time>
      </trkpt>
      <trkpt lat="49.14338" lon="0.12471">
        <ele>164.6</ele>
        <time>2024-03-20T17:23:27Z</time>
      </trkpt>
      <trkpt lat="49.14347" lon="0.12466">
        <ele>164.2</ele>
        <time>2024-03-20T17:23:28Z</time>
      </trkpt>
      <trkpt lat="49.14356" lon="0.12461">
        <ele>163.8</ele>
        <time>2024-03-20T17:23:29Z</time>
      </trkpt>
      <trkpt lat="49.14364" lon="0.12456">
        <ele>163.6</ele>
        <time>2024-03-20T17:23:30Z</time>
      </trkpt>
      <trkpt lat="49.14373" lon="0.12451">
        <ele>163.6</ele>
        <time>2024-03-20T17:23:31Z</time>
      </trkpt>
      <trkpt lat="49.14381" lon="0.12446">
        <ele>163.2</ele>
        <time>2024-03-20T17:23:32Z</time>
      </trkpt>
      <trkpt lat="49.1439" lon="0.12441">
        <ele>163.2</ele>
        <time>2024-03-20T17:23:33Z</time>
      </trkpt>
      <trkpt lat="49.14398" lon="0.12437">
        <ele>163</ele>
        <time>2024-03-20T17:23:34Z</time>
      </trkpt>
      <trkpt lat="49.14407" lon="0.12432">
        <ele>162.8</ele>
        <time>2024-03-20T17:23:35Z</time>
      </trkpt>
      <trkpt lat="49.14416" lon="0.12427">
        <ele>162.6</ele>
        <time>2024-03-20T17:23:36Z</time>
      </trkpt>
      <trkpt lat="49.14424" lon="0.12421">
        <ele>162.6</ele>
        <time>2024-03-20T17:23:37Z</time>
      </trkpt>
      <trkpt lat="49.14433" lon="0.12416">
        <ele>162.4</ele>
        <time>2024-03-20T17:23:38Z</time>
      </trkpt>
      <trkpt lat="49.14442" lon="0.12411">
        <ele>162.4</ele>
        <time>2024-03-20T17:23:39Z</time>
      </trkpt>
      <trkpt lat="49.1445" lon="0.12407">
        <ele>162.2</ele>
        <time>2024-03-20T17:23:40Z</time>
      </trkpt>
      <trkpt lat="49.14459" lon="0.12402">
        <ele>162.2</ele>
        <time>2024-03-20T17:23:41Z</time>
      </trkpt>
      <trkpt lat="49.14468" lon="0.12397">
        <ele>162.2</ele>
        <time>2024-03-20T17:23:42Z</time>
      </trkpt>
      <trkpt lat="49.14476" lon="0.12392">
        <ele>162.2</ele>
        <time>2024-03-20T17:23:43Z</time>
      </trkpt>
      <trkpt lat="49.14485" lon="0.12386">
        <ele>162.2</ele>
        <time>2024-03-20T17:23:44Z</time>
      </trkpt>
      <trkpt lat="49.14494" lon="0.12381">
        <ele>162.2</ele>
        <time>2024-03-20T17:23:45Z</time>
      </trkpt>
      <trkpt lat="49.14503" lon="0.12376">
        <ele>162.2</ele>
        <time>2024-03-20T17:23:46Z</time>
      </trkpt>
      <trkpt lat="49.14511" lon="0.12371">
        <ele>162</ele>
        <time>2024-03-20T17:23:47Z</time>
      </trkpt>
      <trkpt lat="49.1452" lon="0.12367">
        <ele>162</ele>
        <time>2024-03-20T17:23:48Z</time>
      </trkpt>
      <trkpt lat="49.14529" lon="0.12362">
        <ele>162</ele>
        <time>2024-03-20T17:23:49Z</time>
      </trkpt>
      <trkpt lat="49.14537" lon="0.12357">
        <ele>162</ele>
        <time>2024-03-20T17:23:50Z</time>
      </trkpt>
      <trkpt lat="49.14546" lon="0.12352">
        <ele>161.8</ele>
        <time>2024-03-20T17:23:51Z</time>
      </trkpt>
      <trkpt lat="49.14555" lon="0.12347">
        <ele>161.8</ele>
        <time>2024-03-20T17:23:52Z</time>
      </trkpt>
      <trkpt lat="49.14563" lon="0.12342">
        <ele>161.6</ele>
        <time>2024-03-20T17:23:53Z</time>
      </trkpt>
      <trkpt lat="49.14572" lon="0.12337">
        <ele>161.6</ele>
        <time>2024-03-20T17:23:54Z</time>
      </trkpt>
      <trkpt lat="49.1458" lon="0.12333">
        <ele>161.4</ele>
        <time>2024-03-20T17:23:55Z</time>
      </trkpt>
      <trkpt lat="49.14589" lon="0.12328">
        <ele>161.2</ele>
        <time>2024-03-20T17:23:56Z</time>
      </trkpt>
      <trkpt lat="49.14598" lon="0.12323">
        <ele>161</ele>
        <time>2024-03-20T17:23:57Z</time>
      </trkpt>
      <trkpt lat="49.14606" lon="0.12318">
        <ele>161</ele>
        <time>2024-03-20T17:23:58Z</time>
      </trkpt>
      <trkpt lat="49.14615" lon="0.12313">
        <ele>161</ele>
        <time>2024-03-20T17:23:59Z</time>
      </trkpt>
      <trkpt lat="49.14624" lon="0.12308">
        <ele>161</ele>
        <time>2024-03-20T17:24:00Z</time>
      </trkpt>
      <trkpt lat="49.14633" lon="0.12303">
        <ele>160.8</ele>
        <time>2024-03-20T17:24:01Z</time>
      </trkpt>
      <trkpt lat="49.14641" lon="0.12298">
        <ele>160.8</ele>
        <time>2024-03-20T17:24:02Z</time>
      </trkpt>
      <trkpt lat="49.1465" lon="0.12293">
        <ele>160.8</ele>
        <time>2024-03-20T17:24:03Z</time>
      </trkpt>
      <trkpt lat="49.14659" lon="0.12288">
        <ele>160.8</ele>
        <time>2024-03-20T17:24:04Z</time>
      </trkpt>
      <trkpt lat="49.14667" lon="0.12283">
        <ele>160.6</ele>
        <time>2024-03-20T17:24:05Z</time>
      </trkpt>
      <trkpt lat="49.14676" lon="0.12278">
        <ele>160.6</ele>
        <time>2024-03-20T17:24:06Z</time>
      </trkpt>
      <trkpt lat="49.14686" lon="0.12274">
        <ele>160.6</ele>
        <time>2024-03-20T17:24:07Z</time>
      </trkpt>
      <trkpt lat="49.14694" lon="0.12268">
        <ele>160.6</ele>
        <time>2024-03-20T17:24:08Z</time>
      </trkpt>
      <trkpt lat="49.14703" lon="0.12263">
        <ele>160.4</ele>
        <time>2024-03-20T17:24:09Z</time>
      </trkpt>
      <trkpt lat="49.14712" lon="0.12258">
        <ele>160.4</ele>
        <time>2024-03-20T17:24:10Z</time>
      </trkpt>
      <trkpt lat="49.14721" lon="0.12253">
        <ele>160.4</ele>
        <time>2024-03-20T17:24:11Z</time>
      </trkpt>
      <trkpt lat="49.1473" lon="0.12247">
        <ele>160.4</ele>
        <time>2024-03-20T17:24:12Z</time>
      </trkpt>
      <trkpt lat="49.14739" lon="0.12242">
        <ele>160.4</ele>
        <time>2024-03-20T17:24:13Z</time>
      </trkpt>
      <trkpt lat="49.14748" lon="0.12237">
        <ele>160.4</ele>
        <time>2024-03-20T17:24:14Z</time>
      </trkpt>
      <trkpt lat="49.14757" lon="0.12232">
        <ele>160.2</ele>
        <time>2024-03-20T17:24:15Z</time>
      </trkpt>
      <trkpt lat="49.14766" lon="0.12227">
        <ele>160</ele>
        <time>2024-03-20T17:24:16Z</time>
      </trkpt>
      <trkpt lat="49.14774" lon="0.12221">
        <ele>159.8</ele>
        <time>2024-03-20T17:24:17Z</time>
      </trkpt>
      <trkpt lat="49.14783" lon="0.12216">
        <ele>159.4</ele>
        <time>2024-03-20T17:24:18Z</time>
      </trkpt>
      <trkpt lat="49.14791" lon="0.12209">
        <ele>159.2</ele>
        <time>2024-03-20T17:24:19Z</time>
      </trkpt>
      <trkpt lat="49.14799" lon="0.12203">
        <ele>158.8</ele>
        <time>2024-03-20T17:24:20Z</time>
      </trkpt>
      <trkpt lat="49.14807" lon="0.12194">
        <ele>158.4</ele>
        <time>2024-03-20T17:24:21Z</time>
      </trkpt>
      <trkpt lat="49.14814" lon="0.12185">
        <ele>158</ele>
        <time>2024-03-20T17:24:22Z</time>
      </trkpt>
      <trkpt lat="49.14821" lon="0.12175">
        <ele>157.6</ele>
        <time>2024-03-20T17:24:23Z</time>
      </trkpt>
      <trkpt lat="49.14828" lon="0.12164">
        <ele>157.2</ele>
        <time>2024-03-20T17:24:24Z</time>
      </trkpt>
      <trkpt lat="49.14834" lon="0.12152">
        <ele>156.8</ele>
        <time>2024-03-20T17:24:25Z</time>
      </trkpt>
      <trkpt lat="49.1484" lon="0.1214">
        <ele>156.4</ele>
        <time>2024-03-20T17:24:26Z</time>
      </trkpt>
      <trkpt lat="49.14846" lon="0.12126">
        <ele>156</ele>
        <time>2024-03-20T17:24:27Z</time>
      </trkpt>
      <trkpt lat="49.14851" lon="0.12112">
        <ele>155.6</ele>
        <time>2024-03-20T17:24:28Z</time>
      </trkpt>
      <trkpt lat="49.14856" lon="0.12098">
        <ele>155.4</ele>
        <time>2024-03-20T17:24:29Z</time>
      </trkpt>
      <trkpt lat="49.14859" lon="0.12083">
        <ele>155.2</ele>
        <time>2024-03-20T17:24:30Z</time>
      </trkpt>
      <trkpt lat="49.14863" lon="0.12067">
        <ele>154.6</ele>
        <time>2024-03-20T17:24:31Z</time>
      </trkpt>
      <trkpt lat="49.14867" lon="0.12051">
        <ele>154</ele>
        <time>2024-03-20T17:24:32Z</time>
      </trkpt>
      <trkpt lat="49.1487" lon="0.12036">
        <ele>154</ele>
        <time>2024-03-20T17:24:33Z</time>
      </trkpt>
      <trkpt lat="49.14874" lon="0.1202">
        <ele>153.6</ele>
        <time>2024-03-20T17:24:34Z</time>
      </trkpt>
      <trkpt lat="49.14877" lon="0.12004">
        <ele>153.2</ele>
        <time>2024-03-20T17:24:35Z</time>
      </trkpt>
      <trkpt lat="49.1488" lon="0.11988">
        <ele>152.6</ele>
        <time>2024-03-20T17:24:36Z</time>
      </trkpt>
      <trkpt lat="49.14884" lon="0.11972">
        <ele>151.8</ele>
        <time>2024-03-20T17:24:37Z</time>
      </trkpt>
      <trkpt lat="49.14888" lon="0.11955">
        <ele>151.2</ele>
        <time>2024-03-20T17:24:38Z</time>
      </trkpt>
      <trkpt lat="49.14892" lon="0.11939">
        <ele>150.4</ele>
        <time>2024-03-20T17:24:39Z</time>
      </trkpt>
      <trkpt lat="49.14895" lon="0.11922">
        <ele>149.6</ele>
        <time>2024-03-20T17:24:40Z</time>
      </trkpt>
      <trkpt lat="49.14899" lon="0.11906">
        <ele>149</ele>
        <time>2024-03-20T17:24:41Z</time>
      </trkpt>
      <trkpt lat="49.14902" lon="0.1189">
        <ele>148.2</ele>
        <time>2024-03-20T17:24:42Z</time>
      </trkpt>
      <trkpt lat="49.14906" lon="0.11874">
        <ele>147.4</ele>
        <time>2024-03-20T17:24:43Z</time>
      </trkpt>
      <trkpt lat="49.14909" lon="0.11858">
        <ele>146.6</ele>
        <time>2024-03-20T17:24:44Z</time>
      </trkpt>
      <trkpt lat="49.14913" lon="0.11843">
        <ele>145.6</ele>
        <time>2024-03-20T17:24:45Z</time>
      </trkpt>
      <trkpt lat="49.14917" lon="0.11827">
        <ele>145.2</ele>
        <time>2024-03-20T17:24:46Z</time>
      </trkpt>
      <trkpt lat="49.14923" lon="0.11812">
        <ele>144.2</ele>
        <time>2024-03-20T17:24:47Z</time>
      </trkpt>
      <trkpt lat="49.14929" lon="0.11797">
        <ele>143.4</ele>
        <time>2024-03-20T17:24:48Z</time>
      </trkpt>
      <trkpt lat="49.14936" lon="0.11783">
        <ele>142.6</ele>
        <time>2024-03-20T17:24:49Z</time>
      </trkpt>
      <trkpt lat="49.14945" lon="0.1177">
        <ele>142.2</ele>
        <time>2024-03-20T17:24:50Z</time>
      </trkpt>
      <trkpt lat="49.14954" lon="0.1176">
        <ele>141.6</ele>
        <time>2024-03-20T17:24:51Z</time>
      </trkpt>
      <trkpt lat="49.14965" lon="0.11751">
        <ele>141</ele>
        <time>2024-03-20T17:24:52Z</time>
      </trkpt>
      <trkpt lat="49.14976" lon="0.11742">
        <ele>140.2</ele>
        <time>2024-03-20T17:24:53Z</time>
      </trkpt>
      <trkpt lat="49.14986" lon="0.11732">
        <ele>140.2</ele>
        <time>2024-03-20T17:24:54Z</time>
      </trkpt>
      <trkpt lat="49.14995" lon="0.11724">
        <ele>139.6</ele>
        <time>2024-03-20T17:24:55Z</time>
      </trkpt>
      <trkpt lat="49.15006" lon="0.1171">
        <ele>138.8</ele>
        <time>2024-03-20T17:24:56Z</time>
      </trkpt>
      <trkpt lat="49.15014" lon="0.11697">
        <ele>138</ele>
        <time>2024-03-20T17:24:57Z</time>
      </trkpt>
      <trkpt lat="49.1502" lon="0.11685">
        <ele>137.2</ele>
        <time>2024-03-20T17:24:58Z</time>
      </trkpt>
      <trkpt lat="49.15027" lon="0.1167">
        <ele>136.4</ele>
        <time>2024-03-20T17:24:59Z</time>
      </trkpt>
      <trkpt lat="49.15032" lon="0.11655">
        <ele>135.4</ele>
        <time>2024-03-20T17:25:00Z</time>
      </trkpt>
      <trkpt lat="49.15037" lon="0.11639">
        <ele>134.6</ele>
        <time>2024-03-20T17:25:01Z</time>
      </trkpt>
      <trkpt lat="49.15042" lon="0.11624">
        <ele>134</ele>
        <time>2024-03-20T17:25:02Z</time>
      </trkpt>
      <trkpt lat="49.15048" lon="0.11609">
        <ele>133.4</ele>
        <time>2024-03-20T17:25:03Z</time>
      </trkpt>
      <trkpt lat="49.15053" lon="0.11595">
        <ele>133.2</ele>
        <time>2024-03-20T17:25:04Z</time>
      </trkpt>
      <trkpt lat="49.15059" lon="0.11578">
        <ele>133</ele>
        <time>2024-03-20T17:25:05Z</time>
      </trkpt>
      <trkpt lat="49.15065" lon="0.11564">
        <ele>132.8</ele>
        <time>2024-03-20T17:25:06Z</time>
      </trkpt>
      <trkpt lat="49.1507" lon="0.1155">
        <ele>132.8</ele>
        <time>2024-03-20T17:25:07Z</time>
      </trkpt>
      <trkpt lat="49.15076" lon="0.11537">
        <ele>132.6</ele>
        <time>2024-03-20T17:25:08Z</time>
      </trkpt>
      <trkpt lat="49.15083" lon="0.11521">
        <ele>132.6</ele>
        <time>2024-03-20T17:25:09Z</time>
      </trkpt>
      <trkpt lat="49.15088" lon="0.1151">
        <ele>132.6</ele>
        <time>2024-03-20T17:25:10Z</time>
      </trkpt>
      <trkpt lat="49.15095" lon="0.11494">
        <ele>132.6</ele>
        <time>2024-03-20T17:25:11Z</time>
      </trkpt>
      <trkpt lat="49.15101" lon="0.11484">
        <ele>132.4</ele>
        <time>2024-03-20T17:25:12Z</time>
      </trkpt>
      <trkpt lat="49.15108" lon="0.11471">
        <ele>132.4</ele>
        <time>2024-03-20T17:25:13Z</time>
      </trkpt>
      <trkpt lat="49.15116" lon="0.11456">
        <ele>132.4</ele>
        <time>2024-03-20T17:25:14Z</time>
      </trkpt>
      <trkpt lat="49.15121" lon="0.11446">
        <ele>132.4</ele>
        <time>2024-03-20T17:25:15Z</time>
      </trkpt>
      <trkpt lat="49.15128" lon="0.11434">
        <ele>132.4</ele>
        <time>2024-03-20T17:25:16Z</time>
      </trkpt>
      <trkpt lat="49.15137" lon="0.1142">
        <ele>132.2</ele>
        <time>2024-03-20T17:25:17Z</time>
      </trkpt>
      <trkpt lat="49.15144" lon="0.11409">
        <ele>132.2</ele>
        <time>2024-03-20T17:25:18Z</time>
      </trkpt>
      <trkpt lat="49.1515" lon="0.114">
        <ele>132.2</ele>
        <time>2024-03-20T17:25:19Z</time>
      </trkpt>
      <trkpt lat="49.15157" lon="0.11389">
        <ele>132</ele>
        <time>2024-03-20T17:25:20Z</time>
      </trkpt>
      <trkpt lat="49.15167" lon="0.11375">
        <ele>131.8</ele>
        <time>2024-03-20T17:25:21Z</time>
      </trkpt>
      <trkpt lat="49.15174" lon="0.11366">
        <ele>131.6</ele>
        <time>2024-03-20T17:25:22Z</time>
      </trkpt>
      <trkpt lat="49.15182" lon="0.11355">
        <ele>131.4</ele>
        <time>2024-03-20T17:25:23Z</time>
      </trkpt>
      <trkpt lat="49.15191" lon="0.11341">
        <ele>131.4</ele>
        <time>2024-03-20T17:25:24Z</time>
      </trkpt>
      <trkpt lat="49.15198" lon="0.11334">
        <ele>131.4</ele>
        <time>2024-03-20T17:25:25Z</time>
      </trkpt>
      <trkpt lat="49.15208" lon="0.11322">
        <ele>131.2</ele>
        <time>2024-03-20T17:25:26Z</time>
      </trkpt>
      <trkpt lat="49.15216" lon="0.11313">
        <ele>131.2</ele>
        <time>2024-03-20T17:25:27Z</time>
      </trkpt>
      <trkpt lat="49.15225" lon="0.11305">
        <ele>131</ele>
        <time>2024-03-20T17:25:28Z</time>
      </trkpt>
      <trkpt lat="49.15236" lon="0.11296">
        <ele>130.8</ele>
        <time>2024-03-20T17:25:29Z</time>
      </trkpt>
      <trkpt lat="49.15246" lon="0.11289">
        <ele>130.6</ele>
        <time>2024-03-20T17:25:30Z</time>
      </trkpt>
      <trkpt lat="49.15253" lon="0.11282">
        <ele>130</ele>
        <time>2024-03-20T17:25:31Z</time>
      </trkpt>
      <trkpt lat="49.15262" lon="0.11273">
        <ele>129.6</ele>
        <time>2024-03-20T17:25:32Z</time>
      </trkpt>
      <trkpt lat="49.15269" lon="0.11266">
        <ele>129.6</ele>
        <time>2024-03-20T17:25:33Z</time>
      </trkpt>
      <trkpt lat="49.1528" lon="0.11255">
        <ele>129.2</ele>
        <time>2024-03-20T17:25:34Z</time>
      </trkpt>
      <trkpt lat="49.15288" lon="0.11248">
        <ele>128.8</ele>
        <time>2024-03-20T17:25:35Z</time>
      </trkpt>
      <trkpt lat="49.15298" lon="0.11236">
        <ele>128.4</ele>
        <time>2024-03-20T17:25:36Z</time>
      </trkpt>
      <trkpt lat="49.15306" lon="0.11226">
        <ele>128.2</ele>
        <time>2024-03-20T17:25:37Z</time>
      </trkpt>
      <trkpt lat="49.15313" lon="0.11218">
        <ele>127.8</ele>
        <time>2024-03-20T17:25:38Z</time>
      </trkpt>
      <trkpt lat="49.15323" lon="0.11205">
        <ele>127.2</ele>
        <time>2024-03-20T17:25:39Z</time>
      </trkpt>
      <trkpt lat="49.15332" lon="0.11194">
        <ele>126.8</ele>
        <time>2024-03-20T17:25:40Z</time>
      </trkpt>
      <trkpt lat="49.1534" lon="0.11182">
        <ele>126.4</ele>
        <time>2024-03-20T17:25:41Z</time>
      </trkpt>
      <trkpt lat="49.15349" lon="0.11169">
        <ele>126.2</ele>
        <time>2024-03-20T17:25:42Z</time>
      </trkpt>
      <trkpt lat="49.15358" lon="0.11156">
        <ele>126</ele>
        <time>2024-03-20T17:25:43Z</time>
      </trkpt>
      <trkpt lat="49.15366" lon="0.11143">
        <ele>125.6</ele>
        <time>2024-03-20T17:25:44Z</time>
      </trkpt>
      <trkpt lat="49.15374" lon="0.11131">
        <ele>125.2</ele>
        <time>2024-03-20T17:25:45Z</time>
      </trkpt>
      <trkpt lat="49.15382" lon="0.11119">
        <ele>124.4</ele>
        <time>2024-03-20T17:25:46Z</time>
      </trkpt>
      <trkpt lat="49.15389" lon="0.1111">
        <ele>123.8</ele>
        <time>2024-03-20T17:25:47Z</time>
      </trkpt>
      <trkpt lat="49.15398" lon="0.11095">
        <ele>123.2</ele>
        <time>2024-03-20T17:25:48Z</time>
      </trkpt>
      <trkpt lat="49.15404" lon="0.11085">
        <ele>122.6</ele>
        <time>2024-03-20T17:25:49Z</time>
      </trkpt>
      <trkpt lat="49.15411" lon="0.11073">
        <ele>121.8</ele>
        <time>2024-03-20T17:25:50Z</time>
      </trkpt>
      <trkpt lat="49.15419" lon="0.11059">
        <ele>121.4</ele>
        <time>2024-03-20T17:25:51Z</time>
      </trkpt>
      <trkpt lat="49.15427" lon="0.11048">
        <ele>121.4</ele>
        <time>2024-03-20T17:25:52Z</time>
      </trkpt>
      <trkpt lat="49.15434" lon="0.11037">
        <ele>121.2</ele>
        <time>2024-03-20T17:25:53Z</time>
      </trkpt>
      <trkpt lat="49.15439" lon="0.11029">
        <ele>121</ele>
        <time>2024-03-20T17:25:54Z</time>
      </trkpt>
      <trkpt lat="49.15448" lon="0.11017">
        <ele>121</ele>
        <time>2024-03-20T17:25:55Z</time>
      </trkpt>
      <trkpt lat="49.15455" lon="0.11006">
        <ele>121</ele>
        <time>2024-03-20T17:25:56Z</time>
      </trkpt>
      <trkpt lat="49.15462" lon="0.10996">
        <ele>121</ele>
        <time>2024-03-20T17:25:57Z</time>
      </trkpt>
      <trkpt lat="49.15468" lon="0.10985">
        <ele>121</ele>
        <time>2024-03-20T17:25:58Z</time>
      </trkpt>
      <trkpt lat="49.15475" lon="0.10974">
        <ele>121</ele>
        <time>2024-03-20T17:25:59Z</time>
      </trkpt>
      <trkpt lat="49.15482" lon="0.10964">
        <ele>121</ele>
        <time>2024-03-20T17:26:00Z</time>
      </trkpt>
      <trkpt lat="49.15488" lon="0.10953">
        <ele>120.8</ele>
        <time>2024-03-20T17:26:01Z</time>
      </trkpt>
      <trkpt lat="49.15495" lon="0.10943">
        <ele>120.8</ele>
        <time>2024-03-20T17:26:02Z</time>
      </trkpt>
      <trkpt lat="49.15502" lon="0.10932">
        <ele>120.8</ele>
        <time>2024-03-20T17:26:03Z</time>
      </trkpt>
      <trkpt lat="49.15508" lon="0.10921">
        <ele>120.8</ele>
        <time>2024-03-20T17:26:04Z</time>
      </trkpt>
      <trkpt lat="49.15515" lon="0.1091">
        <ele>120.8</ele>
        <time>2024-03-20T17:26:05Z</time>
      </trkpt>
      <trkpt lat="49.15521" lon="0.10899">
        <ele>120.8</ele>
        <time>2024-03-20T17:26:06Z</time>
      </trkpt>
      <trkpt lat="49.15527" lon="0.10891">
        <ele>120.8</ele>
        <time>2024-03-20T17:26:07Z</time>
      </trkpt>
      <trkpt lat="49.15535" lon="0.10878">
        <ele>120.8</ele>
        <time>2024-03-20T17:26:08Z</time>
      </trkpt>
      <trkpt lat="49.15541" lon="0.10867">
        <ele>120.8</ele>
        <time>2024-03-20T17:26:09Z</time>
      </trkpt>
      <trkpt lat="49.15548" lon="0.10856">
        <ele>120.8</ele>
        <time>2024-03-20T17:26:10Z</time>
      </trkpt>
      <trkpt lat="49.15555" lon="0.10845">
        <ele>120.6</ele>
        <time>2024-03-20T17:26:11Z</time>
      </trkpt>
      <trkpt lat="49.15561" lon="0.10835">
        <ele>120.6</ele>
        <time>2024-03-20T17:26:12Z</time>
      </trkpt>
      <trkpt lat="49.15568" lon="0.10824">
        <ele>120.4</ele>
        <time>2024-03-20T17:26:13Z</time>
      </trkpt>
      <trkpt lat="49.15574" lon="0.10814">
        <ele>120.2</ele>
        <time>2024-03-20T17:26:14Z</time>
      </trkpt>
      <trkpt lat="49.1558" lon="0.10803">
        <ele>120</ele>
        <time>2024-03-20T17:26:15Z</time>
      </trkpt>
      <trkpt lat="49.15587" lon="0.10793">
        <ele>119.8</ele>
        <time>2024-03-20T17:26:16Z</time>
      </trkpt>
      <trkpt lat="49.15593" lon="0.10782">
        <ele>119.6</ele>
        <time>2024-03-20T17:26:17Z</time>
      </trkpt>
      <trkpt lat="49.15599" lon="0.10774">
        <ele>119.6</ele>
        <time>2024-03-20T17:26:18Z</time>
      </trkpt>
      <trkpt lat="49.15606" lon="0.10762">
        <ele>119.4</ele>
        <time>2024-03-20T17:26:19Z</time>
      </trkpt>
      <trkpt lat="49.15611" lon="0.10754">
        <ele>119.4</ele>
        <time>2024-03-20T17:26:20Z</time>
      </trkpt>
      <trkpt lat="49.15619" lon="0.10741">
        <ele>119.2</ele>
        <time>2024-03-20T17:26:21Z</time>
      </trkpt>
      <trkpt lat="49.15626" lon="0.10732">
        <ele>119.2</ele>
        <time>2024-03-20T17:26:22Z</time>
      </trkpt>
      <trkpt lat="49.15632" lon="0.10721">
        <ele>119.2</ele>
        <time>2024-03-20T17:26:23Z</time>
      </trkpt>
      <trkpt lat="49.15639" lon="0.10711">
        <ele>119</ele>
        <time>2024-03-20T17:26:24Z</time>
      </trkpt>
      <trkpt lat="49.15645" lon="0.10701">
        <ele>118.8</ele>
        <time>2024-03-20T17:26:25Z</time>
      </trkpt>
      <trkpt lat="49.15652" lon="0.1069">
        <ele>118.8</ele>
        <time>2024-03-20T17:26:26Z</time>
      </trkpt>
      <trkpt lat="49.15658" lon="0.1068">
        <ele>118.6</ele>
        <time>2024-03-20T17:26:27Z</time>
      </trkpt>
      <trkpt lat="49.15665" lon="0.1067">
        <ele>118.6</ele>
        <time>2024-03-20T17:26:28Z</time>
      </trkpt>
      <trkpt lat="49.15671" lon="0.1066">
        <ele>118.6</ele>
        <time>2024-03-20T17:26:29Z</time>
      </trkpt>
      <trkpt lat="49.15677" lon="0.1065">
        <ele>118.6</ele>
        <time>2024-03-20T17:26:30Z</time>
      </trkpt>
      <trkpt lat="49.15682" lon="0.10642">
        <ele>118.6</ele>
        <time>2024-03-20T17:26:31Z</time>
      </trkpt>
      <trkpt lat="49.15689" lon="0.10633">
        <ele>118.4</ele>
        <time>2024-03-20T17:26:32Z</time>
      </trkpt>
      <trkpt lat="49.15697" lon="0.10622">
        <ele>118.4</ele>
        <time>2024-03-20T17:26:33Z</time>
      </trkpt>
      <trkpt lat="49.15702" lon="0.10614">
        <ele>118.2</ele>
        <time>2024-03-20T17:26:34Z</time>
      </trkpt>
      <trkpt lat="49.1571" lon="0.10602">
        <ele>118</ele>
        <time>2024-03-20T17:26:35Z</time>
      </trkpt>
      <trkpt lat="49.15716" lon="0.10593">
        <ele>118</ele>
        <time>2024-03-20T17:26:36Z</time>
      </trkpt>
      <trkpt lat="49.15721" lon="0.10585">
        <ele>118</ele>
        <time>2024-03-20T17:26:37Z</time>
      </trkpt>
      <trkpt lat="49.15728" lon="0.10575">
        <ele>117.8</ele>
        <time>2024-03-20T17:26:38Z</time>
      </trkpt>
      <trkpt lat="49.15734" lon="0.10565">
        <ele>117.8</ele>
        <time>2024-03-20T17:26:39Z</time>
      </trkpt>
      <trkpt lat="49.15741" lon="0.10555">
        <ele>117.8</ele>
        <time>2024-03-20T17:26:40Z</time>
      </trkpt>
      <trkpt lat="49.15749" lon="0.10544">
        <ele>117.6</ele>
        <time>2024-03-20T17:26:41Z</time>
      </trkpt>
      <trkpt lat="49.15755" lon="0.10536">
        <ele>117.6</ele>
        <time>2024-03-20T17:26:42Z</time>
      </trkpt>
      <trkpt lat="49.15762" lon="0.10526">
        <ele>117.6</ele>
        <time>2024-03-20T17:26:43Z</time>
      </trkpt>
      <trkpt lat="49.15769" lon="0.10517">
        <ele>117.4</ele>
        <time>2024-03-20T17:26:44Z</time>
      </trkpt>
      <trkpt lat="49.15777" lon="0.10508">
        <ele>117.4</ele>
        <time>2024-03-20T17:26:45Z</time>
      </trkpt>
      <trkpt lat="49.15786" lon="0.10499">
        <ele>117.4</ele>
        <time>2024-03-20T17:26:46Z</time>
      </trkpt>
      <trkpt lat="49.15794" lon="0.10491">
        <ele>117.2</ele>
        <time>2024-03-20T17:26:47Z</time>
      </trkpt>
      <trkpt lat="49.15803" lon="0.10482">
        <ele>117</ele>
        <time>2024-03-20T17:26:48Z</time>
      </trkpt>
      <trkpt lat="49.15811" lon="0.10473">
        <ele>116.6</ele>
        <time>2024-03-20T17:26:49Z</time>
      </trkpt>
      <trkpt lat="49.15819" lon="0.10464">
        <ele>116.4</ele>
        <time>2024-03-20T17:26:50Z</time>
      </trkpt>
      <trkpt lat="49.15828" lon="0.10454">
        <ele>116</ele>
        <time>2024-03-20T17:26:51Z</time>
      </trkpt>
      <trkpt lat="49.15837" lon="0.10444">
        <ele>116</ele>
        <time>2024-03-20T17:26:52Z</time>
      </trkpt>
      <trkpt lat="49.15846" lon="0.10435">
        <ele>115.4</ele>
        <time>2024-03-20T17:26:53Z</time>
      </trkpt>
      <trkpt lat="49.15855" lon="0.10426">
        <ele>115</ele>
        <time>2024-03-20T17:26:54Z</time>
      </trkpt>
      <trkpt lat="49.15864" lon="0.10417">
        <ele>114.2</ele>
        <time>2024-03-20T17:26:55Z</time>
      </trkpt>
      <trkpt lat="49.15874" lon="0.10409">
        <ele>113.8</ele>
        <time>2024-03-20T17:26:56Z</time>
      </trkpt>
      <trkpt lat="49.15883" lon="0.104">
        <ele>113.2</ele>
        <time>2024-03-20T17:26:57Z</time>
      </trkpt>
      <trkpt lat="49.15893" lon="0.10391">
        <ele>112.6</ele>
        <time>2024-03-20T17:26:58Z</time>
      </trkpt>
      <trkpt lat="49.15902" lon="0.10382">
        <ele>112.2</ele>
        <time>2024-03-20T17:26:59Z</time>
      </trkpt>
      <trkpt lat="49.15912" lon="0.10373">
        <ele>111.6</ele>
        <time>2024-03-20T17:27:00Z</time>
      </trkpt>
      <trkpt lat="49.15922" lon="0.10363">
        <ele>111</ele>
        <time>2024-03-20T17:27:01Z</time>
      </trkpt>
      <trkpt lat="49.15933" lon="0.10352">
        <ele>110.4</ele>
        <time>2024-03-20T17:27:02Z</time>
      </trkpt>
      <trkpt lat="49.15941" lon="0.10344">
        <ele>109.8</ele>
        <time>2024-03-20T17:27:03Z</time>
      </trkpt>
      <trkpt lat="49.15951" lon="0.10334">
        <ele>109.4</ele>
        <time>2024-03-20T17:27:04Z</time>
      </trkpt>
      <trkpt lat="49.15961" lon="0.10324">
        <ele>108.8</ele>
        <time>2024-03-20T17:27:05Z</time>
      </trkpt>
      <trkpt lat="49.15971" lon="0.10314">
        <ele>108.2</ele>
        <time>2024-03-20T17:27:06Z</time>
      </trkpt>
      <trkpt lat="49.15981" lon="0.10304">
        <ele>107.6</ele>
        <time>2024-03-20T17:27:07Z</time>
      </trkpt>
      <trkpt lat="49.1599" lon="0.10294">
        <ele>107</ele>
        <time>2024-03-20T17:27:08Z</time>
      </trkpt>
      <trkpt lat="49.16001" lon="0.10283">
        <ele>106.6</ele>
        <time>2024-03-20T17:27:09Z</time>
      </trkpt>
      <trkpt lat="49.1601" lon="0.10274">
        <ele>106</ele>
        <time>2024-03-20T17:27:10Z</time>
      </trkpt>
      <trkpt lat="49.16016" lon="0.10267">
        <ele>105</ele>
        <time>2024-03-20T17:27:11Z</time>
      </trkpt>
      <trkpt lat="49.16025" lon="0.10258">
        <ele>105</ele>
        <time>2024-03-20T17:27:12Z</time>
      </trkpt>
      <trkpt lat="49.16033" lon="0.1025">
        <ele>104.2</ele>
        <time>2024-03-20T17:27:13Z</time>
      </trkpt>
      <trkpt lat="49.16043" lon="0.1024">
        <ele>103.8</ele>
        <time>2024-03-20T17:27:14Z</time>
      </trkpt>
      <trkpt lat="49.16049" lon="0.10234">
        <ele>103.4</ele>
        <time>2024-03-20T17:27:15Z</time>
      </trkpt>
      <trkpt lat="49.16056" lon="0.10225">
        <ele>102.8</ele>
        <time>2024-03-20T17:27:16Z</time>
      </trkpt>
      <trkpt lat="49.16064" lon="0.10216">
        <ele>102.6</ele>
        <time>2024-03-20T17:27:17Z</time>
      </trkpt>
      <trkpt lat="49.16071" lon="0.10207">
        <ele>102.4</ele>
        <time>2024-03-20T17:27:18Z</time>
      </trkpt>
      <trkpt lat="49.16079" lon="0.10194">
        <ele>102.4</ele>
        <time>2024-03-20T17:27:19Z</time>
      </trkpt>
      <trkpt lat="49.16083" lon="0.10186">
        <ele>102.2</ele>
        <time>2024-03-20T17:27:20Z</time>
      </trkpt>
      <trkpt lat="49.16091" lon="0.10173">
        <ele>102.2</ele>
        <time>2024-03-20T17:27:21Z</time>
      </trkpt>
      <trkpt lat="49.16096" lon="0.10161">
        <ele>102.2</ele>
        <time>2024-03-20T17:27:22Z</time>
      </trkpt>
      <trkpt lat="49.16102" lon="0.10149">
        <ele>102.2</ele>
        <time>2024-03-20T17:27:23Z</time>
      </trkpt>
      <trkpt lat="49.16107" lon="0.10136">
        <ele>102.2</ele>
        <time>2024-03-20T17:27:24Z</time>
      </trkpt>
      <trkpt lat="49.16113" lon="0.10123">
        <ele>102.2</ele>
        <time>2024-03-20T17:27:25Z</time>
      </trkpt>
      <trkpt lat="49.16117" lon="0.1011">
        <ele>102.2</ele>
        <time>2024-03-20T17:27:26Z</time>
      </trkpt>
      <trkpt lat="49.16122" lon="0.10097">
        <ele>102</ele>
        <time>2024-03-20T17:27:27Z</time>
      </trkpt>
      <trkpt lat="49.16126" lon="0.10088">
        <ele>102</ele>
        <time>2024-03-20T17:27:28Z</time>
      </trkpt>
      <trkpt lat="49.16132" lon="0.10073">
        <ele>102</ele>
        <time>2024-03-20T17:27:29Z</time>
      </trkpt>
      <trkpt lat="49.16137" lon="0.10061">
        <ele>102</ele>
        <time>2024-03-20T17:27:30Z</time>
      </trkpt>
      <trkpt lat="49.16141" lon="0.10049">
        <ele>102</ele>
        <time>2024-03-20T17:27:31Z</time>
      </trkpt>
      <trkpt lat="49.16146" lon="0.10036">
        <ele>102</ele>
        <time>2024-03-20T17:27:32Z</time>
      </trkpt>
      <trkpt lat="49.16151" lon="0.10024">
        <ele>102</ele>
        <time>2024-03-20T17:27:33Z</time>
      </trkpt>
      <trkpt lat="49.16156" lon="0.10012">
        <ele>102</ele>
        <time>2024-03-20T17:27:34Z</time>
      </trkpt>
      <trkpt lat="49.16161" lon="0.1">
        <ele>101.8</ele>
        <time>2024-03-20T17:27:35Z</time>
      </trkpt>
      <trkpt lat="49.16166" lon="0.09989">
        <ele>101.6</ele>
        <time>2024-03-20T17:27:36Z</time>
      </trkpt>
      <trkpt lat="49.16171" lon="0.09977">
        <ele>101.4</ele>
        <time>2024-03-20T17:27:37Z</time>
      </trkpt>
      <trkpt lat="49.16176" lon="0.09965">
        <ele>101.2</ele>
        <time>2024-03-20T17:27:38Z</time>
      </trkpt>
      <trkpt lat="49.16182" lon="0.09954">
        <ele>101.2</ele>
        <time>2024-03-20T17:27:39Z</time>
      </trkpt>
      <trkpt lat="49.16188" lon="0.09944">
        <ele>101</ele>
        <time>2024-03-20T17:27:40Z</time>
      </trkpt>
      <trkpt lat="49.16194" lon="0.09933">
        <ele>100.8</ele>
        <time>2024-03-20T17:27:41Z</time>
      </trkpt>
      <trkpt lat="49.16202" lon="0.09922">
        <ele>100.8</ele>
        <time>2024-03-20T17:27:42Z</time>
      </trkpt>
      <trkpt lat="49.1621" lon="0.09912">
        <ele>100.6</ele>
        <time>2024-03-20T17:27:43Z</time>
      </trkpt>
      <trkpt lat="49.16217" lon="0.09904">
        <ele>100.6</ele>
        <time>2024-03-20T17:27:44Z</time>
      </trkpt>
      <trkpt lat="49.16225" lon="0.09895">
        <ele>100.6</ele>
        <time>2024-03-20T17:27:45Z</time>
      </trkpt>
      <trkpt lat="49.16232" lon="0.09886">
        <ele>100.4</ele>
        <time>2024-03-20T17:27:46Z</time>
      </trkpt>
      <trkpt lat="49.16239" lon="0.09877">
        <ele>100.4</ele>
        <time>2024-03-20T17:27:47Z</time>
      </trkpt>
      <trkpt lat="49.16245" lon="0.09865">
        <ele>100.4</ele>
        <time>2024-03-20T17:27:48Z</time>
      </trkpt>
      <trkpt lat="49.16251" lon="0.09854">
        <ele>100.2</ele>
        <time>2024-03-20T17:27:49Z</time>
      </trkpt>
      <trkpt lat="49.16258" lon="0.09844">
        <ele>100</ele>
        <time>2024-03-20T17:27:50Z</time>
      </trkpt>
      <trkpt lat="49.16264" lon="0.09834">
        <ele>100</ele>
        <time>2024-03-20T17:27:51Z</time>
      </trkpt>
      <trkpt lat="49.1627" lon="0.09824">
        <ele>100</ele>
        <time>2024-03-20T17:27:52Z</time>
      </trkpt>
      <trkpt lat="49.16276" lon="0.09814">
        <ele>100</ele>
        <time>2024-03-20T17:27:53Z</time>
      </trkpt>
      <trkpt lat="49.16283" lon="0.09804">
        <ele>99.8</ele>
        <time>2024-03-20T17:27:54Z</time>
      </trkpt>
      <trkpt lat="49.16289" lon="0.09794">
        <ele>99.8</ele>
        <time>2024-03-20T17:27:55Z</time>
      </trkpt>
      <trkpt lat="49.16295" lon="0.09783">
        <ele>99.8</ele>
        <time>2024-03-20T17:27:56Z</time>
      </trkpt>
      <trkpt lat="49.16302" lon="0.09773">
        <ele>99.8</ele>
        <time>2024-03-20T17:27:57Z</time>
      </trkpt>
      <trkpt lat="49.16308" lon="0.09762">
        <ele>99.6</ele>
        <time>2024-03-20T17:27:58Z</time>
      </trkpt>
      <trkpt lat="49.16315" lon="0.09752">
        <ele>99.4</ele>
        <time>2024-03-20T17:27:59Z</time>
      </trkpt>
      <trkpt lat="49.16322" lon="0.09742">
        <ele>99.2</ele>
        <time>2024-03-20T17:28:00Z</time>
      </trkpt>
      <trkpt lat="49.16328" lon="0.09731">
        <ele>99</ele>
        <time>2024-03-20T17:28:01Z</time>
      </trkpt>
      <trkpt lat="49.16335" lon="0.0972">
        <ele>98.8</ele>
        <time>2024-03-20T17:28:02Z</time>
      </trkpt>
      <trkpt lat="49.16341" lon="0.09709">
        <ele>98.6</ele>
        <time>2024-03-20T17:28:03Z</time>
      </trkpt>
      <trkpt lat="49.16347" lon="0.09697">
        <ele>98.6</ele>
        <time>2024-03-20T17:28:04Z</time>
      </trkpt>
      <trkpt lat="49.16354" lon="0.09686">
        <ele>98</ele>
        <time>2024-03-20T17:28:05Z</time>
      </trkpt>
      <trkpt lat="49.1636" lon="0.09675">
        <ele>98</ele>
        <time>2024-03-20T17:28:06Z</time>
      </trkpt>
      <trkpt lat="49.16367" lon="0.09665">
        <ele>97.8</ele>
        <time>2024-03-20T17:28:07Z</time>
      </trkpt>
      <trkpt lat="49.16374" lon="0.09655">
        <ele>97.6</ele>
        <time>2024-03-20T17:28:08Z</time>
      </trkpt>
      <trkpt lat="49.16382" lon="0.09646">
        <ele>97.6</ele>
        <time>2024-03-20T17:28:09Z</time>
      </trkpt>
      <trkpt lat="49.16388" lon="0.0964">
        <ele>97.2</ele>
        <time>2024-03-20T17:28:10Z</time>
      </trkpt>
      <trkpt lat="49.16396" lon="0.0963">
        <ele>97.2</ele>
        <time>2024-03-20T17:28:11Z</time>
      </trkpt>
      <trkpt lat="49.16403" lon="0.09621">
        <ele>97</ele>
        <time>2024-03-20T17:28:12Z</time>
      </trkpt>
      <trkpt lat="49.1641" lon="0.09613">
        <ele>96.6</ele>
        <time>2024-03-20T17:28:13Z</time>
      </trkpt>
      <trkpt lat="49.16417" lon="0.09607">
        <ele>96.4</ele>
        <time>2024-03-20T17:28:14Z</time>
      </trkpt>
      <trkpt lat="49.16425" lon="0.09601">
        <ele>96.2</ele>
        <time>2024-03-20T17:28:15Z</time>
      </trkpt>
      <trkpt lat="49.16434" lon="0.09595">
        <ele>96</ele>
        <time>2024-03-20T17:28:16Z</time>
      </trkpt>
      <trkpt lat="49.16441" lon="0.09589">
        <ele>96</ele>
        <time>2024-03-20T17:28:17Z</time>
      </trkpt>
      <trkpt lat="49.16448" lon="0.09583">
        <ele>96</ele>
        <time>2024-03-20T17:28:18Z</time>
      </trkpt>
      <trkpt lat="49.16455" lon="0.09579">
        <ele>96</ele>
        <time>2024-03-20T17:28:19Z</time>
      </trkpt>
      <trkpt lat="49.16465" lon="0.09573">
        <ele>95.8</ele>
        <time>2024-03-20T17:28:20Z</time>
      </trkpt>
      <trkpt lat="49.16474" lon="0.09569">
        <ele>95.8</ele>
        <time>2024-03-20T17:28:21Z</time>
      </trkpt>
      <trkpt lat="49.16482" lon="0.09564">
        <ele>95.8</ele>
        <time>2024-03-20T17:28:22Z</time>
      </trkpt>
      <trkpt lat="49.1649" lon="0.09559">
        <ele>95.8</ele>
        <time>2024-03-20T17:28:23Z</time>
      </trkpt>
      <trkpt lat="49.16499" lon="0.09555">
        <ele>95.8</ele>
        <time>2024-03-20T17:28:24Z</time>
      </trkpt>
      <trkpt lat="49.16508" lon="0.09551">
        <ele>95.8</ele>
        <time>2024-03-20T17:28:25Z</time>
      </trkpt>
      <trkpt lat="49.16517" lon="0.09546">
        <ele>95.6</ele>
        <time>2024-03-20T17:28:26Z</time>
      </trkpt>
      <trkpt lat="49.16526" lon="0.09541">
        <ele>95.6</ele>
        <time>2024-03-20T17:28:27Z</time>
      </trkpt>
      <trkpt lat="49.16536" lon="0.09536">
        <ele>95.6</ele>
        <time>2024-03-20T17:28:28Z</time>
      </trkpt>
      <trkpt lat="49.16545" lon="0.09531">
        <ele>95.4</ele>
        <time>2024-03-20T17:28:29Z</time>
      </trkpt>
      <trkpt lat="49.16555" lon="0.09525">
        <ele>95.4</ele>
        <time>2024-03-20T17:28:30Z</time>
      </trkpt>
      <trkpt lat="49.16564" lon="0.0952">
        <ele>95</ele>
        <time>2024-03-20T17:28:31Z</time>
      </trkpt>
      <trkpt lat="49.16574" lon="0.09514">
        <ele>94.8</ele>
        <time>2024-03-20T17:28:32Z</time>
      </trkpt>
      <trkpt lat="49.16584" lon="0.09508">
        <ele>94.4</ele>
        <time>2024-03-20T17:28:33Z</time>
      </trkpt>
      <trkpt lat="49.16594" lon="0.09502">
        <ele>93.8</ele>
        <time>2024-03-20T17:28:34Z</time>
      </trkpt>
      <trkpt lat="49.16604" lon="0.09496">
        <ele>93.4</ele>
        <time>2024-03-20T17:28:35Z</time>
      </trkpt>
      <trkpt lat="49.16615" lon="0.0949">
        <ele>92.8</ele>
        <time>2024-03-20T17:28:36Z</time>
      </trkpt>
      <trkpt lat="49.16626" lon="0.09484">
        <ele>92.4</ele>
        <time>2024-03-20T17:28:37Z</time>
      </trkpt>
      <trkpt lat="49.16637" lon="0.09478">
        <ele>91.8</ele>
        <time>2024-03-20T17:28:38Z</time>
      </trkpt>
      <trkpt lat="49.16648" lon="0.09472">
        <ele>91</ele>
        <time>2024-03-20T17:28:39Z</time>
      </trkpt>
      <trkpt lat="49.16659" lon="0.09468">
        <ele>90.4</ele>
        <time>2024-03-20T17:28:40Z</time>
      </trkpt>
      <trkpt lat="49.1667" lon="0.09465">
        <ele>90</ele>
        <time>2024-03-20T17:28:41Z</time>
      </trkpt>
      <trkpt lat="49.16682" lon="0.09463">
        <ele>89.2</ele>
        <time>2024-03-20T17:28:42Z</time>
      </trkpt>
      <trkpt lat="49.16694" lon="0.09461">
        <ele>88.4</ele>
        <time>2024-03-20T17:28:43Z</time>
      </trkpt>
      <trkpt lat="49.16706" lon="0.09462">
        <ele>87.4</ele>
        <time>2024-03-20T17:28:44Z</time>
      </trkpt>
      <trkpt lat="49.16717" lon="0.09462">
        <ele>86.8</ele>
        <time>2024-03-20T17:28:45Z</time>
      </trkpt>
      <trkpt lat="49.16727" lon="0.09463">
        <ele>86.4</ele>
        <time>2024-03-20T17:28:46Z</time>
      </trkpt>
      <trkpt lat="49.1674" lon="0.09466">
        <ele>86.2</ele>
        <time>2024-03-20T17:28:47Z</time>
      </trkpt>
      <trkpt lat="49.16751" lon="0.09468">
        <ele>86</ele>
        <time>2024-03-20T17:28:48Z</time>
      </trkpt>
      <trkpt lat="49.16762" lon="0.0947">
        <ele>85.4</ele>
        <time>2024-03-20T17:28:49Z</time>
      </trkpt>
      <trkpt lat="49.16773" lon="0.09472">
        <ele>85.4</ele>
        <time>2024-03-20T17:28:50Z</time>
      </trkpt>
      <trkpt lat="49.16783" lon="0.09475">
        <ele>84.8</ele>
        <time>2024-03-20T17:28:51Z</time>
      </trkpt>
      <trkpt lat="49.16793" lon="0.09477">
        <ele>84.4</ele>
        <time>2024-03-20T17:28:52Z</time>
      </trkpt>
      <trkpt lat="49.16805" lon="0.09479">
        <ele>83.8</ele>
        <time>2024-03-20T17:28:53Z</time>
      </trkpt>
      <trkpt lat="49.16813" lon="0.0948">
        <ele>83.6</ele>
        <time>2024-03-20T17:28:54Z</time>
      </trkpt>
      <trkpt lat="49.16823" lon="0.09481">
        <ele>83.4</ele>
        <time>2024-03-20T17:28:55Z</time>
      </trkpt>
      <trkpt lat="49.16833" lon="0.09481">
        <ele>83.2</ele>
        <time>2024-03-20T17:28:56Z</time>
      </trkpt>
      <trkpt lat="49.16842" lon="0.09479">
        <ele>83</ele>
        <time>2024-03-20T17:28:57Z</time>
      </trkpt>
      <trkpt lat="49.16852" lon="0.09477">
        <ele>82.6</ele>
        <time>2024-03-20T17:28:58Z</time>
      </trkpt>
      <trkpt lat="49.16862" lon="0.09473">
        <ele>82.4</ele>
        <time>2024-03-20T17:28:59Z</time>
      </trkpt>
      <trkpt lat="49.16871" lon="0.09467">
        <ele>82.4</ele>
        <time>2024-03-20T17:29:00Z</time>
      </trkpt>
      <trkpt lat="49.1688" lon="0.09459">
        <ele>82.2</ele>
        <time>2024-03-20T17:29:01Z</time>
      </trkpt>
      <trkpt lat="49.16888" lon="0.0945">
        <ele>82</ele>
        <time>2024-03-20T17:29:02Z</time>
      </trkpt>
      <trkpt lat="49.16896" lon="0.0944">
        <ele>82</ele>
        <time>2024-03-20T17:29:03Z</time>
      </trkpt>
      <trkpt lat="49.16904" lon="0.0943">
        <ele>81.8</ele>
        <time>2024-03-20T17:29:04Z</time>
      </trkpt>
      <trkpt lat="49.16912" lon="0.09421">
        <ele>81.6</ele>
        <time>2024-03-20T17:29:05Z</time>
      </trkpt>
      <trkpt lat="49.1692" lon="0.09411">
        <ele>81.6</ele>
        <time>2024-03-20T17:29:06Z</time>
      </trkpt>
      <trkpt lat="49.16929" lon="0.09401">
        <ele>81.4</ele>
        <time>2024-03-20T17:29:07Z</time>
      </trkpt>
      <trkpt lat="49.16935" lon="0.09394">
        <ele>81.4</ele>
        <time>2024-03-20T17:29:08Z</time>
      </trkpt>
      <trkpt lat="49.16945" lon="0.09382">
        <ele>81.4</ele>
        <time>2024-03-20T17:29:09Z</time>
      </trkpt>
      <trkpt lat="49.16953" lon="0.09373">
        <ele>81.4</ele>
        <time>2024-03-20T17:29:10Z</time>
      </trkpt>
      <trkpt lat="49.16961" lon="0.09364">
        <ele>81.4</ele>
        <time>2024-03-20T17:29:11Z</time>
      </trkpt>
      <trkpt lat="49.16969" lon="0.09354">
        <ele>81.2</ele>
        <time>2024-03-20T17:29:12Z</time>
      </trkpt>
      <trkpt lat="49.16977" lon="0.09345">
        <ele>81.2</ele>
        <time>2024-03-20T17:29:13Z</time>
      </trkpt>
      <trkpt lat="49.16984" lon="0.09335">
        <ele>81</ele>
        <time>2024-03-20T17:29:14Z</time>
      </trkpt>
      <trkpt lat="49.16992" lon="0.09326">
        <ele>80.8</ele>
        <time>2024-03-20T17:29:15Z</time>
      </trkpt>
      <trkpt lat="49.17" lon="0.09318">
        <ele>80.6</ele>
        <time>2024-03-20T17:29:16Z</time>
      </trkpt>
      <trkpt lat="49.17009" lon="0.0931">
        <ele>80.6</ele>
        <time>2024-03-20T17:29:17Z</time>
      </trkpt>
      <trkpt lat="49.17016" lon="0.09301">
        <ele>80.4</ele>
        <time>2024-03-20T17:29:18Z</time>
      </trkpt>
      <trkpt lat="49.17022" lon="0.09294">
        <ele>80.2</ele>
        <time>2024-03-20T17:29:19Z</time>
      </trkpt>
      <trkpt lat="49.17033" lon="0.09284">
        <ele>80.2</ele>
        <time>2024-03-20T17:29:20Z</time>
      </trkpt>
      <trkpt lat="49.1704" lon="0.09274">
        <ele>79.8</ele>
        <time>2024-03-20T17:29:21Z</time>
      </trkpt>
      <trkpt lat="49.17049" lon="0.09266">
        <ele>79.6</ele>
        <time>2024-03-20T17:29:22Z</time>
      </trkpt>
      <trkpt lat="49.17057" lon="0.09258">
        <ele>79.6</ele>
        <time>2024-03-20T17:29:23Z</time>
      </trkpt>
      <trkpt lat="49.17066" lon="0.0925">
        <ele>79.2</ele>
        <time>2024-03-20T17:29:24Z</time>
      </trkpt>
      <trkpt lat="49.17075" lon="0.09243">
        <ele>79</ele>
        <time>2024-03-20T17:29:25Z</time>
      </trkpt>
      <trkpt lat="49.17082" lon="0.09237">
        <ele>79</ele>
        <time>2024-03-20T17:29:26Z</time>
      </trkpt>
      <trkpt lat="49.17091" lon="0.09228">
        <ele>78.8</ele>
        <time>2024-03-20T17:29:27Z</time>
      </trkpt>
      <trkpt lat="49.171" lon="0.09218">
        <ele>78.8</ele>
        <time>2024-03-20T17:29:28Z</time>
      </trkpt>
      <trkpt lat="49.17108" lon="0.09209">
        <ele>78.8</ele>
        <time>2024-03-20T17:29:29Z</time>
      </trkpt>
      <trkpt lat="49.17117" lon="0.09199">
        <ele>78.6</ele>
        <time>2024-03-20T17:29:30Z</time>
      </trkpt>
      <trkpt lat="49.17124" lon="0.0919">
        <ele>78.2</ele>
        <time>2024-03-20T17:29:31Z</time>
      </trkpt>
      <trkpt lat="49.17132" lon="0.09181">
        <ele>78</ele>
        <time>2024-03-20T17:29:32Z</time>
      </trkpt>
      <trkpt lat="49.1714" lon="0.09171">
        <ele>77.8</ele>
        <time>2024-03-20T17:29:33Z</time>
      </trkpt>
      <trkpt lat="49.17148" lon="0.09162">
        <ele>77.8</ele>
        <time>2024-03-20T17:29:34Z</time>
      </trkpt>
      <trkpt lat="49.17156" lon="0.09153">
        <ele>77.8</ele>
        <time>2024-03-20T17:29:35Z</time>
      </trkpt>
      <trkpt lat="49.17165" lon="0.09143">
        <ele>77.6</ele>
        <time>2024-03-20T17:29:36Z</time>
      </trkpt>
      <trkpt lat="49.17172" lon="0.09134">
        <ele>77.2</ele>
        <time>2024-03-20T17:29:37Z</time>
      </trkpt>
      <trkpt lat="49.1718" lon="0.09124">
        <ele>77</ele>
        <time>2024-03-20T17:29:38Z</time>
      </trkpt>
      <trkpt lat="49.17188" lon="0.09115">
        <ele>76.4</ele>
        <time>2024-03-20T17:29:39Z</time>
      </trkpt>
      <trkpt lat="49.17196" lon="0.09105">
        <ele>75.8</ele>
        <time>2024-03-20T17:29:40Z</time>
      </trkpt>
      <trkpt lat="49.17203" lon="0.09096">
        <ele>75.2</ele>
        <time>2024-03-20T17:29:41Z</time>
      </trkpt>
      <trkpt lat="49.17211" lon="0.09088">
        <ele>75</ele>
        <time>2024-03-20T17:29:42Z</time>
      </trkpt>
      <trkpt lat="49.1722" lon="0.09079">
        <ele>74.8</ele>
        <time>2024-03-20T17:29:43Z</time>
      </trkpt>
      <trkpt lat="49.17227" lon="0.09073">
        <ele>74.8</ele>
        <time>2024-03-20T17:29:44Z</time>
      </trkpt>
      <trkpt lat="49.17237" lon="0.09064">
        <ele>74.4</ele>
        <time>2024-03-20T17:29:45Z</time>
      </trkpt>
      <trkpt lat="49.17245" lon="0.09056">
        <ele>74</ele>
        <time>2024-03-20T17:29:46Z</time>
      </trkpt>
      <trkpt lat="49.17251" lon="0.09049">
        <ele>73.6</ele>
        <time>2024-03-20T17:29:47Z</time>
      </trkpt>
      <trkpt lat="49.17261" lon="0.09039">
        <ele>73.2</ele>
        <time>2024-03-20T17:29:48Z</time>
      </trkpt>
      <trkpt lat="49.17266" lon="0.09032">
        <ele>72.8</ele>
        <time>2024-03-20T17:29:49Z</time>
      </trkpt>
      <trkpt lat="49.17275" lon="0.09022">
        <ele>72.8</ele>
        <time>2024-03-20T17:29:50Z</time>
      </trkpt>
      <trkpt lat="49.17282" lon="0.09013">
        <ele>72.6</ele>
        <time>2024-03-20T17:29:51Z</time>
      </trkpt>
      <trkpt lat="49.17289" lon="0.09005">
        <ele>72.4</ele>
        <time>2024-03-20T17:29:52Z</time>
      </trkpt>
      <trkpt lat="49.17297" lon="0.08995">
        <ele>72.2</ele>
        <time>2024-03-20T17:29:53Z</time>
      </trkpt>
      <trkpt lat="49.17302" lon="0.08989">
        <ele>72</ele>
        <time>2024-03-20T17:29:54Z</time>
      </trkpt>
      <trkpt lat="49.17308" lon="0.08981">
        <ele>72</ele>
        <time>2024-03-20T17:29:55Z</time>
      </trkpt>
      <trkpt lat="49.17314" lon="0.08973">
        <ele>71.8</ele>
        <time>2024-03-20T17:29:56Z</time>
      </trkpt>
      <trkpt lat="49.1732" lon="0.08966">
        <ele>71.6</ele>
        <time>2024-03-20T17:29:57Z</time>
      </trkpt>
      <trkpt lat="49.17324" lon="0.08961">
        <ele>71.6</ele>
        <time>2024-03-20T17:29:58Z</time>
      </trkpt>
      <trkpt lat="49.1733" lon="0.08954">
        <ele>71.6</ele>
        <time>2024-03-20T17:29:59Z</time>
      </trkpt>
      <trkpt lat="49.17334" lon="0.08949">
        <ele>71.6</ele>
        <time>2024-03-20T17:30:00Z</time>
      </trkpt>
      <trkpt lat="49.17339" lon="0.08943">
        <ele>71.4</ele>
        <time>2024-03-20T17:30:01Z</time>
      </trkpt>
      <trkpt lat="49.17342" lon="0.08938">
        <ele>71.4</ele>
        <time>2024-03-20T17:30:02Z</time>
      </trkpt>
      <trkpt lat="49.17346" lon="0.08932">
        <ele>71.4</ele>
        <time>2024-03-20T17:30:03Z</time>
      </trkpt>
      <trkpt lat="49.17349" lon="0.08927">
        <ele>71.6</ele>
        <time>2024-03-20T17:30:04Z</time>
      </trkpt>
      <trkpt lat="49.17351" lon="0.08921">
        <ele>71.6</ele>
        <time>2024-03-20T17:30:05Z</time>
      </trkpt>
      <trkpt lat="49.17353" lon="0.08916">
        <ele>71.6</ele>
        <time>2024-03-20T17:30:06Z</time>
      </trkpt>
      <trkpt lat="49.17353" lon="0.0891">
        <ele>72</ele>
        <time>2024-03-20T17:30:07Z</time>
      </trkpt>
      <trkpt lat="49.17353" lon="0.08903">
        <ele>72.6</ele>
        <time>2024-03-20T17:30:08Z</time>
      </trkpt>
      <trkpt lat="49.17351" lon="0.08897">
        <ele>72.6</ele>
        <time>2024-03-20T17:30:09Z</time>
      </trkpt>
      <trkpt lat="49.17349" lon="0.08889">
        <ele>73.4</ele>
        <time>2024-03-20T17:30:10Z</time>
      </trkpt>
      <trkpt lat="49.17347" lon="0.08883">
        <ele>74</ele>
        <time>2024-03-20T17:30:11Z</time>
      </trkpt>
      <trkpt lat="49.17345" lon="0.08873">
        <ele>74.6</ele>
        <time>2024-03-20T17:30:12Z</time>
      </trkpt>
      <trkpt lat="49.17343" lon="0.08864">
        <ele>75.2</ele>
        <time>2024-03-20T17:30:13Z</time>
      </trkpt>
      <trkpt lat="49.1734" lon="0.08856">
        <ele>75.6</ele>
        <time>2024-03-20T17:30:14Z</time>
      </trkpt>
      <trkpt lat="49.17338" lon="0.08847">
        <ele>76</ele>
        <time>2024-03-20T17:30:15Z</time>
      </trkpt>
      <trkpt lat="49.17335" lon="0.08839">
        <ele>76</ele>
        <time>2024-03-20T17:30:16Z</time>
      </trkpt>
      <trkpt lat="49.17333" lon="0.08832">
        <ele>76.2</ele>
        <time>2024-03-20T17:30:17Z</time>
      </trkpt>
      <trkpt lat="49.1733" lon="0.0882">
        <ele>76.2</ele>
        <time>2024-03-20T17:30:18Z</time>
      </trkpt>
      <trkpt lat="49.17327" lon="0.0881">
        <ele>76.2</ele>
        <time>2024-03-20T17:30:19Z</time>
      </trkpt>
      <trkpt lat="49.17325" lon="0.08803">
        <ele>76.2</ele>
        <time>2024-03-20T17:30:20Z</time>
      </trkpt>
      <trkpt lat="49.17322" lon="0.08793">
        <ele>76.2</ele>
        <time>2024-03-20T17:30:21Z</time>
      </trkpt>
      <trkpt lat="49.17319" lon="0.08781">
        <ele>76.2</ele>
        <time>2024-03-20T17:30:22Z</time>
      </trkpt>
      <trkpt lat="49.17317" lon="0.08772">
        <ele>76.2</ele>
        <time>2024-03-20T17:30:23Z</time>
      </trkpt>
      <trkpt lat="49.17315" lon="0.08764">
        <ele>76.2</ele>
        <time>2024-03-20T17:30:24Z</time>
      </trkpt>
      <trkpt lat="49.17312" lon="0.08754">
        <ele>76</ele>
        <time>2024-03-20T17:30:25Z</time>
      </trkpt>
      <trkpt lat="49.17309" lon="0.08742">
        <ele>75.8</ele>
        <time>2024-03-20T17:30:26Z</time>
      </trkpt>
      <trkpt lat="49.17306" lon="0.08732">
        <ele>75.6</ele>
        <time>2024-03-20T17:30:27Z</time>
      </trkpt>
      <trkpt lat="49.17303" lon="0.08722">
        <ele>75.6</ele>
        <time>2024-03-20T17:30:28Z</time>
      </trkpt>
      <trkpt lat="49.173" lon="0.08712">
        <ele>75.4</ele>
        <time>2024-03-20T17:30:29Z</time>
      </trkpt>
      <trkpt lat="49.17297" lon="0.08701">
        <ele>75.2</ele>
        <time>2024-03-20T17:30:30Z</time>
      </trkpt>
      <trkpt lat="49.17294" lon="0.08691">
        <ele>75</ele>
        <time>2024-03-20T17:30:31Z</time>
      </trkpt>
      <trkpt lat="49.17291" lon="0.08681">
        <ele>75</ele>
        <time>2024-03-20T17:30:32Z</time>
      </trkpt>
      <trkpt lat="49.17289" lon="0.0867">
        <ele>75</ele>
        <time>2024-03-20T17:30:33Z</time>
      </trkpt>
      <trkpt lat="49.17286" lon="0.0866">
        <ele>74.8</ele>
        <time>2024-03-20T17:30:34Z</time>
      </trkpt>
      <trkpt lat="49.17283" lon="0.08649">
        <ele>74.8</ele>
        <time>2024-03-20T17:30:35Z</time>
      </trkpt>
      <trkpt lat="49.1728" lon="0.08638">
        <ele>74.6</ele>
        <time>2024-03-20T17:30:36Z</time>
      </trkpt>
      <trkpt lat="49.17278" lon="0.08628">
        <ele>74.6</ele>
        <time>2024-03-20T17:30:37Z</time>
      </trkpt>
      <trkpt lat="49.17276" lon="0.08617">
        <ele>74.4</ele>
        <time>2024-03-20T17:30:38Z</time>
      </trkpt>
      <trkpt lat="49.17274" lon="0.08606">
        <ele>74.4</ele>
        <time>2024-03-20T17:30:39Z</time>
      </trkpt>
      <trkpt lat="49.17272" lon="0.08594">
        <ele>74.2</ele>
        <time>2024-03-20T17:30:40Z</time>
      </trkpt>
      <trkpt lat="49.17271" lon="0.08583">
        <ele>74</ele>
        <time>2024-03-20T17:30:41Z</time>
      </trkpt>
      <trkpt lat="49.1727" lon="0.08571">
        <ele>73.8</ele>
        <time>2024-03-20T17:30:42Z</time>
      </trkpt>
      <trkpt lat="49.17269" lon="0.08559">
        <ele>73.8</ele>
        <time>2024-03-20T17:30:43Z</time>
      </trkpt>
      <trkpt lat="49.17267" lon="0.08547">
        <ele>73.8</ele>
        <time>2024-03-20T17:30:44Z</time>
      </trkpt>
      <trkpt lat="49.17266" lon="0.08536">
        <ele>73.8</ele>
        <time>2024-03-20T17:30:45Z</time>
      </trkpt>
      <trkpt lat="49.17264" lon="0.08526">
        <ele>73.6</ele>
        <time>2024-03-20T17:30:46Z</time>
      </trkpt>
      <trkpt lat="49.17263" lon="0.08516">
        <ele>73.6</ele>
        <time>2024-03-20T17:30:47Z</time>
      </trkpt>
      <trkpt lat="49.17261" lon="0.08505">
        <ele>73.6</ele>
        <time>2024-03-20T17:30:48Z</time>
      </trkpt>
      <trkpt lat="49.1726" lon="0.08495">
        <ele>73.6</ele>
        <time>2024-03-20T17:30:49Z</time>
      </trkpt>
      <trkpt lat="49.17258" lon="0.08484">
        <ele>73.4</ele>
        <time>2024-03-20T17:30:50Z</time>
      </trkpt>
      <trkpt lat="49.17256" lon="0.08474">
        <ele>73.2</ele>
        <time>2024-03-20T17:30:51Z</time>
      </trkpt>
      <trkpt lat="49.17254" lon="0.08464">
        <ele>73.2</ele>
        <time>2024-03-20T17:30:52Z</time>
      </trkpt>
      <trkpt lat="49.17252" lon="0.08455">
        <ele>73</ele>
        <time>2024-03-20T17:30:53Z</time>
      </trkpt>
      <trkpt lat="49.17249" lon="0.08445">
        <ele>73</ele>
        <time>2024-03-20T17:30:54Z</time>
      </trkpt>
      <trkpt lat="49.17246" lon="0.08435">
        <ele>73</ele>
        <time>2024-03-20T17:30:55Z</time>
      </trkpt>
      <trkpt lat="49.17243" lon="0.08424">
        <ele>72.8</ele>
        <time>2024-03-20T17:30:56Z</time>
      </trkpt>
      <trkpt lat="49.1724" lon="0.08413">
        <ele>72.8</ele>
        <time>2024-03-20T17:30:57Z</time>
      </trkpt>
      <trkpt lat="49.17237" lon="0.08402">
        <ele>72.6</ele>
        <time>2024-03-20T17:30:58Z</time>
      </trkpt>
      <trkpt lat="49.17234" lon="0.08393">
        <ele>72.6</ele>
        <time>2024-03-20T17:30:59Z</time>
      </trkpt>
      <trkpt lat="49.17229" lon="0.08379">
        <ele>72.6</ele>
        <time>2024-03-20T17:31:00Z</time>
      </trkpt>
      <trkpt lat="49.17225" lon="0.08368">
        <ele>72.6</ele>
        <time>2024-03-20T17:31:01Z</time>
      </trkpt>
      <trkpt lat="49.17222" lon="0.08359">
        <ele>72.4</ele>
        <time>2024-03-20T17:31:02Z</time>
      </trkpt>
      <trkpt lat="49.17217" lon="0.08346">
        <ele>72.4</ele>
        <time>2024-03-20T17:31:03Z</time>
      </trkpt>
      <trkpt lat="49.17213" lon="0.08336">
        <ele>72.2</ele>
        <time>2024-03-20T17:31:04Z</time>
      </trkpt>
      <trkpt lat="49.17208" lon="0.08325">
        <ele>72</ele>
        <time>2024-03-20T17:31:05Z</time>
      </trkpt>
      <trkpt lat="49.17203" lon="0.08315">
        <ele>71.8</ele>
        <time>2024-03-20T17:31:06Z</time>
      </trkpt>
      <trkpt lat="49.17198" lon="0.08304">
        <ele>71.6</ele>
        <time>2024-03-20T17:31:07Z</time>
      </trkpt>
      <trkpt lat="49.17194" lon="0.08293">
        <ele>71.2</ele>
        <time>2024-03-20T17:31:08Z</time>
      </trkpt>
      <trkpt lat="49.1719" lon="0.08282">
        <ele>71.2</ele>
        <time>2024-03-20T17:31:09Z</time>
      </trkpt>
      <trkpt lat="49.17185" lon="0.08271">
        <ele>70.4</ele>
        <time>2024-03-20T17:31:10Z</time>
      </trkpt>
      <trkpt lat="49.17182" lon="0.08259">
        <ele>70.4</ele>
        <time>2024-03-20T17:31:11Z</time>
      </trkpt>
      <trkpt lat="49.17178" lon="0.08247">
        <ele>70.2</ele>
        <time>2024-03-20T17:31:12Z</time>
      </trkpt>
      <trkpt lat="49.17175" lon="0.08236">
        <ele>70.2</ele>
        <time>2024-03-20T17:31:13Z</time>
      </trkpt>
      <trkpt lat="49.17172" lon="0.08224">
        <ele>70</ele>
        <time>2024-03-20T17:31:14Z</time>
      </trkpt>
      <trkpt lat="49.17168" lon="0.08212">
        <ele>69.8</ele>
        <time>2024-03-20T17:31:15Z</time>
      </trkpt>
      <trkpt lat="49.17166" lon="0.08201">
        <ele>69.6</ele>
        <time>2024-03-20T17:31:16Z</time>
      </trkpt>
      <trkpt lat="49.17163" lon="0.08192">
        <ele>69.4</ele>
        <time>2024-03-20T17:31:17Z</time>
      </trkpt>
      <trkpt lat="49.1716" lon="0.0818">
        <ele>69.2</ele>
        <time>2024-03-20T17:31:18Z</time>
      </trkpt>
      <trkpt lat="49.17157" lon="0.08169">
        <ele>69.2</ele>
        <time>2024-03-20T17:31:19Z</time>
      </trkpt>
      <trkpt lat="49.17153" lon="0.08155">
        <ele>69</ele>
        <time>2024-03-20T17:31:20Z</time>
      </trkpt>
      <trkpt lat="49.1715" lon="0.08143">
        <ele>69</ele>
        <time>2024-03-20T17:31:21Z</time>
      </trkpt>
      <trkpt lat="49.17147" lon="0.08131">
        <ele>68.8</ele>
        <time>2024-03-20T17:31:22Z</time>
      </trkpt>
      <trkpt lat="49.17144" lon="0.08119">
        <ele>68.6</ele>
        <time>2024-03-20T17:31:23Z</time>
      </trkpt>
      <trkpt lat="49.17141" lon="0.08107">
        <ele>68.6</ele>
        <time>2024-03-20T17:31:24Z</time>
      </trkpt>
      <trkpt lat="49.17138" lon="0.08095">
        <ele>68.6</ele>
        <time>2024-03-20T17:31:25Z</time>
      </trkpt>
      <trkpt lat="49.17135" lon="0.08083">
        <ele>68.6</ele>
        <time>2024-03-20T17:31:26Z</time>
      </trkpt>
      <trkpt lat="49.17132" lon="0.0807">
        <ele>68.4</ele>
        <time>2024-03-20T17:31:27Z</time>
      </trkpt>
      <trkpt lat="49.17129" lon="0.0806">
        <ele>68.4</ele>
        <time>2024-03-20T17:31:28Z</time>
      </trkpt>
      <trkpt lat="49.17126" lon="0.08045">
        <ele>68.4</ele>
        <time>2024-03-20T17:31:29Z</time>
      </trkpt>
      <trkpt lat="49.17124" lon="0.08033">
        <ele>68.2</ele>
        <time>2024-03-20T17:31:30Z</time>
      </trkpt>
      <trkpt lat="49.17122" lon="0.08022">
        <ele>68.2</ele>
        <time>2024-03-20T17:31:31Z</time>
      </trkpt>
      <trkpt lat="49.1712" lon="0.08011">
        <ele>68.2</ele>
        <time>2024-03-20T17:31:32Z</time>
      </trkpt>
      <trkpt lat="49.17118" lon="0.08">
        <ele>68</ele>
        <time>2024-03-20T17:31:33Z</time>
      </trkpt>
      <trkpt lat="49.17117" lon="0.07992">
        <ele>68</ele>
        <time>2024-03-20T17:31:34Z</time>
      </trkpt>
      <trkpt lat="49.17115" lon="0.07979">
        <ele>67.8</ele>
        <time>2024-03-20T17:31:35Z</time>
      </trkpt>
      <trkpt lat="49.17114" lon="0.07971">
        <ele>67.6</ele>
        <time>2024-03-20T17:31:36Z</time>
      </trkpt>
      <trkpt lat="49.17113" lon="0.07958">
        <ele>67.6</ele>
        <time>2024-03-20T17:31:37Z</time>
      </trkpt>
      <trkpt lat="49.17112" lon="0.07948">
        <ele>67.4</ele>
        <time>2024-03-20T17:31:38Z</time>
      </trkpt>
      <trkpt lat="49.17111" lon="0.07938">
        <ele>67.4</ele>
        <time>2024-03-20T17:31:39Z</time>
      </trkpt>
      <trkpt lat="49.1711" lon="0.07928">
        <ele>67.4</ele>
        <time>2024-03-20T17:31:40Z</time>
      </trkpt>
      <trkpt lat="49.17109" lon="0.07918">
        <ele>67.2</ele>
        <time>2024-03-20T17:31:41Z</time>
      </trkpt>
      <trkpt lat="49.17108" lon="0.07908">
        <ele>67.2</ele>
        <time>2024-03-20T17:31:42Z</time>
      </trkpt>
      <trkpt lat="49.17108" lon="0.07899">
        <ele>67</ele>
        <time>2024-03-20T17:31:43Z</time>
      </trkpt>
      <trkpt lat="49.17107" lon="0.07891">
        <ele>67</ele>
        <time>2024-03-20T17:31:44Z</time>
      </trkpt>
      <trkpt lat="49.17106" lon="0.07882">
        <ele>67</ele>
        <time>2024-03-20T17:31:45Z</time>
      </trkpt>
      <trkpt lat="49.17105" lon="0.07872">
        <ele>66.8</ele>
        <time>2024-03-20T17:31:46Z</time>
      </trkpt>
      <trkpt lat="49.17105" lon="0.07866">
        <ele>66.8</ele>
        <time>2024-03-20T17:31:47Z</time>
      </trkpt>
      <trkpt lat="49.17103" lon="0.07857">
        <ele>66.8</ele>
        <time>2024-03-20T17:31:48Z</time>
      </trkpt>
      <trkpt lat="49.17102" lon="0.0785">
        <ele>66.8</ele>
        <time>2024-03-20T17:31:49Z</time>
      </trkpt>
      <trkpt lat="49.17101" lon="0.07845">
        <ele>66.6</ele>
        <time>2024-03-20T17:31:50Z</time>
      </trkpt>
      <trkpt lat="49.171" lon="0.07838">
        <ele>66.4</ele>
        <time>2024-03-20T17:31:51Z</time>
      </trkpt>
      <trkpt lat="49.17099" lon="0.07832">
        <ele>66.4</ele>
        <time>2024-03-20T17:31:52Z</time>
      </trkpt>
      <trkpt lat="49.17099" lon="0.07828">
        <ele>66.4</ele>
        <time>2024-03-20T17:31:53Z</time>
      </trkpt>
      <trkpt lat="49.17099" lon="0.07824">
        <ele>66.4</ele>
        <time>2024-03-20T17:31:54Z</time>
      </trkpt>
      <trkpt lat="49.17098" lon="0.0782">
        <ele>66.4</ele>
        <time>2024-03-20T17:31:55Z</time>
      </trkpt>
      <trkpt lat="49.17099" lon="0.07818">
        <ele>66.4</ele>
        <time>2024-03-20T17:31:56Z</time>
      </trkpt>
      <trkpt lat="49.17099" lon="0.07817">
        <ele>66.4</ele>
        <time>2024-03-20T17:31:57Z</time>
      </trkpt>
      <trkpt lat="49.17099" lon="0.07817">
        <ele>66.4</ele>
        <time>2024-03-20T17:31:58Z</time>
      </trkpt>
      <trkpt lat="49.17097" lon="0.07807">
        <ele>67.2</ele>
        <time>2024-03-20T17:33:42Z</time>
      </trkpt>
      <trkpt lat="49.17096" lon="0.07805">
        <ele>67.2</ele>
        <time>2024-03-20T17:33:43Z</time>
      </trkpt>
      <trkpt lat="49.17096" lon="0.07801">
        <ele>67.2</ele>
        <time>2024-03-20T17:33:44Z</time>
      </trkpt>
      <trkpt lat="49.17095" lon="0.07798">
        <ele>67.2</ele>
        <time>2024-03-20T17:33:45Z</time>
      </trkpt>
      <trkpt lat="49.17094" lon="0.07795">
        <ele>67.2</ele>
        <time>2024-03-20T17:33:46Z</time>
      </trkpt>
      <trkpt lat="49.17093" lon="0.07791">
        <ele>67</ele>
        <time>2024-03-20T17:33:47Z</time>
      </trkpt>
      <trkpt lat="49.17093" lon="0.07788">
        <ele>67</ele>
        <time>2024-03-20T17:33:48Z</time>
      </trkpt>
      <trkpt lat="49.17092" lon="0.07784">
        <ele>67</ele>
        <time>2024-03-20T17:33:49Z</time>
      </trkpt>
      <trkpt lat="49.1709" lon="0.0778">
        <ele>67</ele>
        <time>2024-03-20T17:33:50Z</time>
      </trkpt>
      <trkpt lat="49.17089" lon="0.07775">
        <ele>67</ele>
        <time>2024-03-20T17:33:51Z</time>
      </trkpt>
      <trkpt lat="49.17087" lon="0.0777">
        <ele>67</ele>
        <time>2024-03-20T17:33:52Z</time>
      </trkpt>
      <trkpt lat="49.17085" lon="0.07764">
        <ele>67</ele>
        <time>2024-03-20T17:33:53Z</time>
      </trkpt>
      <trkpt lat="49.17083" lon="0.07757">
        <ele>67</ele>
        <time>2024-03-20T17:33:54Z</time>
      </trkpt>
      <trkpt lat="49.17082" lon="0.07749">
        <ele>66.8</ele>
        <time>2024-03-20T17:33:55Z</time>
      </trkpt>
      <trkpt lat="49.1708" lon="0.07742">
        <ele>66.6</ele>
        <time>2024-03-20T17:33:56Z</time>
      </trkpt>
      <trkpt lat="49.17079" lon="0.07734">
        <ele>66.6</ele>
        <time>2024-03-20T17:33:57Z</time>
      </trkpt>
      <trkpt lat="49.17077" lon="0.07725">
        <ele>66.6</ele>
        <time>2024-03-20T17:33:58Z</time>
      </trkpt>
      <trkpt lat="49.17075" lon="0.07717">
        <ele>66.8</ele>
        <time>2024-03-20T17:33:59Z</time>
      </trkpt>
      <trkpt lat="49.17073" lon="0.07708">
        <ele>66.6</ele>
        <time>2024-03-20T17:34:00Z</time>
      </trkpt>
      <trkpt lat="49.17071" lon="0.07698">
        <ele>66.6</ele>
        <time>2024-03-20T17:34:01Z</time>
      </trkpt>
      <trkpt lat="49.17069" lon="0.07691">
        <ele>66.6</ele>
        <time>2024-03-20T17:34:02Z</time>
      </trkpt>
      <trkpt lat="49.17067" lon="0.07682">
        <ele>66.6</ele>
        <time>2024-03-20T17:34:03Z</time>
      </trkpt>
      <trkpt lat="49.17064" lon="0.07672">
        <ele>66.6</ele>
        <time>2024-03-20T17:34:04Z</time>
      </trkpt>
      <trkpt lat="49.17062" lon="0.07663">
        <ele>66.6</ele>
        <time>2024-03-20T17:34:05Z</time>
      </trkpt>
      <trkpt lat="49.1706" lon="0.07653">
        <ele>66.6</ele>
        <time>2024-03-20T17:34:06Z</time>
      </trkpt>
      <trkpt lat="49.17058" lon="0.07643">
        <ele>66.6</ele>
        <time>2024-03-20T17:34:07Z</time>
      </trkpt>
      <trkpt lat="49.17055" lon="0.07633">
        <ele>66.6</ele>
        <time>2024-03-20T17:34:08Z</time>
      </trkpt>
      <trkpt lat="49.17053" lon="0.07623">
        <ele>66.6</ele>
        <time>2024-03-20T17:34:09Z</time>
      </trkpt>
      <trkpt lat="49.17051" lon="0.07612">
        <ele>66.6</ele>
        <time>2024-03-20T17:34:10Z</time>
      </trkpt>
      <trkpt lat="49.17049" lon="0.07601">
        <ele>66.8</ele>
        <time>2024-03-20T17:34:11Z</time>
      </trkpt>
      <trkpt lat="49.17048" lon="0.07591">
        <ele>66.8</ele>
        <time>2024-03-20T17:34:12Z</time>
      </trkpt>
      <trkpt lat="49.17046" lon="0.0758">
        <ele>66.8</ele>
        <time>2024-03-20T17:34:13Z</time>
      </trkpt>
      <trkpt lat="49.17044" lon="0.0757">
        <ele>66.8</ele>
        <time>2024-03-20T17:34:14Z</time>
      </trkpt>
      <trkpt lat="49.17042" lon="0.07557">
        <ele>66.8</ele>
        <time>2024-03-20T17:34:15Z</time>
      </trkpt>
      <trkpt lat="49.17041" lon="0.07547">
        <ele>66.8</ele>
        <time>2024-03-20T17:34:16Z</time>
      </trkpt>
      <trkpt lat="49.1704" lon="0.07536">
        <ele>67</ele>
        <time>2024-03-20T17:34:17Z</time>
      </trkpt>
      <trkpt lat="49.17039" lon="0.07525">
        <ele>67</ele>
        <time>2024-03-20T17:34:18Z</time>
      </trkpt>
      <trkpt lat="49.17037" lon="0.07513">
        <ele>67</ele>
        <time>2024-03-20T17:34:19Z</time>
      </trkpt>
      <trkpt lat="49.17035" lon="0.07501">
        <ele>67</ele>
        <time>2024-03-20T17:34:20Z</time>
      </trkpt>
      <trkpt lat="49.17033" lon="0.07491">
        <ele>67.2</ele>
        <time>2024-03-20T17:34:21Z</time>
      </trkpt>
      <trkpt lat="49.17033" lon="0.0748">
        <ele>67.2</ele>
        <time>2024-03-20T17:34:22Z</time>
      </trkpt>
      <trkpt lat="49.17032" lon="0.0747">
        <ele>67.2</ele>
        <time>2024-03-20T17:34:23Z</time>
      </trkpt>
      <trkpt lat="49.17031" lon="0.07459">
        <ele>67.2</ele>
        <time>2024-03-20T17:34:24Z</time>
      </trkpt>
      <trkpt lat="49.17031" lon="0.07449">
        <ele>67.2</ele>
        <time>2024-03-20T17:34:25Z</time>
      </trkpt>
      <trkpt lat="49.1703" lon="0.07438">
        <ele>67.2</ele>
        <time>2024-03-20T17:34:26Z</time>
      </trkpt>
      <trkpt lat="49.17029" lon="0.07428">
        <ele>67.2</ele>
        <time>2024-03-20T17:34:27Z</time>
      </trkpt>
      <trkpt lat="49.17029" lon="0.07417">
        <ele>67.4</ele>
        <time>2024-03-20T17:34:28Z</time>
      </trkpt>
      <trkpt lat="49.17029" lon="0.07406">
        <ele>67.4</ele>
        <time>2024-03-20T17:34:29Z</time>
      </trkpt>
      <trkpt lat="49.17029" lon="0.07396">
        <ele>67.4</ele>
        <time>2024-03-20T17:34:30Z</time>
      </trkpt>
      <trkpt lat="49.17028" lon="0.07385">
        <ele>67.4</ele>
        <time>2024-03-20T17:34:31Z</time>
      </trkpt>
      <trkpt lat="49.17028" lon="0.07374">
        <ele>67.4</ele>
        <time>2024-03-20T17:34:32Z</time>
      </trkpt>
      <trkpt lat="49.17027" lon="0.07363">
        <ele>67.6</ele>
        <time>2024-03-20T17:34:33Z</time>
      </trkpt>
      <trkpt lat="49.17028" lon="0.07354">
        <ele>67.8</ele>
        <time>2024-03-20T17:34:34Z</time>
      </trkpt>
      <trkpt lat="49.17028" lon="0.07343">
        <ele>67.8</ele>
        <time>2024-03-20T17:34:35Z</time>
      </trkpt>
      <trkpt lat="49.17028" lon="0.07332">
        <ele>68</ele>
        <time>2024-03-20T17:34:36Z</time>
      </trkpt>
      <trkpt lat="49.17029" lon="0.07321">
        <ele>68</ele>
        <time>2024-03-20T17:34:37Z</time>
      </trkpt>
      <trkpt lat="49.17029" lon="0.07308">
        <ele>68.2</ele>
        <time>2024-03-20T17:34:38Z</time>
      </trkpt>
      <trkpt lat="49.17029" lon="0.07297">
        <ele>68.2</ele>
        <time>2024-03-20T17:34:39Z</time>
      </trkpt>
      <trkpt lat="49.1703" lon="0.07288">
        <ele>68.2</ele>
        <time>2024-03-20T17:34:40Z</time>
      </trkpt>
      <trkpt lat="49.1703" lon="0.07278">
        <ele>68.2</ele>
        <time>2024-03-20T17:34:41Z</time>
      </trkpt>
      <trkpt lat="49.1703" lon="0.07267">
        <ele>68.2</ele>
        <time>2024-03-20T17:34:42Z</time>
      </trkpt>
      <trkpt lat="49.17031" lon="0.07254">
        <ele>68.2</ele>
        <time>2024-03-20T17:34:43Z</time>
      </trkpt>
      <trkpt lat="49.17031" lon="0.07243">
        <ele>68.2</ele>
        <time>2024-03-20T17:34:44Z</time>
      </trkpt>
      <trkpt lat="49.17031" lon="0.07234">
        <ele>68.2</ele>
        <time>2024-03-20T17:34:45Z</time>
      </trkpt>
      <trkpt lat="49.17031" lon="0.07222">
        <ele>68.2</ele>
        <time>2024-03-20T17:34:46Z</time>
      </trkpt>
      <trkpt lat="49.17032" lon="0.07214">
        <ele>68.2</ele>
        <time>2024-03-20T17:34:47Z</time>
      </trkpt>
      <trkpt lat="49.17032" lon="0.07201">
        <ele>68.2</ele>
        <time>2024-03-20T17:34:48Z</time>
      </trkpt>
      <trkpt lat="49.17032" lon="0.07192">
        <ele>68.2</ele>
        <time>2024-03-20T17:34:49Z</time>
      </trkpt>
      <trkpt lat="49.17033" lon="0.0718">
        <ele>68.2</ele>
        <time>2024-03-20T17:34:50Z</time>
      </trkpt>
      <trkpt lat="49.17032" lon="0.07168">
        <ele>68.2</ele>
        <time>2024-03-20T17:34:51Z</time>
      </trkpt>
      <trkpt lat="49.17032" lon="0.07157">
        <ele>68.2</ele>
        <time>2024-03-20T17:34:52Z</time>
      </trkpt>
      <trkpt lat="49.17032" lon="0.07146">
        <ele>68.2</ele>
        <time>2024-03-20T17:34:53Z</time>
      </trkpt>
      <trkpt lat="49.17032" lon="0.07137">
        <ele>68.2</ele>
        <time>2024-03-20T17:34:54Z</time>
      </trkpt>
      <trkpt lat="49.17032" lon="0.07123">
        <ele>68.2</ele>
        <time>2024-03-20T17:34:55Z</time>
      </trkpt>
      <trkpt lat="49.17032" lon="0.07112">
        <ele>68.2</ele>
        <time>2024-03-20T17:34:56Z</time>
      </trkpt>
      <trkpt lat="49.17032" lon="0.07102">
        <ele>68.2</ele>
        <time>2024-03-20T17:34:57Z</time>
      </trkpt>
      <trkpt lat="49.17032" lon="0.07091">
        <ele>68.2</ele>
        <time>2024-03-20T17:34:58Z</time>
      </trkpt>
      <trkpt lat="49.17031" lon="0.07077">
        <ele>68.2</ele>
        <time>2024-03-20T17:34:59Z</time>
      </trkpt>
      <trkpt lat="49.17031" lon="0.07068">
        <ele>68</ele>
        <time>2024-03-20T17:35:00Z</time>
      </trkpt>
      <trkpt lat="49.17031" lon="0.07056">
        <ele>68</ele>
        <time>2024-03-20T17:35:01Z</time>
      </trkpt>
      <trkpt lat="49.17031" lon="0.07044">
        <ele>68</ele>
        <time>2024-03-20T17:35:02Z</time>
      </trkpt>
      <trkpt lat="49.17031" lon="0.07033">
        <ele>68</ele>
        <time>2024-03-20T17:35:03Z</time>
      </trkpt>
      <trkpt lat="49.17031" lon="0.07021">
        <ele>67.8</ele>
        <time>2024-03-20T17:35:04Z</time>
      </trkpt>
      <trkpt lat="49.17031" lon="0.07009">
        <ele>67.8</ele>
        <time>2024-03-20T17:35:05Z</time>
      </trkpt>
      <trkpt lat="49.17032" lon="0.06997">
        <ele>67.8</ele>
        <time>2024-03-20T17:35:06Z</time>
      </trkpt>
      <trkpt lat="49.17032" lon="0.06983">
        <ele>67.6</ele>
        <time>2024-03-20T17:35:07Z</time>
      </trkpt>
      <trkpt lat="49.17032" lon="0.06971">
        <ele>67.6</ele>
        <time>2024-03-20T17:35:08Z</time>
      </trkpt>
      <trkpt lat="49.17032" lon="0.06961">
        <ele>67.6</ele>
        <time>2024-03-20T17:35:09Z</time>
      </trkpt>
      <trkpt lat="49.17033" lon="0.06947">
        <ele>67.6</ele>
        <time>2024-03-20T17:35:10Z</time>
      </trkpt>
      <trkpt lat="49.17033" lon="0.06937">
        <ele>67.4</ele>
        <time>2024-03-20T17:35:11Z</time>
      </trkpt>
      <trkpt lat="49.17033" lon="0.06925">
        <ele>67.4</ele>
        <time>2024-03-20T17:35:12Z</time>
      </trkpt>
      <trkpt lat="49.17033" lon="0.06913">
        <ele>67.4</ele>
        <time>2024-03-20T17:35:13Z</time>
      </trkpt>
      <trkpt lat="49.17033" lon="0.069">
        <ele>67.2</ele>
        <time>2024-03-20T17:35:14Z</time>
      </trkpt>
      <trkpt lat="49.17034" lon="0.06888">
        <ele>67</ele>
        <time>2024-03-20T17:35:15Z</time>
      </trkpt>
      <trkpt lat="49.17034" lon="0.06876">
        <ele>67</ele>
        <time>2024-03-20T17:35:16Z</time>
      </trkpt>
      <trkpt lat="49.17034" lon="0.06864">
        <ele>66.8</ele>
        <time>2024-03-20T17:35:17Z</time>
      </trkpt>
      <trkpt lat="49.17033" lon="0.06851">
        <ele>66.6</ele>
        <time>2024-03-20T17:35:18Z</time>
      </trkpt>
      <trkpt lat="49.17033" lon="0.06838">
        <ele>66.4</ele>
        <time>2024-03-20T17:35:19Z</time>
      </trkpt>
      <trkpt lat="49.17033" lon="0.06826">
        <ele>66.2</ele>
        <time>2024-03-20T17:35:20Z</time>
      </trkpt>
      <trkpt lat="49.17033" lon="0.06813">
        <ele>66</ele>
        <time>2024-03-20T17:35:21Z</time>
      </trkpt>
      <trkpt lat="49.17033" lon="0.068">
        <ele>65.6</ele>
        <time>2024-03-20T17:35:22Z</time>
      </trkpt>
      <trkpt lat="49.17035" lon="0.06787">
        <ele>65.4</ele>
        <time>2024-03-20T17:35:23Z</time>
      </trkpt>
      <trkpt lat="49.17037" lon="0.06771">
        <ele>65</ele>
        <time>2024-03-20T17:35:24Z</time>
      </trkpt>
      <trkpt lat="49.1704" lon="0.06758">
        <ele>64.8</ele>
        <time>2024-03-20T17:35:25Z</time>
      </trkpt>
      <trkpt lat="49.17043" lon="0.06745">
        <ele>64.6</ele>
        <time>2024-03-20T17:35:26Z</time>
      </trkpt>
      <trkpt lat="49.17047" lon="0.06732">
        <ele>64.6</ele>
        <time>2024-03-20T17:35:27Z</time>
      </trkpt>
      <trkpt lat="49.1705" lon="0.06722">
        <ele>64</ele>
        <time>2024-03-20T17:35:28Z</time>
      </trkpt>
      <trkpt lat="49.17054" lon="0.06707">
        <ele>64</ele>
        <time>2024-03-20T17:35:29Z</time>
      </trkpt>
      <trkpt lat="49.17058" lon="0.06693">
        <ele>63.6</ele>
        <time>2024-03-20T17:35:30Z</time>
      </trkpt>
      <trkpt lat="49.1706" lon="0.06679">
        <ele>62.6</ele>
        <time>2024-03-20T17:35:31Z</time>
      </trkpt>
      <trkpt lat="49.17061" lon="0.06665">
        <ele>62</ele>
        <time>2024-03-20T17:35:32Z</time>
      </trkpt>
      <trkpt lat="49.17062" lon="0.0665">
        <ele>61.4</ele>
        <time>2024-03-20T17:35:33Z</time>
      </trkpt>
      <trkpt lat="49.17062" lon="0.06636">
        <ele>60.8</ele>
        <time>2024-03-20T17:35:34Z</time>
      </trkpt>
      <trkpt lat="49.17061" lon="0.06625">
        <ele>60.2</ele>
        <time>2024-03-20T17:35:35Z</time>
      </trkpt>
      <trkpt lat="49.17061" lon="0.06612">
        <ele>59.4</ele>
        <time>2024-03-20T17:35:36Z</time>
      </trkpt>
      <trkpt lat="49.1706" lon="0.06598">
        <ele>58.6</ele>
        <time>2024-03-20T17:35:37Z</time>
      </trkpt>
      <trkpt lat="49.1706" lon="0.06585">
        <ele>58</ele>
        <time>2024-03-20T17:35:38Z</time>
      </trkpt>
      <trkpt lat="49.1706" lon="0.0657">
        <ele>57.6</ele>
        <time>2024-03-20T17:35:39Z</time>
      </trkpt>
      <trkpt lat="49.1706" lon="0.06557">
        <ele>57.4</ele>
        <time>2024-03-20T17:35:40Z</time>
      </trkpt>
      <trkpt lat="49.1706" lon="0.06545">
        <ele>57.2</ele>
        <time>2024-03-20T17:35:41Z</time>
      </trkpt>
      <trkpt lat="49.1706" lon="0.06535">
        <ele>57.2</ele>
        <time>2024-03-20T17:35:42Z</time>
      </trkpt>
      <trkpt lat="49.17061" lon="0.06522">
        <ele>57.2</ele>
        <time>2024-03-20T17:35:43Z</time>
      </trkpt>
      <trkpt lat="49.17062" lon="0.0651">
        <ele>57.2</ele>
        <time>2024-03-20T17:35:44Z</time>
      </trkpt>
      <trkpt lat="49.17063" lon="0.06499">
        <ele>57.2</ele>
        <time>2024-03-20T17:35:45Z</time>
      </trkpt>
      <trkpt lat="49.17064" lon="0.06491">
        <ele>57.2</ele>
        <time>2024-03-20T17:35:46Z</time>
      </trkpt>
      <trkpt lat="49.17065" lon="0.06478">
        <ele>57.2</ele>
        <time>2024-03-20T17:35:47Z</time>
      </trkpt>
      <trkpt lat="49.17066" lon="0.06469">
        <ele>57.2</ele>
        <time>2024-03-20T17:35:48Z</time>
      </trkpt>
      <trkpt lat="49.17067" lon="0.06459">
        <ele>57.4</ele>
        <time>2024-03-20T17:35:49Z</time>
      </trkpt>
      <trkpt lat="49.17069" lon="0.06445">
        <ele>57.4</ele>
        <time>2024-03-20T17:35:50Z</time>
      </trkpt>
      <trkpt lat="49.1707" lon="0.06434">
        <ele>57.4</ele>
        <time>2024-03-20T17:35:51Z</time>
      </trkpt>
      <trkpt lat="49.17071" lon="0.06423">
        <ele>57.4</ele>
        <time>2024-03-20T17:35:52Z</time>
      </trkpt>
      <trkpt lat="49.17073" lon="0.06412">
        <ele>57.6</ele>
        <time>2024-03-20T17:35:53Z</time>
      </trkpt>
      <trkpt lat="49.17074" lon="0.06401">
        <ele>57.8</ele>
        <time>2024-03-20T17:35:54Z</time>
      </trkpt>
      <trkpt lat="49.17075" lon="0.06389">
        <ele>57.8</ele>
        <time>2024-03-20T17:35:55Z</time>
      </trkpt>
      <trkpt lat="49.17076" lon="0.06378">
        <ele>58.2</ele>
        <time>2024-03-20T17:35:56Z</time>
      </trkpt>
      <trkpt lat="49.17078" lon="0.06367">
        <ele>58.4</ele>
        <time>2024-03-20T17:35:57Z</time>
      </trkpt>
      <trkpt lat="49.17079" lon="0.06358">
        <ele>58.6</ele>
        <time>2024-03-20T17:35:58Z</time>
      </trkpt>
      <trkpt lat="49.1708" lon="0.06347">
        <ele>58.8</ele>
        <time>2024-03-20T17:35:59Z</time>
      </trkpt>
      <trkpt lat="49.17081" lon="0.06333">
        <ele>58.8</ele>
        <time>2024-03-20T17:36:00Z</time>
      </trkpt>
      <trkpt lat="49.17083" lon="0.06322">
        <ele>59</ele>
        <time>2024-03-20T17:36:01Z</time>
      </trkpt>
      <trkpt lat="49.17083" lon="0.06313">
        <ele>59</ele>
        <time>2024-03-20T17:36:02Z</time>
      </trkpt>
      <trkpt lat="49.17085" lon="0.06301">
        <ele>59</ele>
        <time>2024-03-20T17:36:03Z</time>
      </trkpt>
      <trkpt lat="49.17086" lon="0.0629">
        <ele>59</ele>
        <time>2024-03-20T17:36:04Z</time>
      </trkpt>
      <trkpt lat="49.17087" lon="0.06278">
        <ele>59</ele>
        <time>2024-03-20T17:36:05Z</time>
      </trkpt>
      <trkpt lat="49.17088" lon="0.06265">
        <ele>59</ele>
        <time>2024-03-20T17:36:06Z</time>
      </trkpt>
      <trkpt lat="49.17089" lon="0.06253">
        <ele>59</ele>
        <time>2024-03-20T17:36:07Z</time>
      </trkpt>
      <trkpt lat="49.17089" lon="0.06244">
        <ele>58.8</ele>
        <time>2024-03-20T17:36:08Z</time>
      </trkpt>
      <trkpt lat="49.1709" lon="0.06232">
        <ele>58.8</ele>
        <time>2024-03-20T17:36:09Z</time>
      </trkpt>
      <trkpt lat="49.1709" lon="0.0622">
        <ele>58.8</ele>
        <time>2024-03-20T17:36:10Z</time>
      </trkpt>
      <trkpt lat="49.17091" lon="0.06206">
        <ele>58.8</ele>
        <time>2024-03-20T17:36:11Z</time>
      </trkpt>
      <trkpt lat="49.17092" lon="0.06194">
        <ele>58.4</ele>
        <time>2024-03-20T17:36:12Z</time>
      </trkpt>
      <trkpt lat="49.17094" lon="0.06182">
        <ele>58.2</ele>
        <time>2024-03-20T17:36:13Z</time>
      </trkpt>
      <trkpt lat="49.17095" lon="0.0617">
        <ele>58</ele>
        <time>2024-03-20T17:36:14Z</time>
      </trkpt>
      <trkpt lat="49.17097" lon="0.06161">
        <ele>57.8</ele>
        <time>2024-03-20T17:36:15Z</time>
      </trkpt>
      <trkpt lat="49.171" lon="0.0615">
        <ele>57.8</ele>
        <time>2024-03-20T17:36:16Z</time>
      </trkpt>
      <trkpt lat="49.17104" lon="0.06138">
        <ele>57.6</ele>
        <time>2024-03-20T17:36:17Z</time>
      </trkpt>
      <trkpt lat="49.17108" lon="0.06128">
        <ele>57.6</ele>
        <time>2024-03-20T17:36:18Z</time>
      </trkpt>
      <trkpt lat="49.17111" lon="0.0612">
        <ele>57.6</ele>
        <time>2024-03-20T17:36:19Z</time>
      </trkpt>
      <trkpt lat="49.17115" lon="0.06109">
        <ele>57.6</ele>
        <time>2024-03-20T17:36:20Z</time>
      </trkpt>
      <trkpt lat="49.17118" lon="0.06101">
        <ele>57.6</ele>
        <time>2024-03-20T17:36:21Z</time>
      </trkpt>
      <trkpt lat="49.17121" lon="0.06092">
        <ele>57.6</ele>
        <time>2024-03-20T17:36:22Z</time>
      </trkpt>
      <trkpt lat="49.17125" lon="0.06083">
        <ele>57.6</ele>
        <time>2024-03-20T17:36:23Z</time>
      </trkpt>
      <trkpt lat="49.17129" lon="0.06071">
        <ele>57.6</ele>
        <time>2024-03-20T17:36:24Z</time>
      </trkpt>
      <trkpt lat="49.17132" lon="0.06064">
        <ele>57.6</ele>
        <time>2024-03-20T17:36:25Z</time>
      </trkpt>
      <trkpt lat="49.17135" lon="0.06055">
        <ele>57.4</ele>
        <time>2024-03-20T17:36:26Z</time>
      </trkpt>
      <trkpt lat="49.17138" lon="0.06046">
        <ele>57.6</ele>
        <time>2024-03-20T17:36:27Z</time>
      </trkpt>
      <trkpt lat="49.17142" lon="0.06037">
        <ele>57.6</ele>
        <time>2024-03-20T17:36:28Z</time>
      </trkpt>
      <trkpt lat="49.17147" lon="0.06026">
        <ele>57.6</ele>
        <time>2024-03-20T17:36:29Z</time>
      </trkpt>
      <trkpt lat="49.17151" lon="0.06018">
        <ele>57.8</ele>
        <time>2024-03-20T17:36:30Z</time>
      </trkpt>
      <trkpt lat="49.17154" lon="0.06012">
        <ele>57.8</ele>
        <time>2024-03-20T17:36:31Z</time>
      </trkpt>
      <trkpt lat="49.17158" lon="0.06003">
        <ele>58</ele>
        <time>2024-03-20T17:36:32Z</time>
      </trkpt>
      <trkpt lat="49.17163" lon="0.05996">
        <ele>58.2</ele>
        <time>2024-03-20T17:36:33Z</time>
      </trkpt>
      <trkpt lat="49.17167" lon="0.05988">
        <ele>58.4</ele>
        <time>2024-03-20T17:36:34Z</time>
      </trkpt>
      <trkpt lat="49.17172" lon="0.0598">
        <ele>58.4</ele>
        <time>2024-03-20T17:36:35Z</time>
      </trkpt>
      <trkpt lat="49.17176" lon="0.05973">
        <ele>58.6</ele>
        <time>2024-03-20T17:36:36Z</time>
      </trkpt>
      <trkpt lat="49.17182" lon="0.05966">
        <ele>58.6</ele>
        <time>2024-03-20T17:36:37Z</time>
      </trkpt>
      <trkpt lat="49.17187" lon="0.0596">
        <ele>58.6</ele>
        <time>2024-03-20T17:36:38Z</time>
      </trkpt>
      <trkpt lat="49.17193" lon="0.05953">
        <ele>58.6</ele>
        <time>2024-03-20T17:36:39Z</time>
      </trkpt>
      <trkpt lat="49.17199" lon="0.05945">
        <ele>58.6</ele>
        <time>2024-03-20T17:36:40Z</time>
      </trkpt>
      <trkpt lat="49.17203" lon="0.05939">
        <ele>58.6</ele>
        <time>2024-03-20T17:36:41Z</time>
      </trkpt>
      <trkpt lat="49.17208" lon="0.05931">
        <ele>58.6</ele>
        <time>2024-03-20T17:36:42Z</time>
      </trkpt>
      <trkpt lat="49.17213" lon="0.05923">
        <ele>58.8</ele>
        <time>2024-03-20T17:36:43Z</time>
      </trkpt>
      <trkpt lat="49.17217" lon="0.05911">
        <ele>58.8</ele>
        <time>2024-03-20T17:36:44Z</time>
      </trkpt>
      <trkpt lat="49.1722" lon="0.059">
        <ele>58.8</ele>
        <time>2024-03-20T17:36:45Z</time>
      </trkpt>
      <trkpt lat="49.17221" lon="0.05889">
        <ele>58.8</ele>
        <time>2024-03-20T17:36:46Z</time>
      </trkpt>
      <trkpt lat="49.17221" lon="0.05878">
        <ele>58.8</ele>
        <time>2024-03-20T17:36:47Z</time>
      </trkpt>
      <trkpt lat="49.17221" lon="0.05867">
        <ele>58.8</ele>
        <time>2024-03-20T17:36:48Z</time>
      </trkpt>
      <trkpt lat="49.17221" lon="0.05856">
        <ele>58.8</ele>
        <time>2024-03-20T17:36:49Z</time>
      </trkpt>
      <trkpt lat="49.17221" lon="0.05848">
        <ele>58.8</ele>
        <time>2024-03-20T17:36:50Z</time>
      </trkpt>
      <trkpt lat="49.17221" lon="0.05836">
        <ele>58.8</ele>
        <time>2024-03-20T17:36:51Z</time>
      </trkpt>
      <trkpt lat="49.1722" lon="0.05826">
        <ele>58.8</ele>
        <time>2024-03-20T17:36:52Z</time>
      </trkpt>
      <trkpt lat="49.1722" lon="0.05816">
        <ele>58.8</ele>
        <time>2024-03-20T17:36:53Z</time>
      </trkpt>
      <trkpt lat="49.1722" lon="0.05806">
        <ele>59</ele>
        <time>2024-03-20T17:36:54Z</time>
      </trkpt>
      <trkpt lat="49.17221" lon="0.05796">
        <ele>59</ele>
        <time>2024-03-20T17:36:55Z</time>
      </trkpt>
      <trkpt lat="49.17222" lon="0.05787">
        <ele>59.2</ele>
        <time>2024-03-20T17:36:56Z</time>
      </trkpt>
      <trkpt lat="49.17223" lon="0.05778">
        <ele>59.2</ele>
        <time>2024-03-20T17:36:57Z</time>
      </trkpt>
      <trkpt lat="49.17225" lon="0.05769">
        <ele>59.2</ele>
        <time>2024-03-20T17:36:58Z</time>
      </trkpt>
      <trkpt lat="49.17227" lon="0.05761">
        <ele>59.4</ele>
        <time>2024-03-20T17:36:59Z</time>
      </trkpt>
      <trkpt lat="49.1723" lon="0.05754">
        <ele>59.8</ele>
        <time>2024-03-20T17:37:00Z</time>
      </trkpt>
      <trkpt lat="49.17233" lon="0.05745">
        <ele>60</ele>
        <time>2024-03-20T17:37:01Z</time>
      </trkpt>
      <trkpt lat="49.17236" lon="0.05737">
        <ele>60.2</ele>
        <time>2024-03-20T17:37:02Z</time>
      </trkpt>
      <trkpt lat="49.17239" lon="0.0573">
        <ele>60.2</ele>
        <time>2024-03-20T17:37:03Z</time>
      </trkpt>
      <trkpt lat="49.17241" lon="0.05722">
        <ele>60.4</ele>
        <time>2024-03-20T17:37:04Z</time>
      </trkpt>
      <trkpt lat="49.17244" lon="0.05715">
        <ele>60.6</ele>
        <time>2024-03-20T17:37:05Z</time>
      </trkpt>
      <trkpt lat="49.17247" lon="0.05708">
        <ele>60.6</ele>
        <time>2024-03-20T17:37:06Z</time>
      </trkpt>
      <trkpt lat="49.1725" lon="0.057">
        <ele>61</ele>
        <time>2024-03-20T17:37:07Z</time>
      </trkpt>
      <trkpt lat="49.17252" lon="0.05693">
        <ele>61.2</ele>
        <time>2024-03-20T17:37:08Z</time>
      </trkpt>
      <trkpt lat="49.17255" lon="0.05686">
        <ele>61.6</ele>
        <time>2024-03-20T17:37:09Z</time>
      </trkpt>
      <trkpt lat="49.17258" lon="0.05679">
        <ele>61.6</ele>
        <time>2024-03-20T17:37:10Z</time>
      </trkpt>
      <trkpt lat="49.17261" lon="0.05671">
        <ele>61.8</ele>
        <time>2024-03-20T17:37:11Z</time>
      </trkpt>
      <trkpt lat="49.17265" lon="0.05664">
        <ele>62.4</ele>
        <time>2024-03-20T17:37:12Z</time>
      </trkpt>
      <trkpt lat="49.17268" lon="0.05656">
        <ele>62.8</ele>
        <time>2024-03-20T17:37:13Z</time>
      </trkpt>
      <trkpt lat="49.17271" lon="0.05648">
        <ele>63.2</ele>
        <time>2024-03-20T17:37:14Z</time>
      </trkpt>
      <trkpt lat="49.17274" lon="0.0564">
        <ele>63.6</ele>
        <time>2024-03-20T17:37:15Z</time>
      </trkpt>
      <trkpt lat="49.17278" lon="0.05632">
        <ele>63.8</ele>
        <time>2024-03-20T17:37:16Z</time>
      </trkpt>
      <trkpt lat="49.17281" lon="0.05624">
        <ele>64</ele>
        <time>2024-03-20T17:37:17Z</time>
      </trkpt>
      <trkpt lat="49.17284" lon="0.05616">
        <ele>64.4</ele>
        <time>2024-03-20T17:37:18Z</time>
      </trkpt>
      <trkpt lat="49.17287" lon="0.05609">
        <ele>64.6</ele>
        <time>2024-03-20T17:37:19Z</time>
      </trkpt>
      <trkpt lat="49.1729" lon="0.05603">
        <ele>64.6</ele>
        <time>2024-03-20T17:37:20Z</time>
      </trkpt>
      <trkpt lat="49.17294" lon="0.05594">
        <ele>64.8</ele>
        <time>2024-03-20T17:37:21Z</time>
      </trkpt>
      <trkpt lat="49.17297" lon="0.05586">
        <ele>65</ele>
        <time>2024-03-20T17:37:22Z</time>
      </trkpt>
      <trkpt lat="49.17301" lon="0.05579">
        <ele>65.2</ele>
        <time>2024-03-20T17:37:23Z</time>
      </trkpt>
      <trkpt lat="49.17304" lon="0.05571">
        <ele>65.4</ele>
        <time>2024-03-20T17:37:24Z</time>
      </trkpt>
      <trkpt lat="49.17307" lon="0.05563">
        <ele>65.4</ele>
        <time>2024-03-20T17:37:25Z</time>
      </trkpt>
      <trkpt lat="49.17311" lon="0.05555">
        <ele>65.4</ele>
        <time>2024-03-20T17:37:26Z</time>
      </trkpt>
      <trkpt lat="49.17315" lon="0.05547">
        <ele>65.4</ele>
        <time>2024-03-20T17:37:27Z</time>
      </trkpt>
      <trkpt lat="49.17319" lon="0.0554">
        <ele>65.4</ele>
        <time>2024-03-20T17:37:28Z</time>
      </trkpt>
      <trkpt lat="49.17322" lon="0.05533">
        <ele>65.6</ele>
        <time>2024-03-20T17:37:29Z</time>
      </trkpt>
      <trkpt lat="49.17326" lon="0.05525">
        <ele>65.6</ele>
        <time>2024-03-20T17:37:30Z</time>
      </trkpt>
      <trkpt lat="49.1733" lon="0.05518">
        <ele>65.6</ele>
        <time>2024-03-20T17:37:31Z</time>
      </trkpt>
      <trkpt lat="49.17334" lon="0.05511">
        <ele>65.8</ele>
        <time>2024-03-20T17:37:32Z</time>
      </trkpt>
      <trkpt lat="49.17338" lon="0.05504">
        <ele>65.8</ele>
        <time>2024-03-20T17:37:33Z</time>
      </trkpt>
      <trkpt lat="49.17342" lon="0.05497">
        <ele>65.8</ele>
        <time>2024-03-20T17:37:34Z</time>
      </trkpt>
      <trkpt lat="49.17347" lon="0.0549">
        <ele>65.8</ele>
        <time>2024-03-20T17:37:35Z</time>
      </trkpt>
      <trkpt lat="49.17351" lon="0.05483">
        <ele>65.6</ele>
        <time>2024-03-20T17:37:36Z</time>
      </trkpt>
      <trkpt lat="49.17356" lon="0.05477">
        <ele>65.6</ele>
        <time>2024-03-20T17:37:37Z</time>
      </trkpt>
      <trkpt lat="49.17361" lon="0.05471">
        <ele>65.8</ele>
        <time>2024-03-20T17:37:38Z</time>
      </trkpt>
      <trkpt lat="49.17366" lon="0.05464">
        <ele>66.2</ele>
        <time>2024-03-20T17:37:39Z</time>
      </trkpt>
      <trkpt lat="49.17371" lon="0.05458">
        <ele>66</ele>
        <time>2024-03-20T17:37:40Z</time>
      </trkpt>
      <trkpt lat="49.17376" lon="0.05452">
        <ele>66</ele>
        <time>2024-03-20T17:37:41Z</time>
      </trkpt>
      <trkpt lat="49.17381" lon="0.05446">
        <ele>66</ele>
        <time>2024-03-20T17:37:42Z</time>
      </trkpt>
      <trkpt lat="49.17387" lon="0.0544">
        <ele>66</ele>
        <time>2024-03-20T17:37:43Z</time>
      </trkpt>
      <trkpt lat="49.17392" lon="0.05434">
        <ele>66.2</ele>
        <time>2024-03-20T17:37:44Z</time>
      </trkpt>
      <trkpt lat="49.17398" lon="0.05428">
        <ele>66.2</ele>
        <time>2024-03-20T17:37:45Z</time>
      </trkpt>
      <trkpt lat="49.17403" lon="0.05421">
        <ele>66.2</ele>
        <time>2024-03-20T17:37:46Z</time>
      </trkpt>
      <trkpt lat="49.17408" lon="0.05414">
        <ele>66.2</ele>
        <time>2024-03-20T17:37:47Z</time>
      </trkpt>
      <trkpt lat="49.17413" lon="0.05407">
        <ele>66.2</ele>
        <time>2024-03-20T17:37:48Z</time>
      </trkpt>
      <trkpt lat="49.17418" lon="0.05398">
        <ele>66.2</ele>
        <time>2024-03-20T17:37:49Z</time>
      </trkpt>
      <trkpt lat="49.17422" lon="0.05388">
        <ele>66.2</ele>
        <time>2024-03-20T17:37:50Z</time>
      </trkpt>
      <trkpt lat="49.17425" lon="0.05378">
        <ele>66.2</ele>
        <time>2024-03-20T17:37:51Z</time>
      </trkpt>
      <trkpt lat="49.17429" lon="0.05367">
        <ele>66.2</ele>
        <time>2024-03-20T17:37:52Z</time>
      </trkpt>
      <trkpt lat="49.17432" lon="0.05355">
        <ele>66.2</ele>
        <time>2024-03-20T17:37:53Z</time>
      </trkpt>
      <trkpt lat="49.17434" lon="0.05343">
        <ele>66.2</ele>
        <time>2024-03-20T17:37:54Z</time>
      </trkpt>
      <trkpt lat="49.17437" lon="0.05331">
        <ele>66</ele>
        <time>2024-03-20T17:37:55Z</time>
      </trkpt>
      <trkpt lat="49.17438" lon="0.05318">
        <ele>66</ele>
        <time>2024-03-20T17:37:56Z</time>
      </trkpt>
      <trkpt lat="49.17438" lon="0.05305">
        <ele>66</ele>
        <time>2024-03-20T17:37:57Z</time>
      </trkpt>
      <trkpt lat="49.17437" lon="0.05292">
        <ele>65.8</ele>
        <time>2024-03-20T17:37:58Z</time>
      </trkpt>
      <trkpt lat="49.17436" lon="0.05282">
        <ele>65.6</ele>
        <time>2024-03-20T17:37:59Z</time>
      </trkpt>
      <trkpt lat="49.17434" lon="0.05267">
        <ele>65.2</ele>
        <time>2024-03-20T17:38:00Z</time>
      </trkpt>
      <trkpt lat="49.17433" lon="0.05252">
        <ele>65</ele>
        <time>2024-03-20T17:38:01Z</time>
      </trkpt>
      <trkpt lat="49.17432" lon="0.05242">
        <ele>64.6</ele>
        <time>2024-03-20T17:38:02Z</time>
      </trkpt>
      <trkpt lat="49.17431" lon="0.0523">
        <ele>64</ele>
        <time>2024-03-20T17:38:03Z</time>
      </trkpt>
      <trkpt lat="49.17431" lon="0.05217">
        <ele>63.6</ele>
        <time>2024-03-20T17:38:04Z</time>
      </trkpt>
      <trkpt lat="49.17433" lon="0.05205">
        <ele>63.2</ele>
        <time>2024-03-20T17:38:05Z</time>
      </trkpt>
      <trkpt lat="49.17436" lon="0.05194">
        <ele>62.8</ele>
        <time>2024-03-20T17:38:06Z</time>
      </trkpt>
      <trkpt lat="49.17439" lon="0.05183">
        <ele>62.4</ele>
        <time>2024-03-20T17:38:07Z</time>
      </trkpt>
      <trkpt lat="49.17443" lon="0.05172">
        <ele>61.8</ele>
        <time>2024-03-20T17:38:08Z</time>
      </trkpt>
      <trkpt lat="49.17447" lon="0.05162">
        <ele>61.8</ele>
        <time>2024-03-20T17:38:09Z</time>
      </trkpt>
      <trkpt lat="49.1745" lon="0.05152">
        <ele>61.6</ele>
        <time>2024-03-20T17:38:10Z</time>
      </trkpt>
      <trkpt lat="49.17454" lon="0.05143">
        <ele>61.4</ele>
        <time>2024-03-20T17:38:11Z</time>
      </trkpt>
      <trkpt lat="49.17457" lon="0.05135">
        <ele>61.2</ele>
        <time>2024-03-20T17:38:12Z</time>
      </trkpt>
      <trkpt lat="49.1746" lon="0.05123">
        <ele>61.2</ele>
        <time>2024-03-20T17:38:13Z</time>
      </trkpt>
      <trkpt lat="49.17463" lon="0.05113">
        <ele>61</ele>
        <time>2024-03-20T17:38:14Z</time>
      </trkpt>
      <trkpt lat="49.17466" lon="0.05103">
        <ele>61</ele>
        <time>2024-03-20T17:38:15Z</time>
      </trkpt>
      <trkpt lat="49.17469" lon="0.05093">
        <ele>61</ele>
        <time>2024-03-20T17:38:16Z</time>
      </trkpt>
      <trkpt lat="49.17472" lon="0.05083">
        <ele>61</ele>
        <time>2024-03-20T17:38:17Z</time>
      </trkpt>
      <trkpt lat="49.17476" lon="0.05073">
        <ele>61</ele>
        <time>2024-03-20T17:38:18Z</time>
      </trkpt>
      <trkpt lat="49.17479" lon="0.05063">
        <ele>61</ele>
        <time>2024-03-20T17:38:19Z</time>
      </trkpt>
      <trkpt lat="49.17482" lon="0.05053">
        <ele>61</ele>
        <time>2024-03-20T17:38:20Z</time>
      </trkpt>
      <trkpt lat="49.17486" lon="0.05043">
        <ele>61</ele>
        <time>2024-03-20T17:38:21Z</time>
      </trkpt>
      <trkpt lat="49.17489" lon="0.05035">
        <ele>61</ele>
        <time>2024-03-20T17:38:22Z</time>
      </trkpt>
      <trkpt lat="49.17494" lon="0.05025">
        <ele>61</ele>
        <time>2024-03-20T17:38:23Z</time>
      </trkpt>
      <trkpt lat="49.17499" lon="0.05014">
        <ele>61</ele>
        <time>2024-03-20T17:38:24Z</time>
      </trkpt>
      <trkpt lat="49.17503" lon="0.05006">
        <ele>61</ele>
        <time>2024-03-20T17:38:25Z</time>
      </trkpt>
      <trkpt lat="49.17508" lon="0.04995">
        <ele>61</ele>
        <time>2024-03-20T17:38:26Z</time>
      </trkpt>
      <trkpt lat="49.17513" lon="0.04986">
        <ele>61</ele>
        <time>2024-03-20T17:38:27Z</time>
      </trkpt>
      <trkpt lat="49.17518" lon="0.04977">
        <ele>61</ele>
        <time>2024-03-20T17:38:28Z</time>
      </trkpt>
      <trkpt lat="49.17522" lon="0.04968">
        <ele>61</ele>
        <time>2024-03-20T17:38:29Z</time>
      </trkpt>
      <trkpt lat="49.17527" lon="0.04959">
        <ele>61</ele>
        <time>2024-03-20T17:38:30Z</time>
      </trkpt>
      <trkpt lat="49.17531" lon="0.04949">
        <ele>61</ele>
        <time>2024-03-20T17:38:31Z</time>
      </trkpt>
      <trkpt lat="49.17536" lon="0.04939">
        <ele>61</ele>
        <time>2024-03-20T17:38:32Z</time>
      </trkpt>
      <trkpt lat="49.1754" lon="0.0493">
        <ele>61</ele>
        <time>2024-03-20T17:38:33Z</time>
      </trkpt>
      <trkpt lat="49.17546" lon="0.0492">
        <ele>60.8</ele>
        <time>2024-03-20T17:38:34Z</time>
      </trkpt>
      <trkpt lat="49.17551" lon="0.0491">
        <ele>60.8</ele>
        <time>2024-03-20T17:38:35Z</time>
      </trkpt>
      <trkpt lat="49.17555" lon="0.049">
        <ele>60.8</ele>
        <time>2024-03-20T17:38:36Z</time>
      </trkpt>
      <trkpt lat="49.1756" lon="0.0489">
        <ele>60.8</ele>
        <time>2024-03-20T17:38:37Z</time>
      </trkpt>
      <trkpt lat="49.17564" lon="0.04883">
        <ele>60.8</ele>
        <time>2024-03-20T17:38:38Z</time>
      </trkpt>
      <trkpt lat="49.17569" lon="0.04873">
        <ele>60.6</ele>
        <time>2024-03-20T17:38:39Z</time>
      </trkpt>
      <trkpt lat="49.17574" lon="0.04863">
        <ele>60.6</ele>
        <time>2024-03-20T17:38:40Z</time>
      </trkpt>
      <trkpt lat="49.17579" lon="0.04854">
        <ele>60.6</ele>
        <time>2024-03-20T17:38:41Z</time>
      </trkpt>
      <trkpt lat="49.17585" lon="0.04842">
        <ele>60.4</ele>
        <time>2024-03-20T17:38:42Z</time>
      </trkpt>
      <trkpt lat="49.1759" lon="0.04833">
        <ele>60.4</ele>
        <time>2024-03-20T17:38:43Z</time>
      </trkpt>
      <trkpt lat="49.17594" lon="0.04825">
        <ele>60.4</ele>
        <time>2024-03-20T17:38:44Z</time>
      </trkpt>
      <trkpt lat="49.176" lon="0.04815">
        <ele>60.4</ele>
        <time>2024-03-20T17:38:45Z</time>
      </trkpt>
      <trkpt lat="49.17606" lon="0.04803">
        <ele>60.4</ele>
        <time>2024-03-20T17:38:46Z</time>
      </trkpt>
      <trkpt lat="49.17611" lon="0.04794">
        <ele>60.4</ele>
        <time>2024-03-20T17:38:47Z</time>
      </trkpt>
      <trkpt lat="49.17616" lon="0.04786">
        <ele>60.4</ele>
        <time>2024-03-20T17:38:48Z</time>
      </trkpt>
      <trkpt lat="49.17622" lon="0.04774">
        <ele>60.2</ele>
        <time>2024-03-20T17:38:49Z</time>
      </trkpt>
      <trkpt lat="49.17627" lon="0.04764">
        <ele>60.2</ele>
        <time>2024-03-20T17:38:50Z</time>
      </trkpt>
      <trkpt lat="49.17632" lon="0.04754">
        <ele>60.2</ele>
        <time>2024-03-20T17:38:51Z</time>
      </trkpt>
      <trkpt lat="49.17638" lon="0.04745">
        <ele>60.2</ele>
        <time>2024-03-20T17:38:52Z</time>
      </trkpt>
      <trkpt lat="49.17644" lon="0.04736">
        <ele>60</ele>
        <time>2024-03-20T17:38:53Z</time>
      </trkpt>
      <trkpt lat="49.1765" lon="0.04727">
        <ele>60</ele>
        <time>2024-03-20T17:38:54Z</time>
      </trkpt>
      <trkpt lat="49.17655" lon="0.04718">
        <ele>59.8</ele>
        <time>2024-03-20T17:38:55Z</time>
      </trkpt>
      <trkpt lat="49.17661" lon="0.04709">
        <ele>59.8</ele>
        <time>2024-03-20T17:38:56Z</time>
      </trkpt>
      <trkpt lat="49.17666" lon="0.04701">
        <ele>59.6</ele>
        <time>2024-03-20T17:38:57Z</time>
      </trkpt>
      <trkpt lat="49.17672" lon="0.04692">
        <ele>59.2</ele>
        <time>2024-03-20T17:38:58Z</time>
      </trkpt>
      <trkpt lat="49.17678" lon="0.04683">
        <ele>58.8</ele>
        <time>2024-03-20T17:38:59Z</time>
      </trkpt>
      <trkpt lat="49.17683" lon="0.04674">
        <ele>58.6</ele>
        <time>2024-03-20T17:39:00Z</time>
      </trkpt>
      <trkpt lat="49.17689" lon="0.04666">
        <ele>58.6</ele>
        <time>2024-03-20T17:39:01Z</time>
      </trkpt>
      <trkpt lat="49.17695" lon="0.04657">
        <ele>58.6</ele>
        <time>2024-03-20T17:39:02Z</time>
      </trkpt>
      <trkpt lat="49.17701" lon="0.04648">
        <ele>58.4</ele>
        <time>2024-03-20T17:39:03Z</time>
      </trkpt>
      <trkpt lat="49.17707" lon="0.04639">
        <ele>58.4</ele>
        <time>2024-03-20T17:39:04Z</time>
      </trkpt>
      <trkpt lat="49.17713" lon="0.0463">
        <ele>58.2</ele>
        <time>2024-03-20T17:39:05Z</time>
      </trkpt>
      <trkpt lat="49.17719" lon="0.04622">
        <ele>58</ele>
        <time>2024-03-20T17:39:06Z</time>
      </trkpt>
      <trkpt lat="49.17724" lon="0.04613">
        <ele>58</ele>
        <time>2024-03-20T17:39:07Z</time>
      </trkpt>
      <trkpt lat="49.1773" lon="0.04604">
        <ele>58</ele>
        <time>2024-03-20T17:39:08Z</time>
      </trkpt>
      <trkpt lat="49.17736" lon="0.04596">
        <ele>58</ele>
        <time>2024-03-20T17:39:09Z</time>
      </trkpt>
      <trkpt lat="49.17741" lon="0.04587">
        <ele>58</ele>
        <time>2024-03-20T17:39:10Z</time>
      </trkpt>
      <trkpt lat="49.17747" lon="0.04578">
        <ele>58</ele>
        <time>2024-03-20T17:39:11Z</time>
      </trkpt>
      <trkpt lat="49.17753" lon="0.04569">
        <ele>58</ele>
        <time>2024-03-20T17:39:12Z</time>
      </trkpt>
      <trkpt lat="49.17759" lon="0.0456">
        <ele>58</ele>
        <time>2024-03-20T17:39:13Z</time>
      </trkpt>
      <trkpt lat="49.17765" lon="0.04552">
        <ele>58</ele>
        <time>2024-03-20T17:39:14Z</time>
      </trkpt>
      <trkpt lat="49.17771" lon="0.04543">
        <ele>57.8</ele>
        <time>2024-03-20T17:39:15Z</time>
      </trkpt>
      <trkpt lat="49.17777" lon="0.04535">
        <ele>57.8</ele>
        <time>2024-03-20T17:39:16Z</time>
      </trkpt>
      <trkpt lat="49.17783" lon="0.04526">
        <ele>57.8</ele>
        <time>2024-03-20T17:39:17Z</time>
      </trkpt>
      <trkpt lat="49.1779" lon="0.04518">
        <ele>57.8</ele>
        <time>2024-03-20T17:39:18Z</time>
      </trkpt>
      <trkpt lat="49.17796" lon="0.04509">
        <ele>57.8</ele>
        <time>2024-03-20T17:39:19Z</time>
      </trkpt>
      <trkpt lat="49.17803" lon="0.04501">
        <ele>57.8</ele>
        <time>2024-03-20T17:39:20Z</time>
      </trkpt>
      <trkpt lat="49.1781" lon="0.04492">
        <ele>57.6</ele>
        <time>2024-03-20T17:39:21Z</time>
      </trkpt>
      <trkpt lat="49.17816" lon="0.04483">
        <ele>57.6</ele>
        <time>2024-03-20T17:39:22Z</time>
      </trkpt>
      <trkpt lat="49.17823" lon="0.04474">
        <ele>57.6</ele>
        <time>2024-03-20T17:39:23Z</time>
      </trkpt>
      <trkpt lat="49.17831" lon="0.04465">
        <ele>57.4</ele>
        <time>2024-03-20T17:39:24Z</time>
      </trkpt>
      <trkpt lat="49.17838" lon="0.04456">
        <ele>57.4</ele>
        <time>2024-03-20T17:39:25Z</time>
      </trkpt>
      <trkpt lat="49.17845" lon="0.04446">
        <ele>57.4</ele>
        <time>2024-03-20T17:39:26Z</time>
      </trkpt>
      <trkpt lat="49.17853" lon="0.04437">
        <ele>57.4</ele>
        <time>2024-03-20T17:39:27Z</time>
      </trkpt>
      <trkpt lat="49.17861" lon="0.04427">
        <ele>57</ele>
        <time>2024-03-20T17:39:28Z</time>
      </trkpt>
      <trkpt lat="49.17869" lon="0.04418">
        <ele>56.6</ele>
        <time>2024-03-20T17:39:29Z</time>
      </trkpt>
      <trkpt lat="49.17877" lon="0.04409">
        <ele>56</ele>
        <time>2024-03-20T17:39:30Z</time>
      </trkpt>
      <trkpt lat="49.17885" lon="0.04399">
        <ele>55.4</ele>
        <time>2024-03-20T17:39:31Z</time>
      </trkpt>
      <trkpt lat="49.17894" lon="0.04389">
        <ele>54.4</ele>
        <time>2024-03-20T17:39:32Z</time>
      </trkpt>
      <trkpt lat="49.17902" lon="0.04379">
        <ele>53.4</ele>
        <time>2024-03-20T17:39:33Z</time>
      </trkpt>
      <trkpt lat="49.17911" lon="0.04369">
        <ele>52.6</ele>
        <time>2024-03-20T17:39:34Z</time>
      </trkpt>
      <trkpt lat="49.1792" lon="0.04358">
        <ele>51.8</ele>
        <time>2024-03-20T17:39:35Z</time>
      </trkpt>
      <trkpt lat="49.17928" lon="0.04347">
        <ele>51</ele>
        <time>2024-03-20T17:39:36Z</time>
      </trkpt>
      <trkpt lat="49.17937" lon="0.04336">
        <ele>50.4</ele>
        <time>2024-03-20T17:39:37Z</time>
      </trkpt>
      <trkpt lat="49.17946" lon="0.04324">
        <ele>49.6</ele>
        <time>2024-03-20T17:39:38Z</time>
      </trkpt>
      <trkpt lat="49.17954" lon="0.04311">
        <ele>48.8</ele>
        <time>2024-03-20T17:39:39Z</time>
      </trkpt>
      <trkpt lat="49.17962" lon="0.04297">
        <ele>48.2</ele>
        <time>2024-03-20T17:39:40Z</time>
      </trkpt>
      <trkpt lat="49.17969" lon="0.04282">
        <ele>47.4</ele>
        <time>2024-03-20T17:39:41Z</time>
      </trkpt>
      <trkpt lat="49.17976" lon="0.04267">
        <ele>46.4</ele>
        <time>2024-03-20T17:39:42Z</time>
      </trkpt>
      <trkpt lat="49.17982" lon="0.04251">
        <ele>46</ele>
        <time>2024-03-20T17:39:43Z</time>
      </trkpt>
      <trkpt lat="49.17989" lon="0.04235">
        <ele>45.6</ele>
        <time>2024-03-20T17:39:44Z</time>
      </trkpt>
      <trkpt lat="49.17995" lon="0.04218">
        <ele>45.2</ele>
        <time>2024-03-20T17:39:45Z</time>
      </trkpt>
      <trkpt lat="49.18002" lon="0.04201">
        <ele>44.4</ele>
        <time>2024-03-20T17:39:46Z</time>
      </trkpt>
      <trkpt lat="49.18008" lon="0.04185">
        <ele>44.4</ele>
        <time>2024-03-20T17:39:47Z</time>
      </trkpt>
      <trkpt lat="49.18015" lon="0.04169">
        <ele>43.2</ele>
        <time>2024-03-20T17:39:48Z</time>
      </trkpt>
      <trkpt lat="49.18021" lon="0.04153">
        <ele>42.4</ele>
        <time>2024-03-20T17:39:49Z</time>
      </trkpt>
      <trkpt lat="49.18028" lon="0.04139">
        <ele>41.2</ele>
        <time>2024-03-20T17:39:50Z</time>
      </trkpt>
      <trkpt lat="49.18037" lon="0.04126">
        <ele>40</ele>
        <time>2024-03-20T17:39:51Z</time>
      </trkpt>
      <trkpt lat="49.18046" lon="0.04116">
        <ele>38.8</ele>
        <time>2024-03-20T17:39:52Z</time>
      </trkpt>
      <trkpt lat="49.18057" lon="0.04109">
        <ele>37.6</ele>
        <time>2024-03-20T17:39:53Z</time>
      </trkpt>
      <trkpt lat="49.18067" lon="0.04104">
        <ele>36.6</ele>
        <time>2024-03-20T17:39:54Z</time>
      </trkpt>
      <trkpt lat="49.18079" lon="0.04102">
        <ele>35.4</ele>
        <time>2024-03-20T17:39:55Z</time>
      </trkpt>
      <trkpt lat="49.1809" lon="0.04099">
        <ele>34.4</ele>
        <time>2024-03-20T17:39:56Z</time>
      </trkpt>
      <trkpt lat="49.181" lon="0.04097">
        <ele>33.6</ele>
        <time>2024-03-20T17:39:57Z</time>
      </trkpt>
      <trkpt lat="49.18111" lon="0.04094">
        <ele>32.8</ele>
        <time>2024-03-20T17:39:58Z</time>
      </trkpt>
      <trkpt lat="49.18122" lon="0.04091">
        <ele>32.2</ele>
        <time>2024-03-20T17:39:59Z</time>
      </trkpt>
      <trkpt lat="49.18132" lon="0.0409">
        <ele>31.8</ele>
        <time>2024-03-20T17:40:00Z</time>
      </trkpt>
      <trkpt lat="49.18143" lon="0.04088">
        <ele>31.6</ele>
        <time>2024-03-20T17:40:01Z</time>
      </trkpt>
      <trkpt lat="49.18153" lon="0.04087">
        <ele>31.2</ele>
        <time>2024-03-20T17:40:02Z</time>
      </trkpt>
      <trkpt lat="49.18164" lon="0.04087">
        <ele>31.2</ele>
        <time>2024-03-20T17:40:03Z</time>
      </trkpt>
      <trkpt lat="49.18174" lon="0.04087">
        <ele>31.2</ele>
        <time>2024-03-20T17:40:04Z</time>
      </trkpt>
      <trkpt lat="49.18184" lon="0.04087">
        <ele>31</ele>
        <time>2024-03-20T17:40:05Z</time>
      </trkpt>
      <trkpt lat="49.18195" lon="0.04087">
        <ele>31</ele>
        <time>2024-03-20T17:40:06Z</time>
      </trkpt>
      <trkpt lat="49.18205" lon="0.04087">
        <ele>30.8</ele>
        <time>2024-03-20T17:40:07Z</time>
      </trkpt>
      <trkpt lat="49.18215" lon="0.04087">
        <ele>30.8</ele>
        <time>2024-03-20T17:40:08Z</time>
      </trkpt>
      <trkpt lat="49.18224" lon="0.04087">
        <ele>30.8</ele>
        <time>2024-03-20T17:40:09Z</time>
      </trkpt>
      <trkpt lat="49.18234" lon="0.04087">
        <ele>30.6</ele>
        <time>2024-03-20T17:40:10Z</time>
      </trkpt>
      <trkpt lat="49.18244" lon="0.04088">
        <ele>30.6</ele>
        <time>2024-03-20T17:40:11Z</time>
      </trkpt>
      <trkpt lat="49.18254" lon="0.04089">
        <ele>30.6</ele>
        <time>2024-03-20T17:40:12Z</time>
      </trkpt>
      <trkpt lat="49.18264" lon="0.0409">
        <ele>30.6</ele>
        <time>2024-03-20T17:40:13Z</time>
      </trkpt>
      <trkpt lat="49.18273" lon="0.04091">
        <ele>30.6</ele>
        <time>2024-03-20T17:40:14Z</time>
      </trkpt>
      <trkpt lat="49.18282" lon="0.04093">
        <ele>30.6</ele>
        <time>2024-03-20T17:40:15Z</time>
      </trkpt>
      <trkpt lat="49.1829" lon="0.04094">
        <ele>30.6</ele>
        <time>2024-03-20T17:40:16Z</time>
      </trkpt>
      <trkpt lat="49.18298" lon="0.04094">
        <ele>30.6</ele>
        <time>2024-03-20T17:40:17Z</time>
      </trkpt>
      <trkpt lat="49.18307" lon="0.04095">
        <ele>30.6</ele>
        <time>2024-03-20T17:40:18Z</time>
      </trkpt>
      <trkpt lat="49.18315" lon="0.04096">
        <ele>30.6</ele>
        <time>2024-03-20T17:40:19Z</time>
      </trkpt>
      <trkpt lat="49.18322" lon="0.04097">
        <ele>30.6</ele>
        <time>2024-03-20T17:40:20Z</time>
      </trkpt>
      <trkpt lat="49.1833" lon="0.04098">
        <ele>30.8</ele>
        <time>2024-03-20T17:40:21Z</time>
      </trkpt>
      <trkpt lat="49.18336" lon="0.04099">
        <ele>30.8</ele>
        <time>2024-03-20T17:40:22Z</time>
      </trkpt>
      <trkpt lat="49.18343" lon="0.041">
        <ele>30.6</ele>
        <time>2024-03-20T17:40:23Z</time>
      </trkpt>
      <trkpt lat="49.18348" lon="0.04101">
        <ele>30.8</ele>
        <time>2024-03-20T17:40:24Z</time>
      </trkpt>
      <trkpt lat="49.18354" lon="0.04102">
        <ele>30.8</ele>
        <time>2024-03-20T17:40:25Z</time>
      </trkpt>
      <trkpt lat="49.18359" lon="0.04102">
        <ele>30.8</ele>
        <time>2024-03-20T17:40:26Z</time>
      </trkpt>
      <trkpt lat="49.18364" lon="0.04103">
        <ele>31</ele>
        <time>2024-03-20T17:40:27Z</time>
      </trkpt>
      <trkpt lat="49.18367" lon="0.04102">
        <ele>31</ele>
        <time>2024-03-20T17:40:28Z</time>
      </trkpt>
      <trkpt lat="49.1837" lon="0.04102">
        <ele>31.2</ele>
        <time>2024-03-20T17:40:29Z</time>
      </trkpt>
      <trkpt lat="49.18373" lon="0.04102">
        <ele>31.2</ele>
        <time>2024-03-20T17:40:30Z</time>
      </trkpt>
      <trkpt lat="49.18375" lon="0.04102">
        <ele>31.4</ele>
        <time>2024-03-20T17:40:31Z</time>
      </trkpt>
      <trkpt lat="49.18377" lon="0.04102">
        <ele>31.4</ele>
        <time>2024-03-20T17:40:32Z</time>
      </trkpt>
      <trkpt lat="49.18379" lon="0.04102">
        <ele>31.8</ele>
        <time>2024-03-20T17:40:33Z</time>
      </trkpt>
      <trkpt lat="49.18379" lon="0.04101">
        <ele>32</ele>
        <time>2024-03-20T17:40:34Z</time>
      </trkpt>
      <trkpt lat="49.18379" lon="0.04101">
        <ele>32.2</ele>
        <time>2024-03-20T17:40:35Z</time>
      </trkpt>
      <trkpt lat="49.18379" lon="0.04101">
        <ele>32.2</ele>
        <time>2024-03-20T17:40:36Z</time>
      </trkpt>
      <trkpt lat="49.18382" lon="0.04096">
        <ele>32.4</ele>
        <time>2024-03-20T17:40:58Z</time>
      </trkpt>
      <trkpt lat="49.18382" lon="0.04093">
        <ele>32.4</ele>
        <time>2024-03-20T17:40:59Z</time>
      </trkpt>
      <trkpt lat="49.18382" lon="0.04089">
        <ele>32.4</ele>
        <time>2024-03-20T17:41:00Z</time>
      </trkpt>
      <trkpt lat="49.18382" lon="0.04084">
        <ele>32.4</ele>
        <time>2024-03-20T17:41:01Z</time>
      </trkpt>
      <trkpt lat="49.18381" lon="0.04079">
        <ele>32.4</ele>
        <time>2024-03-20T17:41:02Z</time>
      </trkpt>
      <trkpt lat="49.18379" lon="0.04073">
        <ele>32.4</ele>
        <time>2024-03-20T17:41:03Z</time>
      </trkpt>
      <trkpt lat="49.18377" lon="0.04066">
        <ele>32.4</ele>
        <time>2024-03-20T17:41:04Z</time>
      </trkpt>
      <trkpt lat="49.18376" lon="0.04059">
        <ele>32.4</ele>
        <time>2024-03-20T17:41:05Z</time>
      </trkpt>
      <trkpt lat="49.18374" lon="0.04051">
        <ele>32.4</ele>
        <time>2024-03-20T17:41:06Z</time>
      </trkpt>
      <trkpt lat="49.18372" lon="0.04043">
        <ele>32.4</ele>
        <time>2024-03-20T17:41:07Z</time>
      </trkpt>
      <trkpt lat="49.1837" lon="0.04034">
        <ele>32.4</ele>
        <time>2024-03-20T17:41:08Z</time>
      </trkpt>
      <trkpt lat="49.18368" lon="0.04024">
        <ele>32.2</ele>
        <time>2024-03-20T17:41:09Z</time>
      </trkpt>
      <trkpt lat="49.18365" lon="0.04013">
        <ele>32.2</ele>
        <time>2024-03-20T17:41:10Z</time>
      </trkpt>
      <trkpt lat="49.18362" lon="0.04003">
        <ele>32.2</ele>
        <time>2024-03-20T17:41:11Z</time>
      </trkpt>
      <trkpt lat="49.18359" lon="0.03993">
        <ele>32.2</ele>
        <time>2024-03-20T17:41:12Z</time>
      </trkpt>
      <trkpt lat="49.18356" lon="0.03982">
        <ele>32</ele>
        <time>2024-03-20T17:41:13Z</time>
      </trkpt>
      <trkpt lat="49.18353" lon="0.03971">
        <ele>32</ele>
        <time>2024-03-20T17:41:14Z</time>
      </trkpt>
      <trkpt lat="49.1835" lon="0.0396">
        <ele>31.8</ele>
        <time>2024-03-20T17:41:15Z</time>
      </trkpt>
      <trkpt lat="49.18347" lon="0.03948">
        <ele>31.6</ele>
        <time>2024-03-20T17:41:16Z</time>
      </trkpt>
      <trkpt lat="49.18345" lon="0.03936">
        <ele>31.4</ele>
        <time>2024-03-20T17:41:17Z</time>
      </trkpt>
      <trkpt lat="49.18342" lon="0.03924">
        <ele>31.2</ele>
        <time>2024-03-20T17:41:18Z</time>
      </trkpt>
      <trkpt lat="49.18339" lon="0.03913">
        <ele>31</ele>
        <time>2024-03-20T17:41:19Z</time>
      </trkpt>
      <trkpt lat="49.18336" lon="0.03902">
        <ele>30.8</ele>
        <time>2024-03-20T17:41:20Z</time>
      </trkpt>
      <trkpt lat="49.18333" lon="0.0389">
        <ele>30.6</ele>
        <time>2024-03-20T17:41:21Z</time>
      </trkpt>
      <trkpt lat="49.1833" lon="0.03878">
        <ele>30.6</ele>
        <time>2024-03-20T17:41:22Z</time>
      </trkpt>
      <trkpt lat="49.18327" lon="0.03866">
        <ele>30.4</ele>
        <time>2024-03-20T17:41:23Z</time>
      </trkpt>
      <trkpt lat="49.18324" lon="0.03854">
        <ele>30.4</ele>
        <time>2024-03-20T17:41:24Z</time>
      </trkpt>
      <trkpt lat="49.18322" lon="0.03843">
        <ele>30.4</ele>
        <time>2024-03-20T17:41:25Z</time>
      </trkpt>
      <trkpt lat="49.18319" lon="0.03831">
        <ele>30.4</ele>
        <time>2024-03-20T17:41:26Z</time>
      </trkpt>
      <trkpt lat="49.18317" lon="0.03819">
        <ele>30.2</ele>
        <time>2024-03-20T17:41:27Z</time>
      </trkpt>
      <trkpt lat="49.18314" lon="0.03807">
        <ele>30</ele>
        <time>2024-03-20T17:41:28Z</time>
      </trkpt>
      <trkpt lat="49.18311" lon="0.03795">
        <ele>30</ele>
        <time>2024-03-20T17:41:29Z</time>
      </trkpt>
      <trkpt lat="49.18308" lon="0.03784">
        <ele>29.8</ele>
        <time>2024-03-20T17:41:30Z</time>
      </trkpt>
      <trkpt lat="49.18305" lon="0.03772">
        <ele>29.4</ele>
        <time>2024-03-20T17:41:31Z</time>
      </trkpt>
      <trkpt lat="49.18302" lon="0.03761">
        <ele>29</ele>
        <time>2024-03-20T17:41:32Z</time>
      </trkpt>
      <trkpt lat="49.183" lon="0.03749">
        <ele>28.6</ele>
        <time>2024-03-20T17:41:33Z</time>
      </trkpt>
      <trkpt lat="49.18297" lon="0.03738">
        <ele>28.6</ele>
        <time>2024-03-20T17:41:34Z</time>
      </trkpt>
      <trkpt lat="49.18295" lon="0.03727">
        <ele>28.4</ele>
        <time>2024-03-20T17:41:35Z</time>
      </trkpt>
      <trkpt lat="49.18292" lon="0.03716">
        <ele>28.4</ele>
        <time>2024-03-20T17:41:36Z</time>
      </trkpt>
      <trkpt lat="49.18289" lon="0.03704">
        <ele>28.4</ele>
        <time>2024-03-20T17:41:37Z</time>
      </trkpt>
      <trkpt lat="49.18287" lon="0.03693">
        <ele>28.4</ele>
        <time>2024-03-20T17:41:38Z</time>
      </trkpt>
      <trkpt lat="49.18284" lon="0.03681">
        <ele>28.4</ele>
        <time>2024-03-20T17:41:39Z</time>
      </trkpt>
      <trkpt lat="49.18281" lon="0.0367">
        <ele>28.4</ele>
        <time>2024-03-20T17:41:40Z</time>
      </trkpt>
      <trkpt lat="49.18278" lon="0.03658">
        <ele>28.4</ele>
        <time>2024-03-20T17:41:41Z</time>
      </trkpt>
      <trkpt lat="49.18275" lon="0.03645">
        <ele>28.4</ele>
        <time>2024-03-20T17:41:42Z</time>
      </trkpt>
      <trkpt lat="49.18272" lon="0.03633">
        <ele>28.4</ele>
        <time>2024-03-20T17:41:43Z</time>
      </trkpt>
      <trkpt lat="49.18268" lon="0.03621">
        <ele>28.4</ele>
        <time>2024-03-20T17:41:44Z</time>
      </trkpt>
      <trkpt lat="49.18265" lon="0.0361">
        <ele>28.6</ele>
        <time>2024-03-20T17:41:45Z</time>
      </trkpt>
      <trkpt lat="49.18262" lon="0.03598">
        <ele>28.6</ele>
        <time>2024-03-20T17:41:46Z</time>
      </trkpt>
      <trkpt lat="49.18259" lon="0.03587">
        <ele>28.6</ele>
        <time>2024-03-20T17:41:47Z</time>
      </trkpt>
      <trkpt lat="49.18256" lon="0.03576">
        <ele>28.8</ele>
        <time>2024-03-20T17:41:48Z</time>
      </trkpt>
      <trkpt lat="49.18253" lon="0.03565">
        <ele>29.2</ele>
        <time>2024-03-20T17:41:49Z</time>
      </trkpt>
      <trkpt lat="49.1825" lon="0.03554">
        <ele>29.4</ele>
        <time>2024-03-20T17:41:50Z</time>
      </trkpt>
      <trkpt lat="49.18247" lon="0.03543">
        <ele>29.6</ele>
        <time>2024-03-20T17:41:51Z</time>
      </trkpt>
      <trkpt lat="49.18245" lon="0.03532">
        <ele>29.6</ele>
        <time>2024-03-20T17:41:52Z</time>
      </trkpt>
      <trkpt lat="49.18242" lon="0.03522">
        <ele>29.8</ele>
        <time>2024-03-20T17:41:53Z</time>
      </trkpt>
      <trkpt lat="49.1824" lon="0.03512">
        <ele>29.8</ele>
        <time>2024-03-20T17:41:54Z</time>
      </trkpt>
      <trkpt lat="49.18237" lon="0.03502">
        <ele>30</ele>
        <time>2024-03-20T17:41:55Z</time>
      </trkpt>
      <trkpt lat="49.18235" lon="0.03492">
        <ele>30</ele>
        <time>2024-03-20T17:41:56Z</time>
      </trkpt>
      <trkpt lat="49.18232" lon="0.03482">
        <ele>30.2</ele>
        <time>2024-03-20T17:41:57Z</time>
      </trkpt>
      <trkpt lat="49.18229" lon="0.03473">
        <ele>30.2</ele>
        <time>2024-03-20T17:41:58Z</time>
      </trkpt>
      <trkpt lat="49.18227" lon="0.03463">
        <ele>30.2</ele>
        <time>2024-03-20T17:41:59Z</time>
      </trkpt>
      <trkpt lat="49.18224" lon="0.03452">
        <ele>30.2</ele>
        <time>2024-03-20T17:42:00Z</time>
      </trkpt>
      <trkpt lat="49.18222" lon="0.03442">
        <ele>30.2</ele>
        <time>2024-03-20T17:42:01Z</time>
      </trkpt>
      <trkpt lat="49.1822" lon="0.03432">
        <ele>30.2</ele>
        <time>2024-03-20T17:42:02Z</time>
      </trkpt>
      <trkpt lat="49.18217" lon="0.03422">
        <ele>30.4</ele>
        <time>2024-03-20T17:42:03Z</time>
      </trkpt>
      <trkpt lat="49.18215" lon="0.03412">
        <ele>30.6</ele>
        <time>2024-03-20T17:42:04Z</time>
      </trkpt>
      <trkpt lat="49.18212" lon="0.03402">
        <ele>30.6</ele>
        <time>2024-03-20T17:42:05Z</time>
      </trkpt>
      <trkpt lat="49.1821" lon="0.03392">
        <ele>30.6</ele>
        <time>2024-03-20T17:42:06Z</time>
      </trkpt>
      <trkpt lat="49.18207" lon="0.03381">
        <ele>30.8</ele>
        <time>2024-03-20T17:42:07Z</time>
      </trkpt>
      <trkpt lat="49.18205" lon="0.03371">
        <ele>30.8</ele>
        <time>2024-03-20T17:42:08Z</time>
      </trkpt>
      <trkpt lat="49.18202" lon="0.03361">
        <ele>30.8</ele>
        <time>2024-03-20T17:42:09Z</time>
      </trkpt>
      <trkpt lat="49.18199" lon="0.03351">
        <ele>31</ele>
        <time>2024-03-20T17:42:10Z</time>
      </trkpt>
      <trkpt lat="49.18197" lon="0.03341">
        <ele>31</ele>
        <time>2024-03-20T17:42:11Z</time>
      </trkpt>
      <trkpt lat="49.18194" lon="0.03331">
        <ele>31</ele>
        <time>2024-03-20T17:42:12Z</time>
      </trkpt>
      <trkpt lat="49.18192" lon="0.03322">
        <ele>31</ele>
        <time>2024-03-20T17:42:13Z</time>
      </trkpt>
      <trkpt lat="49.1819" lon="0.03312">
        <ele>31</ele>
        <time>2024-03-20T17:42:14Z</time>
      </trkpt>
      <trkpt lat="49.18188" lon="0.03303">
        <ele>31</ele>
        <time>2024-03-20T17:42:15Z</time>
      </trkpt>
      <trkpt lat="49.18185" lon="0.03294">
        <ele>31</ele>
        <time>2024-03-20T17:42:16Z</time>
      </trkpt>
      <trkpt lat="49.18183" lon="0.03285">
        <ele>31</ele>
        <time>2024-03-20T17:42:17Z</time>
      </trkpt>
      <trkpt lat="49.1818" lon="0.03276">
        <ele>31.2</ele>
        <time>2024-03-20T17:42:18Z</time>
      </trkpt>
      <trkpt lat="49.18179" lon="0.03269">
        <ele>31.2</ele>
        <time>2024-03-20T17:42:19Z</time>
      </trkpt>
      <trkpt lat="49.18178" lon="0.03262">
        <ele>31.2</ele>
        <time>2024-03-20T17:42:20Z</time>
      </trkpt>
      <trkpt lat="49.1818" lon="0.03254">
        <ele>31.2</ele>
        <time>2024-03-20T17:42:21Z</time>
      </trkpt>
      <trkpt lat="49.18184" lon="0.03249">
        <ele>31.2</ele>
        <time>2024-03-20T17:42:22Z</time>
      </trkpt>
      <trkpt lat="49.1819" lon="0.03244">
        <ele>31.2</ele>
        <time>2024-03-20T17:42:23Z</time>
      </trkpt>
      <trkpt lat="49.18196" lon="0.0324">
        <ele>31.2</ele>
        <time>2024-03-20T17:42:24Z</time>
      </trkpt>
      <trkpt lat="49.18203" lon="0.03236">
        <ele>31.2</ele>
        <time>2024-03-20T17:42:25Z</time>
      </trkpt>
      <trkpt lat="49.18209" lon="0.03233">
        <ele>31.2</ele>
        <time>2024-03-20T17:42:26Z</time>
      </trkpt>
      <trkpt lat="49.18216" lon="0.03229">
        <ele>31.2</ele>
        <time>2024-03-20T17:42:27Z</time>
      </trkpt>
      <trkpt lat="49.18222" lon="0.03225">
        <ele>31.2</ele>
        <time>2024-03-20T17:42:28Z</time>
      </trkpt>
      <trkpt lat="49.18229" lon="0.03221">
        <ele>31</ele>
        <time>2024-03-20T17:42:29Z</time>
      </trkpt>
      <trkpt lat="49.18235" lon="0.03217">
        <ele>30.8</ele>
        <time>2024-03-20T17:42:30Z</time>
      </trkpt>
      <trkpt lat="49.18241" lon="0.03214">
        <ele>30.6</ele>
        <time>2024-03-20T17:42:31Z</time>
      </trkpt>
      <trkpt lat="49.18247" lon="0.0321">
        <ele>30.2</ele>
        <time>2024-03-20T17:42:32Z</time>
      </trkpt>
      <trkpt lat="49.18253" lon="0.03206">
        <ele>29.8</ele>
        <time>2024-03-20T17:42:33Z</time>
      </trkpt>
      <trkpt lat="49.18259" lon="0.03202">
        <ele>29.4</ele>
        <time>2024-03-20T17:42:34Z</time>
      </trkpt>
      <trkpt lat="49.18265" lon="0.03198">
        <ele>29.2</ele>
        <time>2024-03-20T17:42:35Z</time>
      </trkpt>
      <trkpt lat="49.1827" lon="0.03195">
        <ele>29</ele>
        <time>2024-03-20T17:42:36Z</time>
      </trkpt>
      <trkpt lat="49.18276" lon="0.03191">
        <ele>28.8</ele>
        <time>2024-03-20T17:42:37Z</time>
      </trkpt>
      <trkpt lat="49.18281" lon="0.03188">
        <ele>28.8</ele>
        <time>2024-03-20T17:42:38Z</time>
      </trkpt>
      <trkpt lat="49.18287" lon="0.03184">
        <ele>28.6</ele>
        <time>2024-03-20T17:42:39Z</time>
      </trkpt>
      <trkpt lat="49.18293" lon="0.0318">
        <ele>28.4</ele>
        <time>2024-03-20T17:42:40Z</time>
      </trkpt>
      <trkpt lat="49.18298" lon="0.03176">
        <ele>28.2</ele>
        <time>2024-03-20T17:42:41Z</time>
      </trkpt>
      <trkpt lat="49.18304" lon="0.03172">
        <ele>28</ele>
        <time>2024-03-20T17:42:42Z</time>
      </trkpt>
      <trkpt lat="49.1831" lon="0.03168">
        <ele>27.8</ele>
        <time>2024-03-20T17:42:43Z</time>
      </trkpt>
      <trkpt lat="49.18316" lon="0.03164">
        <ele>27.6</ele>
        <time>2024-03-20T17:42:44Z</time>
      </trkpt>
      <trkpt lat="49.18322" lon="0.03161">
        <ele>27.6</ele>
        <time>2024-03-20T17:42:45Z</time>
      </trkpt>
      <trkpt lat="49.18328" lon="0.03157">
        <ele>27.4</ele>
        <time>2024-03-20T17:42:46Z</time>
      </trkpt>
      <trkpt lat="49.18333" lon="0.03153">
        <ele>27.4</ele>
        <time>2024-03-20T17:42:47Z</time>
      </trkpt>
      <trkpt lat="49.18339" lon="0.03149">
        <ele>27.4</ele>
        <time>2024-03-20T17:42:48Z</time>
      </trkpt>
      <trkpt lat="49.18345" lon="0.03145">
        <ele>27.4</ele>
        <time>2024-03-20T17:42:49Z</time>
      </trkpt>
      <trkpt lat="49.18351" lon="0.03142">
        <ele>27.2</ele>
        <time>2024-03-20T17:42:50Z</time>
      </trkpt>
      <trkpt lat="49.18357" lon="0.03138">
        <ele>27</ele>
        <time>2024-03-20T17:42:51Z</time>
      </trkpt>
      <trkpt lat="49.18363" lon="0.03134">
        <ele>26.8</ele>
        <time>2024-03-20T17:42:52Z</time>
      </trkpt>
      <trkpt lat="49.18368" lon="0.0313">
        <ele>26.6</ele>
        <time>2024-03-20T17:42:53Z</time>
      </trkpt>
      <trkpt lat="49.18374" lon="0.03126">
        <ele>26.6</ele>
        <time>2024-03-20T17:42:54Z</time>
      </trkpt>
      <trkpt lat="49.1838" lon="0.03122">
        <ele>26.4</ele>
        <time>2024-03-20T17:42:55Z</time>
      </trkpt>
      <trkpt lat="49.18386" lon="0.03118">
        <ele>26.2</ele>
        <time>2024-03-20T17:42:56Z</time>
      </trkpt>
      <trkpt lat="49.18392" lon="0.03113">
        <ele>26</ele>
        <time>2024-03-20T17:42:57Z</time>
      </trkpt>
      <trkpt lat="49.18398" lon="0.03107">
        <ele>25.8</ele>
        <time>2024-03-20T17:42:58Z</time>
      </trkpt>
      <trkpt lat="49.18404" lon="0.03102">
        <ele>25.8</ele>
        <time>2024-03-20T17:42:59Z</time>
      </trkpt>
      <trkpt lat="49.1841" lon="0.03096">
        <ele>25.8</ele>
        <time>2024-03-20T17:43:00Z</time>
      </trkpt>
      <trkpt lat="49.18416" lon="0.0309">
        <ele>25.6</ele>
        <time>2024-03-20T17:43:01Z</time>
      </trkpt>
      <trkpt lat="49.18422" lon="0.03083">
        <ele>25.6</ele>
        <time>2024-03-20T17:43:02Z</time>
      </trkpt>
      <trkpt lat="49.18428" lon="0.03075">
        <ele>25.4</ele>
        <time>2024-03-20T17:43:03Z</time>
      </trkpt>
      <trkpt lat="49.18433" lon="0.03068">
        <ele>25.2</ele>
        <time>2024-03-20T17:43:04Z</time>
      </trkpt>
      <trkpt lat="49.18438" lon="0.03061">
        <ele>25</ele>
        <time>2024-03-20T17:43:05Z</time>
      </trkpt>
      <trkpt lat="49.18444" lon="0.03054">
        <ele>25</ele>
        <time>2024-03-20T17:43:06Z</time>
      </trkpt>
      <trkpt lat="49.18449" lon="0.03047">
        <ele>24.8</ele>
        <time>2024-03-20T17:43:07Z</time>
      </trkpt>
      <trkpt lat="49.18455" lon="0.0304">
        <ele>24.6</ele>
        <time>2024-03-20T17:43:08Z</time>
      </trkpt>
      <trkpt lat="49.18461" lon="0.03033">
        <ele>24.6</ele>
        <time>2024-03-20T17:43:09Z</time>
      </trkpt>
      <trkpt lat="49.18466" lon="0.03025">
        <ele>24.4</ele>
        <time>2024-03-20T17:43:10Z</time>
      </trkpt>
      <trkpt lat="49.18473" lon="0.03019">
        <ele>24.2</ele>
        <time>2024-03-20T17:43:11Z</time>
      </trkpt>
      <trkpt lat="49.1848" lon="0.03013">
        <ele>24.2</ele>
        <time>2024-03-20T17:43:12Z</time>
      </trkpt>
      <trkpt lat="49.18486" lon="0.03008">
        <ele>24.2</ele>
        <time>2024-03-20T17:43:13Z</time>
      </trkpt>
      <trkpt lat="49.18494" lon="0.03003">
        <ele>24</ele>
        <time>2024-03-20T17:43:14Z</time>
      </trkpt>
      <trkpt lat="49.18501" lon="0.02999">
        <ele>24</ele>
        <time>2024-03-20T17:43:15Z</time>
      </trkpt>
      <trkpt lat="49.18508" lon="0.02995">
        <ele>23.8</ele>
        <time>2024-03-20T17:43:16Z</time>
      </trkpt>
      <trkpt lat="49.18515" lon="0.02992">
        <ele>23.8</ele>
        <time>2024-03-20T17:43:17Z</time>
      </trkpt>
      <trkpt lat="49.18523" lon="0.02989">
        <ele>23.8</ele>
        <time>2024-03-20T17:43:18Z</time>
      </trkpt>
      <trkpt lat="49.1853" lon="0.02986">
        <ele>23.6</ele>
        <time>2024-03-20T17:43:19Z</time>
      </trkpt>
      <trkpt lat="49.18538" lon="0.02983">
        <ele>23.6</ele>
        <time>2024-03-20T17:43:20Z</time>
      </trkpt>
      <trkpt lat="49.18545" lon="0.0298">
        <ele>23.6</ele>
        <time>2024-03-20T17:43:21Z</time>
      </trkpt>
      <trkpt lat="49.18554" lon="0.02977">
        <ele>23.6</ele>
        <time>2024-03-20T17:43:22Z</time>
      </trkpt>
      <trkpt lat="49.1856" lon="0.02975">
        <ele>23.4</ele>
        <time>2024-03-20T17:43:23Z</time>
      </trkpt>
      <trkpt lat="49.18568" lon="0.02973">
        <ele>23.4</ele>
        <time>2024-03-20T17:43:24Z</time>
      </trkpt>
      <trkpt lat="49.18575" lon="0.02971">
        <ele>23.4</ele>
        <time>2024-03-20T17:43:25Z</time>
      </trkpt>
      <trkpt lat="49.18583" lon="0.0297">
        <ele>23.4</ele>
        <time>2024-03-20T17:43:26Z</time>
      </trkpt>
      <trkpt lat="49.1859" lon="0.0297">
        <ele>23.4</ele>
        <time>2024-03-20T17:43:27Z</time>
      </trkpt>
      <trkpt lat="49.18598" lon="0.0297">
        <ele>23.4</ele>
        <time>2024-03-20T17:43:28Z</time>
      </trkpt>
      <trkpt lat="49.18605" lon="0.0297">
        <ele>23.4</ele>
        <time>2024-03-20T17:43:29Z</time>
      </trkpt>
      <trkpt lat="49.18612" lon="0.0297">
        <ele>23.4</ele>
        <time>2024-03-20T17:43:30Z</time>
      </trkpt>
      <trkpt lat="49.1862" lon="0.02971">
        <ele>23.4</ele>
        <time>2024-03-20T17:43:31Z</time>
      </trkpt>
      <trkpt lat="49.18627" lon="0.02973">
        <ele>23.4</ele>
        <time>2024-03-20T17:43:32Z</time>
      </trkpt>
      <trkpt lat="49.18633" lon="0.02974">
        <ele>23.4</ele>
        <time>2024-03-20T17:43:33Z</time>
      </trkpt>
      <trkpt lat="49.1864" lon="0.02976">
        <ele>23.4</ele>
        <time>2024-03-20T17:43:34Z</time>
      </trkpt>
      <trkpt lat="49.18647" lon="0.02977">
        <ele>23.4</ele>
        <time>2024-03-20T17:43:35Z</time>
      </trkpt>
      <trkpt lat="49.18653" lon="0.02979">
        <ele>23.4</ele>
        <time>2024-03-20T17:43:36Z</time>
      </trkpt>
      <trkpt lat="49.1866" lon="0.0298">
        <ele>23.6</ele>
        <time>2024-03-20T17:43:37Z</time>
      </trkpt>
      <trkpt lat="49.18666" lon="0.0298">
        <ele>23.8</ele>
        <time>2024-03-20T17:43:38Z</time>
      </trkpt>
      <trkpt lat="49.18673" lon="0.02979">
        <ele>24</ele>
        <time>2024-03-20T17:43:39Z</time>
      </trkpt>
      <trkpt lat="49.1868" lon="0.02977">
        <ele>24.2</ele>
        <time>2024-03-20T17:43:40Z</time>
      </trkpt>
      <trkpt lat="49.18686" lon="0.02974">
        <ele>24.4</ele>
        <time>2024-03-20T17:43:41Z</time>
      </trkpt>
      <trkpt lat="49.18692" lon="0.02971">
        <ele>24.6</ele>
        <time>2024-03-20T17:43:42Z</time>
      </trkpt>
      <trkpt lat="49.18698" lon="0.02966">
        <ele>24.8</ele>
        <time>2024-03-20T17:43:43Z</time>
      </trkpt>
      <trkpt lat="49.18704" lon="0.02961">
        <ele>25</ele>
        <time>2024-03-20T17:43:44Z</time>
      </trkpt>
      <trkpt lat="49.1871" lon="0.02955">
        <ele>25</ele>
        <time>2024-03-20T17:43:45Z</time>
      </trkpt>
      <trkpt lat="49.18715" lon="0.02949">
        <ele>25</ele>
        <time>2024-03-20T17:43:46Z</time>
      </trkpt>
      <trkpt lat="49.1872" lon="0.02943">
        <ele>25.2</ele>
        <time>2024-03-20T17:43:47Z</time>
      </trkpt>
      <trkpt lat="49.18726" lon="0.02936">
        <ele>25.2</ele>
        <time>2024-03-20T17:43:48Z</time>
      </trkpt>
      <trkpt lat="49.18731" lon="0.02929">
        <ele>25.2</ele>
        <time>2024-03-20T17:43:49Z</time>
      </trkpt>
      <trkpt lat="49.18736" lon="0.02922">
        <ele>25.4</ele>
        <time>2024-03-20T17:43:50Z</time>
      </trkpt>
      <trkpt lat="49.1874" lon="0.02914">
        <ele>25.4</ele>
        <time>2024-03-20T17:43:51Z</time>
      </trkpt>
      <trkpt lat="49.18745" lon="0.02906">
        <ele>25.6</ele>
        <time>2024-03-20T17:43:52Z</time>
      </trkpt>
      <trkpt lat="49.18749" lon="0.02898">
        <ele>25.8</ele>
        <time>2024-03-20T17:43:53Z</time>
      </trkpt>
      <trkpt lat="49.18753" lon="0.0289">
        <ele>26.2</ele>
        <time>2024-03-20T17:43:54Z</time>
      </trkpt>
      <trkpt lat="49.18758" lon="0.02882">
        <ele>26.6</ele>
        <time>2024-03-20T17:43:55Z</time>
      </trkpt>
      <trkpt lat="49.18762" lon="0.02874">
        <ele>27</ele>
        <time>2024-03-20T17:43:56Z</time>
      </trkpt>
      <trkpt lat="49.18766" lon="0.02866">
        <ele>27.2</ele>
        <time>2024-03-20T17:43:57Z</time>
      </trkpt>
      <trkpt lat="49.1877" lon="0.02858">
        <ele>27.4</ele>
        <time>2024-03-20T17:43:58Z</time>
      </trkpt>
      <trkpt lat="49.18775" lon="0.0285">
        <ele>27.6</ele>
        <time>2024-03-20T17:43:59Z</time>
      </trkpt>
      <trkpt lat="49.18779" lon="0.02843">
        <ele>27.6</ele>
        <time>2024-03-20T17:44:00Z</time>
      </trkpt>
      <trkpt lat="49.18784" lon="0.02835">
        <ele>27.8</ele>
        <time>2024-03-20T17:44:01Z</time>
      </trkpt>
      <trkpt lat="49.18788" lon="0.02827">
        <ele>27.8</ele>
        <time>2024-03-20T17:44:02Z</time>
      </trkpt>
      <trkpt lat="49.18792" lon="0.02819">
        <ele>27.8</ele>
        <time>2024-03-20T17:44:03Z</time>
      </trkpt>
      <trkpt lat="49.18797" lon="0.02811">
        <ele>27.8</ele>
        <time>2024-03-20T17:44:04Z</time>
      </trkpt>
      <trkpt lat="49.18801" lon="0.02803">
        <ele>27.8</ele>
        <time>2024-03-20T17:44:05Z</time>
      </trkpt>
      <trkpt lat="49.18805" lon="0.02795">
        <ele>28</ele>
        <time>2024-03-20T17:44:06Z</time>
      </trkpt>
      <trkpt lat="49.18809" lon="0.02787">
        <ele>28</ele>
        <time>2024-03-20T17:44:07Z</time>
      </trkpt>
      <trkpt lat="49.18813" lon="0.02779">
        <ele>28</ele>
        <time>2024-03-20T17:44:08Z</time>
      </trkpt>
      <trkpt lat="49.18818" lon="0.02771">
        <ele>28</ele>
        <time>2024-03-20T17:44:09Z</time>
      </trkpt>
      <trkpt lat="49.18822" lon="0.02763">
        <ele>28</ele>
        <time>2024-03-20T17:44:10Z</time>
      </trkpt>
      <trkpt lat="49.18826" lon="0.02755">
        <ele>28.2</ele>
        <time>2024-03-20T17:44:11Z</time>
      </trkpt>
      <trkpt lat="49.18831" lon="0.02746">
        <ele>28.2</ele>
        <time>2024-03-20T17:44:12Z</time>
      </trkpt>
      <trkpt lat="49.18835" lon="0.02738">
        <ele>28.2</ele>
        <time>2024-03-20T17:44:13Z</time>
      </trkpt>
      <trkpt lat="49.1884" lon="0.0273">
        <ele>28.2</ele>
        <time>2024-03-20T17:44:14Z</time>
      </trkpt>
      <trkpt lat="49.18844" lon="0.02722">
        <ele>28.4</ele>
        <time>2024-03-20T17:44:15Z</time>
      </trkpt>
      <trkpt lat="49.18849" lon="0.02714">
        <ele>28.6</ele>
        <time>2024-03-20T17:44:16Z</time>
      </trkpt>
      <trkpt lat="49.18853" lon="0.02706">
        <ele>28.6</ele>
        <time>2024-03-20T17:44:17Z</time>
      </trkpt>
      <trkpt lat="49.18857" lon="0.02698">
        <ele>28.6</ele>
        <time>2024-03-20T17:44:18Z</time>
      </trkpt>
      <trkpt lat="49.18861" lon="0.02689">
        <ele>28.8</ele>
        <time>2024-03-20T17:44:19Z</time>
      </trkpt>
      <trkpt lat="49.18866" lon="0.02681">
        <ele>29</ele>
        <time>2024-03-20T17:44:20Z</time>
      </trkpt>
      <trkpt lat="49.1887" lon="0.02672">
        <ele>29.2</ele>
        <time>2024-03-20T17:44:21Z</time>
      </trkpt>
      <trkpt lat="49.18874" lon="0.02663">
        <ele>29.2</ele>
        <time>2024-03-20T17:44:22Z</time>
      </trkpt>
      <trkpt lat="49.18879" lon="0.02654">
        <ele>29.4</ele>
        <time>2024-03-20T17:44:23Z</time>
      </trkpt>
      <trkpt lat="49.18883" lon="0.02645">
        <ele>29.4</ele>
        <time>2024-03-20T17:44:24Z</time>
      </trkpt>
      <trkpt lat="49.18888" lon="0.02636">
        <ele>29.4</ele>
        <time>2024-03-20T17:44:25Z</time>
      </trkpt>
      <trkpt lat="49.18892" lon="0.02627">
        <ele>29.4</ele>
        <time>2024-03-20T17:44:26Z</time>
      </trkpt>
      <trkpt lat="49.18897" lon="0.02617">
        <ele>29.4</ele>
        <time>2024-03-20T17:44:27Z</time>
      </trkpt>
      <trkpt lat="49.18901" lon="0.02607">
        <ele>29.4</ele>
        <time>2024-03-20T17:44:28Z</time>
      </trkpt>
      <trkpt lat="49.18905" lon="0.02598">
        <ele>29.4</ele>
        <time>2024-03-20T17:44:29Z</time>
      </trkpt>
      <trkpt lat="49.1891" lon="0.02588">
        <ele>29.4</ele>
        <time>2024-03-20T17:44:30Z</time>
      </trkpt>
      <trkpt lat="49.18914" lon="0.02578">
        <ele>29.4</ele>
        <time>2024-03-20T17:44:31Z</time>
      </trkpt>
      <trkpt lat="49.18918" lon="0.02569">
        <ele>29.4</ele>
        <time>2024-03-20T17:44:32Z</time>
      </trkpt>
      <trkpt lat="49.18922" lon="0.02559">
        <ele>29.4</ele>
        <time>2024-03-20T17:44:33Z</time>
      </trkpt>
      <trkpt lat="49.18926" lon="0.0255">
        <ele>29.4</ele>
        <time>2024-03-20T17:44:34Z</time>
      </trkpt>
      <trkpt lat="49.1893" lon="0.02541">
        <ele>29.4</ele>
        <time>2024-03-20T17:44:35Z</time>
      </trkpt>
      <trkpt lat="49.18935" lon="0.02531">
        <ele>29.2</ele>
        <time>2024-03-20T17:44:36Z</time>
      </trkpt>
      <trkpt lat="49.18939" lon="0.02522">
        <ele>29.2</ele>
        <time>2024-03-20T17:44:37Z</time>
      </trkpt>
      <trkpt lat="49.18944" lon="0.02513">
        <ele>29.2</ele>
        <time>2024-03-20T17:44:38Z</time>
      </trkpt>
      <trkpt lat="49.18948" lon="0.02503">
        <ele>29</ele>
        <time>2024-03-20T17:44:39Z</time>
      </trkpt>
      <trkpt lat="49.18953" lon="0.02494">
        <ele>28.8</ele>
        <time>2024-03-20T17:44:40Z</time>
      </trkpt>
      <trkpt lat="49.18958" lon="0.02485">
        <ele>28.2</ele>
        <time>2024-03-20T17:44:41Z</time>
      </trkpt>
      <trkpt lat="49.18963" lon="0.02475">
        <ele>27.8</ele>
        <time>2024-03-20T17:44:42Z</time>
      </trkpt>
      <trkpt lat="49.18968" lon="0.02466">
        <ele>27.6</ele>
        <time>2024-03-20T17:44:43Z</time>
      </trkpt>
      <trkpt lat="49.18973" lon="0.02457">
        <ele>27.4</ele>
        <time>2024-03-20T17:44:44Z</time>
      </trkpt>
      <trkpt lat="49.18977" lon="0.02449">
        <ele>27.4</ele>
        <time>2024-03-20T17:44:45Z</time>
      </trkpt>
      <trkpt lat="49.18982" lon="0.0244">
        <ele>27.4</ele>
        <time>2024-03-20T17:44:46Z</time>
      </trkpt>
      <trkpt lat="49.18986" lon="0.02431">
        <ele>27.4</ele>
        <time>2024-03-20T17:44:47Z</time>
      </trkpt>
      <trkpt lat="49.18991" lon="0.02423">
        <ele>27.2</ele>
        <time>2024-03-20T17:44:48Z</time>
      </trkpt>
      <trkpt lat="49.18995" lon="0.02414">
        <ele>27.2</ele>
        <time>2024-03-20T17:44:49Z</time>
      </trkpt>
      <trkpt lat="49.18999" lon="0.02405">
        <ele>27.2</ele>
        <time>2024-03-20T17:44:50Z</time>
      </trkpt>
      <trkpt lat="49.19002" lon="0.02396">
        <ele>27</ele>
        <time>2024-03-20T17:44:51Z</time>
      </trkpt>
      <trkpt lat="49.19006" lon="0.02386">
        <ele>27</ele>
        <time>2024-03-20T17:44:52Z</time>
      </trkpt>
      <trkpt lat="49.19009" lon="0.02376">
        <ele>27</ele>
        <time>2024-03-20T17:44:53Z</time>
      </trkpt>
      <trkpt lat="49.19013" lon="0.02366">
        <ele>27</ele>
        <time>2024-03-20T17:44:54Z</time>
      </trkpt>
      <trkpt lat="49.19016" lon="0.02356">
        <ele>27</ele>
        <time>2024-03-20T17:44:55Z</time>
      </trkpt>
      <trkpt lat="49.19019" lon="0.02346">
        <ele>27</ele>
        <time>2024-03-20T17:44:56Z</time>
      </trkpt>
      <trkpt lat="49.19023" lon="0.02336">
        <ele>27</ele>
        <time>2024-03-20T17:44:57Z</time>
      </trkpt>
      <trkpt lat="49.19026" lon="0.02327">
        <ele>27</ele>
        <time>2024-03-20T17:44:58Z</time>
      </trkpt>
      <trkpt lat="49.19029" lon="0.02317">
        <ele>27.2</ele>
        <time>2024-03-20T17:44:59Z</time>
      </trkpt>
      <trkpt lat="49.19033" lon="0.02307">
        <ele>27.2</ele>
        <time>2024-03-20T17:45:00Z</time>
      </trkpt>
      <trkpt lat="49.19036" lon="0.02297">
        <ele>27.2</ele>
        <time>2024-03-20T17:45:01Z</time>
      </trkpt>
      <trkpt lat="49.19039" lon="0.02287">
        <ele>27.2</ele>
        <time>2024-03-20T17:45:02Z</time>
      </trkpt>
      <trkpt lat="49.19042" lon="0.02277">
        <ele>27.4</ele>
        <time>2024-03-20T17:45:03Z</time>
      </trkpt>
      <trkpt lat="49.19046" lon="0.02268">
        <ele>27.4</ele>
        <time>2024-03-20T17:45:04Z</time>
      </trkpt>
      <trkpt lat="49.19049" lon="0.02259">
        <ele>27.4</ele>
        <time>2024-03-20T17:45:05Z</time>
      </trkpt>
      <trkpt lat="49.19053" lon="0.0225">
        <ele>27.4</ele>
        <time>2024-03-20T17:45:06Z</time>
      </trkpt>
      <trkpt lat="49.19057" lon="0.02242">
        <ele>27.4</ele>
        <time>2024-03-20T17:45:07Z</time>
      </trkpt>
      <trkpt lat="49.19061" lon="0.02234">
        <ele>27.6</ele>
        <time>2024-03-20T17:45:08Z</time>
      </trkpt>
      <trkpt lat="49.19065" lon="0.02226">
        <ele>27.6</ele>
        <time>2024-03-20T17:45:09Z</time>
      </trkpt>
      <trkpt lat="49.19069" lon="0.02219">
        <ele>27.6</ele>
        <time>2024-03-20T17:45:10Z</time>
      </trkpt>
      <trkpt lat="49.19073" lon="0.02212">
        <ele>27.8</ele>
        <time>2024-03-20T17:45:11Z</time>
      </trkpt>
      <trkpt lat="49.19077" lon="0.02205">
        <ele>27.8</ele>
        <time>2024-03-20T17:45:12Z</time>
      </trkpt>
      <trkpt lat="49.19081" lon="0.02199">
        <ele>27.8</ele>
        <time>2024-03-20T17:45:13Z</time>
      </trkpt>
      <trkpt lat="49.19085" lon="0.02192">
        <ele>28</ele>
        <time>2024-03-20T17:45:14Z</time>
      </trkpt>
      <trkpt lat="49.19089" lon="0.02185">
        <ele>28</ele>
        <time>2024-03-20T17:45:15Z</time>
      </trkpt>
      <trkpt lat="49.19093" lon="0.02178">
        <ele>28</ele>
        <time>2024-03-20T17:45:16Z</time>
      </trkpt>
      <trkpt lat="49.19097" lon="0.02171">
        <ele>28.2</ele>
        <time>2024-03-20T17:45:17Z</time>
      </trkpt>
      <trkpt lat="49.19101" lon="0.02165">
        <ele>28.2</ele>
        <time>2024-03-20T17:45:18Z</time>
      </trkpt>
      <trkpt lat="49.19105" lon="0.02158">
        <ele>28.2</ele>
        <time>2024-03-20T17:45:19Z</time>
      </trkpt>
      <trkpt lat="49.19109" lon="0.02151">
        <ele>28.4</ele>
        <time>2024-03-20T17:45:20Z</time>
      </trkpt>
      <trkpt lat="49.19113" lon="0.02144">
        <ele>28.8</ele>
        <time>2024-03-20T17:45:21Z</time>
      </trkpt>
      <trkpt lat="49.19117" lon="0.02137">
        <ele>29.2</ele>
        <time>2024-03-20T17:45:22Z</time>
      </trkpt>
      <trkpt lat="49.1912" lon="0.0213">
        <ele>29.4</ele>
        <time>2024-03-20T17:45:23Z</time>
      </trkpt>
      <trkpt lat="49.19124" lon="0.02123">
        <ele>29.6</ele>
        <time>2024-03-20T17:45:24Z</time>
      </trkpt>
      <trkpt lat="49.19127" lon="0.02116">
        <ele>30</ele>
        <time>2024-03-20T17:45:25Z</time>
      </trkpt>
      <trkpt lat="49.19131" lon="0.02108">
        <ele>30.2</ele>
        <time>2024-03-20T17:45:26Z</time>
      </trkpt>
      <trkpt lat="49.19135" lon="0.02101">
        <ele>30.6</ele>
        <time>2024-03-20T17:45:27Z</time>
      </trkpt>
      <trkpt lat="49.19138" lon="0.02094">
        <ele>30.6</ele>
        <time>2024-03-20T17:45:28Z</time>
      </trkpt>
      <trkpt lat="49.19142" lon="0.02087">
        <ele>31</ele>
        <time>2024-03-20T17:45:29Z</time>
      </trkpt>
      <trkpt lat="49.19146" lon="0.0208">
        <ele>31.2</ele>
        <time>2024-03-20T17:45:30Z</time>
      </trkpt>
      <trkpt lat="49.19149" lon="0.02072">
        <ele>31.4</ele>
        <time>2024-03-20T17:45:31Z</time>
      </trkpt>
      <trkpt lat="49.19152" lon="0.02065">
        <ele>31.6</ele>
        <time>2024-03-20T17:45:32Z</time>
      </trkpt>
      <trkpt lat="49.19155" lon="0.02057">
        <ele>31.6</ele>
        <time>2024-03-20T17:45:33Z</time>
      </trkpt>
      <trkpt lat="49.19157" lon="0.02049">
        <ele>31.8</ele>
        <time>2024-03-20T17:45:34Z</time>
      </trkpt>
      <trkpt lat="49.1916" lon="0.02041">
        <ele>32</ele>
        <time>2024-03-20T17:45:35Z</time>
      </trkpt>
      <trkpt lat="49.19162" lon="0.02033">
        <ele>32.2</ele>
        <time>2024-03-20T17:45:36Z</time>
      </trkpt>
      <trkpt lat="49.19164" lon="0.02025">
        <ele>32.4</ele>
        <time>2024-03-20T17:45:37Z</time>
      </trkpt>
      <trkpt lat="49.19167" lon="0.02018">
        <ele>32.4</ele>
        <time>2024-03-20T17:45:38Z</time>
      </trkpt>
      <trkpt lat="49.19169" lon="0.02011">
        <ele>32.6</ele>
        <time>2024-03-20T17:45:39Z</time>
      </trkpt>
      <trkpt lat="49.19172" lon="0.02004">
        <ele>33</ele>
        <time>2024-03-20T17:45:40Z</time>
      </trkpt>
      <trkpt lat="49.19175" lon="0.01997">
        <ele>33.4</ele>
        <time>2024-03-20T17:45:41Z</time>
      </trkpt>
      <trkpt lat="49.19179" lon="0.01992">
        <ele>33.6</ele>
        <time>2024-03-20T17:45:42Z</time>
      </trkpt>
      <trkpt lat="49.19184" lon="0.01988">
        <ele>33.6</ele>
        <time>2024-03-20T17:45:43Z</time>
      </trkpt>
      <trkpt lat="49.1919" lon="0.01984">
        <ele>33.6</ele>
        <time>2024-03-20T17:45:44Z</time>
      </trkpt>
      <trkpt lat="49.19196" lon="0.01983">
        <ele>33.6</ele>
        <time>2024-03-20T17:45:45Z</time>
      </trkpt>
      <trkpt lat="49.19202" lon="0.01982">
        <ele>33.8</ele>
        <time>2024-03-20T17:45:46Z</time>
      </trkpt>
      <trkpt lat="49.19208" lon="0.01981">
        <ele>33.8</ele>
        <time>2024-03-20T17:45:47Z</time>
      </trkpt>
      <trkpt lat="49.19213" lon="0.0198">
        <ele>33.8</ele>
        <time>2024-03-20T17:45:48Z</time>
      </trkpt>
      <trkpt lat="49.19219" lon="0.01979">
        <ele>33.8</ele>
        <time>2024-03-20T17:45:49Z</time>
      </trkpt>
      <trkpt lat="49.19225" lon="0.01979">
        <ele>33.8</ele>
        <time>2024-03-20T17:45:50Z</time>
      </trkpt>
      <trkpt lat="49.19231" lon="0.01979">
        <ele>34</ele>
        <time>2024-03-20T17:45:51Z</time>
      </trkpt>
      <trkpt lat="49.19236" lon="0.01979">
        <ele>34</ele>
        <time>2024-03-20T17:45:52Z</time>
      </trkpt>
      <trkpt lat="49.19242" lon="0.01979">
        <ele>34</ele>
        <time>2024-03-20T17:45:53Z</time>
      </trkpt>
      <trkpt lat="49.19248" lon="0.01979">
        <ele>34</ele>
        <time>2024-03-20T17:45:54Z</time>
      </trkpt>
      <trkpt lat="49.19254" lon="0.0198">
        <ele>34</ele>
        <time>2024-03-20T17:45:55Z</time>
      </trkpt>
      <trkpt lat="49.1926" lon="0.01981">
        <ele>34.2</ele>
        <time>2024-03-20T17:45:56Z</time>
      </trkpt>
      <trkpt lat="49.19265" lon="0.01982">
        <ele>34.2</ele>
        <time>2024-03-20T17:45:57Z</time>
      </trkpt>
      <trkpt lat="49.19271" lon="0.01984">
        <ele>34.4</ele>
        <time>2024-03-20T17:45:58Z</time>
      </trkpt>
      <trkpt lat="49.19277" lon="0.01986">
        <ele>34.4</ele>
        <time>2024-03-20T17:45:59Z</time>
      </trkpt>
      <trkpt lat="49.19282" lon="0.01987">
        <ele>34.6</ele>
        <time>2024-03-20T17:46:00Z</time>
      </trkpt>
      <trkpt lat="49.19288" lon="0.01989">
        <ele>34.8</ele>
        <time>2024-03-20T17:46:01Z</time>
      </trkpt>
      <trkpt lat="49.19293" lon="0.01991">
        <ele>35</ele>
        <time>2024-03-20T17:46:02Z</time>
      </trkpt>
      <trkpt lat="49.19299" lon="0.01993">
        <ele>35.2</ele>
        <time>2024-03-20T17:46:03Z</time>
      </trkpt>
      <trkpt lat="49.19304" lon="0.01996">
        <ele>35.6</ele>
        <time>2024-03-20T17:46:04Z</time>
      </trkpt>
      <trkpt lat="49.19309" lon="0.01999">
        <ele>35.8</ele>
        <time>2024-03-20T17:46:05Z</time>
      </trkpt>
      <trkpt lat="49.19314" lon="0.02001">
        <ele>35.8</ele>
        <time>2024-03-20T17:46:06Z</time>
      </trkpt>
      <trkpt lat="49.19319" lon="0.02004">
        <ele>36</ele>
        <time>2024-03-20T17:46:07Z</time>
      </trkpt>
      <trkpt lat="49.19325" lon="0.02006">
        <ele>36.2</ele>
        <time>2024-03-20T17:46:08Z</time>
      </trkpt>
      <trkpt lat="49.1933" lon="0.02008">
        <ele>36.4</ele>
        <time>2024-03-20T17:46:09Z</time>
      </trkpt>
      <trkpt lat="49.19335" lon="0.02011">
        <ele>36.4</ele>
        <time>2024-03-20T17:46:10Z</time>
      </trkpt>
      <trkpt lat="49.1934" lon="0.02013">
        <ele>36.6</ele>
        <time>2024-03-20T17:46:11Z</time>
      </trkpt>
      <trkpt lat="49.19344" lon="0.02015">
        <ele>36.8</ele>
        <time>2024-03-20T17:46:12Z</time>
      </trkpt>
      <trkpt lat="49.19349" lon="0.02017">
        <ele>37</ele>
        <time>2024-03-20T17:46:13Z</time>
      </trkpt>
      <trkpt lat="49.19354" lon="0.02018">
        <ele>37.2</ele>
        <time>2024-03-20T17:46:14Z</time>
      </trkpt>
      <trkpt lat="49.19359" lon="0.0202">
        <ele>37.4</ele>
        <time>2024-03-20T17:46:15Z</time>
      </trkpt>
      <trkpt lat="49.19364" lon="0.0202">
        <ele>37.6</ele>
        <time>2024-03-20T17:46:16Z</time>
      </trkpt>
      <trkpt lat="49.19369" lon="0.02021">
        <ele>37.8</ele>
        <time>2024-03-20T17:46:17Z</time>
      </trkpt>
      <trkpt lat="49.19374" lon="0.02021">
        <ele>38.2</ele>
        <time>2024-03-20T17:46:18Z</time>
      </trkpt>
      <trkpt lat="49.19378" lon="0.02021">
        <ele>38.4</ele>
        <time>2024-03-20T17:46:19Z</time>
      </trkpt>
      <trkpt lat="49.19382" lon="0.02021">
        <ele>38.6</ele>
        <time>2024-03-20T17:46:20Z</time>
      </trkpt>
      <trkpt lat="49.19387" lon="0.0202">
        <ele>38.8</ele>
        <time>2024-03-20T17:46:21Z</time>
      </trkpt>
      <trkpt lat="49.19391" lon="0.0202">
        <ele>39</ele>
        <time>2024-03-20T17:46:22Z</time>
      </trkpt>
      <trkpt lat="49.19396" lon="0.0202">
        <ele>39.2</ele>
        <time>2024-03-20T17:46:23Z</time>
      </trkpt>
      <trkpt lat="49.19401" lon="0.0202">
        <ele>39.6</ele>
        <time>2024-03-20T17:46:24Z</time>
      </trkpt>
      <trkpt lat="49.19406" lon="0.02019">
        <ele>39.8</ele>
        <time>2024-03-20T17:46:25Z</time>
      </trkpt>
      <trkpt lat="49.19411" lon="0.02019">
        <ele>40</ele>
        <time>2024-03-20T17:46:26Z</time>
      </trkpt>
      <trkpt lat="49.19414" lon="0.02019">
        <ele>40</ele>
        <time>2024-03-20T17:46:27Z</time>
      </trkpt>
      <trkpt lat="49.1942" lon="0.02019">
        <ele>40.2</ele>
        <time>2024-03-20T17:46:28Z</time>
      </trkpt>
      <trkpt lat="49.19425" lon="0.02018">
        <ele>40.4</ele>
        <time>2024-03-20T17:46:29Z</time>
      </trkpt>
      <trkpt lat="49.19429" lon="0.02018">
        <ele>40.6</ele>
        <time>2024-03-20T17:46:30Z</time>
      </trkpt>
      <trkpt lat="49.19434" lon="0.02017">
        <ele>40.8</ele>
        <time>2024-03-20T17:46:31Z</time>
      </trkpt>
      <trkpt lat="49.19439" lon="0.02017">
        <ele>41.2</ele>
        <time>2024-03-20T17:46:32Z</time>
      </trkpt>
      <trkpt lat="49.19444" lon="0.02017">
        <ele>41.4</ele>
        <time>2024-03-20T17:46:33Z</time>
      </trkpt>
      <trkpt lat="49.19449" lon="0.02016">
        <ele>41.8</ele>
        <time>2024-03-20T17:46:34Z</time>
      </trkpt>
      <trkpt lat="49.19454" lon="0.02015">
        <ele>42</ele>
        <time>2024-03-20T17:46:35Z</time>
      </trkpt>
      <trkpt lat="49.19459" lon="0.02014">
        <ele>42.2</ele>
        <time>2024-03-20T17:46:36Z</time>
      </trkpt>
      <trkpt lat="49.19464" lon="0.02013">
        <ele>42.4</ele>
        <time>2024-03-20T17:46:37Z</time>
      </trkpt>
      <trkpt lat="49.1947" lon="0.02013">
        <ele>42.6</ele>
        <time>2024-03-20T17:46:38Z</time>
      </trkpt>
      <trkpt lat="49.19475" lon="0.02012">
        <ele>42.8</ele>
        <time>2024-03-20T17:46:39Z</time>
      </trkpt>
      <trkpt lat="49.1948" lon="0.02012">
        <ele>43</ele>
        <time>2024-03-20T17:46:40Z</time>
      </trkpt>
      <trkpt lat="49.19485" lon="0.02011">
        <ele>43.2</ele>
        <time>2024-03-20T17:46:41Z</time>
      </trkpt>
      <trkpt lat="49.1949" lon="0.02011">
        <ele>43.4</ele>
        <time>2024-03-20T17:46:42Z</time>
      </trkpt>
      <trkpt lat="49.19496" lon="0.0201">
        <ele>43.6</ele>
        <time>2024-03-20T17:46:43Z</time>
      </trkpt>
      <trkpt lat="49.19501" lon="0.02009">
        <ele>43.8</ele>
        <time>2024-03-20T17:46:44Z</time>
      </trkpt>
      <trkpt lat="49.19506" lon="0.02008">
        <ele>43.8</ele>
        <time>2024-03-20T17:46:45Z</time>
      </trkpt>
      <trkpt lat="49.19511" lon="0.02007">
        <ele>44</ele>
        <time>2024-03-20T17:46:46Z</time>
      </trkpt>
      <trkpt lat="49.19516" lon="0.02006">
        <ele>44</ele>
        <time>2024-03-20T17:46:47Z</time>
      </trkpt>
      <trkpt lat="49.19521" lon="0.02006">
        <ele>44.2</ele>
        <time>2024-03-20T17:46:48Z</time>
      </trkpt>
      <trkpt lat="49.19525" lon="0.02005">
        <ele>44.2</ele>
        <time>2024-03-20T17:46:49Z</time>
      </trkpt>
      <trkpt lat="49.1953" lon="0.02004">
        <ele>44.4</ele>
        <time>2024-03-20T17:46:50Z</time>
      </trkpt>
      <trkpt lat="49.19535" lon="0.02002">
        <ele>44.6</ele>
        <time>2024-03-20T17:46:51Z</time>
      </trkpt>
      <trkpt lat="49.1954" lon="0.02001">
        <ele>44.8</ele>
        <time>2024-03-20T17:46:52Z</time>
      </trkpt>
      <trkpt lat="49.19545" lon="0.02">
        <ele>45</ele>
        <time>2024-03-20T17:46:53Z</time>
      </trkpt>
      <trkpt lat="49.19549" lon="0.01999">
        <ele>45.2</ele>
        <time>2024-03-20T17:46:54Z</time>
      </trkpt>
      <trkpt lat="49.19554" lon="0.01998">
        <ele>45.4</ele>
        <time>2024-03-20T17:46:55Z</time>
      </trkpt>
      <trkpt lat="49.1956" lon="0.01997">
        <ele>45.6</ele>
        <time>2024-03-20T17:46:56Z</time>
      </trkpt>
      <trkpt lat="49.19565" lon="0.01996">
        <ele>45.6</ele>
        <time>2024-03-20T17:46:57Z</time>
      </trkpt>
      <trkpt lat="49.19571" lon="0.01995">
        <ele>45.8</ele>
        <time>2024-03-20T17:46:58Z</time>
      </trkpt>
      <trkpt lat="49.19576" lon="0.01994">
        <ele>46</ele>
        <time>2024-03-20T17:46:59Z</time>
      </trkpt>
      <trkpt lat="49.19581" lon="0.01994">
        <ele>46</ele>
        <time>2024-03-20T17:47:00Z</time>
      </trkpt>
      <trkpt lat="49.19586" lon="0.01993">
        <ele>46.2</ele>
        <time>2024-03-20T17:47:01Z</time>
      </trkpt>
      <trkpt lat="49.19591" lon="0.01992">
        <ele>46.2</ele>
        <time>2024-03-20T17:47:02Z</time>
      </trkpt>
      <trkpt lat="49.19595" lon="0.01992">
        <ele>46.4</ele>
        <time>2024-03-20T17:47:03Z</time>
      </trkpt>
      <trkpt lat="49.196" lon="0.01991">
        <ele>46.6</ele>
        <time>2024-03-20T17:47:04Z</time>
      </trkpt>
      <trkpt lat="49.19605" lon="0.0199">
        <ele>46.6</ele>
        <time>2024-03-20T17:47:05Z</time>
      </trkpt>
      <trkpt lat="49.19609" lon="0.01988">
        <ele>46.8</ele>
        <time>2024-03-20T17:47:06Z</time>
      </trkpt>
      <trkpt lat="49.19615" lon="0.01988">
        <ele>47</ele>
        <time>2024-03-20T17:47:07Z</time>
      </trkpt>
      <trkpt lat="49.1962" lon="0.01987">
        <ele>47</ele>
        <time>2024-03-20T17:47:08Z</time>
      </trkpt>
      <trkpt lat="49.19624" lon="0.01985">
        <ele>47.2</ele>
        <time>2024-03-20T17:47:09Z</time>
      </trkpt>
      <trkpt lat="49.19629" lon="0.01984">
        <ele>47.4</ele>
        <time>2024-03-20T17:47:10Z</time>
      </trkpt>
      <trkpt lat="49.19634" lon="0.01982">
        <ele>47.6</ele>
        <time>2024-03-20T17:47:11Z</time>
      </trkpt>
      <trkpt lat="49.19638" lon="0.0198">
        <ele>47.6</ele>
        <time>2024-03-20T17:47:12Z</time>
      </trkpt>
      <trkpt lat="49.19643" lon="0.01978">
        <ele>47.8</ele>
        <time>2024-03-20T17:47:13Z</time>
      </trkpt>
      <trkpt lat="49.19647" lon="0.01976">
        <ele>48</ele>
        <time>2024-03-20T17:47:14Z</time>
      </trkpt>
      <trkpt lat="49.19652" lon="0.01974">
        <ele>48.2</ele>
        <time>2024-03-20T17:47:15Z</time>
      </trkpt>
      <trkpt lat="49.19656" lon="0.01971">
        <ele>48.4</ele>
        <time>2024-03-20T17:47:16Z</time>
      </trkpt>
      <trkpt lat="49.1966" lon="0.01968">
        <ele>48.6</ele>
        <time>2024-03-20T17:47:17Z</time>
      </trkpt>
      <trkpt lat="49.19664" lon="0.01965">
        <ele>48.8</ele>
        <time>2024-03-20T17:47:18Z</time>
      </trkpt>
      <trkpt lat="49.19669" lon="0.01962">
        <ele>49</ele>
        <time>2024-03-20T17:47:19Z</time>
      </trkpt>
      <trkpt lat="49.19673" lon="0.01959">
        <ele>49.2</ele>
        <time>2024-03-20T17:47:20Z</time>
      </trkpt>
      <trkpt lat="49.19677" lon="0.01956">
        <ele>49.4</ele>
        <time>2024-03-20T17:47:21Z</time>
      </trkpt>
      <trkpt lat="49.19681" lon="0.01953">
        <ele>49.6</ele>
        <time>2024-03-20T17:47:22Z</time>
      </trkpt>
      <trkpt lat="49.19685" lon="0.0195">
        <ele>49.8</ele>
        <time>2024-03-20T17:47:23Z</time>
      </trkpt>
      <trkpt lat="49.19689" lon="0.01946">
        <ele>50</ele>
        <time>2024-03-20T17:47:24Z</time>
      </trkpt>
      <trkpt lat="49.19693" lon="0.01943">
        <ele>50.2</ele>
        <time>2024-03-20T17:47:25Z</time>
      </trkpt>
      <trkpt lat="49.19697" lon="0.01939">
        <ele>50.4</ele>
        <time>2024-03-20T17:47:26Z</time>
      </trkpt>
      <trkpt lat="49.19701" lon="0.01935">
        <ele>50.6</ele>
        <time>2024-03-20T17:47:27Z</time>
      </trkpt>
      <trkpt lat="49.19705" lon="0.01931">
        <ele>50.6</ele>
        <time>2024-03-20T17:47:28Z</time>
      </trkpt>
      <trkpt lat="49.19708" lon="0.01927">
        <ele>50.6</ele>
        <time>2024-03-20T17:47:29Z</time>
      </trkpt>
      <trkpt lat="49.19712" lon="0.01924">
        <ele>50.8</ele>
        <time>2024-03-20T17:47:30Z</time>
      </trkpt>
      <trkpt lat="49.19715" lon="0.0192">
        <ele>51</ele>
        <time>2024-03-20T17:47:31Z</time>
      </trkpt>
      <trkpt lat="49.19719" lon="0.01916">
        <ele>51.4</ele>
        <time>2024-03-20T17:47:32Z</time>
      </trkpt>
      <trkpt lat="49.19723" lon="0.01912">
        <ele>51.6</ele>
        <time>2024-03-20T17:47:33Z</time>
      </trkpt>
      <trkpt lat="49.19727" lon="0.01909">
        <ele>52</ele>
        <time>2024-03-20T17:47:34Z</time>
      </trkpt>
      <trkpt lat="49.19731" lon="0.01905">
        <ele>52.4</ele>
        <time>2024-03-20T17:47:35Z</time>
      </trkpt>
      <trkpt lat="49.19736" lon="0.01902">
        <ele>52.6</ele>
        <time>2024-03-20T17:47:36Z</time>
      </trkpt>
      <trkpt lat="49.1974" lon="0.01899">
        <ele>52.8</ele>
        <time>2024-03-20T17:47:37Z</time>
      </trkpt>
      <trkpt lat="49.19744" lon="0.01895">
        <ele>53.2</ele>
        <time>2024-03-20T17:47:38Z</time>
      </trkpt>
      <trkpt lat="49.19748" lon="0.01891">
        <ele>53.2</ele>
        <time>2024-03-20T17:47:39Z</time>
      </trkpt>
      <trkpt lat="49.19752" lon="0.01888">
        <ele>53.6</ele>
        <time>2024-03-20T17:47:40Z</time>
      </trkpt>
      <trkpt lat="49.19756" lon="0.01884">
        <ele>53.6</ele>
        <time>2024-03-20T17:47:41Z</time>
      </trkpt>
      <trkpt lat="49.1976" lon="0.0188">
        <ele>53.8</ele>
        <time>2024-03-20T17:47:42Z</time>
      </trkpt>
      <trkpt lat="49.19765" lon="0.01876">
        <ele>53.8</ele>
        <time>2024-03-20T17:47:43Z</time>
      </trkpt>
      <trkpt lat="49.19769" lon="0.01873">
        <ele>54</ele>
        <time>2024-03-20T17:47:44Z</time>
      </trkpt>
      <trkpt lat="49.19773" lon="0.01869">
        <ele>54.2</ele>
        <time>2024-03-20T17:47:45Z</time>
      </trkpt>
      <trkpt lat="49.19778" lon="0.01864">
        <ele>54.2</ele>
        <time>2024-03-20T17:47:46Z</time>
      </trkpt>
      <trkpt lat="49.19782" lon="0.0186">
        <ele>54.2</ele>
        <time>2024-03-20T17:47:47Z</time>
      </trkpt>
      <trkpt lat="49.19786" lon="0.01856">
        <ele>54.2</ele>
        <time>2024-03-20T17:47:48Z</time>
      </trkpt>
      <trkpt lat="49.1979" lon="0.01851">
        <ele>54.4</ele>
        <time>2024-03-20T17:47:49Z</time>
      </trkpt>
      <trkpt lat="49.19795" lon="0.01847">
        <ele>54.4</ele>
        <time>2024-03-20T17:47:50Z</time>
      </trkpt>
      <trkpt lat="49.19799" lon="0.01843">
        <ele>54.4</ele>
        <time>2024-03-20T17:47:51Z</time>
      </trkpt>
      <trkpt lat="49.19803" lon="0.01839">
        <ele>54.4</ele>
        <time>2024-03-20T17:47:52Z</time>
      </trkpt>
      <trkpt lat="49.19807" lon="0.01836">
        <ele>54.4</ele>
        <time>2024-03-20T17:47:53Z</time>
      </trkpt>
      <trkpt lat="49.19812" lon="0.01832">
        <ele>54.4</ele>
        <time>2024-03-20T17:47:54Z</time>
      </trkpt>
      <trkpt lat="49.19816" lon="0.01829">
        <ele>54.4</ele>
        <time>2024-03-20T17:47:55Z</time>
      </trkpt>
      <trkpt lat="49.1982" lon="0.01825">
        <ele>54.2</ele>
        <time>2024-03-20T17:47:56Z</time>
      </trkpt>
      <trkpt lat="49.19824" lon="0.01821">
        <ele>54.2</ele>
        <time>2024-03-20T17:47:57Z</time>
      </trkpt>
      <trkpt lat="49.19828" lon="0.01818">
        <ele>54.2</ele>
        <time>2024-03-20T17:47:58Z</time>
      </trkpt>
      <trkpt lat="49.19832" lon="0.01815">
        <ele>54.2</ele>
        <time>2024-03-20T17:47:59Z</time>
      </trkpt>
      <trkpt lat="49.19837" lon="0.0181">
        <ele>54.2</ele>
        <time>2024-03-20T17:48:00Z</time>
      </trkpt>
      <trkpt lat="49.1984" lon="0.01804">
        <ele>54</ele>
        <time>2024-03-20T17:48:01Z</time>
      </trkpt>
      <trkpt lat="49.19844" lon="0.01797">
        <ele>54</ele>
        <time>2024-03-20T17:48:02Z</time>
      </trkpt>
      <trkpt lat="49.19847" lon="0.01789">
        <ele>53.8</ele>
        <time>2024-03-20T17:48:03Z</time>
      </trkpt>
      <trkpt lat="49.19849" lon="0.0178">
        <ele>53.8</ele>
        <time>2024-03-20T17:48:04Z</time>
      </trkpt>
      <trkpt lat="49.19852" lon="0.01771">
        <ele>53.6</ele>
        <time>2024-03-20T17:48:05Z</time>
      </trkpt>
      <trkpt lat="49.19854" lon="0.01763">
        <ele>53.6</ele>
        <time>2024-03-20T17:48:06Z</time>
      </trkpt>
      <trkpt lat="49.19857" lon="0.01754">
        <ele>53.4</ele>
        <time>2024-03-20T17:48:07Z</time>
      </trkpt>
      <trkpt lat="49.19859" lon="0.01748">
        <ele>53.4</ele>
        <time>2024-03-20T17:48:08Z</time>
      </trkpt>
      <trkpt lat="49.19862" lon="0.0174">
        <ele>53.2</ele>
        <time>2024-03-20T17:48:09Z</time>
      </trkpt>
      <trkpt lat="49.19866" lon="0.01731">
        <ele>53.2</ele>
        <time>2024-03-20T17:48:10Z</time>
      </trkpt>
      <trkpt lat="49.19868" lon="0.01724">
        <ele>53</ele>
        <time>2024-03-20T17:48:11Z</time>
      </trkpt>
      <trkpt lat="49.19871" lon="0.01717">
        <ele>52.6</ele>
        <time>2024-03-20T17:48:12Z</time>
      </trkpt>
      <trkpt lat="49.19874" lon="0.0171">
        <ele>52.6</ele>
        <time>2024-03-20T17:48:13Z</time>
      </trkpt>
      <trkpt lat="49.19876" lon="0.01704">
        <ele>52.6</ele>
        <time>2024-03-20T17:48:14Z</time>
      </trkpt>
      <trkpt lat="49.19879" lon="0.01697">
        <ele>52.4</ele>
        <time>2024-03-20T17:48:15Z</time>
      </trkpt>
      <trkpt lat="49.19881" lon="0.0169">
        <ele>52.4</ele>
        <time>2024-03-20T17:48:16Z</time>
      </trkpt>
      <trkpt lat="49.19883" lon="0.01682">
        <ele>52.4</ele>
        <time>2024-03-20T17:48:17Z</time>
      </trkpt>
      <trkpt lat="49.19884" lon="0.01675">
        <ele>52.4</ele>
        <time>2024-03-20T17:48:18Z</time>
      </trkpt>
      <trkpt lat="49.19885" lon="0.01667">
        <ele>52.4</ele>
        <time>2024-03-20T17:48:19Z</time>
      </trkpt>
      <trkpt lat="49.19886" lon="0.0166">
        <ele>52.4</ele>
        <time>2024-03-20T17:48:20Z</time>
      </trkpt>
      <trkpt lat="49.19886" lon="0.01652">
        <ele>52.4</ele>
        <time>2024-03-20T17:48:21Z</time>
      </trkpt>
      <trkpt lat="49.19885" lon="0.01644">
        <ele>52.4</ele>
        <time>2024-03-20T17:48:22Z</time>
      </trkpt>
      <trkpt lat="49.19884" lon="0.01636">
        <ele>52.4</ele>
        <time>2024-03-20T17:48:23Z</time>
      </trkpt>
      <trkpt lat="49.19882" lon="0.01628">
        <ele>52.4</ele>
        <time>2024-03-20T17:48:24Z</time>
      </trkpt>
      <trkpt lat="49.1988" lon="0.01621">
        <ele>52.4</ele>
        <time>2024-03-20T17:48:25Z</time>
      </trkpt>
      <trkpt lat="49.19878" lon="0.01614">
        <ele>52.4</ele>
        <time>2024-03-20T17:48:26Z</time>
      </trkpt>
      <trkpt lat="49.19876" lon="0.01607">
        <ele>52.4</ele>
        <time>2024-03-20T17:48:27Z</time>
      </trkpt>
      <trkpt lat="49.19873" lon="0.01599">
        <ele>52.6</ele>
        <time>2024-03-20T17:48:28Z</time>
      </trkpt>
      <trkpt lat="49.19871" lon="0.01592">
        <ele>52.6</ele>
        <time>2024-03-20T17:48:29Z</time>
      </trkpt>
      <trkpt lat="49.19869" lon="0.01585">
        <ele>52.6</ele>
        <time>2024-03-20T17:48:30Z</time>
      </trkpt>
      <trkpt lat="49.19867" lon="0.01578">
        <ele>52.6</ele>
        <time>2024-03-20T17:48:31Z</time>
      </trkpt>
      <trkpt lat="49.19866" lon="0.0157">
        <ele>52.8</ele>
        <time>2024-03-20T17:48:32Z</time>
      </trkpt>
      <trkpt lat="49.19864" lon="0.01562">
        <ele>52.8</ele>
        <time>2024-03-20T17:48:33Z</time>
      </trkpt>
      <trkpt lat="49.19863" lon="0.01555">
        <ele>52.8</ele>
        <time>2024-03-20T17:48:34Z</time>
      </trkpt>
      <trkpt lat="49.19862" lon="0.01547">
        <ele>52.8</ele>
        <time>2024-03-20T17:48:35Z</time>
      </trkpt>
      <trkpt lat="49.19861" lon="0.01539">
        <ele>53</ele>
        <time>2024-03-20T17:48:36Z</time>
      </trkpt>
      <trkpt lat="49.1986" lon="0.01531">
        <ele>53.2</ele>
        <time>2024-03-20T17:48:37Z</time>
      </trkpt>
      <trkpt lat="49.19859" lon="0.01523">
        <ele>53.2</ele>
        <time>2024-03-20T17:48:38Z</time>
      </trkpt>
      <trkpt lat="49.19859" lon="0.01515">
        <ele>53.2</ele>
        <time>2024-03-20T17:48:39Z</time>
      </trkpt>
      <trkpt lat="49.19859" lon="0.01507">
        <ele>53.4</ele>
        <time>2024-03-20T17:48:40Z</time>
      </trkpt>
      <trkpt lat="49.19859" lon="0.01499">
        <ele>53.4</ele>
        <time>2024-03-20T17:48:41Z</time>
      </trkpt>
      <trkpt lat="49.19858" lon="0.0149">
        <ele>53.4</ele>
        <time>2024-03-20T17:48:42Z</time>
      </trkpt>
      <trkpt lat="49.19858" lon="0.01482">
        <ele>53.4</ele>
        <time>2024-03-20T17:48:43Z</time>
      </trkpt>
      <trkpt lat="49.19858" lon="0.01474">
        <ele>53.6</ele>
        <time>2024-03-20T17:48:44Z</time>
      </trkpt>
      <trkpt lat="49.19857" lon="0.01466">
        <ele>53.8</ele>
        <time>2024-03-20T17:48:45Z</time>
      </trkpt>
      <trkpt lat="49.19857" lon="0.01458">
        <ele>54</ele>
        <time>2024-03-20T17:48:46Z</time>
      </trkpt>
      <trkpt lat="49.19856" lon="0.0145">
        <ele>54.2</ele>
        <time>2024-03-20T17:48:47Z</time>
      </trkpt>
      <trkpt lat="49.19856" lon="0.01442">
        <ele>54.2</ele>
        <time>2024-03-20T17:48:48Z</time>
      </trkpt>
      <trkpt lat="49.19856" lon="0.01434">
        <ele>54.4</ele>
        <time>2024-03-20T17:48:49Z</time>
      </trkpt>
      <trkpt lat="49.19856" lon="0.01426">
        <ele>54.4</ele>
        <time>2024-03-20T17:48:50Z</time>
      </trkpt>
      <trkpt lat="49.19856" lon="0.01419">
        <ele>54.4</ele>
        <time>2024-03-20T17:48:51Z</time>
      </trkpt>
      <trkpt lat="49.19856" lon="0.01411">
        <ele>54.4</ele>
        <time>2024-03-20T17:48:52Z</time>
      </trkpt>
      <trkpt lat="49.19857" lon="0.01403">
        <ele>54.6</ele>
        <time>2024-03-20T17:48:53Z</time>
      </trkpt>
      <trkpt lat="49.19858" lon="0.01395">
        <ele>54.6</ele>
        <time>2024-03-20T17:48:54Z</time>
      </trkpt>
      <trkpt lat="49.1986" lon="0.01387">
        <ele>54.8</ele>
        <time>2024-03-20T17:48:55Z</time>
      </trkpt>
      <trkpt lat="49.19862" lon="0.0138">
        <ele>55</ele>
        <time>2024-03-20T17:48:56Z</time>
      </trkpt>
      <trkpt lat="49.19864" lon="0.01372">
        <ele>55.2</ele>
        <time>2024-03-20T17:48:57Z</time>
      </trkpt>
      <trkpt lat="49.19866" lon="0.01364">
        <ele>55.4</ele>
        <time>2024-03-20T17:48:58Z</time>
      </trkpt>
      <trkpt lat="49.19868" lon="0.01357">
        <ele>55.6</ele>
        <time>2024-03-20T17:48:59Z</time>
      </trkpt>
      <trkpt lat="49.19871" lon="0.0135">
        <ele>55.8</ele>
        <time>2024-03-20T17:49:00Z</time>
      </trkpt>
      <trkpt lat="49.19873" lon="0.01343">
        <ele>56</ele>
        <time>2024-03-20T17:49:01Z</time>
      </trkpt>
      <trkpt lat="49.19876" lon="0.01336">
        <ele>56</ele>
        <time>2024-03-20T17:49:02Z</time>
      </trkpt>
      <trkpt lat="49.19879" lon="0.0133">
        <ele>56</ele>
        <time>2024-03-20T17:49:03Z</time>
      </trkpt>
      <trkpt lat="49.19882" lon="0.01323">
        <ele>56</ele>
        <time>2024-03-20T17:49:04Z</time>
      </trkpt>
      <trkpt lat="49.19885" lon="0.01317">
        <ele>56.2</ele>
        <time>2024-03-20T17:49:05Z</time>
      </trkpt>
      <trkpt lat="49.19888" lon="0.0131">
        <ele>56.2</ele>
        <time>2024-03-20T17:49:06Z</time>
      </trkpt>
      <trkpt lat="49.19891" lon="0.01304">
        <ele>56.4</ele>
        <time>2024-03-20T17:49:07Z</time>
      </trkpt>
      <trkpt lat="49.19894" lon="0.01298">
        <ele>56.4</ele>
        <time>2024-03-20T17:49:08Z</time>
      </trkpt>
      <trkpt lat="49.19896" lon="0.01292">
        <ele>56.6</ele>
        <time>2024-03-20T17:49:09Z</time>
      </trkpt>
      <trkpt lat="49.19898" lon="0.01286">
        <ele>57</ele>
        <time>2024-03-20T17:49:10Z</time>
      </trkpt>
      <trkpt lat="49.19901" lon="0.0128">
        <ele>57.2</ele>
        <time>2024-03-20T17:49:11Z</time>
      </trkpt>
      <trkpt lat="49.19903" lon="0.01274">
        <ele>57.2</ele>
        <time>2024-03-20T17:49:12Z</time>
      </trkpt>
      <trkpt lat="49.19905" lon="0.01268">
        <ele>57.4</ele>
        <time>2024-03-20T17:49:13Z</time>
      </trkpt>
      <trkpt lat="49.19907" lon="0.01263">
        <ele>57.4</ele>
        <time>2024-03-20T17:49:14Z</time>
      </trkpt>
      <trkpt lat="49.19908" lon="0.01257">
        <ele>57.4</ele>
        <time>2024-03-20T17:49:15Z</time>
      </trkpt>
      <trkpt lat="49.1991" lon="0.01252">
        <ele>57.6</ele>
        <time>2024-03-20T17:49:16Z</time>
      </trkpt>
      <trkpt lat="49.19911" lon="0.01246">
        <ele>57.8</ele>
        <time>2024-03-20T17:49:17Z</time>
      </trkpt>
      <trkpt lat="49.19912" lon="0.01241">
        <ele>58.2</ele>
        <time>2024-03-20T17:49:18Z</time>
      </trkpt>
      <trkpt lat="49.19913" lon="0.01236">
        <ele>58.2</ele>
        <time>2024-03-20T17:49:19Z</time>
      </trkpt>
      <trkpt lat="49.19915" lon="0.01231">
        <ele>58.6</ele>
        <time>2024-03-20T17:49:20Z</time>
      </trkpt>
      <trkpt lat="49.19916" lon="0.01227">
        <ele>58.8</ele>
        <time>2024-03-20T17:49:21Z</time>
      </trkpt>
      <trkpt lat="49.19918" lon="0.01222">
        <ele>59</ele>
        <time>2024-03-20T17:49:22Z</time>
      </trkpt>
      <trkpt lat="49.19919" lon="0.01218">
        <ele>59.2</ele>
        <time>2024-03-20T17:49:23Z</time>
      </trkpt>
      <trkpt lat="49.1992" lon="0.01213">
        <ele>59.6</ele>
        <time>2024-03-20T17:49:24Z</time>
      </trkpt>
      <trkpt lat="49.19921" lon="0.01209">
        <ele>60</ele>
        <time>2024-03-20T17:49:25Z</time>
      </trkpt>
      <trkpt lat="49.19923" lon="0.01205">
        <ele>60.2</ele>
        <time>2024-03-20T17:49:26Z</time>
      </trkpt>
      <trkpt lat="49.19924" lon="0.01202">
        <ele>60.6</ele>
        <time>2024-03-20T17:49:27Z</time>
      </trkpt>
      <trkpt lat="49.19925" lon="0.01198">
        <ele>60.8</ele>
        <time>2024-03-20T17:49:28Z</time>
      </trkpt>
      <trkpt lat="49.19925" lon="0.01194">
        <ele>61</ele>
        <time>2024-03-20T17:49:29Z</time>
      </trkpt>
      <trkpt lat="49.19926" lon="0.0119">
        <ele>61.4</ele>
        <time>2024-03-20T17:49:30Z</time>
      </trkpt>
      <trkpt lat="49.19927" lon="0.01186">
        <ele>61.6</ele>
        <time>2024-03-20T17:49:31Z</time>
      </trkpt>
      <trkpt lat="49.19928" lon="0.01182">
        <ele>62.2</ele>
        <time>2024-03-20T17:49:32Z</time>
      </trkpt>
      <trkpt lat="49.19929" lon="0.01179">
        <ele>62.6</ele>
        <time>2024-03-20T17:49:33Z</time>
      </trkpt>
      <trkpt lat="49.19929" lon="0.01175">
        <ele>63</ele>
        <time>2024-03-20T17:49:34Z</time>
      </trkpt>
      <trkpt lat="49.19931" lon="0.01172">
        <ele>63.4</ele>
        <time>2024-03-20T17:49:35Z</time>
      </trkpt>
      <trkpt lat="49.19931" lon="0.01168">
        <ele>63.6</ele>
        <time>2024-03-20T17:49:36Z</time>
      </trkpt>
      <trkpt lat="49.19932" lon="0.01165">
        <ele>64</ele>
        <time>2024-03-20T17:49:37Z</time>
      </trkpt>
      <trkpt lat="49.19933" lon="0.01161">
        <ele>64.2</ele>
        <time>2024-03-20T17:49:38Z</time>
      </trkpt>
      <trkpt lat="49.19934" lon="0.01157">
        <ele>64.4</ele>
        <time>2024-03-20T17:49:39Z</time>
      </trkpt>
      <trkpt lat="49.19935" lon="0.01153">
        <ele>64.8</ele>
        <time>2024-03-20T17:49:40Z</time>
      </trkpt>
      <trkpt lat="49.19936" lon="0.01149">
        <ele>65</ele>
        <time>2024-03-20T17:49:41Z</time>
      </trkpt>
      <trkpt lat="49.19937" lon="0.01145">
        <ele>65.2</ele>
        <time>2024-03-20T17:49:42Z</time>
      </trkpt>
      <trkpt lat="49.19938" lon="0.01141">
        <ele>65.4</ele>
        <time>2024-03-20T17:49:43Z</time>
      </trkpt>
      <trkpt lat="49.19939" lon="0.01138">
        <ele>65.6</ele>
        <time>2024-03-20T17:49:44Z</time>
      </trkpt>
      <trkpt lat="49.1994" lon="0.01134">
        <ele>65.8</ele>
        <time>2024-03-20T17:49:45Z</time>
      </trkpt>
      <trkpt lat="49.19941" lon="0.01131">
        <ele>66.2</ele>
        <time>2024-03-20T17:49:46Z</time>
      </trkpt>
      <trkpt lat="49.19942" lon="0.01127">
        <ele>66.4</ele>
        <time>2024-03-20T17:49:47Z</time>
      </trkpt>
      <trkpt lat="49.19943" lon="0.01124">
        <ele>66.6</ele>
        <time>2024-03-20T17:49:48Z</time>
      </trkpt>
      <trkpt lat="49.19943" lon="0.0112">
        <ele>67</ele>
        <time>2024-03-20T17:49:49Z</time>
      </trkpt>
      <trkpt lat="49.19944" lon="0.01117">
        <ele>67.2</ele>
        <time>2024-03-20T17:49:50Z</time>
      </trkpt>
      <trkpt lat="49.19946" lon="0.01113">
        <ele>67.4</ele>
        <time>2024-03-20T17:49:51Z</time>
      </trkpt>
      <trkpt lat="49.19947" lon="0.0111">
        <ele>67.6</ele>
        <time>2024-03-20T17:49:52Z</time>
      </trkpt>
      <trkpt lat="49.19948" lon="0.01106">
        <ele>68</ele>
        <time>2024-03-20T17:49:53Z</time>
      </trkpt>
      <trkpt lat="49.19949" lon="0.01103">
        <ele>68.2</ele>
        <time>2024-03-20T17:49:54Z</time>
      </trkpt>
      <trkpt lat="49.1995" lon="0.011">
        <ele>68.6</ele>
        <time>2024-03-20T17:49:55Z</time>
      </trkpt>
      <trkpt lat="49.19951" lon="0.01097">
        <ele>68.6</ele>
        <time>2024-03-20T17:49:56Z</time>
      </trkpt>
      <trkpt lat="49.19953" lon="0.01094">
        <ele>68.8</ele>
        <time>2024-03-20T17:49:57Z</time>
      </trkpt>
      <trkpt lat="49.19954" lon="0.01091">
        <ele>69.2</ele>
        <time>2024-03-20T17:49:58Z</time>
      </trkpt>
      <trkpt lat="49.19956" lon="0.01088">
        <ele>69.4</ele>
        <time>2024-03-20T17:49:59Z</time>
      </trkpt>
      <trkpt lat="49.19957" lon="0.01085">
        <ele>69.8</ele>
        <time>2024-03-20T17:50:00Z</time>
      </trkpt>
      <trkpt lat="49.19959" lon="0.01082">
        <ele>70</ele>
        <time>2024-03-20T17:50:01Z</time>
      </trkpt>
      <trkpt lat="49.1996" lon="0.01079">
        <ele>70.4</ele>
        <time>2024-03-20T17:50:02Z</time>
      </trkpt>
      <trkpt lat="49.19961" lon="0.01075">
        <ele>70.8</ele>
        <time>2024-03-20T17:50:03Z</time>
      </trkpt>
      <trkpt lat="49.19962" lon="0.01072">
        <ele>71</ele>
        <time>2024-03-20T17:50:04Z</time>
      </trkpt>
      <trkpt lat="49.19963" lon="0.01069">
        <ele>71.2</ele>
        <time>2024-03-20T17:50:05Z</time>
      </trkpt>
      <trkpt lat="49.19964" lon="0.01066">
        <ele>71.4</ele>
        <time>2024-03-20T17:50:06Z</time>
      </trkpt>
      <trkpt lat="49.19965" lon="0.01062">
        <ele>71.8</ele>
        <time>2024-03-20T17:50:07Z</time>
      </trkpt>
      <trkpt lat="49.19965" lon="0.01059">
        <ele>72</ele>
        <time>2024-03-20T17:50:08Z</time>
      </trkpt>
      <trkpt lat="49.19966" lon="0.01056">
        <ele>72.2</ele>
        <time>2024-03-20T17:50:09Z</time>
      </trkpt>
      <trkpt lat="49.19968" lon="0.01053">
        <ele>72.4</ele>
        <time>2024-03-20T17:50:10Z</time>
      </trkpt>
      <trkpt lat="49.19969" lon="0.0105">
        <ele>72.6</ele>
        <time>2024-03-20T17:50:11Z</time>
      </trkpt>
      <trkpt lat="49.1997" lon="0.01046">
        <ele>72.8</ele>
        <time>2024-03-20T17:50:12Z</time>
      </trkpt>
      <trkpt lat="49.19972" lon="0.01043">
        <ele>73</ele>
        <time>2024-03-20T17:50:13Z</time>
      </trkpt>
      <trkpt lat="49.19973" lon="0.01039">
        <ele>73.2</ele>
        <time>2024-03-20T17:50:14Z</time>
      </trkpt>
      <trkpt lat="49.19975" lon="0.01035">
        <ele>73.6</ele>
        <time>2024-03-20T17:50:15Z</time>
      </trkpt>
      <trkpt lat="49.19976" lon="0.01032">
        <ele>73.8</ele>
        <time>2024-03-20T17:50:16Z</time>
      </trkpt>
      <trkpt lat="49.19977" lon="0.01028">
        <ele>74</ele>
        <time>2024-03-20T17:50:17Z</time>
      </trkpt>
      <trkpt lat="49.19978" lon="0.01025">
        <ele>74.2</ele>
        <time>2024-03-20T17:50:18Z</time>
      </trkpt>
      <trkpt lat="49.19979" lon="0.01021">
        <ele>74.4</ele>
        <time>2024-03-20T17:50:19Z</time>
      </trkpt>
      <trkpt lat="49.1998" lon="0.01018">
        <ele>74.6</ele>
        <time>2024-03-20T17:50:20Z</time>
      </trkpt>
      <trkpt lat="49.19981" lon="0.01015">
        <ele>74.8</ele>
        <time>2024-03-20T17:50:21Z</time>
      </trkpt>
      <trkpt lat="49.19982" lon="0.01011">
        <ele>75</ele>
        <time>2024-03-20T17:50:22Z</time>
      </trkpt>
      <trkpt lat="49.19983" lon="0.01008">
        <ele>75</ele>
        <time>2024-03-20T17:50:23Z</time>
      </trkpt>
      <trkpt lat="49.19984" lon="0.01005">
        <ele>75.4</ele>
        <time>2024-03-20T17:50:24Z</time>
      </trkpt>
      <trkpt lat="49.19986" lon="0.01002">
        <ele>75.6</ele>
        <time>2024-03-20T17:50:25Z</time>
      </trkpt>
      <trkpt lat="49.19987" lon="0.00999">
        <ele>75.8</ele>
        <time>2024-03-20T17:50:26Z</time>
      </trkpt>
      <trkpt lat="49.19988" lon="0.00997">
        <ele>76</ele>
        <time>2024-03-20T17:50:27Z</time>
      </trkpt>
      <trkpt lat="49.19989" lon="0.00994">
        <ele>76.2</ele>
        <time>2024-03-20T17:50:28Z</time>
      </trkpt>
      <trkpt lat="49.1999" lon="0.00991">
        <ele>76.6</ele>
        <time>2024-03-20T17:50:29Z</time>
      </trkpt>
      <trkpt lat="49.19992" lon="0.00987">
        <ele>76.6</ele>
        <time>2024-03-20T17:50:30Z</time>
      </trkpt>
      <trkpt lat="49.19993" lon="0.00984">
        <ele>76.8</ele>
        <time>2024-03-20T17:50:31Z</time>
      </trkpt>
      <trkpt lat="49.19995" lon="0.00982">
        <ele>77</ele>
        <time>2024-03-20T17:50:32Z</time>
      </trkpt>
      <trkpt lat="49.19997" lon="0.00979">
        <ele>77.2</ele>
        <time>2024-03-20T17:50:33Z</time>
      </trkpt>
      <trkpt lat="49.19999" lon="0.00976">
        <ele>77.2</ele>
        <time>2024-03-20T17:50:34Z</time>
      </trkpt>
      <trkpt lat="49.20001" lon="0.00973">
        <ele>77.4</ele>
        <time>2024-03-20T17:50:35Z</time>
      </trkpt>
      <trkpt lat="49.20002" lon="0.0097">
        <ele>77.6</ele>
        <time>2024-03-20T17:50:36Z</time>
      </trkpt>
      <trkpt lat="49.20003" lon="0.00968">
        <ele>77.8</ele>
        <time>2024-03-20T17:50:37Z</time>
      </trkpt>
      <trkpt lat="49.20005" lon="0.00965">
        <ele>78</ele>
        <time>2024-03-20T17:50:38Z</time>
      </trkpt>
      <trkpt lat="49.20006" lon="0.00962">
        <ele>78.4</ele>
        <time>2024-03-20T17:50:39Z</time>
      </trkpt>
      <trkpt lat="49.20007" lon="0.00959">
        <ele>78.6</ele>
        <time>2024-03-20T17:50:40Z</time>
      </trkpt>
      <trkpt lat="49.20009" lon="0.00957">
        <ele>78.8</ele>
        <time>2024-03-20T17:50:41Z</time>
      </trkpt>
      <trkpt lat="49.2001" lon="0.00954">
        <ele>79.2</ele>
        <time>2024-03-20T17:50:42Z</time>
      </trkpt>
      <trkpt lat="49.20012" lon="0.00952">
        <ele>79.4</ele>
        <time>2024-03-20T17:50:43Z</time>
      </trkpt>
      <trkpt lat="49.20013" lon="0.0095">
        <ele>79.6</ele>
        <time>2024-03-20T17:50:44Z</time>
      </trkpt>
      <trkpt lat="49.20015" lon="0.00948">
        <ele>79.8</ele>
        <time>2024-03-20T17:50:45Z</time>
      </trkpt>
      <trkpt lat="49.20018" lon="0.00946">
        <ele>79.8</ele>
        <time>2024-03-20T17:50:46Z</time>
      </trkpt>
      <trkpt lat="49.2002" lon="0.00943">
        <ele>80</ele>
        <time>2024-03-20T17:50:47Z</time>
      </trkpt>
      <trkpt lat="49.20022" lon="0.00941">
        <ele>80.4</ele>
        <time>2024-03-20T17:50:48Z</time>
      </trkpt>
      <trkpt lat="49.20023" lon="0.00939">
        <ele>80.6</ele>
        <time>2024-03-20T17:50:49Z</time>
      </trkpt>
      <trkpt lat="49.20025" lon="0.00937">
        <ele>80.8</ele>
        <time>2024-03-20T17:50:50Z</time>
      </trkpt>
      <trkpt lat="49.20027" lon="0.00934">
        <ele>81</ele>
        <time>2024-03-20T17:50:51Z</time>
      </trkpt>
      <trkpt lat="49.20029" lon="0.00931">
        <ele>81.2</ele>
        <time>2024-03-20T17:50:52Z</time>
      </trkpt>
      <trkpt lat="49.20031" lon="0.00928">
        <ele>81.6</ele>
        <time>2024-03-20T17:50:53Z</time>
      </trkpt>
      <trkpt lat="49.20032" lon="0.00926">
        <ele>81.8</ele>
        <time>2024-03-20T17:50:54Z</time>
      </trkpt>
      <trkpt lat="49.20034" lon="0.00924">
        <ele>82</ele>
        <time>2024-03-20T17:50:55Z</time>
      </trkpt>
      <trkpt lat="49.20036" lon="0.00921">
        <ele>82.4</ele>
        <time>2024-03-20T17:50:56Z</time>
      </trkpt>
      <trkpt lat="49.20038" lon="0.00919">
        <ele>82.4</ele>
        <time>2024-03-20T17:50:57Z</time>
      </trkpt>
      <trkpt lat="49.20039" lon="0.00916">
        <ele>82.6</ele>
        <time>2024-03-20T17:50:58Z</time>
      </trkpt>
      <trkpt lat="49.20041" lon="0.00913">
        <ele>82.8</ele>
        <time>2024-03-20T17:50:59Z</time>
      </trkpt>
      <trkpt lat="49.20042" lon="0.0091">
        <ele>83</ele>
        <time>2024-03-20T17:51:00Z</time>
      </trkpt>
      <trkpt lat="49.20044" lon="0.00906">
        <ele>83.2</ele>
        <time>2024-03-20T17:51:01Z</time>
      </trkpt>
      <trkpt lat="49.20046" lon="0.00903">
        <ele>83.6</ele>
        <time>2024-03-20T17:51:02Z</time>
      </trkpt>
      <trkpt lat="49.20048" lon="0.009">
        <ele>83.8</ele>
        <time>2024-03-20T17:51:03Z</time>
      </trkpt>
      <trkpt lat="49.20049" lon="0.00898">
        <ele>84</ele>
        <time>2024-03-20T17:51:04Z</time>
      </trkpt>
      <trkpt lat="49.2005" lon="0.00895">
        <ele>84.4</ele>
        <time>2024-03-20T17:51:05Z</time>
      </trkpt>
      <trkpt lat="49.20052" lon="0.00892">
        <ele>84.6</ele>
        <time>2024-03-20T17:51:06Z</time>
      </trkpt>
      <trkpt lat="49.20053" lon="0.00889">
        <ele>84.8</ele>
        <time>2024-03-20T17:51:07Z</time>
      </trkpt>
      <trkpt lat="49.20055" lon="0.00886">
        <ele>85</ele>
        <time>2024-03-20T17:51:08Z</time>
      </trkpt>
      <trkpt lat="49.20056" lon="0.00882">
        <ele>85.2</ele>
        <time>2024-03-20T17:51:09Z</time>
      </trkpt>
      <trkpt lat="49.20058" lon="0.00879">
        <ele>85.4</ele>
        <time>2024-03-20T17:51:10Z</time>
      </trkpt>
      <trkpt lat="49.2006" lon="0.00875">
        <ele>85.6</ele>
        <time>2024-03-20T17:51:11Z</time>
      </trkpt>
      <trkpt lat="49.20062" lon="0.00872">
        <ele>85.8</ele>
        <time>2024-03-20T17:51:12Z</time>
      </trkpt>
      <trkpt lat="49.20064" lon="0.00869">
        <ele>86.2</ele>
        <time>2024-03-20T17:51:13Z</time>
      </trkpt>
      <trkpt lat="49.20066" lon="0.00866">
        <ele>86.4</ele>
        <time>2024-03-20T17:51:14Z</time>
      </trkpt>
      <trkpt lat="49.20068" lon="0.00864">
        <ele>86.6</ele>
        <time>2024-03-20T17:51:15Z</time>
      </trkpt>
      <trkpt lat="49.2007" lon="0.0086">
        <ele>87</ele>
        <time>2024-03-20T17:51:16Z</time>
      </trkpt>
      <trkpt lat="49.20072" lon="0.00857">
        <ele>87</ele>
        <time>2024-03-20T17:51:17Z</time>
      </trkpt>
      <trkpt lat="49.20074" lon="0.00854">
        <ele>87.2</ele>
        <time>2024-03-20T17:51:18Z</time>
      </trkpt>
      <trkpt lat="49.20076" lon="0.0085">
        <ele>87.4</ele>
        <time>2024-03-20T17:51:19Z</time>
      </trkpt>
      <trkpt lat="49.20078" lon="0.00847">
        <ele>87.6</ele>
        <time>2024-03-20T17:51:20Z</time>
      </trkpt>
      <trkpt lat="49.2008" lon="0.00844">
        <ele>87.6</ele>
        <time>2024-03-20T17:51:21Z</time>
      </trkpt>
      <trkpt lat="49.20081" lon="0.00841">
        <ele>87.8</ele>
        <time>2024-03-20T17:51:22Z</time>
      </trkpt>
      <trkpt lat="49.20083" lon="0.00837">
        <ele>88</ele>
        <time>2024-03-20T17:51:23Z</time>
      </trkpt>
      <trkpt lat="49.20085" lon="0.00834">
        <ele>88.2</ele>
        <time>2024-03-20T17:51:24Z</time>
      </trkpt>
      <trkpt lat="49.20087" lon="0.00831">
        <ele>88.4</ele>
        <time>2024-03-20T17:51:25Z</time>
      </trkpt>
      <trkpt lat="49.20089" lon="0.00828">
        <ele>88.6</ele>
        <time>2024-03-20T17:51:26Z</time>
      </trkpt>
      <trkpt lat="49.20091" lon="0.00826">
        <ele>88.8</ele>
        <time>2024-03-20T17:51:27Z</time>
      </trkpt>
      <trkpt lat="49.20093" lon="0.00823">
        <ele>89</ele>
        <time>2024-03-20T17:51:28Z</time>
      </trkpt>
      <trkpt lat="49.20095" lon="0.0082">
        <ele>89.2</ele>
        <time>2024-03-20T17:51:29Z</time>
      </trkpt>
      <trkpt lat="49.20096" lon="0.00818">
        <ele>89.4</ele>
        <time>2024-03-20T17:51:30Z</time>
      </trkpt>
      <trkpt lat="49.20098" lon="0.00816">
        <ele>89.8</ele>
        <time>2024-03-20T17:51:31Z</time>
      </trkpt>
      <trkpt lat="49.20101" lon="0.00813">
        <ele>90.2</ele>
        <time>2024-03-20T17:51:32Z</time>
      </trkpt>
      <trkpt lat="49.20102" lon="0.00811">
        <ele>90.4</ele>
        <time>2024-03-20T17:51:33Z</time>
      </trkpt>
      <trkpt lat="49.20105" lon="0.00809">
        <ele>90.6</ele>
        <time>2024-03-20T17:51:34Z</time>
      </trkpt>
      <trkpt lat="49.20107" lon="0.00807">
        <ele>90.8</ele>
        <time>2024-03-20T17:51:35Z</time>
      </trkpt>
      <trkpt lat="49.2011" lon="0.00804">
        <ele>91</ele>
        <time>2024-03-20T17:51:36Z</time>
      </trkpt>
      <trkpt lat="49.20112" lon="0.00802">
        <ele>91.2</ele>
        <time>2024-03-20T17:51:37Z</time>
      </trkpt>
      <trkpt lat="49.20114" lon="0.00799">
        <ele>91.4</ele>
        <time>2024-03-20T17:51:38Z</time>
      </trkpt>
      <trkpt lat="49.20116" lon="0.00797">
        <ele>91.6</ele>
        <time>2024-03-20T17:51:39Z</time>
      </trkpt>
      <trkpt lat="49.20119" lon="0.00794">
        <ele>91.8</ele>
        <time>2024-03-20T17:51:40Z</time>
      </trkpt>
      <trkpt lat="49.2012" lon="0.00792">
        <ele>92.2</ele>
        <time>2024-03-20T17:51:41Z</time>
      </trkpt>
      <trkpt lat="49.20122" lon="0.00791">
        <ele>92.4</ele>
        <time>2024-03-20T17:51:42Z</time>
      </trkpt>
      <trkpt lat="49.20125" lon="0.00789">
        <ele>92.6</ele>
        <time>2024-03-20T17:51:43Z</time>
      </trkpt>
      <trkpt lat="49.20128" lon="0.00787">
        <ele>93</ele>
        <time>2024-03-20T17:51:44Z</time>
      </trkpt>
      <trkpt lat="49.2013" lon="0.00785">
        <ele>93.2</ele>
        <time>2024-03-20T17:51:45Z</time>
      </trkpt>
      <trkpt lat="49.20132" lon="0.00783">
        <ele>93.4</ele>
        <time>2024-03-20T17:51:46Z</time>
      </trkpt>
      <trkpt lat="49.20135" lon="0.0078">
        <ele>93.8</ele>
        <time>2024-03-20T17:51:47Z</time>
      </trkpt>
      <trkpt lat="49.20137" lon="0.00778">
        <ele>93.8</ele>
        <time>2024-03-20T17:51:48Z</time>
      </trkpt>
      <trkpt lat="49.2014" lon="0.00775">
        <ele>94</ele>
        <time>2024-03-20T17:51:49Z</time>
      </trkpt>
      <trkpt lat="49.20142" lon="0.00773">
        <ele>94.2</ele>
        <time>2024-03-20T17:51:50Z</time>
      </trkpt>
      <trkpt lat="49.20144" lon="0.0077">
        <ele>94.4</ele>
        <time>2024-03-20T17:51:51Z</time>
      </trkpt>
      <trkpt lat="49.20146" lon="0.00768">
        <ele>94.6</ele>
        <time>2024-03-20T17:51:52Z</time>
      </trkpt>
      <trkpt lat="49.20148" lon="0.00765">
        <ele>94.6</ele>
        <time>2024-03-20T17:51:53Z</time>
      </trkpt>
      <trkpt lat="49.20151" lon="0.00763">
        <ele>94.6</ele>
        <time>2024-03-20T17:51:54Z</time>
      </trkpt>
      <trkpt lat="49.20153" lon="0.00761">
        <ele>94.8</ele>
        <time>2024-03-20T17:51:55Z</time>
      </trkpt>
      <trkpt lat="49.20155" lon="0.00759">
        <ele>95</ele>
        <time>2024-03-20T17:51:56Z</time>
      </trkpt>
      <trkpt lat="49.20158" lon="0.00757">
        <ele>95.2</ele>
        <time>2024-03-20T17:51:57Z</time>
      </trkpt>
      <trkpt lat="49.2016" lon="0.00754">
        <ele>95.4</ele>
        <time>2024-03-20T17:51:58Z</time>
      </trkpt>
      <trkpt lat="49.20162" lon="0.00751">
        <ele>95.4</ele>
        <time>2024-03-20T17:51:59Z</time>
      </trkpt>
      <trkpt lat="49.20164" lon="0.00748">
        <ele>95.8</ele>
        <time>2024-03-20T17:52:00Z</time>
      </trkpt>
      <trkpt lat="49.20167" lon="0.00746">
        <ele>95.8</ele>
        <time>2024-03-20T17:52:01Z</time>
      </trkpt>
      <trkpt lat="49.20169" lon="0.00744">
        <ele>96</ele>
        <time>2024-03-20T17:52:02Z</time>
      </trkpt>
      <trkpt lat="49.20171" lon="0.00742">
        <ele>96.2</ele>
        <time>2024-03-20T17:52:03Z</time>
      </trkpt>
      <trkpt lat="49.20174" lon="0.0074">
        <ele>96.4</ele>
        <time>2024-03-20T17:52:04Z</time>
      </trkpt>
      <trkpt lat="49.20177" lon="0.00738">
        <ele>96.4</ele>
        <time>2024-03-20T17:52:05Z</time>
      </trkpt>
      <trkpt lat="49.20179" lon="0.00735">
        <ele>96.6</ele>
        <time>2024-03-20T17:52:06Z</time>
      </trkpt>
      <trkpt lat="49.20181" lon="0.00732">
        <ele>96.8</ele>
        <time>2024-03-20T17:52:07Z</time>
      </trkpt>
      <trkpt lat="49.20184" lon="0.00729">
        <ele>96.8</ele>
        <time>2024-03-20T17:52:08Z</time>
      </trkpt>
      <trkpt lat="49.20186" lon="0.00726">
        <ele>97</ele>
        <time>2024-03-20T17:52:09Z</time>
      </trkpt>
      <trkpt lat="49.20188" lon="0.00724">
        <ele>97</ele>
        <time>2024-03-20T17:52:10Z</time>
      </trkpt>
      <trkpt lat="49.20192" lon="0.00721">
        <ele>97.4</ele>
        <time>2024-03-20T17:52:11Z</time>
      </trkpt>
      <trkpt lat="49.20194" lon="0.00718">
        <ele>97.6</ele>
        <time>2024-03-20T17:52:12Z</time>
      </trkpt>
      <trkpt lat="49.20197" lon="0.00716">
        <ele>97.8</ele>
        <time>2024-03-20T17:52:13Z</time>
      </trkpt>
      <trkpt lat="49.20199" lon="0.00713">
        <ele>98</ele>
        <time>2024-03-20T17:52:14Z</time>
      </trkpt>
      <trkpt lat="49.20201" lon="0.00711">
        <ele>98.2</ele>
        <time>2024-03-20T17:52:15Z</time>
      </trkpt>
      <trkpt lat="49.20203" lon="0.00708">
        <ele>98.6</ele>
        <time>2024-03-20T17:52:16Z</time>
      </trkpt>
      <trkpt lat="49.20206" lon="0.00706">
        <ele>99</ele>
        <time>2024-03-20T17:52:17Z</time>
      </trkpt>
      <trkpt lat="49.20208" lon="0.00704">
        <ele>99.4</ele>
        <time>2024-03-20T17:52:18Z</time>
      </trkpt>
      <trkpt lat="49.2021" lon="0.00702">
        <ele>99.6</ele>
        <time>2024-03-20T17:52:19Z</time>
      </trkpt>
      <trkpt lat="49.20212" lon="0.00699">
        <ele>99.8</ele>
        <time>2024-03-20T17:52:20Z</time>
      </trkpt>
      <trkpt lat="49.20214" lon="0.00696">
        <ele>100</ele>
        <time>2024-03-20T17:52:21Z</time>
      </trkpt>
      <trkpt lat="49.20216" lon="0.00694">
        <ele>100.2</ele>
        <time>2024-03-20T17:52:22Z</time>
      </trkpt>
      <trkpt lat="49.20218" lon="0.00692">
        <ele>100.2</ele>
        <time>2024-03-20T17:52:23Z</time>
      </trkpt>
      <trkpt lat="49.2022" lon="0.0069">
        <ele>100.4</ele>
        <time>2024-03-20T17:52:24Z</time>
      </trkpt>
      <trkpt lat="49.20222" lon="0.00688">
        <ele>100.6</ele>
        <time>2024-03-20T17:52:25Z</time>
      </trkpt>
      <trkpt lat="49.20224" lon="0.00685">
        <ele>100.6</ele>
        <time>2024-03-20T17:52:26Z</time>
      </trkpt>
      <trkpt lat="49.20226" lon="0.00683">
        <ele>101</ele>
        <time>2024-03-20T17:52:27Z</time>
      </trkpt>
      <trkpt lat="49.20228" lon="0.0068">
        <ele>101.4</ele>
        <time>2024-03-20T17:52:28Z</time>
      </trkpt>
      <trkpt lat="49.2023" lon="0.00678">
        <ele>101.8</ele>
        <time>2024-03-20T17:52:29Z</time>
      </trkpt>
      <trkpt lat="49.20232" lon="0.00675">
        <ele>102</ele>
        <time>2024-03-20T17:52:30Z</time>
      </trkpt>
      <trkpt lat="49.20234" lon="0.00672">
        <ele>102.2</ele>
        <time>2024-03-20T17:52:31Z</time>
      </trkpt>
      <trkpt lat="49.20236" lon="0.0067">
        <ele>102.6</ele>
        <time>2024-03-20T17:52:32Z</time>
      </trkpt>
      <trkpt lat="49.20239" lon="0.00667">
        <ele>102.8</ele>
        <time>2024-03-20T17:52:33Z</time>
      </trkpt>
      <trkpt lat="49.20241" lon="0.00665">
        <ele>103.2</ele>
        <time>2024-03-20T17:52:34Z</time>
      </trkpt>
      <trkpt lat="49.20243" lon="0.00663">
        <ele>103.4</ele>
        <time>2024-03-20T17:52:35Z</time>
      </trkpt>
      <trkpt lat="49.20245" lon="0.0066">
        <ele>103.6</ele>
        <time>2024-03-20T17:52:36Z</time>
      </trkpt>
      <trkpt lat="49.20247" lon="0.00657">
        <ele>103.8</ele>
        <time>2024-03-20T17:52:37Z</time>
      </trkpt>
      <trkpt lat="49.20249" lon="0.00654">
        <ele>104</ele>
        <time>2024-03-20T17:52:38Z</time>
      </trkpt>
      <trkpt lat="49.20251" lon="0.00652">
        <ele>104.4</ele>
        <time>2024-03-20T17:52:39Z</time>
      </trkpt>
      <trkpt lat="49.20253" lon="0.00649">
        <ele>104.6</ele>
        <time>2024-03-20T17:52:40Z</time>
      </trkpt>
      <trkpt lat="49.20254" lon="0.00646">
        <ele>104.8</ele>
        <time>2024-03-20T17:52:41Z</time>
      </trkpt>
      <trkpt lat="49.20256" lon="0.00643">
        <ele>104.8</ele>
        <time>2024-03-20T17:52:42Z</time>
      </trkpt>
      <trkpt lat="49.20258" lon="0.0064">
        <ele>105.2</ele>
        <time>2024-03-20T17:52:43Z</time>
      </trkpt>
      <trkpt lat="49.2026" lon="0.00638">
        <ele>105.6</ele>
        <time>2024-03-20T17:52:44Z</time>
      </trkpt>
      <trkpt lat="49.20262" lon="0.00635">
        <ele>105.8</ele>
        <time>2024-03-20T17:52:45Z</time>
      </trkpt>
      <trkpt lat="49.20264" lon="0.00633">
        <ele>106</ele>
        <time>2024-03-20T17:52:46Z</time>
      </trkpt>
      <trkpt lat="49.20265" lon="0.0063">
        <ele>106.2</ele>
        <time>2024-03-20T17:52:47Z</time>
      </trkpt>
      <trkpt lat="49.20267" lon="0.00627">
        <ele>106.4</ele>
        <time>2024-03-20T17:52:48Z</time>
      </trkpt>
      <trkpt lat="49.20268" lon="0.00625">
        <ele>106.6</ele>
        <time>2024-03-20T17:52:49Z</time>
      </trkpt>
      <trkpt lat="49.2027" lon="0.00622">
        <ele>107</ele>
        <time>2024-03-20T17:52:50Z</time>
      </trkpt>
      <trkpt lat="49.20272" lon="0.00619">
        <ele>107.2</ele>
        <time>2024-03-20T17:52:51Z</time>
      </trkpt>
      <trkpt lat="49.20274" lon="0.00617">
        <ele>107.4</ele>
        <time>2024-03-20T17:52:52Z</time>
      </trkpt>
      <trkpt lat="49.20276" lon="0.00614">
        <ele>107.6</ele>
        <time>2024-03-20T17:52:53Z</time>
      </trkpt>
      <trkpt lat="49.20277" lon="0.00611">
        <ele>107.8</ele>
        <time>2024-03-20T17:52:54Z</time>
      </trkpt>
      <trkpt lat="49.20279" lon="0.00609">
        <ele>108</ele>
        <time>2024-03-20T17:52:55Z</time>
      </trkpt>
      <trkpt lat="49.20281" lon="0.00607">
        <ele>108.4</ele>
        <time>2024-03-20T17:52:56Z</time>
      </trkpt>
      <trkpt lat="49.20282" lon="0.00605">
        <ele>108.8</ele>
        <time>2024-03-20T17:52:57Z</time>
      </trkpt>
      <trkpt lat="49.20284" lon="0.00602">
        <ele>109</ele>
        <time>2024-03-20T17:52:58Z</time>
      </trkpt>
      <trkpt lat="49.20286" lon="0.006">
        <ele>109.2</ele>
        <time>2024-03-20T17:52:59Z</time>
      </trkpt>
      <trkpt lat="49.20288" lon="0.00597">
        <ele>109.4</ele>
        <time>2024-03-20T17:53:00Z</time>
      </trkpt>
      <trkpt lat="49.20289" lon="0.00595">
        <ele>109.6</ele>
        <time>2024-03-20T17:53:01Z</time>
      </trkpt>
      <trkpt lat="49.20291" lon="0.00593">
        <ele>109.6</ele>
        <time>2024-03-20T17:53:02Z</time>
      </trkpt>
      <trkpt lat="49.20293" lon="0.0059">
        <ele>110</ele>
        <time>2024-03-20T17:53:03Z</time>
      </trkpt>
      <trkpt lat="49.20294" lon="0.00588">
        <ele>110.2</ele>
        <time>2024-03-20T17:53:04Z</time>
      </trkpt>
      <trkpt lat="49.20296" lon="0.00585">
        <ele>110.4</ele>
        <time>2024-03-20T17:53:05Z</time>
      </trkpt>
      <trkpt lat="49.20297" lon="0.00582">
        <ele>110.8</ele>
        <time>2024-03-20T17:53:06Z</time>
      </trkpt>
      <trkpt lat="49.20299" lon="0.0058">
        <ele>111.2</ele>
        <time>2024-03-20T17:53:07Z</time>
      </trkpt>
      <trkpt lat="49.203" lon="0.00577">
        <ele>111.4</ele>
        <time>2024-03-20T17:53:08Z</time>
      </trkpt>
      <trkpt lat="49.20302" lon="0.00575">
        <ele>111.6</ele>
        <time>2024-03-20T17:53:09Z</time>
      </trkpt>
      <trkpt lat="49.20304" lon="0.00573">
        <ele>112</ele>
        <time>2024-03-20T17:53:10Z</time>
      </trkpt>
      <trkpt lat="49.20306" lon="0.00571">
        <ele>112.2</ele>
        <time>2024-03-20T17:53:11Z</time>
      </trkpt>
      <trkpt lat="49.20308" lon="0.00569">
        <ele>112.4</ele>
        <time>2024-03-20T17:53:12Z</time>
      </trkpt>
      <trkpt lat="49.2031" lon="0.00567">
        <ele>112.6</ele>
        <time>2024-03-20T17:53:13Z</time>
      </trkpt>
      <trkpt lat="49.20312" lon="0.00565">
        <ele>113</ele>
        <time>2024-03-20T17:53:14Z</time>
      </trkpt>
      <trkpt lat="49.20314" lon="0.00563">
        <ele>113.2</ele>
        <time>2024-03-20T17:53:15Z</time>
      </trkpt>
      <trkpt lat="49.20316" lon="0.00561">
        <ele>113.4</ele>
        <time>2024-03-20T17:53:16Z</time>
      </trkpt>
      <trkpt lat="49.20318" lon="0.0056">
        <ele>113.6</ele>
        <time>2024-03-20T17:53:17Z</time>
      </trkpt>
      <trkpt lat="49.2032" lon="0.00558">
        <ele>113.8</ele>
        <time>2024-03-20T17:53:18Z</time>
      </trkpt>
      <trkpt lat="49.20322" lon="0.00556">
        <ele>114</ele>
        <time>2024-03-20T17:53:19Z</time>
      </trkpt>
      <trkpt lat="49.20324" lon="0.00554">
        <ele>114.4</ele>
        <time>2024-03-20T17:53:20Z</time>
      </trkpt>
      <trkpt lat="49.20326" lon="0.00552">
        <ele>114.6</ele>
        <time>2024-03-20T17:53:21Z</time>
      </trkpt>
      <trkpt lat="49.20328" lon="0.00551">
        <ele>114.8</ele>
        <time>2024-03-20T17:53:22Z</time>
      </trkpt>
      <trkpt lat="49.20331" lon="0.00549">
        <ele>115</ele>
        <time>2024-03-20T17:53:23Z</time>
      </trkpt>
      <trkpt lat="49.20333" lon="0.00548">
        <ele>115.4</ele>
        <time>2024-03-20T17:53:24Z</time>
      </trkpt>
      <trkpt lat="49.20335" lon="0.00546">
        <ele>115.6</ele>
        <time>2024-03-20T17:53:25Z</time>
      </trkpt>
      <trkpt lat="49.20337" lon="0.00544">
        <ele>115.8</ele>
        <time>2024-03-20T17:53:26Z</time>
      </trkpt>
      <trkpt lat="49.20339" lon="0.00543">
        <ele>116.2</ele>
        <time>2024-03-20T17:53:27Z</time>
      </trkpt>
      <trkpt lat="49.20342" lon="0.00542">
        <ele>116.4</ele>
        <time>2024-03-20T17:53:28Z</time>
      </trkpt>
      <trkpt lat="49.20345" lon="0.00541">
        <ele>116.6</ele>
        <time>2024-03-20T17:53:29Z</time>
      </trkpt>
      <trkpt lat="49.20347" lon="0.00539">
        <ele>116.8</ele>
        <time>2024-03-20T17:53:30Z</time>
      </trkpt>
      <trkpt lat="49.2035" lon="0.00537">
        <ele>117.2</ele>
        <time>2024-03-20T17:53:31Z</time>
      </trkpt>
      <trkpt lat="49.20353" lon="0.00536">
        <ele>117.4</ele>
        <time>2024-03-20T17:53:32Z</time>
      </trkpt>
      <trkpt lat="49.20356" lon="0.00534">
        <ele>117.6</ele>
        <time>2024-03-20T17:53:33Z</time>
      </trkpt>
      <trkpt lat="49.2036" lon="0.00532">
        <ele>117.8</ele>
        <time>2024-03-20T17:53:34Z</time>
      </trkpt>
      <trkpt lat="49.20362" lon="0.00531">
        <ele>118</ele>
        <time>2024-03-20T17:53:35Z</time>
      </trkpt>
      <trkpt lat="49.20365" lon="0.00529">
        <ele>118.4</ele>
        <time>2024-03-20T17:53:36Z</time>
      </trkpt>
      <trkpt lat="49.20369" lon="0.00527">
        <ele>118.8</ele>
        <time>2024-03-20T17:53:37Z</time>
      </trkpt>
      <trkpt lat="49.20374" lon="0.00526">
        <ele>119</ele>
        <time>2024-03-20T17:53:38Z</time>
      </trkpt>
      <trkpt lat="49.20377" lon="0.00524">
        <ele>119.2</ele>
        <time>2024-03-20T17:53:39Z</time>
      </trkpt>
      <trkpt lat="49.2038" lon="0.00522">
        <ele>119.4</ele>
        <time>2024-03-20T17:53:40Z</time>
      </trkpt>
      <trkpt lat="49.20385" lon="0.00519">
        <ele>119.6</ele>
        <time>2024-03-20T17:53:41Z</time>
      </trkpt>
      <trkpt lat="49.20389" lon="0.00517">
        <ele>119.8</ele>
        <time>2024-03-20T17:53:42Z</time>
      </trkpt>
      <trkpt lat="49.20392" lon="0.00515">
        <ele>119.8</ele>
        <time>2024-03-20T17:53:43Z</time>
      </trkpt>
      <trkpt lat="49.20397" lon="0.00514">
        <ele>120</ele>
        <time>2024-03-20T17:53:44Z</time>
      </trkpt>
      <trkpt lat="49.204" lon="0.00512">
        <ele>120</ele>
        <time>2024-03-20T17:53:45Z</time>
      </trkpt>
      <trkpt lat="49.20404" lon="0.0051">
        <ele>120.2</ele>
        <time>2024-03-20T17:53:46Z</time>
      </trkpt>
      <trkpt lat="49.20408" lon="0.00508">
        <ele>120.2</ele>
        <time>2024-03-20T17:53:47Z</time>
      </trkpt>
      <trkpt lat="49.20412" lon="0.00506">
        <ele>120.2</ele>
        <time>2024-03-20T17:53:48Z</time>
      </trkpt>
      <trkpt lat="49.20416" lon="0.00504">
        <ele>120.4</ele>
        <time>2024-03-20T17:53:49Z</time>
      </trkpt>
      <trkpt lat="49.20421" lon="0.00502">
        <ele>120.4</ele>
        <time>2024-03-20T17:53:50Z</time>
      </trkpt>
      <trkpt lat="49.20425" lon="0.00499">
        <ele>120.4</ele>
        <time>2024-03-20T17:53:51Z</time>
      </trkpt>
      <trkpt lat="49.20428" lon="0.00497">
        <ele>120.6</ele>
        <time>2024-03-20T17:53:52Z</time>
      </trkpt>
      <trkpt lat="49.20432" lon="0.00494">
        <ele>120.6</ele>
        <time>2024-03-20T17:53:53Z</time>
      </trkpt>
      <trkpt lat="49.20437" lon="0.0049">
        <ele>120.6</ele>
        <time>2024-03-20T17:53:54Z</time>
      </trkpt>
      <trkpt lat="49.20441" lon="0.00487">
        <ele>120.8</ele>
        <time>2024-03-20T17:53:55Z</time>
      </trkpt>
      <trkpt lat="49.20444" lon="0.00483">
        <ele>120.8</ele>
        <time>2024-03-20T17:53:56Z</time>
      </trkpt>
      <trkpt lat="49.20448" lon="0.0048">
        <ele>120.8</ele>
        <time>2024-03-20T17:53:57Z</time>
      </trkpt>
      <trkpt lat="49.20451" lon="0.00476">
        <ele>121</ele>
        <time>2024-03-20T17:53:58Z</time>
      </trkpt>
      <trkpt lat="49.20454" lon="0.00473">
        <ele>121.2</ele>
        <time>2024-03-20T17:53:59Z</time>
      </trkpt>
      <trkpt lat="49.20458" lon="0.00469">
        <ele>121.2</ele>
        <time>2024-03-20T17:54:00Z</time>
      </trkpt>
      <trkpt lat="49.20462" lon="0.00466">
        <ele>121.2</ele>
        <time>2024-03-20T17:54:01Z</time>
      </trkpt>
      <trkpt lat="49.20465" lon="0.00463">
        <ele>121.2</ele>
        <time>2024-03-20T17:54:02Z</time>
      </trkpt>
      <trkpt lat="49.20469" lon="0.00458">
        <ele>121.2</ele>
        <time>2024-03-20T17:54:03Z</time>
      </trkpt>
      <trkpt lat="49.20472" lon="0.00455">
        <ele>121.2</ele>
        <time>2024-03-20T17:54:04Z</time>
      </trkpt>
      <trkpt lat="49.20475" lon="0.00452">
        <ele>121.4</ele>
        <time>2024-03-20T17:54:05Z</time>
      </trkpt>
      <trkpt lat="49.20478" lon="0.00448">
        <ele>121.4</ele>
        <time>2024-03-20T17:54:06Z</time>
      </trkpt>
      <trkpt lat="49.20481" lon="0.00444">
        <ele>121.4</ele>
        <time>2024-03-20T17:54:07Z</time>
      </trkpt>
      <trkpt lat="49.20484" lon="0.00441">
        <ele>121.4</ele>
        <time>2024-03-20T17:54:08Z</time>
      </trkpt>
      <trkpt lat="49.20488" lon="0.00437">
        <ele>121.6</ele>
        <time>2024-03-20T17:54:09Z</time>
      </trkpt>
      <trkpt lat="49.20491" lon="0.00434">
        <ele>121.8</ele>
        <time>2024-03-20T17:54:10Z</time>
      </trkpt>
      <trkpt lat="49.20495" lon="0.0043">
        <ele>121.8</ele>
        <time>2024-03-20T17:54:11Z</time>
      </trkpt>
      <trkpt lat="49.20498" lon="0.00427">
        <ele>122</ele>
        <time>2024-03-20T17:54:12Z</time>
      </trkpt>
      <trkpt lat="49.20502" lon="0.00422">
        <ele>122</ele>
        <time>2024-03-20T17:54:13Z</time>
      </trkpt>
      <trkpt lat="49.20507" lon="0.00417">
        <ele>122</ele>
        <time>2024-03-20T17:54:14Z</time>
      </trkpt>
      <trkpt lat="49.2051" lon="0.00415">
        <ele>122.2</ele>
        <time>2024-03-20T17:54:15Z</time>
      </trkpt>
      <trkpt lat="49.20514" lon="0.00411">
        <ele>122.4</ele>
        <time>2024-03-20T17:54:16Z</time>
      </trkpt>
      <trkpt lat="49.20518" lon="0.00407">
        <ele>122.2</ele>
        <time>2024-03-20T17:54:17Z</time>
      </trkpt>
      <trkpt lat="49.20523" lon="0.00402">
        <ele>122.6</ele>
        <time>2024-03-20T17:54:18Z</time>
      </trkpt>
      <trkpt lat="49.20527" lon="0.00399">
        <ele>122.6</ele>
        <time>2024-03-20T17:54:19Z</time>
      </trkpt>
      <trkpt lat="49.20532" lon="0.00395">
        <ele>122.6</ele>
        <time>2024-03-20T17:54:20Z</time>
      </trkpt>
      <trkpt lat="49.20536" lon="0.00393">
        <ele>122.6</ele>
        <time>2024-03-20T17:54:21Z</time>
      </trkpt>
      <trkpt lat="49.2054" lon="0.00391">
        <ele>122.6</ele>
        <time>2024-03-20T17:54:22Z</time>
      </trkpt>
      <trkpt lat="49.20544" lon="0.00388">
        <ele>122.6</ele>
        <time>2024-03-20T17:54:23Z</time>
      </trkpt>
      <trkpt lat="49.20549" lon="0.00385">
        <ele>122.8</ele>
        <time>2024-03-20T17:54:24Z</time>
      </trkpt>
      <trkpt lat="49.20555" lon="0.00382">
        <ele>122.8</ele>
        <time>2024-03-20T17:54:25Z</time>
      </trkpt>
      <trkpt lat="49.20559" lon="0.0038">
        <ele>122.8</ele>
        <time>2024-03-20T17:54:26Z</time>
      </trkpt>
      <trkpt lat="49.20564" lon="0.00378">
        <ele>122.8</ele>
        <time>2024-03-20T17:54:27Z</time>
      </trkpt>
      <trkpt lat="49.20569" lon="0.00375">
        <ele>123</ele>
        <time>2024-03-20T17:54:28Z</time>
      </trkpt>
      <trkpt lat="49.20573" lon="0.00373">
        <ele>123</ele>
        <time>2024-03-20T17:54:29Z</time>
      </trkpt>
      <trkpt lat="49.20579" lon="0.0037">
        <ele>123</ele>
        <time>2024-03-20T17:54:30Z</time>
      </trkpt>
      <trkpt lat="49.20584" lon="0.00367">
        <ele>123.2</ele>
        <time>2024-03-20T17:54:31Z</time>
      </trkpt>
      <trkpt lat="49.20589" lon="0.00364">
        <ele>123.2</ele>
        <time>2024-03-20T17:54:32Z</time>
      </trkpt>
      <trkpt lat="49.20593" lon="0.00361">
        <ele>123.2</ele>
        <time>2024-03-20T17:54:33Z</time>
      </trkpt>
      <trkpt lat="49.20598" lon="0.00358">
        <ele>123.2</ele>
        <time>2024-03-20T17:54:34Z</time>
      </trkpt>
      <trkpt lat="49.20602" lon="0.00355">
        <ele>123.2</ele>
        <time>2024-03-20T17:54:35Z</time>
      </trkpt>
      <trkpt lat="49.20607" lon="0.00351">
        <ele>123.2</ele>
        <time>2024-03-20T17:54:36Z</time>
      </trkpt>
      <trkpt lat="49.20611" lon="0.00348">
        <ele>123.2</ele>
        <time>2024-03-20T17:54:37Z</time>
      </trkpt>
      <trkpt lat="49.20615" lon="0.00345">
        <ele>123.2</ele>
        <time>2024-03-20T17:54:38Z</time>
      </trkpt>
      <trkpt lat="49.2062" lon="0.0034">
        <ele>123.4</ele>
        <time>2024-03-20T17:54:39Z</time>
      </trkpt>
      <trkpt lat="49.20625" lon="0.00336">
        <ele>123.4</ele>
        <time>2024-03-20T17:54:40Z</time>
      </trkpt>
      <trkpt lat="49.20629" lon="0.00332">
        <ele>123.4</ele>
        <time>2024-03-20T17:54:41Z</time>
      </trkpt>
      <trkpt lat="49.20634" lon="0.00327">
        <ele>123.4</ele>
        <time>2024-03-20T17:54:42Z</time>
      </trkpt>
      <trkpt lat="49.20638" lon="0.00322">
        <ele>123.6</ele>
        <time>2024-03-20T17:54:43Z</time>
      </trkpt>
      <trkpt lat="49.20643" lon="0.00317">
        <ele>123.6</ele>
        <time>2024-03-20T17:54:44Z</time>
      </trkpt>
      <trkpt lat="49.20647" lon="0.00312">
        <ele>123.6</ele>
        <time>2024-03-20T17:54:45Z</time>
      </trkpt>
      <trkpt lat="49.2065" lon="0.00307">
        <ele>123.6</ele>
        <time>2024-03-20T17:54:46Z</time>
      </trkpt>
      <trkpt lat="49.20654" lon="0.003">
        <ele>123.6</ele>
        <time>2024-03-20T17:54:47Z</time>
      </trkpt>
      <trkpt lat="49.20657" lon="0.00296">
        <ele>123.8</ele>
        <time>2024-03-20T17:54:48Z</time>
      </trkpt>
      <trkpt lat="49.20661" lon="0.00291">
        <ele>123.8</ele>
        <time>2024-03-20T17:54:49Z</time>
      </trkpt>
      <trkpt lat="49.20666" lon="0.00285">
        <ele>124</ele>
        <time>2024-03-20T17:54:50Z</time>
      </trkpt>
      <trkpt lat="49.20671" lon="0.0028">
        <ele>124</ele>
        <time>2024-03-20T17:54:51Z</time>
      </trkpt>
      <trkpt lat="49.20674" lon="0.00275">
        <ele>124</ele>
        <time>2024-03-20T17:54:52Z</time>
      </trkpt>
      <trkpt lat="49.20679" lon="0.0027">
        <ele>124</ele>
        <time>2024-03-20T17:54:53Z</time>
      </trkpt>
      <trkpt lat="49.20683" lon="0.00265">
        <ele>124</ele>
        <time>2024-03-20T17:54:54Z</time>
      </trkpt>
      <trkpt lat="49.20687" lon="0.0026">
        <ele>124.2</ele>
        <time>2024-03-20T17:54:55Z</time>
      </trkpt>
      <trkpt lat="49.20692" lon="0.00254">
        <ele>124.2</ele>
        <time>2024-03-20T17:54:56Z</time>
      </trkpt>
      <trkpt lat="49.20696" lon="0.00249">
        <ele>124.4</ele>
        <time>2024-03-20T17:54:57Z</time>
      </trkpt>
      <trkpt lat="49.20701" lon="0.00244">
        <ele>124.4</ele>
        <time>2024-03-20T17:54:58Z</time>
      </trkpt>
      <trkpt lat="49.20705" lon="0.00239">
        <ele>124.6</ele>
        <time>2024-03-20T17:54:59Z</time>
      </trkpt>
      <trkpt lat="49.20709" lon="0.00235">
        <ele>124.8</ele>
        <time>2024-03-20T17:55:00Z</time>
      </trkpt>
      <trkpt lat="49.20713" lon="0.0023">
        <ele>124.8</ele>
        <time>2024-03-20T17:55:01Z</time>
      </trkpt>
      <trkpt lat="49.20716" lon="0.00225">
        <ele>125</ele>
        <time>2024-03-20T17:55:02Z</time>
      </trkpt>
      <trkpt lat="49.20719" lon="0.00221">
        <ele>125</ele>
        <time>2024-03-20T17:55:03Z</time>
      </trkpt>
      <trkpt lat="49.20723" lon="0.00217">
        <ele>125</ele>
        <time>2024-03-20T17:55:04Z</time>
      </trkpt>
      <trkpt lat="49.20726" lon="0.00213">
        <ele>125.2</ele>
        <time>2024-03-20T17:55:05Z</time>
      </trkpt>
      <trkpt lat="49.20728" lon="0.0021">
        <ele>125.2</ele>
        <time>2024-03-20T17:55:06Z</time>
      </trkpt>
      <trkpt lat="49.2073" lon="0.00208">
        <ele>125.2</ele>
        <time>2024-03-20T17:55:07Z</time>
      </trkpt>
      <trkpt lat="49.20732" lon="0.00206">
        <ele>125.2</ele>
        <time>2024-03-20T17:55:08Z</time>
      </trkpt>
      <trkpt lat="49.20732" lon="0.00206">
        <ele>125.2</ele>
        <time>2024-03-20T17:55:09Z</time>
      </trkpt>
      <trkpt lat="49.20732" lon="0.00206">
        <ele>125.2</ele>
        <time>2024-03-20T17:55:10Z</time>
      </trkpt>
      <trkpt lat="49.20733" lon="0.00199">
        <ele>126.2</ele>
        <time>2024-03-20T17:56:38Z</time>
      </trkpt>
      <trkpt lat="49.20733" lon="0.00196">
        <ele>126.2</ele>
        <time>2024-03-20T17:56:39Z</time>
      </trkpt>
      <trkpt lat="49.20732" lon="0.00193">
        <ele>126.2</ele>
        <time>2024-03-20T17:56:40Z</time>
      </trkpt>
      <trkpt lat="49.20731" lon="0.00189">
        <ele>126.2</ele>
        <time>2024-03-20T17:56:41Z</time>
      </trkpt>
      <trkpt lat="49.2073" lon="0.00186">
        <ele>126.2</ele>
        <time>2024-03-20T17:56:42Z</time>
      </trkpt>
      <trkpt lat="49.20728" lon="0.00181">
        <ele>126.2</ele>
        <time>2024-03-20T17:56:43Z</time>
      </trkpt>
      <trkpt lat="49.20727" lon="0.00177">
        <ele>126.2</ele>
        <time>2024-03-20T17:56:44Z</time>
      </trkpt>
      <trkpt lat="49.20725" lon="0.00171">
        <ele>126.2</ele>
        <time>2024-03-20T17:56:45Z</time>
      </trkpt>
      <trkpt lat="49.20722" lon="0.00165">
        <ele>126.2</ele>
        <time>2024-03-20T17:56:46Z</time>
      </trkpt>
      <trkpt lat="49.2072" lon="0.00159">
        <ele>126.2</ele>
        <time>2024-03-20T17:56:47Z</time>
      </trkpt>
      <trkpt lat="49.20718" lon="0.00153">
        <ele>126.2</ele>
        <time>2024-03-20T17:56:48Z</time>
      </trkpt>
      <trkpt lat="49.20716" lon="0.00146">
        <ele>126.2</ele>
        <time>2024-03-20T17:56:49Z</time>
      </trkpt>
      <trkpt lat="49.20714" lon="0.00139">
        <ele>126.4</ele>
        <time>2024-03-20T17:56:50Z</time>
      </trkpt>
      <trkpt lat="49.20711" lon="0.00133">
        <ele>126.4</ele>
        <time>2024-03-20T17:56:51Z</time>
      </trkpt>
      <trkpt lat="49.20709" lon="0.00127">
        <ele>126.4</ele>
        <time>2024-03-20T17:56:52Z</time>
      </trkpt>
      <trkpt lat="49.20707" lon="0.00121">
        <ele>126.4</ele>
        <time>2024-03-20T17:56:53Z</time>
      </trkpt>
      <trkpt lat="49.20705" lon="0.00115">
        <ele>126.4</ele>
        <time>2024-03-20T17:56:54Z</time>
      </trkpt>
      <trkpt lat="49.20702" lon="0.00109">
        <ele>126.4</ele>
        <time>2024-03-20T17:56:55Z</time>
      </trkpt>
      <trkpt lat="49.20699" lon="0.00101">
        <ele>126.6</ele>
        <time>2024-03-20T17:56:56Z</time>
      </trkpt>
      <trkpt lat="49.20697" lon="0.00094">
        <ele>126.6</ele>
        <time>2024-03-20T17:56:57Z</time>
      </trkpt>
      <trkpt lat="49.20694" lon="0.00088">
        <ele>126.8</ele>
        <time>2024-03-20T17:56:58Z</time>
      </trkpt>
      <trkpt lat="49.20692" lon="0.00081">
        <ele>127</ele>
        <time>2024-03-20T17:56:59Z</time>
      </trkpt>
      <trkpt lat="49.20689" lon="0.00073">
        <ele>127</ele>
        <time>2024-03-20T17:57:00Z</time>
      </trkpt>
      <trkpt lat="49.20687" lon="0.00066">
        <ele>127.2</ele>
        <time>2024-03-20T17:57:01Z</time>
      </trkpt>
      <trkpt lat="49.20684" lon="0.00058">
        <ele>127.2</ele>
        <time>2024-03-20T17:57:02Z</time>
      </trkpt>
      <trkpt lat="49.20681" lon="0.00051">
        <ele>127.2</ele>
        <time>2024-03-20T17:57:03Z</time>
      </trkpt>
      <trkpt lat="49.20678" lon="0.00043">
        <ele>127.2</ele>
        <time>2024-03-20T17:57:04Z</time>
      </trkpt>
      <trkpt lat="49.20676" lon="0.00035">
        <ele>127.2</ele>
        <time>2024-03-20T17:57:05Z</time>
      </trkpt>
      <trkpt lat="49.20673" lon="0.00027">
        <ele>127.2</ele>
        <time>2024-03-20T17:57:06Z</time>
      </trkpt>
      <trkpt lat="49.2067" lon="0.00019">
        <ele>127.2</ele>
        <time>2024-03-20T17:57:07Z</time>
      </trkpt>
      <trkpt lat="49.20668" lon="0.00011">
        <ele>127.2</ele>
        <time>2024-03-20T17:57:08Z</time>
      </trkpt>
      <trkpt lat="49.20666" lon="2.0E-5">
        <ele>127.2</ele>
        <time>2024-03-20T17:57:09Z</time>
      </trkpt>
      <trkpt lat="49.20665" lon="-8.0E-5">
        <ele>127.2</ele>
        <time>2024-03-20T17:57:10Z</time>
      </trkpt>
      <trkpt lat="49.20665" lon="-0.00018">
        <ele>127.2</ele>
        <time>2024-03-20T17:57:11Z</time>
      </trkpt>
      <trkpt lat="49.20666" lon="-0.00029">
        <ele>127.2</ele>
        <time>2024-03-20T17:57:12Z</time>
      </trkpt>
      <trkpt lat="49.20668" lon="-0.00039">
        <ele>127.2</ele>
        <time>2024-03-20T17:57:13Z</time>
      </trkpt>
      <trkpt lat="49.2067" lon="-0.00047">
        <ele>127.2</ele>
        <time>2024-03-20T17:57:14Z</time>
      </trkpt>
      <trkpt lat="49.20674" lon="-0.00057">
        <ele>127</ele>
        <time>2024-03-20T17:57:15Z</time>
      </trkpt>
      <trkpt lat="49.2068" lon="-0.00068">
        <ele>126.8</ele>
        <time>2024-03-20T17:57:16Z</time>
      </trkpt>
      <trkpt lat="49.20685" lon="-0.00077">
        <ele>126.6</ele>
        <time>2024-03-20T17:57:17Z</time>
      </trkpt>
      <trkpt lat="49.20691" lon="-0.00085">
        <ele>126.2</ele>
        <time>2024-03-20T17:57:18Z</time>
      </trkpt>
      <trkpt lat="49.20697" lon="-0.00094">
        <ele>125.8</ele>
        <time>2024-03-20T17:57:19Z</time>
      </trkpt>
      <trkpt lat="49.20702" lon="-0.001">
        <ele>125.6</ele>
        <time>2024-03-20T17:57:20Z</time>
      </trkpt>
      <trkpt lat="49.20708" lon="-0.00109">
        <ele>125.4</ele>
        <time>2024-03-20T17:57:21Z</time>
      </trkpt>
      <trkpt lat="49.20715" lon="-0.00117">
        <ele>125</ele>
        <time>2024-03-20T17:57:22Z</time>
      </trkpt>
      <trkpt lat="49.2072" lon="-0.00127">
        <ele>124.6</ele>
        <time>2024-03-20T17:57:23Z</time>
      </trkpt>
      <trkpt lat="49.20726" lon="-0.00139">
        <ele>124.2</ele>
        <time>2024-03-20T17:57:24Z</time>
      </trkpt>
      <trkpt lat="49.20731" lon="-0.00151">
        <ele>123.6</ele>
        <time>2024-03-20T17:57:25Z</time>
      </trkpt>
      <trkpt lat="49.20734" lon="-0.00164">
        <ele>123.2</ele>
        <time>2024-03-20T17:57:26Z</time>
      </trkpt>
      <trkpt lat="49.20736" lon="-0.00176">
        <ele>122.6</ele>
        <time>2024-03-20T17:57:27Z</time>
      </trkpt>
      <trkpt lat="49.20737" lon="-0.0019">
        <ele>122.4</ele>
        <time>2024-03-20T17:57:28Z</time>
      </trkpt>
      <trkpt lat="49.20736" lon="-0.00204">
        <ele>122</ele>
        <time>2024-03-20T17:57:29Z</time>
      </trkpt>
      <trkpt lat="49.20735" lon="-0.00218">
        <ele>121.6</ele>
        <time>2024-03-20T17:57:30Z</time>
      </trkpt>
      <trkpt lat="49.20733" lon="-0.00231">
        <ele>121.4</ele>
        <time>2024-03-20T17:57:31Z</time>
      </trkpt>
      <trkpt lat="49.2073" lon="-0.00244">
        <ele>121.2</ele>
        <time>2024-03-20T17:57:32Z</time>
      </trkpt>
      <trkpt lat="49.20727" lon="-0.00256">
        <ele>121</ele>
        <time>2024-03-20T17:57:33Z</time>
      </trkpt>
      <trkpt lat="49.20725" lon="-0.00269">
        <ele>121</ele>
        <time>2024-03-20T17:57:34Z</time>
      </trkpt>
      <trkpt lat="49.20722" lon="-0.00281">
        <ele>121</ele>
        <time>2024-03-20T17:57:35Z</time>
      </trkpt>
      <trkpt lat="49.20719" lon="-0.00292">
        <ele>121</ele>
        <time>2024-03-20T17:57:36Z</time>
      </trkpt>
      <trkpt lat="49.20717" lon="-0.00303">
        <ele>121</ele>
        <time>2024-03-20T17:57:37Z</time>
      </trkpt>
      <trkpt lat="49.20715" lon="-0.00314">
        <ele>121</ele>
        <time>2024-03-20T17:57:38Z</time>
      </trkpt>
      <trkpt lat="49.20713" lon="-0.00324">
        <ele>121</ele>
        <time>2024-03-20T17:57:39Z</time>
      </trkpt>
      <trkpt lat="49.20712" lon="-0.00334">
        <ele>121</ele>
        <time>2024-03-20T17:57:40Z</time>
      </trkpt>
      <trkpt lat="49.20711" lon="-0.00344">
        <ele>121</ele>
        <time>2024-03-20T17:57:41Z</time>
      </trkpt>
      <trkpt lat="49.2071" lon="-0.00353">
        <ele>121</ele>
        <time>2024-03-20T17:57:42Z</time>
      </trkpt>
      <trkpt lat="49.20708" lon="-0.00363">
        <ele>121</ele>
        <time>2024-03-20T17:57:43Z</time>
      </trkpt>
      <trkpt lat="49.20707" lon="-0.00372">
        <ele>121</ele>
        <time>2024-03-20T17:57:44Z</time>
      </trkpt>
      <trkpt lat="49.20706" lon="-0.00382">
        <ele>121.2</ele>
        <time>2024-03-20T17:57:45Z</time>
      </trkpt>
      <trkpt lat="49.20706" lon="-0.00391">
        <ele>121.2</ele>
        <time>2024-03-20T17:57:46Z</time>
      </trkpt>
      <trkpt lat="49.20704" lon="-0.00401">
        <ele>121.2</ele>
        <time>2024-03-20T17:57:47Z</time>
      </trkpt>
      <trkpt lat="49.20703" lon="-0.00411">
        <ele>121.2</ele>
        <time>2024-03-20T17:57:48Z</time>
      </trkpt>
      <trkpt lat="49.20702" lon="-0.0042">
        <ele>121.2</ele>
        <time>2024-03-20T17:57:49Z</time>
      </trkpt>
      <trkpt lat="49.20701" lon="-0.0043">
        <ele>121.4</ele>
        <time>2024-03-20T17:57:50Z</time>
      </trkpt>
      <trkpt lat="49.207" lon="-0.00441">
        <ele>121.4</ele>
        <time>2024-03-20T17:57:51Z</time>
      </trkpt>
      <trkpt lat="49.20698" lon="-0.00451">
        <ele>121.6</ele>
        <time>2024-03-20T17:57:52Z</time>
      </trkpt>
      <trkpt lat="49.20696" lon="-0.00462">
        <ele>121.6</ele>
        <time>2024-03-20T17:57:53Z</time>
      </trkpt>
      <trkpt lat="49.20694" lon="-0.0047">
        <ele>121.6</ele>
        <time>2024-03-20T17:57:54Z</time>
      </trkpt>
      <trkpt lat="49.20691" lon="-0.00483">
        <ele>121.6</ele>
        <time>2024-03-20T17:57:55Z</time>
      </trkpt>
      <trkpt lat="49.20688" lon="-0.00493">
        <ele>121.8</ele>
        <time>2024-03-20T17:57:56Z</time>
      </trkpt>
      <trkpt lat="49.20685" lon="-0.00503">
        <ele>121.8</ele>
        <time>2024-03-20T17:57:57Z</time>
      </trkpt>
      <trkpt lat="49.20682" lon="-0.00513">
        <ele>121.8</ele>
        <time>2024-03-20T17:57:58Z</time>
      </trkpt>
      <trkpt lat="49.20679" lon="-0.00522">
        <ele>121.8</ele>
        <time>2024-03-20T17:57:59Z</time>
      </trkpt>
      <trkpt lat="49.20676" lon="-0.00532">
        <ele>121.8</ele>
        <time>2024-03-20T17:58:00Z</time>
      </trkpt>
      <trkpt lat="49.20673" lon="-0.00542">
        <ele>121.8</ele>
        <time>2024-03-20T17:58:01Z</time>
      </trkpt>
      <trkpt lat="49.2067" lon="-0.00552">
        <ele>121.8</ele>
        <time>2024-03-20T17:58:02Z</time>
      </trkpt>
      <trkpt lat="49.20666" lon="-0.00562">
        <ele>121.8</ele>
        <time>2024-03-20T17:58:03Z</time>
      </trkpt>
      <trkpt lat="49.20664" lon="-0.0057">
        <ele>122</ele>
        <time>2024-03-20T17:58:04Z</time>
      </trkpt>
      <trkpt lat="49.2066" lon="-0.00582">
        <ele>122</ele>
        <time>2024-03-20T17:58:05Z</time>
      </trkpt>
      <trkpt lat="49.20657" lon="-0.00592">
        <ele>122</ele>
        <time>2024-03-20T17:58:06Z</time>
      </trkpt>
      <trkpt lat="49.20655" lon="-0.00601">
        <ele>122</ele>
        <time>2024-03-20T17:58:07Z</time>
      </trkpt>
      <trkpt lat="49.20652" lon="-0.00611">
        <ele>122</ele>
        <time>2024-03-20T17:58:08Z</time>
      </trkpt>
      <trkpt lat="49.20649" lon="-0.0062">
        <ele>122</ele>
        <time>2024-03-20T17:58:09Z</time>
      </trkpt>
      <trkpt lat="49.20646" lon="-0.0063">
        <ele>122</ele>
        <time>2024-03-20T17:58:10Z</time>
      </trkpt>
      <trkpt lat="49.20644" lon="-0.00639">
        <ele>122</ele>
        <time>2024-03-20T17:58:11Z</time>
      </trkpt>
      <trkpt lat="49.20641" lon="-0.00649">
        <ele>122</ele>
        <time>2024-03-20T17:58:12Z</time>
      </trkpt>
      <trkpt lat="49.20638" lon="-0.00659">
        <ele>121.8</ele>
        <time>2024-03-20T17:58:13Z</time>
      </trkpt>
      <trkpt lat="49.20635" lon="-0.00667">
        <ele>122</ele>
        <time>2024-03-20T17:58:14Z</time>
      </trkpt>
      <trkpt lat="49.20633" lon="-0.00676">
        <ele>122</ele>
        <time>2024-03-20T17:58:15Z</time>
      </trkpt>
      <trkpt lat="49.20629" lon="-0.00688">
        <ele>122</ele>
        <time>2024-03-20T17:58:16Z</time>
      </trkpt>
      <trkpt lat="49.20627" lon="-0.00697">
        <ele>122</ele>
        <time>2024-03-20T17:58:17Z</time>
      </trkpt>
      <trkpt lat="49.20625" lon="-0.00706">
        <ele>122</ele>
        <time>2024-03-20T17:58:18Z</time>
      </trkpt>
      <trkpt lat="49.20623" lon="-0.00716">
        <ele>122</ele>
        <time>2024-03-20T17:58:19Z</time>
      </trkpt>
      <trkpt lat="49.20621" lon="-0.00725">
        <ele>122</ele>
        <time>2024-03-20T17:58:20Z</time>
      </trkpt>
      <trkpt lat="49.20619" lon="-0.00734">
        <ele>122</ele>
        <time>2024-03-20T17:58:21Z</time>
      </trkpt>
      <trkpt lat="49.20618" lon="-0.00741">
        <ele>122</ele>
        <time>2024-03-20T17:58:22Z</time>
      </trkpt>
      <trkpt lat="49.20616" lon="-0.00751">
        <ele>122</ele>
        <time>2024-03-20T17:58:23Z</time>
      </trkpt>
      <trkpt lat="49.20614" lon="-0.00761">
        <ele>122.2</ele>
        <time>2024-03-20T17:58:24Z</time>
      </trkpt>
      <trkpt lat="49.20613" lon="-0.0077">
        <ele>122.2</ele>
        <time>2024-03-20T17:58:25Z</time>
      </trkpt>
      <trkpt lat="49.20611" lon="-0.00779">
        <ele>122.4</ele>
        <time>2024-03-20T17:58:26Z</time>
      </trkpt>
      <trkpt lat="49.20609" lon="-0.00787">
        <ele>122.4</ele>
        <time>2024-03-20T17:58:27Z</time>
      </trkpt>
      <trkpt lat="49.20607" lon="-0.00796">
        <ele>122.6</ele>
        <time>2024-03-20T17:58:28Z</time>
      </trkpt>
      <trkpt lat="49.20606" lon="-0.00805">
        <ele>123</ele>
        <time>2024-03-20T17:58:29Z</time>
      </trkpt>
      <trkpt lat="49.20604" lon="-0.00813">
        <ele>123.4</ele>
        <time>2024-03-20T17:58:30Z</time>
      </trkpt>
      <trkpt lat="49.20603" lon="-0.00821">
        <ele>123.6</ele>
        <time>2024-03-20T17:58:31Z</time>
      </trkpt>
      <trkpt lat="49.20602" lon="-0.0083">
        <ele>123.8</ele>
        <time>2024-03-20T17:58:32Z</time>
      </trkpt>
      <trkpt lat="49.20601" lon="-0.00838">
        <ele>124.2</ele>
        <time>2024-03-20T17:58:33Z</time>
      </trkpt>
      <trkpt lat="49.206" lon="-0.00846">
        <ele>124.4</ele>
        <time>2024-03-20T17:58:34Z</time>
      </trkpt>
      <trkpt lat="49.20599" lon="-0.00855">
        <ele>124.6</ele>
        <time>2024-03-20T17:58:35Z</time>
      </trkpt>
      <trkpt lat="49.20599" lon="-0.00862">
        <ele>124.8</ele>
        <time>2024-03-20T17:58:36Z</time>
      </trkpt>
      <trkpt lat="49.20598" lon="-0.00872">
        <ele>125</ele>
        <time>2024-03-20T17:58:37Z</time>
      </trkpt>
      <trkpt lat="49.20598" lon="-0.0088">
        <ele>125.2</ele>
        <time>2024-03-20T17:58:38Z</time>
      </trkpt>
      <trkpt lat="49.20597" lon="-0.00888">
        <ele>125.2</ele>
        <time>2024-03-20T17:58:39Z</time>
      </trkpt>
      <trkpt lat="49.20598" lon="-0.00895">
        <ele>125.4</ele>
        <time>2024-03-20T17:58:40Z</time>
      </trkpt>
      <trkpt lat="49.20598" lon="-0.00903">
        <ele>125.8</ele>
        <time>2024-03-20T17:58:41Z</time>
      </trkpt>
      <trkpt lat="49.20597" lon="-0.00911">
        <ele>125.8</ele>
        <time>2024-03-20T17:58:42Z</time>
      </trkpt>
      <trkpt lat="49.20597" lon="-0.00918">
        <ele>126</ele>
        <time>2024-03-20T17:58:43Z</time>
      </trkpt>
      <trkpt lat="49.20597" lon="-0.00925">
        <ele>126.2</ele>
        <time>2024-03-20T17:58:44Z</time>
      </trkpt>
      <trkpt lat="49.20597" lon="-0.00933">
        <ele>126.4</ele>
        <time>2024-03-20T17:58:45Z</time>
      </trkpt>
      <trkpt lat="49.20597" lon="-0.0094">
        <ele>126.4</ele>
        <time>2024-03-20T17:58:46Z</time>
      </trkpt>
      <trkpt lat="49.20597" lon="-0.00948">
        <ele>126.6</ele>
        <time>2024-03-20T17:58:47Z</time>
      </trkpt>
      <trkpt lat="49.20598" lon="-0.00957">
        <ele>126.8</ele>
        <time>2024-03-20T17:58:48Z</time>
      </trkpt>
      <trkpt lat="49.20598" lon="-0.00963">
        <ele>127</ele>
        <time>2024-03-20T17:58:49Z</time>
      </trkpt>
      <trkpt lat="49.20597" lon="-0.00971">
        <ele>127</ele>
        <time>2024-03-20T17:58:50Z</time>
      </trkpt>
      <trkpt lat="49.20597" lon="-0.00977">
        <ele>127.2</ele>
        <time>2024-03-20T17:58:51Z</time>
      </trkpt>
      <trkpt lat="49.20596" lon="-0.00987">
        <ele>127.4</ele>
        <time>2024-03-20T17:58:52Z</time>
      </trkpt>
      <trkpt lat="49.20596" lon="-0.00995">
        <ele>127.6</ele>
        <time>2024-03-20T17:58:53Z</time>
      </trkpt>
      <trkpt lat="49.20595" lon="-0.01003">
        <ele>127.8</ele>
        <time>2024-03-20T17:58:54Z</time>
      </trkpt>
      <trkpt lat="49.20595" lon="-0.01012">
        <ele>128.2</ele>
        <time>2024-03-20T17:58:55Z</time>
      </trkpt>
      <trkpt lat="49.20594" lon="-0.01021">
        <ele>128.4</ele>
        <time>2024-03-20T17:58:56Z</time>
      </trkpt>
      <trkpt lat="49.20594" lon="-0.0103">
        <ele>128.4</ele>
        <time>2024-03-20T17:58:57Z</time>
      </trkpt>
      <trkpt lat="49.20593" lon="-0.01039">
        <ele>128.6</ele>
        <time>2024-03-20T17:58:58Z</time>
      </trkpt>
      <trkpt lat="49.20592" lon="-0.01048">
        <ele>128.6</ele>
        <time>2024-03-20T17:58:59Z</time>
      </trkpt>
      <trkpt lat="49.20591" lon="-0.01057">
        <ele>128.6</ele>
        <time>2024-03-20T17:59:00Z</time>
      </trkpt>
      <trkpt lat="49.2059" lon="-0.01066">
        <ele>128.6</ele>
        <time>2024-03-20T17:59:01Z</time>
      </trkpt>
      <trkpt lat="49.20589" lon="-0.01075">
        <ele>128.6</ele>
        <time>2024-03-20T17:59:02Z</time>
      </trkpt>
      <trkpt lat="49.20588" lon="-0.01085">
        <ele>128.8</ele>
        <time>2024-03-20T17:59:03Z</time>
      </trkpt>
      <trkpt lat="49.20587" lon="-0.01094">
        <ele>128.8</ele>
        <time>2024-03-20T17:59:04Z</time>
      </trkpt>
      <trkpt lat="49.20585" lon="-0.01103">
        <ele>128.8</ele>
        <time>2024-03-20T17:59:05Z</time>
      </trkpt>
      <trkpt lat="49.20584" lon="-0.01112">
        <ele>128.8</ele>
        <time>2024-03-20T17:59:06Z</time>
      </trkpt>
      <trkpt lat="49.20583" lon="-0.01119">
        <ele>128.8</ele>
        <time>2024-03-20T17:59:07Z</time>
      </trkpt>
      <trkpt lat="49.20582" lon="-0.0113">
        <ele>128.8</ele>
        <time>2024-03-20T17:59:08Z</time>
      </trkpt>
      <trkpt lat="49.20581" lon="-0.01139">
        <ele>128.8</ele>
        <time>2024-03-20T17:59:09Z</time>
      </trkpt>
      <trkpt lat="49.2058" lon="-0.01146">
        <ele>128.8</ele>
        <time>2024-03-20T17:59:10Z</time>
      </trkpt>
      <trkpt lat="49.20578" lon="-0.01155">
        <ele>128.8</ele>
        <time>2024-03-20T17:59:11Z</time>
      </trkpt>
      <trkpt lat="49.20577" lon="-0.01164">
        <ele>128.8</ele>
        <time>2024-03-20T17:59:12Z</time>
      </trkpt>
      <trkpt lat="49.20576" lon="-0.01173">
        <ele>128.8</ele>
        <time>2024-03-20T17:59:13Z</time>
      </trkpt>
      <trkpt lat="49.20575" lon="-0.01182">
        <ele>129</ele>
        <time>2024-03-20T17:59:14Z</time>
      </trkpt>
      <trkpt lat="49.20574" lon="-0.01193">
        <ele>129.2</ele>
        <time>2024-03-20T17:59:15Z</time>
      </trkpt>
      <trkpt lat="49.20573" lon="-0.01202">
        <ele>129.2</ele>
        <time>2024-03-20T17:59:16Z</time>
      </trkpt>
      <trkpt lat="49.20572" lon="-0.01211">
        <ele>129.2</ele>
        <time>2024-03-20T17:59:17Z</time>
      </trkpt>
      <trkpt lat="49.20571" lon="-0.01218">
        <ele>129.4</ele>
        <time>2024-03-20T17:59:18Z</time>
      </trkpt>
      <trkpt lat="49.2057" lon="-0.01229">
        <ele>129.4</ele>
        <time>2024-03-20T17:59:19Z</time>
      </trkpt>
      <trkpt lat="49.20569" lon="-0.01239">
        <ele>129.4</ele>
        <time>2024-03-20T17:59:20Z</time>
      </trkpt>
      <trkpt lat="49.20567" lon="-0.01247">
        <ele>129.6</ele>
        <time>2024-03-20T17:59:21Z</time>
      </trkpt>
      <trkpt lat="49.20566" lon="-0.01254">
        <ele>129.6</ele>
        <time>2024-03-20T17:59:22Z</time>
      </trkpt>
      <trkpt lat="49.20565" lon="-0.01265">
        <ele>129.6</ele>
        <time>2024-03-20T17:59:23Z</time>
      </trkpt>
      <trkpt lat="49.20563" lon="-0.01273">
        <ele>129.6</ele>
        <time>2024-03-20T17:59:24Z</time>
      </trkpt>
      <trkpt lat="49.20562" lon="-0.01282">
        <ele>129.6</ele>
        <time>2024-03-20T17:59:25Z</time>
      </trkpt>
      <trkpt lat="49.20561" lon="-0.0129">
        <ele>129.8</ele>
        <time>2024-03-20T17:59:26Z</time>
      </trkpt>
      <trkpt lat="49.2056" lon="-0.01299">
        <ele>129.8</ele>
        <time>2024-03-20T17:59:27Z</time>
      </trkpt>
      <trkpt lat="49.20559" lon="-0.01307">
        <ele>129.8</ele>
        <time>2024-03-20T17:59:28Z</time>
      </trkpt>
      <trkpt lat="49.20557" lon="-0.01315">
        <ele>130</ele>
        <time>2024-03-20T17:59:29Z</time>
      </trkpt>
      <trkpt lat="49.20556" lon="-0.01323">
        <ele>130</ele>
        <time>2024-03-20T17:59:30Z</time>
      </trkpt>
      <trkpt lat="49.20554" lon="-0.01331">
        <ele>130</ele>
        <time>2024-03-20T17:59:31Z</time>
      </trkpt>
      <trkpt lat="49.20553" lon="-0.01338">
        <ele>130.2</ele>
        <time>2024-03-20T17:59:32Z</time>
      </trkpt>
      <trkpt lat="49.20551" lon="-0.01346">
        <ele>130.2</ele>
        <time>2024-03-20T17:59:33Z</time>
      </trkpt>
      <trkpt lat="49.2055" lon="-0.01352">
        <ele>130.2</ele>
        <time>2024-03-20T17:59:34Z</time>
      </trkpt>
      <trkpt lat="49.20549" lon="-0.01361">
        <ele>130.2</ele>
        <time>2024-03-20T17:59:35Z</time>
      </trkpt>
      <trkpt lat="49.20547" lon="-0.01367">
        <ele>130.2</ele>
        <time>2024-03-20T17:59:36Z</time>
      </trkpt>
      <trkpt lat="49.20546" lon="-0.01375">
        <ele>130.4</ele>
        <time>2024-03-20T17:59:37Z</time>
      </trkpt>
      <trkpt lat="49.20544" lon="-0.01382">
        <ele>130.6</ele>
        <time>2024-03-20T17:59:38Z</time>
      </trkpt>
      <trkpt lat="49.20542" lon="-0.01389">
        <ele>130.6</ele>
        <time>2024-03-20T17:59:39Z</time>
      </trkpt>
      <trkpt lat="49.2054" lon="-0.01396">
        <ele>130.8</ele>
        <time>2024-03-20T17:59:40Z</time>
      </trkpt>
      <trkpt lat="49.20539" lon="-0.01404">
        <ele>131</ele>
        <time>2024-03-20T17:59:41Z</time>
      </trkpt>
      <trkpt lat="49.20536" lon="-0.0141">
        <ele>131</ele>
        <time>2024-03-20T17:59:42Z</time>
      </trkpt>
      <trkpt lat="49.20534" lon="-0.01417">
        <ele>131.2</ele>
        <time>2024-03-20T17:59:43Z</time>
      </trkpt>
      <trkpt lat="49.20532" lon="-0.01423">
        <ele>131.4</ele>
        <time>2024-03-20T17:59:44Z</time>
      </trkpt>
      <trkpt lat="49.2053" lon="-0.01429">
        <ele>131.4</ele>
        <time>2024-03-20T17:59:45Z</time>
      </trkpt>
      <trkpt lat="49.20528" lon="-0.01436">
        <ele>131.6</ele>
        <time>2024-03-20T17:59:46Z</time>
      </trkpt>
      <trkpt lat="49.20526" lon="-0.01442">
        <ele>131.8</ele>
        <time>2024-03-20T17:59:47Z</time>
      </trkpt>
      <trkpt lat="49.20525" lon="-0.01448">
        <ele>131.8</ele>
        <time>2024-03-20T17:59:48Z</time>
      </trkpt>
      <trkpt lat="49.20523" lon="-0.01454">
        <ele>132</ele>
        <time>2024-03-20T17:59:49Z</time>
      </trkpt>
      <trkpt lat="49.2052" lon="-0.01461">
        <ele>132</ele>
        <time>2024-03-20T17:59:50Z</time>
      </trkpt>
      <trkpt lat="49.20518" lon="-0.01468">
        <ele>132</ele>
        <time>2024-03-20T17:59:51Z</time>
      </trkpt>
      <trkpt lat="49.20516" lon="-0.01475">
        <ele>132</ele>
        <time>2024-03-20T17:59:52Z</time>
      </trkpt>
      <trkpt lat="49.20513" lon="-0.01482">
        <ele>132.2</ele>
        <time>2024-03-20T17:59:53Z</time>
      </trkpt>
      <trkpt lat="49.2051" lon="-0.01489">
        <ele>132.2</ele>
        <time>2024-03-20T17:59:54Z</time>
      </trkpt>
      <trkpt lat="49.20508" lon="-0.01497">
        <ele>132.2</ele>
        <time>2024-03-20T17:59:55Z</time>
      </trkpt>
      <trkpt lat="49.20505" lon="-0.01504">
        <ele>132.4</ele>
        <time>2024-03-20T17:59:56Z</time>
      </trkpt>
      <trkpt lat="49.20503" lon="-0.01512">
        <ele>132.4</ele>
        <time>2024-03-20T17:59:57Z</time>
      </trkpt>
      <trkpt lat="49.205" lon="-0.01519">
        <ele>132.4</ele>
        <time>2024-03-20T17:59:58Z</time>
      </trkpt>
      <trkpt lat="49.20497" lon="-0.01527">
        <ele>132.4</ele>
        <time>2024-03-20T17:59:59Z</time>
      </trkpt>
      <trkpt lat="49.20494" lon="-0.01534">
        <ele>132.4</ele>
        <time>2024-03-20T18:00:00Z</time>
      </trkpt>
      <trkpt lat="49.20491" lon="-0.01542">
        <ele>132.4</ele>
        <time>2024-03-20T18:00:01Z</time>
      </trkpt>
      <trkpt lat="49.20487" lon="-0.0155">
        <ele>132.6</ele>
        <time>2024-03-20T18:00:02Z</time>
      </trkpt>
      <trkpt lat="49.20484" lon="-0.01557">
        <ele>132.6</ele>
        <time>2024-03-20T18:00:03Z</time>
      </trkpt>
      <trkpt lat="49.20481" lon="-0.01565">
        <ele>132.8</ele>
        <time>2024-03-20T18:00:04Z</time>
      </trkpt>
      <trkpt lat="49.20479" lon="-0.01572">
        <ele>132.8</ele>
        <time>2024-03-20T18:00:05Z</time>
      </trkpt>
      <trkpt lat="49.20476" lon="-0.0158">
        <ele>133</ele>
        <time>2024-03-20T18:00:06Z</time>
      </trkpt>
      <trkpt lat="49.20473" lon="-0.01587">
        <ele>133</ele>
        <time>2024-03-20T18:00:07Z</time>
      </trkpt>
      <trkpt lat="49.20471" lon="-0.01595">
        <ele>133.2</ele>
        <time>2024-03-20T18:00:08Z</time>
      </trkpt>
      <trkpt lat="49.20468" lon="-0.01602">
        <ele>133.2</ele>
        <time>2024-03-20T18:00:09Z</time>
      </trkpt>
      <trkpt lat="49.20465" lon="-0.0161">
        <ele>133.2</ele>
        <time>2024-03-20T18:00:10Z</time>
      </trkpt>
      <trkpt lat="49.20463" lon="-0.01617">
        <ele>133.4</ele>
        <time>2024-03-20T18:00:11Z</time>
      </trkpt>
      <trkpt lat="49.2046" lon="-0.01625">
        <ele>133.4</ele>
        <time>2024-03-20T18:00:12Z</time>
      </trkpt>
      <trkpt lat="49.20457" lon="-0.01632">
        <ele>133.4</ele>
        <time>2024-03-20T18:00:13Z</time>
      </trkpt>
      <trkpt lat="49.20454" lon="-0.0164">
        <ele>133.6</ele>
        <time>2024-03-20T18:00:14Z</time>
      </trkpt>
      <trkpt lat="49.20452" lon="-0.01648">
        <ele>133.6</ele>
        <time>2024-03-20T18:00:15Z</time>
      </trkpt>
      <trkpt lat="49.20449" lon="-0.01656">
        <ele>133.8</ele>
        <time>2024-03-20T18:00:16Z</time>
      </trkpt>
      <trkpt lat="49.20446" lon="-0.01664">
        <ele>133.8</ele>
        <time>2024-03-20T18:00:17Z</time>
      </trkpt>
      <trkpt lat="49.20443" lon="-0.01672">
        <ele>134</ele>
        <time>2024-03-20T18:00:18Z</time>
      </trkpt>
      <trkpt lat="49.20441" lon="-0.0168">
        <ele>134</ele>
        <time>2024-03-20T18:00:19Z</time>
      </trkpt>
      <trkpt lat="49.20438" lon="-0.01689">
        <ele>134</ele>
        <time>2024-03-20T18:00:20Z</time>
      </trkpt>
      <trkpt lat="49.20435" lon="-0.01697">
        <ele>134</ele>
        <time>2024-03-20T18:00:21Z</time>
      </trkpt>
      <trkpt lat="49.20432" lon="-0.01705">
        <ele>134</ele>
        <time>2024-03-20T18:00:22Z</time>
      </trkpt>
      <trkpt lat="49.20429" lon="-0.01713">
        <ele>134.2</ele>
        <time>2024-03-20T18:00:23Z</time>
      </trkpt>
      <trkpt lat="49.20427" lon="-0.01721">
        <ele>134.2</ele>
        <time>2024-03-20T18:00:24Z</time>
      </trkpt>
      <trkpt lat="49.20424" lon="-0.0173">
        <ele>134.2</ele>
        <time>2024-03-20T18:00:25Z</time>
      </trkpt>
      <trkpt lat="49.20421" lon="-0.01736">
        <ele>134.2</ele>
        <time>2024-03-20T18:00:26Z</time>
      </trkpt>
      <trkpt lat="49.20418" lon="-0.01746">
        <ele>134.2</ele>
        <time>2024-03-20T18:00:27Z</time>
      </trkpt>
      <trkpt lat="49.20415" lon="-0.01754">
        <ele>134.2</ele>
        <time>2024-03-20T18:00:28Z</time>
      </trkpt>
      <trkpt lat="49.20413" lon="-0.01762">
        <ele>134.4</ele>
        <time>2024-03-20T18:00:29Z</time>
      </trkpt>
      <trkpt lat="49.2041" lon="-0.01771">
        <ele>134.4</ele>
        <time>2024-03-20T18:00:30Z</time>
      </trkpt>
      <trkpt lat="49.20407" lon="-0.01779">
        <ele>134.6</ele>
        <time>2024-03-20T18:00:31Z</time>
      </trkpt>
      <trkpt lat="49.20404" lon="-0.01788">
        <ele>134.6</ele>
        <time>2024-03-20T18:00:32Z</time>
      </trkpt>
      <trkpt lat="49.20402" lon="-0.01796">
        <ele>134.8</ele>
        <time>2024-03-20T18:00:33Z</time>
      </trkpt>
      <trkpt lat="49.20399" lon="-0.01804">
        <ele>134.8</ele>
        <time>2024-03-20T18:00:34Z</time>
      </trkpt>
      <trkpt lat="49.20396" lon="-0.01812">
        <ele>135</ele>
        <time>2024-03-20T18:00:35Z</time>
      </trkpt>
      <trkpt lat="49.20393" lon="-0.01821">
        <ele>135.2</ele>
        <time>2024-03-20T18:00:36Z</time>
      </trkpt>
      <trkpt lat="49.2039" lon="-0.0183">
        <ele>135.2</ele>
        <time>2024-03-20T18:00:37Z</time>
      </trkpt>
      <trkpt lat="49.20388" lon="-0.01837">
        <ele>135.2</ele>
        <time>2024-03-20T18:00:38Z</time>
      </trkpt>
      <trkpt lat="49.20385" lon="-0.01848">
        <ele>135.2</ele>
        <time>2024-03-20T18:00:39Z</time>
      </trkpt>
      <trkpt lat="49.20383" lon="-0.01857">
        <ele>135.2</ele>
        <time>2024-03-20T18:00:40Z</time>
      </trkpt>
      <trkpt lat="49.20381" lon="-0.01866">
        <ele>135.4</ele>
        <time>2024-03-20T18:00:41Z</time>
      </trkpt>
      <trkpt lat="49.20378" lon="-0.01875">
        <ele>135.4</ele>
        <time>2024-03-20T18:00:42Z</time>
      </trkpt>
      <trkpt lat="49.20376" lon="-0.01884">
        <ele>135.4</ele>
        <time>2024-03-20T18:00:43Z</time>
      </trkpt>
      <trkpt lat="49.20374" lon="-0.01893">
        <ele>135.4</ele>
        <time>2024-03-20T18:00:44Z</time>
      </trkpt>
      <trkpt lat="49.20372" lon="-0.01902">
        <ele>135.4</ele>
        <time>2024-03-20T18:00:45Z</time>
      </trkpt>
      <trkpt lat="49.2037" lon="-0.01911">
        <ele>135.4</ele>
        <time>2024-03-20T18:00:46Z</time>
      </trkpt>
      <trkpt lat="49.20368" lon="-0.0192">
        <ele>135.4</ele>
        <time>2024-03-20T18:00:47Z</time>
      </trkpt>
      <trkpt lat="49.20366" lon="-0.01929">
        <ele>135.4</ele>
        <time>2024-03-20T18:00:48Z</time>
      </trkpt>
      <trkpt lat="49.20364" lon="-0.01936">
        <ele>135.4</ele>
        <time>2024-03-20T18:00:49Z</time>
      </trkpt>
      <trkpt lat="49.20362" lon="-0.01945">
        <ele>135.4</ele>
        <time>2024-03-20T18:00:50Z</time>
      </trkpt>
      <trkpt lat="49.2036" lon="-0.01954">
        <ele>135.4</ele>
        <time>2024-03-20T18:00:51Z</time>
      </trkpt>
      <trkpt lat="49.20358" lon="-0.01965">
        <ele>135.4</ele>
        <time>2024-03-20T18:00:52Z</time>
      </trkpt>
      <trkpt lat="49.20356" lon="-0.01974">
        <ele>135.4</ele>
        <time>2024-03-20T18:00:53Z</time>
      </trkpt>
      <trkpt lat="49.20354" lon="-0.01983">
        <ele>135.4</ele>
        <time>2024-03-20T18:00:54Z</time>
      </trkpt>
      <trkpt lat="49.20352" lon="-0.01992">
        <ele>135.4</ele>
        <time>2024-03-20T18:00:55Z</time>
      </trkpt>
      <trkpt lat="49.2035" lon="-0.02">
        <ele>135.4</ele>
        <time>2024-03-20T18:00:56Z</time>
      </trkpt>
      <trkpt lat="49.20349" lon="-0.02007">
        <ele>135.4</ele>
        <time>2024-03-20T18:00:57Z</time>
      </trkpt>
      <trkpt lat="49.20348" lon="-0.02013">
        <ele>135.4</ele>
        <time>2024-03-20T18:00:58Z</time>
      </trkpt>
      <trkpt lat="49.20348" lon="-0.02018">
        <ele>135.4</ele>
        <time>2024-03-20T18:00:59Z</time>
      </trkpt>
      <trkpt lat="49.20348" lon="-0.02025">
        <ele>135.4</ele>
        <time>2024-03-20T18:01:00Z</time>
      </trkpt>
      <trkpt lat="49.2035" lon="-0.02031">
        <ele>135.6</ele>
        <time>2024-03-20T18:01:01Z</time>
      </trkpt>
      <trkpt lat="49.20351" lon="-0.02037">
        <ele>135.6</ele>
        <time>2024-03-20T18:01:02Z</time>
      </trkpt>
      <trkpt lat="49.20353" lon="-0.02042">
        <ele>135.6</ele>
        <time>2024-03-20T18:01:03Z</time>
      </trkpt>
      <trkpt lat="49.20355" lon="-0.02047">
        <ele>135.6</ele>
        <time>2024-03-20T18:01:04Z</time>
      </trkpt>
      <trkpt lat="49.20356" lon="-0.02053">
        <ele>135.6</ele>
        <time>2024-03-20T18:01:05Z</time>
      </trkpt>
      <trkpt lat="49.20358" lon="-0.02058">
        <ele>135.6</ele>
        <time>2024-03-20T18:01:06Z</time>
      </trkpt>
      <trkpt lat="49.2036" lon="-0.02063">
        <ele>135.6</ele>
        <time>2024-03-20T18:01:07Z</time>
      </trkpt>
      <trkpt lat="49.20361" lon="-0.02068">
        <ele>135.6</ele>
        <time>2024-03-20T18:01:08Z</time>
      </trkpt>
      <trkpt lat="49.20363" lon="-0.02074">
        <ele>135.6</ele>
        <time>2024-03-20T18:01:09Z</time>
      </trkpt>
      <trkpt lat="49.20365" lon="-0.02079">
        <ele>135.6</ele>
        <time>2024-03-20T18:01:10Z</time>
      </trkpt>
      <trkpt lat="49.20366" lon="-0.02084">
        <ele>135.6</ele>
        <time>2024-03-20T18:01:11Z</time>
      </trkpt>
      <trkpt lat="49.20368" lon="-0.02089">
        <ele>135.6</ele>
        <time>2024-03-20T18:01:12Z</time>
      </trkpt>
      <trkpt lat="49.2037" lon="-0.02095">
        <ele>135.6</ele>
        <time>2024-03-20T18:01:13Z</time>
      </trkpt>
      <trkpt lat="49.20372" lon="-0.021">
        <ele>135.6</ele>
        <time>2024-03-20T18:01:14Z</time>
      </trkpt>
      <trkpt lat="49.20373" lon="-0.02105">
        <ele>135.6</ele>
        <time>2024-03-20T18:01:15Z</time>
      </trkpt>
      <trkpt lat="49.20375" lon="-0.0211">
        <ele>135.6</ele>
        <time>2024-03-20T18:01:16Z</time>
      </trkpt>
      <trkpt lat="49.20378" lon="-0.02116">
        <ele>135.6</ele>
        <time>2024-03-20T18:01:17Z</time>
      </trkpt>
      <trkpt lat="49.2038" lon="-0.02121">
        <ele>135.6</ele>
        <time>2024-03-20T18:01:18Z</time>
      </trkpt>
      <trkpt lat="49.20383" lon="-0.02125">
        <ele>135.6</ele>
        <time>2024-03-20T18:01:19Z</time>
      </trkpt>
      <trkpt lat="49.20385" lon="-0.02129">
        <ele>135.6</ele>
        <time>2024-03-20T18:01:20Z</time>
      </trkpt>
      <trkpt lat="49.20388" lon="-0.02133">
        <ele>135.6</ele>
        <time>2024-03-20T18:01:21Z</time>
      </trkpt>
      <trkpt lat="49.20391" lon="-0.02136">
        <ele>135.4</ele>
        <time>2024-03-20T18:01:22Z</time>
      </trkpt>
      <trkpt lat="49.20394" lon="-0.0214">
        <ele>135.4</ele>
        <time>2024-03-20T18:01:23Z</time>
      </trkpt>
      <trkpt lat="49.20399" lon="-0.02145">
        <ele>135.2</ele>
        <time>2024-03-20T18:01:24Z</time>
      </trkpt>
      <trkpt lat="49.20402" lon="-0.02148">
        <ele>135</ele>
        <time>2024-03-20T18:01:25Z</time>
      </trkpt>
      <trkpt lat="49.20406" lon="-0.02151">
        <ele>135</ele>
        <time>2024-03-20T18:01:26Z</time>
      </trkpt>
      <trkpt lat="49.20411" lon="-0.02154">
        <ele>134.8</ele>
        <time>2024-03-20T18:01:27Z</time>
      </trkpt>
      <trkpt lat="49.20416" lon="-0.02157">
        <ele>134.8</ele>
        <time>2024-03-20T18:01:28Z</time>
      </trkpt>
      <trkpt lat="49.20422" lon="-0.02159">
        <ele>134.8</ele>
        <time>2024-03-20T18:01:29Z</time>
      </trkpt>
      <trkpt lat="49.20427" lon="-0.0216">
        <ele>134.8</ele>
        <time>2024-03-20T18:01:30Z</time>
      </trkpt>
      <trkpt lat="49.20433" lon="-0.02161">
        <ele>134.8</ele>
        <time>2024-03-20T18:01:31Z</time>
      </trkpt>
      <trkpt lat="49.2044" lon="-0.02161">
        <ele>134.8</ele>
        <time>2024-03-20T18:01:32Z</time>
      </trkpt>
      <trkpt lat="49.20446" lon="-0.02161">
        <ele>134.6</ele>
        <time>2024-03-20T18:01:33Z</time>
      </trkpt>
      <trkpt lat="49.20452" lon="-0.0216">
        <ele>134.6</ele>
        <time>2024-03-20T18:01:34Z</time>
      </trkpt>
      <trkpt lat="49.20458" lon="-0.02159">
        <ele>134.6</ele>
        <time>2024-03-20T18:01:35Z</time>
      </trkpt>
      <trkpt lat="49.20464" lon="-0.02159">
        <ele>134.6</ele>
        <time>2024-03-20T18:01:36Z</time>
      </trkpt>
      <trkpt lat="49.2047" lon="-0.02158">
        <ele>134.6</ele>
        <time>2024-03-20T18:01:37Z</time>
      </trkpt>
      <trkpt lat="49.20476" lon="-0.02158">
        <ele>134.6</ele>
        <time>2024-03-20T18:01:38Z</time>
      </trkpt>
      <trkpt lat="49.20482" lon="-0.02158">
        <ele>134.6</ele>
        <time>2024-03-20T18:01:39Z</time>
      </trkpt>
      <trkpt lat="49.20488" lon="-0.02157">
        <ele>134.6</ele>
        <time>2024-03-20T18:01:40Z</time>
      </trkpt>
      <trkpt lat="49.20495" lon="-0.02156">
        <ele>134.6</ele>
        <time>2024-03-20T18:01:41Z</time>
      </trkpt>
      <trkpt lat="49.20501" lon="-0.02156">
        <ele>134.6</ele>
        <time>2024-03-20T18:01:42Z</time>
      </trkpt>
      <trkpt lat="49.20506" lon="-0.02155">
        <ele>134.6</ele>
        <time>2024-03-20T18:01:43Z</time>
      </trkpt>
      <trkpt lat="49.20514" lon="-0.02154">
        <ele>134.6</ele>
        <time>2024-03-20T18:01:44Z</time>
      </trkpt>
      <trkpt lat="49.2052" lon="-0.02154">
        <ele>134.6</ele>
        <time>2024-03-20T18:01:45Z</time>
      </trkpt>
      <trkpt lat="49.20527" lon="-0.02153">
        <ele>134.6</ele>
        <time>2024-03-20T18:01:46Z</time>
      </trkpt>
      <trkpt lat="49.20534" lon="-0.02153">
        <ele>134.6</ele>
        <time>2024-03-20T18:01:47Z</time>
      </trkpt>
      <trkpt lat="49.2054" lon="-0.02152">
        <ele>134.4</ele>
        <time>2024-03-20T18:01:48Z</time>
      </trkpt>
      <trkpt lat="49.20547" lon="-0.02151">
        <ele>134.4</ele>
        <time>2024-03-20T18:01:49Z</time>
      </trkpt>
      <trkpt lat="49.20553" lon="-0.0215">
        <ele>134.4</ele>
        <time>2024-03-20T18:01:50Z</time>
      </trkpt>
      <trkpt lat="49.2056" lon="-0.0215">
        <ele>134.4</ele>
        <time>2024-03-20T18:01:51Z</time>
      </trkpt>
      <trkpt lat="49.20567" lon="-0.02149">
        <ele>134.4</ele>
        <time>2024-03-20T18:01:52Z</time>
      </trkpt>
      <trkpt lat="49.20573" lon="-0.02149">
        <ele>134.4</ele>
        <time>2024-03-20T18:01:53Z</time>
      </trkpt>
      <trkpt lat="49.2058" lon="-0.02148">
        <ele>134.4</ele>
        <time>2024-03-20T18:01:54Z</time>
      </trkpt>
      <trkpt lat="49.20589" lon="-0.02147">
        <ele>134.4</ele>
        <time>2024-03-20T18:01:55Z</time>
      </trkpt>
      <trkpt lat="49.20596" lon="-0.02146">
        <ele>134.4</ele>
        <time>2024-03-20T18:01:56Z</time>
      </trkpt>
      <trkpt lat="49.20602" lon="-0.02146">
        <ele>134.2</ele>
        <time>2024-03-20T18:01:57Z</time>
      </trkpt>
      <trkpt lat="49.20609" lon="-0.02145">
        <ele>134.2</ele>
        <time>2024-03-20T18:01:58Z</time>
      </trkpt>
      <trkpt lat="49.20616" lon="-0.02144">
        <ele>134</ele>
        <time>2024-03-20T18:01:59Z</time>
      </trkpt>
      <trkpt lat="49.20623" lon="-0.02144">
        <ele>133.8</ele>
        <time>2024-03-20T18:02:00Z</time>
      </trkpt>
      <trkpt lat="49.20629" lon="-0.02143">
        <ele>133.8</ele>
        <time>2024-03-20T18:02:01Z</time>
      </trkpt>
      <trkpt lat="49.20636" lon="-0.02142">
        <ele>133.6</ele>
        <time>2024-03-20T18:02:02Z</time>
      </trkpt>
      <trkpt lat="49.20642" lon="-0.02142">
        <ele>133.6</ele>
        <time>2024-03-20T18:02:03Z</time>
      </trkpt>
      <trkpt lat="49.20648" lon="-0.02141">
        <ele>133.6</ele>
        <time>2024-03-20T18:02:04Z</time>
      </trkpt>
      <trkpt lat="49.20655" lon="-0.02141">
        <ele>133.6</ele>
        <time>2024-03-20T18:02:05Z</time>
      </trkpt>
      <trkpt lat="49.20662" lon="-0.0214">
        <ele>133.4</ele>
        <time>2024-03-20T18:02:06Z</time>
      </trkpt>
      <trkpt lat="49.20668" lon="-0.0214">
        <ele>133.4</ele>
        <time>2024-03-20T18:02:07Z</time>
      </trkpt>
      <trkpt lat="49.20675" lon="-0.02139">
        <ele>133.4</ele>
        <time>2024-03-20T18:02:08Z</time>
      </trkpt>
      <trkpt lat="49.20682" lon="-0.02139">
        <ele>133.2</ele>
        <time>2024-03-20T18:02:09Z</time>
      </trkpt>
      <trkpt lat="49.20689" lon="-0.02138">
        <ele>133.2</ele>
        <time>2024-03-20T18:02:10Z</time>
      </trkpt>
      <trkpt lat="49.20695" lon="-0.02137">
        <ele>133.2</ele>
        <time>2024-03-20T18:02:11Z</time>
      </trkpt>
      <trkpt lat="49.20702" lon="-0.02137">
        <ele>133.2</ele>
        <time>2024-03-20T18:02:12Z</time>
      </trkpt>
      <trkpt lat="49.20709" lon="-0.02136">
        <ele>133.2</ele>
        <time>2024-03-20T18:02:13Z</time>
      </trkpt>
      <trkpt lat="49.20716" lon="-0.02135">
        <ele>133.2</ele>
        <time>2024-03-20T18:02:14Z</time>
      </trkpt>
      <trkpt lat="49.20723" lon="-0.02135">
        <ele>133.2</ele>
        <time>2024-03-20T18:02:15Z</time>
      </trkpt>
      <trkpt lat="49.2073" lon="-0.02133">
        <ele>133.2</ele>
        <time>2024-03-20T18:02:16Z</time>
      </trkpt>
      <trkpt lat="49.20737" lon="-0.02133">
        <ele>133.2</ele>
        <time>2024-03-20T18:02:17Z</time>
      </trkpt>
      <trkpt lat="49.20744" lon="-0.02132">
        <ele>133</ele>
        <time>2024-03-20T18:02:18Z</time>
      </trkpt>
      <trkpt lat="49.20752" lon="-0.02132">
        <ele>132.8</ele>
        <time>2024-03-20T18:02:19Z</time>
      </trkpt>
      <trkpt lat="49.20759" lon="-0.02131">
        <ele>132.8</ele>
        <time>2024-03-20T18:02:20Z</time>
      </trkpt>
      <trkpt lat="49.20767" lon="-0.02131">
        <ele>132.6</ele>
        <time>2024-03-20T18:02:21Z</time>
      </trkpt>
      <trkpt lat="49.20775" lon="-0.0213">
        <ele>132.6</ele>
        <time>2024-03-20T18:02:22Z</time>
      </trkpt>
      <trkpt lat="49.20782" lon="-0.02129">
        <ele>132.6</ele>
        <time>2024-03-20T18:02:23Z</time>
      </trkpt>
      <trkpt lat="49.2079" lon="-0.02129">
        <ele>132.4</ele>
        <time>2024-03-20T18:02:24Z</time>
      </trkpt>
      <trkpt lat="49.20798" lon="-0.02129">
        <ele>132.4</ele>
        <time>2024-03-20T18:02:25Z</time>
      </trkpt>
      <trkpt lat="49.20806" lon="-0.02128">
        <ele>132.2</ele>
        <time>2024-03-20T18:02:26Z</time>
      </trkpt>
      <trkpt lat="49.20815" lon="-0.02128">
        <ele>132.2</ele>
        <time>2024-03-20T18:02:27Z</time>
      </trkpt>
      <trkpt lat="49.20823" lon="-0.02128">
        <ele>132</ele>
        <time>2024-03-20T18:02:28Z</time>
      </trkpt>
      <trkpt lat="49.20831" lon="-0.02128">
        <ele>132</ele>
        <time>2024-03-20T18:02:29Z</time>
      </trkpt>
      <trkpt lat="49.2084" lon="-0.02127">
        <ele>131.8</ele>
        <time>2024-03-20T18:02:30Z</time>
      </trkpt>
      <trkpt lat="49.20848" lon="-0.02127">
        <ele>131.8</ele>
        <time>2024-03-20T18:02:31Z</time>
      </trkpt>
      <trkpt lat="49.20856" lon="-0.02127">
        <ele>131.8</ele>
        <time>2024-03-20T18:02:32Z</time>
      </trkpt>
      <trkpt lat="49.20864" lon="-0.02127">
        <ele>131.6</ele>
        <time>2024-03-20T18:02:33Z</time>
      </trkpt>
      <trkpt lat="49.20871" lon="-0.02127">
        <ele>131.4</ele>
        <time>2024-03-20T18:02:34Z</time>
      </trkpt>
      <trkpt lat="49.20881" lon="-0.02127">
        <ele>131.2</ele>
        <time>2024-03-20T18:02:35Z</time>
      </trkpt>
      <trkpt lat="49.20889" lon="-0.02127">
        <ele>131</ele>
        <time>2024-03-20T18:02:36Z</time>
      </trkpt>
      <trkpt lat="49.20898" lon="-0.02127">
        <ele>130.8</ele>
        <time>2024-03-20T18:02:37Z</time>
      </trkpt>
      <trkpt lat="49.20905" lon="-0.02127">
        <ele>130.6</ele>
        <time>2024-03-20T18:02:38Z</time>
      </trkpt>
      <trkpt lat="49.20913" lon="-0.02127">
        <ele>130.4</ele>
        <time>2024-03-20T18:02:39Z</time>
      </trkpt>
      <trkpt lat="49.20922" lon="-0.02127">
        <ele>130.2</ele>
        <time>2024-03-20T18:02:40Z</time>
      </trkpt>
      <trkpt lat="49.2093" lon="-0.02127">
        <ele>130</ele>
        <time>2024-03-20T18:02:41Z</time>
      </trkpt>
      <trkpt lat="49.20938" lon="-0.02127">
        <ele>129.6</ele>
        <time>2024-03-20T18:02:42Z</time>
      </trkpt>
      <trkpt lat="49.20949" lon="-0.02128">
        <ele>129.6</ele>
        <time>2024-03-20T18:02:43Z</time>
      </trkpt>
      <trkpt lat="49.20956" lon="-0.02128">
        <ele>129.4</ele>
        <time>2024-03-20T18:02:44Z</time>
      </trkpt>
      <trkpt lat="49.20964" lon="-0.02129">
        <ele>129.4</ele>
        <time>2024-03-20T18:02:45Z</time>
      </trkpt>
      <trkpt lat="49.20975" lon="-0.02131">
        <ele>129.2</ele>
        <time>2024-03-20T18:02:46Z</time>
      </trkpt>
      <trkpt lat="49.20983" lon="-0.02134">
        <ele>129.2</ele>
        <time>2024-03-20T18:02:47Z</time>
      </trkpt>
      <trkpt lat="49.20991" lon="-0.02138">
        <ele>129</ele>
        <time>2024-03-20T18:02:48Z</time>
      </trkpt>
      <trkpt lat="49.20997" lon="-0.02143">
        <ele>128.8</ele>
        <time>2024-03-20T18:02:49Z</time>
      </trkpt>
      <trkpt lat="49.21006" lon="-0.02152">
        <ele>128.2</ele>
        <time>2024-03-20T18:02:50Z</time>
      </trkpt>
      <trkpt lat="49.21013" lon="-0.0216">
        <ele>127.2</ele>
        <time>2024-03-20T18:02:51Z</time>
      </trkpt>
      <trkpt lat="49.21018" lon="-0.0217">
        <ele>126.4</ele>
        <time>2024-03-20T18:02:52Z</time>
      </trkpt>
      <trkpt lat="49.21024" lon="-0.0218">
        <ele>125.8</ele>
        <time>2024-03-20T18:02:53Z</time>
      </trkpt>
      <trkpt lat="49.21029" lon="-0.02191">
        <ele>125</ele>
        <time>2024-03-20T18:02:54Z</time>
      </trkpt>
      <trkpt lat="49.21032" lon="-0.022">
        <ele>124.6</ele>
        <time>2024-03-20T18:02:55Z</time>
      </trkpt>
      <trkpt lat="49.21037" lon="-0.02212">
        <ele>124.4</ele>
        <time>2024-03-20T18:02:56Z</time>
      </trkpt>
      <trkpt lat="49.21043" lon="-0.02226">
        <ele>124.2</ele>
        <time>2024-03-20T18:02:57Z</time>
      </trkpt>
      <trkpt lat="49.21048" lon="-0.02237">
        <ele>124</ele>
        <time>2024-03-20T18:02:58Z</time>
      </trkpt>
      <trkpt lat="49.21053" lon="-0.02249">
        <ele>124</ele>
        <time>2024-03-20T18:02:59Z</time>
      </trkpt>
      <trkpt lat="49.21058" lon="-0.0226">
        <ele>124</ele>
        <time>2024-03-20T18:03:00Z</time>
      </trkpt>
      <trkpt lat="49.21064" lon="-0.02271">
        <ele>123.8</ele>
        <time>2024-03-20T18:03:01Z</time>
      </trkpt>
      <trkpt lat="49.2107" lon="-0.02281">
        <ele>123.4</ele>
        <time>2024-03-20T18:03:02Z</time>
      </trkpt>
      <trkpt lat="49.21077" lon="-0.02292">
        <ele>123.2</ele>
        <time>2024-03-20T18:03:03Z</time>
      </trkpt>
      <trkpt lat="49.21083" lon="-0.02302">
        <ele>122.8</ele>
        <time>2024-03-20T18:03:04Z</time>
      </trkpt>
      <trkpt lat="49.21089" lon="-0.02312">
        <ele>122.6</ele>
        <time>2024-03-20T18:03:05Z</time>
      </trkpt>
      <trkpt lat="49.21095" lon="-0.02323">
        <ele>122.2</ele>
        <time>2024-03-20T18:03:06Z</time>
      </trkpt>
      <trkpt lat="49.21101" lon="-0.02334">
        <ele>121.8</ele>
        <time>2024-03-20T18:03:07Z</time>
      </trkpt>
      <trkpt lat="49.21107" lon="-0.02346">
        <ele>121.6</ele>
        <time>2024-03-20T18:03:08Z</time>
      </trkpt>
      <trkpt lat="49.21112" lon="-0.02358">
        <ele>121.2</ele>
        <time>2024-03-20T18:03:09Z</time>
      </trkpt>
      <trkpt lat="49.21118" lon="-0.0237">
        <ele>121</ele>
        <time>2024-03-20T18:03:10Z</time>
      </trkpt>
      <trkpt lat="49.21122" lon="-0.0238">
        <ele>120.6</ele>
        <time>2024-03-20T18:03:11Z</time>
      </trkpt>
      <trkpt lat="49.21128" lon="-0.02395">
        <ele>120.2</ele>
        <time>2024-03-20T18:03:12Z</time>
      </trkpt>
      <trkpt lat="49.21134" lon="-0.02407">
        <ele>119.8</ele>
        <time>2024-03-20T18:03:13Z</time>
      </trkpt>
      <trkpt lat="49.2114" lon="-0.02419">
        <ele>119.4</ele>
        <time>2024-03-20T18:03:14Z</time>
      </trkpt>
      <trkpt lat="49.21146" lon="-0.0243">
        <ele>119</ele>
        <time>2024-03-20T18:03:15Z</time>
      </trkpt>
      <trkpt lat="49.21152" lon="-0.0244">
        <ele>118.4</ele>
        <time>2024-03-20T18:03:16Z</time>
      </trkpt>
      <trkpt lat="49.21158" lon="-0.02449">
        <ele>118</ele>
        <time>2024-03-20T18:03:17Z</time>
      </trkpt>
      <trkpt lat="49.21163" lon="-0.02456">
        <ele>117.8</ele>
        <time>2024-03-20T18:03:18Z</time>
      </trkpt>
      <trkpt lat="49.21169" lon="-0.02464">
        <ele>117.8</ele>
        <time>2024-03-20T18:03:19Z</time>
      </trkpt>
      <trkpt lat="49.21175" lon="-0.02472">
        <ele>117.8</ele>
        <time>2024-03-20T18:03:20Z</time>
      </trkpt>
      <trkpt lat="49.21181" lon="-0.02479">
        <ele>117.8</ele>
        <time>2024-03-20T18:03:21Z</time>
      </trkpt>
      <trkpt lat="49.21188" lon="-0.02488">
        <ele>117.6</ele>
        <time>2024-03-20T18:03:22Z</time>
      </trkpt>
      <trkpt lat="49.21194" lon="-0.02494">
        <ele>117.6</ele>
        <time>2024-03-20T18:03:23Z</time>
      </trkpt>
      <trkpt lat="49.21199" lon="-0.02499">
        <ele>117.4</ele>
        <time>2024-03-20T18:03:24Z</time>
      </trkpt>
      <trkpt lat="49.21207" lon="-0.02505">
        <ele>117.4</ele>
        <time>2024-03-20T18:03:25Z</time>
      </trkpt>
      <trkpt lat="49.21213" lon="-0.0251">
        <ele>117.4</ele>
        <time>2024-03-20T18:03:26Z</time>
      </trkpt>
      <trkpt lat="49.21219" lon="-0.02515">
        <ele>117.6</ele>
        <time>2024-03-20T18:03:27Z</time>
      </trkpt>
      <trkpt lat="49.21228" lon="-0.0252">
        <ele>117.6</ele>
        <time>2024-03-20T18:03:28Z</time>
      </trkpt>
      <trkpt lat="49.21234" lon="-0.02524">
        <ele>117.8</ele>
        <time>2024-03-20T18:03:29Z</time>
      </trkpt>
      <trkpt lat="49.21241" lon="-0.02528">
        <ele>118</ele>
        <time>2024-03-20T18:03:30Z</time>
      </trkpt>
      <trkpt lat="49.21248" lon="-0.02532">
        <ele>118.2</ele>
        <time>2024-03-20T18:03:31Z</time>
      </trkpt>
      <trkpt lat="49.21256" lon="-0.02536">
        <ele>118.4</ele>
        <time>2024-03-20T18:03:32Z</time>
      </trkpt>
      <trkpt lat="49.21263" lon="-0.0254">
        <ele>118.4</ele>
        <time>2024-03-20T18:03:33Z</time>
      </trkpt>
      <trkpt lat="49.21271" lon="-0.02544">
        <ele>118.4</ele>
        <time>2024-03-20T18:03:34Z</time>
      </trkpt>
      <trkpt lat="49.21278" lon="-0.02547">
        <ele>118.4</ele>
        <time>2024-03-20T18:03:35Z</time>
      </trkpt>
      <trkpt lat="49.21287" lon="-0.02552">
        <ele>118.4</ele>
        <time>2024-03-20T18:03:36Z</time>
      </trkpt>
      <trkpt lat="49.21293" lon="-0.02554">
        <ele>118.4</ele>
        <time>2024-03-20T18:03:37Z</time>
      </trkpt>
      <trkpt lat="49.21301" lon="-0.02558">
        <ele>118.4</ele>
        <time>2024-03-20T18:03:38Z</time>
      </trkpt>
      <trkpt lat="49.21309" lon="-0.02562">
        <ele>118.4</ele>
        <time>2024-03-20T18:03:39Z</time>
      </trkpt>
      <trkpt lat="49.21316" lon="-0.02565">
        <ele>118.4</ele>
        <time>2024-03-20T18:03:40Z</time>
      </trkpt>
      <trkpt lat="49.21322" lon="-0.02568">
        <ele>118.4</ele>
        <time>2024-03-20T18:03:41Z</time>
      </trkpt>
      <trkpt lat="49.21331" lon="-0.02572">
        <ele>118.4</ele>
        <time>2024-03-20T18:03:42Z</time>
      </trkpt>
      <trkpt lat="49.21338" lon="-0.02576">
        <ele>118.2</ele>
        <time>2024-03-20T18:03:43Z</time>
      </trkpt>
      <trkpt lat="49.21345" lon="-0.0258">
        <ele>118.2</ele>
        <time>2024-03-20T18:03:44Z</time>
      </trkpt>
      <trkpt lat="49.21353" lon="-0.02584">
        <ele>118.2</ele>
        <time>2024-03-20T18:03:45Z</time>
      </trkpt>
      <trkpt lat="49.2136" lon="-0.02588">
        <ele>118</ele>
        <time>2024-03-20T18:03:46Z</time>
      </trkpt>
      <trkpt lat="49.21367" lon="-0.02593">
        <ele>118</ele>
        <time>2024-03-20T18:03:47Z</time>
      </trkpt>
      <trkpt lat="49.21375" lon="-0.02597">
        <ele>118</ele>
        <time>2024-03-20T18:03:48Z</time>
      </trkpt>
      <trkpt lat="49.21382" lon="-0.02603">
        <ele>118</ele>
        <time>2024-03-20T18:03:49Z</time>
      </trkpt>
      <trkpt lat="49.21388" lon="-0.02607">
        <ele>118</ele>
        <time>2024-03-20T18:03:50Z</time>
      </trkpt>
      <trkpt lat="49.21395" lon="-0.02612">
        <ele>117.8</ele>
        <time>2024-03-20T18:03:51Z</time>
      </trkpt>
      <trkpt lat="49.21402" lon="-0.02618">
        <ele>117.8</ele>
        <time>2024-03-20T18:03:52Z</time>
      </trkpt>
      <trkpt lat="49.21411" lon="-0.02625">
        <ele>117.8</ele>
        <time>2024-03-20T18:03:53Z</time>
      </trkpt>
      <trkpt lat="49.21418" lon="-0.0263">
        <ele>117.8</ele>
        <time>2024-03-20T18:03:54Z</time>
      </trkpt>
      <trkpt lat="49.21423" lon="-0.02635">
        <ele>117.6</ele>
        <time>2024-03-20T18:03:55Z</time>
      </trkpt>
      <trkpt lat="49.21431" lon="-0.02641">
        <ele>117.4</ele>
        <time>2024-03-20T18:03:56Z</time>
      </trkpt>
      <trkpt lat="49.21438" lon="-0.02647">
        <ele>117.2</ele>
        <time>2024-03-20T18:03:57Z</time>
      </trkpt>
      <trkpt lat="49.21445" lon="-0.02652">
        <ele>117.2</ele>
        <time>2024-03-20T18:03:58Z</time>
      </trkpt>
      <trkpt lat="49.21452" lon="-0.02658">
        <ele>117</ele>
        <time>2024-03-20T18:03:59Z</time>
      </trkpt>
      <trkpt lat="49.2146" lon="-0.02664">
        <ele>116.8</ele>
        <time>2024-03-20T18:04:00Z</time>
      </trkpt>
      <trkpt lat="49.21468" lon="-0.02671">
        <ele>116.8</ele>
        <time>2024-03-20T18:04:01Z</time>
      </trkpt>
      <trkpt lat="49.21475" lon="-0.02677">
        <ele>116.6</ele>
        <time>2024-03-20T18:04:02Z</time>
      </trkpt>
      <trkpt lat="49.21483" lon="-0.02683">
        <ele>116.4</ele>
        <time>2024-03-20T18:04:03Z</time>
      </trkpt>
      <trkpt lat="49.2149" lon="-0.02689">
        <ele>116.2</ele>
        <time>2024-03-20T18:04:04Z</time>
      </trkpt>
      <trkpt lat="49.21498" lon="-0.02695">
        <ele>116</ele>
        <time>2024-03-20T18:04:05Z</time>
      </trkpt>
      <trkpt lat="49.21505" lon="-0.02701">
        <ele>116</ele>
        <time>2024-03-20T18:04:06Z</time>
      </trkpt>
      <trkpt lat="49.21513" lon="-0.02707">
        <ele>115.4</ele>
        <time>2024-03-20T18:04:07Z</time>
      </trkpt>
      <trkpt lat="49.21521" lon="-0.02714">
        <ele>115.2</ele>
        <time>2024-03-20T18:04:08Z</time>
      </trkpt>
      <trkpt lat="49.21529" lon="-0.0272">
        <ele>115</ele>
        <time>2024-03-20T18:04:09Z</time>
      </trkpt>
      <trkpt lat="49.21537" lon="-0.02726">
        <ele>114.8</ele>
        <time>2024-03-20T18:04:10Z</time>
      </trkpt>
      <trkpt lat="49.21545" lon="-0.02733">
        <ele>114.6</ele>
        <time>2024-03-20T18:04:11Z</time>
      </trkpt>
      <trkpt lat="49.21553" lon="-0.0274">
        <ele>114.2</ele>
        <time>2024-03-20T18:04:12Z</time>
      </trkpt>
      <trkpt lat="49.21562" lon="-0.02747">
        <ele>114</ele>
        <time>2024-03-20T18:04:13Z</time>
      </trkpt>
      <trkpt lat="49.21571" lon="-0.02753">
        <ele>113.6</ele>
        <time>2024-03-20T18:04:14Z</time>
      </trkpt>
      <trkpt lat="49.2158" lon="-0.02759">
        <ele>113.4</ele>
        <time>2024-03-20T18:04:15Z</time>
      </trkpt>
      <trkpt lat="49.21588" lon="-0.02764">
        <ele>113.2</ele>
        <time>2024-03-20T18:04:16Z</time>
      </trkpt>
      <trkpt lat="49.21599" lon="-0.02769">
        <ele>112.6</ele>
        <time>2024-03-20T18:04:17Z</time>
      </trkpt>
      <trkpt lat="49.2161" lon="-0.02773">
        <ele>112.4</ele>
        <time>2024-03-20T18:04:18Z</time>
      </trkpt>
      <trkpt lat="49.21622" lon="-0.02777">
        <ele>112</ele>
        <time>2024-03-20T18:04:19Z</time>
      </trkpt>
      <trkpt lat="49.21634" lon="-0.0278">
        <ele>111.8</ele>
        <time>2024-03-20T18:04:20Z</time>
      </trkpt>
      <trkpt lat="49.21649" lon="-0.02782">
        <ele>111.6</ele>
        <time>2024-03-20T18:04:21Z</time>
      </trkpt>
      <trkpt lat="49.21662" lon="-0.02782">
        <ele>111</ele>
        <time>2024-03-20T18:04:22Z</time>
      </trkpt>
      <trkpt lat="49.21673" lon="-0.0278">
        <ele>110</ele>
        <time>2024-03-20T18:04:23Z</time>
      </trkpt>
      <trkpt lat="49.21687" lon="-0.02777">
        <ele>109</ele>
        <time>2024-03-20T18:04:24Z</time>
      </trkpt>
      <trkpt lat="49.21701" lon="-0.02773">
        <ele>108</ele>
        <time>2024-03-20T18:04:25Z</time>
      </trkpt>
      <trkpt lat="49.21718" lon="-0.02766">
        <ele>107</ele>
        <time>2024-03-20T18:04:26Z</time>
      </trkpt>
      <trkpt lat="49.21733" lon="-0.02759">
        <ele>105.6</ele>
        <time>2024-03-20T18:04:27Z</time>
      </trkpt>
      <trkpt lat="49.21745" lon="-0.02754">
        <ele>104</ele>
        <time>2024-03-20T18:04:28Z</time>
      </trkpt>
      <trkpt lat="49.2176" lon="-0.02748">
        <ele>102.6</ele>
        <time>2024-03-20T18:04:29Z</time>
      </trkpt>
      <trkpt lat="49.21776" lon="-0.02742">
        <ele>100.8</ele>
        <time>2024-03-20T18:04:30Z</time>
      </trkpt>
      <trkpt lat="49.21792" lon="-0.02737">
        <ele>99.4</ele>
        <time>2024-03-20T18:04:31Z</time>
      </trkpt>
      <trkpt lat="49.21808" lon="-0.02732">
        <ele>97.8</ele>
        <time>2024-03-20T18:04:32Z</time>
      </trkpt>
      <trkpt lat="49.21828" lon="-0.02726">
        <ele>96</ele>
        <time>2024-03-20T18:04:33Z</time>
      </trkpt>
      <trkpt lat="49.21845" lon="-0.02721">
        <ele>94.4</ele>
        <time>2024-03-20T18:04:34Z</time>
      </trkpt>
      <trkpt lat="49.21862" lon="-0.02717">
        <ele>92.8</ele>
        <time>2024-03-20T18:04:35Z</time>
      </trkpt>
      <trkpt lat="49.21879" lon="-0.02711">
        <ele>91</ele>
        <time>2024-03-20T18:04:36Z</time>
      </trkpt>
      <trkpt lat="49.21896" lon="-0.02706">
        <ele>89</ele>
        <time>2024-03-20T18:04:37Z</time>
      </trkpt>
      <trkpt lat="49.21913" lon="-0.02701">
        <ele>87.4</ele>
        <time>2024-03-20T18:04:38Z</time>
      </trkpt>
      <trkpt lat="49.21929" lon="-0.02696">
        <ele>85.6</ele>
        <time>2024-03-20T18:04:39Z</time>
      </trkpt>
      <trkpt lat="49.21946" lon="-0.02691">
        <ele>83.6</ele>
        <time>2024-03-20T18:04:40Z</time>
      </trkpt>
      <trkpt lat="49.2196" lon="-0.02687">
        <ele>81.6</ele>
        <time>2024-03-20T18:04:41Z</time>
      </trkpt>
      <trkpt lat="49.21976" lon="-0.02684">
        <ele>79.4</ele>
        <time>2024-03-20T18:04:42Z</time>
      </trkpt>
      <trkpt lat="49.21993" lon="-0.0268">
        <ele>76.8</ele>
        <time>2024-03-20T18:04:43Z</time>
      </trkpt>
      <trkpt lat="49.22009" lon="-0.02678">
        <ele>74.4</ele>
        <time>2024-03-20T18:04:44Z</time>
      </trkpt>
      <trkpt lat="49.22026" lon="-0.02676">
        <ele>71.8</ele>
        <time>2024-03-20T18:04:45Z</time>
      </trkpt>
      <trkpt lat="49.22042" lon="-0.02675">
        <ele>69.6</ele>
        <time>2024-03-20T18:04:46Z</time>
      </trkpt>
      <trkpt lat="49.22062" lon="-0.02676">
        <ele>67.6</ele>
        <time>2024-03-20T18:04:47Z</time>
      </trkpt>
      <trkpt lat="49.22079" lon="-0.02681">
        <ele>65.4</ele>
        <time>2024-03-20T18:04:48Z</time>
      </trkpt>
      <trkpt lat="49.22091" lon="-0.02687">
        <ele>63.4</ele>
        <time>2024-03-20T18:04:49Z</time>
      </trkpt>
      <trkpt lat="49.22105" lon="-0.02698">
        <ele>61.8</ele>
        <time>2024-03-20T18:04:50Z</time>
      </trkpt>
      <trkpt lat="49.2212" lon="-0.02713">
        <ele>59.2</ele>
        <time>2024-03-20T18:04:51Z</time>
      </trkpt>
      <trkpt lat="49.22133" lon="-0.02725">
        <ele>58</ele>
        <time>2024-03-20T18:04:52Z</time>
      </trkpt>
      <trkpt lat="49.22146" lon="-0.02737">
        <ele>56.8</ele>
        <time>2024-03-20T18:04:53Z</time>
      </trkpt>
      <trkpt lat="49.22156" lon="-0.02746">
        <ele>55.4</ele>
        <time>2024-03-20T18:04:54Z</time>
      </trkpt>
      <trkpt lat="49.2217" lon="-0.02755">
        <ele>54.2</ele>
        <time>2024-03-20T18:04:55Z</time>
      </trkpt>
      <trkpt lat="49.22187" lon="-0.02765">
        <ele>53.2</ele>
        <time>2024-03-20T18:04:56Z</time>
      </trkpt>
      <trkpt lat="49.22201" lon="-0.02773">
        <ele>52.2</ele>
        <time>2024-03-20T18:04:57Z</time>
      </trkpt>
      <trkpt lat="49.22215" lon="-0.02781">
        <ele>51.2</ele>
        <time>2024-03-20T18:04:58Z</time>
      </trkpt>
      <trkpt lat="49.22227" lon="-0.02787">
        <ele>50.2</ele>
        <time>2024-03-20T18:04:59Z</time>
      </trkpt>
      <trkpt lat="49.22242" lon="-0.02793">
        <ele>49.4</ele>
        <time>2024-03-20T18:05:00Z</time>
      </trkpt>
      <trkpt lat="49.22257" lon="-0.02799">
        <ele>48.6</ele>
        <time>2024-03-20T18:05:01Z</time>
      </trkpt>
      <trkpt lat="49.22274" lon="-0.02807">
        <ele>47.8</ele>
        <time>2024-03-20T18:05:02Z</time>
      </trkpt>
      <trkpt lat="49.22289" lon="-0.02813">
        <ele>46.6</ele>
        <time>2024-03-20T18:05:03Z</time>
      </trkpt>
      <trkpt lat="49.22304" lon="-0.02819">
        <ele>45.2</ele>
        <time>2024-03-20T18:05:04Z</time>
      </trkpt>
      <trkpt lat="49.22318" lon="-0.02824">
        <ele>44.2</ele>
        <time>2024-03-20T18:05:05Z</time>
      </trkpt>
      <trkpt lat="49.2233" lon="-0.02828">
        <ele>42.4</ele>
        <time>2024-03-20T18:05:06Z</time>
      </trkpt>
      <trkpt lat="49.22346" lon="-0.02835">
        <ele>41.4</ele>
        <time>2024-03-20T18:05:07Z</time>
      </trkpt>
      <trkpt lat="49.22359" lon="-0.0284">
        <ele>40.2</ele>
        <time>2024-03-20T18:05:08Z</time>
      </trkpt>
      <trkpt lat="49.22372" lon="-0.02846">
        <ele>38.8</ele>
        <time>2024-03-20T18:05:09Z</time>
      </trkpt>
      <trkpt lat="49.22383" lon="-0.02852">
        <ele>37.8</ele>
        <time>2024-03-20T18:05:10Z</time>
      </trkpt>
      <trkpt lat="49.22397" lon="-0.0286">
        <ele>37</ele>
        <time>2024-03-20T18:05:11Z</time>
      </trkpt>
      <trkpt lat="49.22409" lon="-0.02868">
        <ele>35.6</ele>
        <time>2024-03-20T18:05:12Z</time>
      </trkpt>
      <trkpt lat="49.2242" lon="-0.02877">
        <ele>34.8</ele>
        <time>2024-03-20T18:05:13Z</time>
      </trkpt>
      <trkpt lat="49.22432" lon="-0.02886">
        <ele>33.6</ele>
        <time>2024-03-20T18:05:14Z</time>
      </trkpt>
      <trkpt lat="49.22444" lon="-0.02896">
        <ele>32.6</ele>
        <time>2024-03-20T18:05:15Z</time>
      </trkpt>
      <trkpt lat="49.22455" lon="-0.02906">
        <ele>31.8</ele>
        <time>2024-03-20T18:05:16Z</time>
      </trkpt>
      <trkpt lat="49.22466" lon="-0.02917">
        <ele>31.4</ele>
        <time>2024-03-20T18:05:17Z</time>
      </trkpt>
      <trkpt lat="49.22477" lon="-0.02928">
        <ele>31.2</ele>
        <time>2024-03-20T18:05:18Z</time>
      </trkpt>
      <trkpt lat="49.22487" lon="-0.0294">
        <ele>31</ele>
        <time>2024-03-20T18:05:19Z</time>
      </trkpt>
      <trkpt lat="49.22497" lon="-0.02952">
        <ele>30.6</ele>
        <time>2024-03-20T18:05:20Z</time>
      </trkpt>
      <trkpt lat="49.22507" lon="-0.02965">
        <ele>30.4</ele>
        <time>2024-03-20T18:05:21Z</time>
      </trkpt>
      <trkpt lat="49.22516" lon="-0.02977">
        <ele>30.2</ele>
        <time>2024-03-20T18:05:22Z</time>
      </trkpt>
      <trkpt lat="49.22526" lon="-0.02989">
        <ele>30</ele>
        <time>2024-03-20T18:05:23Z</time>
      </trkpt>
      <trkpt lat="49.22535" lon="-0.03001">
        <ele>29.8</ele>
        <time>2024-03-20T18:05:24Z</time>
      </trkpt>
      <trkpt lat="49.22544" lon="-0.03013">
        <ele>29.4</ele>
        <time>2024-03-20T18:05:25Z</time>
      </trkpt>
      <trkpt lat="49.22553" lon="-0.03025">
        <ele>28.6</ele>
        <time>2024-03-20T18:05:26Z</time>
      </trkpt>
      <trkpt lat="49.22561" lon="-0.03037">
        <ele>27.6</ele>
        <time>2024-03-20T18:05:27Z</time>
      </trkpt>
      <trkpt lat="49.22568" lon="-0.03051">
        <ele>26.8</ele>
        <time>2024-03-20T18:05:28Z</time>
      </trkpt>
      <trkpt lat="49.22574" lon="-0.03064">
        <ele>26.2</ele>
        <time>2024-03-20T18:05:29Z</time>
      </trkpt>
      <trkpt lat="49.2258" lon="-0.03078">
        <ele>26</ele>
        <time>2024-03-20T18:05:30Z</time>
      </trkpt>
      <trkpt lat="49.22584" lon="-0.03093">
        <ele>25.4</ele>
        <time>2024-03-20T18:05:31Z</time>
      </trkpt>
      <trkpt lat="49.22587" lon="-0.03108">
        <ele>24.8</ele>
        <time>2024-03-20T18:05:32Z</time>
      </trkpt>
      <trkpt lat="49.22591" lon="-0.03123">
        <ele>24.2</ele>
        <time>2024-03-20T18:05:33Z</time>
      </trkpt>
      <trkpt lat="49.22593" lon="-0.03138">
        <ele>23.6</ele>
        <time>2024-03-20T18:05:34Z</time>
      </trkpt>
      <trkpt lat="49.22597" lon="-0.03152">
        <ele>23</ele>
        <time>2024-03-20T18:05:35Z</time>
      </trkpt>
      <trkpt lat="49.226" lon="-0.03166">
        <ele>22.6</ele>
        <time>2024-03-20T18:05:36Z</time>
      </trkpt>
      <trkpt lat="49.22604" lon="-0.0318">
        <ele>21.8</ele>
        <time>2024-03-20T18:05:37Z</time>
      </trkpt>
      <trkpt lat="49.22609" lon="-0.03194">
        <ele>21.4</ele>
        <time>2024-03-20T18:05:38Z</time>
      </trkpt>
      <trkpt lat="49.22614" lon="-0.03207">
        <ele>21.2</ele>
        <time>2024-03-20T18:05:39Z</time>
      </trkpt>
      <trkpt lat="49.22619" lon="-0.03219">
        <ele>21.2</ele>
        <time>2024-03-20T18:05:40Z</time>
      </trkpt>
      <trkpt lat="49.22625" lon="-0.03231">
        <ele>21</ele>
        <time>2024-03-20T18:05:41Z</time>
      </trkpt>
      <trkpt lat="49.2263" lon="-0.03243">
        <ele>21</ele>
        <time>2024-03-20T18:05:42Z</time>
      </trkpt>
      <trkpt lat="49.22636" lon="-0.03254">
        <ele>21</ele>
        <time>2024-03-20T18:05:43Z</time>
      </trkpt>
      <trkpt lat="49.22641" lon="-0.03265">
        <ele>21</ele>
        <time>2024-03-20T18:05:44Z</time>
      </trkpt>
      <trkpt lat="49.22647" lon="-0.03277">
        <ele>21</ele>
        <time>2024-03-20T18:05:45Z</time>
      </trkpt>
      <trkpt lat="49.22652" lon="-0.03288">
        <ele>21</ele>
        <time>2024-03-20T18:05:46Z</time>
      </trkpt>
      <trkpt lat="49.22657" lon="-0.03299">
        <ele>21</ele>
        <time>2024-03-20T18:05:47Z</time>
      </trkpt>
      <trkpt lat="49.22662" lon="-0.03309">
        <ele>21</ele>
        <time>2024-03-20T18:05:48Z</time>
      </trkpt>
      <trkpt lat="49.22667" lon="-0.0332">
        <ele>21</ele>
        <time>2024-03-20T18:05:49Z</time>
      </trkpt>
      <trkpt lat="49.22672" lon="-0.03331">
        <ele>21</ele>
        <time>2024-03-20T18:05:50Z</time>
      </trkpt>
      <trkpt lat="49.22677" lon="-0.03341">
        <ele>21</ele>
        <time>2024-03-20T18:05:51Z</time>
      </trkpt>
      <trkpt lat="49.22682" lon="-0.03351">
        <ele>21</ele>
        <time>2024-03-20T18:05:52Z</time>
      </trkpt>
      <trkpt lat="49.22687" lon="-0.03361">
        <ele>21</ele>
        <time>2024-03-20T18:05:53Z</time>
      </trkpt>
      <trkpt lat="49.22691" lon="-0.03372">
        <ele>21.2</ele>
        <time>2024-03-20T18:05:54Z</time>
      </trkpt>
      <trkpt lat="49.22696" lon="-0.03382">
        <ele>21.4</ele>
        <time>2024-03-20T18:05:55Z</time>
      </trkpt>
      <trkpt lat="49.227" lon="-0.03393">
        <ele>21.4</ele>
        <time>2024-03-20T18:05:56Z</time>
      </trkpt>
      <trkpt lat="49.22705" lon="-0.03403">
        <ele>21.8</ele>
        <time>2024-03-20T18:05:57Z</time>
      </trkpt>
      <trkpt lat="49.2271" lon="-0.03413">
        <ele>22</ele>
        <time>2024-03-20T18:05:58Z</time>
      </trkpt>
      <trkpt lat="49.22714" lon="-0.03424">
        <ele>22.4</ele>
        <time>2024-03-20T18:05:59Z</time>
      </trkpt>
      <trkpt lat="49.22719" lon="-0.03434">
        <ele>22.6</ele>
        <time>2024-03-20T18:06:00Z</time>
      </trkpt>
      <trkpt lat="49.22724" lon="-0.03444">
        <ele>22.8</ele>
        <time>2024-03-20T18:06:01Z</time>
      </trkpt>
      <trkpt lat="49.22729" lon="-0.03454">
        <ele>23.4</ele>
        <time>2024-03-20T18:06:02Z</time>
      </trkpt>
      <trkpt lat="49.22734" lon="-0.03464">
        <ele>23.8</ele>
        <time>2024-03-20T18:06:03Z</time>
      </trkpt>
      <trkpt lat="49.22739" lon="-0.03475">
        <ele>24.2</ele>
        <time>2024-03-20T18:06:04Z</time>
      </trkpt>
      <trkpt lat="49.22743" lon="-0.03485">
        <ele>24.2</ele>
        <time>2024-03-20T18:06:05Z</time>
      </trkpt>
      <trkpt lat="49.22748" lon="-0.03496">
        <ele>24.4</ele>
        <time>2024-03-20T18:06:06Z</time>
      </trkpt>
      <trkpt lat="49.22753" lon="-0.03506">
        <ele>24.8</ele>
        <time>2024-03-20T18:06:07Z</time>
      </trkpt>
      <trkpt lat="49.22758" lon="-0.03516">
        <ele>25</ele>
        <time>2024-03-20T18:06:08Z</time>
      </trkpt>
      <trkpt lat="49.22762" lon="-0.03527">
        <ele>25</ele>
        <time>2024-03-20T18:06:09Z</time>
      </trkpt>
      <trkpt lat="49.22767" lon="-0.03537">
        <ele>25.2</ele>
        <time>2024-03-20T18:06:10Z</time>
      </trkpt>
      <trkpt lat="49.22772" lon="-0.03547">
        <ele>25.2</ele>
        <time>2024-03-20T18:06:11Z</time>
      </trkpt>
      <trkpt lat="49.22777" lon="-0.03557">
        <ele>25.4</ele>
        <time>2024-03-20T18:06:12Z</time>
      </trkpt>
      <trkpt lat="49.22781" lon="-0.03567">
        <ele>25.4</ele>
        <time>2024-03-20T18:06:13Z</time>
      </trkpt>
      <trkpt lat="49.22785" lon="-0.03577">
        <ele>25.6</ele>
        <time>2024-03-20T18:06:14Z</time>
      </trkpt>
      <trkpt lat="49.2279" lon="-0.03587">
        <ele>25.6</ele>
        <time>2024-03-20T18:06:15Z</time>
      </trkpt>
      <trkpt lat="49.22795" lon="-0.03597">
        <ele>25.8</ele>
        <time>2024-03-20T18:06:16Z</time>
      </trkpt>
      <trkpt lat="49.22799" lon="-0.03607">
        <ele>26</ele>
        <time>2024-03-20T18:06:17Z</time>
      </trkpt>
      <trkpt lat="49.22804" lon="-0.03617">
        <ele>26</ele>
        <time>2024-03-20T18:06:18Z</time>
      </trkpt>
      <trkpt lat="49.22809" lon="-0.03627">
        <ele>26</ele>
        <time>2024-03-20T18:06:19Z</time>
      </trkpt>
      <trkpt lat="49.22814" lon="-0.03637">
        <ele>26</ele>
        <time>2024-03-20T18:06:20Z</time>
      </trkpt>
      <trkpt lat="49.22818" lon="-0.03647">
        <ele>26</ele>
        <time>2024-03-20T18:06:21Z</time>
      </trkpt>
      <trkpt lat="49.22823" lon="-0.03657">
        <ele>26</ele>
        <time>2024-03-20T18:06:22Z</time>
      </trkpt>
      <trkpt lat="49.22827" lon="-0.03667">
        <ele>26</ele>
        <time>2024-03-20T18:06:23Z</time>
      </trkpt>
      <trkpt lat="49.22832" lon="-0.03677">
        <ele>26</ele>
        <time>2024-03-20T18:06:24Z</time>
      </trkpt>
      <trkpt lat="49.22836" lon="-0.03687">
        <ele>26</ele>
        <time>2024-03-20T18:06:25Z</time>
      </trkpt>
      <trkpt lat="49.2284" lon="-0.03697">
        <ele>26</ele>
        <time>2024-03-20T18:06:26Z</time>
      </trkpt>
      <trkpt lat="49.22845" lon="-0.03707">
        <ele>26</ele>
        <time>2024-03-20T18:06:27Z</time>
      </trkpt>
      <trkpt lat="49.2285" lon="-0.03716">
        <ele>26</ele>
        <time>2024-03-20T18:06:28Z</time>
      </trkpt>
      <trkpt lat="49.22854" lon="-0.03726">
        <ele>26</ele>
        <time>2024-03-20T18:06:29Z</time>
      </trkpt>
      <trkpt lat="49.22859" lon="-0.03735">
        <ele>26</ele>
        <time>2024-03-20T18:06:30Z</time>
      </trkpt>
      <trkpt lat="49.22863" lon="-0.03745">
        <ele>26</ele>
        <time>2024-03-20T18:06:31Z</time>
      </trkpt>
      <trkpt lat="49.22867" lon="-0.03754">
        <ele>26</ele>
        <time>2024-03-20T18:06:32Z</time>
      </trkpt>
      <trkpt lat="49.22871" lon="-0.03764">
        <ele>26</ele>
        <time>2024-03-20T18:06:33Z</time>
      </trkpt>
      <trkpt lat="49.22876" lon="-0.03774">
        <ele>26</ele>
        <time>2024-03-20T18:06:34Z</time>
      </trkpt>
      <trkpt lat="49.2288" lon="-0.03783">
        <ele>26</ele>
        <time>2024-03-20T18:06:35Z</time>
      </trkpt>
      <trkpt lat="49.22884" lon="-0.03792">
        <ele>26</ele>
        <time>2024-03-20T18:06:36Z</time>
      </trkpt>
      <trkpt lat="49.22888" lon="-0.03801">
        <ele>26</ele>
        <time>2024-03-20T18:06:37Z</time>
      </trkpt>
      <trkpt lat="49.22892" lon="-0.0381">
        <ele>26</ele>
        <time>2024-03-20T18:06:38Z</time>
      </trkpt>
      <trkpt lat="49.22896" lon="-0.03818">
        <ele>26</ele>
        <time>2024-03-20T18:06:39Z</time>
      </trkpt>
      <trkpt lat="49.229" lon="-0.03827">
        <ele>26</ele>
        <time>2024-03-20T18:06:40Z</time>
      </trkpt>
      <trkpt lat="49.22904" lon="-0.03835">
        <ele>25.8</ele>
        <time>2024-03-20T18:06:41Z</time>
      </trkpt>
      <trkpt lat="49.22907" lon="-0.03844">
        <ele>25.6</ele>
        <time>2024-03-20T18:06:42Z</time>
      </trkpt>
      <trkpt lat="49.22911" lon="-0.03852">
        <ele>25.4</ele>
        <time>2024-03-20T18:06:43Z</time>
      </trkpt>
      <trkpt lat="49.22915" lon="-0.0386">
        <ele>25.4</ele>
        <time>2024-03-20T18:06:44Z</time>
      </trkpt>
      <trkpt lat="49.22919" lon="-0.03868">
        <ele>25.2</ele>
        <time>2024-03-20T18:06:45Z</time>
      </trkpt>
      <trkpt lat="49.22922" lon="-0.03876">
        <ele>25.2</ele>
        <time>2024-03-20T18:06:46Z</time>
      </trkpt>
      <trkpt lat="49.22926" lon="-0.03884">
        <ele>25</ele>
        <time>2024-03-20T18:06:47Z</time>
      </trkpt>
      <trkpt lat="49.2293" lon="-0.03892">
        <ele>24.8</ele>
        <time>2024-03-20T18:06:48Z</time>
      </trkpt>
      <trkpt lat="49.22933" lon="-0.039">
        <ele>24.8</ele>
        <time>2024-03-20T18:06:49Z</time>
      </trkpt>
      <trkpt lat="49.22937" lon="-0.03908">
        <ele>24.8</ele>
        <time>2024-03-20T18:06:50Z</time>
      </trkpt>
      <trkpt lat="49.2294" lon="-0.03915">
        <ele>24.6</ele>
        <time>2024-03-20T18:06:51Z</time>
      </trkpt>
      <trkpt lat="49.22943" lon="-0.03923">
        <ele>24.6</ele>
        <time>2024-03-20T18:06:52Z</time>
      </trkpt>
      <trkpt lat="49.22947" lon="-0.0393">
        <ele>24.4</ele>
        <time>2024-03-20T18:06:53Z</time>
      </trkpt>
      <trkpt lat="49.2295" lon="-0.03938">
        <ele>24.2</ele>
        <time>2024-03-20T18:06:54Z</time>
      </trkpt>
      <trkpt lat="49.22953" lon="-0.03945">
        <ele>24.2</ele>
        <time>2024-03-20T18:06:55Z</time>
      </trkpt>
      <trkpt lat="49.22957" lon="-0.03953">
        <ele>24.2</ele>
        <time>2024-03-20T18:06:56Z</time>
      </trkpt>
      <trkpt lat="49.22959" lon="-0.03961">
        <ele>24</ele>
        <time>2024-03-20T18:06:57Z</time>
      </trkpt>
      <trkpt lat="49.22962" lon="-0.03969">
        <ele>24</ele>
        <time>2024-03-20T18:06:58Z</time>
      </trkpt>
      <trkpt lat="49.22964" lon="-0.03978">
        <ele>24</ele>
        <time>2024-03-20T18:06:59Z</time>
      </trkpt>
      <trkpt lat="49.22967" lon="-0.03986">
        <ele>23.8</ele>
        <time>2024-03-20T18:07:00Z</time>
      </trkpt>
      <trkpt lat="49.2297" lon="-0.03994">
        <ele>23.8</ele>
        <time>2024-03-20T18:07:01Z</time>
      </trkpt>
      <trkpt lat="49.22974" lon="-0.04003">
        <ele>23.6</ele>
        <time>2024-03-20T18:07:02Z</time>
      </trkpt>
      <trkpt lat="49.22978" lon="-0.0401">
        <ele>23.6</ele>
        <time>2024-03-20T18:07:03Z</time>
      </trkpt>
      <trkpt lat="49.22983" lon="-0.04017">
        <ele>23.4</ele>
        <time>2024-03-20T18:07:04Z</time>
      </trkpt>
      <trkpt lat="49.22988" lon="-0.04023">
        <ele>23</ele>
        <time>2024-03-20T18:07:05Z</time>
      </trkpt>
      <trkpt lat="49.22993" lon="-0.04029">
        <ele>23</ele>
        <time>2024-03-20T18:07:06Z</time>
      </trkpt>
      <trkpt lat="49.22997" lon="-0.04037">
        <ele>22.8</ele>
        <time>2024-03-20T18:07:07Z</time>
      </trkpt>
      <trkpt lat="49.23001" lon="-0.04045">
        <ele>22.6</ele>
        <time>2024-03-20T18:07:08Z</time>
      </trkpt>
      <trkpt lat="49.23005" lon="-0.04053">
        <ele>22.4</ele>
        <time>2024-03-20T18:07:09Z</time>
      </trkpt>
      <trkpt lat="49.23009" lon="-0.04061">
        <ele>22.4</ele>
        <time>2024-03-20T18:07:10Z</time>
      </trkpt>
      <trkpt lat="49.23013" lon="-0.04068">
        <ele>22</ele>
        <time>2024-03-20T18:07:11Z</time>
      </trkpt>
      <trkpt lat="49.23016" lon="-0.04076">
        <ele>21.8</ele>
        <time>2024-03-20T18:07:12Z</time>
      </trkpt>
      <trkpt lat="49.2302" lon="-0.04085">
        <ele>21.6</ele>
        <time>2024-03-20T18:07:13Z</time>
      </trkpt>
      <trkpt lat="49.23023" lon="-0.04092">
        <ele>21.4</ele>
        <time>2024-03-20T18:07:14Z</time>
      </trkpt>
      <trkpt lat="49.23027" lon="-0.041">
        <ele>21.4</ele>
        <time>2024-03-20T18:07:15Z</time>
      </trkpt>
      <trkpt lat="49.2303" lon="-0.04107">
        <ele>21.2</ele>
        <time>2024-03-20T18:07:16Z</time>
      </trkpt>
      <trkpt lat="49.23034" lon="-0.04115">
        <ele>21.2</ele>
        <time>2024-03-20T18:07:17Z</time>
      </trkpt>
      <trkpt lat="49.23037" lon="-0.04122">
        <ele>21</ele>
        <time>2024-03-20T18:07:18Z</time>
      </trkpt>
      <trkpt lat="49.23041" lon="-0.0413">
        <ele>21</ele>
        <time>2024-03-20T18:07:19Z</time>
      </trkpt>
      <trkpt lat="49.23044" lon="-0.04137">
        <ele>21</ele>
        <time>2024-03-20T18:07:20Z</time>
      </trkpt>
      <trkpt lat="49.23048" lon="-0.04144">
        <ele>21</ele>
        <time>2024-03-20T18:07:21Z</time>
      </trkpt>
      <trkpt lat="49.23051" lon="-0.04152">
        <ele>21</ele>
        <time>2024-03-20T18:07:22Z</time>
      </trkpt>
      <trkpt lat="49.23054" lon="-0.04159">
        <ele>21</ele>
        <time>2024-03-20T18:07:23Z</time>
      </trkpt>
      <trkpt lat="49.23057" lon="-0.04167">
        <ele>20.8</ele>
        <time>2024-03-20T18:07:24Z</time>
      </trkpt>
      <trkpt lat="49.2306" lon="-0.04175">
        <ele>20.8</ele>
        <time>2024-03-20T18:07:25Z</time>
      </trkpt>
      <trkpt lat="49.23061" lon="-0.04184">
        <ele>20.8</ele>
        <time>2024-03-20T18:07:26Z</time>
      </trkpt>
      <trkpt lat="49.23061" lon="-0.04193">
        <ele>20.8</ele>
        <time>2024-03-20T18:07:27Z</time>
      </trkpt>
      <trkpt lat="49.2306" lon="-0.04202">
        <ele>20.6</ele>
        <time>2024-03-20T18:07:28Z</time>
      </trkpt>
      <trkpt lat="49.23059" lon="-0.04211">
        <ele>20.6</ele>
        <time>2024-03-20T18:07:29Z</time>
      </trkpt>
      <trkpt lat="49.23059" lon="-0.0422">
        <ele>20.6</ele>
        <time>2024-03-20T18:07:30Z</time>
      </trkpt>
      <trkpt lat="49.23059" lon="-0.04229">
        <ele>20.6</ele>
        <time>2024-03-20T18:07:31Z</time>
      </trkpt>
      <trkpt lat="49.23061" lon="-0.04238">
        <ele>20.6</ele>
        <time>2024-03-20T18:07:32Z</time>
      </trkpt>
      <trkpt lat="49.23064" lon="-0.04245">
        <ele>20.6</ele>
        <time>2024-03-20T18:07:33Z</time>
      </trkpt>
      <trkpt lat="49.23067" lon="-0.04252">
        <ele>20.6</ele>
        <time>2024-03-20T18:07:34Z</time>
      </trkpt>
      <trkpt lat="49.23071" lon="-0.04257">
        <ele>20.6</ele>
        <time>2024-03-20T18:07:35Z</time>
      </trkpt>
      <trkpt lat="49.23076" lon="-0.04261">
        <ele>20.6</ele>
        <time>2024-03-20T18:07:36Z</time>
      </trkpt>
      <trkpt lat="49.23081" lon="-0.04264">
        <ele>20.6</ele>
        <time>2024-03-20T18:07:37Z</time>
      </trkpt>
      <trkpt lat="49.23086" lon="-0.04266">
        <ele>20.8</ele>
        <time>2024-03-20T18:07:38Z</time>
      </trkpt>
      <trkpt lat="49.23092" lon="-0.04268">
        <ele>20.8</ele>
        <time>2024-03-20T18:07:39Z</time>
      </trkpt>
      <trkpt lat="49.23098" lon="-0.04269">
        <ele>20.8</ele>
        <time>2024-03-20T18:07:40Z</time>
      </trkpt>
      <trkpt lat="49.23103" lon="-0.04273">
        <ele>21</ele>
        <time>2024-03-20T18:07:41Z</time>
      </trkpt>
      <trkpt lat="49.23108" lon="-0.04278">
        <ele>21</ele>
        <time>2024-03-20T18:07:42Z</time>
      </trkpt>
      <trkpt lat="49.23112" lon="-0.04284">
        <ele>21.2</ele>
        <time>2024-03-20T18:07:43Z</time>
      </trkpt>
      <trkpt lat="49.23116" lon="-0.0429">
        <ele>21.2</ele>
        <time>2024-03-20T18:07:44Z</time>
      </trkpt>
      <trkpt lat="49.23119" lon="-0.04296">
        <ele>21.4</ele>
        <time>2024-03-20T18:07:45Z</time>
      </trkpt>
      <trkpt lat="49.23122" lon="-0.04302">
        <ele>21.4</ele>
        <time>2024-03-20T18:07:46Z</time>
      </trkpt>
      <trkpt lat="49.23125" lon="-0.04307">
        <ele>21.4</ele>
        <time>2024-03-20T18:07:47Z</time>
      </trkpt>
      <trkpt lat="49.23128" lon="-0.04311">
        <ele>21.6</ele>
        <time>2024-03-20T18:07:48Z</time>
      </trkpt>
      <trkpt lat="49.2313" lon="-0.04315">
        <ele>21.6</ele>
        <time>2024-03-20T18:07:49Z</time>
      </trkpt>
      <trkpt lat="49.23132" lon="-0.04319">
        <ele>21.6</ele>
        <time>2024-03-20T18:07:50Z</time>
      </trkpt>
      <trkpt lat="49.23134" lon="-0.04324">
        <ele>21.6</ele>
        <time>2024-03-20T18:07:51Z</time>
      </trkpt>
      <trkpt lat="49.23135" lon="-0.0433">
        <ele>21.6</ele>
        <time>2024-03-20T18:07:52Z</time>
      </trkpt>
      <trkpt lat="49.23135" lon="-0.04336">
        <ele>21.6</ele>
        <time>2024-03-20T18:07:53Z</time>
      </trkpt>
      <trkpt lat="49.23135" lon="-0.04342">
        <ele>21.8</ele>
        <time>2024-03-20T18:07:54Z</time>
      </trkpt>
      <trkpt lat="49.23134" lon="-0.04348">
        <ele>21.8</ele>
        <time>2024-03-20T18:07:55Z</time>
      </trkpt>
      <trkpt lat="49.23134" lon="-0.04353">
        <ele>21.8</ele>
        <time>2024-03-20T18:07:56Z</time>
      </trkpt>
      <trkpt lat="49.23133" lon="-0.04358">
        <ele>22</ele>
        <time>2024-03-20T18:07:57Z</time>
      </trkpt>
      <trkpt lat="49.23132" lon="-0.04363">
        <ele>22.2</ele>
        <time>2024-03-20T18:07:58Z</time>
      </trkpt>
      <trkpt lat="49.23131" lon="-0.04367">
        <ele>22.2</ele>
        <time>2024-03-20T18:07:59Z</time>
      </trkpt>
      <trkpt lat="49.2313" lon="-0.04371">
        <ele>22.2</ele>
        <time>2024-03-20T18:08:00Z</time>
      </trkpt>
      <trkpt lat="49.23129" lon="-0.04375">
        <ele>22.2</ele>
        <time>2024-03-20T18:08:01Z</time>
      </trkpt>
      <trkpt lat="49.23128" lon="-0.04378">
        <ele>22.4</ele>
        <time>2024-03-20T18:08:02Z</time>
      </trkpt>
      <trkpt lat="49.23127" lon="-0.04382">
        <ele>22.4</ele>
        <time>2024-03-20T18:08:03Z</time>
      </trkpt>
      <trkpt lat="49.23126" lon="-0.04385">
        <ele>22.4</ele>
        <time>2024-03-20T18:08:04Z</time>
      </trkpt>
      <trkpt lat="49.23125" lon="-0.04389">
        <ele>22.4</ele>
        <time>2024-03-20T18:08:05Z</time>
      </trkpt>
      <trkpt lat="49.23124" lon="-0.04392">
        <ele>22.4</ele>
        <time>2024-03-20T18:08:06Z</time>
      </trkpt>
      <trkpt lat="49.23123" lon="-0.04395">
        <ele>22.6</ele>
        <time>2024-03-20T18:08:07Z</time>
      </trkpt>
      <trkpt lat="49.23123" lon="-0.04399">
        <ele>22.6</ele>
        <time>2024-03-20T18:08:08Z</time>
      </trkpt>
      <trkpt lat="49.23123" lon="-0.04404">
        <ele>22.6</ele>
        <time>2024-03-20T18:08:09Z</time>
      </trkpt>
      <trkpt lat="49.23122" lon="-0.04409">
        <ele>22.6</ele>
        <time>2024-03-20T18:08:10Z</time>
      </trkpt>
      <trkpt lat="49.23121" lon="-0.04414">
        <ele>22.8</ele>
        <time>2024-03-20T18:08:11Z</time>
      </trkpt>
      <trkpt lat="49.2312" lon="-0.04419">
        <ele>22.8</ele>
        <time>2024-03-20T18:08:12Z</time>
      </trkpt>
      <trkpt lat="49.23118" lon="-0.04425">
        <ele>22.8</ele>
        <time>2024-03-20T18:08:13Z</time>
      </trkpt>
      <trkpt lat="49.23117" lon="-0.0443">
        <ele>22.8</ele>
        <time>2024-03-20T18:08:14Z</time>
      </trkpt>
      <trkpt lat="49.23116" lon="-0.04435">
        <ele>23</ele>
        <time>2024-03-20T18:08:15Z</time>
      </trkpt>
      <trkpt lat="49.23115" lon="-0.0444">
        <ele>23</ele>
        <time>2024-03-20T18:08:16Z</time>
      </trkpt>
      <trkpt lat="49.23114" lon="-0.04446">
        <ele>23</ele>
        <time>2024-03-20T18:08:17Z</time>
      </trkpt>
      <trkpt lat="49.23112" lon="-0.04452">
        <ele>23</ele>
        <time>2024-03-20T18:08:18Z</time>
      </trkpt>
      <trkpt lat="49.23111" lon="-0.04457">
        <ele>23</ele>
        <time>2024-03-20T18:08:19Z</time>
      </trkpt>
      <trkpt lat="49.2311" lon="-0.04463">
        <ele>23.2</ele>
        <time>2024-03-20T18:08:20Z</time>
      </trkpt>
      <trkpt lat="49.23108" lon="-0.04469">
        <ele>23.2</ele>
        <time>2024-03-20T18:08:21Z</time>
      </trkpt>
      <trkpt lat="49.23107" lon="-0.04475">
        <ele>23.2</ele>
        <time>2024-03-20T18:08:22Z</time>
      </trkpt>
      <trkpt lat="49.23106" lon="-0.04481">
        <ele>23.4</ele>
        <time>2024-03-20T18:08:23Z</time>
      </trkpt>
      <trkpt lat="49.23105" lon="-0.04487">
        <ele>23.4</ele>
        <time>2024-03-20T18:08:24Z</time>
      </trkpt>
      <trkpt lat="49.23103" lon="-0.04493">
        <ele>23.6</ele>
        <time>2024-03-20T18:08:25Z</time>
      </trkpt>
      <trkpt lat="49.23102" lon="-0.04499">
        <ele>23.6</ele>
        <time>2024-03-20T18:08:26Z</time>
      </trkpt>
      <trkpt lat="49.23101" lon="-0.04505">
        <ele>23.6</ele>
        <time>2024-03-20T18:08:27Z</time>
      </trkpt>
      <trkpt lat="49.231" lon="-0.04511">
        <ele>23.6</ele>
        <time>2024-03-20T18:08:28Z</time>
      </trkpt>
      <trkpt lat="49.23099" lon="-0.04517">
        <ele>23.8</ele>
        <time>2024-03-20T18:08:29Z</time>
      </trkpt>
      <trkpt lat="49.23097" lon="-0.04523">
        <ele>23.8</ele>
        <time>2024-03-20T18:08:30Z</time>
      </trkpt>
      <trkpt lat="49.23096" lon="-0.04529">
        <ele>23.8</ele>
        <time>2024-03-20T18:08:31Z</time>
      </trkpt>
      <trkpt lat="49.23094" lon="-0.04535">
        <ele>24</ele>
        <time>2024-03-20T18:08:32Z</time>
      </trkpt>
      <trkpt lat="49.23093" lon="-0.04541">
        <ele>24.2</ele>
        <time>2024-03-20T18:08:33Z</time>
      </trkpt>
      <trkpt lat="49.23092" lon="-0.04546">
        <ele>24.4</ele>
        <time>2024-03-20T18:08:34Z</time>
      </trkpt>
      <trkpt lat="49.2309" lon="-0.04552">
        <ele>24.4</ele>
        <time>2024-03-20T18:08:35Z</time>
      </trkpt>
      <trkpt lat="49.23089" lon="-0.04557">
        <ele>24.4</ele>
        <time>2024-03-20T18:08:36Z</time>
      </trkpt>
      <trkpt lat="49.23088" lon="-0.04562">
        <ele>24.6</ele>
        <time>2024-03-20T18:08:37Z</time>
      </trkpt>
      <trkpt lat="49.23087" lon="-0.04568">
        <ele>24.6</ele>
        <time>2024-03-20T18:08:38Z</time>
      </trkpt>
      <trkpt lat="49.23087" lon="-0.04573">
        <ele>24.6</ele>
        <time>2024-03-20T18:08:39Z</time>
      </trkpt>
      <trkpt lat="49.23087" lon="-0.04578">
        <ele>24.8</ele>
        <time>2024-03-20T18:08:40Z</time>
      </trkpt>
      <trkpt lat="49.23089" lon="-0.04584">
        <ele>24.8</ele>
        <time>2024-03-20T18:08:41Z</time>
      </trkpt>
      <trkpt lat="49.23091" lon="-0.04589">
        <ele>25</ele>
        <time>2024-03-20T18:08:42Z</time>
      </trkpt>
      <trkpt lat="49.23092" lon="-0.04596">
        <ele>25.2</ele>
        <time>2024-03-20T18:08:43Z</time>
      </trkpt>
      <trkpt lat="49.23092" lon="-0.04603">
        <ele>25.2</ele>
        <time>2024-03-20T18:08:44Z</time>
      </trkpt>
      <trkpt lat="49.23091" lon="-0.0461">
        <ele>25.2</ele>
        <time>2024-03-20T18:08:45Z</time>
      </trkpt>
      <trkpt lat="49.2309" lon="-0.04617">
        <ele>25.2</ele>
        <time>2024-03-20T18:08:46Z</time>
      </trkpt>
      <trkpt lat="49.23089" lon="-0.04624">
        <ele>25.2</ele>
        <time>2024-03-20T18:08:47Z</time>
      </trkpt>
      <trkpt lat="49.23088" lon="-0.04631">
        <ele>25.2</ele>
        <time>2024-03-20T18:08:48Z</time>
      </trkpt>
      <trkpt lat="49.23087" lon="-0.04638">
        <ele>25.2</ele>
        <time>2024-03-20T18:08:49Z</time>
      </trkpt>
      <trkpt lat="49.23085" lon="-0.04646">
        <ele>25.2</ele>
        <time>2024-03-20T18:08:50Z</time>
      </trkpt>
      <trkpt lat="49.23084" lon="-0.04653">
        <ele>25.2</ele>
        <time>2024-03-20T18:08:51Z</time>
      </trkpt>
      <trkpt lat="49.23082" lon="-0.04661">
        <ele>25.2</ele>
        <time>2024-03-20T18:08:52Z</time>
      </trkpt>
      <trkpt lat="49.23081" lon="-0.04669">
        <ele>25.2</ele>
        <time>2024-03-20T18:08:53Z</time>
      </trkpt>
      <trkpt lat="49.23079" lon="-0.04677">
        <ele>25.2</ele>
        <time>2024-03-20T18:08:54Z</time>
      </trkpt>
      <trkpt lat="49.23079" lon="-0.04686">
        <ele>25.2</ele>
        <time>2024-03-20T18:08:55Z</time>
      </trkpt>
      <trkpt lat="49.23079" lon="-0.04696">
        <ele>25</ele>
        <time>2024-03-20T18:08:56Z</time>
      </trkpt>
      <trkpt lat="49.23079" lon="-0.04706">
        <ele>24.8</ele>
        <time>2024-03-20T18:08:57Z</time>
      </trkpt>
      <trkpt lat="49.23082" lon="-0.04715">
        <ele>24.8</ele>
        <time>2024-03-20T18:08:58Z</time>
      </trkpt>
      <trkpt lat="49.23085" lon="-0.04723">
        <ele>24.8</ele>
        <time>2024-03-20T18:08:59Z</time>
      </trkpt>
      <trkpt lat="49.23089" lon="-0.04731">
        <ele>24.6</ele>
        <time>2024-03-20T18:09:00Z</time>
      </trkpt>
      <trkpt lat="49.23094" lon="-0.04735">
        <ele>24.4</ele>
        <time>2024-03-20T18:09:01Z</time>
      </trkpt>
      <trkpt lat="49.231" lon="-0.04737">
        <ele>24.4</ele>
        <time>2024-03-20T18:09:02Z</time>
      </trkpt>
      <trkpt lat="49.23106" lon="-0.04739">
        <ele>24.2</ele>
        <time>2024-03-20T18:09:03Z</time>
      </trkpt>
      <trkpt lat="49.23112" lon="-0.0474">
        <ele>24.2</ele>
        <time>2024-03-20T18:09:04Z</time>
      </trkpt>
      <trkpt lat="49.23118" lon="-0.04742">
        <ele>24</ele>
        <time>2024-03-20T18:09:05Z</time>
      </trkpt>
      <trkpt lat="49.23123" lon="-0.04744">
        <ele>23.8</ele>
        <time>2024-03-20T18:09:06Z</time>
      </trkpt>
      <trkpt lat="49.23128" lon="-0.04746">
        <ele>23.8</ele>
        <time>2024-03-20T18:09:07Z</time>
      </trkpt>
      <trkpt lat="49.23133" lon="-0.04749">
        <ele>23</ele>
        <time>2024-03-20T18:09:08Z</time>
      </trkpt>
      <trkpt lat="49.23137" lon="-0.04754">
        <ele>22.8</ele>
        <time>2024-03-20T18:09:09Z</time>
      </trkpt>
      <trkpt lat="49.2314" lon="-0.04761">
        <ele>22.6</ele>
        <time>2024-03-20T18:09:10Z</time>
      </trkpt>
      <trkpt lat="49.23142" lon="-0.04767">
        <ele>22.4</ele>
        <time>2024-03-20T18:09:11Z</time>
      </trkpt>
      <trkpt lat="49.23143" lon="-0.04774">
        <ele>22.4</ele>
        <time>2024-03-20T18:09:12Z</time>
      </trkpt>
      <trkpt lat="49.23142" lon="-0.04781">
        <ele>22.4</ele>
        <time>2024-03-20T18:09:13Z</time>
      </trkpt>
      <trkpt lat="49.23142" lon="-0.04788">
        <ele>22.4</ele>
        <time>2024-03-20T18:09:14Z</time>
      </trkpt>
      <trkpt lat="49.23142" lon="-0.04794">
        <ele>22.4</ele>
        <time>2024-03-20T18:09:15Z</time>
      </trkpt>
      <trkpt lat="49.23141" lon="-0.04801">
        <ele>22.4</ele>
        <time>2024-03-20T18:09:16Z</time>
      </trkpt>
      <trkpt lat="49.23141" lon="-0.04807">
        <ele>22.4</ele>
        <time>2024-03-20T18:09:17Z</time>
      </trkpt>
      <trkpt lat="49.2314" lon="-0.04814">
        <ele>22.4</ele>
        <time>2024-03-20T18:09:18Z</time>
      </trkpt>
      <trkpt lat="49.23139" lon="-0.0482">
        <ele>22.4</ele>
        <time>2024-03-20T18:09:19Z</time>
      </trkpt>
      <trkpt lat="49.23139" lon="-0.04827">
        <ele>22.4</ele>
        <time>2024-03-20T18:09:20Z</time>
      </trkpt>
      <trkpt lat="49.23138" lon="-0.04833">
        <ele>22.6</ele>
        <time>2024-03-20T18:09:21Z</time>
      </trkpt>
      <trkpt lat="49.23138" lon="-0.0484">
        <ele>22.8</ele>
        <time>2024-03-20T18:09:22Z</time>
      </trkpt>
      <trkpt lat="49.23138" lon="-0.04845">
        <ele>23.2</ele>
        <time>2024-03-20T18:09:23Z</time>
      </trkpt>
      <trkpt lat="49.23139" lon="-0.04851">
        <ele>23.6</ele>
        <time>2024-03-20T18:09:24Z</time>
      </trkpt>
      <trkpt lat="49.23139" lon="-0.04855">
        <ele>23.8</ele>
        <time>2024-03-20T18:09:25Z</time>
      </trkpt>
      <trkpt lat="49.2314" lon="-0.0486">
        <ele>24.2</ele>
        <time>2024-03-20T18:09:26Z</time>
      </trkpt>
      <trkpt lat="49.23141" lon="-0.04865">
        <ele>24.4</ele>
        <time>2024-03-20T18:09:27Z</time>
      </trkpt>
      <trkpt lat="49.23141" lon="-0.04869">
        <ele>25</ele>
        <time>2024-03-20T18:09:28Z</time>
      </trkpt>
      <trkpt lat="49.23142" lon="-0.04872">
        <ele>25.4</ele>
        <time>2024-03-20T18:09:29Z</time>
      </trkpt>
      <trkpt lat="49.23143" lon="-0.04876">
        <ele>25.8</ele>
        <time>2024-03-20T18:09:30Z</time>
      </trkpt>
      <trkpt lat="49.23144" lon="-0.04879">
        <ele>26</ele>
        <time>2024-03-20T18:09:31Z</time>
      </trkpt>
      <trkpt lat="49.23146" lon="-0.04883">
        <ele>26.4</ele>
        <time>2024-03-20T18:09:32Z</time>
      </trkpt>
      <trkpt lat="49.23147" lon="-0.04887">
        <ele>26.6</ele>
        <time>2024-03-20T18:09:33Z</time>
      </trkpt>
      <trkpt lat="49.23148" lon="-0.04891">
        <ele>26.6</ele>
        <time>2024-03-20T18:09:34Z</time>
      </trkpt>
      <trkpt lat="49.23149" lon="-0.04896">
        <ele>26.8</ele>
        <time>2024-03-20T18:09:35Z</time>
      </trkpt>
      <trkpt lat="49.2315" lon="-0.049">
        <ele>27</ele>
        <time>2024-03-20T18:09:36Z</time>
      </trkpt>
      <trkpt lat="49.23151" lon="-0.04905">
        <ele>27.2</ele>
        <time>2024-03-20T18:09:37Z</time>
      </trkpt>
      <trkpt lat="49.23152" lon="-0.04911">
        <ele>27.2</ele>
        <time>2024-03-20T18:09:38Z</time>
      </trkpt>
      <trkpt lat="49.23153" lon="-0.04916">
        <ele>27.4</ele>
        <time>2024-03-20T18:09:39Z</time>
      </trkpt>
      <trkpt lat="49.23155" lon="-0.04922">
        <ele>27.6</ele>
        <time>2024-03-20T18:09:40Z</time>
      </trkpt>
      <trkpt lat="49.23156" lon="-0.04927">
        <ele>27.6</ele>
        <time>2024-03-20T18:09:41Z</time>
      </trkpt>
      <trkpt lat="49.23157" lon="-0.04934">
        <ele>27.6</ele>
        <time>2024-03-20T18:09:42Z</time>
      </trkpt>
      <trkpt lat="49.23158" lon="-0.0494">
        <ele>27.6</ele>
        <time>2024-03-20T18:09:43Z</time>
      </trkpt>
      <trkpt lat="49.23159" lon="-0.04946">
        <ele>27.8</ele>
        <time>2024-03-20T18:09:44Z</time>
      </trkpt>
      <trkpt lat="49.23159" lon="-0.04952">
        <ele>27.8</ele>
        <time>2024-03-20T18:09:45Z</time>
      </trkpt>
      <trkpt lat="49.2316" lon="-0.04959">
        <ele>27.8</ele>
        <time>2024-03-20T18:09:46Z</time>
      </trkpt>
      <trkpt lat="49.23162" lon="-0.04965">
        <ele>27.8</ele>
        <time>2024-03-20T18:09:47Z</time>
      </trkpt>
      <trkpt lat="49.23163" lon="-0.04971">
        <ele>27.8</ele>
        <time>2024-03-20T18:09:48Z</time>
      </trkpt>
      <trkpt lat="49.23165" lon="-0.04978">
        <ele>28</ele>
        <time>2024-03-20T18:09:49Z</time>
      </trkpt>
      <trkpt lat="49.23166" lon="-0.04984">
        <ele>28.2</ele>
        <time>2024-03-20T18:09:50Z</time>
      </trkpt>
      <trkpt lat="49.23168" lon="-0.04991">
        <ele>28.2</ele>
        <time>2024-03-20T18:09:51Z</time>
      </trkpt>
      <trkpt lat="49.23169" lon="-0.04998">
        <ele>28.2</ele>
        <time>2024-03-20T18:09:52Z</time>
      </trkpt>
      <trkpt lat="49.23171" lon="-0.05005">
        <ele>28.2</ele>
        <time>2024-03-20T18:09:53Z</time>
      </trkpt>
      <trkpt lat="49.23172" lon="-0.05012">
        <ele>28.2</ele>
        <time>2024-03-20T18:09:54Z</time>
      </trkpt>
      <trkpt lat="49.23173" lon="-0.05019">
        <ele>28.2</ele>
        <time>2024-03-20T18:09:55Z</time>
      </trkpt>
      <trkpt lat="49.23174" lon="-0.05026">
        <ele>28.4</ele>
        <time>2024-03-20T18:09:56Z</time>
      </trkpt>
      <trkpt lat="49.23175" lon="-0.05032">
        <ele>28.4</ele>
        <time>2024-03-20T18:09:57Z</time>
      </trkpt>
      <trkpt lat="49.23176" lon="-0.05037">
        <ele>28.4</ele>
        <time>2024-03-20T18:09:58Z</time>
      </trkpt>
      <trkpt lat="49.23177" lon="-0.05041">
        <ele>28.4</ele>
        <time>2024-03-20T18:09:59Z</time>
      </trkpt>
      <trkpt lat="49.23178" lon="-0.05046">
        <ele>28.6</ele>
        <time>2024-03-20T18:10:00Z</time>
      </trkpt>
      <trkpt lat="49.23179" lon="-0.0505">
        <ele>28.6</ele>
        <time>2024-03-20T18:10:01Z</time>
      </trkpt>
      <trkpt lat="49.23179" lon="-0.05055">
        <ele>28.8</ele>
        <time>2024-03-20T18:10:02Z</time>
      </trkpt>
      <trkpt lat="49.2318" lon="-0.05058">
        <ele>28.8</ele>
        <time>2024-03-20T18:10:03Z</time>
      </trkpt>
      <trkpt lat="49.23181" lon="-0.05062">
        <ele>28.8</ele>
        <time>2024-03-20T18:10:04Z</time>
      </trkpt>
      <trkpt lat="49.23182" lon="-0.05064">
        <ele>29</ele>
        <time>2024-03-20T18:10:05Z</time>
      </trkpt>
      <trkpt lat="49.23182" lon="-0.05067">
        <ele>29</ele>
        <time>2024-03-20T18:10:06Z</time>
      </trkpt>
      <trkpt lat="49.23183" lon="-0.05071">
        <ele>29.2</ele>
        <time>2024-03-20T18:10:07Z</time>
      </trkpt>
      <trkpt lat="49.23184" lon="-0.05074">
        <ele>29</ele>
        <time>2024-03-20T18:10:08Z</time>
      </trkpt>
      <trkpt lat="49.23184" lon="-0.05078">
        <ele>29</ele>
        <time>2024-03-20T18:10:09Z</time>
      </trkpt>
      <trkpt lat="49.23185" lon="-0.05082">
        <ele>29</ele>
        <time>2024-03-20T18:10:10Z</time>
      </trkpt>
      <trkpt lat="49.23185" lon="-0.05086">
        <ele>29</ele>
        <time>2024-03-20T18:10:11Z</time>
      </trkpt>
      <trkpt lat="49.23186" lon="-0.05089">
        <ele>29.2</ele>
        <time>2024-03-20T18:10:12Z</time>
      </trkpt>
      <trkpt lat="49.23186" lon="-0.05092">
        <ele>29.2</ele>
        <time>2024-03-20T18:10:13Z</time>
      </trkpt>
      <trkpt lat="49.23186" lon="-0.05095">
        <ele>29.2</ele>
        <time>2024-03-20T18:10:14Z</time>
      </trkpt>
      <trkpt lat="49.23186" lon="-0.05099">
        <ele>29.2</ele>
        <time>2024-03-20T18:10:15Z</time>
      </trkpt>
      <trkpt lat="49.23187" lon="-0.05103">
        <ele>29.4</ele>
        <time>2024-03-20T18:10:16Z</time>
      </trkpt>
      <trkpt lat="49.23187" lon="-0.05107">
        <ele>29.2</ele>
        <time>2024-03-20T18:10:17Z</time>
      </trkpt>
      <trkpt lat="49.23188" lon="-0.0511">
        <ele>29.2</ele>
        <time>2024-03-20T18:10:18Z</time>
      </trkpt>
      <trkpt lat="49.2319" lon="-0.05114">
        <ele>29.2</ele>
        <time>2024-03-20T18:10:19Z</time>
      </trkpt>
      <trkpt lat="49.23191" lon="-0.05118">
        <ele>29.2</ele>
        <time>2024-03-20T18:10:20Z</time>
      </trkpt>
      <trkpt lat="49.23192" lon="-0.05122">
        <ele>29.2</ele>
        <time>2024-03-20T18:10:21Z</time>
      </trkpt>
      <trkpt lat="49.23193" lon="-0.05126">
        <ele>29.2</ele>
        <time>2024-03-20T18:10:22Z</time>
      </trkpt>
      <trkpt lat="49.23194" lon="-0.05131">
        <ele>29.2</ele>
        <time>2024-03-20T18:10:23Z</time>
      </trkpt>
      <trkpt lat="49.23194" lon="-0.05135">
        <ele>29.2</ele>
        <time>2024-03-20T18:10:24Z</time>
      </trkpt>
      <trkpt lat="49.23194" lon="-0.05141">
        <ele>29.2</ele>
        <time>2024-03-20T18:10:25Z</time>
      </trkpt>
      <trkpt lat="49.23195" lon="-0.05146">
        <ele>29.2</ele>
        <time>2024-03-20T18:10:26Z</time>
      </trkpt>
      <trkpt lat="49.23195" lon="-0.05152">
        <ele>29</ele>
        <time>2024-03-20T18:10:27Z</time>
      </trkpt>
      <trkpt lat="49.23194" lon="-0.05158">
        <ele>29</ele>
        <time>2024-03-20T18:10:28Z</time>
      </trkpt>
      <trkpt lat="49.23194" lon="-0.05164">
        <ele>29</ele>
        <time>2024-03-20T18:10:29Z</time>
      </trkpt>
      <trkpt lat="49.23195" lon="-0.05171">
        <ele>29</ele>
        <time>2024-03-20T18:10:30Z</time>
      </trkpt>
      <trkpt lat="49.23197" lon="-0.05177">
        <ele>28.8</ele>
        <time>2024-03-20T18:10:31Z</time>
      </trkpt>
      <trkpt lat="49.232" lon="-0.05184">
        <ele>28.8</ele>
        <time>2024-03-20T18:10:32Z</time>
      </trkpt>
      <trkpt lat="49.23202" lon="-0.05191">
        <ele>28.6</ele>
        <time>2024-03-20T18:10:33Z</time>
      </trkpt>
      <trkpt lat="49.23206" lon="-0.05197">
        <ele>28.6</ele>
        <time>2024-03-20T18:10:34Z</time>
      </trkpt>
      <trkpt lat="49.23209" lon="-0.05204">
        <ele>28.4</ele>
        <time>2024-03-20T18:10:35Z</time>
      </trkpt>
      <trkpt lat="49.23213" lon="-0.0521">
        <ele>28.2</ele>
        <time>2024-03-20T18:10:36Z</time>
      </trkpt>
      <trkpt lat="49.23216" lon="-0.05218">
        <ele>28</ele>
        <time>2024-03-20T18:10:37Z</time>
      </trkpt>
      <trkpt lat="49.2322" lon="-0.05226">
        <ele>28</ele>
        <time>2024-03-20T18:10:38Z</time>
      </trkpt>
      <trkpt lat="49.23223" lon="-0.05235">
        <ele>27.6</ele>
        <time>2024-03-20T18:10:39Z</time>
      </trkpt>
      <trkpt lat="49.23227" lon="-0.05244">
        <ele>27.4</ele>
        <time>2024-03-20T18:10:40Z</time>
      </trkpt>
      <trkpt lat="49.2323" lon="-0.05254">
        <ele>27.2</ele>
        <time>2024-03-20T18:10:41Z</time>
      </trkpt>
      <trkpt lat="49.23232" lon="-0.05265">
        <ele>27</ele>
        <time>2024-03-20T18:10:42Z</time>
      </trkpt>
      <trkpt lat="49.23235" lon="-0.05277">
        <ele>26.6</ele>
        <time>2024-03-20T18:10:43Z</time>
      </trkpt>
      <trkpt lat="49.23236" lon="-0.05289">
        <ele>26.2</ele>
        <time>2024-03-20T18:10:44Z</time>
      </trkpt>
      <trkpt lat="49.23238" lon="-0.05302">
        <ele>25.8</ele>
        <time>2024-03-20T18:10:45Z</time>
      </trkpt>
      <trkpt lat="49.23239" lon="-0.05315">
        <ele>25.6</ele>
        <time>2024-03-20T18:10:46Z</time>
      </trkpt>
      <trkpt lat="49.23239" lon="-0.05329">
        <ele>25</ele>
        <time>2024-03-20T18:10:47Z</time>
      </trkpt>
      <trkpt lat="49.2324" lon="-0.05342">
        <ele>24.6</ele>
        <time>2024-03-20T18:10:48Z</time>
      </trkpt>
      <trkpt lat="49.23241" lon="-0.05356">
        <ele>24</ele>
        <time>2024-03-20T18:10:49Z</time>
      </trkpt>
      <trkpt lat="49.23241" lon="-0.05371">
        <ele>23.6</ele>
        <time>2024-03-20T18:10:50Z</time>
      </trkpt>
      <trkpt lat="49.23241" lon="-0.05385">
        <ele>23</ele>
        <time>2024-03-20T18:10:51Z</time>
      </trkpt>
      <trkpt lat="49.23242" lon="-0.05399">
        <ele>22.6</ele>
        <time>2024-03-20T18:10:52Z</time>
      </trkpt>
      <trkpt lat="49.23243" lon="-0.05413">
        <ele>22.2</ele>
        <time>2024-03-20T18:10:53Z</time>
      </trkpt>
      <trkpt lat="49.23244" lon="-0.05427">
        <ele>22</ele>
        <time>2024-03-20T18:10:54Z</time>
      </trkpt>
      <trkpt lat="49.23246" lon="-0.05441">
        <ele>21.6</ele>
        <time>2024-03-20T18:10:55Z</time>
      </trkpt>
      <trkpt lat="49.23248" lon="-0.05454">
        <ele>21</ele>
        <time>2024-03-20T18:10:56Z</time>
      </trkpt>
      <trkpt lat="49.2325" lon="-0.05469">
        <ele>20.6</ele>
        <time>2024-03-20T18:10:57Z</time>
      </trkpt>
      <trkpt lat="49.23252" lon="-0.05484">
        <ele>20.2</ele>
        <time>2024-03-20T18:10:58Z</time>
      </trkpt>
      <trkpt lat="49.23255" lon="-0.05499">
        <ele>19.6</ele>
        <time>2024-03-20T18:10:59Z</time>
      </trkpt>
      <trkpt lat="49.23257" lon="-0.05514">
        <ele>19.4</ele>
        <time>2024-03-20T18:11:00Z</time>
      </trkpt>
      <trkpt lat="49.2326" lon="-0.05529">
        <ele>18.8</ele>
        <time>2024-03-20T18:11:01Z</time>
      </trkpt>
      <trkpt lat="49.23262" lon="-0.05545">
        <ele>18.4</ele>
        <time>2024-03-20T18:11:02Z</time>
      </trkpt>
      <trkpt lat="49.23265" lon="-0.0556">
        <ele>17.8</ele>
        <time>2024-03-20T18:11:03Z</time>
      </trkpt>
      <trkpt lat="49.23267" lon="-0.05575">
        <ele>17.4</ele>
        <time>2024-03-20T18:11:04Z</time>
      </trkpt>
      <trkpt lat="49.23271" lon="-0.05589">
        <ele>17.2</ele>
        <time>2024-03-20T18:11:05Z</time>
      </trkpt>
      <trkpt lat="49.23276" lon="-0.05603">
        <ele>16.4</ele>
        <time>2024-03-20T18:11:06Z</time>
      </trkpt>
      <trkpt lat="49.23283" lon="-0.05616">
        <ele>16</ele>
        <time>2024-03-20T18:11:07Z</time>
      </trkpt>
      <trkpt lat="49.23291" lon="-0.05627">
        <ele>15.6</ele>
        <time>2024-03-20T18:11:08Z</time>
      </trkpt>
      <trkpt lat="49.233" lon="-0.05636">
        <ele>14.8</ele>
        <time>2024-03-20T18:11:09Z</time>
      </trkpt>
      <trkpt lat="49.2331" lon="-0.05645">
        <ele>14.4</ele>
        <time>2024-03-20T18:11:10Z</time>
      </trkpt>
      <trkpt lat="49.23321" lon="-0.05651">
        <ele>13.6</ele>
        <time>2024-03-20T18:11:11Z</time>
      </trkpt>
      <trkpt lat="49.23332" lon="-0.05655">
        <ele>12.8</ele>
        <time>2024-03-20T18:11:12Z</time>
      </trkpt>
      <trkpt lat="49.23339" lon="-0.05658">
        <ele>11.2</ele>
        <time>2024-03-20T18:11:13Z</time>
      </trkpt>
      <trkpt lat="49.23345" lon="-0.0566">
        <ele>10.2</ele>
        <time>2024-03-20T18:11:14Z</time>
      </trkpt>
      <trkpt lat="49.23352" lon="-0.05662">
        <ele>9</ele>
        <time>2024-03-20T18:11:15Z</time>
      </trkpt>
      <trkpt lat="49.23358" lon="-0.05665">
        <ele>7.6</ele>
        <time>2024-03-20T18:11:16Z</time>
      </trkpt>
      <trkpt lat="49.23384" lon="-0.05674">
        <ele>6.6</ele>
        <time>2024-03-20T18:11:17Z</time>
      </trkpt>
      <trkpt lat="49.23393" lon="-0.05679">
        <ele>5.8</ele>
        <time>2024-03-20T18:11:18Z</time>
      </trkpt>
      <trkpt lat="49.23402" lon="-0.05683">
        <ele>4.4</ele>
        <time>2024-03-20T18:11:19Z</time>
      </trkpt>
      <trkpt lat="49.2341" lon="-0.05688">
        <ele>3.8</ele>
        <time>2024-03-20T18:11:20Z</time>
      </trkpt>
      <trkpt lat="49.23418" lon="-0.05694">
        <ele>3.4</ele>
        <time>2024-03-20T18:11:21Z</time>
      </trkpt>
      <trkpt lat="49.23425" lon="-0.05701">
        <ele>3.2</ele>
        <time>2024-03-20T18:11:22Z</time>
      </trkpt>
      <trkpt lat="49.2343" lon="-0.05709">
        <ele>3.2</ele>
        <time>2024-03-20T18:11:23Z</time>
      </trkpt>
      <trkpt lat="49.23436" lon="-0.05717">
        <ele>3</ele>
        <time>2024-03-20T18:11:24Z</time>
      </trkpt>
      <trkpt lat="49.23441" lon="-0.05724">
        <ele>3</ele>
        <time>2024-03-20T18:11:25Z</time>
      </trkpt>
      <trkpt lat="49.23445" lon="-0.0573">
        <ele>3</ele>
        <time>2024-03-20T18:11:26Z</time>
      </trkpt>
      <trkpt lat="49.23449" lon="-0.05737">
        <ele>3</ele>
        <time>2024-03-20T18:11:27Z</time>
      </trkpt>
      <trkpt lat="49.23452" lon="-0.05744">
        <ele>3</ele>
        <time>2024-03-20T18:11:28Z</time>
      </trkpt>
      <trkpt lat="49.23454" lon="-0.0575">
        <ele>3</ele>
        <time>2024-03-20T18:11:29Z</time>
      </trkpt>
      <trkpt lat="49.23457" lon="-0.05756">
        <ele>3.2</ele>
        <time>2024-03-20T18:11:30Z</time>
      </trkpt>
      <trkpt lat="49.23459" lon="-0.05761">
        <ele>3.4</ele>
        <time>2024-03-20T18:11:31Z</time>
      </trkpt>
      <trkpt lat="49.2346" lon="-0.05767">
        <ele>3.6</ele>
        <time>2024-03-20T18:11:32Z</time>
      </trkpt>
      <trkpt lat="49.23461" lon="-0.05773">
        <ele>3.8</ele>
        <time>2024-03-20T18:11:33Z</time>
      </trkpt>
      <trkpt lat="49.23462" lon="-0.05779">
        <ele>4</ele>
        <time>2024-03-20T18:11:34Z</time>
      </trkpt>
      <trkpt lat="49.23462" lon="-0.05785">
        <ele>4.4</ele>
        <time>2024-03-20T18:11:35Z</time>
      </trkpt>
      <trkpt lat="49.23462" lon="-0.0579">
        <ele>4.6</ele>
        <time>2024-03-20T18:11:36Z</time>
      </trkpt>
      <trkpt lat="49.23463" lon="-0.05796">
        <ele>4.8</ele>
        <time>2024-03-20T18:11:37Z</time>
      </trkpt>
      <trkpt lat="49.23464" lon="-0.05801">
        <ele>4.8</ele>
        <time>2024-03-20T18:11:38Z</time>
      </trkpt>
      <trkpt lat="49.23464" lon="-0.05806">
        <ele>5</ele>
        <time>2024-03-20T18:11:39Z</time>
      </trkpt>
      <trkpt lat="49.23464" lon="-0.05811">
        <ele>5.2</ele>
        <time>2024-03-20T18:11:40Z</time>
      </trkpt>
      <trkpt lat="49.23465" lon="-0.05815">
        <ele>5</ele>
        <time>2024-03-20T18:11:41Z</time>
      </trkpt>
      <trkpt lat="49.23465" lon="-0.05819">
        <ele>5.2</ele>
        <time>2024-03-20T18:11:42Z</time>
      </trkpt>
      <trkpt lat="49.23465" lon="-0.05823">
        <ele>5.4</ele>
        <time>2024-03-20T18:11:43Z</time>
      </trkpt>
      <trkpt lat="49.23465" lon="-0.05827">
        <ele>5.2</ele>
        <time>2024-03-20T18:11:44Z</time>
      </trkpt>
      <trkpt lat="49.23465" lon="-0.05831">
        <ele>5.2</ele>
        <time>2024-03-20T18:11:45Z</time>
      </trkpt>
      <trkpt lat="49.23466" lon="-0.05834">
        <ele>5.2</ele>
        <time>2024-03-20T18:11:46Z</time>
      </trkpt>
      <trkpt lat="49.23466" lon="-0.05837">
        <ele>5.2</ele>
        <time>2024-03-20T18:11:47Z</time>
      </trkpt>
      <trkpt lat="49.23466" lon="-0.05839">
        <ele>5.6</ele>
        <time>2024-03-20T18:11:48Z</time>
      </trkpt>
      <trkpt lat="49.23466" lon="-0.05839">
        <ele>5.4</ele>
        <time>2024-03-20T18:11:49Z</time>
      </trkpt>
      <trkpt lat="49.23466" lon="-0.05839">
        <ele>5.4</ele>
        <time>2024-03-20T18:11:50Z</time>
      </trkpt>
      <trkpt lat="49.23464" lon="-0.05847">
        <ele>5.6</ele>
        <time>2024-03-20T18:11:56Z</time>
      </trkpt>
      <trkpt lat="49.23464" lon="-0.05851">
        <ele>5.6</ele>
        <time>2024-03-20T18:11:57Z</time>
      </trkpt>
      <trkpt lat="49.23463" lon="-0.05855">
        <ele>5.6</ele>
        <time>2024-03-20T18:11:58Z</time>
      </trkpt>
      <trkpt lat="49.23463" lon="-0.0586">
        <ele>5.6</ele>
        <time>2024-03-20T18:11:59Z</time>
      </trkpt>
      <trkpt lat="49.23463" lon="-0.05865">
        <ele>5.6</ele>
        <time>2024-03-20T18:12:00Z</time>
      </trkpt>
      <trkpt lat="49.23462" lon="-0.0587">
        <ele>5.6</ele>
        <time>2024-03-20T18:12:01Z</time>
      </trkpt>
      <trkpt lat="49.23462" lon="-0.05876">
        <ele>5.6</ele>
        <time>2024-03-20T18:12:02Z</time>
      </trkpt>
      <trkpt lat="49.23462" lon="-0.05882">
        <ele>5.6</ele>
        <time>2024-03-20T18:12:03Z</time>
      </trkpt>
      <trkpt lat="49.23461" lon="-0.05889">
        <ele>5.6</ele>
        <time>2024-03-20T18:12:04Z</time>
      </trkpt>
      <trkpt lat="49.2346" lon="-0.05896">
        <ele>5.6</ele>
        <time>2024-03-20T18:12:05Z</time>
      </trkpt>
      <trkpt lat="49.2346" lon="-0.05902">
        <ele>5.6</ele>
        <time>2024-03-20T18:12:06Z</time>
      </trkpt>
      <trkpt lat="49.23459" lon="-0.05909">
        <ele>5.6</ele>
        <time>2024-03-20T18:12:07Z</time>
      </trkpt>
      <trkpt lat="49.23458" lon="-0.05916">
        <ele>5.6</ele>
        <time>2024-03-20T18:12:08Z</time>
      </trkpt>
      <trkpt lat="49.23458" lon="-0.05924">
        <ele>5.6</ele>
        <time>2024-03-20T18:12:09Z</time>
      </trkpt>
      <trkpt lat="49.23458" lon="-0.05931">
        <ele>5.6</ele>
        <time>2024-03-20T18:12:10Z</time>
      </trkpt>
      <trkpt lat="49.23457" lon="-0.05939">
        <ele>5.6</ele>
        <time>2024-03-20T18:12:11Z</time>
      </trkpt>
      <trkpt lat="49.23456" lon="-0.05947">
        <ele>5.6</ele>
        <time>2024-03-20T18:12:12Z</time>
      </trkpt>
      <trkpt lat="49.23455" lon="-0.05955">
        <ele>5.4</ele>
        <time>2024-03-20T18:12:13Z</time>
      </trkpt>
      <trkpt lat="49.23454" lon="-0.05963">
        <ele>5.4</ele>
        <time>2024-03-20T18:12:14Z</time>
      </trkpt>
      <trkpt lat="49.23453" lon="-0.05971">
        <ele>5.4</ele>
        <time>2024-03-20T18:12:15Z</time>
      </trkpt>
      <trkpt lat="49.23451" lon="-0.05979">
        <ele>5.4</ele>
        <time>2024-03-20T18:12:16Z</time>
      </trkpt>
      <trkpt lat="49.2345" lon="-0.05988">
        <ele>5.4</ele>
        <time>2024-03-20T18:12:17Z</time>
      </trkpt>
      <trkpt lat="49.23449" lon="-0.05996">
        <ele>5.4</ele>
        <time>2024-03-20T18:12:18Z</time>
      </trkpt>
      <trkpt lat="49.23448" lon="-0.06005">
        <ele>5.4</ele>
        <time>2024-03-20T18:12:19Z</time>
      </trkpt>
      <trkpt lat="49.23447" lon="-0.06014">
        <ele>5.4</ele>
        <time>2024-03-20T18:12:20Z</time>
      </trkpt>
      <trkpt lat="49.23446" lon="-0.06024">
        <ele>5.4</ele>
        <time>2024-03-20T18:12:21Z</time>
      </trkpt>
      <trkpt lat="49.23445" lon="-0.06033">
        <ele>5.4</ele>
        <time>2024-03-20T18:12:22Z</time>
      </trkpt>
      <trkpt lat="49.23443" lon="-0.06042">
        <ele>5.4</ele>
        <time>2024-03-20T18:12:23Z</time>
      </trkpt>
      <trkpt lat="49.23442" lon="-0.06051">
        <ele>5.4</ele>
        <time>2024-03-20T18:12:24Z</time>
      </trkpt>
      <trkpt lat="49.23442" lon="-0.06061">
        <ele>5.4</ele>
        <time>2024-03-20T18:12:25Z</time>
      </trkpt>
      <trkpt lat="49.23441" lon="-0.06071">
        <ele>5.4</ele>
        <time>2024-03-20T18:12:26Z</time>
      </trkpt>
      <trkpt lat="49.2344" lon="-0.06081">
        <ele>5.2</ele>
        <time>2024-03-20T18:12:27Z</time>
      </trkpt>
      <trkpt lat="49.2344" lon="-0.06091">
        <ele>5.2</ele>
        <time>2024-03-20T18:12:28Z</time>
      </trkpt>
      <trkpt lat="49.23439" lon="-0.06101">
        <ele>5.2</ele>
        <time>2024-03-20T18:12:29Z</time>
      </trkpt>
      <trkpt lat="49.23439" lon="-0.06111">
        <ele>5</ele>
        <time>2024-03-20T18:12:30Z</time>
      </trkpt>
      <trkpt lat="49.23438" lon="-0.06122">
        <ele>5</ele>
        <time>2024-03-20T18:12:31Z</time>
      </trkpt>
      <trkpt lat="49.23438" lon="-0.06133">
        <ele>5</ele>
        <time>2024-03-20T18:12:32Z</time>
      </trkpt>
      <trkpt lat="49.23438" lon="-0.06144">
        <ele>4.8</ele>
        <time>2024-03-20T18:12:33Z</time>
      </trkpt>
      <trkpt lat="49.23438" lon="-0.06155">
        <ele>4.8</ele>
        <time>2024-03-20T18:12:34Z</time>
      </trkpt>
      <trkpt lat="49.23438" lon="-0.06167">
        <ele>4.8</ele>
        <time>2024-03-20T18:12:35Z</time>
      </trkpt>
      <trkpt lat="49.23438" lon="-0.06179">
        <ele>4.6</ele>
        <time>2024-03-20T18:12:36Z</time>
      </trkpt>
      <trkpt lat="49.23438" lon="-0.06191">
        <ele>4.6</ele>
        <time>2024-03-20T18:12:37Z</time>
      </trkpt>
      <trkpt lat="49.23437" lon="-0.06203">
        <ele>4.4</ele>
        <time>2024-03-20T18:12:38Z</time>
      </trkpt>
      <trkpt lat="49.23437" lon="-0.06215">
        <ele>4.2</ele>
        <time>2024-03-20T18:12:39Z</time>
      </trkpt>
      <trkpt lat="49.23436" lon="-0.06226">
        <ele>4.2</ele>
        <time>2024-03-20T18:12:40Z</time>
      </trkpt>
      <trkpt lat="49.23434" lon="-0.06238">
        <ele>3.8</ele>
        <time>2024-03-20T18:12:41Z</time>
      </trkpt>
      <trkpt lat="49.23433" lon="-0.06249">
        <ele>3.6</ele>
        <time>2024-03-20T18:12:42Z</time>
      </trkpt>
      <trkpt lat="49.23432" lon="-0.0626">
        <ele>3.6</ele>
        <time>2024-03-20T18:12:43Z</time>
      </trkpt>
      <trkpt lat="49.2343" lon="-0.0627">
        <ele>3.6</ele>
        <time>2024-03-20T18:12:44Z</time>
      </trkpt>
      <trkpt lat="49.23428" lon="-0.06281">
        <ele>3.4</ele>
        <time>2024-03-20T18:12:45Z</time>
      </trkpt>
      <trkpt lat="49.23426" lon="-0.06291">
        <ele>3.4</ele>
        <time>2024-03-20T18:12:46Z</time>
      </trkpt>
      <trkpt lat="49.23423" lon="-0.06302">
        <ele>3.4</ele>
        <time>2024-03-20T18:12:47Z</time>
      </trkpt>
      <trkpt lat="49.23421" lon="-0.06312">
        <ele>3.4</ele>
        <time>2024-03-20T18:12:48Z</time>
      </trkpt>
      <trkpt lat="49.23417" lon="-0.06322">
        <ele>3.4</ele>
        <time>2024-03-20T18:12:49Z</time>
      </trkpt>
      <trkpt lat="49.23414" lon="-0.06332">
        <ele>3.4</ele>
        <time>2024-03-20T18:12:50Z</time>
      </trkpt>
      <trkpt lat="49.23411" lon="-0.06342">
        <ele>3.4</ele>
        <time>2024-03-20T18:12:51Z</time>
      </trkpt>
      <trkpt lat="49.23408" lon="-0.06352">
        <ele>3.4</ele>
        <time>2024-03-20T18:12:52Z</time>
      </trkpt>
      <trkpt lat="49.23405" lon="-0.06361">
        <ele>3.6</ele>
        <time>2024-03-20T18:12:53Z</time>
      </trkpt>
      <trkpt lat="49.23402" lon="-0.06371">
        <ele>3.6</ele>
        <time>2024-03-20T18:12:54Z</time>
      </trkpt>
      <trkpt lat="49.23399" lon="-0.06381">
        <ele>3.6</ele>
        <time>2024-03-20T18:12:55Z</time>
      </trkpt>
      <trkpt lat="49.23397" lon="-0.06391">
        <ele>3.6</ele>
        <time>2024-03-20T18:12:56Z</time>
      </trkpt>
      <trkpt lat="49.23394" lon="-0.06401">
        <ele>3.6</ele>
        <time>2024-03-20T18:12:57Z</time>
      </trkpt>
      <trkpt lat="49.23392" lon="-0.06411">
        <ele>3.8</ele>
        <time>2024-03-20T18:12:58Z</time>
      </trkpt>
      <trkpt lat="49.23389" lon="-0.06421">
        <ele>3.8</ele>
        <time>2024-03-20T18:12:59Z</time>
      </trkpt>
      <trkpt lat="49.23386" lon="-0.06432">
        <ele>3.8</ele>
        <time>2024-03-20T18:13:00Z</time>
      </trkpt>
      <trkpt lat="49.23384" lon="-0.06442">
        <ele>3.8</ele>
        <time>2024-03-20T18:13:01Z</time>
      </trkpt>
      <trkpt lat="49.23381" lon="-0.06452">
        <ele>3.8</ele>
        <time>2024-03-20T18:13:02Z</time>
      </trkpt>
      <trkpt lat="49.23378" lon="-0.06461">
        <ele>3.8</ele>
        <time>2024-03-20T18:13:03Z</time>
      </trkpt>
      <trkpt lat="49.23375" lon="-0.06471">
        <ele>4</ele>
        <time>2024-03-20T18:13:04Z</time>
      </trkpt>
      <trkpt lat="49.23372" lon="-0.06481">
        <ele>4</ele>
        <time>2024-03-20T18:13:05Z</time>
      </trkpt>
      <trkpt lat="49.23368" lon="-0.0649">
        <ele>4</ele>
        <time>2024-03-20T18:13:06Z</time>
      </trkpt>
      <trkpt lat="49.23365" lon="-0.065">
        <ele>4</ele>
        <time>2024-03-20T18:13:07Z</time>
      </trkpt>
      <trkpt lat="49.23361" lon="-0.06509">
        <ele>4</ele>
        <time>2024-03-20T18:13:08Z</time>
      </trkpt>
      <trkpt lat="49.23358" lon="-0.06519">
        <ele>4</ele>
        <time>2024-03-20T18:13:09Z</time>
      </trkpt>
      <trkpt lat="49.23355" lon="-0.06528">
        <ele>3.8</ele>
        <time>2024-03-20T18:13:10Z</time>
      </trkpt>
      <trkpt lat="49.23352" lon="-0.06539">
        <ele>3.8</ele>
        <time>2024-03-20T18:13:11Z</time>
      </trkpt>
      <trkpt lat="49.23349" lon="-0.06549">
        <ele>3.8</ele>
        <time>2024-03-20T18:13:12Z</time>
      </trkpt>
      <trkpt lat="49.23348" lon="-0.06561">
        <ele>3.8</ele>
        <time>2024-03-20T18:13:13Z</time>
      </trkpt>
      <trkpt lat="49.23347" lon="-0.06572">
        <ele>3.8</ele>
        <time>2024-03-20T18:13:14Z</time>
      </trkpt>
      <trkpt lat="49.23347" lon="-0.06585">
        <ele>3.8</ele>
        <time>2024-03-20T18:13:15Z</time>
      </trkpt>
      <trkpt lat="49.23347" lon="-0.06597">
        <ele>3.8</ele>
        <time>2024-03-20T18:13:16Z</time>
      </trkpt>
      <trkpt lat="49.23349" lon="-0.06609">
        <ele>3.6</ele>
        <time>2024-03-20T18:13:17Z</time>
      </trkpt>
      <trkpt lat="49.23351" lon="-0.06621">
        <ele>3.4</ele>
        <time>2024-03-20T18:13:18Z</time>
      </trkpt>
      <trkpt lat="49.23353" lon="-0.06633">
        <ele>3.2</ele>
        <time>2024-03-20T18:13:19Z</time>
      </trkpt>
      <trkpt lat="49.23356" lon="-0.06645">
        <ele>3.2</ele>
        <time>2024-03-20T18:13:20Z</time>
      </trkpt>
      <trkpt lat="49.23359" lon="-0.06656">
        <ele>3</ele>
        <time>2024-03-20T18:13:21Z</time>
      </trkpt>
      <trkpt lat="49.23363" lon="-0.06668">
        <ele>2.8</ele>
        <time>2024-03-20T18:13:22Z</time>
      </trkpt>
      <trkpt lat="49.23366" lon="-0.06679">
        <ele>2.8</ele>
        <time>2024-03-20T18:13:23Z</time>
      </trkpt>
      <trkpt lat="49.2337" lon="-0.0669">
        <ele>2.4</ele>
        <time>2024-03-20T18:13:24Z</time>
      </trkpt>
      <trkpt lat="49.23373" lon="-0.06701">
        <ele>2.2</ele>
        <time>2024-03-20T18:13:25Z</time>
      </trkpt>
      <trkpt lat="49.23376" lon="-0.06712">
        <ele>2</ele>
        <time>2024-03-20T18:13:26Z</time>
      </trkpt>
      <trkpt lat="49.2338" lon="-0.06723">
        <ele>1.8</ele>
        <time>2024-03-20T18:13:27Z</time>
      </trkpt>
      <trkpt lat="49.23383" lon="-0.06734">
        <ele>1.6</ele>
        <time>2024-03-20T18:13:28Z</time>
      </trkpt>
      <trkpt lat="49.23386" lon="-0.06745">
        <ele>1.4</ele>
        <time>2024-03-20T18:13:29Z</time>
      </trkpt>
      <trkpt lat="49.23389" lon="-0.06756">
        <ele>1.4</ele>
        <time>2024-03-20T18:13:30Z</time>
      </trkpt>
      <trkpt lat="49.23393" lon="-0.06766">
        <ele>1.2</ele>
        <time>2024-03-20T18:13:31Z</time>
      </trkpt>
      <trkpt lat="49.23396" lon="-0.06777">
        <ele>1.2</ele>
        <time>2024-03-20T18:13:32Z</time>
      </trkpt>
      <trkpt lat="49.23399" lon="-0.06788">
        <ele>1</ele>
        <time>2024-03-20T18:13:33Z</time>
      </trkpt>
      <trkpt lat="49.23402" lon="-0.06799">
        <ele>1</ele>
        <time>2024-03-20T18:13:34Z</time>
      </trkpt>
      <trkpt lat="49.23405" lon="-0.06809">
        <ele>1</ele>
        <time>2024-03-20T18:13:35Z</time>
      </trkpt>
      <trkpt lat="49.23408" lon="-0.0682">
        <ele>1</ele>
        <time>2024-03-20T18:13:36Z</time>
      </trkpt>
      <trkpt lat="49.23411" lon="-0.06832">
        <ele>1</ele>
        <time>2024-03-20T18:13:37Z</time>
      </trkpt>
      <trkpt lat="49.23413" lon="-0.06843">
        <ele>0.8</ele>
        <time>2024-03-20T18:13:38Z</time>
      </trkpt>
      <trkpt lat="49.23415" lon="-0.06854">
        <ele>0.8</ele>
        <time>2024-03-20T18:13:39Z</time>
      </trkpt>
      <trkpt lat="49.23416" lon="-0.06865">
        <ele>0.8</ele>
        <time>2024-03-20T18:13:40Z</time>
      </trkpt>
      <trkpt lat="49.23417" lon="-0.06876">
        <ele>0.6</ele>
        <time>2024-03-20T18:13:41Z</time>
      </trkpt>
      <trkpt lat="49.23418" lon="-0.06887">
        <ele>0.4</ele>
        <time>2024-03-20T18:13:42Z</time>
      </trkpt>
      <trkpt lat="49.23418" lon="-0.06898">
        <ele>0.4</ele>
        <time>2024-03-20T18:13:43Z</time>
      </trkpt>
      <trkpt lat="49.23419" lon="-0.06908">
        <ele>8</ele>
        <time>2024-03-20T18:13:44Z</time>
      </trkpt>
      <trkpt lat="49.23419" lon="-0.06918">
        <ele>0.2</ele>
        <time>2024-03-20T18:13:45Z</time>
      </trkpt>
      <trkpt lat="49.23419" lon="-0.06927">
        <ele>-0.2</ele>
        <time>2024-03-20T18:13:46Z</time>
      </trkpt>
      <trkpt lat="49.2342" lon="-0.06935">
        <ele>-0.4</ele>
        <time>2024-03-20T18:13:47Z</time>
      </trkpt>
      <trkpt lat="49.23422" lon="-0.06943">
        <ele>-0.4</ele>
        <time>2024-03-20T18:13:48Z</time>
      </trkpt>
      <trkpt lat="49.23424" lon="-0.0695">
        <ele>-0.4</ele>
        <time>2024-03-20T18:13:49Z</time>
      </trkpt>
      <trkpt lat="49.23429" lon="-0.06955">
        <ele>-0.6</ele>
        <time>2024-03-20T18:13:50Z</time>
      </trkpt>
      <trkpt lat="49.23434" lon="-0.0696">
        <ele>-0.6</ele>
        <time>2024-03-20T18:13:51Z</time>
      </trkpt>
      <trkpt lat="49.2344" lon="-0.06964">
        <ele>-0.6</ele>
        <time>2024-03-20T18:13:52Z</time>
      </trkpt>
      <trkpt lat="49.23446" lon="-0.06967">
        <ele>-0.6</ele>
        <time>2024-03-20T18:13:53Z</time>
      </trkpt>
      <trkpt lat="49.23452" lon="-0.06969">
        <ele>-0.8</ele>
        <time>2024-03-20T18:13:54Z</time>
      </trkpt>
      <trkpt lat="49.23459" lon="-0.06972">
        <ele>-0.8</ele>
        <time>2024-03-20T18:13:55Z</time>
      </trkpt>
      <trkpt lat="49.23466" lon="-0.06976">
        <ele>-0.8</ele>
        <time>2024-03-20T18:13:56Z</time>
      </trkpt>
      <trkpt lat="49.23473" lon="-0.0698">
        <ele>-0.8</ele>
        <time>2024-03-20T18:13:57Z</time>
      </trkpt>
      <trkpt lat="49.2348" lon="-0.06984">
        <ele>-1</ele>
        <time>2024-03-20T18:13:58Z</time>
      </trkpt>
      <trkpt lat="49.23487" lon="-0.06989">
        <ele>-1</ele>
        <time>2024-03-20T18:13:59Z</time>
      </trkpt>
      <trkpt lat="49.23494" lon="-0.06993">
        <ele>-1</ele>
        <time>2024-03-20T18:14:00Z</time>
      </trkpt>
      <trkpt lat="49.23501" lon="-0.06998">
        <ele>-1</ele>
        <time>2024-03-20T18:14:01Z</time>
      </trkpt>
      <trkpt lat="49.23508" lon="-0.07002">
        <ele>-1</ele>
        <time>2024-03-20T18:14:02Z</time>
      </trkpt>
      <trkpt lat="49.23515" lon="-0.07008">
        <ele>-0.8</ele>
        <time>2024-03-20T18:14:03Z</time>
      </trkpt>
      <trkpt lat="49.23522" lon="-0.07012">
        <ele>-0.8</ele>
        <time>2024-03-20T18:14:04Z</time>
      </trkpt>
      <trkpt lat="49.23529" lon="-0.07017">
        <ele>-0.8</ele>
        <time>2024-03-20T18:14:05Z</time>
      </trkpt>
      <trkpt lat="49.23536" lon="-0.07022">
        <ele>-0.8</ele>
        <time>2024-03-20T18:14:06Z</time>
      </trkpt>
      <trkpt lat="49.23543" lon="-0.07027">
        <ele>-0.8</ele>
        <time>2024-03-20T18:14:07Z</time>
      </trkpt>
      <trkpt lat="49.23551" lon="-0.07032">
        <ele>-0.8</ele>
        <time>2024-03-20T18:14:08Z</time>
      </trkpt>
      <trkpt lat="49.23558" lon="-0.07036">
        <ele>-0.8</ele>
        <time>2024-03-20T18:14:09Z</time>
      </trkpt>
      <trkpt lat="49.23565" lon="-0.07041">
        <ele>-1</ele>
        <time>2024-03-20T18:14:10Z</time>
      </trkpt>
      <trkpt lat="49.23572" lon="-0.07046">
        <ele>-1</ele>
        <time>2024-03-20T18:14:11Z</time>
      </trkpt>
      <trkpt lat="49.23579" lon="-0.07051">
        <ele>-1</ele>
        <time>2024-03-20T18:14:12Z</time>
      </trkpt>
      <trkpt lat="49.23587" lon="-0.07055">
        <ele>-0.8</ele>
        <time>2024-03-20T18:14:13Z</time>
      </trkpt>
      <trkpt lat="49.23594" lon="-0.0706">
        <ele>-0.8</ele>
        <time>2024-03-20T18:14:14Z</time>
      </trkpt>
      <trkpt lat="49.23601" lon="-0.07064">
        <ele>-0.8</ele>
        <time>2024-03-20T18:14:15Z</time>
      </trkpt>
      <trkpt lat="49.23608" lon="-0.07069">
        <ele>-0.8</ele>
        <time>2024-03-20T18:14:16Z</time>
      </trkpt>
      <trkpt lat="49.23615" lon="-0.07073">
        <ele>-0.8</ele>
        <time>2024-03-20T18:14:17Z</time>
      </trkpt>
      <trkpt lat="49.23622" lon="-0.07078">
        <ele>-0.8</ele>
        <time>2024-03-20T18:14:18Z</time>
      </trkpt>
      <trkpt lat="49.23629" lon="-0.07084">
        <ele>-0.8</ele>
        <time>2024-03-20T18:14:19Z</time>
      </trkpt>
      <trkpt lat="49.23636" lon="-0.0709">
        <ele>-0.8</ele>
        <time>2024-03-20T18:14:20Z</time>
      </trkpt>
      <trkpt lat="49.23642" lon="-0.07097">
        <ele>-0.8</ele>
        <time>2024-03-20T18:14:21Z</time>
      </trkpt>
      <trkpt lat="49.23648" lon="-0.07105">
        <ele>-0.8</ele>
        <time>2024-03-20T18:14:22Z</time>
      </trkpt>
      <trkpt lat="49.23654" lon="-0.07114">
        <ele>-1</ele>
        <time>2024-03-20T18:14:23Z</time>
      </trkpt>
      <trkpt lat="49.2366" lon="-0.07122">
        <ele>-1</ele>
        <time>2024-03-20T18:14:24Z</time>
      </trkpt>
      <trkpt lat="49.23665" lon="-0.07131">
        <ele>-1</ele>
        <time>2024-03-20T18:14:25Z</time>
      </trkpt>
      <trkpt lat="49.23671" lon="-0.0714">
        <ele>-1</ele>
        <time>2024-03-20T18:14:26Z</time>
      </trkpt>
      <trkpt lat="49.23676" lon="-0.0715">
        <ele>-1</ele>
        <time>2024-03-20T18:14:27Z</time>
      </trkpt>
      <trkpt lat="49.23681" lon="-0.0716">
        <ele>-1</ele>
        <time>2024-03-20T18:14:28Z</time>
      </trkpt>
      <trkpt lat="49.23685" lon="-0.07172">
        <ele>-1</ele>
        <time>2024-03-20T18:14:29Z</time>
      </trkpt>
      <trkpt lat="49.23688" lon="-0.07184">
        <ele>-1</ele>
        <time>2024-03-20T18:14:30Z</time>
      </trkpt>
      <trkpt lat="49.23691" lon="-0.07196">
        <ele>-1</ele>
        <time>2024-03-20T18:14:31Z</time>
      </trkpt>
      <trkpt lat="49.23693" lon="-0.07208">
        <ele>-1</ele>
        <time>2024-03-20T18:14:32Z</time>
      </trkpt>
      <trkpt lat="49.23694" lon="-0.0722">
        <ele>-1</ele>
        <time>2024-03-20T18:14:33Z</time>
      </trkpt>
      <trkpt lat="49.23696" lon="-0.07232">
        <ele>-1</ele>
        <time>2024-03-20T18:14:34Z</time>
      </trkpt>
      <trkpt lat="49.23697" lon="-0.07244">
        <ele>-1</ele>
        <time>2024-03-20T18:14:35Z</time>
      </trkpt>
      <trkpt lat="49.23698" lon="-0.07255">
        <ele>-1</ele>
        <time>2024-03-20T18:14:36Z</time>
      </trkpt>
      <trkpt lat="49.23699" lon="-0.07267">
        <ele>-1</ele>
        <time>2024-03-20T18:14:37Z</time>
      </trkpt>
      <trkpt lat="49.23701" lon="-0.07279">
        <ele>-1</ele>
        <time>2024-03-20T18:14:38Z</time>
      </trkpt>
      <trkpt lat="49.23702" lon="-0.07292">
        <ele>-1</ele>
        <time>2024-03-20T18:14:39Z</time>
      </trkpt>
      <trkpt lat="49.23704" lon="-0.07303">
        <ele>-0.8</ele>
        <time>2024-03-20T18:14:40Z</time>
      </trkpt>
      <trkpt lat="49.23705" lon="-0.07315">
        <ele>-0.8</ele>
        <time>2024-03-20T18:14:41Z</time>
      </trkpt>
      <trkpt lat="49.23708" lon="-0.07327">
        <ele>-0.8</ele>
        <time>2024-03-20T18:14:42Z</time>
      </trkpt>
      <trkpt lat="49.2371" lon="-0.07339">
        <ele>-0.8</ele>
        <time>2024-03-20T18:14:43Z</time>
      </trkpt>
      <trkpt lat="49.23712" lon="-0.0735">
        <ele>-0.8</ele>
        <time>2024-03-20T18:14:44Z</time>
      </trkpt>
      <trkpt lat="49.23714" lon="-0.07362">
        <ele>-0.8</ele>
        <time>2024-03-20T18:14:45Z</time>
      </trkpt>
      <trkpt lat="49.23716" lon="-0.07373">
        <ele>-0.8</ele>
        <time>2024-03-20T18:14:46Z</time>
      </trkpt>
      <trkpt lat="49.23717" lon="-0.07385">
        <ele>-0.8</ele>
        <time>2024-03-20T18:14:47Z</time>
      </trkpt>
      <trkpt lat="49.23718" lon="-0.07397">
        <ele>-0.6</ele>
        <time>2024-03-20T18:14:48Z</time>
      </trkpt>
      <trkpt lat="49.23719" lon="-0.0741">
        <ele>-0.6</ele>
        <time>2024-03-20T18:14:49Z</time>
      </trkpt>
      <trkpt lat="49.23719" lon="-0.07422">
        <ele>-0.6</ele>
        <time>2024-03-20T18:14:50Z</time>
      </trkpt>
      <trkpt lat="49.2372" lon="-0.07434">
        <ele>-0.6</ele>
        <time>2024-03-20T18:14:51Z</time>
      </trkpt>
      <trkpt lat="49.23721" lon="-0.07446">
        <ele>-0.6</ele>
        <time>2024-03-20T18:14:52Z</time>
      </trkpt>
      <trkpt lat="49.23721" lon="-0.07459">
        <ele>-0.6</ele>
        <time>2024-03-20T18:14:53Z</time>
      </trkpt>
      <trkpt lat="49.23721" lon="-0.07471">
        <ele>-0.6</ele>
        <time>2024-03-20T18:14:54Z</time>
      </trkpt>
      <trkpt lat="49.2372" lon="-0.07484">
        <ele>-0.6</ele>
        <time>2024-03-20T18:14:55Z</time>
      </trkpt>
      <trkpt lat="49.23719" lon="-0.07496">
        <ele>-0.6</ele>
        <time>2024-03-20T18:14:56Z</time>
      </trkpt>
      <trkpt lat="49.23717" lon="-0.07508">
        <ele>-0.6</ele>
        <time>2024-03-20T18:14:57Z</time>
      </trkpt>
      <trkpt lat="49.23716" lon="-0.07521">
        <ele>-0.8</ele>
        <time>2024-03-20T18:14:58Z</time>
      </trkpt>
      <trkpt lat="49.23715" lon="-0.07533">
        <ele>-0.8</ele>
        <time>2024-03-20T18:14:59Z</time>
      </trkpt>
      <trkpt lat="49.23714" lon="-0.07546">
        <ele>-0.8</ele>
        <time>2024-03-20T18:15:00Z</time>
      </trkpt>
      <trkpt lat="49.23714" lon="-0.07559">
        <ele>-0.8</ele>
        <time>2024-03-20T18:15:01Z</time>
      </trkpt>
      <trkpt lat="49.23714" lon="-0.07571">
        <ele>-0.8</ele>
        <time>2024-03-20T18:15:02Z</time>
      </trkpt>
      <trkpt lat="49.23714" lon="-0.07583">
        <ele>-0.8</ele>
        <time>2024-03-20T18:15:03Z</time>
      </trkpt>
      <trkpt lat="49.23715" lon="-0.07596">
        <ele>-0.8</ele>
        <time>2024-03-20T18:15:04Z</time>
      </trkpt>
      <trkpt lat="49.23715" lon="-0.07608">
        <ele>-0.8</ele>
        <time>2024-03-20T18:15:05Z</time>
      </trkpt>
      <trkpt lat="49.23715" lon="-0.07621">
        <ele>-0.6</ele>
        <time>2024-03-20T18:15:06Z</time>
      </trkpt>
      <trkpt lat="49.23715" lon="-0.07633">
        <ele>-0.6</ele>
        <time>2024-03-20T18:15:07Z</time>
      </trkpt>
      <trkpt lat="49.23714" lon="-0.07646">
        <ele>-0.6</ele>
        <time>2024-03-20T18:15:08Z</time>
      </trkpt>
      <trkpt lat="49.23713" lon="-0.07659">
        <ele>-0.6</ele>
        <time>2024-03-20T18:15:09Z</time>
      </trkpt>
      <trkpt lat="49.23712" lon="-0.07672">
        <ele>-0.6</ele>
        <time>2024-03-20T18:15:10Z</time>
      </trkpt>
      <trkpt lat="49.23711" lon="-0.07685">
        <ele>-0.8</ele>
        <time>2024-03-20T18:15:11Z</time>
      </trkpt>
      <trkpt lat="49.23711" lon="-0.07697">
        <ele>-0.8</ele>
        <time>2024-03-20T18:15:12Z</time>
      </trkpt>
      <trkpt lat="49.23711" lon="-0.0771">
        <ele>-0.8</ele>
        <time>2024-03-20T18:15:13Z</time>
      </trkpt>
      <trkpt lat="49.23712" lon="-0.07723">
        <ele>-0.8</ele>
        <time>2024-03-20T18:15:14Z</time>
      </trkpt>
      <trkpt lat="49.23713" lon="-0.07736">
        <ele>-0.8</ele>
        <time>2024-03-20T18:15:15Z</time>
      </trkpt>
      <trkpt lat="49.23715" lon="-0.07748">
        <ele>-0.8</ele>
        <time>2024-03-20T18:15:16Z</time>
      </trkpt>
      <trkpt lat="49.23718" lon="-0.0776">
        <ele>-0.8</ele>
        <time>2024-03-20T18:15:17Z</time>
      </trkpt>
      <trkpt lat="49.23721" lon="-0.07772">
        <ele>-0.8</ele>
        <time>2024-03-20T18:15:18Z</time>
      </trkpt>
      <trkpt lat="49.23725" lon="-0.07783">
        <ele>-0.8</ele>
        <time>2024-03-20T18:15:19Z</time>
      </trkpt>
      <trkpt lat="49.23728" lon="-0.07795">
        <ele>-0.8</ele>
        <time>2024-03-20T18:15:20Z</time>
      </trkpt>
      <trkpt lat="49.23731" lon="-0.07807">
        <ele>-0.8</ele>
        <time>2024-03-20T18:15:21Z</time>
      </trkpt>
      <trkpt lat="49.23734" lon="-0.07819">
        <ele>-0.8</ele>
        <time>2024-03-20T18:15:22Z</time>
      </trkpt>
      <trkpt lat="49.23735" lon="-0.07832">
        <ele>-0.8</ele>
        <time>2024-03-20T18:15:23Z</time>
      </trkpt>
      <trkpt lat="49.23735" lon="-0.07845">
        <ele>-0.8</ele>
        <time>2024-03-20T18:15:24Z</time>
      </trkpt>
      <trkpt lat="49.23735" lon="-0.07858">
        <ele>-0.8</ele>
        <time>2024-03-20T18:15:25Z</time>
      </trkpt>
      <trkpt lat="49.23733" lon="-0.07871">
        <ele>-1</ele>
        <time>2024-03-20T18:15:26Z</time>
      </trkpt>
      <trkpt lat="49.23732" lon="-0.07884">
        <ele>-1</ele>
        <time>2024-03-20T18:15:27Z</time>
      </trkpt>
      <trkpt lat="49.2373" lon="-0.07896">
        <ele>-1</ele>
        <time>2024-03-20T18:15:28Z</time>
      </trkpt>
      <trkpt lat="49.23728" lon="-0.07909">
        <ele>-1</ele>
        <time>2024-03-20T18:15:29Z</time>
      </trkpt>
      <trkpt lat="49.23726" lon="-0.07922">
        <ele>-1</ele>
        <time>2024-03-20T18:15:30Z</time>
      </trkpt>
      <trkpt lat="49.23725" lon="-0.07934">
        <ele>-1</ele>
        <time>2024-03-20T18:15:31Z</time>
      </trkpt>
      <trkpt lat="49.23723" lon="-0.07946">
        <ele>-1</ele>
        <time>2024-03-20T18:15:32Z</time>
      </trkpt>
      <trkpt lat="49.23721" lon="-0.07959">
        <ele>-1.2</ele>
        <time>2024-03-20T18:15:33Z</time>
      </trkpt>
      <trkpt lat="49.2372" lon="-0.07971">
        <ele>-1.2</ele>
        <time>2024-03-20T18:15:34Z</time>
      </trkpt>
      <trkpt lat="49.23718" lon="-0.07983">
        <ele>-1.2</ele>
        <time>2024-03-20T18:15:35Z</time>
      </trkpt>
      <trkpt lat="49.23717" lon="-0.07995">
        <ele>-1.2</ele>
        <time>2024-03-20T18:15:36Z</time>
      </trkpt>
      <trkpt lat="49.23716" lon="-0.08007">
        <ele>-1.2</ele>
        <time>2024-03-20T18:15:37Z</time>
      </trkpt>
      <trkpt lat="49.23715" lon="-0.0802">
        <ele>-1.4</ele>
        <time>2024-03-20T18:15:38Z</time>
      </trkpt>
      <trkpt lat="49.23714" lon="-0.08033">
        <ele>-1.4</ele>
        <time>2024-03-20T18:15:39Z</time>
      </trkpt>
      <trkpt lat="49.23715" lon="-0.08046">
        <ele>-1.6</ele>
        <time>2024-03-20T18:15:40Z</time>
      </trkpt>
      <trkpt lat="49.23717" lon="-0.08058">
        <ele>-1.8</ele>
        <time>2024-03-20T18:15:41Z</time>
      </trkpt>
      <trkpt lat="49.23721" lon="-0.0807">
        <ele>-2</ele>
        <time>2024-03-20T18:15:42Z</time>
      </trkpt>
      <trkpt lat="49.23726" lon="-0.0808">
        <ele>-2</ele>
        <time>2024-03-20T18:15:43Z</time>
      </trkpt>
      <trkpt lat="49.23733" lon="-0.08089">
        <ele>-2</ele>
        <time>2024-03-20T18:15:44Z</time>
      </trkpt>
      <trkpt lat="49.23739" lon="-0.08097">
        <ele>-2</ele>
        <time>2024-03-20T18:15:45Z</time>
      </trkpt>
      <trkpt lat="49.23746" lon="-0.08105">
        <ele>-2</ele>
        <time>2024-03-20T18:15:46Z</time>
      </trkpt>
      <trkpt lat="49.23753" lon="-0.08112">
        <ele>-2</ele>
        <time>2024-03-20T18:15:47Z</time>
      </trkpt>
      <trkpt lat="49.2376" lon="-0.08119">
        <ele>-2</ele>
        <time>2024-03-20T18:15:48Z</time>
      </trkpt>
      <trkpt lat="49.23767" lon="-0.08126">
        <ele>-2</ele>
        <time>2024-03-20T18:15:49Z</time>
      </trkpt>
      <trkpt lat="49.23774" lon="-0.08133">
        <ele>-2</ele>
        <time>2024-03-20T18:15:50Z</time>
      </trkpt>
      <trkpt lat="49.23781" lon="-0.0814">
        <ele>-2</ele>
        <time>2024-03-20T18:15:51Z</time>
      </trkpt>
      <trkpt lat="49.23787" lon="-0.08148">
        <ele>-2</ele>
        <time>2024-03-20T18:15:52Z</time>
      </trkpt>
      <trkpt lat="49.23794" lon="-0.08155">
        <ele>-2</ele>
        <time>2024-03-20T18:15:53Z</time>
      </trkpt>
      <trkpt lat="49.238" lon="-0.08163">
        <ele>-2</ele>
        <time>2024-03-20T18:15:54Z</time>
      </trkpt>
      <trkpt lat="49.23807" lon="-0.08171">
        <ele>-2</ele>
        <time>2024-03-20T18:15:55Z</time>
      </trkpt>
      <trkpt lat="49.23813" lon="-0.08179">
        <ele>-2</ele>
        <time>2024-03-20T18:15:56Z</time>
      </trkpt>
      <trkpt lat="49.23819" lon="-0.08186">
        <ele>-1.8</ele>
        <time>2024-03-20T18:15:57Z</time>
      </trkpt>
      <trkpt lat="49.23825" lon="-0.08194">
        <ele>-1.8</ele>
        <time>2024-03-20T18:15:58Z</time>
      </trkpt>
      <trkpt lat="49.23831" lon="-0.08202">
        <ele>-1.8</ele>
        <time>2024-03-20T18:15:59Z</time>
      </trkpt>
      <trkpt lat="49.23837" lon="-0.0821">
        <ele>-1.8</ele>
        <time>2024-03-20T18:16:00Z</time>
      </trkpt>
      <trkpt lat="49.23843" lon="-0.08217">
        <ele>-1.6</ele>
        <time>2024-03-20T18:16:01Z</time>
      </trkpt>
      <trkpt lat="49.23848" lon="-0.08226">
        <ele>-1.6</ele>
        <time>2024-03-20T18:16:02Z</time>
      </trkpt>
      <trkpt lat="49.23854" lon="-0.08234">
        <ele>-1.6</ele>
        <time>2024-03-20T18:16:03Z</time>
      </trkpt>
      <trkpt lat="49.2386" lon="-0.08242">
        <ele>-1.4</ele>
        <time>2024-03-20T18:16:04Z</time>
      </trkpt>
      <trkpt lat="49.23865" lon="-0.0825">
        <ele>-1.4</ele>
        <time>2024-03-20T18:16:05Z</time>
      </trkpt>
      <trkpt lat="49.2387" lon="-0.08259">
        <ele>-1.2</ele>
        <time>2024-03-20T18:16:06Z</time>
      </trkpt>
      <trkpt lat="49.23875" lon="-0.08269">
        <ele>-1</ele>
        <time>2024-03-20T18:16:07Z</time>
      </trkpt>
      <trkpt lat="49.23878" lon="-0.0828">
        <ele>-0.8</ele>
        <time>2024-03-20T18:16:08Z</time>
      </trkpt>
      <trkpt lat="49.2388" lon="-0.08292">
        <ele>-0.6</ele>
        <time>2024-03-20T18:16:09Z</time>
      </trkpt>
      <trkpt lat="49.23882" lon="-0.08304">
        <ele>-0.4</ele>
        <time>2024-03-20T18:16:10Z</time>
      </trkpt>
      <trkpt lat="49.23883" lon="-0.08316">
        <ele>7.1</ele>
        <time>2024-03-20T18:16:11Z</time>
      </trkpt>
      <trkpt lat="49.23883" lon="-0.08329">
        <ele>0.2</ele>
        <time>2024-03-20T18:16:12Z</time>
      </trkpt>
      <trkpt lat="49.23883" lon="-0.08344">
        <ele>0.4</ele>
        <time>2024-03-20T18:16:13Z</time>
      </trkpt>
      <trkpt lat="49.23882" lon="-0.08354">
        <ele>0.4</ele>
        <time>2024-03-20T18:16:14Z</time>
      </trkpt>
      <trkpt lat="49.23882" lon="-0.08367">
        <ele>0.4</ele>
        <time>2024-03-20T18:16:15Z</time>
      </trkpt>
      <trkpt lat="49.23881" lon="-0.08383">
        <ele>0.4</ele>
        <time>2024-03-20T18:16:16Z</time>
      </trkpt>
      <trkpt lat="49.2388" lon="-0.08393">
        <ele>0.4</ele>
        <time>2024-03-20T18:16:17Z</time>
      </trkpt>
      <trkpt lat="49.2388" lon="-0.08406">
        <ele>0.4</ele>
        <time>2024-03-20T18:16:18Z</time>
      </trkpt>
      <trkpt lat="49.2388" lon="-0.08419">
        <ele>0.4</ele>
        <time>2024-03-20T18:16:19Z</time>
      </trkpt>
      <trkpt lat="49.2388" lon="-0.08432">
        <ele>0.4</ele>
        <time>2024-03-20T18:16:20Z</time>
      </trkpt>
      <trkpt lat="49.23882" lon="-0.08445">
        <ele>0.4</ele>
        <time>2024-03-20T18:16:21Z</time>
      </trkpt>
      <trkpt lat="49.23883" lon="-0.08458">
        <ele>0.4</ele>
        <time>2024-03-20T18:16:22Z</time>
      </trkpt>
      <trkpt lat="49.23886" lon="-0.0847">
        <ele>0.2</ele>
        <time>2024-03-20T18:16:23Z</time>
      </trkpt>
      <trkpt lat="49.23888" lon="-0.08483">
        <ele>0.2</ele>
        <time>2024-03-20T18:16:24Z</time>
      </trkpt>
      <trkpt lat="49.23891" lon="-0.08495">
        <ele>7</ele>
        <time>2024-03-20T18:16:25Z</time>
      </trkpt>
      <trkpt lat="49.23895" lon="-0.08507">
        <ele>7</ele>
        <time>2024-03-20T18:16:26Z</time>
      </trkpt>
      <trkpt lat="49.23898" lon="-0.08518">
        <ele>7</ele>
        <time>2024-03-20T18:16:27Z</time>
      </trkpt>
      <trkpt lat="49.23902" lon="-0.0853">
        <ele>-0.2</ele>
        <time>2024-03-20T18:16:28Z</time>
      </trkpt>
      <trkpt lat="49.23905" lon="-0.08542">
        <ele>-0.2</ele>
        <time>2024-03-20T18:16:29Z</time>
      </trkpt>
      <trkpt lat="49.23909" lon="-0.08553">
        <ele>-0.4</ele>
        <time>2024-03-20T18:16:30Z</time>
      </trkpt>
      <trkpt lat="49.23912" lon="-0.08565">
        <ele>-0.4</ele>
        <time>2024-03-20T18:16:31Z</time>
      </trkpt>
      <trkpt lat="49.23915" lon="-0.08578">
        <ele>-0.4</ele>
        <time>2024-03-20T18:16:32Z</time>
      </trkpt>
      <trkpt lat="49.23917" lon="-0.0859">
        <ele>-0.4</ele>
        <time>2024-03-20T18:16:33Z</time>
      </trkpt>
      <trkpt lat="49.23918" lon="-0.08603">
        <ele>-0.4</ele>
        <time>2024-03-20T18:16:34Z</time>
      </trkpt>
      <trkpt lat="49.2392" lon="-0.08616">
        <ele>-0.4</ele>
        <time>2024-03-20T18:16:35Z</time>
      </trkpt>
      <trkpt lat="49.23921" lon="-0.08629">
        <ele>-0.6</ele>
        <time>2024-03-20T18:16:36Z</time>
      </trkpt>
      <trkpt lat="49.23922" lon="-0.08642">
        <ele>-0.6</ele>
        <time>2024-03-20T18:16:37Z</time>
      </trkpt>
      <trkpt lat="49.23924" lon="-0.08654">
        <ele>-0.6</ele>
        <time>2024-03-20T18:16:38Z</time>
      </trkpt>
      <trkpt lat="49.23926" lon="-0.08669">
        <ele>-0.6</ele>
        <time>2024-03-20T18:16:39Z</time>
      </trkpt>
      <trkpt lat="49.23927" lon="-0.0868">
        <ele>-0.6</ele>
        <time>2024-03-20T18:16:40Z</time>
      </trkpt>
      <trkpt lat="49.23929" lon="-0.08692">
        <ele>-0.6</ele>
        <time>2024-03-20T18:16:41Z</time>
      </trkpt>
      <trkpt lat="49.23931" lon="-0.08705">
        <ele>-0.8</ele>
        <time>2024-03-20T18:16:42Z</time>
      </trkpt>
      <trkpt lat="49.23933" lon="-0.08717">
        <ele>-0.8</ele>
        <time>2024-03-20T18:16:43Z</time>
      </trkpt>
      <trkpt lat="49.23936" lon="-0.08729">
        <ele>-0.8</ele>
        <time>2024-03-20T18:16:44Z</time>
      </trkpt>
      <trkpt lat="49.23939" lon="-0.08741">
        <ele>-0.8</ele>
        <time>2024-03-20T18:16:45Z</time>
      </trkpt>
      <trkpt lat="49.23942" lon="-0.08753">
        <ele>-1</ele>
        <time>2024-03-20T18:16:46Z</time>
      </trkpt>
      <trkpt lat="49.23944" lon="-0.08765">
        <ele>-1</ele>
        <time>2024-03-20T18:16:47Z</time>
      </trkpt>
      <trkpt lat="49.23947" lon="-0.08776">
        <ele>-1</ele>
        <time>2024-03-20T18:16:48Z</time>
      </trkpt>
      <trkpt lat="49.2395" lon="-0.08788">
        <ele>-1</ele>
        <time>2024-03-20T18:16:49Z</time>
      </trkpt>
      <trkpt lat="49.23952" lon="-0.088">
        <ele>-1</ele>
        <time>2024-03-20T18:16:50Z</time>
      </trkpt>
      <trkpt lat="49.23955" lon="-0.08812">
        <ele>-1.2</ele>
        <time>2024-03-20T18:16:51Z</time>
      </trkpt>
      <trkpt lat="49.23957" lon="-0.08824">
        <ele>-1.2</ele>
        <time>2024-03-20T18:16:52Z</time>
      </trkpt>
      <trkpt lat="49.23959" lon="-0.08837">
        <ele>-1.2</ele>
        <time>2024-03-20T18:16:53Z</time>
      </trkpt>
      <trkpt lat="49.23961" lon="-0.08849">
        <ele>-1.2</ele>
        <time>2024-03-20T18:16:54Z</time>
      </trkpt>
      <trkpt lat="49.23962" lon="-0.08861">
        <ele>-1.2</ele>
        <time>2024-03-20T18:16:55Z</time>
      </trkpt>
      <trkpt lat="49.23964" lon="-0.08874">
        <ele>-1.2</ele>
        <time>2024-03-20T18:16:56Z</time>
      </trkpt>
      <trkpt lat="49.23965" lon="-0.08886">
        <ele>-1.2</ele>
        <time>2024-03-20T18:16:57Z</time>
      </trkpt>
      <trkpt lat="49.23967" lon="-0.08898">
        <ele>-1.2</ele>
        <time>2024-03-20T18:16:58Z</time>
      </trkpt>
      <trkpt lat="49.23969" lon="-0.08911">
        <ele>-1.2</ele>
        <time>2024-03-20T18:16:59Z</time>
      </trkpt>
      <trkpt lat="49.23971" lon="-0.08922">
        <ele>-1.2</ele>
        <time>2024-03-20T18:17:00Z</time>
      </trkpt>
      <trkpt lat="49.23975" lon="-0.08934">
        <ele>-1.2</ele>
        <time>2024-03-20T18:17:01Z</time>
      </trkpt>
      <trkpt lat="49.23979" lon="-0.08945">
        <ele>-1.2</ele>
        <time>2024-03-20T18:17:02Z</time>
      </trkpt>
      <trkpt lat="49.23984" lon="-0.08956">
        <ele>-1.2</ele>
        <time>2024-03-20T18:17:03Z</time>
      </trkpt>
      <trkpt lat="49.23989" lon="-0.08966">
        <ele>-1.2</ele>
        <time>2024-03-20T18:17:04Z</time>
      </trkpt>
      <trkpt lat="49.23995" lon="-0.08976">
        <ele>-1.4</ele>
        <time>2024-03-20T18:17:05Z</time>
      </trkpt>
      <trkpt lat="49.24002" lon="-0.08987">
        <ele>-1.4</ele>
        <time>2024-03-20T18:17:06Z</time>
      </trkpt>
      <trkpt lat="49.24007" lon="-0.08994">
        <ele>-1.6</ele>
        <time>2024-03-20T18:17:07Z</time>
      </trkpt>
      <trkpt lat="49.24013" lon="-0.09002">
        <ele>-1.6</ele>
        <time>2024-03-20T18:17:08Z</time>
      </trkpt>
      <trkpt lat="49.2402" lon="-0.0901">
        <ele>-1.6</ele>
        <time>2024-03-20T18:17:09Z</time>
      </trkpt>
      <trkpt lat="49.24026" lon="-0.09017">
        <ele>-1.6</ele>
        <time>2024-03-20T18:17:10Z</time>
      </trkpt>
      <trkpt lat="49.24034" lon="-0.09024">
        <ele>-1.6</ele>
        <time>2024-03-20T18:17:11Z</time>
      </trkpt>
      <trkpt lat="49.24041" lon="-0.09029">
        <ele>-1.6</ele>
        <time>2024-03-20T18:17:12Z</time>
      </trkpt>
      <trkpt lat="49.24048" lon="-0.09033">
        <ele>-1.6</ele>
        <time>2024-03-20T18:17:13Z</time>
      </trkpt>
      <trkpt lat="49.24056" lon="-0.09037">
        <ele>-1.6</ele>
        <time>2024-03-20T18:17:14Z</time>
      </trkpt>
      <trkpt lat="49.24063" lon="-0.09042">
        <ele>-1.6</ele>
        <time>2024-03-20T18:17:15Z</time>
      </trkpt>
      <trkpt lat="49.24071" lon="-0.09047">
        <ele>-1.6</ele>
        <time>2024-03-20T18:17:16Z</time>
      </trkpt>
      <trkpt lat="49.24077" lon="-0.09054">
        <ele>-1.8</ele>
        <time>2024-03-20T18:17:17Z</time>
      </trkpt>
      <trkpt lat="49.24084" lon="-0.09062">
        <ele>-2</ele>
        <time>2024-03-20T18:17:18Z</time>
      </trkpt>
      <trkpt lat="49.2409" lon="-0.09071">
        <ele>-2</ele>
        <time>2024-03-20T18:17:19Z</time>
      </trkpt>
      <trkpt lat="49.24094" lon="-0.09081">
        <ele>-2</ele>
        <time>2024-03-20T18:17:20Z</time>
      </trkpt>
      <trkpt lat="49.24098" lon="-0.09092">
        <ele>-2</ele>
        <time>2024-03-20T18:17:21Z</time>
      </trkpt>
      <trkpt lat="49.24102" lon="-0.09104">
        <ele>-2</ele>
        <time>2024-03-20T18:17:22Z</time>
      </trkpt>
      <trkpt lat="49.24106" lon="-0.09116">
        <ele>-2</ele>
        <time>2024-03-20T18:17:23Z</time>
      </trkpt>
      <trkpt lat="49.24109" lon="-0.09128">
        <ele>-2.2</ele>
        <time>2024-03-20T18:17:24Z</time>
      </trkpt>
      <trkpt lat="49.24112" lon="-0.09139">
        <ele>-2.2</ele>
        <time>2024-03-20T18:17:25Z</time>
      </trkpt>
      <trkpt lat="49.24116" lon="-0.09151">
        <ele>-2.2</ele>
        <time>2024-03-20T18:17:26Z</time>
      </trkpt>
      <trkpt lat="49.24119" lon="-0.09163">
        <ele>-2</ele>
        <time>2024-03-20T18:17:27Z</time>
      </trkpt>
      <trkpt lat="49.24122" lon="-0.09174">
        <ele>-2</ele>
        <time>2024-03-20T18:17:28Z</time>
      </trkpt>
      <trkpt lat="49.24125" lon="-0.09186">
        <ele>-1.8</ele>
        <time>2024-03-20T18:17:29Z</time>
      </trkpt>
      <trkpt lat="49.24128" lon="-0.09198">
        <ele>-1.8</ele>
        <time>2024-03-20T18:17:30Z</time>
      </trkpt>
      <trkpt lat="49.2413" lon="-0.0921">
        <ele>-1.8</ele>
        <time>2024-03-20T18:17:31Z</time>
      </trkpt>
      <trkpt lat="49.24132" lon="-0.09222">
        <ele>-1.8</ele>
        <time>2024-03-20T18:17:32Z</time>
      </trkpt>
      <trkpt lat="49.24134" lon="-0.09235">
        <ele>-1.8</ele>
        <time>2024-03-20T18:17:33Z</time>
      </trkpt>
      <trkpt lat="49.24136" lon="-0.09247">
        <ele>-1.8</ele>
        <time>2024-03-20T18:17:34Z</time>
      </trkpt>
      <trkpt lat="49.24137" lon="-0.09259">
        <ele>-1.8</ele>
        <time>2024-03-20T18:17:35Z</time>
      </trkpt>
      <trkpt lat="49.24139" lon="-0.09272">
        <ele>-1.8</ele>
        <time>2024-03-20T18:17:36Z</time>
      </trkpt>
      <trkpt lat="49.2414" lon="-0.09284">
        <ele>-1.8</ele>
        <time>2024-03-20T18:17:37Z</time>
      </trkpt>
      <trkpt lat="49.24141" lon="-0.09296">
        <ele>-1.8</ele>
        <time>2024-03-20T18:17:38Z</time>
      </trkpt>
      <trkpt lat="49.24143" lon="-0.09308">
        <ele>-1.8</ele>
        <time>2024-03-20T18:17:39Z</time>
      </trkpt>
      <trkpt lat="49.24144" lon="-0.0932">
        <ele>-1.8</ele>
        <time>2024-03-20T18:17:40Z</time>
      </trkpt>
      <trkpt lat="49.24146" lon="-0.09332">
        <ele>-1.8</ele>
        <time>2024-03-20T18:17:41Z</time>
      </trkpt>
      <trkpt lat="49.24147" lon="-0.09345">
        <ele>-1.8</ele>
        <time>2024-03-20T18:17:42Z</time>
      </trkpt>
      <trkpt lat="49.24148" lon="-0.09357">
        <ele>-1.8</ele>
        <time>2024-03-20T18:17:43Z</time>
      </trkpt>
      <trkpt lat="49.2415" lon="-0.09369">
        <ele>-1.8</ele>
        <time>2024-03-20T18:17:44Z</time>
      </trkpt>
      <trkpt lat="49.24151" lon="-0.09381">
        <ele>-1.8</ele>
        <time>2024-03-20T18:17:45Z</time>
      </trkpt>
      <trkpt lat="49.24153" lon="-0.09393">
        <ele>-1.8</ele>
        <time>2024-03-20T18:17:46Z</time>
      </trkpt>
      <trkpt lat="49.24154" lon="-0.09405">
        <ele>-1.8</ele>
        <time>2024-03-20T18:17:47Z</time>
      </trkpt>
      <trkpt lat="49.24156" lon="-0.09417">
        <ele>-1.6</ele>
        <time>2024-03-20T18:17:48Z</time>
      </trkpt>
      <trkpt lat="49.24157" lon="-0.09429">
        <ele>-1.6</ele>
        <time>2024-03-20T18:17:49Z</time>
      </trkpt>
      <trkpt lat="49.24159" lon="-0.09441">
        <ele>-1.6</ele>
        <time>2024-03-20T18:17:50Z</time>
      </trkpt>
      <trkpt lat="49.24161" lon="-0.09453">
        <ele>-1.6</ele>
        <time>2024-03-20T18:17:51Z</time>
      </trkpt>
      <trkpt lat="49.24163" lon="-0.09465">
        <ele>-1.4</ele>
        <time>2024-03-20T18:17:52Z</time>
      </trkpt>
      <trkpt lat="49.24166" lon="-0.09477">
        <ele>-1.4</ele>
        <time>2024-03-20T18:17:53Z</time>
      </trkpt>
      <trkpt lat="49.24168" lon="-0.09489">
        <ele>-1.4</ele>
        <time>2024-03-20T18:17:54Z</time>
      </trkpt>
      <trkpt lat="49.24171" lon="-0.095">
        <ele>-1.4</ele>
        <time>2024-03-20T18:17:55Z</time>
      </trkpt>
      <trkpt lat="49.24175" lon="-0.09511">
        <ele>-1.4</ele>
        <time>2024-03-20T18:17:56Z</time>
      </trkpt>
      <trkpt lat="49.24179" lon="-0.09522">
        <ele>-1.4</ele>
        <time>2024-03-20T18:17:57Z</time>
      </trkpt>
      <trkpt lat="49.24183" lon="-0.09533">
        <ele>-1.2</ele>
        <time>2024-03-20T18:17:58Z</time>
      </trkpt>
      <trkpt lat="49.24188" lon="-0.09542">
        <ele>-1.2</ele>
        <time>2024-03-20T18:17:59Z</time>
      </trkpt>
      <trkpt lat="49.24193" lon="-0.09552">
        <ele>-1.2</ele>
        <time>2024-03-20T18:18:00Z</time>
      </trkpt>
      <trkpt lat="49.24199" lon="-0.09561">
        <ele>-1.2</ele>
        <time>2024-03-20T18:18:01Z</time>
      </trkpt>
      <trkpt lat="49.24205" lon="-0.0957">
        <ele>-1</ele>
        <time>2024-03-20T18:18:02Z</time>
      </trkpt>
      <trkpt lat="49.24211" lon="-0.09579">
        <ele>-1</ele>
        <time>2024-03-20T18:18:03Z</time>
      </trkpt>
      <trkpt lat="49.24217" lon="-0.09587">
        <ele>-1</ele>
        <time>2024-03-20T18:18:04Z</time>
      </trkpt>
      <trkpt lat="49.24224" lon="-0.09595">
        <ele>-0.8</ele>
        <time>2024-03-20T18:18:05Z</time>
      </trkpt>
      <trkpt lat="49.24231" lon="-0.09602">
        <ele>-0.8</ele>
        <time>2024-03-20T18:18:06Z</time>
      </trkpt>
      <trkpt lat="49.24238" lon="-0.09609">
        <ele>-0.8</ele>
        <time>2024-03-20T18:18:07Z</time>
      </trkpt>
      <trkpt lat="49.24244" lon="-0.09616">
        <ele>-0.8</ele>
        <time>2024-03-20T18:18:08Z</time>
      </trkpt>
      <trkpt lat="49.24251" lon="-0.09623">
        <ele>-0.8</ele>
        <time>2024-03-20T18:18:09Z</time>
      </trkpt>
      <trkpt lat="49.24258" lon="-0.0963">
        <ele>-0.8</ele>
        <time>2024-03-20T18:18:10Z</time>
      </trkpt>
      <trkpt lat="49.24264" lon="-0.09637">
        <ele>-0.8</ele>
        <time>2024-03-20T18:18:11Z</time>
      </trkpt>
      <trkpt lat="49.24271" lon="-0.09644">
        <ele>-0.8</ele>
        <time>2024-03-20T18:18:12Z</time>
      </trkpt>
      <trkpt lat="49.24277" lon="-0.09651">
        <ele>-0.8</ele>
        <time>2024-03-20T18:18:13Z</time>
      </trkpt>
      <trkpt lat="49.24283" lon="-0.09658">
        <ele>-1</ele>
        <time>2024-03-20T18:18:14Z</time>
      </trkpt>
      <trkpt lat="49.2429" lon="-0.09665">
        <ele>-1</ele>
        <time>2024-03-20T18:18:15Z</time>
      </trkpt>
      <trkpt lat="49.24296" lon="-0.09671">
        <ele>-1</ele>
        <time>2024-03-20T18:18:16Z</time>
      </trkpt>
      <trkpt lat="49.24302" lon="-0.09678">
        <ele>-1.2</ele>
        <time>2024-03-20T18:18:17Z</time>
      </trkpt>
      <trkpt lat="49.24309" lon="-0.09685">
        <ele>-1.2</ele>
        <time>2024-03-20T18:18:18Z</time>
      </trkpt>
      <trkpt lat="49.24315" lon="-0.09691">
        <ele>-1.2</ele>
        <time>2024-03-20T18:18:19Z</time>
      </trkpt>
      <trkpt lat="49.24322" lon="-0.09698">
        <ele>-1.2</ele>
        <time>2024-03-20T18:18:20Z</time>
      </trkpt>
      <trkpt lat="49.24328" lon="-0.09704">
        <ele>-1.4</ele>
        <time>2024-03-20T18:18:21Z</time>
      </trkpt>
      <trkpt lat="49.24334" lon="-0.0971">
        <ele>-1.6</ele>
        <time>2024-03-20T18:18:22Z</time>
      </trkpt>
      <trkpt lat="49.2434" lon="-0.09717">
        <ele>-1.6</ele>
        <time>2024-03-20T18:18:23Z</time>
      </trkpt>
      <trkpt lat="49.24346" lon="-0.09723">
        <ele>-1.8</ele>
        <time>2024-03-20T18:18:24Z</time>
      </trkpt>
      <trkpt lat="49.24351" lon="-0.09729">
        <ele>-1.8</ele>
        <time>2024-03-20T18:18:25Z</time>
      </trkpt>
      <trkpt lat="49.24356" lon="-0.09735">
        <ele>-1.8</ele>
        <time>2024-03-20T18:18:26Z</time>
      </trkpt>
      <trkpt lat="49.24361" lon="-0.09742">
        <ele>-1.8</ele>
        <time>2024-03-20T18:18:27Z</time>
      </trkpt>
      <trkpt lat="49.24366" lon="-0.09749">
        <ele>-1.8</ele>
        <time>2024-03-20T18:18:28Z</time>
      </trkpt>
      <trkpt lat="49.24371" lon="-0.09755">
        <ele>-1.8</ele>
        <time>2024-03-20T18:18:29Z</time>
      </trkpt>
      <trkpt lat="49.24376" lon="-0.09761">
        <ele>-1.8</ele>
        <time>2024-03-20T18:18:30Z</time>
      </trkpt>
      <trkpt lat="49.2438" lon="-0.09768">
        <ele>-1.8</ele>
        <time>2024-03-20T18:18:31Z</time>
      </trkpt>
      <trkpt lat="49.24384" lon="-0.09776">
        <ele>-1.8</ele>
        <time>2024-03-20T18:18:32Z</time>
      </trkpt>
      <trkpt lat="49.24388" lon="-0.09783">
        <ele>-1.8</ele>
        <time>2024-03-20T18:18:33Z</time>
      </trkpt>
      <trkpt lat="49.24392" lon="-0.09791">
        <ele>-1.6</ele>
        <time>2024-03-20T18:18:34Z</time>
      </trkpt>
      <trkpt lat="49.24395" lon="-0.098">
        <ele>-1.4</ele>
        <time>2024-03-20T18:18:35Z</time>
      </trkpt>
      <trkpt lat="49.24398" lon="-0.09808">
        <ele>-1</ele>
        <time>2024-03-20T18:18:36Z</time>
      </trkpt>
      <trkpt lat="49.244" lon="-0.09817">
        <ele>-0.6</ele>
        <time>2024-03-20T18:18:37Z</time>
      </trkpt>
      <trkpt lat="49.24403" lon="-0.09826">
        <ele>-0.4</ele>
        <time>2024-03-20T18:18:38Z</time>
      </trkpt>
      <trkpt lat="49.24405" lon="-0.09835">
        <ele>-0.2</ele>
        <time>2024-03-20T18:18:39Z</time>
      </trkpt>
      <trkpt lat="49.24408" lon="-0.09844">
        <ele>0.2</ele>
        <time>2024-03-20T18:18:40Z</time>
      </trkpt>
      <trkpt lat="49.2441" lon="-0.09853">
        <ele>0.4</ele>
        <time>2024-03-20T18:18:41Z</time>
      </trkpt>
      <trkpt lat="49.24412" lon="-0.09862">
        <ele>0.6</ele>
        <time>2024-03-20T18:18:42Z</time>
      </trkpt>
      <trkpt lat="49.24414" lon="-0.09871">
        <ele>0.8</ele>
        <time>2024-03-20T18:18:43Z</time>
      </trkpt>
      <trkpt lat="49.24417" lon="-0.09881">
        <ele>0.8</ele>
        <time>2024-03-20T18:18:44Z</time>
      </trkpt>
      <trkpt lat="49.24419" lon="-0.0989">
        <ele>1</ele>
        <time>2024-03-20T18:18:45Z</time>
      </trkpt>
      <trkpt lat="49.24421" lon="-0.09899">
        <ele>1</ele>
        <time>2024-03-20T18:18:46Z</time>
      </trkpt>
      <trkpt lat="49.24424" lon="-0.09908">
        <ele>1.2</ele>
        <time>2024-03-20T18:18:47Z</time>
      </trkpt>
      <trkpt lat="49.24426" lon="-0.09917">
        <ele>1.4</ele>
        <time>2024-03-20T18:18:48Z</time>
      </trkpt>
      <trkpt lat="49.24428" lon="-0.09926">
        <ele>1.6</ele>
        <time>2024-03-20T18:18:49Z</time>
      </trkpt>
      <trkpt lat="49.2443" lon="-0.09935">
        <ele>1.8</ele>
        <time>2024-03-20T18:18:50Z</time>
      </trkpt>
      <trkpt lat="49.24433" lon="-0.09945">
        <ele>1.8</ele>
        <time>2024-03-20T18:18:51Z</time>
      </trkpt>
      <trkpt lat="49.24436" lon="-0.09954">
        <ele>1.8</ele>
        <time>2024-03-20T18:18:52Z</time>
      </trkpt>
      <trkpt lat="49.24439" lon="-0.09963">
        <ele>2</ele>
        <time>2024-03-20T18:18:53Z</time>
      </trkpt>
      <trkpt lat="49.24443" lon="-0.09972">
        <ele>2</ele>
        <time>2024-03-20T18:18:54Z</time>
      </trkpt>
      <trkpt lat="49.24448" lon="-0.0998">
        <ele>2</ele>
        <time>2024-03-20T18:18:55Z</time>
      </trkpt>
      <trkpt lat="49.24453" lon="-0.09988">
        <ele>2.2</ele>
        <time>2024-03-20T18:18:56Z</time>
      </trkpt>
      <trkpt lat="49.24458" lon="-0.09995">
        <ele>2.2</ele>
        <time>2024-03-20T18:18:57Z</time>
      </trkpt>
      <trkpt lat="49.24464" lon="-0.10002">
        <ele>2.2</ele>
        <time>2024-03-20T18:18:58Z</time>
      </trkpt>
      <trkpt lat="49.2447" lon="-0.10008">
        <ele>2.2</ele>
        <time>2024-03-20T18:18:59Z</time>
      </trkpt>
      <trkpt lat="49.24477" lon="-0.10014">
        <ele>2.2</ele>
        <time>2024-03-20T18:19:00Z</time>
      </trkpt>
      <trkpt lat="49.24484" lon="-0.1002">
        <ele>2.2</ele>
        <time>2024-03-20T18:19:01Z</time>
      </trkpt>
      <trkpt lat="49.24491" lon="-0.10026">
        <ele>2</ele>
        <time>2024-03-20T18:19:02Z</time>
      </trkpt>
      <trkpt lat="49.24498" lon="-0.10031">
        <ele>1.8</ele>
        <time>2024-03-20T18:19:03Z</time>
      </trkpt>
      <trkpt lat="49.24505" lon="-0.10037">
        <ele>1.8</ele>
        <time>2024-03-20T18:19:04Z</time>
      </trkpt>
      <trkpt lat="49.24512" lon="-0.10042">
        <ele>1.4</ele>
        <time>2024-03-20T18:19:05Z</time>
      </trkpt>
      <trkpt lat="49.2452" lon="-0.10048">
        <ele>0.8</ele>
        <time>2024-03-20T18:19:06Z</time>
      </trkpt>
      <trkpt lat="49.24527" lon="-0.10054">
        <ele>0.4</ele>
        <time>2024-03-20T18:19:07Z</time>
      </trkpt>
      <trkpt lat="49.24535" lon="-0.1006">
        <ele>6.7</ele>
        <time>2024-03-20T18:19:08Z</time>
      </trkpt>
      <trkpt lat="49.24543" lon="-0.10066">
        <ele>-0.6</ele>
        <time>2024-03-20T18:19:09Z</time>
      </trkpt>
      <trkpt lat="49.2455" lon="-0.10072">
        <ele>-0.8</ele>
        <time>2024-03-20T18:19:10Z</time>
      </trkpt>
      <trkpt lat="49.24558" lon="-0.10078">
        <ele>-1.2</ele>
        <time>2024-03-20T18:19:11Z</time>
      </trkpt>
      <trkpt lat="49.24566" lon="-0.10084">
        <ele>-1.8</ele>
        <time>2024-03-20T18:19:12Z</time>
      </trkpt>
      <trkpt lat="49.24574" lon="-0.1009">
        <ele>-2</ele>
        <time>2024-03-20T18:19:13Z</time>
      </trkpt>
      <trkpt lat="49.24582" lon="-0.10096">
        <ele>-2.2</ele>
        <time>2024-03-20T18:19:14Z</time>
      </trkpt>
      <trkpt lat="49.2459" lon="-0.10102">
        <ele>-2.4</ele>
        <time>2024-03-20T18:19:15Z</time>
      </trkpt>
      <trkpt lat="49.24598" lon="-0.10109">
        <ele>-3</ele>
        <time>2024-03-20T18:19:16Z</time>
      </trkpt>
      <trkpt lat="49.24606" lon="-0.10115">
        <ele>-3.4</ele>
        <time>2024-03-20T18:19:17Z</time>
      </trkpt>
      <trkpt lat="49.24614" lon="-0.1012">
        <ele>-3.8</ele>
        <time>2024-03-20T18:19:18Z</time>
      </trkpt>
      <trkpt lat="49.24621" lon="-0.10126">
        <ele>-4.4</ele>
        <time>2024-03-20T18:19:19Z</time>
      </trkpt>
      <trkpt lat="49.24629" lon="-0.10132">
        <ele>-4.8</ele>
        <time>2024-03-20T18:19:20Z</time>
      </trkpt>
      <trkpt lat="49.24636" lon="-0.10138">
        <ele>-5.2</ele>
        <time>2024-03-20T18:19:21Z</time>
      </trkpt>
      <trkpt lat="49.24644" lon="-0.10144">
        <ele>-5.6</ele>
        <time>2024-03-20T18:19:22Z</time>
      </trkpt>
      <trkpt lat="49.24651" lon="-0.10149">
        <ele>-6</ele>
        <time>2024-03-20T18:19:23Z</time>
      </trkpt>
      <trkpt lat="49.24658" lon="-0.10155">
        <ele>-6.4</ele>
        <time>2024-03-20T18:19:24Z</time>
      </trkpt>
      <trkpt lat="49.24665" lon="-0.1016">
        <ele>-6.8</ele>
        <time>2024-03-20T18:19:25Z</time>
      </trkpt>
      <trkpt lat="49.24672" lon="-0.10165">
        <ele>-7</ele>
        <time>2024-03-20T18:19:26Z</time>
      </trkpt>
      <trkpt lat="49.24678" lon="-0.1017">
        <ele>-7</ele>
        <time>2024-03-20T18:19:27Z</time>
      </trkpt>
      <trkpt lat="49.24685" lon="-0.10175">
        <ele>-7</ele>
        <time>2024-03-20T18:19:28Z</time>
      </trkpt>
      <trkpt lat="49.24691" lon="-0.1018">
        <ele>-7</ele>
        <time>2024-03-20T18:19:29Z</time>
      </trkpt>
      <trkpt lat="49.24698" lon="-0.10185">
        <ele>-7</ele>
        <time>2024-03-20T18:19:30Z</time>
      </trkpt>
      <trkpt lat="49.24704" lon="-0.1019">
        <ele>-7</ele>
        <time>2024-03-20T18:19:31Z</time>
      </trkpt>
      <trkpt lat="49.24711" lon="-0.10194">
        <ele>-7</ele>
        <time>2024-03-20T18:19:32Z</time>
      </trkpt>
      <trkpt lat="49.24717" lon="-0.10199">
        <ele>-7</ele>
        <time>2024-03-20T18:19:33Z</time>
      </trkpt>
      <trkpt lat="49.24723" lon="-0.10204">
        <ele>-7</ele>
        <time>2024-03-20T18:19:34Z</time>
      </trkpt>
      <trkpt lat="49.24729" lon="-0.10208">
        <ele>-7</ele>
        <time>2024-03-20T18:19:35Z</time>
      </trkpt>
      <trkpt lat="49.24736" lon="-0.10213">
        <ele>-7</ele>
        <time>2024-03-20T18:19:36Z</time>
      </trkpt>
      <trkpt lat="49.24741" lon="-0.10218">
        <ele>-6.8</ele>
        <time>2024-03-20T18:19:37Z</time>
      </trkpt>
      <trkpt lat="49.24747" lon="-0.10222">
        <ele>-6.8</ele>
        <time>2024-03-20T18:19:38Z</time>
      </trkpt>
      <trkpt lat="49.24753" lon="-0.10227">
        <ele>-6.8</ele>
        <time>2024-03-20T18:19:39Z</time>
      </trkpt>
      <trkpt lat="49.24759" lon="-0.10231">
        <ele>-6.6</ele>
        <time>2024-03-20T18:19:40Z</time>
      </trkpt>
      <trkpt lat="49.24765" lon="-0.10236">
        <ele>-6.6</ele>
        <time>2024-03-20T18:19:41Z</time>
      </trkpt>
      <trkpt lat="49.24771" lon="-0.1024">
        <ele>-6.6</ele>
        <time>2024-03-20T18:19:42Z</time>
      </trkpt>
      <trkpt lat="49.24777" lon="-0.10244">
        <ele>-6.4</ele>
        <time>2024-03-20T18:19:43Z</time>
      </trkpt>
      <trkpt lat="49.24783" lon="-0.10249">
        <ele>-6.4</ele>
        <time>2024-03-20T18:19:44Z</time>
      </trkpt>
      <trkpt lat="49.24789" lon="-0.10253">
        <ele>-6.2</ele>
        <time>2024-03-20T18:19:45Z</time>
      </trkpt>
      <trkpt lat="49.24795" lon="-0.10258">
        <ele>-6</ele>
        <time>2024-03-20T18:19:46Z</time>
      </trkpt>
      <trkpt lat="49.24801" lon="-0.10262">
        <ele>-6</ele>
        <time>2024-03-20T18:19:47Z</time>
      </trkpt>
      <trkpt lat="49.24807" lon="-0.10267">
        <ele>-6</ele>
        <time>2024-03-20T18:19:48Z</time>
      </trkpt>
      <trkpt lat="49.24813" lon="-0.10271">
        <ele>-5.8</ele>
        <time>2024-03-20T18:19:49Z</time>
      </trkpt>
      <trkpt lat="49.24819" lon="-0.10276">
        <ele>-5.8</ele>
        <time>2024-03-20T18:19:50Z</time>
      </trkpt>
      <trkpt lat="49.24826" lon="-0.10279">
        <ele>-5.8</ele>
        <time>2024-03-20T18:19:51Z</time>
      </trkpt>
      <trkpt lat="49.24832" lon="-0.10283">
        <ele>-5.6</ele>
        <time>2024-03-20T18:19:52Z</time>
      </trkpt>
      <trkpt lat="49.24838" lon="-0.10285">
        <ele>-5.6</ele>
        <time>2024-03-20T18:19:53Z</time>
      </trkpt>
      <trkpt lat="49.24844" lon="-0.10288">
        <ele>-5.6</ele>
        <time>2024-03-20T18:19:54Z</time>
      </trkpt>
      <trkpt lat="49.2485" lon="-0.10289">
        <ele>-5.6</ele>
        <time>2024-03-20T18:19:55Z</time>
      </trkpt>
      <trkpt lat="49.24856" lon="-0.1029">
        <ele>-5.6</ele>
        <time>2024-03-20T18:19:56Z</time>
      </trkpt>
      <trkpt lat="49.24863" lon="-0.1029">
        <ele>-5.6</ele>
        <time>2024-03-20T18:19:57Z</time>
      </trkpt>
      <trkpt lat="49.24869" lon="-0.1029">
        <ele>-5.4</ele>
        <time>2024-03-20T18:19:58Z</time>
      </trkpt>
      <trkpt lat="49.24875" lon="-0.10289">
        <ele>-5.4</ele>
        <time>2024-03-20T18:19:59Z</time>
      </trkpt>
      <trkpt lat="49.24882" lon="-0.10288">
        <ele>-5.2</ele>
        <time>2024-03-20T18:20:00Z</time>
      </trkpt>
      <trkpt lat="49.24888" lon="-0.10287">
        <ele>-5.2</ele>
        <time>2024-03-20T18:20:01Z</time>
      </trkpt>
      <trkpt lat="49.24894" lon="-0.10285">
        <ele>-5.2</ele>
        <time>2024-03-20T18:20:02Z</time>
      </trkpt>
      <trkpt lat="49.249" lon="-0.10282">
        <ele>-5</ele>
        <time>2024-03-20T18:20:03Z</time>
      </trkpt>
      <trkpt lat="49.24906" lon="-0.10278">
        <ele>-5</ele>
        <time>2024-03-20T18:20:04Z</time>
      </trkpt>
      <trkpt lat="49.24912" lon="-0.10274">
        <ele>-5</ele>
        <time>2024-03-20T18:20:05Z</time>
      </trkpt>
      <trkpt lat="49.24918" lon="-0.10269">
        <ele>-5</ele>
        <time>2024-03-20T18:20:06Z</time>
      </trkpt>
      <trkpt lat="49.24923" lon="-0.10263">
        <ele>-5</ele>
        <time>2024-03-20T18:20:07Z</time>
      </trkpt>
      <trkpt lat="49.24929" lon="-0.10256">
        <ele>-5</ele>
        <time>2024-03-20T18:20:08Z</time>
      </trkpt>
      <trkpt lat="49.24934" lon="-0.10249">
        <ele>-5</ele>
        <time>2024-03-20T18:20:09Z</time>
      </trkpt>
      <trkpt lat="49.24938" lon="-0.10241">
        <ele>-5</ele>
        <time>2024-03-20T18:20:10Z</time>
      </trkpt>
      <trkpt lat="49.24942" lon="-0.10233">
        <ele>-5</ele>
        <time>2024-03-20T18:20:11Z</time>
      </trkpt>
      <trkpt lat="49.24946" lon="-0.10224">
        <ele>-5</ele>
        <time>2024-03-20T18:20:12Z</time>
      </trkpt>
      <trkpt lat="49.2495" lon="-0.10214">
        <ele>-5</ele>
        <time>2024-03-20T18:20:13Z</time>
      </trkpt>
      <trkpt lat="49.24954" lon="-0.10205">
        <ele>-5.2</ele>
        <time>2024-03-20T18:20:14Z</time>
      </trkpt>
      <trkpt lat="49.24957" lon="-0.10196">
        <ele>-5.4</ele>
        <time>2024-03-20T18:20:15Z</time>
      </trkpt>
      <trkpt lat="49.2496" lon="-0.10186">
        <ele>-5.4</ele>
        <time>2024-03-20T18:20:16Z</time>
      </trkpt>
      <trkpt lat="49.24963" lon="-0.10177">
        <ele>-5.6</ele>
        <time>2024-03-20T18:20:17Z</time>
      </trkpt>
      <trkpt lat="49.24967" lon="-0.10167">
        <ele>-5.6</ele>
        <time>2024-03-20T18:20:18Z</time>
      </trkpt>
      <trkpt lat="49.2497" lon="-0.10158">
        <ele>-5.6</ele>
        <time>2024-03-20T18:20:19Z</time>
      </trkpt>
      <trkpt lat="49.24974" lon="-0.10148">
        <ele>-5.8</ele>
        <time>2024-03-20T18:20:20Z</time>
      </trkpt>
      <trkpt lat="49.24977" lon="-0.10138">
        <ele>-5.8</ele>
        <time>2024-03-20T18:20:21Z</time>
      </trkpt>
      <trkpt lat="49.24979" lon="-0.10129">
        <ele>-5.8</ele>
        <time>2024-03-20T18:20:22Z</time>
      </trkpt>
      <trkpt lat="49.24982" lon="-0.1012">
        <ele>-5.8</ele>
        <time>2024-03-20T18:20:23Z</time>
      </trkpt>
      <trkpt lat="49.24985" lon="-0.10111">
        <ele>-5.8</ele>
        <time>2024-03-20T18:20:24Z</time>
      </trkpt>
      <trkpt lat="49.24989" lon="-0.10102">
        <ele>-6</ele>
        <time>2024-03-20T18:20:25Z</time>
      </trkpt>
      <trkpt lat="49.24992" lon="-0.10092">
        <ele>-6</ele>
        <time>2024-03-20T18:20:26Z</time>
      </trkpt>
      <trkpt lat="49.24995" lon="-0.10083">
        <ele>-6</ele>
        <time>2024-03-20T18:20:27Z</time>
      </trkpt>
      <trkpt lat="49.24999" lon="-0.10072">
        <ele>-6</ele>
        <time>2024-03-20T18:20:28Z</time>
      </trkpt>
      <trkpt lat="49.25003" lon="-0.10062">
        <ele>-6</ele>
        <time>2024-03-20T18:20:29Z</time>
      </trkpt>
      <trkpt lat="49.25007" lon="-0.10053">
        <ele>-6.2</ele>
        <time>2024-03-20T18:20:30Z</time>
      </trkpt>
      <trkpt lat="49.2501" lon="-0.10043">
        <ele>-6.2</ele>
        <time>2024-03-20T18:20:31Z</time>
      </trkpt>
      <trkpt lat="49.25013" lon="-0.10033">
        <ele>-6.2</ele>
        <time>2024-03-20T18:20:32Z</time>
      </trkpt>
      <trkpt lat="49.25017" lon="-0.10023">
        <ele>-6.2</ele>
        <time>2024-03-20T18:20:33Z</time>
      </trkpt>
      <trkpt lat="49.25021" lon="-0.10013">
        <ele>-6.2</ele>
        <time>2024-03-20T18:20:34Z</time>
      </trkpt>
      <trkpt lat="49.25025" lon="-0.10003">
        <ele>-6.2</ele>
        <time>2024-03-20T18:20:35Z</time>
      </trkpt>
      <trkpt lat="49.25029" lon="-0.09993">
        <ele>-6.2</ele>
        <time>2024-03-20T18:20:36Z</time>
      </trkpt>
      <trkpt lat="49.25033" lon="-0.09983">
        <ele>-6.2</ele>
        <time>2024-03-20T18:20:37Z</time>
      </trkpt>
      <trkpt lat="49.25037" lon="-0.09972">
        <ele>-6.2</ele>
        <time>2024-03-20T18:20:38Z</time>
      </trkpt>
      <trkpt lat="49.25041" lon="-0.09961">
        <ele>-6.2</ele>
        <time>2024-03-20T18:20:39Z</time>
      </trkpt>
      <trkpt lat="49.25046" lon="-0.0995">
        <ele>-6.2</ele>
        <time>2024-03-20T18:20:40Z</time>
      </trkpt>
      <trkpt lat="49.2505" lon="-0.0994">
        <ele>-6</ele>
        <time>2024-03-20T18:20:41Z</time>
      </trkpt>
      <trkpt lat="49.25055" lon="-0.09929">
        <ele>-6</ele>
        <time>2024-03-20T18:20:42Z</time>
      </trkpt>
      <trkpt lat="49.25059" lon="-0.09919">
        <ele>-6</ele>
        <time>2024-03-20T18:20:43Z</time>
      </trkpt>
      <trkpt lat="49.25063" lon="-0.09908">
        <ele>-6</ele>
        <time>2024-03-20T18:20:44Z</time>
      </trkpt>
      <trkpt lat="49.25066" lon="-0.09897">
        <ele>-6</ele>
        <time>2024-03-20T18:20:45Z</time>
      </trkpt>
      <trkpt lat="49.2507" lon="-0.09886">
        <ele>-6</ele>
        <time>2024-03-20T18:20:46Z</time>
      </trkpt>
      <trkpt lat="49.25075" lon="-0.09875">
        <ele>-6</ele>
        <time>2024-03-20T18:20:47Z</time>
      </trkpt>
      <trkpt lat="49.25079" lon="-0.09864">
        <ele>-6</ele>
        <time>2024-03-20T18:20:48Z</time>
      </trkpt>
      <trkpt lat="49.25083" lon="-0.09854">
        <ele>-6</ele>
        <time>2024-03-20T18:20:49Z</time>
      </trkpt>
      <trkpt lat="49.25087" lon="-0.09844">
        <ele>-6</ele>
        <time>2024-03-20T18:20:50Z</time>
      </trkpt>
      <trkpt lat="49.25092" lon="-0.09834">
        <ele>-6</ele>
        <time>2024-03-20T18:20:51Z</time>
      </trkpt>
      <trkpt lat="49.25096" lon="-0.09824">
        <ele>-6.2</ele>
        <time>2024-03-20T18:20:52Z</time>
      </trkpt>
      <trkpt lat="49.251" lon="-0.09813">
        <ele>-6.2</ele>
        <time>2024-03-20T18:20:53Z</time>
      </trkpt>
      <trkpt lat="49.25104" lon="-0.09803">
        <ele>-6.4</ele>
        <time>2024-03-20T18:20:54Z</time>
      </trkpt>
      <trkpt lat="49.25108" lon="-0.09794">
        <ele>-6.4</ele>
        <time>2024-03-20T18:20:55Z</time>
      </trkpt>
      <trkpt lat="49.25112" lon="-0.09784">
        <ele>-6.4</ele>
        <time>2024-03-20T18:20:56Z</time>
      </trkpt>
      <trkpt lat="49.25116" lon="-0.09774">
        <ele>-6.4</ele>
        <time>2024-03-20T18:20:57Z</time>
      </trkpt>
      <trkpt lat="49.25121" lon="-0.09764">
        <ele>-6.4</ele>
        <time>2024-03-20T18:20:58Z</time>
      </trkpt>
      <trkpt lat="49.25126" lon="-0.09755">
        <ele>-6.4</ele>
        <time>2024-03-20T18:20:59Z</time>
      </trkpt>
      <trkpt lat="49.25131" lon="-0.09747">
        <ele>-6.4</ele>
        <time>2024-03-20T18:21:00Z</time>
      </trkpt>
      <trkpt lat="49.25137" lon="-0.09739">
        <ele>-6.4</ele>
        <time>2024-03-20T18:21:01Z</time>
      </trkpt>
      <trkpt lat="49.25143" lon="-0.09733">
        <ele>-6.4</ele>
        <time>2024-03-20T18:21:02Z</time>
      </trkpt>
      <trkpt lat="49.2515" lon="-0.09728">
        <ele>-6.4</ele>
        <time>2024-03-20T18:21:03Z</time>
      </trkpt>
      <trkpt lat="49.25158" lon="-0.09724">
        <ele>-6.4</ele>
        <time>2024-03-20T18:21:04Z</time>
      </trkpt>
      <trkpt lat="49.25165" lon="-0.09721">
        <ele>-6.4</ele>
        <time>2024-03-20T18:21:05Z</time>
      </trkpt>
      <trkpt lat="49.25173" lon="-0.09717">
        <ele>-6.2</ele>
        <time>2024-03-20T18:21:06Z</time>
      </trkpt>
      <trkpt lat="49.2518" lon="-0.09714">
        <ele>-6</ele>
        <time>2024-03-20T18:21:07Z</time>
      </trkpt>
      <trkpt lat="49.25187" lon="-0.09711">
        <ele>-6</ele>
        <time>2024-03-20T18:21:08Z</time>
      </trkpt>
      <trkpt lat="49.25194" lon="-0.09709">
        <ele>-5.8</ele>
        <time>2024-03-20T18:21:09Z</time>
      </trkpt>
      <trkpt lat="49.25201" lon="-0.09707">
        <ele>-5.8</ele>
        <time>2024-03-20T18:21:10Z</time>
      </trkpt>
      <trkpt lat="49.25208" lon="-0.09704">
        <ele>-5.8</ele>
        <time>2024-03-20T18:21:11Z</time>
      </trkpt>
      <trkpt lat="49.25215" lon="-0.09701">
        <ele>-5.8</ele>
        <time>2024-03-20T18:21:12Z</time>
      </trkpt>
      <trkpt lat="49.25222" lon="-0.09698">
        <ele>-5.8</ele>
        <time>2024-03-20T18:21:13Z</time>
      </trkpt>
      <trkpt lat="49.25229" lon="-0.09695">
        <ele>-5.8</ele>
        <time>2024-03-20T18:21:14Z</time>
      </trkpt>
      <trkpt lat="49.25235" lon="-0.09693">
        <ele>-5.8</ele>
        <time>2024-03-20T18:21:15Z</time>
      </trkpt>
      <trkpt lat="49.25242" lon="-0.0969">
        <ele>-5.6</ele>
        <time>2024-03-20T18:21:16Z</time>
      </trkpt>
      <trkpt lat="49.25249" lon="-0.09686">
        <ele>-5.6</ele>
        <time>2024-03-20T18:21:17Z</time>
      </trkpt>
      <trkpt lat="49.25256" lon="-0.09682">
        <ele>-5.6</ele>
        <time>2024-03-20T18:21:18Z</time>
      </trkpt>
      <trkpt lat="49.25263" lon="-0.09677">
        <ele>-5.6</ele>
        <time>2024-03-20T18:21:19Z</time>
      </trkpt>
      <trkpt lat="49.25269" lon="-0.09671">
        <ele>-5.6</ele>
        <time>2024-03-20T18:21:20Z</time>
      </trkpt>
      <trkpt lat="49.25275" lon="-0.09665">
        <ele>-5.4</ele>
        <time>2024-03-20T18:21:21Z</time>
      </trkpt>
      <trkpt lat="49.25281" lon="-0.09659">
        <ele>-5.4</ele>
        <time>2024-03-20T18:21:22Z</time>
      </trkpt>
      <trkpt lat="49.25287" lon="-0.09653">
        <ele>-5.4</ele>
        <time>2024-03-20T18:21:23Z</time>
      </trkpt>
      <trkpt lat="49.25293" lon="-0.09647">
        <ele>-5.2</ele>
        <time>2024-03-20T18:21:24Z</time>
      </trkpt>
      <trkpt lat="49.25299" lon="-0.09641">
        <ele>-5</ele>
        <time>2024-03-20T18:21:25Z</time>
      </trkpt>
      <trkpt lat="49.25306" lon="-0.09636">
        <ele>-5</ele>
        <time>2024-03-20T18:21:26Z</time>
      </trkpt>
      <trkpt lat="49.25313" lon="-0.09632">
        <ele>-4.8</ele>
        <time>2024-03-20T18:21:27Z</time>
      </trkpt>
      <trkpt lat="49.2532" lon="-0.09629">
        <ele>-4.8</ele>
        <time>2024-03-20T18:21:28Z</time>
      </trkpt>
      <trkpt lat="49.25327" lon="-0.09626">
        <ele>-4.8</ele>
        <time>2024-03-20T18:21:29Z</time>
      </trkpt>
      <trkpt lat="49.25334" lon="-0.09624">
        <ele>-4.8</ele>
        <time>2024-03-20T18:21:30Z</time>
      </trkpt>
      <trkpt lat="49.25342" lon="-0.09622">
        <ele>-4.8</ele>
        <time>2024-03-20T18:21:31Z</time>
      </trkpt>
      <trkpt lat="49.25349" lon="-0.09621">
        <ele>-4.8</ele>
        <time>2024-03-20T18:21:32Z</time>
      </trkpt>
      <trkpt lat="49.25357" lon="-0.09619">
        <ele>-4.8</ele>
        <time>2024-03-20T18:21:33Z</time>
      </trkpt>
      <trkpt lat="49.25364" lon="-0.09617">
        <ele>-4.8</ele>
        <time>2024-03-20T18:21:34Z</time>
      </trkpt>
      <trkpt lat="49.25371" lon="-0.09616">
        <ele>-4.8</ele>
        <time>2024-03-20T18:21:35Z</time>
      </trkpt>
      <trkpt lat="49.25379" lon="-0.09614">
        <ele>-4.8</ele>
        <time>2024-03-20T18:21:36Z</time>
      </trkpt>
      <trkpt lat="49.25386" lon="-0.09613">
        <ele>-4.8</ele>
        <time>2024-03-20T18:21:37Z</time>
      </trkpt>
      <trkpt lat="49.25394" lon="-0.09612">
        <ele>-4.8</ele>
        <time>2024-03-20T18:21:38Z</time>
      </trkpt>
      <trkpt lat="49.25401" lon="-0.0961">
        <ele>-4.8</ele>
        <time>2024-03-20T18:21:39Z</time>
      </trkpt>
      <trkpt lat="49.25409" lon="-0.09609">
        <ele>-5</ele>
        <time>2024-03-20T18:21:40Z</time>
      </trkpt>
      <trkpt lat="49.25416" lon="-0.09608">
        <ele>-5.2</ele>
        <time>2024-03-20T18:21:41Z</time>
      </trkpt>
      <trkpt lat="49.25424" lon="-0.09607">
        <ele>-5.2</ele>
        <time>2024-03-20T18:21:42Z</time>
      </trkpt>
      <trkpt lat="49.25431" lon="-0.09606">
        <ele>-5.2</ele>
        <time>2024-03-20T18:21:43Z</time>
      </trkpt>
      <trkpt lat="49.25438" lon="-0.09604">
        <ele>-5.4</ele>
        <time>2024-03-20T18:21:44Z</time>
      </trkpt>
      <trkpt lat="49.25445" lon="-0.09603">
        <ele>-5.4</ele>
        <time>2024-03-20T18:21:45Z</time>
      </trkpt>
      <trkpt lat="49.25452" lon="-0.09602">
        <ele>-5.4</ele>
        <time>2024-03-20T18:21:46Z</time>
      </trkpt>
      <trkpt lat="49.25459" lon="-0.09601">
        <ele>-5.4</ele>
        <time>2024-03-20T18:21:47Z</time>
      </trkpt>
      <trkpt lat="49.25466" lon="-0.096">
        <ele>-5.4</ele>
        <time>2024-03-20T18:21:48Z</time>
      </trkpt>
      <trkpt lat="49.25474" lon="-0.09599">
        <ele>-5.4</ele>
        <time>2024-03-20T18:21:49Z</time>
      </trkpt>
      <trkpt lat="49.25481" lon="-0.09598">
        <ele>-5.4</ele>
        <time>2024-03-20T18:21:50Z</time>
      </trkpt>
      <trkpt lat="49.25488" lon="-0.09597">
        <ele>-5.4</ele>
        <time>2024-03-20T18:21:51Z</time>
      </trkpt>
      <trkpt lat="49.25495" lon="-0.09597">
        <ele>-5.4</ele>
        <time>2024-03-20T18:21:52Z</time>
      </trkpt>
      <trkpt lat="49.25502" lon="-0.09596">
        <ele>-5.4</ele>
        <time>2024-03-20T18:21:53Z</time>
      </trkpt>
      <trkpt lat="49.25508" lon="-0.09595">
        <ele>-5.4</ele>
        <time>2024-03-20T18:21:54Z</time>
      </trkpt>
      <trkpt lat="49.25515" lon="-0.09595">
        <ele>-5.4</ele>
        <time>2024-03-20T18:21:55Z</time>
      </trkpt>
      <trkpt lat="49.25522" lon="-0.09595">
        <ele>-5.2</ele>
        <time>2024-03-20T18:21:56Z</time>
      </trkpt>
      <trkpt lat="49.25529" lon="-0.09594">
        <ele>-5.2</ele>
        <time>2024-03-20T18:21:57Z</time>
      </trkpt>
      <trkpt lat="49.25536" lon="-0.09594">
        <ele>-5.2</ele>
        <time>2024-03-20T18:21:58Z</time>
      </trkpt>
      <trkpt lat="49.25542" lon="-0.09594">
        <ele>-5</ele>
        <time>2024-03-20T18:21:59Z</time>
      </trkpt>
      <trkpt lat="49.25549" lon="-0.09594">
        <ele>-5</ele>
        <time>2024-03-20T18:22:00Z</time>
      </trkpt>
      <trkpt lat="49.25556" lon="-0.09594">
        <ele>-5</ele>
        <time>2024-03-20T18:22:01Z</time>
      </trkpt>
      <trkpt lat="49.25562" lon="-0.09594">
        <ele>-4.8</ele>
        <time>2024-03-20T18:22:02Z</time>
      </trkpt>
      <trkpt lat="49.25569" lon="-0.09594">
        <ele>-4.8</ele>
        <time>2024-03-20T18:22:03Z</time>
      </trkpt>
      <trkpt lat="49.25575" lon="-0.09595">
        <ele>-4.6</ele>
        <time>2024-03-20T18:22:04Z</time>
      </trkpt>
      <trkpt lat="49.25581" lon="-0.09595">
        <ele>-4.6</ele>
        <time>2024-03-20T18:22:05Z</time>
      </trkpt>
      <trkpt lat="49.25588" lon="-0.09596">
        <ele>-4.6</ele>
        <time>2024-03-20T18:22:06Z</time>
      </trkpt>
      <trkpt lat="49.25594" lon="-0.09596">
        <ele>-4.4</ele>
        <time>2024-03-20T18:22:07Z</time>
      </trkpt>
      <trkpt lat="49.25601" lon="-0.09596">
        <ele>-4.2</ele>
        <time>2024-03-20T18:22:08Z</time>
      </trkpt>
      <trkpt lat="49.25607" lon="-0.09595">
        <ele>-4.2</ele>
        <time>2024-03-20T18:22:09Z</time>
      </trkpt>
      <trkpt lat="49.25614" lon="-0.09595">
        <ele>-4</ele>
        <time>2024-03-20T18:22:10Z</time>
      </trkpt>
      <trkpt lat="49.2562" lon="-0.09594">
        <ele>-4</ele>
        <time>2024-03-20T18:22:11Z</time>
      </trkpt>
      <trkpt lat="49.25627" lon="-0.09592">
        <ele>-3.8</ele>
        <time>2024-03-20T18:22:12Z</time>
      </trkpt>
      <trkpt lat="49.25633" lon="-0.0959">
        <ele>-3.6</ele>
        <time>2024-03-20T18:22:13Z</time>
      </trkpt>
      <trkpt lat="49.25639" lon="-0.09588">
        <ele>-3.6</ele>
        <time>2024-03-20T18:22:14Z</time>
      </trkpt>
      <trkpt lat="49.25645" lon="-0.09585">
        <ele>-3.6</ele>
        <time>2024-03-20T18:22:15Z</time>
      </trkpt>
      <trkpt lat="49.25651" lon="-0.09582">
        <ele>-3.6</ele>
        <time>2024-03-20T18:22:16Z</time>
      </trkpt>
      <trkpt lat="49.25657" lon="-0.09579">
        <ele>-3.6</ele>
        <time>2024-03-20T18:22:17Z</time>
      </trkpt>
      <trkpt lat="49.25663" lon="-0.09576">
        <ele>-3.4</ele>
        <time>2024-03-20T18:22:18Z</time>
      </trkpt>
      <trkpt lat="49.25668" lon="-0.09572">
        <ele>-3.4</ele>
        <time>2024-03-20T18:22:19Z</time>
      </trkpt>
      <trkpt lat="49.25674" lon="-0.09568">
        <ele>-3.4</ele>
        <time>2024-03-20T18:22:20Z</time>
      </trkpt>
      <trkpt lat="49.25679" lon="-0.09564">
        <ele>-3.2</ele>
        <time>2024-03-20T18:22:21Z</time>
      </trkpt>
      <trkpt lat="49.25685" lon="-0.0956">
        <ele>-3</ele>
        <time>2024-03-20T18:22:22Z</time>
      </trkpt>
      <trkpt lat="49.2569" lon="-0.09556">
        <ele>-3</ele>
        <time>2024-03-20T18:22:23Z</time>
      </trkpt>
      <trkpt lat="49.25696" lon="-0.09552">
        <ele>-3</ele>
        <time>2024-03-20T18:22:24Z</time>
      </trkpt>
      <trkpt lat="49.25702" lon="-0.09548">
        <ele>-3</ele>
        <time>2024-03-20T18:22:25Z</time>
      </trkpt>
      <trkpt lat="49.25707" lon="-0.09544">
        <ele>-2.8</ele>
        <time>2024-03-20T18:22:26Z</time>
      </trkpt>
      <trkpt lat="49.25713" lon="-0.09539">
        <ele>-2.8</ele>
        <time>2024-03-20T18:22:27Z</time>
      </trkpt>
      <trkpt lat="49.25718" lon="-0.09534">
        <ele>-2.8</ele>
        <time>2024-03-20T18:22:28Z</time>
      </trkpt>
      <trkpt lat="49.25724" lon="-0.0953">
        <ele>-2.8</ele>
        <time>2024-03-20T18:22:29Z</time>
      </trkpt>
      <trkpt lat="49.25729" lon="-0.09525">
        <ele>-2.8</ele>
        <time>2024-03-20T18:22:30Z</time>
      </trkpt>
      <trkpt lat="49.25735" lon="-0.09521">
        <ele>-2.8</ele>
        <time>2024-03-20T18:22:31Z</time>
      </trkpt>
      <trkpt lat="49.2574" lon="-0.09517">
        <ele>-2.8</ele>
        <time>2024-03-20T18:22:32Z</time>
      </trkpt>
      <trkpt lat="49.25746" lon="-0.09513">
        <ele>-2.8</ele>
        <time>2024-03-20T18:22:33Z</time>
      </trkpt>
      <trkpt lat="49.25752" lon="-0.09509">
        <ele>-2.8</ele>
        <time>2024-03-20T18:22:34Z</time>
      </trkpt>
      <trkpt lat="49.25757" lon="-0.09506">
        <ele>-2.8</ele>
        <time>2024-03-20T18:22:35Z</time>
      </trkpt>
      <trkpt lat="49.25763" lon="-0.09502">
        <ele>-2.8</ele>
        <time>2024-03-20T18:22:36Z</time>
      </trkpt>
      <trkpt lat="49.25768" lon="-0.09498">
        <ele>-2.8</ele>
        <time>2024-03-20T18:22:37Z</time>
      </trkpt>
      <trkpt lat="49.25774" lon="-0.09494">
        <ele>-2.8</ele>
        <time>2024-03-20T18:22:38Z</time>
      </trkpt>
      <trkpt lat="49.25779" lon="-0.0949">
        <ele>-2.8</ele>
        <time>2024-03-20T18:22:39Z</time>
      </trkpt>
      <trkpt lat="49.25785" lon="-0.09487">
        <ele>-2.6</ele>
        <time>2024-03-20T18:22:40Z</time>
      </trkpt>
      <trkpt lat="49.2579" lon="-0.09484">
        <ele>-2.6</ele>
        <time>2024-03-20T18:22:41Z</time>
      </trkpt>
      <trkpt lat="49.25796" lon="-0.09482">
        <ele>-2.6</ele>
        <time>2024-03-20T18:22:42Z</time>
      </trkpt>
      <trkpt lat="49.25801" lon="-0.0948">
        <ele>-2.6</ele>
        <time>2024-03-20T18:22:43Z</time>
      </trkpt>
      <trkpt lat="49.25807" lon="-0.09479">
        <ele>-2.4</ele>
        <time>2024-03-20T18:22:44Z</time>
      </trkpt>
      <trkpt lat="49.25812" lon="-0.09478">
        <ele>-2.4</ele>
        <time>2024-03-20T18:22:45Z</time>
      </trkpt>
      <trkpt lat="49.25817" lon="-0.09478">
        <ele>-2.4</ele>
        <time>2024-03-20T18:22:46Z</time>
      </trkpt>
      <trkpt lat="49.25822" lon="-0.09478">
        <ele>-2.2</ele>
        <time>2024-03-20T18:22:47Z</time>
      </trkpt>
      <trkpt lat="49.25827" lon="-0.09478">
        <ele>-2.2</ele>
        <time>2024-03-20T18:22:48Z</time>
      </trkpt>
      <trkpt lat="49.25832" lon="-0.09479">
        <ele>-2.2</ele>
        <time>2024-03-20T18:22:49Z</time>
      </trkpt>
      <trkpt lat="49.25837" lon="-0.09479">
        <ele>-2.2</ele>
        <time>2024-03-20T18:22:50Z</time>
      </trkpt>
      <trkpt lat="49.25841" lon="-0.09479">
        <ele>-2.2</ele>
        <time>2024-03-20T18:22:51Z</time>
      </trkpt>
      <trkpt lat="49.25846" lon="-0.0948">
        <ele>-2</ele>
        <time>2024-03-20T18:22:52Z</time>
      </trkpt>
      <trkpt lat="49.2585" lon="-0.0948">
        <ele>-2</ele>
        <time>2024-03-20T18:22:53Z</time>
      </trkpt>
      <trkpt lat="49.25855" lon="-0.0948">
        <ele>-2</ele>
        <time>2024-03-20T18:22:54Z</time>
      </trkpt>
      <trkpt lat="49.25859" lon="-0.0948">
        <ele>-2</ele>
        <time>2024-03-20T18:22:55Z</time>
      </trkpt>
      <trkpt lat="49.25863" lon="-0.09481">
        <ele>-2</ele>
        <time>2024-03-20T18:22:56Z</time>
      </trkpt>
      <trkpt lat="49.25868" lon="-0.09481">
        <ele>-2</ele>
        <time>2024-03-20T18:22:57Z</time>
      </trkpt>
      <trkpt lat="49.25872" lon="-0.09482">
        <ele>-1.8</ele>
        <time>2024-03-20T18:22:58Z</time>
      </trkpt>
      <trkpt lat="49.25877" lon="-0.09483">
        <ele>-1.8</ele>
        <time>2024-03-20T18:22:59Z</time>
      </trkpt>
      <trkpt lat="49.25882" lon="-0.09484">
        <ele>-1.6</ele>
        <time>2024-03-20T18:23:00Z</time>
      </trkpt>
      <trkpt lat="49.25886" lon="-0.09484">
        <ele>-1.6</ele>
        <time>2024-03-20T18:23:01Z</time>
      </trkpt>
      <trkpt lat="49.25891" lon="-0.09485">
        <ele>-1.4</ele>
        <time>2024-03-20T18:23:02Z</time>
      </trkpt>
      <trkpt lat="49.25896" lon="-0.09485">
        <ele>-1.4</ele>
        <time>2024-03-20T18:23:03Z</time>
      </trkpt>
      <trkpt lat="49.25901" lon="-0.09486">
        <ele>-1.4</ele>
        <time>2024-03-20T18:23:04Z</time>
      </trkpt>
      <trkpt lat="49.25906" lon="-0.09486">
        <ele>-1.2</ele>
        <time>2024-03-20T18:23:05Z</time>
      </trkpt>
      <trkpt lat="49.25911" lon="-0.09487">
        <ele>-1.2</ele>
        <time>2024-03-20T18:23:06Z</time>
      </trkpt>
      <trkpt lat="49.25916" lon="-0.09487">
        <ele>-1.2</ele>
        <time>2024-03-20T18:23:07Z</time>
      </trkpt>
      <trkpt lat="49.25921" lon="-0.09487">
        <ele>-1.2</ele>
        <time>2024-03-20T18:23:08Z</time>
      </trkpt>
      <trkpt lat="49.25927" lon="-0.09487">
        <ele>-1</ele>
        <time>2024-03-20T18:23:09Z</time>
      </trkpt>
      <trkpt lat="49.25932" lon="-0.09487">
        <ele>-0.8</ele>
        <time>2024-03-20T18:23:10Z</time>
      </trkpt>
      <trkpt lat="49.25938" lon="-0.09486">
        <ele>-0.8</ele>
        <time>2024-03-20T18:23:11Z</time>
      </trkpt>
      <trkpt lat="49.25943" lon="-0.09486">
        <ele>-0.6</ele>
        <time>2024-03-20T18:23:12Z</time>
      </trkpt>
      <trkpt lat="49.25949" lon="-0.09486">
        <ele>-0.6</ele>
        <time>2024-03-20T18:23:13Z</time>
      </trkpt>
      <trkpt lat="49.25954" lon="-0.09485">
        <ele>-0.4</ele>
        <time>2024-03-20T18:23:14Z</time>
      </trkpt>
      <trkpt lat="49.25959" lon="-0.09484">
        <ele>-0.4</ele>
        <time>2024-03-20T18:23:15Z</time>
      </trkpt>
      <trkpt lat="49.25965" lon="-0.09483">
        <ele>-0.6</ele>
        <time>2024-03-20T18:23:16Z</time>
      </trkpt>
      <trkpt lat="49.2597" lon="-0.09481">
        <ele>-0.6</ele>
        <time>2024-03-20T18:23:17Z</time>
      </trkpt>
      <trkpt lat="49.25975" lon="-0.09479">
        <ele>-0.4</ele>
        <time>2024-03-20T18:23:18Z</time>
      </trkpt>
      <trkpt lat="49.2598" lon="-0.09477">
        <ele>-0.4</ele>
        <time>2024-03-20T18:23:19Z</time>
      </trkpt>
      <trkpt lat="49.25985" lon="-0.09475">
        <ele>-0.2</ele>
        <time>2024-03-20T18:23:20Z</time>
      </trkpt>
      <trkpt lat="49.25991" lon="-0.09474">
        <ele>12.6</ele>
        <time>2024-03-20T18:23:21Z</time>
      </trkpt>
      <trkpt lat="49.25996" lon="-0.09472">
        <ele>12.9</ele>
        <time>2024-03-20T18:23:22Z</time>
      </trkpt>
      <trkpt lat="49.26002" lon="-0.09471">
        <ele>0.2</ele>
        <time>2024-03-20T18:23:23Z</time>
      </trkpt>
      <trkpt lat="49.26007" lon="-0.09469">
        <ele>0.4</ele>
        <time>2024-03-20T18:23:24Z</time>
      </trkpt>
      <trkpt lat="49.26013" lon="-0.09467">
        <ele>0.6</ele>
        <time>2024-03-20T18:23:25Z</time>
      </trkpt>
      <trkpt lat="49.26019" lon="-0.09465">
        <ele>0.8</ele>
        <time>2024-03-20T18:23:26Z</time>
      </trkpt>
      <trkpt lat="49.26025" lon="-0.09464">
        <ele>0.8</ele>
        <time>2024-03-20T18:23:27Z</time>
      </trkpt>
      <trkpt lat="49.26031" lon="-0.09462">
        <ele>1</ele>
        <time>2024-03-20T18:23:28Z</time>
      </trkpt>
      <trkpt lat="49.26037" lon="-0.09461">
        <ele>1.2</ele>
        <time>2024-03-20T18:23:29Z</time>
      </trkpt>
      <trkpt lat="49.26044" lon="-0.09459">
        <ele>1.2</ele>
        <time>2024-03-20T18:23:30Z</time>
      </trkpt>
      <trkpt lat="49.2605" lon="-0.09458">
        <ele>1.4</ele>
        <time>2024-03-20T18:23:31Z</time>
      </trkpt>
      <trkpt lat="49.26056" lon="-0.09456">
        <ele>1.4</ele>
        <time>2024-03-20T18:23:32Z</time>
      </trkpt>
      <trkpt lat="49.26063" lon="-0.09455">
        <ele>1.4</ele>
        <time>2024-03-20T18:23:33Z</time>
      </trkpt>
      <trkpt lat="49.2607" lon="-0.09453">
        <ele>1.4</ele>
        <time>2024-03-20T18:23:34Z</time>
      </trkpt>
      <trkpt lat="49.26076" lon="-0.09452">
        <ele>1.4</ele>
        <time>2024-03-20T18:23:35Z</time>
      </trkpt>
      <trkpt lat="49.26083" lon="-0.09451">
        <ele>1.4</ele>
        <time>2024-03-20T18:23:36Z</time>
      </trkpt>
      <trkpt lat="49.2609" lon="-0.0945">
        <ele>1.4</ele>
        <time>2024-03-20T18:23:37Z</time>
      </trkpt>
      <trkpt lat="49.26097" lon="-0.09449">
        <ele>1.4</ele>
        <time>2024-03-20T18:23:38Z</time>
      </trkpt>
      <trkpt lat="49.26104" lon="-0.09447">
        <ele>1.4</ele>
        <time>2024-03-20T18:23:39Z</time>
      </trkpt>
      <trkpt lat="49.26111" lon="-0.09445">
        <ele>1.2</ele>
        <time>2024-03-20T18:23:40Z</time>
      </trkpt>
      <trkpt lat="49.26118" lon="-0.09444">
        <ele>1.2</ele>
        <time>2024-03-20T18:23:41Z</time>
      </trkpt>
      <trkpt lat="49.26125" lon="-0.09443">
        <ele>1</ele>
        <time>2024-03-20T18:23:42Z</time>
      </trkpt>
      <trkpt lat="49.26132" lon="-0.09442">
        <ele>1</ele>
        <time>2024-03-20T18:23:43Z</time>
      </trkpt>
      <trkpt lat="49.26139" lon="-0.09442">
        <ele>0.8</ele>
        <time>2024-03-20T18:23:44Z</time>
      </trkpt>
      <trkpt lat="49.26146" lon="-0.09441">
        <ele>0.8</ele>
        <time>2024-03-20T18:23:45Z</time>
      </trkpt>
      <trkpt lat="49.26153" lon="-0.09442">
        <ele>0.8</ele>
        <time>2024-03-20T18:23:46Z</time>
      </trkpt>
      <trkpt lat="49.2616" lon="-0.09443">
        <ele>0.8</ele>
        <time>2024-03-20T18:23:47Z</time>
      </trkpt>
      <trkpt lat="49.26167" lon="-0.09446">
        <ele>0.6</ele>
        <time>2024-03-20T18:23:48Z</time>
      </trkpt>
      <trkpt lat="49.26174" lon="-0.09449">
        <ele>0.6</ele>
        <time>2024-03-20T18:23:49Z</time>
      </trkpt>
      <trkpt lat="49.26181" lon="-0.09453">
        <ele>0.4</ele>
        <time>2024-03-20T18:23:50Z</time>
      </trkpt>
      <trkpt lat="49.26188" lon="-0.09457">
        <ele>0.4</ele>
        <time>2024-03-20T18:23:51Z</time>
      </trkpt>
      <trkpt lat="49.26196" lon="-0.09461">
        <ele>0.4</ele>
        <time>2024-03-20T18:23:52Z</time>
      </trkpt>
      <trkpt lat="49.26203" lon="-0.09464">
        <ele>0.2</ele>
        <time>2024-03-20T18:23:53Z</time>
      </trkpt>
      <trkpt lat="49.26212" lon="-0.09466">
        <ele>0.2</ele>
        <time>2024-03-20T18:23:54Z</time>
      </trkpt>
      <trkpt lat="49.26219" lon="-0.09466">
        <ele>0.2</ele>
        <time>2024-03-20T18:23:55Z</time>
      </trkpt>
      <trkpt lat="49.26227" lon="-0.09465">
        <ele>0.2</ele>
        <time>2024-03-20T18:23:56Z</time>
      </trkpt>
      <trkpt lat="49.26234" lon="-0.09463">
        <ele>0.2</ele>
        <time>2024-03-20T18:23:57Z</time>
      </trkpt>
      <trkpt lat="49.26241" lon="-0.09459">
        <ele>9.3</ele>
        <time>2024-03-20T18:23:58Z</time>
      </trkpt>
      <trkpt lat="49.26248" lon="-0.09455">
        <ele>-0.2</ele>
        <time>2024-03-20T18:23:59Z</time>
      </trkpt>
      <trkpt lat="49.26254" lon="-0.09452">
        <ele>-0.2</ele>
        <time>2024-03-20T18:24:00Z</time>
      </trkpt>
      <trkpt lat="49.2626" lon="-0.09448">
        <ele>-0.2</ele>
        <time>2024-03-20T18:24:01Z</time>
      </trkpt>
      <trkpt lat="49.26266" lon="-0.09444">
        <ele>-0.2</ele>
        <time>2024-03-20T18:24:02Z</time>
      </trkpt>
      <trkpt lat="49.26272" lon="-0.0944">
        <ele>-0.2</ele>
        <time>2024-03-20T18:24:03Z</time>
      </trkpt>
      <trkpt lat="49.26277" lon="-0.09437">
        <ele>-0.2</ele>
        <time>2024-03-20T18:24:04Z</time>
      </trkpt>
      <trkpt lat="49.26283" lon="-0.09433">
        <ele>-0.2</ele>
        <time>2024-03-20T18:24:05Z</time>
      </trkpt>
      <trkpt lat="49.26289" lon="-0.0943">
        <ele>-0.2</ele>
        <time>2024-03-20T18:24:06Z</time>
      </trkpt>
      <trkpt lat="49.26294" lon="-0.09427">
        <ele>-0.2</ele>
        <time>2024-03-20T18:24:07Z</time>
      </trkpt>
      <trkpt lat="49.26299" lon="-0.09424">
        <ele>-0.2</ele>
        <time>2024-03-20T18:24:08Z</time>
      </trkpt>
      <trkpt lat="49.26304" lon="-0.09422">
        <ele>14.1</ele>
        <time>2024-03-20T18:24:09Z</time>
      </trkpt>
      <trkpt lat="49.26309" lon="-0.0942">
        <ele>0.4</ele>
        <time>2024-03-20T18:24:10Z</time>
      </trkpt>
      <trkpt lat="49.26315" lon="-0.09418">
        <ele>0.8</ele>
        <time>2024-03-20T18:24:11Z</time>
      </trkpt>
      <trkpt lat="49.2632" lon="-0.09416">
        <ele>1</ele>
        <time>2024-03-20T18:24:12Z</time>
      </trkpt>
      <trkpt lat="49.26326" lon="-0.09415">
        <ele>1.2</ele>
        <time>2024-03-20T18:24:13Z</time>
      </trkpt>
      <trkpt lat="49.26332" lon="-0.09413">
        <ele>1.4</ele>
        <time>2024-03-20T18:24:14Z</time>
      </trkpt>
      <trkpt lat="49.26337" lon="-0.09412">
        <ele>1.6</ele>
        <time>2024-03-20T18:24:15Z</time>
      </trkpt>
      <trkpt lat="49.26343" lon="-0.09411">
        <ele>2</ele>
        <time>2024-03-20T18:24:16Z</time>
      </trkpt>
      <trkpt lat="49.26349" lon="-0.09411">
        <ele>2.2</ele>
        <time>2024-03-20T18:24:17Z</time>
      </trkpt>
      <trkpt lat="49.26355" lon="-0.0941">
        <ele>2.4</ele>
        <time>2024-03-20T18:24:18Z</time>
      </trkpt>
      <trkpt lat="49.26361" lon="-0.0941">
        <ele>2.6</ele>
        <time>2024-03-20T18:24:19Z</time>
      </trkpt>
      <trkpt lat="49.26367" lon="-0.0941">
        <ele>3</ele>
        <time>2024-03-20T18:24:20Z</time>
      </trkpt>
      <trkpt lat="49.26372" lon="-0.0941">
        <ele>3.2</ele>
        <time>2024-03-20T18:24:21Z</time>
      </trkpt>
      <trkpt lat="49.26378" lon="-0.09411">
        <ele>3.2</ele>
        <time>2024-03-20T18:24:22Z</time>
      </trkpt>
      <trkpt lat="49.26384" lon="-0.09411">
        <ele>3.4</ele>
        <time>2024-03-20T18:24:23Z</time>
      </trkpt>
      <trkpt lat="49.2639" lon="-0.09411">
        <ele>3.6</ele>
        <time>2024-03-20T18:24:24Z</time>
      </trkpt>
      <trkpt lat="49.26396" lon="-0.09412">
        <ele>3.8</ele>
        <time>2024-03-20T18:24:25Z</time>
      </trkpt>
      <trkpt lat="49.26403" lon="-0.09412">
        <ele>4</ele>
        <time>2024-03-20T18:24:26Z</time>
      </trkpt>
      <trkpt lat="49.26409" lon="-0.09412">
        <ele>4.2</ele>
        <time>2024-03-20T18:24:27Z</time>
      </trkpt>
      <trkpt lat="49.26415" lon="-0.09412">
        <ele>4.4</ele>
        <time>2024-03-20T18:24:28Z</time>
      </trkpt>
      <trkpt lat="49.26421" lon="-0.09412">
        <ele>4.4</ele>
        <time>2024-03-20T18:24:29Z</time>
      </trkpt>
      <trkpt lat="49.26428" lon="-0.09412">
        <ele>4.4</ele>
        <time>2024-03-20T18:24:30Z</time>
      </trkpt>
      <trkpt lat="49.26434" lon="-0.09413">
        <ele>4.6</ele>
        <time>2024-03-20T18:24:31Z</time>
      </trkpt>
      <trkpt lat="49.2644" lon="-0.09413">
        <ele>4.4</ele>
        <time>2024-03-20T18:24:32Z</time>
      </trkpt>
      <trkpt lat="49.26446" lon="-0.09414">
        <ele>4.4</ele>
        <time>2024-03-20T18:24:33Z</time>
      </trkpt>
      <trkpt lat="49.26453" lon="-0.09414">
        <ele>4.4</ele>
        <time>2024-03-20T18:24:34Z</time>
      </trkpt>
      <trkpt lat="49.2646" lon="-0.09415">
        <ele>4.6</ele>
        <time>2024-03-20T18:24:35Z</time>
      </trkpt>
      <trkpt lat="49.26466" lon="-0.09416">
        <ele>4.6</ele>
        <time>2024-03-20T18:24:36Z</time>
      </trkpt>
      <trkpt lat="49.26473" lon="-0.09416">
        <ele>4.6</ele>
        <time>2024-03-20T18:24:37Z</time>
      </trkpt>
      <trkpt lat="49.26481" lon="-0.09417">
        <ele>4.6</ele>
        <time>2024-03-20T18:24:38Z</time>
      </trkpt>
      <trkpt lat="49.26488" lon="-0.09417">
        <ele>4.6</ele>
        <time>2024-03-20T18:24:39Z</time>
      </trkpt>
      <trkpt lat="49.26496" lon="-0.09417">
        <ele>4.6</ele>
        <time>2024-03-20T18:24:40Z</time>
      </trkpt>
      <trkpt lat="49.26503" lon="-0.09417">
        <ele>4.4</ele>
        <time>2024-03-20T18:24:41Z</time>
      </trkpt>
      <trkpt lat="49.26511" lon="-0.09417">
        <ele>4.4</ele>
        <time>2024-03-20T18:24:42Z</time>
      </trkpt>
      <trkpt lat="49.26518" lon="-0.09417">
        <ele>4.4</ele>
        <time>2024-03-20T18:24:43Z</time>
      </trkpt>
      <trkpt lat="49.26526" lon="-0.09418">
        <ele>4.4</ele>
        <time>2024-03-20T18:24:44Z</time>
      </trkpt>
      <trkpt lat="49.26534" lon="-0.09418">
        <ele>4.4</ele>
        <time>2024-03-20T18:24:45Z</time>
      </trkpt>
      <trkpt lat="49.26541" lon="-0.09419">
        <ele>4.4</ele>
        <time>2024-03-20T18:24:46Z</time>
      </trkpt>
      <trkpt lat="49.26549" lon="-0.09419">
        <ele>4.2</ele>
        <time>2024-03-20T18:24:47Z</time>
      </trkpt>
      <trkpt lat="49.26557" lon="-0.09418">
        <ele>4.2</ele>
        <time>2024-03-20T18:24:48Z</time>
      </trkpt>
      <trkpt lat="49.26565" lon="-0.09418">
        <ele>4</ele>
        <time>2024-03-20T18:24:49Z</time>
      </trkpt>
      <trkpt lat="49.26573" lon="-0.09418">
        <ele>3.8</ele>
        <time>2024-03-20T18:24:50Z</time>
      </trkpt>
      <trkpt lat="49.26581" lon="-0.09418">
        <ele>3.6</ele>
        <time>2024-03-20T18:24:51Z</time>
      </trkpt>
      <trkpt lat="49.2659" lon="-0.09419">
        <ele>3.2</ele>
        <time>2024-03-20T18:24:52Z</time>
      </trkpt>
      <trkpt lat="49.26599" lon="-0.09419">
        <ele>2.8</ele>
        <time>2024-03-20T18:24:53Z</time>
      </trkpt>
      <trkpt lat="49.26607" lon="-0.0942">
        <ele>2.4</ele>
        <time>2024-03-20T18:24:54Z</time>
      </trkpt>
      <trkpt lat="49.26616" lon="-0.0942">
        <ele>2</ele>
        <time>2024-03-20T18:24:55Z</time>
      </trkpt>
      <trkpt lat="49.26626" lon="-0.0942">
        <ele>1.8</ele>
        <time>2024-03-20T18:24:56Z</time>
      </trkpt>
      <trkpt lat="49.26635" lon="-0.0942">
        <ele>1.4</ele>
        <time>2024-03-20T18:24:57Z</time>
      </trkpt>
      <trkpt lat="49.26644" lon="-0.09421">
        <ele>1.2</ele>
        <time>2024-03-20T18:24:58Z</time>
      </trkpt>
      <trkpt lat="49.26654" lon="-0.09421">
        <ele>1</ele>
        <time>2024-03-20T18:24:59Z</time>
      </trkpt>
      <trkpt lat="49.26664" lon="-0.09422">
        <ele>0.6</ele>
        <time>2024-03-20T18:25:00Z</time>
      </trkpt>
      <trkpt lat="49.26673" lon="-0.09422">
        <ele>0.2</ele>
        <time>2024-03-20T18:25:01Z</time>
      </trkpt>
      <trkpt lat="49.26683" lon="-0.09422">
        <ele>-0.2</ele>
        <time>2024-03-20T18:25:02Z</time>
      </trkpt>
      <trkpt lat="49.26693" lon="-0.09422">
        <ele>-0.8</ele>
        <time>2024-03-20T18:25:03Z</time>
      </trkpt>
      <trkpt lat="49.26702" lon="-0.09422">
        <ele>-1.4</ele>
        <time>2024-03-20T18:25:04Z</time>
      </trkpt>
      <trkpt lat="49.26711" lon="-0.09422">
        <ele>-1.8</ele>
        <time>2024-03-20T18:25:05Z</time>
      </trkpt>
      <trkpt lat="49.2672" lon="-0.09422">
        <ele>-2.2</ele>
        <time>2024-03-20T18:25:06Z</time>
      </trkpt>
      <trkpt lat="49.26728" lon="-0.09422">
        <ele>-2.8</ele>
        <time>2024-03-20T18:25:07Z</time>
      </trkpt>
      <trkpt lat="49.26736" lon="-0.09422">
        <ele>-3</ele>
        <time>2024-03-20T18:25:08Z</time>
      </trkpt>
      <trkpt lat="49.26745" lon="-0.09422">
        <ele>-3.2</ele>
        <time>2024-03-20T18:25:09Z</time>
      </trkpt>
      <trkpt lat="49.26752" lon="-0.09423">
        <ele>-3.2</ele>
        <time>2024-03-20T18:25:10Z</time>
      </trkpt>
      <trkpt lat="49.26759" lon="-0.09423">
        <ele>-3.2</ele>
        <time>2024-03-20T18:25:11Z</time>
      </trkpt>
      <trkpt lat="49.26766" lon="-0.09422">
        <ele>-3.2</ele>
        <time>2024-03-20T18:25:12Z</time>
      </trkpt>
      <trkpt lat="49.26773" lon="-0.09422">
        <ele>-3.2</ele>
        <time>2024-03-20T18:25:13Z</time>
      </trkpt>
      <trkpt lat="49.2678" lon="-0.09422">
        <ele>-3.2</ele>
        <time>2024-03-20T18:25:14Z</time>
      </trkpt>
      <trkpt lat="49.26786" lon="-0.09422">
        <ele>-3.2</ele>
        <time>2024-03-20T18:25:15Z</time>
      </trkpt>
      <trkpt lat="49.26792" lon="-0.09422">
        <ele>-3.2</ele>
        <time>2024-03-20T18:25:16Z</time>
      </trkpt>
      <trkpt lat="49.26798" lon="-0.09422">
        <ele>-3.2</ele>
        <time>2024-03-20T18:25:17Z</time>
      </trkpt>
      <trkpt lat="49.26804" lon="-0.09422">
        <ele>-2.8</ele>
        <time>2024-03-20T18:25:18Z</time>
      </trkpt>
      <trkpt lat="49.26809" lon="-0.09422">
        <ele>-2.6</ele>
        <time>2024-03-20T18:25:19Z</time>
      </trkpt>
      <trkpt lat="49.26815" lon="-0.09422">
        <ele>-2.2</ele>
        <time>2024-03-20T18:25:20Z</time>
      </trkpt>
      <trkpt lat="49.2682" lon="-0.09422">
        <ele>-1.6</ele>
        <time>2024-03-20T18:25:21Z</time>
      </trkpt>
      <trkpt lat="49.26826" lon="-0.09422">
        <ele>-1.2</ele>
        <time>2024-03-20T18:25:22Z</time>
      </trkpt>
      <trkpt lat="49.26832" lon="-0.09421">
        <ele>-0.8</ele>
        <time>2024-03-20T18:25:23Z</time>
      </trkpt>
      <trkpt lat="49.26837" lon="-0.09421">
        <ele>-0.4</ele>
        <time>2024-03-20T18:25:24Z</time>
      </trkpt>
      <trkpt lat="49.26842" lon="-0.0942">
        <ele>0.2</ele>
        <time>2024-03-20T18:25:25Z</time>
      </trkpt>
      <trkpt lat="49.26847" lon="-0.0942">
        <ele>0.6</ele>
        <time>2024-03-20T18:25:26Z</time>
      </trkpt>
      <trkpt lat="49.26851" lon="-0.09421">
        <ele>0.8</ele>
        <time>2024-03-20T18:25:27Z</time>
      </trkpt>
      <trkpt lat="49.26856" lon="-0.0942">
        <ele>1.2</ele>
        <time>2024-03-20T18:25:28Z</time>
      </trkpt>
      <trkpt lat="49.26861" lon="-0.09421">
        <ele>1.6</ele>
        <time>2024-03-20T18:25:29Z</time>
      </trkpt>
      <trkpt lat="49.26865" lon="-0.09421">
        <ele>2</ele>
        <time>2024-03-20T18:25:30Z</time>
      </trkpt>
      <trkpt lat="49.26871" lon="-0.0942">
        <ele>2.4</ele>
        <time>2024-03-20T18:25:31Z</time>
      </trkpt>
      <trkpt lat="49.26876" lon="-0.0942">
        <ele>2.6</ele>
        <time>2024-03-20T18:25:32Z</time>
      </trkpt>
      <trkpt lat="49.26881" lon="-0.09419">
        <ele>2.8</ele>
        <time>2024-03-20T18:25:33Z</time>
      </trkpt>
      <trkpt lat="49.26885" lon="-0.0942">
        <ele>3.2</ele>
        <time>2024-03-20T18:25:34Z</time>
      </trkpt>
      <trkpt lat="49.26889" lon="-0.0942">
        <ele>3.4</ele>
        <time>2024-03-20T18:25:35Z</time>
      </trkpt>
      <trkpt lat="49.26893" lon="-0.0942">
        <ele>3.8</ele>
        <time>2024-03-20T18:25:36Z</time>
      </trkpt>
      <trkpt lat="49.26897" lon="-0.0942">
        <ele>4</ele>
        <time>2024-03-20T18:25:37Z</time>
      </trkpt>
      <trkpt lat="49.26901" lon="-0.09421">
        <ele>4.4</ele>
        <time>2024-03-20T18:25:38Z</time>
      </trkpt>
      <trkpt lat="49.26906" lon="-0.09422">
        <ele>4.8</ele>
        <time>2024-03-20T18:25:39Z</time>
      </trkpt>
      <trkpt lat="49.2691" lon="-0.09422">
        <ele>5</ele>
        <time>2024-03-20T18:25:40Z</time>
      </trkpt>
      <trkpt lat="49.26915" lon="-0.09423">
        <ele>5.4</ele>
        <time>2024-03-20T18:25:41Z</time>
      </trkpt>
      <trkpt lat="49.2692" lon="-0.09423">
        <ele>5.6</ele>
        <time>2024-03-20T18:25:42Z</time>
      </trkpt>
      <trkpt lat="49.26925" lon="-0.09423">
        <ele>5.8</ele>
        <time>2024-03-20T18:25:43Z</time>
      </trkpt>
      <trkpt lat="49.26929" lon="-0.09422">
        <ele>6.2</ele>
        <time>2024-03-20T18:25:44Z</time>
      </trkpt>
      <trkpt lat="49.26934" lon="-0.09422">
        <ele>6.4</ele>
        <time>2024-03-20T18:25:45Z</time>
      </trkpt>
      <trkpt lat="49.26939" lon="-0.09421">
        <ele>6.8</ele>
        <time>2024-03-20T18:25:46Z</time>
      </trkpt>
      <trkpt lat="49.26944" lon="-0.0942">
        <ele>7</ele>
        <time>2024-03-20T18:25:47Z</time>
      </trkpt>
      <trkpt lat="49.26949" lon="-0.0942">
        <ele>7.4</ele>
        <time>2024-03-20T18:25:48Z</time>
      </trkpt>
      <trkpt lat="49.26954" lon="-0.0942">
        <ele>7.6</ele>
        <time>2024-03-20T18:25:49Z</time>
      </trkpt>
      <trkpt lat="49.26959" lon="-0.0942">
        <ele>8</ele>
        <time>2024-03-20T18:25:50Z</time>
      </trkpt>
      <trkpt lat="49.26965" lon="-0.0942">
        <ele>8.2</ele>
        <time>2024-03-20T18:25:51Z</time>
      </trkpt>
      <trkpt lat="49.26971" lon="-0.09419">
        <ele>8.4</ele>
        <time>2024-03-20T18:25:52Z</time>
      </trkpt>
      <trkpt lat="49.26975" lon="-0.09419">
        <ele>8.8</ele>
        <time>2024-03-20T18:25:53Z</time>
      </trkpt>
      <trkpt lat="49.26981" lon="-0.09419">
        <ele>9.4</ele>
        <time>2024-03-20T18:25:54Z</time>
      </trkpt>
      <trkpt lat="49.26986" lon="-0.09418">
        <ele>9.8</ele>
        <time>2024-03-20T18:25:55Z</time>
      </trkpt>
      <trkpt lat="49.26991" lon="-0.09418">
        <ele>10.2</ele>
        <time>2024-03-20T18:25:56Z</time>
      </trkpt>
      <trkpt lat="49.26997" lon="-0.09417">
        <ele>10.4</ele>
        <time>2024-03-20T18:25:57Z</time>
      </trkpt>
      <trkpt lat="49.27002" lon="-0.09416">
        <ele>10.8</ele>
        <time>2024-03-20T18:25:58Z</time>
      </trkpt>
      <trkpt lat="49.27007" lon="-0.09416">
        <ele>11</ele>
        <time>2024-03-20T18:25:59Z</time>
      </trkpt>
      <trkpt lat="49.27013" lon="-0.09416">
        <ele>11.2</ele>
        <time>2024-03-20T18:26:00Z</time>
      </trkpt>
      <trkpt lat="49.27018" lon="-0.09418">
        <ele>11.6</ele>
        <time>2024-03-20T18:26:01Z</time>
      </trkpt>
      <trkpt lat="49.27024" lon="-0.09419">
        <ele>12</ele>
        <time>2024-03-20T18:26:02Z</time>
      </trkpt>
      <trkpt lat="49.27028" lon="-0.0942">
        <ele>12.2</ele>
        <time>2024-03-20T18:26:03Z</time>
      </trkpt>
      <trkpt lat="49.27033" lon="-0.09421">
        <ele>12.4</ele>
        <time>2024-03-20T18:26:04Z</time>
      </trkpt>
      <trkpt lat="49.27038" lon="-0.09422">
        <ele>12.4</ele>
        <time>2024-03-20T18:26:05Z</time>
      </trkpt>
      <trkpt lat="49.27043" lon="-0.09425">
        <ele>12.4</ele>
        <time>2024-03-20T18:26:06Z</time>
      </trkpt>
      <trkpt lat="49.27048" lon="-0.09428">
        <ele>12.6</ele>
        <time>2024-03-20T18:26:07Z</time>
      </trkpt>
      <trkpt lat="49.27052" lon="-0.09431">
        <ele>12.6</ele>
        <time>2024-03-20T18:26:08Z</time>
      </trkpt>
      <trkpt lat="49.27057" lon="-0.09435">
        <ele>12.6</ele>
        <time>2024-03-20T18:26:09Z</time>
      </trkpt>
      <trkpt lat="49.27061" lon="-0.0944">
        <ele>12.6</ele>
        <time>2024-03-20T18:26:10Z</time>
      </trkpt>
      <trkpt lat="49.27066" lon="-0.09445">
        <ele>12.6</ele>
        <time>2024-03-20T18:26:11Z</time>
      </trkpt>
      <trkpt lat="49.2707" lon="-0.09449">
        <ele>12.6</ele>
        <time>2024-03-20T18:26:12Z</time>
      </trkpt>
      <trkpt lat="49.27075" lon="-0.09454">
        <ele>12.8</ele>
        <time>2024-03-20T18:26:13Z</time>
      </trkpt>
      <trkpt lat="49.2708" lon="-0.09458">
        <ele>12.6</ele>
        <time>2024-03-20T18:26:14Z</time>
      </trkpt>
      <trkpt lat="49.27084" lon="-0.09462">
        <ele>12.4</ele>
        <time>2024-03-20T18:26:15Z</time>
      </trkpt>
      <trkpt lat="49.27089" lon="-0.09466">
        <ele>12.4</ele>
        <time>2024-03-20T18:26:16Z</time>
      </trkpt>
      <trkpt lat="49.27095" lon="-0.09469">
        <ele>12.2</ele>
        <time>2024-03-20T18:26:17Z</time>
      </trkpt>
      <trkpt lat="49.271" lon="-0.09472">
        <ele>12</ele>
        <time>2024-03-20T18:26:18Z</time>
      </trkpt>
      <trkpt lat="49.27106" lon="-0.09475">
        <ele>11.8</ele>
        <time>2024-03-20T18:26:19Z</time>
      </trkpt>
      <trkpt lat="49.27112" lon="-0.09478">
        <ele>11.6</ele>
        <time>2024-03-20T18:26:20Z</time>
      </trkpt>
      <trkpt lat="49.27118" lon="-0.0948">
        <ele>11.4</ele>
        <time>2024-03-20T18:26:21Z</time>
      </trkpt>
      <trkpt lat="49.27124" lon="-0.09483">
        <ele>11.2</ele>
        <time>2024-03-20T18:26:22Z</time>
      </trkpt>
      <trkpt lat="49.2713" lon="-0.09486">
        <ele>10.8</ele>
        <time>2024-03-20T18:26:23Z</time>
      </trkpt>
      <trkpt lat="49.27137" lon="-0.09489">
        <ele>10.6</ele>
        <time>2024-03-20T18:26:24Z</time>
      </trkpt>
      <trkpt lat="49.27144" lon="-0.09493">
        <ele>10.4</ele>
        <time>2024-03-20T18:26:25Z</time>
      </trkpt>
      <trkpt lat="49.27151" lon="-0.09497">
        <ele>10.2</ele>
        <time>2024-03-20T18:26:26Z</time>
      </trkpt>
      <trkpt lat="49.27158" lon="-0.09502">
        <ele>9.8</ele>
        <time>2024-03-20T18:26:27Z</time>
      </trkpt>
      <trkpt lat="49.27164" lon="-0.09507">
        <ele>9.6</ele>
        <time>2024-03-20T18:26:28Z</time>
      </trkpt>
      <trkpt lat="49.27172" lon="-0.09511">
        <ele>9.2</ele>
        <time>2024-03-20T18:26:29Z</time>
      </trkpt>
      <trkpt lat="49.27179" lon="-0.09516">
        <ele>8.8</ele>
        <time>2024-03-20T18:26:30Z</time>
      </trkpt>
      <trkpt lat="49.27187" lon="-0.0952">
        <ele>8.4</ele>
        <time>2024-03-20T18:26:31Z</time>
      </trkpt>
      <trkpt lat="49.27195" lon="-0.09523">
        <ele>8</ele>
        <time>2024-03-20T18:26:32Z</time>
      </trkpt>
      <trkpt lat="49.27203" lon="-0.09526">
        <ele>7.4</ele>
        <time>2024-03-20T18:26:33Z</time>
      </trkpt>
      <trkpt lat="49.27211" lon="-0.09529">
        <ele>7</ele>
        <time>2024-03-20T18:26:34Z</time>
      </trkpt>
      <trkpt lat="49.2722" lon="-0.09531">
        <ele>6.4</ele>
        <time>2024-03-20T18:26:35Z</time>
      </trkpt>
      <trkpt lat="49.27228" lon="-0.09532">
        <ele>5.8</ele>
        <time>2024-03-20T18:26:36Z</time>
      </trkpt>
      <trkpt lat="49.27237" lon="-0.09534">
        <ele>5.2</ele>
        <time>2024-03-20T18:26:37Z</time>
      </trkpt>
      <trkpt lat="49.27245" lon="-0.09536">
        <ele>4.4</ele>
        <time>2024-03-20T18:26:38Z</time>
      </trkpt>
      <trkpt lat="49.27254" lon="-0.09538">
        <ele>3.8</ele>
        <time>2024-03-20T18:26:39Z</time>
      </trkpt>
      <trkpt lat="49.27262" lon="-0.09539">
        <ele>3.2</ele>
        <time>2024-03-20T18:26:40Z</time>
      </trkpt>
      <trkpt lat="49.2727" lon="-0.09541">
        <ele>2.6</ele>
        <time>2024-03-20T18:26:41Z</time>
      </trkpt>
      <trkpt lat="49.27279" lon="-0.09543">
        <ele>2.2</ele>
        <time>2024-03-20T18:26:42Z</time>
      </trkpt>
      <trkpt lat="49.27287" lon="-0.09545">
        <ele>1.4</ele>
        <time>2024-03-20T18:26:43Z</time>
      </trkpt>
      <trkpt lat="49.27295" lon="-0.09547">
        <ele>0.8</ele>
        <time>2024-03-20T18:26:44Z</time>
      </trkpt>
      <trkpt lat="49.27303" lon="-0.09549">
        <ele>10.1</ele>
        <time>2024-03-20T18:26:45Z</time>
      </trkpt>
      <trkpt lat="49.27311" lon="-0.09551">
        <ele>-0.4</ele>
        <time>2024-03-20T18:26:46Z</time>
      </trkpt>
      <trkpt lat="49.27319" lon="-0.09553">
        <ele>-1</ele>
        <time>2024-03-20T18:26:47Z</time>
      </trkpt>
      <trkpt lat="49.27327" lon="-0.09555">
        <ele>-1.2</ele>
        <time>2024-03-20T18:26:48Z</time>
      </trkpt>
      <trkpt lat="49.27335" lon="-0.09557">
        <ele>-1.4</ele>
        <time>2024-03-20T18:26:49Z</time>
      </trkpt>
      <trkpt lat="49.27343" lon="-0.09559">
        <ele>-1.6</ele>
        <time>2024-03-20T18:26:50Z</time>
      </trkpt>
      <trkpt lat="49.27351" lon="-0.09561">
        <ele>-1.8</ele>
        <time>2024-03-20T18:26:51Z</time>
      </trkpt>
      <trkpt lat="49.27359" lon="-0.09564">
        <ele>-2</ele>
        <time>2024-03-20T18:26:52Z</time>
      </trkpt>
      <trkpt lat="49.27366" lon="-0.09566">
        <ele>-2.2</ele>
        <time>2024-03-20T18:26:53Z</time>
      </trkpt>
      <trkpt lat="49.27374" lon="-0.09569">
        <ele>-2.2</ele>
        <time>2024-03-20T18:26:54Z</time>
      </trkpt>
      <trkpt lat="49.27381" lon="-0.09571">
        <ele>-2.4</ele>
        <time>2024-03-20T18:26:55Z</time>
      </trkpt>
      <trkpt lat="49.27389" lon="-0.09574">
        <ele>-2.6</ele>
        <time>2024-03-20T18:26:56Z</time>
      </trkpt>
      <trkpt lat="49.27397" lon="-0.09577">
        <ele>-2.8</ele>
        <time>2024-03-20T18:26:57Z</time>
      </trkpt>
      <trkpt lat="49.27404" lon="-0.09579">
        <ele>-3.2</ele>
        <time>2024-03-20T18:26:58Z</time>
      </trkpt>
      <trkpt lat="49.27412" lon="-0.09581">
        <ele>-3.6</ele>
        <time>2024-03-20T18:26:59Z</time>
      </trkpt>
      <trkpt lat="49.2742" lon="-0.09583">
        <ele>-3.8</ele>
        <time>2024-03-20T18:27:00Z</time>
      </trkpt>
      <trkpt lat="49.27427" lon="-0.09583">
        <ele>-4</ele>
        <time>2024-03-20T18:27:01Z</time>
      </trkpt>
      <trkpt lat="49.27435" lon="-0.09582">
        <ele>-4.4</ele>
        <time>2024-03-20T18:27:02Z</time>
      </trkpt>
      <trkpt lat="49.27443" lon="-0.09581">
        <ele>-4.6</ele>
        <time>2024-03-20T18:27:03Z</time>
      </trkpt>
      <trkpt lat="49.2745" lon="-0.0958">
        <ele>-5</ele>
        <time>2024-03-20T18:27:04Z</time>
      </trkpt>
      <trkpt lat="49.27457" lon="-0.09579">
        <ele>-5.6</ele>
        <time>2024-03-20T18:27:05Z</time>
      </trkpt>
      <trkpt lat="49.27464" lon="-0.09578">
        <ele>-6</ele>
        <time>2024-03-20T18:27:06Z</time>
      </trkpt>
      <trkpt lat="49.27471" lon="-0.09577">
        <ele>-6.2</ele>
        <time>2024-03-20T18:27:07Z</time>
      </trkpt>
      <trkpt lat="49.27478" lon="-0.09576">
        <ele>-6.4</ele>
        <time>2024-03-20T18:27:08Z</time>
      </trkpt>
      <trkpt lat="49.27485" lon="-0.09575">
        <ele>-6.4</ele>
        <time>2024-03-20T18:27:09Z</time>
      </trkpt>
      <trkpt lat="49.27491" lon="-0.09574">
        <ele>-6.4</ele>
        <time>2024-03-20T18:27:10Z</time>
      </trkpt>
      <trkpt lat="49.27497" lon="-0.09573">
        <ele>-6.4</ele>
        <time>2024-03-20T18:27:11Z</time>
      </trkpt>
      <trkpt lat="49.27504" lon="-0.09572">
        <ele>-6.6</ele>
        <time>2024-03-20T18:27:12Z</time>
      </trkpt>
      <trkpt lat="49.2751" lon="-0.09571">
        <ele>-6.6</ele>
        <time>2024-03-20T18:27:13Z</time>
      </trkpt>
      <trkpt lat="49.27517" lon="-0.0957">
        <ele>-6.6</ele>
        <time>2024-03-20T18:27:14Z</time>
      </trkpt>
      <trkpt lat="49.27523" lon="-0.09568">
        <ele>-6.6</ele>
        <time>2024-03-20T18:27:15Z</time>
      </trkpt>
      <trkpt lat="49.27528" lon="-0.09566">
        <ele>-6.6</ele>
        <time>2024-03-20T18:27:16Z</time>
      </trkpt>
      <trkpt lat="49.27534" lon="-0.09564">
        <ele>-6.4</ele>
        <time>2024-03-20T18:27:17Z</time>
      </trkpt>
      <trkpt lat="49.27539" lon="-0.09561">
        <ele>-6.4</ele>
        <time>2024-03-20T18:27:18Z</time>
      </trkpt>
      <trkpt lat="49.27544" lon="-0.09559">
        <ele>-6.4</ele>
        <time>2024-03-20T18:27:19Z</time>
      </trkpt>
      <trkpt lat="49.27548" lon="-0.09557">
        <ele>-6.4</ele>
        <time>2024-03-20T18:27:20Z</time>
      </trkpt>
      <trkpt lat="49.27552" lon="-0.09555">
        <ele>-6.4</ele>
        <time>2024-03-20T18:27:21Z</time>
      </trkpt>
      <trkpt lat="49.27555" lon="-0.09554">
        <ele>-6.4</ele>
        <time>2024-03-20T18:27:22Z</time>
      </trkpt>
      <trkpt lat="49.27558" lon="-0.09553">
        <ele>-6.4</ele>
        <time>2024-03-20T18:27:23Z</time>
      </trkpt>
      <trkpt lat="49.2756" lon="-0.09552">
        <ele>-6.4</ele>
        <time>2024-03-20T18:27:24Z</time>
      </trkpt>
      <trkpt lat="49.27563" lon="-0.09551">
        <ele>-6.4</ele>
        <time>2024-03-20T18:27:25Z</time>
      </trkpt>
      <trkpt lat="49.27566" lon="-0.09551">
        <ele>-6.4</ele>
        <time>2024-03-20T18:27:26Z</time>
      </trkpt>
      <trkpt lat="49.27569" lon="-0.09551">
        <ele>-6.2</ele>
        <time>2024-03-20T18:27:27Z</time>
      </trkpt>
      <trkpt lat="49.27573" lon="-0.09551">
        <ele>-6.2</ele>
        <time>2024-03-20T18:27:28Z</time>
      </trkpt>
      <trkpt lat="49.27576" lon="-0.09551">
        <ele>-6</ele>
        <time>2024-03-20T18:27:29Z</time>
      </trkpt>
      <trkpt lat="49.2758" lon="-0.0955">
        <ele>-5.8</ele>
        <time>2024-03-20T18:27:30Z</time>
      </trkpt>
      <trkpt lat="49.27583" lon="-0.0955">
        <ele>-5.6</ele>
        <time>2024-03-20T18:27:31Z</time>
      </trkpt>
      <trkpt lat="49.27587" lon="-0.09549">
        <ele>-5.6</ele>
        <time>2024-03-20T18:27:32Z</time>
      </trkpt>
      <trkpt lat="49.2759" lon="-0.09548">
        <ele>-5.6</ele>
        <time>2024-03-20T18:27:33Z</time>
      </trkpt>
      <trkpt lat="49.27594" lon="-0.09547">
        <ele>-5.6</ele>
        <time>2024-03-20T18:27:34Z</time>
      </trkpt>
      <trkpt lat="49.27598" lon="-0.09547">
        <ele>-5.6</ele>
        <time>2024-03-20T18:27:35Z</time>
      </trkpt>
      <trkpt lat="49.27601" lon="-0.09546">
        <ele>-5.6</ele>
        <time>2024-03-20T18:27:36Z</time>
      </trkpt>
      <trkpt lat="49.27605" lon="-0.09546">
        <ele>-5.6</ele>
        <time>2024-03-20T18:27:37Z</time>
      </trkpt>
      <trkpt lat="49.27609" lon="-0.09545">
        <ele>-5.6</ele>
        <time>2024-03-20T18:27:38Z</time>
      </trkpt>
      <trkpt lat="49.27613" lon="-0.09545">
        <ele>-5.6</ele>
        <time>2024-03-20T18:27:39Z</time>
      </trkpt>
      <trkpt lat="49.27617" lon="-0.09544">
        <ele>-5.6</ele>
        <time>2024-03-20T18:27:40Z</time>
      </trkpt>
      <trkpt lat="49.27621" lon="-0.09544">
        <ele>-5.6</ele>
        <time>2024-03-20T18:27:41Z</time>
      </trkpt>
      <trkpt lat="49.27625" lon="-0.09543">
        <ele>-5.6</ele>
        <time>2024-03-20T18:27:42Z</time>
      </trkpt>
      <trkpt lat="49.27629" lon="-0.09543">
        <ele>-5.8</ele>
        <time>2024-03-20T18:27:43Z</time>
      </trkpt>
      <trkpt lat="49.27633" lon="-0.09542">
        <ele>-5.8</ele>
        <time>2024-03-20T18:27:44Z</time>
      </trkpt>
      <trkpt lat="49.27637" lon="-0.09541">
        <ele>-5.8</ele>
        <time>2024-03-20T18:27:45Z</time>
      </trkpt>
      <trkpt lat="49.27641" lon="-0.09541">
        <ele>-6</ele>
        <time>2024-03-20T18:27:46Z</time>
      </trkpt>
      <trkpt lat="49.27645" lon="-0.0954">
        <ele>-6</ele>
        <time>2024-03-20T18:27:47Z</time>
      </trkpt>
      <trkpt lat="49.27649" lon="-0.0954">
        <ele>-6</ele>
        <time>2024-03-20T18:27:48Z</time>
      </trkpt>
      <trkpt lat="49.27653" lon="-0.0954">
        <ele>-6</ele>
        <time>2024-03-20T18:27:49Z</time>
      </trkpt>
      <trkpt lat="49.27657" lon="-0.0954">
        <ele>-6</ele>
        <time>2024-03-20T18:27:50Z</time>
      </trkpt>
      <trkpt lat="49.27661" lon="-0.0954">
        <ele>-6</ele>
        <time>2024-03-20T18:27:51Z</time>
      </trkpt>
      <trkpt lat="49.27665" lon="-0.0954">
        <ele>-6</ele>
        <time>2024-03-20T18:27:52Z</time>
      </trkpt>
      <trkpt lat="49.27669" lon="-0.09541">
        <ele>-6</ele>
        <time>2024-03-20T18:27:53Z</time>
      </trkpt>
      <trkpt lat="49.27673" lon="-0.09541">
        <ele>-6</ele>
        <time>2024-03-20T18:27:54Z</time>
      </trkpt>
      <trkpt lat="49.27677" lon="-0.09541">
        <ele>-6</ele>
        <time>2024-03-20T18:27:55Z</time>
      </trkpt>
      <trkpt lat="49.27682" lon="-0.09542">
        <ele>-6</ele>
        <time>2024-03-20T18:27:56Z</time>
      </trkpt>
      <trkpt lat="49.27686" lon="-0.09542">
        <ele>-6</ele>
        <time>2024-03-20T18:27:57Z</time>
      </trkpt>
      <trkpt lat="49.27691" lon="-0.09542">
        <ele>-6</ele>
        <time>2024-03-20T18:27:58Z</time>
      </trkpt>
      <trkpt lat="49.27695" lon="-0.09542">
        <ele>-6</ele>
        <time>2024-03-20T18:27:59Z</time>
      </trkpt>
      <trkpt lat="49.277" lon="-0.09541">
        <ele>-6</ele>
        <time>2024-03-20T18:28:00Z</time>
      </trkpt>
      <trkpt lat="49.27704" lon="-0.09541">
        <ele>-6</ele>
        <time>2024-03-20T18:28:01Z</time>
      </trkpt>
      <trkpt lat="49.27709" lon="-0.0954">
        <ele>-6</ele>
        <time>2024-03-20T18:28:02Z</time>
      </trkpt>
      <trkpt lat="49.27714" lon="-0.09539">
        <ele>-6</ele>
        <time>2024-03-20T18:28:03Z</time>
      </trkpt>
      <trkpt lat="49.2772" lon="-0.09538">
        <ele>-6</ele>
        <time>2024-03-20T18:28:04Z</time>
      </trkpt>
      <trkpt lat="49.27725" lon="-0.09538">
        <ele>-5.8</ele>
        <time>2024-03-20T18:28:05Z</time>
      </trkpt>
      <trkpt lat="49.27732" lon="-0.09537">
        <ele>-5.8</ele>
        <time>2024-03-20T18:28:06Z</time>
      </trkpt>
      <trkpt lat="49.27739" lon="-0.09537">
        <ele>-5.8</ele>
        <time>2024-03-20T18:28:07Z</time>
      </trkpt>
      <trkpt lat="49.27746" lon="-0.09536">
        <ele>-5.8</ele>
        <time>2024-03-20T18:28:08Z</time>
      </trkpt>
      <trkpt lat="49.27752" lon="-0.09534">
        <ele>-5.8</ele>
        <time>2024-03-20T18:28:09Z</time>
      </trkpt>
      <trkpt lat="49.27759" lon="-0.09533">
        <ele>-5.8</ele>
        <time>2024-03-20T18:28:10Z</time>
      </trkpt>
      <trkpt lat="49.27765" lon="-0.09532">
        <ele>-5.8</ele>
        <time>2024-03-20T18:28:11Z</time>
      </trkpt>
      <trkpt lat="49.27772" lon="-0.09532">
        <ele>-5.8</ele>
        <time>2024-03-20T18:28:12Z</time>
      </trkpt>
      <trkpt lat="49.27778" lon="-0.09531">
        <ele>-5.8</ele>
        <time>2024-03-20T18:28:13Z</time>
      </trkpt>
      <trkpt lat="49.27785" lon="-0.0953">
        <ele>-6</ele>
        <time>2024-03-20T18:28:14Z</time>
      </trkpt>
      <trkpt lat="49.27791" lon="-0.0953">
        <ele>-6</ele>
        <time>2024-03-20T18:28:15Z</time>
      </trkpt>
      <trkpt lat="49.27797" lon="-0.09529">
        <ele>-6</ele>
        <time>2024-03-20T18:28:16Z</time>
      </trkpt>
      <trkpt lat="49.27803" lon="-0.09528">
        <ele>-6</ele>
        <time>2024-03-20T18:28:17Z</time>
      </trkpt>
      <trkpt lat="49.27809" lon="-0.09527">
        <ele>-6</ele>
        <time>2024-03-20T18:28:18Z</time>
      </trkpt>
      <trkpt lat="49.27815" lon="-0.09526">
        <ele>-6</ele>
        <time>2024-03-20T18:28:19Z</time>
      </trkpt>
      <trkpt lat="49.27821" lon="-0.09525">
        <ele>-6.2</ele>
        <time>2024-03-20T18:28:20Z</time>
      </trkpt>
      <trkpt lat="49.27827" lon="-0.09524">
        <ele>-6.2</ele>
        <time>2024-03-20T18:28:21Z</time>
      </trkpt>
      <trkpt lat="49.27834" lon="-0.09524">
        <ele>-6.2</ele>
        <time>2024-03-20T18:28:22Z</time>
      </trkpt>
      <trkpt lat="49.2784" lon="-0.09523">
        <ele>-6.2</ele>
        <time>2024-03-20T18:28:23Z</time>
      </trkpt>
      <trkpt lat="49.27847" lon="-0.09522">
        <ele>-6.2</ele>
        <time>2024-03-20T18:28:24Z</time>
      </trkpt>
      <trkpt lat="49.27853" lon="-0.09521">
        <ele>-6.4</ele>
        <time>2024-03-20T18:28:25Z</time>
      </trkpt>
      <trkpt lat="49.2786" lon="-0.0952">
        <ele>-6.4</ele>
        <time>2024-03-20T18:28:26Z</time>
      </trkpt>
      <trkpt lat="49.27866" lon="-0.0952">
        <ele>-6.4</ele>
        <time>2024-03-20T18:28:27Z</time>
      </trkpt>
      <trkpt lat="49.27873" lon="-0.09519">
        <ele>-6.4</ele>
        <time>2024-03-20T18:28:28Z</time>
      </trkpt>
      <trkpt lat="49.27879" lon="-0.09519">
        <ele>-6.4</ele>
        <time>2024-03-20T18:28:29Z</time>
      </trkpt>
      <trkpt lat="49.27886" lon="-0.09519">
        <ele>-6.4</ele>
        <time>2024-03-20T18:28:30Z</time>
      </trkpt>
      <trkpt lat="49.27893" lon="-0.09519">
        <ele>-6.4</ele>
        <time>2024-03-20T18:28:31Z</time>
      </trkpt>
      <trkpt lat="49.27899" lon="-0.09519">
        <ele>-6.6</ele>
        <time>2024-03-20T18:28:32Z</time>
      </trkpt>
      <trkpt lat="49.27906" lon="-0.09519">
        <ele>-6.6</ele>
        <time>2024-03-20T18:28:33Z</time>
      </trkpt>
      <trkpt lat="49.27912" lon="-0.09519">
        <ele>-6.6</ele>
        <time>2024-03-20T18:28:34Z</time>
      </trkpt>
      <trkpt lat="49.27919" lon="-0.09519">
        <ele>-6.6</ele>
        <time>2024-03-20T18:28:35Z</time>
      </trkpt>
      <trkpt lat="49.27925" lon="-0.0952">
        <ele>-6.6</ele>
        <time>2024-03-20T18:28:36Z</time>
      </trkpt>
      <trkpt lat="49.27932" lon="-0.09521">
        <ele>-6.6</ele>
        <time>2024-03-20T18:28:37Z</time>
      </trkpt>
      <trkpt lat="49.27938" lon="-0.09522">
        <ele>-6.6</ele>
        <time>2024-03-20T18:28:38Z</time>
      </trkpt>
      <trkpt lat="49.27944" lon="-0.09523">
        <ele>-6.6</ele>
        <time>2024-03-20T18:28:39Z</time>
      </trkpt>
      <trkpt lat="49.2795" lon="-0.09524">
        <ele>-6.8</ele>
        <time>2024-03-20T18:28:40Z</time>
      </trkpt>
      <trkpt lat="49.27956" lon="-0.09525">
        <ele>-6.8</ele>
        <time>2024-03-20T18:28:41Z</time>
      </trkpt>
      <trkpt lat="49.27961" lon="-0.09526">
        <ele>-6.8</ele>
        <time>2024-03-20T18:28:42Z</time>
      </trkpt>
      <trkpt lat="49.27967" lon="-0.09527">
        <ele>-6.8</ele>
        <time>2024-03-20T18:28:43Z</time>
      </trkpt>
      <trkpt lat="49.27972" lon="-0.09529">
        <ele>-6.8</ele>
        <time>2024-03-20T18:28:44Z</time>
      </trkpt>
      <trkpt lat="49.27978" lon="-0.0953">
        <ele>-6.8</ele>
        <time>2024-03-20T18:28:45Z</time>
      </trkpt>
      <trkpt lat="49.27984" lon="-0.09531">
        <ele>-6.8</ele>
        <time>2024-03-20T18:28:46Z</time>
      </trkpt>
      <trkpt lat="49.27989" lon="-0.09533">
        <ele>-6.8</ele>
        <time>2024-03-20T18:28:47Z</time>
      </trkpt>
      <trkpt lat="49.27995" lon="-0.09535">
        <ele>-6.8</ele>
        <time>2024-03-20T18:28:48Z</time>
      </trkpt>
      <trkpt lat="49.28" lon="-0.09537">
        <ele>-6.8</ele>
        <time>2024-03-20T18:28:49Z</time>
      </trkpt>
      <trkpt lat="49.28006" lon="-0.09539">
        <ele>-6.8</ele>
        <time>2024-03-20T18:28:50Z</time>
      </trkpt>
      <trkpt lat="49.28012" lon="-0.09541">
        <ele>-6.8</ele>
        <time>2024-03-20T18:28:51Z</time>
      </trkpt>
      <trkpt lat="49.28017" lon="-0.09544">
        <ele>-6.8</ele>
        <time>2024-03-20T18:28:52Z</time>
      </trkpt>
      <trkpt lat="49.28022" lon="-0.09545">
        <ele>-6.8</ele>
        <time>2024-03-20T18:28:53Z</time>
      </trkpt>
      <trkpt lat="49.28027" lon="-0.09548">
        <ele>-6.8</ele>
        <time>2024-03-20T18:28:54Z</time>
      </trkpt>
      <trkpt lat="49.28032" lon="-0.0955">
        <ele>-6.8</ele>
        <time>2024-03-20T18:28:55Z</time>
      </trkpt>
      <trkpt lat="49.28037" lon="-0.09552">
        <ele>-6.8</ele>
        <time>2024-03-20T18:28:56Z</time>
      </trkpt>
      <trkpt lat="49.28042" lon="-0.09555">
        <ele>-6.8</ele>
        <time>2024-03-20T18:28:57Z</time>
      </trkpt>
      <trkpt lat="49.28048" lon="-0.09557">
        <ele>-6.8</ele>
        <time>2024-03-20T18:28:58Z</time>
      </trkpt>
      <trkpt lat="49.28053" lon="-0.09559">
        <ele>-6.6</ele>
        <time>2024-03-20T18:28:59Z</time>
      </trkpt>
      <trkpt lat="49.28058" lon="-0.09562">
        <ele>-6.6</ele>
        <time>2024-03-20T18:29:00Z</time>
      </trkpt>
      <trkpt lat="49.28063" lon="-0.09565">
        <ele>-6.6</ele>
        <time>2024-03-20T18:29:01Z</time>
      </trkpt>
      <trkpt lat="49.28068" lon="-0.09567">
        <ele>-6.6</ele>
        <time>2024-03-20T18:29:02Z</time>
      </trkpt>
      <trkpt lat="49.28074" lon="-0.0957">
        <ele>-6.6</ele>
        <time>2024-03-20T18:29:03Z</time>
      </trkpt>
      <trkpt lat="49.28079" lon="-0.09572">
        <ele>-6.6</ele>
        <time>2024-03-20T18:29:04Z</time>
      </trkpt>
      <trkpt lat="49.28085" lon="-0.09575">
        <ele>-6.6</ele>
        <time>2024-03-20T18:29:05Z</time>
      </trkpt>
      <trkpt lat="49.2809" lon="-0.09578">
        <ele>-6.6</ele>
        <time>2024-03-20T18:29:06Z</time>
      </trkpt>
      <trkpt lat="49.28096" lon="-0.09581">
        <ele>-6.6</ele>
        <time>2024-03-20T18:29:07Z</time>
      </trkpt>
      <trkpt lat="49.28101" lon="-0.09584">
        <ele>-6.6</ele>
        <time>2024-03-20T18:29:08Z</time>
      </trkpt>
      <trkpt lat="49.28106" lon="-0.09588">
        <ele>-6.6</ele>
        <time>2024-03-20T18:29:09Z</time>
      </trkpt>
      <trkpt lat="49.28112" lon="-0.09591">
        <ele>-6.6</ele>
        <time>2024-03-20T18:29:10Z</time>
      </trkpt>
      <trkpt lat="49.28117" lon="-0.09594">
        <ele>-6.6</ele>
        <time>2024-03-20T18:29:11Z</time>
      </trkpt>
      <trkpt lat="49.28122" lon="-0.09597">
        <ele>-6.6</ele>
        <time>2024-03-20T18:29:12Z</time>
      </trkpt>
      <trkpt lat="49.28127" lon="-0.096">
        <ele>-6.8</ele>
        <time>2024-03-20T18:29:13Z</time>
      </trkpt>
      <trkpt lat="49.28133" lon="-0.09603">
        <ele>-6.8</ele>
        <time>2024-03-20T18:29:14Z</time>
      </trkpt>
      <trkpt lat="49.28138" lon="-0.09607">
        <ele>-7</ele>
        <time>2024-03-20T18:29:15Z</time>
      </trkpt>
      <trkpt lat="49.28144" lon="-0.0961">
        <ele>-7</ele>
        <time>2024-03-20T18:29:16Z</time>
      </trkpt>
      <trkpt lat="49.28149" lon="-0.09613">
        <ele>-7.2</ele>
        <time>2024-03-20T18:29:17Z</time>
      </trkpt>
      <trkpt lat="49.28155" lon="-0.09616">
        <ele>-7.2</ele>
        <time>2024-03-20T18:29:18Z</time>
      </trkpt>
      <trkpt lat="49.2816" lon="-0.09619">
        <ele>-7.2</ele>
        <time>2024-03-20T18:29:19Z</time>
      </trkpt>
      <trkpt lat="49.28166" lon="-0.09623">
        <ele>-7.2</ele>
        <time>2024-03-20T18:29:20Z</time>
      </trkpt>
      <trkpt lat="49.28171" lon="-0.09626">
        <ele>-7.2</ele>
        <time>2024-03-20T18:29:21Z</time>
      </trkpt>
      <trkpt lat="49.28176" lon="-0.0963">
        <ele>-7.2</ele>
        <time>2024-03-20T18:29:22Z</time>
      </trkpt>
      <trkpt lat="49.28181" lon="-0.09633">
        <ele>-7.2</ele>
        <time>2024-03-20T18:29:23Z</time>
      </trkpt>
      <trkpt lat="49.28186" lon="-0.09637">
        <ele>-7.2</ele>
        <time>2024-03-20T18:29:24Z</time>
      </trkpt>
      <trkpt lat="49.28191" lon="-0.0964">
        <ele>-7.2</ele>
        <time>2024-03-20T18:29:25Z</time>
      </trkpt>
      <trkpt lat="49.28196" lon="-0.09643">
        <ele>-7.2</ele>
        <time>2024-03-20T18:29:26Z</time>
      </trkpt>
      <trkpt lat="49.28201" lon="-0.09647">
        <ele>-7.2</ele>
        <time>2024-03-20T18:29:27Z</time>
      </trkpt>
      <trkpt lat="49.28206" lon="-0.09651">
        <ele>-7.2</ele>
        <time>2024-03-20T18:29:28Z</time>
      </trkpt>
      <trkpt lat="49.28211" lon="-0.09654">
        <ele>-7.2</ele>
        <time>2024-03-20T18:29:29Z</time>
      </trkpt>
      <trkpt lat="49.28216" lon="-0.09657">
        <ele>-7.2</ele>
        <time>2024-03-20T18:29:30Z</time>
      </trkpt>
      <trkpt lat="49.28221" lon="-0.0966">
        <ele>-7.2</ele>
        <time>2024-03-20T18:29:31Z</time>
      </trkpt>
      <trkpt lat="49.28227" lon="-0.09664">
        <ele>-7.2</ele>
        <time>2024-03-20T18:29:32Z</time>
      </trkpt>
      <trkpt lat="49.28232" lon="-0.09667">
        <ele>-7.2</ele>
        <time>2024-03-20T18:29:33Z</time>
      </trkpt>
      <trkpt lat="49.28237" lon="-0.0967">
        <ele>-7.2</ele>
        <time>2024-03-20T18:29:34Z</time>
      </trkpt>
      <trkpt lat="49.28242" lon="-0.09674">
        <ele>-7.2</ele>
        <time>2024-03-20T18:29:35Z</time>
      </trkpt>
      <trkpt lat="49.28247" lon="-0.09677">
        <ele>-7.2</ele>
        <time>2024-03-20T18:29:36Z</time>
      </trkpt>
      <trkpt lat="49.28251" lon="-0.09681">
        <ele>-7.2</ele>
        <time>2024-03-20T18:29:37Z</time>
      </trkpt>
      <trkpt lat="49.28256" lon="-0.09684">
        <ele>-7.2</ele>
        <time>2024-03-20T18:29:38Z</time>
      </trkpt>
      <trkpt lat="49.28261" lon="-0.09687">
        <ele>-7.2</ele>
        <time>2024-03-20T18:29:39Z</time>
      </trkpt>
      <trkpt lat="49.28265" lon="-0.0969">
        <ele>-7.2</ele>
        <time>2024-03-20T18:29:40Z</time>
      </trkpt>
      <trkpt lat="49.28269" lon="-0.09692">
        <ele>-7.2</ele>
        <time>2024-03-20T18:29:41Z</time>
      </trkpt>
      <trkpt lat="49.28273" lon="-0.09695">
        <ele>-7.2</ele>
        <time>2024-03-20T18:29:42Z</time>
      </trkpt>
      <trkpt lat="49.28277" lon="-0.09698">
        <ele>-7.2</ele>
        <time>2024-03-20T18:29:43Z</time>
      </trkpt>
      <trkpt lat="49.28281" lon="-0.097">
        <ele>-7</ele>
        <time>2024-03-20T18:29:44Z</time>
      </trkpt>
      <trkpt lat="49.28285" lon="-0.09701">
        <ele>-7</ele>
        <time>2024-03-20T18:29:45Z</time>
      </trkpt>
      <trkpt lat="49.28288" lon="-0.09703">
        <ele>-7</ele>
        <time>2024-03-20T18:29:46Z</time>
      </trkpt>
      <trkpt lat="49.28291" lon="-0.09704">
        <ele>-7</ele>
        <time>2024-03-20T18:29:47Z</time>
      </trkpt>
      <trkpt lat="49.28294" lon="-0.09705">
        <ele>-7</ele>
        <time>2024-03-20T18:29:48Z</time>
      </trkpt>
      <trkpt lat="49.28296" lon="-0.09706">
        <ele>-6.8</ele>
        <time>2024-03-20T18:29:49Z</time>
      </trkpt>
      <trkpt lat="49.28298" lon="-0.09706">
        <ele>-6.6</ele>
        <time>2024-03-20T18:29:50Z</time>
      </trkpt>
      <trkpt lat="49.28299" lon="-0.09707">
        <ele>-6.6</ele>
        <time>2024-03-20T18:29:51Z</time>
      </trkpt>
      <trkpt lat="49.28299" lon="-0.09707">
        <ele>-6.4</ele>
        <time>2024-03-20T18:29:52Z</time>
      </trkpt>
      <trkpt lat="49.28299" lon="-0.09707">
        <ele>-6.4</ele>
        <time>2024-03-20T18:29:53Z</time>
      </trkpt>
      <trkpt lat="49.28306" lon="-0.09709">
        <ele>-5.4</ele>
        <time>2024-03-20T18:30:17Z</time>
      </trkpt>
      <trkpt lat="49.28308" lon="-0.0971">
        <ele>-5.4</ele>
        <time>2024-03-20T18:30:18Z</time>
      </trkpt>
      <trkpt lat="49.2831" lon="-0.0971">
        <ele>-5.4</ele>
        <time>2024-03-20T18:30:19Z</time>
      </trkpt>
      <trkpt lat="49.28312" lon="-0.09711">
        <ele>-5.4</ele>
        <time>2024-03-20T18:30:20Z</time>
      </trkpt>
      <trkpt lat="49.28314" lon="-0.09713">
        <ele>-5.4</ele>
        <time>2024-03-20T18:30:21Z</time>
      </trkpt>
      <trkpt lat="49.28317" lon="-0.09716">
        <ele>-5.6</ele>
        <time>2024-03-20T18:30:22Z</time>
      </trkpt>
      <trkpt lat="49.2832" lon="-0.0972">
        <ele>-5.6</ele>
        <time>2024-03-20T18:30:23Z</time>
      </trkpt>
      <trkpt lat="49.28321" lon="-0.09726">
        <ele>-5.6</ele>
        <time>2024-03-20T18:30:24Z</time>
      </trkpt>
      <trkpt lat="49.28323" lon="-0.09732">
        <ele>-5.8</ele>
        <time>2024-03-20T18:30:25Z</time>
      </trkpt>
      <trkpt lat="49.28324" lon="-0.09738">
        <ele>-5.8</ele>
        <time>2024-03-20T18:30:26Z</time>
      </trkpt>
      <trkpt lat="49.28324" lon="-0.09745">
        <ele>-5.8</ele>
        <time>2024-03-20T18:30:27Z</time>
      </trkpt>
      <trkpt lat="49.28325" lon="-0.09752">
        <ele>-6</ele>
        <time>2024-03-20T18:30:28Z</time>
      </trkpt>
      <trkpt lat="49.28325" lon="-0.09758">
        <ele>-6</ele>
        <time>2024-03-20T18:30:29Z</time>
      </trkpt>
      <trkpt lat="49.28325" lon="-0.09765">
        <ele>-6</ele>
        <time>2024-03-20T18:30:30Z</time>
      </trkpt>
      <trkpt lat="49.28325" lon="-0.09773">
        <ele>-6.2</ele>
        <time>2024-03-20T18:30:31Z</time>
      </trkpt>
      <trkpt lat="49.28326" lon="-0.0978">
        <ele>-6.2</ele>
        <time>2024-03-20T18:30:32Z</time>
      </trkpt>
      <trkpt lat="49.28326" lon="-0.09788">
        <ele>-6.4</ele>
        <time>2024-03-20T18:30:33Z</time>
      </trkpt>
      <trkpt lat="49.28327" lon="-0.09795">
        <ele>-6.4</ele>
        <time>2024-03-20T18:30:34Z</time>
      </trkpt>
      <trkpt lat="49.28328" lon="-0.09803">
        <ele>-6.4</ele>
        <time>2024-03-20T18:30:35Z</time>
      </trkpt>
      <trkpt lat="49.28329" lon="-0.09811">
        <ele>-6.4</ele>
        <time>2024-03-20T18:30:36Z</time>
      </trkpt>
      <trkpt lat="49.28329" lon="-0.09819">
        <ele>-6.8</ele>
        <time>2024-03-20T18:30:37Z</time>
      </trkpt>
      <trkpt lat="49.28329" lon="-0.09827">
        <ele>-6.8</ele>
        <time>2024-03-20T18:30:38Z</time>
      </trkpt>
      <trkpt lat="49.2833" lon="-0.09835">
        <ele>-6.8</ele>
        <time>2024-03-20T18:30:39Z</time>
      </trkpt>
      <trkpt lat="49.2833" lon="-0.09844">
        <ele>-7</ele>
        <time>2024-03-20T18:30:40Z</time>
      </trkpt>
      <trkpt lat="49.28331" lon="-0.09852">
        <ele>-7</ele>
        <time>2024-03-20T18:30:41Z</time>
      </trkpt>
      <trkpt lat="49.28331" lon="-0.0986">
        <ele>-7</ele>
        <time>2024-03-20T18:30:42Z</time>
      </trkpt>
      <trkpt lat="49.28332" lon="-0.09869">
        <ele>-7</ele>
        <time>2024-03-20T18:30:43Z</time>
      </trkpt>
      <trkpt lat="49.28332" lon="-0.09877">
        <ele>-7</ele>
        <time>2024-03-20T18:30:44Z</time>
      </trkpt>
      <trkpt lat="49.28333" lon="-0.09886">
        <ele>-7</ele>
        <time>2024-03-20T18:30:45Z</time>
      </trkpt>
      <trkpt lat="49.28333" lon="-0.09895">
        <ele>-7</ele>
        <time>2024-03-20T18:30:46Z</time>
      </trkpt>
      <trkpt lat="49.28333" lon="-0.09903">
        <ele>-7.2</ele>
        <time>2024-03-20T18:30:47Z</time>
      </trkpt>
      <trkpt lat="49.28334" lon="-0.09912">
        <ele>-7.2</ele>
        <time>2024-03-20T18:30:48Z</time>
      </trkpt>
      <trkpt lat="49.28334" lon="-0.0992">
        <ele>-7.2</ele>
        <time>2024-03-20T18:30:49Z</time>
      </trkpt>
      <trkpt lat="49.28334" lon="-0.09929">
        <ele>-7.2</ele>
        <time>2024-03-20T18:30:50Z</time>
      </trkpt>
      <trkpt lat="49.28334" lon="-0.09938">
        <ele>-7.2</ele>
        <time>2024-03-20T18:30:51Z</time>
      </trkpt>
      <trkpt lat="49.28335" lon="-0.09947">
        <ele>-7.2</ele>
        <time>2024-03-20T18:30:52Z</time>
      </trkpt>
      <trkpt lat="49.28335" lon="-0.09956">
        <ele>-7.2</ele>
        <time>2024-03-20T18:30:53Z</time>
      </trkpt>
      <trkpt lat="49.28336" lon="-0.09965">
        <ele>-7.4</ele>
        <time>2024-03-20T18:30:54Z</time>
      </trkpt>
      <trkpt lat="49.28336" lon="-0.09973">
        <ele>-7.4</ele>
        <time>2024-03-20T18:30:55Z</time>
      </trkpt>
      <trkpt lat="49.28336" lon="-0.09982">
        <ele>-7.4</ele>
        <time>2024-03-20T18:30:56Z</time>
      </trkpt>
      <trkpt lat="49.28336" lon="-0.09991">
        <ele>-7.6</ele>
        <time>2024-03-20T18:30:57Z</time>
      </trkpt>
      <trkpt lat="49.28337" lon="-0.1">
        <ele>-7.8</ele>
        <time>2024-03-20T18:30:58Z</time>
      </trkpt>
      <trkpt lat="49.28337" lon="-0.10008">
        <ele>-7.8</ele>
        <time>2024-03-20T18:30:59Z</time>
      </trkpt>
      <trkpt lat="49.28338" lon="-0.10017">
        <ele>-8</ele>
        <time>2024-03-20T18:31:00Z</time>
      </trkpt>
      <trkpt lat="49.28338" lon="-0.10026">
        <ele>-8</ele>
        <time>2024-03-20T18:31:01Z</time>
      </trkpt>
      <trkpt lat="49.28338" lon="-0.10035">
        <ele>-8</ele>
        <time>2024-03-20T18:31:02Z</time>
      </trkpt>
      <trkpt lat="49.28339" lon="-0.10044">
        <ele>-8</ele>
        <time>2024-03-20T18:31:03Z</time>
      </trkpt>
      <trkpt lat="49.28339" lon="-0.10053">
        <ele>-8</ele>
        <time>2024-03-20T18:31:04Z</time>
      </trkpt>
      <trkpt lat="49.2834" lon="-0.10062">
        <ele>-8</ele>
        <time>2024-03-20T18:31:05Z</time>
      </trkpt>
      <trkpt lat="49.2834" lon="-0.10071">
        <ele>-8</ele>
        <time>2024-03-20T18:31:06Z</time>
      </trkpt>
      <trkpt lat="49.28341" lon="-0.1008">
        <ele>-8</ele>
        <time>2024-03-20T18:31:07Z</time>
      </trkpt>
      <trkpt lat="49.28341" lon="-0.10089">
        <ele>-8.2</ele>
        <time>2024-03-20T18:31:08Z</time>
      </trkpt>
      <trkpt lat="49.28341" lon="-0.10098">
        <ele>-8.2</ele>
        <time>2024-03-20T18:31:09Z</time>
      </trkpt>
      <trkpt lat="49.28342" lon="-0.10107">
        <ele>-8.2</ele>
        <time>2024-03-20T18:31:10Z</time>
      </trkpt>
      <trkpt lat="49.28342" lon="-0.10116">
        <ele>-8.2</ele>
        <time>2024-03-20T18:31:11Z</time>
      </trkpt>
      <trkpt lat="49.28342" lon="-0.10125">
        <ele>-8.2</ele>
        <time>2024-03-20T18:31:12Z</time>
      </trkpt>
      <trkpt lat="49.28343" lon="-0.10134">
        <ele>-8.2</ele>
        <time>2024-03-20T18:31:13Z</time>
      </trkpt>
      <trkpt lat="49.28343" lon="-0.10143">
        <ele>-8.2</ele>
        <time>2024-03-20T18:31:14Z</time>
      </trkpt>
      <trkpt lat="49.28343" lon="-0.10152">
        <ele>-8.2</ele>
        <time>2024-03-20T18:31:15Z</time>
      </trkpt>
      <trkpt lat="49.28344" lon="-0.1016">
        <ele>-8.2</ele>
        <time>2024-03-20T18:31:16Z</time>
      </trkpt>
      <trkpt lat="49.28344" lon="-0.10169">
        <ele>-8.2</ele>
        <time>2024-03-20T18:31:17Z</time>
      </trkpt>
      <trkpt lat="49.28344" lon="-0.10177">
        <ele>-8.2</ele>
        <time>2024-03-20T18:31:18Z</time>
      </trkpt>
      <trkpt lat="49.28344" lon="-0.10186">
        <ele>-8.2</ele>
        <time>2024-03-20T18:31:19Z</time>
      </trkpt>
      <trkpt lat="49.28345" lon="-0.10194">
        <ele>-8.2</ele>
        <time>2024-03-20T18:31:20Z</time>
      </trkpt>
      <trkpt lat="49.28345" lon="-0.10202">
        <ele>-8.2</ele>
        <time>2024-03-20T18:31:21Z</time>
      </trkpt>
      <trkpt lat="49.28345" lon="-0.10209">
        <ele>-8.2</ele>
        <time>2024-03-20T18:31:22Z</time>
      </trkpt>
      <trkpt lat="49.28345" lon="-0.10217">
        <ele>-8.2</ele>
        <time>2024-03-20T18:31:23Z</time>
      </trkpt>
      <trkpt lat="49.28346" lon="-0.10224">
        <ele>-8.2</ele>
        <time>2024-03-20T18:31:24Z</time>
      </trkpt>
      <trkpt lat="49.28346" lon="-0.10231">
        <ele>-8.2</ele>
        <time>2024-03-20T18:31:25Z</time>
      </trkpt>
      <trkpt lat="49.28346" lon="-0.10237">
        <ele>-8.2</ele>
        <time>2024-03-20T18:31:26Z</time>
      </trkpt>
      <trkpt lat="49.28347" lon="-0.10243">
        <ele>-8.2</ele>
        <time>2024-03-20T18:31:27Z</time>
      </trkpt>
      <trkpt lat="49.28347" lon="-0.10248">
        <ele>-8.2</ele>
        <time>2024-03-20T18:31:28Z</time>
      </trkpt>
      <trkpt lat="49.28348" lon="-0.10252">
        <ele>-8.2</ele>
        <time>2024-03-20T18:31:29Z</time>
      </trkpt>
      <trkpt lat="49.28348" lon="-0.10256">
        <ele>-8</ele>
        <time>2024-03-20T18:31:30Z</time>
      </trkpt>
      <trkpt lat="49.28348" lon="-0.1026">
        <ele>-8</ele>
        <time>2024-03-20T18:31:31Z</time>
      </trkpt>
      <trkpt lat="49.28348" lon="-0.10263">
        <ele>-8</ele>
        <time>2024-03-20T18:31:32Z</time>
      </trkpt>
      <trkpt lat="49.28348" lon="-0.10264">
        <ele>-8</ele>
        <time>2024-03-20T18:31:33Z</time>
      </trkpt>
      <trkpt lat="49.28348" lon="-0.10264">
        <ele>-8</ele>
        <time>2024-03-20T18:31:34Z</time>
      </trkpt>
      <trkpt lat="49.28348" lon="-0.10264">
        <ele>-7.8</ele>
        <time>2024-03-20T18:31:35Z</time>
      </trkpt>
      <trkpt lat="49.28348" lon="-0.10273">
        <ele>-7</ele>
        <time>2024-03-20T18:32:35Z</time>
      </trkpt>
      <trkpt lat="49.28348" lon="-0.10276">
        <ele>-7</ele>
        <time>2024-03-20T18:32:36Z</time>
      </trkpt>
      <trkpt lat="49.28348" lon="-0.10279">
        <ele>-7</ele>
        <time>2024-03-20T18:32:37Z</time>
      </trkpt>
      <trkpt lat="49.28348" lon="-0.10283">
        <ele>-7</ele>
        <time>2024-03-20T18:32:38Z</time>
      </trkpt>
      <trkpt lat="49.28348" lon="-0.10287">
        <ele>-7</ele>
        <time>2024-03-20T18:32:39Z</time>
      </trkpt>
      <trkpt lat="49.28348" lon="-0.10292">
        <ele>-7</ele>
        <time>2024-03-20T18:32:40Z</time>
      </trkpt>
      <trkpt lat="49.28347" lon="-0.10297">
        <ele>-7</ele>
        <time>2024-03-20T18:32:41Z</time>
      </trkpt>
      <trkpt lat="49.28346" lon="-0.10302">
        <ele>-7</ele>
        <time>2024-03-20T18:32:42Z</time>
      </trkpt>
      <trkpt lat="49.28345" lon="-0.10308">
        <ele>-7</ele>
        <time>2024-03-20T18:32:43Z</time>
      </trkpt>
      <trkpt lat="49.28344" lon="-0.10313">
        <ele>-7</ele>
        <time>2024-03-20T18:32:44Z</time>
      </trkpt>
      <trkpt lat="49.28342" lon="-0.10319">
        <ele>-7</ele>
        <time>2024-03-20T18:32:45Z</time>
      </trkpt>
      <trkpt lat="49.2834" lon="-0.10325">
        <ele>-7</ele>
        <time>2024-03-20T18:32:46Z</time>
      </trkpt>
      <trkpt lat="49.28339" lon="-0.10331">
        <ele>-7.2</ele>
        <time>2024-03-20T18:32:47Z</time>
      </trkpt>
      <trkpt lat="49.28337" lon="-0.10338">
        <ele>-7.2</ele>
        <time>2024-03-20T18:32:48Z</time>
      </trkpt>
      <trkpt lat="49.28337" lon="-0.10345">
        <ele>-7.2</ele>
        <time>2024-03-20T18:32:49Z</time>
      </trkpt>
      <trkpt lat="49.28337" lon="-0.10352">
        <ele>-7.2</ele>
        <time>2024-03-20T18:32:50Z</time>
      </trkpt>
      <trkpt lat="49.28337" lon="-0.10359">
        <ele>-7.2</ele>
        <time>2024-03-20T18:32:51Z</time>
      </trkpt>
      <trkpt lat="49.28337" lon="-0.10367">
        <ele>-7.2</ele>
        <time>2024-03-20T18:32:52Z</time>
      </trkpt>
      <trkpt lat="49.28338" lon="-0.10374">
        <ele>-7.4</ele>
        <time>2024-03-20T18:32:53Z</time>
      </trkpt>
      <trkpt lat="49.28338" lon="-0.10381">
        <ele>-7.4</ele>
        <time>2024-03-20T18:32:54Z</time>
      </trkpt>
      <trkpt lat="49.28339" lon="-0.10388">
        <ele>-7.4</ele>
        <time>2024-03-20T18:32:55Z</time>
      </trkpt>
      <trkpt lat="49.2834" lon="-0.10395">
        <ele>-7.4</ele>
        <time>2024-03-20T18:32:56Z</time>
      </trkpt>
      <trkpt lat="49.2834" lon="-0.10402">
        <ele>-7.4</ele>
        <time>2024-03-20T18:32:57Z</time>
      </trkpt>
      <trkpt lat="49.28341" lon="-0.1041">
        <ele>-7.4</ele>
        <time>2024-03-20T18:32:58Z</time>
      </trkpt>
      <trkpt lat="49.28342" lon="-0.10417">
        <ele>-7.4</ele>
        <time>2024-03-20T18:32:59Z</time>
      </trkpt>
      <trkpt lat="49.28342" lon="-0.10425">
        <ele>-7.4</ele>
        <time>2024-03-20T18:33:00Z</time>
      </trkpt>
      <trkpt lat="49.28342" lon="-0.10433">
        <ele>-7.4</ele>
        <time>2024-03-20T18:33:01Z</time>
      </trkpt>
      <trkpt lat="49.28342" lon="-0.10441">
        <ele>-7.4</ele>
        <time>2024-03-20T18:33:02Z</time>
      </trkpt>
      <trkpt lat="49.28343" lon="-0.10448">
        <ele>-7.4</ele>
        <time>2024-03-20T18:33:03Z</time>
      </trkpt>
      <trkpt lat="49.28343" lon="-0.10456">
        <ele>-7.4</ele>
        <time>2024-03-20T18:33:04Z</time>
      </trkpt>
      <trkpt lat="49.28343" lon="-0.10463">
        <ele>-7.4</ele>
        <time>2024-03-20T18:33:05Z</time>
      </trkpt>
      <trkpt lat="49.28344" lon="-0.1047">
        <ele>-7.4</ele>
        <time>2024-03-20T18:33:06Z</time>
      </trkpt>
      <trkpt lat="49.28344" lon="-0.10478">
        <ele>-7.4</ele>
        <time>2024-03-20T18:33:07Z</time>
      </trkpt>
      <trkpt lat="49.28344" lon="-0.10485">
        <ele>-7.4</ele>
        <time>2024-03-20T18:33:08Z</time>
      </trkpt>
      <trkpt lat="49.28345" lon="-0.10493">
        <ele>-7.6</ele>
        <time>2024-03-20T18:33:09Z</time>
      </trkpt>
      <trkpt lat="49.28345" lon="-0.105">
        <ele>-7.6</ele>
        <time>2024-03-20T18:33:10Z</time>
      </trkpt>
      <trkpt lat="49.28345" lon="-0.10506">
        <ele>-7.6</ele>
        <time>2024-03-20T18:33:11Z</time>
      </trkpt>
      <trkpt lat="49.28345" lon="-0.10513">
        <ele>-7.6</ele>
        <time>2024-03-20T18:33:12Z</time>
      </trkpt>
      <trkpt lat="49.28346" lon="-0.10518">
        <ele>-7.6</ele>
        <time>2024-03-20T18:33:13Z</time>
      </trkpt>
      <trkpt lat="49.28346" lon="-0.10523">
        <ele>-7.6</ele>
        <time>2024-03-20T18:33:14Z</time>
      </trkpt>
      <trkpt lat="49.28346" lon="-0.10527">
        <ele>-7.6</ele>
        <time>2024-03-20T18:33:15Z</time>
      </trkpt>
      <trkpt lat="49.28346" lon="-0.10531">
        <ele>-7.6</ele>
        <time>2024-03-20T18:33:16Z</time>
      </trkpt>
      <trkpt lat="49.28346" lon="-0.10536">
        <ele>-7.6</ele>
        <time>2024-03-20T18:33:17Z</time>
      </trkpt>
      <trkpt lat="49.28346" lon="-0.10541">
        <ele>-7.6</ele>
        <time>2024-03-20T18:33:18Z</time>
      </trkpt>
      <trkpt lat="49.28346" lon="-0.10547">
        <ele>-7.4</ele>
        <time>2024-03-20T18:33:19Z</time>
      </trkpt>
      <trkpt lat="49.28346" lon="-0.10554">
        <ele>-7.4</ele>
        <time>2024-03-20T18:33:20Z</time>
      </trkpt>
      <trkpt lat="49.28347" lon="-0.10561">
        <ele>-7.4</ele>
        <time>2024-03-20T18:33:21Z</time>
      </trkpt>
      <trkpt lat="49.28347" lon="-0.10568">
        <ele>-7.4</ele>
        <time>2024-03-20T18:33:22Z</time>
      </trkpt>
      <trkpt lat="49.28348" lon="-0.10575">
        <ele>-7.4</ele>
        <time>2024-03-20T18:33:23Z</time>
      </trkpt>
      <trkpt lat="49.28348" lon="-0.10582">
        <ele>-7.4</ele>
        <time>2024-03-20T18:33:24Z</time>
      </trkpt>
      <trkpt lat="49.28348" lon="-0.10589">
        <ele>-7.4</ele>
        <time>2024-03-20T18:33:25Z</time>
      </trkpt>
      <trkpt lat="49.28348" lon="-0.10597">
        <ele>-7.4</ele>
        <time>2024-03-20T18:33:26Z</time>
      </trkpt>
      <trkpt lat="49.28349" lon="-0.10604">
        <ele>-7.4</ele>
        <time>2024-03-20T18:33:27Z</time>
      </trkpt>
      <trkpt lat="49.28349" lon="-0.10612">
        <ele>-7.4</ele>
        <time>2024-03-20T18:33:28Z</time>
      </trkpt>
      <trkpt lat="49.28349" lon="-0.10619">
        <ele>-7.4</ele>
        <time>2024-03-20T18:33:29Z</time>
      </trkpt>
      <trkpt lat="49.2835" lon="-0.10627">
        <ele>-7.4</ele>
        <time>2024-03-20T18:33:30Z</time>
      </trkpt>
      <trkpt lat="49.2835" lon="-0.10635">
        <ele>-7.4</ele>
        <time>2024-03-20T18:33:31Z</time>
      </trkpt>
      <trkpt lat="49.2835" lon="-0.10642">
        <ele>-7.4</ele>
        <time>2024-03-20T18:33:32Z</time>
      </trkpt>
      <trkpt lat="49.2835" lon="-0.1065">
        <ele>-7.4</ele>
        <time>2024-03-20T18:33:33Z</time>
      </trkpt>
      <trkpt lat="49.2835" lon="-0.10658">
        <ele>-7.2</ele>
        <time>2024-03-20T18:33:34Z</time>
      </trkpt>
      <trkpt lat="49.28351" lon="-0.10666">
        <ele>-7.2</ele>
        <time>2024-03-20T18:33:35Z</time>
      </trkpt>
      <trkpt lat="49.28351" lon="-0.10675">
        <ele>-7.2</ele>
        <time>2024-03-20T18:33:36Z</time>
      </trkpt>
      <trkpt lat="49.28351" lon="-0.10682">
        <ele>-7.2</ele>
        <time>2024-03-20T18:33:37Z</time>
      </trkpt>
      <trkpt lat="49.28352" lon="-0.1069">
        <ele>-7.2</ele>
        <time>2024-03-20T18:33:38Z</time>
      </trkpt>
      <trkpt lat="49.28352" lon="-0.10698">
        <ele>-7.2</ele>
        <time>2024-03-20T18:33:39Z</time>
      </trkpt>
      <trkpt lat="49.28352" lon="-0.10706">
        <ele>-7.2</ele>
        <time>2024-03-20T18:33:40Z</time>
      </trkpt>
      <trkpt lat="49.28353" lon="-0.10714">
        <ele>-7.2</ele>
        <time>2024-03-20T18:33:41Z</time>
      </trkpt>
      <trkpt lat="49.28353" lon="-0.10722">
        <ele>-7.2</ele>
        <time>2024-03-20T18:33:42Z</time>
      </trkpt>
      <trkpt lat="49.28353" lon="-0.10729">
        <ele>-7.2</ele>
        <time>2024-03-20T18:33:43Z</time>
      </trkpt>
      <trkpt lat="49.28353" lon="-0.10737">
        <ele>-7.2</ele>
        <time>2024-03-20T18:33:44Z</time>
      </trkpt>
      <trkpt lat="49.28354" lon="-0.10744">
        <ele>-7.2</ele>
        <time>2024-03-20T18:33:45Z</time>
      </trkpt>
      <trkpt lat="49.28354" lon="-0.10751">
        <ele>-7.2</ele>
        <time>2024-03-20T18:33:46Z</time>
      </trkpt>
      <trkpt lat="49.28354" lon="-0.10757">
        <ele>-7.2</ele>
        <time>2024-03-20T18:33:47Z</time>
      </trkpt>
      <trkpt lat="49.28355" lon="-0.10762">
        <ele>-7.2</ele>
        <time>2024-03-20T18:33:48Z</time>
      </trkpt>
      <trkpt lat="49.28357" lon="-0.10766">
        <ele>-7.2</ele>
        <time>2024-03-20T18:33:49Z</time>
      </trkpt>
      <trkpt lat="49.2836" lon="-0.10768">
        <ele>-7.2</ele>
        <time>2024-03-20T18:33:50Z</time>
      </trkpt>
      <trkpt lat="49.28363" lon="-0.10769">
        <ele>-7.2</ele>
        <time>2024-03-20T18:33:51Z</time>
      </trkpt>
      <trkpt lat="49.28366" lon="-0.10769">
        <ele>-7.2</ele>
        <time>2024-03-20T18:33:52Z</time>
      </trkpt>
      <trkpt lat="49.2837" lon="-0.10768">
        <ele>-7.2</ele>
        <time>2024-03-20T18:33:53Z</time>
      </trkpt>
      <trkpt lat="49.28373" lon="-0.10768">
        <ele>-7.2</ele>
        <time>2024-03-20T18:33:54Z</time>
      </trkpt>
      <trkpt lat="49.28376" lon="-0.10768">
        <ele>-7.2</ele>
        <time>2024-03-20T18:33:55Z</time>
      </trkpt>
      <trkpt lat="49.2838" lon="-0.10767">
        <ele>-7.2</ele>
        <time>2024-03-20T18:33:56Z</time>
      </trkpt>
      <trkpt lat="49.28383" lon="-0.10766">
        <ele>-7.2</ele>
        <time>2024-03-20T18:33:57Z</time>
      </trkpt>
      <trkpt lat="49.28387" lon="-0.10765">
        <ele>-7.2</ele>
        <time>2024-03-20T18:33:58Z</time>
      </trkpt>
      <trkpt lat="49.28391" lon="-0.10765">
        <ele>-7.2</ele>
        <time>2024-03-20T18:33:59Z</time>
      </trkpt>
      <trkpt lat="49.28394" lon="-0.10764">
        <ele>-7.2</ele>
        <time>2024-03-20T18:34:00Z</time>
      </trkpt>
      <trkpt lat="49.28397" lon="-0.10764">
        <ele>-7.2</ele>
        <time>2024-03-20T18:34:01Z</time>
      </trkpt>
      <trkpt lat="49.284" lon="-0.10763">
        <ele>-7.2</ele>
        <time>2024-03-20T18:34:02Z</time>
      </trkpt>
      <trkpt lat="49.28403" lon="-0.10762">
        <ele>-7.2</ele>
        <time>2024-03-20T18:34:03Z</time>
      </trkpt>
      <trkpt lat="49.28406" lon="-0.10762">
        <ele>-7.2</ele>
        <time>2024-03-20T18:34:04Z</time>
      </trkpt>
      <trkpt lat="49.28409" lon="-0.10761">
        <ele>-7.2</ele>
        <time>2024-03-20T18:34:05Z</time>
      </trkpt>
      <trkpt lat="49.28412" lon="-0.1076">
        <ele>-7.2</ele>
        <time>2024-03-20T18:34:06Z</time>
      </trkpt>
      <trkpt lat="49.28414" lon="-0.10759">
        <ele>-7.2</ele>
        <time>2024-03-20T18:34:07Z</time>
      </trkpt>
      <trkpt lat="49.28415" lon="-0.10758">
        <ele>-7.2</ele>
        <time>2024-03-20T18:34:08Z</time>
      </trkpt>
      <trkpt lat="49.28416" lon="-0.10758">
        <ele>-7.2</ele>
        <time>2024-03-20T18:34:09Z</time>
      </trkpt>
      <trkpt lat="49.28417" lon="-0.10758">
        <ele>-7.2</ele>
        <time>2024-03-20T18:34:10Z</time>
      </trkpt>
      <trkpt lat="49.28421" lon="-0.1076">
        <ele>-7</ele>
        <time>2024-03-20T18:34:22Z</time>
      </trkpt>
      <trkpt lat="49.28422" lon="-0.10762">
        <ele>-7</ele>
        <time>2024-03-20T18:34:23Z</time>
      </trkpt>
      <trkpt lat="49.28423" lon="-0.10764">
        <ele>-7</ele>
        <time>2024-03-20T18:34:24Z</time>
      </trkpt>
      <trkpt lat="49.28424" lon="-0.10775">
        <ele>-6.8</ele>
        <time>2024-03-20T18:34:38Z</time>
      </trkpt>
      <trkpt lat="49.28425" lon="-0.10777">
        <ele>-6.8</ele>
        <time>2024-03-20T18:34:39Z</time>
      </trkpt>
      <trkpt lat="49.28425" lon="-0.1078">
        <ele>-6.8</ele>
        <time>2024-03-20T18:34:40Z</time>
      </trkpt>
      <trkpt lat="49.28426" lon="-0.10783">
        <ele>-6.8</ele>
        <time>2024-03-20T18:34:41Z</time>
      </trkpt>
      <trkpt lat="49.28426" lon="-0.10788">
        <ele>-6.8</ele>
        <time>2024-03-20T18:34:42Z</time>
      </trkpt>
      <trkpt lat="49.28426" lon="-0.10793">
        <ele>-6.8</ele>
        <time>2024-03-20T18:34:43Z</time>
      </trkpt>
      <trkpt lat="49.28426" lon="-0.10798">
        <ele>-6.8</ele>
        <time>2024-03-20T18:34:44Z</time>
      </trkpt>
      <trkpt lat="49.28426" lon="-0.10803">
        <ele>-6.8</ele>
        <time>2024-03-20T18:34:45Z</time>
      </trkpt>
      <trkpt lat="49.28426" lon="-0.10809">
        <ele>-7</ele>
        <time>2024-03-20T18:34:46Z</time>
      </trkpt>
      <trkpt lat="49.28427" lon="-0.10814">
        <ele>-7</ele>
        <time>2024-03-20T18:34:47Z</time>
      </trkpt>
      <trkpt lat="49.28427" lon="-0.1082">
        <ele>-7</ele>
        <time>2024-03-20T18:34:48Z</time>
      </trkpt>
      <trkpt lat="49.28428" lon="-0.10825">
        <ele>-7</ele>
        <time>2024-03-20T18:34:49Z</time>
      </trkpt>
      <trkpt lat="49.28429" lon="-0.10831">
        <ele>-7</ele>
        <time>2024-03-20T18:34:50Z</time>
      </trkpt>
      <trkpt lat="49.28429" lon="-0.10837">
        <ele>-7</ele>
        <time>2024-03-20T18:34:51Z</time>
      </trkpt>
      <trkpt lat="49.2843" lon="-0.10844">
        <ele>-7</ele>
        <time>2024-03-20T18:34:52Z</time>
      </trkpt>
      <trkpt lat="49.28431" lon="-0.1085">
        <ele>-7</ele>
        <time>2024-03-20T18:34:53Z</time>
      </trkpt>
      <trkpt lat="49.28432" lon="-0.10857">
        <ele>-7</ele>
        <time>2024-03-20T18:34:54Z</time>
      </trkpt>
      <trkpt lat="49.28433" lon="-0.10863">
        <ele>-7</ele>
        <time>2024-03-20T18:34:55Z</time>
      </trkpt>
      <trkpt lat="49.28434" lon="-0.10869">
        <ele>-7.2</ele>
        <time>2024-03-20T18:34:56Z</time>
      </trkpt>
      <trkpt lat="49.28435" lon="-0.10874">
        <ele>-7.2</ele>
        <time>2024-03-20T18:34:57Z</time>
      </trkpt>
      <trkpt lat="49.28436" lon="-0.10879">
        <ele>-7.2</ele>
        <time>2024-03-20T18:34:58Z</time>
      </trkpt>
      <trkpt lat="49.28439" lon="-0.10883">
        <ele>-7.2</ele>
        <time>2024-03-20T18:34:59Z</time>
      </trkpt>
      <trkpt lat="49.28442" lon="-0.10885">
        <ele>-7.2</ele>
        <time>2024-03-20T18:35:00Z</time>
      </trkpt>
      <trkpt lat="49.28446" lon="-0.10885">
        <ele>-7.4</ele>
        <time>2024-03-20T18:35:01Z</time>
      </trkpt>
      <trkpt lat="49.2845" lon="-0.10884">
        <ele>-7.4</ele>
        <time>2024-03-20T18:35:02Z</time>
      </trkpt>
      <trkpt lat="49.28454" lon="-0.10883">
        <ele>-7.4</ele>
        <time>2024-03-20T18:35:03Z</time>
      </trkpt>
      <trkpt lat="49.28458" lon="-0.10881">
        <ele>-7.4</ele>
        <time>2024-03-20T18:35:04Z</time>
      </trkpt>
      <trkpt lat="49.28462" lon="-0.10878">
        <ele>-7.4</ele>
        <time>2024-03-20T18:35:05Z</time>
      </trkpt>
      <trkpt lat="49.28466" lon="-0.10876">
        <ele>-7.4</ele>
        <time>2024-03-20T18:35:06Z</time>
      </trkpt>
      <trkpt lat="49.28469" lon="-0.10874">
        <ele>-7.4</ele>
        <time>2024-03-20T18:35:07Z</time>
      </trkpt>
      <trkpt lat="49.28474" lon="-0.10872">
        <ele>-7.4</ele>
        <time>2024-03-20T18:35:08Z</time>
      </trkpt>
      <trkpt lat="49.28478" lon="-0.1087">
        <ele>-7.4</ele>
        <time>2024-03-20T18:35:09Z</time>
      </trkpt>
      <trkpt lat="49.28482" lon="-0.10868">
        <ele>-7.6</ele>
        <time>2024-03-20T18:35:10Z</time>
      </trkpt>
      <trkpt lat="49.28487" lon="-0.10866">
        <ele>-7.6</ele>
        <time>2024-03-20T18:35:11Z</time>
      </trkpt>
      <trkpt lat="49.2849" lon="-0.10864">
        <ele>-7.6</ele>
        <time>2024-03-20T18:35:12Z</time>
      </trkpt>
      <trkpt lat="49.28494" lon="-0.10862">
        <ele>-7.6</ele>
        <time>2024-03-20T18:35:13Z</time>
      </trkpt>
      <trkpt lat="49.28498" lon="-0.1086">
        <ele>-7.6</ele>
        <time>2024-03-20T18:35:14Z</time>
      </trkpt>
      <trkpt lat="49.28501" lon="-0.10859">
        <ele>-7.6</ele>
        <time>2024-03-20T18:35:15Z</time>
      </trkpt>
      <trkpt lat="49.28504" lon="-0.10857">
        <ele>-7.6</ele>
        <time>2024-03-20T18:35:16Z</time>
      </trkpt>
      <trkpt lat="49.28507" lon="-0.10856">
        <ele>-7.6</ele>
        <time>2024-03-20T18:35:17Z</time>
      </trkpt>
      <trkpt lat="49.2851" lon="-0.10854">
        <ele>-7.6</ele>
        <time>2024-03-20T18:35:18Z</time>
      </trkpt>
      <trkpt lat="49.28513" lon="-0.10853">
        <ele>-7.6</ele>
        <time>2024-03-20T18:35:19Z</time>
      </trkpt>
      <trkpt lat="49.28515" lon="-0.10852">
        <ele>-7.4</ele>
        <time>2024-03-20T18:35:20Z</time>
      </trkpt>
      <trkpt lat="49.28517" lon="-0.10851">
        <ele>-7.4</ele>
        <time>2024-03-20T18:35:21Z</time>
      </trkpt>
      <trkpt lat="49.28518" lon="-0.10851">
        <ele>-7.4</ele>
        <time>2024-03-20T18:35:22Z</time>
      </trkpt>
      <trkpt lat="49.28518" lon="-0.10851">
        <ele>-7.4</ele>
        <time>2024-03-20T18:35:23Z</time>
      </trkpt>
      <trkpt lat="49.28518" lon="-0.10851">
        <ele>-7.4</ele>
        <time>2024-03-20T18:35:24Z</time>
      </trkpt>
      <trkpt lat="49.28522" lon="-0.10848">
        <ele>-7</ele>
        <time>2024-03-20T18:35:28Z</time>
      </trkpt>
      <trkpt lat="49.28524" lon="-0.10846">
        <ele>-6.8</ele>
        <time>2024-03-20T18:35:29Z</time>
      </trkpt>
      <trkpt lat="49.28526" lon="-0.10844">
        <ele>-6.8</ele>
        <time>2024-03-20T18:35:30Z</time>
      </trkpt>
      <trkpt lat="49.28528" lon="-0.10842">
        <ele>-6.8</ele>
        <time>2024-03-20T18:35:31Z</time>
      </trkpt>
      <trkpt lat="49.28531" lon="-0.10842">
        <ele>-6.6</ele>
        <time>2024-03-20T18:35:32Z</time>
      </trkpt>
      <trkpt lat="49.28534" lon="-0.10844">
        <ele>-6.6</ele>
        <time>2024-03-20T18:35:33Z</time>
      </trkpt>
      <trkpt lat="49.28537" lon="-0.10848">
        <ele>-6.6</ele>
        <time>2024-03-20T18:35:34Z</time>
      </trkpt>
      <trkpt lat="49.28539" lon="-0.10854">
        <ele>-6.6</ele>
        <time>2024-03-20T18:35:35Z</time>
      </trkpt>
      <trkpt lat="49.2854" lon="-0.1086">
        <ele>-6.6</ele>
        <time>2024-03-20T18:35:36Z</time>
      </trkpt>
      <trkpt lat="49.2854" lon="-0.10866">
        <ele>-6.6</ele>
        <time>2024-03-20T18:35:37Z</time>
      </trkpt>
      <trkpt lat="49.2854" lon="-0.10872">
        <ele>-6.6</ele>
        <time>2024-03-20T18:35:38Z</time>
      </trkpt>
      <trkpt lat="49.28539" lon="-0.10878">
        <ele>-6.6</ele>
        <time>2024-03-20T18:35:39Z</time>
      </trkpt>
      <trkpt lat="49.28538" lon="-0.10885">
        <ele>-6.6</ele>
        <time>2024-03-20T18:35:40Z</time>
      </trkpt>
      <trkpt lat="49.28535" lon="-0.10891">
        <ele>-6.6</ele>
        <time>2024-03-20T18:35:41Z</time>
      </trkpt>
      <trkpt lat="49.28533" lon="-0.10897">
        <ele>-6.6</ele>
        <time>2024-03-20T18:35:42Z</time>
      </trkpt>
      <trkpt lat="49.2853" lon="-0.10903">
        <ele>-6.6</ele>
        <time>2024-03-20T18:35:43Z</time>
      </trkpt>
      <trkpt lat="49.28528" lon="-0.1091">
        <ele>-6.6</ele>
        <time>2024-03-20T18:35:44Z</time>
      </trkpt>
      <trkpt lat="49.28526" lon="-0.10917">
        <ele>-6.6</ele>
        <time>2024-03-20T18:35:45Z</time>
      </trkpt>
      <trkpt lat="49.28526" lon="-0.10926">
        <ele>-6.8</ele>
        <time>2024-03-20T18:35:46Z</time>
      </trkpt>
      <trkpt lat="49.28526" lon="-0.10934">
        <ele>-6.8</ele>
        <time>2024-03-20T18:35:47Z</time>
      </trkpt>
      <trkpt lat="49.28527" lon="-0.10942">
        <ele>-6.8</ele>
        <time>2024-03-20T18:35:48Z</time>
      </trkpt>
      <trkpt lat="49.28529" lon="-0.1095">
        <ele>-6.8</ele>
        <time>2024-03-20T18:35:49Z</time>
      </trkpt>
      <trkpt lat="49.2853" lon="-0.10958">
        <ele>-7</ele>
        <time>2024-03-20T18:35:50Z</time>
      </trkpt>
      <trkpt lat="49.28531" lon="-0.10966">
        <ele>-7</ele>
        <time>2024-03-20T18:35:51Z</time>
      </trkpt>
      <trkpt lat="49.28532" lon="-0.10974">
        <ele>-7</ele>
        <time>2024-03-20T18:35:52Z</time>
      </trkpt>
      <trkpt lat="49.28534" lon="-0.10982">
        <ele>-7</ele>
        <time>2024-03-20T18:35:53Z</time>
      </trkpt>
      <trkpt lat="49.28536" lon="-0.10989">
        <ele>-7</ele>
        <time>2024-03-20T18:35:54Z</time>
      </trkpt>
      <trkpt lat="49.28538" lon="-0.10997">
        <ele>-7</ele>
        <time>2024-03-20T18:35:55Z</time>
      </trkpt>
      <trkpt lat="49.28539" lon="-0.11004">
        <ele>-7</ele>
        <time>2024-03-20T18:35:56Z</time>
      </trkpt>
      <trkpt lat="49.28541" lon="-0.11012">
        <ele>-7</ele>
        <time>2024-03-20T18:35:57Z</time>
      </trkpt>
      <trkpt lat="49.28542" lon="-0.1102">
        <ele>-7</ele>
        <time>2024-03-20T18:35:58Z</time>
      </trkpt>
      <trkpt lat="49.28544" lon="-0.11028">
        <ele>-7</ele>
        <time>2024-03-20T18:35:59Z</time>
      </trkpt>
      <trkpt lat="49.28545" lon="-0.11035">
        <ele>-7</ele>
        <time>2024-03-20T18:36:00Z</time>
      </trkpt>
      <trkpt lat="49.28547" lon="-0.11043">
        <ele>-7</ele>
        <time>2024-03-20T18:36:01Z</time>
      </trkpt>
      <trkpt lat="49.28549" lon="-0.1105">
        <ele>-7</ele>
        <time>2024-03-20T18:36:02Z</time>
      </trkpt>
      <trkpt lat="49.28551" lon="-0.11058">
        <ele>-7</ele>
        <time>2024-03-20T18:36:03Z</time>
      </trkpt>
      <trkpt lat="49.28553" lon="-0.11065">
        <ele>-7</ele>
        <time>2024-03-20T18:36:04Z</time>
      </trkpt>
      <trkpt lat="49.28555" lon="-0.11072">
        <ele>-7</ele>
        <time>2024-03-20T18:36:05Z</time>
      </trkpt>
      <trkpt lat="49.28557" lon="-0.1108">
        <ele>-6.8</ele>
        <time>2024-03-20T18:36:06Z</time>
      </trkpt>
      <trkpt lat="49.28559" lon="-0.11087">
        <ele>-6.8</ele>
        <time>2024-03-20T18:36:07Z</time>
      </trkpt>
      <trkpt lat="49.28561" lon="-0.11094">
        <ele>-6.8</ele>
        <time>2024-03-20T18:36:08Z</time>
      </trkpt>
      <trkpt lat="49.28563" lon="-0.11102">
        <ele>-6.6</ele>
        <time>2024-03-20T18:36:09Z</time>
      </trkpt>
      <trkpt lat="49.28565" lon="-0.11109">
        <ele>-6.4</ele>
        <time>2024-03-20T18:36:10Z</time>
      </trkpt>
      <trkpt lat="49.28567" lon="-0.11116">
        <ele>-6.2</ele>
        <time>2024-03-20T18:36:11Z</time>
      </trkpt>
      <trkpt lat="49.28569" lon="-0.11124">
        <ele>-6</ele>
        <time>2024-03-20T18:36:12Z</time>
      </trkpt>
      <trkpt lat="49.28571" lon="-0.1113">
        <ele>-6</ele>
        <time>2024-03-20T18:36:13Z</time>
      </trkpt>
      <trkpt lat="49.28573" lon="-0.11138">
        <ele>-5.8</ele>
        <time>2024-03-20T18:36:14Z</time>
      </trkpt>
      <trkpt lat="49.28575" lon="-0.11145">
        <ele>-5.8</ele>
        <time>2024-03-20T18:36:15Z</time>
      </trkpt>
      <trkpt lat="49.28577" lon="-0.11152">
        <ele>-5.6</ele>
        <time>2024-03-20T18:36:16Z</time>
      </trkpt>
      <trkpt lat="49.28578" lon="-0.11159">
        <ele>-5.6</ele>
        <time>2024-03-20T18:36:17Z</time>
      </trkpt>
      <trkpt lat="49.2858" lon="-0.11166">
        <ele>-5.4</ele>
        <time>2024-03-20T18:36:18Z</time>
      </trkpt>
      <trkpt lat="49.28582" lon="-0.11173">
        <ele>-5.4</ele>
        <time>2024-03-20T18:36:19Z</time>
      </trkpt>
      <trkpt lat="49.28584" lon="-0.1118">
        <ele>-5.4</ele>
        <time>2024-03-20T18:36:20Z</time>
      </trkpt>
      <trkpt lat="49.28585" lon="-0.11187">
        <ele>-5.2</ele>
        <time>2024-03-20T18:36:21Z</time>
      </trkpt>
      <trkpt lat="49.28587" lon="-0.11194">
        <ele>-5.2</ele>
        <time>2024-03-20T18:36:22Z</time>
      </trkpt>
      <trkpt lat="49.28589" lon="-0.11201">
        <ele>-5</ele>
        <time>2024-03-20T18:36:23Z</time>
      </trkpt>
      <trkpt lat="49.28591" lon="-0.11208">
        <ele>-5</ele>
        <time>2024-03-20T18:36:24Z</time>
      </trkpt>
      <trkpt lat="49.28594" lon="-0.11215">
        <ele>-5</ele>
        <time>2024-03-20T18:36:25Z</time>
      </trkpt>
      <trkpt lat="49.28597" lon="-0.11222">
        <ele>-4.8</ele>
        <time>2024-03-20T18:36:26Z</time>
      </trkpt>
      <trkpt lat="49.28599" lon="-0.11229">
        <ele>-4.8</ele>
        <time>2024-03-20T18:36:27Z</time>
      </trkpt>
      <trkpt lat="49.28602" lon="-0.11236">
        <ele>-4.8</ele>
        <time>2024-03-20T18:36:28Z</time>
      </trkpt>
      <trkpt lat="49.28603" lon="-0.11244">
        <ele>-4.8</ele>
        <time>2024-03-20T18:36:29Z</time>
      </trkpt>
      <trkpt lat="49.28605" lon="-0.11252">
        <ele>-4.8</ele>
        <time>2024-03-20T18:36:30Z</time>
      </trkpt>
      <trkpt lat="49.28606" lon="-0.11261">
        <ele>-4.8</ele>
        <time>2024-03-20T18:36:31Z</time>
      </trkpt>
      <trkpt lat="49.28607" lon="-0.1127">
        <ele>-5.2</ele>
        <time>2024-03-20T18:36:32Z</time>
      </trkpt>
      <trkpt lat="49.2861" lon="-0.11278">
        <ele>-5.2</ele>
        <time>2024-03-20T18:36:33Z</time>
      </trkpt>
      <trkpt lat="49.28612" lon="-0.11287">
        <ele>-5.2</ele>
        <time>2024-03-20T18:36:34Z</time>
      </trkpt>
      <trkpt lat="49.28614" lon="-0.11296">
        <ele>-5.4</ele>
        <time>2024-03-20T18:36:35Z</time>
      </trkpt>
      <trkpt lat="49.28617" lon="-0.11306">
        <ele>-5.4</ele>
        <time>2024-03-20T18:36:36Z</time>
      </trkpt>
      <trkpt lat="49.28619" lon="-0.11315">
        <ele>-5.4</ele>
        <time>2024-03-20T18:36:37Z</time>
      </trkpt>
      <trkpt lat="49.28622" lon="-0.11324">
        <ele>-5.6</ele>
        <time>2024-03-20T18:36:38Z</time>
      </trkpt>
      <trkpt lat="49.28625" lon="-0.11333">
        <ele>-5.6</ele>
        <time>2024-03-20T18:36:39Z</time>
      </trkpt>
      <trkpt lat="49.28627" lon="-0.11342">
        <ele>-5.6</ele>
        <time>2024-03-20T18:36:40Z</time>
      </trkpt>
      <trkpt lat="49.2863" lon="-0.11352">
        <ele>-6</ele>
        <time>2024-03-20T18:36:41Z</time>
      </trkpt>
      <trkpt lat="49.28633" lon="-0.11361">
        <ele>-6.2</ele>
        <time>2024-03-20T18:36:42Z</time>
      </trkpt>
      <trkpt lat="49.28635" lon="-0.11371">
        <ele>-6.4</ele>
        <time>2024-03-20T18:36:43Z</time>
      </trkpt>
      <trkpt lat="49.28638" lon="-0.1138">
        <ele>-6.6</ele>
        <time>2024-03-20T18:36:44Z</time>
      </trkpt>
      <trkpt lat="49.28641" lon="-0.1139">
        <ele>-6.8</ele>
        <time>2024-03-20T18:36:45Z</time>
      </trkpt>
      <trkpt lat="49.28643" lon="-0.114">
        <ele>-7</ele>
        <time>2024-03-20T18:36:46Z</time>
      </trkpt>
      <trkpt lat="49.28646" lon="-0.11409">
        <ele>-7.2</ele>
        <time>2024-03-20T18:36:47Z</time>
      </trkpt>
      <trkpt lat="49.28649" lon="-0.11419">
        <ele>-7.2</ele>
        <time>2024-03-20T18:36:48Z</time>
      </trkpt>
      <trkpt lat="49.28651" lon="-0.11428">
        <ele>-7.4</ele>
        <time>2024-03-20T18:36:49Z</time>
      </trkpt>
      <trkpt lat="49.28654" lon="-0.11438">
        <ele>-7.4</ele>
        <time>2024-03-20T18:36:50Z</time>
      </trkpt>
      <trkpt lat="49.28656" lon="-0.11448">
        <ele>-7.6</ele>
        <time>2024-03-20T18:36:51Z</time>
      </trkpt>
      <trkpt lat="49.28658" lon="-0.11457">
        <ele>-7.6</ele>
        <time>2024-03-20T18:36:52Z</time>
      </trkpt>
      <trkpt lat="49.2866" lon="-0.11466">
        <ele>-7.6</ele>
        <time>2024-03-20T18:36:53Z</time>
      </trkpt>
      <trkpt lat="49.28662" lon="-0.11475">
        <ele>-7.6</ele>
        <time>2024-03-20T18:36:54Z</time>
      </trkpt>
      <trkpt lat="49.28665" lon="-0.11484">
        <ele>-7.6</ele>
        <time>2024-03-20T18:36:55Z</time>
      </trkpt>
      <trkpt lat="49.28667" lon="-0.11493">
        <ele>-7.6</ele>
        <time>2024-03-20T18:36:56Z</time>
      </trkpt>
      <trkpt lat="49.28669" lon="-0.11502">
        <ele>-7.6</ele>
        <time>2024-03-20T18:36:57Z</time>
      </trkpt>
      <trkpt lat="49.28671" lon="-0.11511">
        <ele>-7.6</ele>
        <time>2024-03-20T18:36:58Z</time>
      </trkpt>
      <trkpt lat="49.28673" lon="-0.1152">
        <ele>-7.6</ele>
        <time>2024-03-20T18:36:59Z</time>
      </trkpt>
      <trkpt lat="49.28675" lon="-0.11529">
        <ele>-7.6</ele>
        <time>2024-03-20T18:37:00Z</time>
      </trkpt>
      <trkpt lat="49.28677" lon="-0.11538">
        <ele>-7.6</ele>
        <time>2024-03-20T18:37:01Z</time>
      </trkpt>
      <trkpt lat="49.28679" lon="-0.11547">
        <ele>-7.6</ele>
        <time>2024-03-20T18:37:02Z</time>
      </trkpt>
      <trkpt lat="49.2868" lon="-0.11556">
        <ele>-7.6</ele>
        <time>2024-03-20T18:37:03Z</time>
      </trkpt>
      <trkpt lat="49.28681" lon="-0.11565">
        <ele>-7.6</ele>
        <time>2024-03-20T18:37:04Z</time>
      </trkpt>
      <trkpt lat="49.28682" lon="-0.11573">
        <ele>-7.6</ele>
        <time>2024-03-20T18:37:05Z</time>
      </trkpt>
      <trkpt lat="49.28683" lon="-0.11582">
        <ele>-7.6</ele>
        <time>2024-03-20T18:37:06Z</time>
      </trkpt>
      <trkpt lat="49.28684" lon="-0.11591">
        <ele>-7.6</ele>
        <time>2024-03-20T18:37:07Z</time>
      </trkpt>
      <trkpt lat="49.28685" lon="-0.11599">
        <ele>-7.6</ele>
        <time>2024-03-20T18:37:08Z</time>
      </trkpt>
      <trkpt lat="49.28685" lon="-0.11608">
        <ele>-7.6</ele>
        <time>2024-03-20T18:37:09Z</time>
      </trkpt>
      <trkpt lat="49.28686" lon="-0.11615">
        <ele>-7.6</ele>
        <time>2024-03-20T18:37:10Z</time>
      </trkpt>
      <trkpt lat="49.28687" lon="-0.11622">
        <ele>-7.4</ele>
        <time>2024-03-20T18:37:11Z</time>
      </trkpt>
      <trkpt lat="49.28687" lon="-0.11627">
        <ele>-7.4</ele>
        <time>2024-03-20T18:37:12Z</time>
      </trkpt>
      <trkpt lat="49.28687" lon="-0.11632">
        <ele>-7.4</ele>
        <time>2024-03-20T18:37:13Z</time>
      </trkpt>
      <trkpt lat="49.28688" lon="-0.11636">
        <ele>-7.4</ele>
        <time>2024-03-20T18:37:14Z</time>
      </trkpt>
      <trkpt lat="49.28688" lon="-0.11638">
        <ele>-7.4</ele>
        <time>2024-03-20T18:37:15Z</time>
      </trkpt>
      <trkpt lat="49.28688" lon="-0.11639">
        <ele>-7.4</ele>
        <time>2024-03-20T18:37:16Z</time>
      </trkpt>
      <trkpt lat="49.28688" lon="-0.11639">
        <ele>-7.4</ele>
        <time>2024-03-20T18:37:17Z</time>
      </trkpt>
      <trkpt lat="49.28688" lon="-0.11645">
        <ele>-5.8</ele>
        <time>2024-03-20T18:37:42Z</time>
      </trkpt>
      <trkpt lat="49.28687" lon="-0.11648">
        <ele>-5.8</ele>
        <time>2024-03-20T18:37:43Z</time>
      </trkpt>
      <trkpt lat="49.28687" lon="-0.11652">
        <ele>-5.8</ele>
        <time>2024-03-20T18:37:44Z</time>
      </trkpt>
      <trkpt lat="49.28687" lon="-0.11656">
        <ele>-5.8</ele>
        <time>2024-03-20T18:37:45Z</time>
      </trkpt>
      <trkpt lat="49.28687" lon="-0.11661">
        <ele>-5.8</ele>
        <time>2024-03-20T18:37:46Z</time>
      </trkpt>
      <trkpt lat="49.28686" lon="-0.11666">
        <ele>-5.8</ele>
        <time>2024-03-20T18:37:47Z</time>
      </trkpt>
      <trkpt lat="49.28686" lon="-0.11671">
        <ele>-5.8</ele>
        <time>2024-03-20T18:37:48Z</time>
      </trkpt>
      <trkpt lat="49.28685" lon="-0.11677">
        <ele>-5.8</ele>
        <time>2024-03-20T18:37:49Z</time>
      </trkpt>
      <trkpt lat="49.28685" lon="-0.11684">
        <ele>-5.8</ele>
        <time>2024-03-20T18:37:50Z</time>
      </trkpt>
      <trkpt lat="49.28685" lon="-0.1169">
        <ele>-6</ele>
        <time>2024-03-20T18:37:51Z</time>
      </trkpt>
      <trkpt lat="49.28685" lon="-0.11697">
        <ele>-6</ele>
        <time>2024-03-20T18:37:52Z</time>
      </trkpt>
      <trkpt lat="49.28684" lon="-0.11704">
        <ele>-6</ele>
        <time>2024-03-20T18:37:53Z</time>
      </trkpt>
      <trkpt lat="49.28684" lon="-0.11711">
        <ele>-6</ele>
        <time>2024-03-20T18:37:54Z</time>
      </trkpt>
      <trkpt lat="49.28684" lon="-0.11718">
        <ele>-6</ele>
        <time>2024-03-20T18:37:55Z</time>
      </trkpt>
      <trkpt lat="49.28684" lon="-0.11725">
        <ele>-6.2</ele>
        <time>2024-03-20T18:37:56Z</time>
      </trkpt>
      <trkpt lat="49.28684" lon="-0.11733">
        <ele>-6.2</ele>
        <time>2024-03-20T18:37:57Z</time>
      </trkpt>
      <trkpt lat="49.28684" lon="-0.1174">
        <ele>-6.4</ele>
        <time>2024-03-20T18:37:58Z</time>
      </trkpt>
      <trkpt lat="49.28684" lon="-0.11747">
        <ele>-6.4</ele>
        <time>2024-03-20T18:37:59Z</time>
      </trkpt>
      <trkpt lat="49.28684" lon="-0.11754">
        <ele>-6.6</ele>
        <time>2024-03-20T18:38:00Z</time>
      </trkpt>
      <trkpt lat="49.28684" lon="-0.11762">
        <ele>-6.6</ele>
        <time>2024-03-20T18:38:01Z</time>
      </trkpt>
      <trkpt lat="49.28683" lon="-0.11769">
        <ele>-6.8</ele>
        <time>2024-03-20T18:38:02Z</time>
      </trkpt>
      <trkpt lat="49.28683" lon="-0.11777">
        <ele>-6.8</ele>
        <time>2024-03-20T18:38:03Z</time>
      </trkpt>
      <trkpt lat="49.28682" lon="-0.11784">
        <ele>-7</ele>
        <time>2024-03-20T18:38:04Z</time>
      </trkpt>
      <trkpt lat="49.28681" lon="-0.11792">
        <ele>-7</ele>
        <time>2024-03-20T18:38:05Z</time>
      </trkpt>
      <trkpt lat="49.2868" lon="-0.118">
        <ele>-7.2</ele>
        <time>2024-03-20T18:38:06Z</time>
      </trkpt>
      <trkpt lat="49.28679" lon="-0.11807">
        <ele>-7.2</ele>
        <time>2024-03-20T18:38:07Z</time>
      </trkpt>
      <trkpt lat="49.28678" lon="-0.11815">
        <ele>-7.2</ele>
        <time>2024-03-20T18:38:08Z</time>
      </trkpt>
      <trkpt lat="49.28677" lon="-0.11823">
        <ele>-7.2</ele>
        <time>2024-03-20T18:38:09Z</time>
      </trkpt>
      <trkpt lat="49.28676" lon="-0.11831">
        <ele>-7.2</ele>
        <time>2024-03-20T18:38:10Z</time>
      </trkpt>
      <trkpt lat="49.28675" lon="-0.11839">
        <ele>-7.4</ele>
        <time>2024-03-20T18:38:11Z</time>
      </trkpt>
      <trkpt lat="49.28674" lon="-0.11847">
        <ele>-7.4</ele>
        <time>2024-03-20T18:38:12Z</time>
      </trkpt>
      <trkpt lat="49.28672" lon="-0.11854">
        <ele>-7.4</ele>
        <time>2024-03-20T18:38:13Z</time>
      </trkpt>
      <trkpt lat="49.28671" lon="-0.11861">
        <ele>-7.4</ele>
        <time>2024-03-20T18:38:14Z</time>
      </trkpt>
      <trkpt lat="49.28669" lon="-0.11867">
        <ele>-7.4</ele>
        <time>2024-03-20T18:38:15Z</time>
      </trkpt>
      <trkpt lat="49.28665" lon="-0.11873">
        <ele>-7.4</ele>
        <time>2024-03-20T18:38:16Z</time>
      </trkpt>
      <trkpt lat="49.28661" lon="-0.11877">
        <ele>-7.2</ele>
        <time>2024-03-20T18:38:17Z</time>
      </trkpt>
      <trkpt lat="49.28657" lon="-0.11879">
        <ele>-7.2</ele>
        <time>2024-03-20T18:38:18Z</time>
      </trkpt>
      <trkpt lat="49.28653" lon="-0.11882">
        <ele>-7.2</ele>
        <time>2024-03-20T18:38:19Z</time>
      </trkpt>
      <trkpt lat="49.28649" lon="-0.11885">
        <ele>-7.2</ele>
        <time>2024-03-20T18:38:20Z</time>
      </trkpt>
      <trkpt lat="49.28646" lon="-0.11888">
        <ele>-7</ele>
        <time>2024-03-20T18:38:21Z</time>
      </trkpt>
      <trkpt lat="49.28643" lon="-0.11891">
        <ele>-7</ele>
        <time>2024-03-20T18:38:22Z</time>
      </trkpt>
      <trkpt lat="49.28642" lon="-0.11895">
        <ele>-6.8</ele>
        <time>2024-03-20T18:38:23Z</time>
      </trkpt>
      <trkpt lat="49.2864" lon="-0.11899">
        <ele>-6.6</ele>
        <time>2024-03-20T18:38:24Z</time>
      </trkpt>
      <trkpt lat="49.28639" lon="-0.11902">
        <ele>-6.4</ele>
        <time>2024-03-20T18:38:25Z</time>
      </trkpt>
      <trkpt lat="49.28638" lon="-0.11906">
        <ele>-6.4</ele>
        <time>2024-03-20T18:38:26Z</time>
      </trkpt>
      <trkpt lat="49.28637" lon="-0.1191">
        <ele>-6.2</ele>
        <time>2024-03-20T18:38:27Z</time>
      </trkpt>
      <trkpt lat="49.28638" lon="-0.11914">
        <ele>-6.2</ele>
        <time>2024-03-20T18:38:28Z</time>
      </trkpt>
      <trkpt lat="49.28639" lon="-0.11918">
        <ele>-6</ele>
        <time>2024-03-20T18:38:29Z</time>
      </trkpt>
      <trkpt lat="49.28641" lon="-0.11921">
        <ele>-6</ele>
        <time>2024-03-20T18:38:30Z</time>
      </trkpt>
      <trkpt lat="49.28642" lon="-0.11925">
        <ele>-6.2</ele>
        <time>2024-03-20T18:38:31Z</time>
      </trkpt>
      <trkpt lat="49.28642" lon="-0.11928">
        <ele>-6.2</ele>
        <time>2024-03-20T18:38:32Z</time>
      </trkpt>
      <trkpt lat="49.28642" lon="-0.1193">
        <ele>-6.2</ele>
        <time>2024-03-20T18:38:33Z</time>
      </trkpt>
      <trkpt lat="49.28642" lon="-0.11932">
        <ele>-6.2</ele>
        <time>2024-03-20T18:38:34Z</time>
      </trkpt>
      <trkpt lat="49.28642" lon="-0.11932">
        <ele>-6.2</ele>
        <time>2024-03-20T18:38:35Z</time>
      </trkpt>
      <trkpt lat="49.28642" lon="-0.11932">
        <ele>-6.2</ele>
        <time>2024-03-20T18:38:36Z</time>
      </trkpt>
    </trkseg>
  </trk>
</gpx>